<?xml version="1.0" encoding="UTF-8" standalone="no" ?>
<gpx xmlns="http://www.topografix.com/GPX/1/1" xmlns:xsi="http://www.w3.org/2001/XMLSchema-instance" xsi:schemaLocation="http://www.topografix.com/GPX/1/1 http://www.topografix.com/GPX/1/1/gpx.xsd" version="1.1" creator="VisuGPX - https://www.visugpx.com">
  <metadata>
    <name>20190925-Bourbonne les Bains-Lantenot</name>
    <desc><![CDATA[10ème jour de notre tour de France]]></desc>
  </metadata>
  <trk>
    <name><![CDATA[Tracé 20190925-095458]]></name>
    <trkseg>
      <trkpt lat="47.95739" lon="5.74018">
        <ele>265.381</ele>
        <time>2019-09-25T07:54:58.208Z</time>
      </trkpt>
      <trkpt lat="47.95736" lon="5.7401">
        <ele>274.02</ele>
        <time>2019-09-25T09:55:02Z</time>
      </trkpt>
      <trkpt lat="47.95736" lon="5.7401">
        <ele>275.723</ele>
        <time>2019-09-25T09:58:20Z</time>
      </trkpt>
      <trkpt lat="47.95733" lon="5.74033">
        <ele>276.345</ele>
        <time>2019-09-25T09:58:23Z</time>
      </trkpt>
      <trkpt lat="47.95733" lon="5.74044">
        <ele>277.118</ele>
        <time>2019-09-25T09:58:26Z</time>
      </trkpt>
      <trkpt lat="47.95733" lon="5.74056">
        <ele>277.657</ele>
        <time>2019-09-25T09:58:29Z</time>
      </trkpt>
      <trkpt lat="47.95734" lon="5.74069">
        <ele>277.853</ele>
        <time>2019-09-25T09:58:32Z</time>
      </trkpt>
      <trkpt lat="47.95734" lon="5.74083">
        <ele>277.717</ele>
        <time>2019-09-25T09:58:35Z</time>
      </trkpt>
      <trkpt lat="47.95734" lon="5.74098">
        <ele>278.079</ele>
        <time>2019-09-25T09:58:38Z</time>
      </trkpt>
      <trkpt lat="47.95733" lon="5.74114">
        <ele>278.664</ele>
        <time>2019-09-25T09:58:41Z</time>
      </trkpt>
      <trkpt lat="47.95732" lon="5.74128">
        <ele>279.879</ele>
        <time>2019-09-25T09:58:44Z</time>
      </trkpt>
      <trkpt lat="47.95731" lon="5.74146">
        <ele>281.48</ele>
        <time>2019-09-25T09:58:47Z</time>
      </trkpt>
      <trkpt lat="47.95731" lon="5.74166">
        <ele>283.018</ele>
        <time>2019-09-25T09:58:50Z</time>
      </trkpt>
      <trkpt lat="47.95731" lon="5.74187">
        <ele>284.608</ele>
        <time>2019-09-25T09:58:53Z</time>
      </trkpt>
      <trkpt lat="47.9573" lon="5.74204">
        <ele>285.341</ele>
        <time>2019-09-25T09:58:56Z</time>
      </trkpt>
      <trkpt lat="47.9573" lon="5.7422">
        <ele>284.763</ele>
        <time>2019-09-25T09:58:59Z</time>
      </trkpt>
      <trkpt lat="47.95729" lon="5.74238">
        <ele>285.182</ele>
        <time>2019-09-25T09:59:02Z</time>
      </trkpt>
      <trkpt lat="47.95729" lon="5.74256">
        <ele>285.533</ele>
        <time>2019-09-25T09:59:05Z</time>
      </trkpt>
      <trkpt lat="47.95727" lon="5.74277">
        <ele>285.229</ele>
        <time>2019-09-25T09:59:08Z</time>
      </trkpt>
      <trkpt lat="47.95725" lon="5.74299">
        <ele>284.885</ele>
        <time>2019-09-25T09:59:11Z</time>
      </trkpt>
      <trkpt lat="47.95724" lon="5.74319">
        <ele>284.562</ele>
        <time>2019-09-25T09:59:14Z</time>
      </trkpt>
      <trkpt lat="47.95722" lon="5.74338">
        <ele>283.842</ele>
        <time>2019-09-25T09:59:17Z</time>
      </trkpt>
      <trkpt lat="47.9572" lon="5.74362">
        <ele>282.621</ele>
        <time>2019-09-25T09:59:20Z</time>
      </trkpt>
      <trkpt lat="47.95718" lon="5.7439">
        <ele>281.953</ele>
        <time>2019-09-25T09:59:23Z</time>
      </trkpt>
      <trkpt lat="47.95716" lon="5.74415">
        <ele>280.764</ele>
        <time>2019-09-25T09:59:26Z</time>
      </trkpt>
      <trkpt lat="47.95712" lon="5.7444">
        <ele>280.372</ele>
        <time>2019-09-25T09:59:29Z</time>
      </trkpt>
      <trkpt lat="47.9571" lon="5.74463">
        <ele>280.455</ele>
        <time>2019-09-25T09:59:32Z</time>
      </trkpt>
      <trkpt lat="47.95707" lon="5.74481">
        <ele>280.661</ele>
        <time>2019-09-25T09:59:35Z</time>
      </trkpt>
      <trkpt lat="47.95704" lon="5.74497">
        <ele>280.691</ele>
        <time>2019-09-25T09:59:38Z</time>
      </trkpt>
      <trkpt lat="47.95698" lon="5.74513">
        <ele>280.839</ele>
        <time>2019-09-25T09:59:41Z</time>
      </trkpt>
      <trkpt lat="47.9569" lon="5.74525">
        <ele>280.635</ele>
        <time>2019-09-25T09:59:44Z</time>
      </trkpt>
      <trkpt lat="47.95679" lon="5.74533">
        <ele>280.623</ele>
        <time>2019-09-25T09:59:47Z</time>
      </trkpt>
      <trkpt lat="47.9567" lon="5.74535">
        <ele>280.336</ele>
        <time>2019-09-25T09:59:50Z</time>
      </trkpt>
      <trkpt lat="47.9566" lon="5.74535">
        <ele>280.411</ele>
        <time>2019-09-25T09:59:53Z</time>
      </trkpt>
      <trkpt lat="47.95651" lon="5.74535">
        <ele>281.12</ele>
        <time>2019-09-25T09:59:56Z</time>
      </trkpt>
      <trkpt lat="47.95641" lon="5.74535">
        <ele>280.44</ele>
        <time>2019-09-25T09:59:59Z</time>
      </trkpt>
      <trkpt lat="47.95632" lon="5.74536">
        <ele>279.768</ele>
        <time>2019-09-25T10:00:02Z</time>
      </trkpt>
      <trkpt lat="47.95622" lon="5.74536">
        <ele>279.511</ele>
        <time>2019-09-25T10:00:05Z</time>
      </trkpt>
      <trkpt lat="47.95613" lon="5.74536">
        <ele>279.209</ele>
        <time>2019-09-25T10:00:08Z</time>
      </trkpt>
      <trkpt lat="47.95605" lon="5.74536">
        <ele>279.127</ele>
        <time>2019-09-25T10:00:11Z</time>
      </trkpt>
      <trkpt lat="47.95598" lon="5.74536">
        <ele>279.506</ele>
        <time>2019-09-25T10:00:14Z</time>
      </trkpt>
      <trkpt lat="47.9559" lon="5.74535">
        <ele>279.974</ele>
        <time>2019-09-25T10:00:17Z</time>
      </trkpt>
      <trkpt lat="47.95583" lon="5.74536">
        <ele>280.249</ele>
        <time>2019-09-25T10:00:20Z</time>
      </trkpt>
      <trkpt lat="47.95576" lon="5.74537">
        <ele>280.007</ele>
        <time>2019-09-25T10:00:23Z</time>
      </trkpt>
      <trkpt lat="47.9557" lon="5.74539">
        <ele>279.819</ele>
        <time>2019-09-25T10:00:26Z</time>
      </trkpt>
      <trkpt lat="47.95564" lon="5.74538">
        <ele>279.546</ele>
        <time>2019-09-25T10:00:29Z</time>
      </trkpt>
      <trkpt lat="47.95558" lon="5.74537">
        <ele>279.891</ele>
        <time>2019-09-25T10:00:32Z</time>
      </trkpt>
      <trkpt lat="47.95553" lon="5.74537">
        <ele>279.63</ele>
        <time>2019-09-25T10:00:35Z</time>
      </trkpt>
      <trkpt lat="47.95548" lon="5.74536">
        <ele>280.266</ele>
        <time>2019-09-25T10:00:38Z</time>
      </trkpt>
      <trkpt lat="47.95542" lon="5.74536">
        <ele>280.851</ele>
        <time>2019-09-25T10:00:41Z</time>
      </trkpt>
      <trkpt lat="47.95537" lon="5.74535">
        <ele>280.864</ele>
        <time>2019-09-25T10:00:44Z</time>
      </trkpt>
      <trkpt lat="47.95532" lon="5.74535">
        <ele>280.949</ele>
        <time>2019-09-25T10:00:47Z</time>
      </trkpt>
      <trkpt lat="47.95528" lon="5.74536">
        <ele>281.955</ele>
        <time>2019-09-25T10:00:50Z</time>
      </trkpt>
      <trkpt lat="47.9552" lon="5.74538">
        <ele>282.121</ele>
        <time>2019-09-25T10:00:56Z</time>
      </trkpt>
      <trkpt lat="47.95512" lon="5.74534">
        <ele>282.967</ele>
        <time>2019-09-25T10:01:02Z</time>
      </trkpt>
      <trkpt lat="47.95509" lon="5.74533">
        <ele>283.715</ele>
        <time>2019-09-25T10:01:05Z</time>
      </trkpt>
      <trkpt lat="47.95507" lon="5.74538">
        <ele>284.861</ele>
        <time>2019-09-25T10:01:08Z</time>
      </trkpt>
      <trkpt lat="47.95505" lon="5.74548">
        <ele>285.044</ele>
        <time>2019-09-25T10:01:11Z</time>
      </trkpt>
      <trkpt lat="47.95504" lon="5.74563">
        <ele>285.725</ele>
        <time>2019-09-25T10:01:14Z</time>
      </trkpt>
      <trkpt lat="47.95507" lon="5.74583">
        <ele>286.369</ele>
        <time>2019-09-25T10:01:17Z</time>
      </trkpt>
      <trkpt lat="47.95512" lon="5.74608">
        <ele>286.338</ele>
        <time>2019-09-25T10:01:20Z</time>
      </trkpt>
      <trkpt lat="47.95514" lon="5.74633">
        <ele>286.093</ele>
        <time>2019-09-25T10:01:23Z</time>
      </trkpt>
      <trkpt lat="47.95514" lon="5.74656">
        <ele>286.241</ele>
        <time>2019-09-25T10:01:26Z</time>
      </trkpt>
      <trkpt lat="47.95514" lon="5.74681">
        <ele>286.248</ele>
        <time>2019-09-25T10:01:29Z</time>
      </trkpt>
      <trkpt lat="47.95515" lon="5.74707">
        <ele>286.174</ele>
        <time>2019-09-25T10:01:32Z</time>
      </trkpt>
      <trkpt lat="47.95516" lon="5.74733">
        <ele>285.111</ele>
        <time>2019-09-25T10:01:35Z</time>
      </trkpt>
      <trkpt lat="47.95518" lon="5.74763">
        <ele>282.579</ele>
        <time>2019-09-25T10:01:38Z</time>
      </trkpt>
      <trkpt lat="47.95519" lon="5.74799">
        <ele>280.743</ele>
        <time>2019-09-25T10:01:41Z</time>
      </trkpt>
      <trkpt lat="47.95521" lon="5.74831">
        <ele>278.94</ele>
        <time>2019-09-25T10:01:44Z</time>
      </trkpt>
      <trkpt lat="47.9552" lon="5.74862">
        <ele>277.321</ele>
        <time>2019-09-25T10:01:47Z</time>
      </trkpt>
      <trkpt lat="47.95521" lon="5.74896">
        <ele>275.534</ele>
        <time>2019-09-25T10:01:50Z</time>
      </trkpt>
      <trkpt lat="47.9552" lon="5.74934">
        <ele>273.599</ele>
        <time>2019-09-25T10:01:53Z</time>
      </trkpt>
      <trkpt lat="47.9552" lon="5.74973">
        <ele>271.532</ele>
        <time>2019-09-25T10:01:56Z</time>
      </trkpt>
      <trkpt lat="47.95515" lon="5.7501">
        <ele>269.904</ele>
        <time>2019-09-25T10:01:59Z</time>
      </trkpt>
      <trkpt lat="47.95504" lon="5.75043">
        <ele>268.772</ele>
        <time>2019-09-25T10:02:02Z</time>
      </trkpt>
      <trkpt lat="47.95484" lon="5.75068">
        <ele>267.809</ele>
        <time>2019-09-25T10:02:05Z</time>
      </trkpt>
      <trkpt lat="47.95464" lon="5.75086">
        <ele>266.714</ele>
        <time>2019-09-25T10:02:08Z</time>
      </trkpt>
      <trkpt lat="47.95449" lon="5.75105">
        <ele>265.496</ele>
        <time>2019-09-25T10:02:11Z</time>
      </trkpt>
      <trkpt lat="47.95437" lon="5.75125">
        <ele>263.84</ele>
        <time>2019-09-25T10:02:14Z</time>
      </trkpt>
      <trkpt lat="47.95428" lon="5.75146">
        <ele>262.816</ele>
        <time>2019-09-25T10:02:17Z</time>
      </trkpt>
      <trkpt lat="47.95417" lon="5.75166">
        <ele>261.809</ele>
        <time>2019-09-25T10:02:20Z</time>
      </trkpt>
      <trkpt lat="47.95408" lon="5.75185">
        <ele>261.319</ele>
        <time>2019-09-25T10:02:23Z</time>
      </trkpt>
      <trkpt lat="47.954" lon="5.75204">
        <ele>261.416</ele>
        <time>2019-09-25T10:02:26Z</time>
      </trkpt>
      <trkpt lat="47.95392" lon="5.75221">
        <ele>261.277</ele>
        <time>2019-09-25T10:02:29Z</time>
      </trkpt>
      <trkpt lat="47.95379" lon="5.75234">
        <ele>262.184</ele>
        <time>2019-09-25T10:02:32Z</time>
      </trkpt>
      <trkpt lat="47.95362" lon="5.75239">
        <ele>261.531</ele>
        <time>2019-09-25T10:02:35Z</time>
      </trkpt>
      <trkpt lat="47.95347" lon="5.75241">
        <ele>262.991</ele>
        <time>2019-09-25T10:02:38Z</time>
      </trkpt>
      <trkpt lat="47.95332" lon="5.75239">
        <ele>263.511</ele>
        <time>2019-09-25T10:02:41Z</time>
      </trkpt>
      <trkpt lat="47.95315" lon="5.7524">
        <ele>263.5</ele>
        <time>2019-09-25T10:02:44Z</time>
      </trkpt>
      <trkpt lat="47.953" lon="5.75241">
        <ele>263.44</ele>
        <time>2019-09-25T10:02:47Z</time>
      </trkpt>
      <trkpt lat="47.95284" lon="5.75241">
        <ele>263.968</ele>
        <time>2019-09-25T10:02:50Z</time>
      </trkpt>
      <trkpt lat="47.95268" lon="5.75236">
        <ele>264.903</ele>
        <time>2019-09-25T10:02:53Z</time>
      </trkpt>
      <trkpt lat="47.95252" lon="5.75233">
        <ele>266.095</ele>
        <time>2019-09-25T10:02:56Z</time>
      </trkpt>
      <trkpt lat="47.95239" lon="5.75228">
        <ele>266.204</ele>
        <time>2019-09-25T10:02:59Z</time>
      </trkpt>
      <trkpt lat="47.95226" lon="5.75223">
        <ele>265.612</ele>
        <time>2019-09-25T10:03:02Z</time>
      </trkpt>
      <trkpt lat="47.95219" lon="5.75233">
        <ele>265.832</ele>
        <time>2019-09-25T10:03:05Z</time>
      </trkpt>
      <trkpt lat="47.95224" lon="5.7525">
        <ele>265.624</ele>
        <time>2019-09-25T10:03:08Z</time>
      </trkpt>
      <trkpt lat="47.95226" lon="5.75269">
        <ele>265.324</ele>
        <time>2019-09-25T10:03:11Z</time>
      </trkpt>
      <trkpt lat="47.95228" lon="5.75289">
        <ele>265.465</ele>
        <time>2019-09-25T10:03:14Z</time>
      </trkpt>
      <trkpt lat="47.95228" lon="5.75306">
        <ele>265.36</ele>
        <time>2019-09-25T10:03:17Z</time>
      </trkpt>
      <trkpt lat="47.95225" lon="5.75322">
        <ele>265.657</ele>
        <time>2019-09-25T10:03:20Z</time>
      </trkpt>
      <trkpt lat="47.95223" lon="5.75341">
        <ele>266.108</ele>
        <time>2019-09-25T10:03:23Z</time>
      </trkpt>
      <trkpt lat="47.9522" lon="5.75361">
        <ele>267.579</ele>
        <time>2019-09-25T10:03:26Z</time>
      </trkpt>
      <trkpt lat="47.95216" lon="5.7538">
        <ele>268.456</ele>
        <time>2019-09-25T10:03:29Z</time>
      </trkpt>
      <trkpt lat="47.95211" lon="5.754">
        <ele>268.811</ele>
        <time>2019-09-25T10:03:32Z</time>
      </trkpt>
      <trkpt lat="47.95204" lon="5.75418">
        <ele>269.39</ele>
        <time>2019-09-25T10:03:35Z</time>
      </trkpt>
      <trkpt lat="47.95196" lon="5.75433">
        <ele>269.884</ele>
        <time>2019-09-25T10:03:38Z</time>
      </trkpt>
      <trkpt lat="47.95185" lon="5.75444">
        <ele>270.588</ele>
        <time>2019-09-25T10:03:41Z</time>
      </trkpt>
      <trkpt lat="47.95172" lon="5.75453">
        <ele>270.724</ele>
        <time>2019-09-25T10:03:44Z</time>
      </trkpt>
      <trkpt lat="47.95158" lon="5.75461">
        <ele>270.281</ele>
        <time>2019-09-25T10:03:47Z</time>
      </trkpt>
      <trkpt lat="47.95143" lon="5.75469">
        <ele>270.762</ele>
        <time>2019-09-25T10:03:50Z</time>
      </trkpt>
      <trkpt lat="47.9513" lon="5.75478">
        <ele>270.203</ele>
        <time>2019-09-25T10:03:53Z</time>
      </trkpt>
      <trkpt lat="47.95117" lon="5.75486">
        <ele>269.007</ele>
        <time>2019-09-25T10:03:56Z</time>
      </trkpt>
      <trkpt lat="47.95104" lon="5.75496">
        <ele>268.343</ele>
        <time>2019-09-25T10:03:59Z</time>
      </trkpt>
      <trkpt lat="47.95093" lon="5.75507">
        <ele>266.395</ele>
        <time>2019-09-25T10:04:02Z</time>
      </trkpt>
      <trkpt lat="47.9508" lon="5.75519">
        <ele>264.457</ele>
        <time>2019-09-25T10:04:05Z</time>
      </trkpt>
      <trkpt lat="47.95067" lon="5.75531">
        <ele>263.928</ele>
        <time>2019-09-25T10:04:08Z</time>
      </trkpt>
      <trkpt lat="47.95054" lon="5.75545">
        <ele>263.652</ele>
        <time>2019-09-25T10:04:11Z</time>
      </trkpt>
      <trkpt lat="47.95041" lon="5.75559">
        <ele>263.219</ele>
        <time>2019-09-25T10:04:14Z</time>
      </trkpt>
      <trkpt lat="47.95029" lon="5.75571">
        <ele>262.424</ele>
        <time>2019-09-25T10:04:17Z</time>
      </trkpt>
      <trkpt lat="47.95016" lon="5.75583">
        <ele>261.856</ele>
        <time>2019-09-25T10:04:20Z</time>
      </trkpt>
      <trkpt lat="47.95003" lon="5.75595">
        <ele>262.059</ele>
        <time>2019-09-25T10:04:23Z</time>
      </trkpt>
      <trkpt lat="47.9499" lon="5.75607">
        <ele>263.323</ele>
        <time>2019-09-25T10:04:26Z</time>
      </trkpt>
      <trkpt lat="47.94976" lon="5.75616">
        <ele>264.067</ele>
        <time>2019-09-25T10:04:29Z</time>
      </trkpt>
      <trkpt lat="47.9496" lon="5.75623">
        <ele>264.837</ele>
        <time>2019-09-25T10:04:32Z</time>
      </trkpt>
      <trkpt lat="47.94942" lon="5.75628">
        <ele>265.333</ele>
        <time>2019-09-25T10:04:35Z</time>
      </trkpt>
      <trkpt lat="47.94924" lon="5.75634">
        <ele>265.539</ele>
        <time>2019-09-25T10:04:38Z</time>
      </trkpt>
      <trkpt lat="47.94906" lon="5.75638">
        <ele>265.667</ele>
        <time>2019-09-25T10:04:41Z</time>
      </trkpt>
      <trkpt lat="47.94888" lon="5.75642">
        <ele>265.807</ele>
        <time>2019-09-25T10:04:44Z</time>
      </trkpt>
      <trkpt lat="47.94872" lon="5.75646">
        <ele>266.348</ele>
        <time>2019-09-25T10:04:47Z</time>
      </trkpt>
      <trkpt lat="47.94855" lon="5.75648">
        <ele>266.122</ele>
        <time>2019-09-25T10:04:50Z</time>
      </trkpt>
      <trkpt lat="47.94838" lon="5.7565">
        <ele>265.467</ele>
        <time>2019-09-25T10:04:53Z</time>
      </trkpt>
      <trkpt lat="47.94821" lon="5.75651">
        <ele>264.567</ele>
        <time>2019-09-25T10:04:56Z</time>
      </trkpt>
      <trkpt lat="47.94803" lon="5.75653">
        <ele>263.681</ele>
        <time>2019-09-25T10:04:59Z</time>
      </trkpt>
      <trkpt lat="47.94787" lon="5.75653">
        <ele>263.313</ele>
        <time>2019-09-25T10:05:02Z</time>
      </trkpt>
      <trkpt lat="47.9477" lon="5.75654">
        <ele>262.696</ele>
        <time>2019-09-25T10:05:05Z</time>
      </trkpt>
      <trkpt lat="47.94754" lon="5.75654">
        <ele>263.238</ele>
        <time>2019-09-25T10:05:08Z</time>
      </trkpt>
      <trkpt lat="47.94739" lon="5.75653">
        <ele>263.456</ele>
        <time>2019-09-25T10:05:11Z</time>
      </trkpt>
      <trkpt lat="47.94724" lon="5.75652">
        <ele>262.948</ele>
        <time>2019-09-25T10:05:14Z</time>
      </trkpt>
      <trkpt lat="47.94707" lon="5.75652">
        <ele>262.058</ele>
        <time>2019-09-25T10:05:17Z</time>
      </trkpt>
      <trkpt lat="47.94691" lon="5.75651">
        <ele>261.194</ele>
        <time>2019-09-25T10:05:20Z</time>
      </trkpt>
      <trkpt lat="47.94675" lon="5.7565">
        <ele>261.005</ele>
        <time>2019-09-25T10:05:23Z</time>
      </trkpt>
      <trkpt lat="47.9466" lon="5.75649">
        <ele>260.655</ele>
        <time>2019-09-25T10:05:26Z</time>
      </trkpt>
      <trkpt lat="47.94645" lon="5.75649">
        <ele>260.883</ele>
        <time>2019-09-25T10:05:29Z</time>
      </trkpt>
      <trkpt lat="47.94629" lon="5.75651">
        <ele>261.369</ele>
        <time>2019-09-25T10:05:32Z</time>
      </trkpt>
      <trkpt lat="47.94612" lon="5.75653">
        <ele>260.902</ele>
        <time>2019-09-25T10:05:35Z</time>
      </trkpt>
      <trkpt lat="47.94596" lon="5.75657">
        <ele>260.216</ele>
        <time>2019-09-25T10:05:38Z</time>
      </trkpt>
      <trkpt lat="47.9458" lon="5.75662">
        <ele>259.302</ele>
        <time>2019-09-25T10:05:41Z</time>
      </trkpt>
      <trkpt lat="47.94564" lon="5.7567">
        <ele>258.801</ele>
        <time>2019-09-25T10:05:44Z</time>
      </trkpt>
      <trkpt lat="47.94547" lon="5.7568">
        <ele>258.22</ele>
        <time>2019-09-25T10:05:47Z</time>
      </trkpt>
      <trkpt lat="47.94531" lon="5.7569">
        <ele>258.076</ele>
        <time>2019-09-25T10:05:50Z</time>
      </trkpt>
      <trkpt lat="47.94516" lon="5.75701">
        <ele>258.036</ele>
        <time>2019-09-25T10:05:53Z</time>
      </trkpt>
      <trkpt lat="47.945" lon="5.75711">
        <ele>258.147</ele>
        <time>2019-09-25T10:05:56Z</time>
      </trkpt>
      <trkpt lat="47.94486" lon="5.75722">
        <ele>258.082</ele>
        <time>2019-09-25T10:05:59Z</time>
      </trkpt>
      <trkpt lat="47.94472" lon="5.75733">
        <ele>258.098</ele>
        <time>2019-09-25T10:06:02Z</time>
      </trkpt>
      <trkpt lat="47.94457" lon="5.75746">
        <ele>258.155</ele>
        <time>2019-09-25T10:06:05Z</time>
      </trkpt>
      <trkpt lat="47.94442" lon="5.7576">
        <ele>258.572</ele>
        <time>2019-09-25T10:06:08Z</time>
      </trkpt>
      <trkpt lat="47.94427" lon="5.75773">
        <ele>258.879</ele>
        <time>2019-09-25T10:06:11Z</time>
      </trkpt>
      <trkpt lat="47.94414" lon="5.75788">
        <ele>259.866</ele>
        <time>2019-09-25T10:06:14Z</time>
      </trkpt>
      <trkpt lat="47.94401" lon="5.75804">
        <ele>261.096</ele>
        <time>2019-09-25T10:06:17Z</time>
      </trkpt>
      <trkpt lat="47.94389" lon="5.7582">
        <ele>262.007</ele>
        <time>2019-09-25T10:06:20Z</time>
      </trkpt>
      <trkpt lat="47.94378" lon="5.75838">
        <ele>262.654</ele>
        <time>2019-09-25T10:06:23Z</time>
      </trkpt>
      <trkpt lat="47.94367" lon="5.75856">
        <ele>262.763</ele>
        <time>2019-09-25T10:06:26Z</time>
      </trkpt>
      <trkpt lat="47.94356" lon="5.75875">
        <ele>262.854</ele>
        <time>2019-09-25T10:06:29Z</time>
      </trkpt>
      <trkpt lat="47.94345" lon="5.75894">
        <ele>263.002</ele>
        <time>2019-09-25T10:06:32Z</time>
      </trkpt>
      <trkpt lat="47.94333" lon="5.75914">
        <ele>262.972</ele>
        <time>2019-09-25T10:06:35Z</time>
      </trkpt>
      <trkpt lat="47.94322" lon="5.75933">
        <ele>263.27</ele>
        <time>2019-09-25T10:06:38Z</time>
      </trkpt>
      <trkpt lat="47.94311" lon="5.75951">
        <ele>262.949</ele>
        <time>2019-09-25T10:06:41Z</time>
      </trkpt>
      <trkpt lat="47.94301" lon="5.75969">
        <ele>262.353</ele>
        <time>2019-09-25T10:06:44Z</time>
      </trkpt>
      <trkpt lat="47.94291" lon="5.75987">
        <ele>262.057</ele>
        <time>2019-09-25T10:06:47Z</time>
      </trkpt>
      <trkpt lat="47.9428" lon="5.76005">
        <ele>262.132</ele>
        <time>2019-09-25T10:06:50Z</time>
      </trkpt>
      <trkpt lat="47.94269" lon="5.76023">
        <ele>262.419</ele>
        <time>2019-09-25T10:06:53Z</time>
      </trkpt>
      <trkpt lat="47.94257" lon="5.76041">
        <ele>262.226</ele>
        <time>2019-09-25T10:06:56Z</time>
      </trkpt>
      <trkpt lat="47.94245" lon="5.76058">
        <ele>261.922</ele>
        <time>2019-09-25T10:06:59Z</time>
      </trkpt>
      <trkpt lat="47.94233" lon="5.76075">
        <ele>261.699</ele>
        <time>2019-09-25T10:07:02Z</time>
      </trkpt>
      <trkpt lat="47.9422" lon="5.76091">
        <ele>261.49</ele>
        <time>2019-09-25T10:07:05Z</time>
      </trkpt>
      <trkpt lat="47.94208" lon="5.76108">
        <ele>261.054</ele>
        <time>2019-09-25T10:07:08Z</time>
      </trkpt>
      <trkpt lat="47.94195" lon="5.76125">
        <ele>260.647</ele>
        <time>2019-09-25T10:07:11Z</time>
      </trkpt>
      <trkpt lat="47.94183" lon="5.76141">
        <ele>260.507</ele>
        <time>2019-09-25T10:07:14Z</time>
      </trkpt>
      <trkpt lat="47.9417" lon="5.76156">
        <ele>260.819</ele>
        <time>2019-09-25T10:07:17Z</time>
      </trkpt>
      <trkpt lat="47.94158" lon="5.76171">
        <ele>260.93</ele>
        <time>2019-09-25T10:07:20Z</time>
      </trkpt>
      <trkpt lat="47.94144" lon="5.76185">
        <ele>260.776</ele>
        <time>2019-09-25T10:07:23Z</time>
      </trkpt>
      <trkpt lat="47.9413" lon="5.76199">
        <ele>260.409</ele>
        <time>2019-09-25T10:07:26Z</time>
      </trkpt>
      <trkpt lat="47.94117" lon="5.76212">
        <ele>259.525</ele>
        <time>2019-09-25T10:07:29Z</time>
      </trkpt>
      <trkpt lat="47.94102" lon="5.76223">
        <ele>259.305</ele>
        <time>2019-09-25T10:07:32Z</time>
      </trkpt>
      <trkpt lat="47.94088" lon="5.76234">
        <ele>258.98</ele>
        <time>2019-09-25T10:07:35Z</time>
      </trkpt>
      <trkpt lat="47.94073" lon="5.76245">
        <ele>258.212</ele>
        <time>2019-09-25T10:07:38Z</time>
      </trkpt>
      <trkpt lat="47.94058" lon="5.76255">
        <ele>257.488</ele>
        <time>2019-09-25T10:07:41Z</time>
      </trkpt>
      <trkpt lat="47.94043" lon="5.76266">
        <ele>257.368</ele>
        <time>2019-09-25T10:07:44Z</time>
      </trkpt>
      <trkpt lat="47.94028" lon="5.76276">
        <ele>256.708</ele>
        <time>2019-09-25T10:07:47Z</time>
      </trkpt>
      <trkpt lat="47.94014" lon="5.76287">
        <ele>256.257</ele>
        <time>2019-09-25T10:07:50Z</time>
      </trkpt>
      <trkpt lat="47.94" lon="5.76298">
        <ele>256.295</ele>
        <time>2019-09-25T10:07:53Z</time>
      </trkpt>
      <trkpt lat="47.93985" lon="5.7631">
        <ele>256.504</ele>
        <time>2019-09-25T10:07:56Z</time>
      </trkpt>
      <trkpt lat="47.93971" lon="5.76322">
        <ele>257.157</ele>
        <time>2019-09-25T10:07:59Z</time>
      </trkpt>
      <trkpt lat="47.93956" lon="5.76333">
        <ele>257.38</ele>
        <time>2019-09-25T10:08:02Z</time>
      </trkpt>
      <trkpt lat="47.93943" lon="5.76345">
        <ele>257.348</ele>
        <time>2019-09-25T10:08:05Z</time>
      </trkpt>
      <trkpt lat="47.9393" lon="5.76358">
        <ele>257.184</ele>
        <time>2019-09-25T10:08:08Z</time>
      </trkpt>
      <trkpt lat="47.93915" lon="5.76369">
        <ele>257.524</ele>
        <time>2019-09-25T10:08:11Z</time>
      </trkpt>
      <trkpt lat="47.93902" lon="5.76382">
        <ele>258.07</ele>
        <time>2019-09-25T10:08:14Z</time>
      </trkpt>
      <trkpt lat="47.93889" lon="5.76394">
        <ele>258.627</ele>
        <time>2019-09-25T10:08:17Z</time>
      </trkpt>
      <trkpt lat="47.93877" lon="5.76407">
        <ele>259.401</ele>
        <time>2019-09-25T10:08:20Z</time>
      </trkpt>
      <trkpt lat="47.93863" lon="5.76423">
        <ele>259.738</ele>
        <time>2019-09-25T10:08:23Z</time>
      </trkpt>
      <trkpt lat="47.93849" lon="5.76438">
        <ele>260.273</ele>
        <time>2019-09-25T10:08:26Z</time>
      </trkpt>
      <trkpt lat="47.93835" lon="5.76454">
        <ele>261.358</ele>
        <time>2019-09-25T10:08:29Z</time>
      </trkpt>
      <trkpt lat="47.93823" lon="5.76469">
        <ele>261.873</ele>
        <time>2019-09-25T10:08:32Z</time>
      </trkpt>
      <trkpt lat="47.93812" lon="5.76484">
        <ele>262.617</ele>
        <time>2019-09-25T10:08:35Z</time>
      </trkpt>
      <trkpt lat="47.938" lon="5.76499">
        <ele>263.597</ele>
        <time>2019-09-25T10:08:38Z</time>
      </trkpt>
      <trkpt lat="47.93789" lon="5.76516">
        <ele>264.413</ele>
        <time>2019-09-25T10:08:41Z</time>
      </trkpt>
      <trkpt lat="47.93777" lon="5.76532">
        <ele>265.367</ele>
        <time>2019-09-25T10:08:44Z</time>
      </trkpt>
      <trkpt lat="47.93765" lon="5.76548">
        <ele>265.85</ele>
        <time>2019-09-25T10:08:47Z</time>
      </trkpt>
      <trkpt lat="47.93754" lon="5.76563">
        <ele>266.559</ele>
        <time>2019-09-25T10:08:50Z</time>
      </trkpt>
      <trkpt lat="47.9374" lon="5.76578">
        <ele>267.386</ele>
        <time>2019-09-25T10:08:53Z</time>
      </trkpt>
      <trkpt lat="47.93722" lon="5.7659">
        <ele>265.506</ele>
        <time>2019-09-25T10:08:56Z</time>
      </trkpt>
      <trkpt lat="47.93706" lon="5.766">
        <ele>264.315</ele>
        <time>2019-09-25T10:08:59Z</time>
      </trkpt>
      <trkpt lat="47.93691" lon="5.7661">
        <ele>263.447</ele>
        <time>2019-09-25T10:09:02Z</time>
      </trkpt>
      <trkpt lat="47.93675" lon="5.76618">
        <ele>263.346</ele>
        <time>2019-09-25T10:09:05Z</time>
      </trkpt>
      <trkpt lat="47.9366" lon="5.76625">
        <ele>262.924</ele>
        <time>2019-09-25T10:09:08Z</time>
      </trkpt>
      <trkpt lat="47.93646" lon="5.76631">
        <ele>262.582</ele>
        <time>2019-09-25T10:09:11Z</time>
      </trkpt>
      <trkpt lat="47.93632" lon="5.76636">
        <ele>262.457</ele>
        <time>2019-09-25T10:09:14Z</time>
      </trkpt>
      <trkpt lat="47.93617" lon="5.7664">
        <ele>261.58</ele>
        <time>2019-09-25T10:09:17Z</time>
      </trkpt>
      <trkpt lat="47.93603" lon="5.76643">
        <ele>261.26</ele>
        <time>2019-09-25T10:09:20Z</time>
      </trkpt>
      <trkpt lat="47.93589" lon="5.76646">
        <ele>260.914</ele>
        <time>2019-09-25T10:09:23Z</time>
      </trkpt>
      <trkpt lat="47.93576" lon="5.76647">
        <ele>260.966</ele>
        <time>2019-09-25T10:09:26Z</time>
      </trkpt>
      <trkpt lat="47.93563" lon="5.76647">
        <ele>261.511</ele>
        <time>2019-09-25T10:09:29Z</time>
      </trkpt>
      <trkpt lat="47.9355" lon="5.76647">
        <ele>261.203</ele>
        <time>2019-09-25T10:09:32Z</time>
      </trkpt>
      <trkpt lat="47.93537" lon="5.76647">
        <ele>260.872</ele>
        <time>2019-09-25T10:09:35Z</time>
      </trkpt>
      <trkpt lat="47.93525" lon="5.76647">
        <ele>259.456</ele>
        <time>2019-09-25T10:09:38Z</time>
      </trkpt>
      <trkpt lat="47.93512" lon="5.76646">
        <ele>258.961</ele>
        <time>2019-09-25T10:09:41Z</time>
      </trkpt>
      <trkpt lat="47.935" lon="5.76644">
        <ele>258.82</ele>
        <time>2019-09-25T10:09:44Z</time>
      </trkpt>
      <trkpt lat="47.93488" lon="5.76643">
        <ele>258.717</ele>
        <time>2019-09-25T10:09:47Z</time>
      </trkpt>
      <trkpt lat="47.93476" lon="5.76641">
        <ele>258.75</ele>
        <time>2019-09-25T10:09:50Z</time>
      </trkpt>
      <trkpt lat="47.93465" lon="5.76638">
        <ele>259.192</ele>
        <time>2019-09-25T10:09:53Z</time>
      </trkpt>
      <trkpt lat="47.93453" lon="5.76634">
        <ele>259.178</ele>
        <time>2019-09-25T10:09:56Z</time>
      </trkpt>
      <trkpt lat="47.93442" lon="5.76629">
        <ele>258.724</ele>
        <time>2019-09-25T10:09:59Z</time>
      </trkpt>
      <trkpt lat="47.93432" lon="5.76622">
        <ele>258.699</ele>
        <time>2019-09-25T10:10:02Z</time>
      </trkpt>
      <trkpt lat="47.93421" lon="5.76615">
        <ele>259.256</ele>
        <time>2019-09-25T10:10:05Z</time>
      </trkpt>
      <trkpt lat="47.93411" lon="5.76607">
        <ele>259.573</ele>
        <time>2019-09-25T10:10:08Z</time>
      </trkpt>
      <trkpt lat="47.93401" lon="5.76599">
        <ele>260.279</ele>
        <time>2019-09-25T10:10:11Z</time>
      </trkpt>
      <trkpt lat="47.93391" lon="5.76589">
        <ele>261.769</ele>
        <time>2019-09-25T10:10:14Z</time>
      </trkpt>
      <trkpt lat="47.93382" lon="5.76577">
        <ele>264.249</ele>
        <time>2019-09-25T10:10:17Z</time>
      </trkpt>
      <trkpt lat="47.93372" lon="5.76565">
        <ele>266.25</ele>
        <time>2019-09-25T10:10:20Z</time>
      </trkpt>
      <trkpt lat="47.93363" lon="5.76552">
        <ele>267.554</ele>
        <time>2019-09-25T10:10:23Z</time>
      </trkpt>
      <trkpt lat="47.93354" lon="5.76539">
        <ele>268.777</ele>
        <time>2019-09-25T10:10:26Z</time>
      </trkpt>
      <trkpt lat="47.93346" lon="5.76524">
        <ele>269.73</ele>
        <time>2019-09-25T10:10:29Z</time>
      </trkpt>
      <trkpt lat="47.93337" lon="5.76511">
        <ele>270.376</ele>
        <time>2019-09-25T10:10:32Z</time>
      </trkpt>
      <trkpt lat="47.93329" lon="5.76498">
        <ele>270.699</ele>
        <time>2019-09-25T10:10:35Z</time>
      </trkpt>
      <trkpt lat="47.93321" lon="5.76487">
        <ele>271.273</ele>
        <time>2019-09-25T10:10:38Z</time>
      </trkpt>
      <trkpt lat="47.93311" lon="5.76476">
        <ele>271.038</ele>
        <time>2019-09-25T10:10:41Z</time>
      </trkpt>
      <trkpt lat="47.93302" lon="5.76464">
        <ele>271.192</ele>
        <time>2019-09-25T10:10:44Z</time>
      </trkpt>
      <trkpt lat="47.93294" lon="5.76452">
        <ele>271.774</ele>
        <time>2019-09-25T10:10:47Z</time>
      </trkpt>
      <trkpt lat="47.93285" lon="5.76439">
        <ele>272.358</ele>
        <time>2019-09-25T10:10:50Z</time>
      </trkpt>
      <trkpt lat="47.93276" lon="5.76427">
        <ele>272.942</ele>
        <time>2019-09-25T10:10:53Z</time>
      </trkpt>
      <trkpt lat="47.93268" lon="5.76412">
        <ele>272.959</ele>
        <time>2019-09-25T10:10:56Z</time>
      </trkpt>
      <trkpt lat="47.93259" lon="5.76397">
        <ele>272.072</ele>
        <time>2019-09-25T10:10:59Z</time>
      </trkpt>
      <trkpt lat="47.9325" lon="5.76383">
        <ele>271.252</ele>
        <time>2019-09-25T10:11:02Z</time>
      </trkpt>
      <trkpt lat="47.93241" lon="5.7637">
        <ele>271.189</ele>
        <time>2019-09-25T10:11:05Z</time>
      </trkpt>
      <trkpt lat="47.93232" lon="5.76357">
        <ele>271.692</ele>
        <time>2019-09-25T10:11:08Z</time>
      </trkpt>
      <trkpt lat="47.93223" lon="5.76345">
        <ele>272.72</ele>
        <time>2019-09-25T10:11:11Z</time>
      </trkpt>
      <trkpt lat="47.93214" lon="5.76333">
        <ele>272.565</ele>
        <time>2019-09-25T10:11:14Z</time>
      </trkpt>
      <trkpt lat="47.93205" lon="5.76321">
        <ele>272.346</ele>
        <time>2019-09-25T10:11:17Z</time>
      </trkpt>
      <trkpt lat="47.93195" lon="5.7631">
        <ele>272.385</ele>
        <time>2019-09-25T10:11:20Z</time>
      </trkpt>
      <trkpt lat="47.93185" lon="5.763">
        <ele>272.48</ele>
        <time>2019-09-25T10:11:23Z</time>
      </trkpt>
      <trkpt lat="47.93176" lon="5.7629">
        <ele>272.662</ele>
        <time>2019-09-25T10:11:26Z</time>
      </trkpt>
      <trkpt lat="47.93167" lon="5.76283">
        <ele>272.905</ele>
        <time>2019-09-25T10:11:29Z</time>
      </trkpt>
      <trkpt lat="47.93157" lon="5.76274">
        <ele>272.854</ele>
        <time>2019-09-25T10:11:32Z</time>
      </trkpt>
      <trkpt lat="47.93147" lon="5.76268">
        <ele>273.038</ele>
        <time>2019-09-25T10:11:35Z</time>
      </trkpt>
      <trkpt lat="47.93136" lon="5.76262">
        <ele>273.404</ele>
        <time>2019-09-25T10:11:38Z</time>
      </trkpt>
      <trkpt lat="47.93126" lon="5.76255">
        <ele>273.45</ele>
        <time>2019-09-25T10:11:41Z</time>
      </trkpt>
      <trkpt lat="47.93115" lon="5.76248">
        <ele>272.946</ele>
        <time>2019-09-25T10:11:44Z</time>
      </trkpt>
      <trkpt lat="47.93103" lon="5.76241">
        <ele>272.366</ele>
        <time>2019-09-25T10:11:47Z</time>
      </trkpt>
      <trkpt lat="47.93092" lon="5.76234">
        <ele>272.083</ele>
        <time>2019-09-25T10:11:50Z</time>
      </trkpt>
      <trkpt lat="47.93081" lon="5.76226">
        <ele>271.216</ele>
        <time>2019-09-25T10:11:53Z</time>
      </trkpt>
      <trkpt lat="47.9307" lon="5.76219">
        <ele>270.4</ele>
        <time>2019-09-25T10:11:56Z</time>
      </trkpt>
      <trkpt lat="47.93059" lon="5.76213">
        <ele>269.518</ele>
        <time>2019-09-25T10:11:59Z</time>
      </trkpt>
      <trkpt lat="47.93048" lon="5.76208">
        <ele>268.739</ele>
        <time>2019-09-25T10:12:02Z</time>
      </trkpt>
      <trkpt lat="47.93038" lon="5.76203">
        <ele>268.052</ele>
        <time>2019-09-25T10:12:05Z</time>
      </trkpt>
      <trkpt lat="47.93027" lon="5.76198">
        <ele>267.979</ele>
        <time>2019-09-25T10:12:08Z</time>
      </trkpt>
      <trkpt lat="47.93016" lon="5.76193">
        <ele>267.44</ele>
        <time>2019-09-25T10:12:11Z</time>
      </trkpt>
      <trkpt lat="47.93006" lon="5.76189">
        <ele>266.893</ele>
        <time>2019-09-25T10:12:14Z</time>
      </trkpt>
      <trkpt lat="47.92996" lon="5.76185">
        <ele>267.431</ele>
        <time>2019-09-25T10:12:17Z</time>
      </trkpt>
      <trkpt lat="47.92986" lon="5.76182">
        <ele>268.067</ele>
        <time>2019-09-25T10:12:20Z</time>
      </trkpt>
      <trkpt lat="47.92975" lon="5.76177">
        <ele>268.886</ele>
        <time>2019-09-25T10:12:23Z</time>
      </trkpt>
      <trkpt lat="47.92964" lon="5.76173">
        <ele>269.981</ele>
        <time>2019-09-25T10:12:26Z</time>
      </trkpt>
      <trkpt lat="47.92953" lon="5.7617">
        <ele>270.555</ele>
        <time>2019-09-25T10:12:29Z</time>
      </trkpt>
      <trkpt lat="47.92941" lon="5.76166">
        <ele>270.764</ele>
        <time>2019-09-25T10:12:32Z</time>
      </trkpt>
      <trkpt lat="47.9293" lon="5.76162">
        <ele>270.769</ele>
        <time>2019-09-25T10:12:35Z</time>
      </trkpt>
      <trkpt lat="47.92919" lon="5.76159">
        <ele>270.494</ele>
        <time>2019-09-25T10:12:38Z</time>
      </trkpt>
      <trkpt lat="47.92907" lon="5.76155">
        <ele>270.045</ele>
        <time>2019-09-25T10:12:41Z</time>
      </trkpt>
      <trkpt lat="47.92896" lon="5.76152">
        <ele>269.072</ele>
        <time>2019-09-25T10:12:44Z</time>
      </trkpt>
      <trkpt lat="47.92885" lon="5.76149">
        <ele>268.168</ele>
        <time>2019-09-25T10:12:47Z</time>
      </trkpt>
      <trkpt lat="47.92874" lon="5.76146">
        <ele>268.03</ele>
        <time>2019-09-25T10:12:50Z</time>
      </trkpt>
      <trkpt lat="47.92863" lon="5.76143">
        <ele>268.008</ele>
        <time>2019-09-25T10:12:53Z</time>
      </trkpt>
      <trkpt lat="47.92852" lon="5.76139">
        <ele>268.225</ele>
        <time>2019-09-25T10:12:56Z</time>
      </trkpt>
      <trkpt lat="47.92841" lon="5.76136">
        <ele>268.25</ele>
        <time>2019-09-25T10:12:59Z</time>
      </trkpt>
      <trkpt lat="47.9283" lon="5.76133">
        <ele>268.333</ele>
        <time>2019-09-25T10:13:02Z</time>
      </trkpt>
      <trkpt lat="47.92819" lon="5.76129">
        <ele>268.613</ele>
        <time>2019-09-25T10:13:05Z</time>
      </trkpt>
      <trkpt lat="47.92809" lon="5.76126">
        <ele>268.588</ele>
        <time>2019-09-25T10:13:08Z</time>
      </trkpt>
      <trkpt lat="47.92799" lon="5.76123">
        <ele>268.792</ele>
        <time>2019-09-25T10:13:11Z</time>
      </trkpt>
      <trkpt lat="47.92788" lon="5.7612">
        <ele>269.122</ele>
        <time>2019-09-25T10:13:14Z</time>
      </trkpt>
      <trkpt lat="47.92778" lon="5.76116">
        <ele>269.282</ele>
        <time>2019-09-25T10:13:17Z</time>
      </trkpt>
      <trkpt lat="47.92768" lon="5.76113">
        <ele>269.235</ele>
        <time>2019-09-25T10:13:20Z</time>
      </trkpt>
      <trkpt lat="47.92758" lon="5.7611">
        <ele>269.094</ele>
        <time>2019-09-25T10:13:23Z</time>
      </trkpt>
      <trkpt lat="47.92748" lon="5.76106">
        <ele>269.151</ele>
        <time>2019-09-25T10:13:26Z</time>
      </trkpt>
      <trkpt lat="47.92738" lon="5.76103">
        <ele>269.38</ele>
        <time>2019-09-25T10:13:29Z</time>
      </trkpt>
      <trkpt lat="47.92728" lon="5.761">
        <ele>269.76</ele>
        <time>2019-09-25T10:13:32Z</time>
      </trkpt>
      <trkpt lat="47.92718" lon="5.76096">
        <ele>270.103</ele>
        <time>2019-09-25T10:13:35Z</time>
      </trkpt>
      <trkpt lat="47.92708" lon="5.76093">
        <ele>270.4</ele>
        <time>2019-09-25T10:13:38Z</time>
      </trkpt>
      <trkpt lat="47.92697" lon="5.76091">
        <ele>270.513</ele>
        <time>2019-09-25T10:13:41Z</time>
      </trkpt>
      <trkpt lat="47.92687" lon="5.76088">
        <ele>270.546</ele>
        <time>2019-09-25T10:13:44Z</time>
      </trkpt>
      <trkpt lat="47.92677" lon="5.76084">
        <ele>270.726</ele>
        <time>2019-09-25T10:13:47Z</time>
      </trkpt>
      <trkpt lat="47.92667" lon="5.76079">
        <ele>270.435</ele>
        <time>2019-09-25T10:13:50Z</time>
      </trkpt>
      <trkpt lat="47.92658" lon="5.76075">
        <ele>270.189</ele>
        <time>2019-09-25T10:13:53Z</time>
      </trkpt>
      <trkpt lat="47.9265" lon="5.76072">
        <ele>269.876</ele>
        <time>2019-09-25T10:13:56Z</time>
      </trkpt>
      <trkpt lat="47.92643" lon="5.7607">
        <ele>269.876</ele>
        <time>2019-09-25T10:13:59Z</time>
      </trkpt>
      <trkpt lat="47.92638" lon="5.76068">
        <ele>269.843</ele>
        <time>2019-09-25T10:14:02Z</time>
      </trkpt>
      <trkpt lat="47.92637" lon="5.76068">
        <ele>269.842</ele>
        <time>2019-09-25T10:14:05Z</time>
      </trkpt>
      <trkpt lat="47.92637" lon="5.76068">
        <ele>269.842</ele>
        <time>2019-09-25T10:20:38Z</time>
      </trkpt>
      <trkpt lat="47.92637" lon="5.76068">
        <ele>269.876</ele>
        <time>2019-09-25T10:20:41Z</time>
      </trkpt>
      <trkpt lat="47.92631" lon="5.76068">
        <ele>269.909</ele>
        <time>2019-09-25T10:20:47Z</time>
      </trkpt>
      <trkpt lat="47.92625" lon="5.76068">
        <ele>269.569</ele>
        <time>2019-09-25T10:20:50Z</time>
      </trkpt>
      <trkpt lat="47.92616" lon="5.76067">
        <ele>269.612</ele>
        <time>2019-09-25T10:20:53Z</time>
      </trkpt>
      <trkpt lat="47.92607" lon="5.76064">
        <ele>269.739</ele>
        <time>2019-09-25T10:20:56Z</time>
      </trkpt>
      <trkpt lat="47.92598" lon="5.76061">
        <ele>269.623</ele>
        <time>2019-09-25T10:20:59Z</time>
      </trkpt>
      <trkpt lat="47.92589" lon="5.76058">
        <ele>269.511</ele>
        <time>2019-09-25T10:21:02Z</time>
      </trkpt>
      <trkpt lat="47.92579" lon="5.76054">
        <ele>269.369</ele>
        <time>2019-09-25T10:21:05Z</time>
      </trkpt>
      <trkpt lat="47.92569" lon="5.76052">
        <ele>269.341</ele>
        <time>2019-09-25T10:21:08Z</time>
      </trkpt>
      <trkpt lat="47.9256" lon="5.76049">
        <ele>269.704</ele>
        <time>2019-09-25T10:21:11Z</time>
      </trkpt>
      <trkpt lat="47.9255" lon="5.76046">
        <ele>269.879</ele>
        <time>2019-09-25T10:21:14Z</time>
      </trkpt>
      <trkpt lat="47.92541" lon="5.76043">
        <ele>269.951</ele>
        <time>2019-09-25T10:21:17Z</time>
      </trkpt>
      <trkpt lat="47.92531" lon="5.76039">
        <ele>269.763</ele>
        <time>2019-09-25T10:21:20Z</time>
      </trkpt>
      <trkpt lat="47.92521" lon="5.76036">
        <ele>269.822</ele>
        <time>2019-09-25T10:21:23Z</time>
      </trkpt>
      <trkpt lat="47.92511" lon="5.76032">
        <ele>270.176</ele>
        <time>2019-09-25T10:21:26Z</time>
      </trkpt>
      <trkpt lat="47.92501" lon="5.76029">
        <ele>270.672</ele>
        <time>2019-09-25T10:21:29Z</time>
      </trkpt>
      <trkpt lat="47.92491" lon="5.76025">
        <ele>271.216</ele>
        <time>2019-09-25T10:21:32Z</time>
      </trkpt>
      <trkpt lat="47.92482" lon="5.76021">
        <ele>271.927</ele>
        <time>2019-09-25T10:21:35Z</time>
      </trkpt>
      <trkpt lat="47.92472" lon="5.76017">
        <ele>272.054</ele>
        <time>2019-09-25T10:21:38Z</time>
      </trkpt>
      <trkpt lat="47.92462" lon="5.76013">
        <ele>272.377</ele>
        <time>2019-09-25T10:21:41Z</time>
      </trkpt>
      <trkpt lat="47.92452" lon="5.76007">
        <ele>272.92</ele>
        <time>2019-09-25T10:21:44Z</time>
      </trkpt>
      <trkpt lat="47.92442" lon="5.76002">
        <ele>273.42</ele>
        <time>2019-09-25T10:21:47Z</time>
      </trkpt>
      <trkpt lat="47.92433" lon="5.75996">
        <ele>273.568</ele>
        <time>2019-09-25T10:21:50Z</time>
      </trkpt>
      <trkpt lat="47.92423" lon="5.7599">
        <ele>273.671</ele>
        <time>2019-09-25T10:21:53Z</time>
      </trkpt>
      <trkpt lat="47.92413" lon="5.75984">
        <ele>273.733</ele>
        <time>2019-09-25T10:21:56Z</time>
      </trkpt>
      <trkpt lat="47.92404" lon="5.75977">
        <ele>273.636</ele>
        <time>2019-09-25T10:21:59Z</time>
      </trkpt>
      <trkpt lat="47.92393" lon="5.7597">
        <ele>273.279</ele>
        <time>2019-09-25T10:22:02Z</time>
      </trkpt>
      <trkpt lat="47.92384" lon="5.75962">
        <ele>273.885</ele>
        <time>2019-09-25T10:22:05Z</time>
      </trkpt>
      <trkpt lat="47.92374" lon="5.75955">
        <ele>274.007</ele>
        <time>2019-09-25T10:22:08Z</time>
      </trkpt>
      <trkpt lat="47.92365" lon="5.75947">
        <ele>274.119</ele>
        <time>2019-09-25T10:22:11Z</time>
      </trkpt>
      <trkpt lat="47.92356" lon="5.75939">
        <ele>274.009</ele>
        <time>2019-09-25T10:22:14Z</time>
      </trkpt>
      <trkpt lat="47.92347" lon="5.75929">
        <ele>274.206</ele>
        <time>2019-09-25T10:22:17Z</time>
      </trkpt>
      <trkpt lat="47.92339" lon="5.7592">
        <ele>274.42</ele>
        <time>2019-09-25T10:22:20Z</time>
      </trkpt>
      <trkpt lat="47.92331" lon="5.75912">
        <ele>275.266</ele>
        <time>2019-09-25T10:22:23Z</time>
      </trkpt>
      <trkpt lat="47.92324" lon="5.75904">
        <ele>276.221</ele>
        <time>2019-09-25T10:22:26Z</time>
      </trkpt>
      <trkpt lat="47.92317" lon="5.75896">
        <ele>277.326</ele>
        <time>2019-09-25T10:22:29Z</time>
      </trkpt>
      <trkpt lat="47.9231" lon="5.75887">
        <ele>278.297</ele>
        <time>2019-09-25T10:22:32Z</time>
      </trkpt>
      <trkpt lat="47.92303" lon="5.75877">
        <ele>278.83</ele>
        <time>2019-09-25T10:22:35Z</time>
      </trkpt>
      <trkpt lat="47.92296" lon="5.75868">
        <ele>280.195</ele>
        <time>2019-09-25T10:22:38Z</time>
      </trkpt>
      <trkpt lat="47.92288" lon="5.7586">
        <ele>281.906</ele>
        <time>2019-09-25T10:22:41Z</time>
      </trkpt>
      <trkpt lat="47.9228" lon="5.75853">
        <ele>283.814</ele>
        <time>2019-09-25T10:22:44Z</time>
      </trkpt>
      <trkpt lat="47.92272" lon="5.75843">
        <ele>285.325</ele>
        <time>2019-09-25T10:22:47Z</time>
      </trkpt>
      <trkpt lat="47.92265" lon="5.75833">
        <ele>286.382</ele>
        <time>2019-09-25T10:22:50Z</time>
      </trkpt>
      <trkpt lat="47.92256" lon="5.7582">
        <ele>286.769</ele>
        <time>2019-09-25T10:22:53Z</time>
      </trkpt>
      <trkpt lat="47.92247" lon="5.75807">
        <ele>287.795</ele>
        <time>2019-09-25T10:22:56Z</time>
      </trkpt>
      <trkpt lat="47.92239" lon="5.75796">
        <ele>289.83</ele>
        <time>2019-09-25T10:22:59Z</time>
      </trkpt>
      <trkpt lat="47.92232" lon="5.75785">
        <ele>292.168</ele>
        <time>2019-09-25T10:23:02Z</time>
      </trkpt>
      <trkpt lat="47.92225" lon="5.75774">
        <ele>295.288</ele>
        <time>2019-09-25T10:23:05Z</time>
      </trkpt>
      <trkpt lat="47.92219" lon="5.75763">
        <ele>297.161</ele>
        <time>2019-09-25T10:23:08Z</time>
      </trkpt>
      <trkpt lat="47.92212" lon="5.75752">
        <ele>298.611</ele>
        <time>2019-09-25T10:23:11Z</time>
      </trkpt>
      <trkpt lat="47.92202" lon="5.75739">
        <ele>300.281</ele>
        <time>2019-09-25T10:23:14Z</time>
      </trkpt>
      <trkpt lat="47.92194" lon="5.75727">
        <ele>301.899</ele>
        <time>2019-09-25T10:23:17Z</time>
      </trkpt>
      <trkpt lat="47.92186" lon="5.75716">
        <ele>302.361</ele>
        <time>2019-09-25T10:23:20Z</time>
      </trkpt>
      <trkpt lat="47.92176" lon="5.75704">
        <ele>302.289</ele>
        <time>2019-09-25T10:23:23Z</time>
      </trkpt>
      <trkpt lat="47.92168" lon="5.75693">
        <ele>302.589</ele>
        <time>2019-09-25T10:23:26Z</time>
      </trkpt>
      <trkpt lat="47.92163" lon="5.7568">
        <ele>303.401</ele>
        <time>2019-09-25T10:23:29Z</time>
      </trkpt>
      <trkpt lat="47.92156" lon="5.75667">
        <ele>303.644</ele>
        <time>2019-09-25T10:23:32Z</time>
      </trkpt>
      <trkpt lat="47.92148" lon="5.75652">
        <ele>303.463</ele>
        <time>2019-09-25T10:23:35Z</time>
      </trkpt>
      <trkpt lat="47.9214" lon="5.75637">
        <ele>303.412</ele>
        <time>2019-09-25T10:23:38Z</time>
      </trkpt>
      <trkpt lat="47.92132" lon="5.75623">
        <ele>303.807</ele>
        <time>2019-09-25T10:23:41Z</time>
      </trkpt>
      <trkpt lat="47.92126" lon="5.75612">
        <ele>303.868</ele>
        <time>2019-09-25T10:23:44Z</time>
      </trkpt>
      <trkpt lat="47.92121" lon="5.75602">
        <ele>303.039</ele>
        <time>2019-09-25T10:23:47Z</time>
      </trkpt>
      <trkpt lat="47.92115" lon="5.7559">
        <ele>302.07</ele>
        <time>2019-09-25T10:23:50Z</time>
      </trkpt>
      <trkpt lat="47.92109" lon="5.75576">
        <ele>300.736</ele>
        <time>2019-09-25T10:23:53Z</time>
      </trkpt>
      <trkpt lat="47.92104" lon="5.75565">
        <ele>299.785</ele>
        <time>2019-09-25T10:23:56Z</time>
      </trkpt>
      <trkpt lat="47.92099" lon="5.75552">
        <ele>298.967</ele>
        <time>2019-09-25T10:23:59Z</time>
      </trkpt>
      <trkpt lat="47.92096" lon="5.75539">
        <ele>297.529</ele>
        <time>2019-09-25T10:24:02Z</time>
      </trkpt>
      <trkpt lat="47.92092" lon="5.75526">
        <ele>296.394</ele>
        <time>2019-09-25T10:24:05Z</time>
      </trkpt>
      <trkpt lat="47.9209" lon="5.75513">
        <ele>295.109</ele>
        <time>2019-09-25T10:24:08Z</time>
      </trkpt>
      <trkpt lat="47.92088" lon="5.75502">
        <ele>293.696</ele>
        <time>2019-09-25T10:24:11Z</time>
      </trkpt>
      <trkpt lat="47.92085" lon="5.75491">
        <ele>292.431</ele>
        <time>2019-09-25T10:24:14Z</time>
      </trkpt>
      <trkpt lat="47.92084" lon="5.7548">
        <ele>291.132</ele>
        <time>2019-09-25T10:24:17Z</time>
      </trkpt>
      <trkpt lat="47.92083" lon="5.75469">
        <ele>289.888</ele>
        <time>2019-09-25T10:24:20Z</time>
      </trkpt>
      <trkpt lat="47.92082" lon="5.75456">
        <ele>289.394</ele>
        <time>2019-09-25T10:24:23Z</time>
      </trkpt>
      <trkpt lat="47.92079" lon="5.75442">
        <ele>289.325</ele>
        <time>2019-09-25T10:24:26Z</time>
      </trkpt>
      <trkpt lat="47.92077" lon="5.7543">
        <ele>289.271</ele>
        <time>2019-09-25T10:24:29Z</time>
      </trkpt>
      <trkpt lat="47.92075" lon="5.75417">
        <ele>288.711</ele>
        <time>2019-09-25T10:24:32Z</time>
      </trkpt>
      <trkpt lat="47.92074" lon="5.75406">
        <ele>288.158</ele>
        <time>2019-09-25T10:24:35Z</time>
      </trkpt>
      <trkpt lat="47.92073" lon="5.75395">
        <ele>287.694</ele>
        <time>2019-09-25T10:24:38Z</time>
      </trkpt>
      <trkpt lat="47.92071" lon="5.75384">
        <ele>287.525</ele>
        <time>2019-09-25T10:24:41Z</time>
      </trkpt>
      <trkpt lat="47.92069" lon="5.75372">
        <ele>287.297</ele>
        <time>2019-09-25T10:24:44Z</time>
      </trkpt>
      <trkpt lat="47.92065" lon="5.7536">
        <ele>286.672</ele>
        <time>2019-09-25T10:24:47Z</time>
      </trkpt>
      <trkpt lat="47.92062" lon="5.75349">
        <ele>286.058</ele>
        <time>2019-09-25T10:24:50Z</time>
      </trkpt>
      <trkpt lat="47.92058" lon="5.75337">
        <ele>285.883</ele>
        <time>2019-09-25T10:24:53Z</time>
      </trkpt>
      <trkpt lat="47.92054" lon="5.75325">
        <ele>285.816</ele>
        <time>2019-09-25T10:24:56Z</time>
      </trkpt>
      <trkpt lat="47.92051" lon="5.75314">
        <ele>285.71</ele>
        <time>2019-09-25T10:24:59Z</time>
      </trkpt>
      <trkpt lat="47.92047" lon="5.75303">
        <ele>286.113</ele>
        <time>2019-09-25T10:25:02Z</time>
      </trkpt>
      <trkpt lat="47.92043" lon="5.75292">
        <ele>286.381</ele>
        <time>2019-09-25T10:25:05Z</time>
      </trkpt>
      <trkpt lat="47.92039" lon="5.75281">
        <ele>286.183</ele>
        <time>2019-09-25T10:25:08Z</time>
      </trkpt>
      <trkpt lat="47.92034" lon="5.75272">
        <ele>286.18</ele>
        <time>2019-09-25T10:25:11Z</time>
      </trkpt>
      <trkpt lat="47.9203" lon="5.75262">
        <ele>286.122</ele>
        <time>2019-09-25T10:25:14Z</time>
      </trkpt>
      <trkpt lat="47.92026" lon="5.75252">
        <ele>285.934</ele>
        <time>2019-09-25T10:25:17Z</time>
      </trkpt>
      <trkpt lat="47.92021" lon="5.75242">
        <ele>286.221</ele>
        <time>2019-09-25T10:25:20Z</time>
      </trkpt>
      <trkpt lat="47.92016" lon="5.75232">
        <ele>286.689</ele>
        <time>2019-09-25T10:25:23Z</time>
      </trkpt>
      <trkpt lat="47.9201" lon="5.75222">
        <ele>287.437</ele>
        <time>2019-09-25T10:25:26Z</time>
      </trkpt>
      <trkpt lat="47.92005" lon="5.75212">
        <ele>286.875</ele>
        <time>2019-09-25T10:25:29Z</time>
      </trkpt>
      <trkpt lat="47.92" lon="5.75202">
        <ele>286.921</ele>
        <time>2019-09-25T10:25:32Z</time>
      </trkpt>
      <trkpt lat="47.91994" lon="5.75193">
        <ele>287.046</ele>
        <time>2019-09-25T10:25:35Z</time>
      </trkpt>
      <trkpt lat="47.91988" lon="5.75184">
        <ele>287.028</ele>
        <time>2019-09-25T10:25:38Z</time>
      </trkpt>
      <trkpt lat="47.91983" lon="5.75177">
        <ele>287.353</ele>
        <time>2019-09-25T10:25:41Z</time>
      </trkpt>
      <trkpt lat="47.91978" lon="5.75169">
        <ele>287.659</ele>
        <time>2019-09-25T10:25:44Z</time>
      </trkpt>
      <trkpt lat="47.91972" lon="5.75161">
        <ele>288.57</ele>
        <time>2019-09-25T10:25:47Z</time>
      </trkpt>
      <trkpt lat="47.91966" lon="5.75153">
        <ele>289.668</ele>
        <time>2019-09-25T10:25:50Z</time>
      </trkpt>
      <trkpt lat="47.91959" lon="5.75144">
        <ele>290.763</ele>
        <time>2019-09-25T10:25:53Z</time>
      </trkpt>
      <trkpt lat="47.91953" lon="5.75136">
        <ele>291.89</ele>
        <time>2019-09-25T10:25:56Z</time>
      </trkpt>
      <trkpt lat="47.91947" lon="5.75129">
        <ele>292.205</ele>
        <time>2019-09-25T10:25:59Z</time>
      </trkpt>
      <trkpt lat="47.91941" lon="5.75122">
        <ele>292.007</ele>
        <time>2019-09-25T10:26:02Z</time>
      </trkpt>
      <trkpt lat="47.91935" lon="5.75115">
        <ele>292.271</ele>
        <time>2019-09-25T10:26:05Z</time>
      </trkpt>
      <trkpt lat="47.91928" lon="5.75108">
        <ele>292.288</ele>
        <time>2019-09-25T10:26:08Z</time>
      </trkpt>
      <trkpt lat="47.91922" lon="5.75101">
        <ele>291.953</ele>
        <time>2019-09-25T10:26:11Z</time>
      </trkpt>
      <trkpt lat="47.91915" lon="5.75094">
        <ele>291.784</ele>
        <time>2019-09-25T10:26:14Z</time>
      </trkpt>
      <trkpt lat="47.91908" lon="5.75088">
        <ele>292.132</ele>
        <time>2019-09-25T10:26:17Z</time>
      </trkpt>
      <trkpt lat="47.91902" lon="5.75081">
        <ele>292.161</ele>
        <time>2019-09-25T10:26:20Z</time>
      </trkpt>
      <trkpt lat="47.91894" lon="5.75076">
        <ele>291.996</ele>
        <time>2019-09-25T10:26:23Z</time>
      </trkpt>
      <trkpt lat="47.91887" lon="5.75071">
        <ele>291.46</ele>
        <time>2019-09-25T10:26:26Z</time>
      </trkpt>
      <trkpt lat="47.91881" lon="5.75066">
        <ele>291.519</ele>
        <time>2019-09-25T10:26:29Z</time>
      </trkpt>
      <trkpt lat="47.91875" lon="5.75062">
        <ele>291.99</ele>
        <time>2019-09-25T10:26:32Z</time>
      </trkpt>
      <trkpt lat="47.91867" lon="5.75056">
        <ele>292.687</ele>
        <time>2019-09-25T10:26:35Z</time>
      </trkpt>
      <trkpt lat="47.9186" lon="5.75052">
        <ele>293.583</ele>
        <time>2019-09-25T10:26:38Z</time>
      </trkpt>
      <trkpt lat="47.91852" lon="5.75048">
        <ele>294.736</ele>
        <time>2019-09-25T10:26:41Z</time>
      </trkpt>
      <trkpt lat="47.91844" lon="5.75044">
        <ele>295.276</ele>
        <time>2019-09-25T10:26:44Z</time>
      </trkpt>
      <trkpt lat="47.91836" lon="5.75038">
        <ele>294.558</ele>
        <time>2019-09-25T10:26:47Z</time>
      </trkpt>
      <trkpt lat="47.91828" lon="5.75033">
        <ele>294.2</ele>
        <time>2019-09-25T10:26:50Z</time>
      </trkpt>
      <trkpt lat="47.91821" lon="5.7503">
        <ele>294.141</ele>
        <time>2019-09-25T10:26:53Z</time>
      </trkpt>
      <trkpt lat="47.91814" lon="5.75025">
        <ele>294.282</ele>
        <time>2019-09-25T10:26:56Z</time>
      </trkpt>
      <trkpt lat="47.91806" lon="5.75022">
        <ele>294.842</ele>
        <time>2019-09-25T10:26:59Z</time>
      </trkpt>
      <trkpt lat="47.91799" lon="5.75019">
        <ele>295.088</ele>
        <time>2019-09-25T10:27:02Z</time>
      </trkpt>
      <trkpt lat="47.91792" lon="5.75015">
        <ele>295.39</ele>
        <time>2019-09-25T10:27:05Z</time>
      </trkpt>
      <trkpt lat="47.91785" lon="5.75011">
        <ele>295.508</ele>
        <time>2019-09-25T10:27:08Z</time>
      </trkpt>
      <trkpt lat="47.91777" lon="5.75007">
        <ele>295.617</ele>
        <time>2019-09-25T10:27:11Z</time>
      </trkpt>
      <trkpt lat="47.9177" lon="5.75004">
        <ele>296.066</ele>
        <time>2019-09-25T10:27:14Z</time>
      </trkpt>
      <trkpt lat="47.91764" lon="5.75001">
        <ele>296.533</ele>
        <time>2019-09-25T10:27:17Z</time>
      </trkpt>
      <trkpt lat="47.91756" lon="5.74998">
        <ele>297.229</ele>
        <time>2019-09-25T10:27:20Z</time>
      </trkpt>
      <trkpt lat="47.91748" lon="5.74995">
        <ele>297.861</ele>
        <time>2019-09-25T10:27:23Z</time>
      </trkpt>
      <trkpt lat="47.9174" lon="5.74992">
        <ele>298.213</ele>
        <time>2019-09-25T10:27:26Z</time>
      </trkpt>
      <trkpt lat="47.91732" lon="5.74989">
        <ele>298.73</ele>
        <time>2019-09-25T10:27:29Z</time>
      </trkpt>
      <trkpt lat="47.91725" lon="5.74986">
        <ele>298.876</ele>
        <time>2019-09-25T10:27:32Z</time>
      </trkpt>
      <trkpt lat="47.91717" lon="5.74983">
        <ele>299.215</ele>
        <time>2019-09-25T10:27:35Z</time>
      </trkpt>
      <trkpt lat="47.9171" lon="5.7498">
        <ele>299.483</ele>
        <time>2019-09-25T10:27:38Z</time>
      </trkpt>
      <trkpt lat="47.91704" lon="5.74977">
        <ele>299.681</ele>
        <time>2019-09-25T10:27:41Z</time>
      </trkpt>
      <trkpt lat="47.91696" lon="5.74975">
        <ele>300.446</ele>
        <time>2019-09-25T10:27:44Z</time>
      </trkpt>
      <trkpt lat="47.91689" lon="5.74972">
        <ele>300.776</ele>
        <time>2019-09-25T10:27:47Z</time>
      </trkpt>
      <trkpt lat="47.91682" lon="5.74968">
        <ele>301.24</ele>
        <time>2019-09-25T10:27:50Z</time>
      </trkpt>
      <trkpt lat="47.91676" lon="5.74964">
        <ele>301.748</ele>
        <time>2019-09-25T10:27:53Z</time>
      </trkpt>
      <trkpt lat="47.9167" lon="5.74961">
        <ele>302.317</ele>
        <time>2019-09-25T10:27:56Z</time>
      </trkpt>
      <trkpt lat="47.91663" lon="5.74958">
        <ele>302.575</ele>
        <time>2019-09-25T10:27:59Z</time>
      </trkpt>
      <trkpt lat="47.91656" lon="5.74955">
        <ele>303.042</ele>
        <time>2019-09-25T10:28:02Z</time>
      </trkpt>
      <trkpt lat="47.9165" lon="5.74951">
        <ele>303.49</ele>
        <time>2019-09-25T10:28:05Z</time>
      </trkpt>
      <trkpt lat="47.91643" lon="5.74949">
        <ele>303.685</ele>
        <time>2019-09-25T10:28:08Z</time>
      </trkpt>
      <trkpt lat="47.91636" lon="5.74946">
        <ele>304.249</ele>
        <time>2019-09-25T10:28:11Z</time>
      </trkpt>
      <trkpt lat="47.9163" lon="5.74942">
        <ele>304.592</ele>
        <time>2019-09-25T08:28:14.001Z</time>
      </trkpt>
      <trkpt lat="47.91624" lon="5.74939">
        <ele>305.32</ele>
        <time>2019-09-25T08:28:17.001Z</time>
      </trkpt>
      <trkpt lat="47.91617" lon="5.74935">
        <ele>306.304</ele>
        <time>2019-09-25T08:28:20.001Z</time>
      </trkpt>
      <trkpt lat="47.91611" lon="5.74932">
        <ele>306.949</ele>
        <time>2019-09-25T08:28:23.001Z</time>
      </trkpt>
      <trkpt lat="47.91604" lon="5.74928">
        <ele>307.678</ele>
        <time>2019-09-25T08:28:26.001Z</time>
      </trkpt>
      <trkpt lat="47.91598" lon="5.74925">
        <ele>308.273</ele>
        <time>2019-09-25T08:28:29.001Z</time>
      </trkpt>
      <trkpt lat="47.91592" lon="5.74921">
        <ele>309.041</ele>
        <time>2019-09-25T08:28:32.001Z</time>
      </trkpt>
      <trkpt lat="47.91585" lon="5.74919">
        <ele>309.883</ele>
        <time>2019-09-25T08:28:35.001Z</time>
      </trkpt>
      <trkpt lat="47.91579" lon="5.74915">
        <ele>310.183</ele>
        <time>2019-09-25T08:28:38.001Z</time>
      </trkpt>
      <trkpt lat="47.91572" lon="5.74912">
        <ele>309.764</ele>
        <time>2019-09-25T08:28:41.001Z</time>
      </trkpt>
      <trkpt lat="47.91566" lon="5.74908">
        <ele>310.344</ele>
        <time>2019-09-25T08:28:44.001Z</time>
      </trkpt>
      <trkpt lat="47.91559" lon="5.74905">
        <ele>309.716</ele>
        <time>2019-09-25T08:28:47.001Z</time>
      </trkpt>
      <trkpt lat="47.91553" lon="5.74902">
        <ele>309.01</ele>
        <time>2019-09-25T08:28:50.001Z</time>
      </trkpt>
      <trkpt lat="47.91546" lon="5.74899">
        <ele>309.113</ele>
        <time>2019-09-25T08:28:53.001Z</time>
      </trkpt>
      <trkpt lat="47.91539" lon="5.74896">
        <ele>309.201</ele>
        <time>2019-09-25T08:28:56.001Z</time>
      </trkpt>
      <trkpt lat="47.91533" lon="5.74892">
        <ele>309.612</ele>
        <time>2019-09-25T08:28:59.001Z</time>
      </trkpt>
      <trkpt lat="47.91525" lon="5.74889">
        <ele>310.139</ele>
        <time>2019-09-25T10:29:02Z</time>
      </trkpt>
      <trkpt lat="47.91518" lon="5.74886">
        <ele>310.544</ele>
        <time>2019-09-25T08:29:05.001Z</time>
      </trkpt>
      <trkpt lat="47.91511" lon="5.74883">
        <ele>311.02</ele>
        <time>2019-09-25T08:29:08.001Z</time>
      </trkpt>
      <trkpt lat="47.91505" lon="5.74878">
        <ele>311.532</ele>
        <time>2019-09-25T08:29:11.001Z</time>
      </trkpt>
      <trkpt lat="47.91497" lon="5.74876">
        <ele>311.975</ele>
        <time>2019-09-25T08:29:14.001Z</time>
      </trkpt>
      <trkpt lat="47.9149" lon="5.74874">
        <ele>312.739</ele>
        <time>2019-09-25T08:29:17.001Z</time>
      </trkpt>
      <trkpt lat="47.91483" lon="5.74869">
        <ele>313.058</ele>
        <time>2019-09-25T08:29:20.001Z</time>
      </trkpt>
      <trkpt lat="47.91475" lon="5.74864">
        <ele>312.817</ele>
        <time>2019-09-25T08:29:23.001Z</time>
      </trkpt>
      <trkpt lat="47.91468" lon="5.7486">
        <ele>312.313</ele>
        <time>2019-09-25T08:29:26.001Z</time>
      </trkpt>
      <trkpt lat="47.91461" lon="5.74856">
        <ele>311.738</ele>
        <time>2019-09-25T08:29:29.001Z</time>
      </trkpt>
      <trkpt lat="47.91453" lon="5.74852">
        <ele>310.878</ele>
        <time>2019-09-25T08:29:32.001Z</time>
      </trkpt>
      <trkpt lat="47.91446" lon="5.74848">
        <ele>310.241</ele>
        <time>2019-09-25T08:29:35.001Z</time>
      </trkpt>
      <trkpt lat="47.91439" lon="5.74844">
        <ele>309.754</ele>
        <time>2019-09-25T08:29:38.001Z</time>
      </trkpt>
      <trkpt lat="47.91432" lon="5.74841">
        <ele>309.518</ele>
        <time>2019-09-25T08:29:41.001Z</time>
      </trkpt>
      <trkpt lat="47.91425" lon="5.74838">
        <ele>309.358</ele>
        <time>2019-09-25T08:29:44.001Z</time>
      </trkpt>
      <trkpt lat="47.91417" lon="5.74835">
        <ele>309.553</ele>
        <time>2019-09-25T08:29:47.001Z</time>
      </trkpt>
      <trkpt lat="47.91409" lon="5.74833">
        <ele>309.981</ele>
        <time>2019-09-25T08:29:50.001Z</time>
      </trkpt>
      <trkpt lat="47.91401" lon="5.74833">
        <ele>310.139</ele>
        <time>2019-09-25T08:29:53.001Z</time>
      </trkpt>
      <trkpt lat="47.91394" lon="5.74835">
        <ele>310.39</ele>
        <time>2019-09-25T08:29:56.001Z</time>
      </trkpt>
      <trkpt lat="47.91388" lon="5.74841">
        <ele>310.289</ele>
        <time>2019-09-25T08:29:59.001Z</time>
      </trkpt>
      <trkpt lat="47.91383" lon="5.74849">
        <ele>310.294</ele>
        <time>2019-09-25T10:30:02Z</time>
      </trkpt>
      <trkpt lat="47.91379" lon="5.74858">
        <ele>310.027</ele>
        <time>2019-09-25T08:30:05.001Z</time>
      </trkpt>
      <trkpt lat="47.91374" lon="5.74868">
        <ele>309.712</ele>
        <time>2019-09-25T08:30:08.001Z</time>
      </trkpt>
      <trkpt lat="47.91368" lon="5.74878">
        <ele>309.908</ele>
        <time>2019-09-25T08:30:11.001Z</time>
      </trkpt>
      <trkpt lat="47.91364" lon="5.74889">
        <ele>310.415</ele>
        <time>2019-09-25T08:30:14.001Z</time>
      </trkpt>
      <trkpt lat="47.91359" lon="5.74901">
        <ele>310.72</ele>
        <time>2019-09-25T08:30:17.001Z</time>
      </trkpt>
      <trkpt lat="47.91353" lon="5.74912">
        <ele>311.211</ele>
        <time>2019-09-25T08:30:20.001Z</time>
      </trkpt>
      <trkpt lat="47.91347" lon="5.74924">
        <ele>311.696</ele>
        <time>2019-09-25T08:30:23.001Z</time>
      </trkpt>
      <trkpt lat="47.91339" lon="5.74937">
        <ele>311.908</ele>
        <time>2019-09-25T08:30:26.001Z</time>
      </trkpt>
      <trkpt lat="47.9133" lon="5.74949">
        <ele>311.4</ele>
        <time>2019-09-25T08:30:29.001Z</time>
      </trkpt>
      <trkpt lat="47.91321" lon="5.7496">
        <ele>310.942</ele>
        <time>2019-09-25T08:30:32.001Z</time>
      </trkpt>
      <trkpt lat="47.91312" lon="5.74965">
        <ele>311.515</ele>
        <time>2019-09-25T08:30:35.001Z</time>
      </trkpt>
      <trkpt lat="47.91302" lon="5.74967">
        <ele>312.602</ele>
        <time>2019-09-25T08:30:38.001Z</time>
      </trkpt>
      <trkpt lat="47.91293" lon="5.74969">
        <ele>312.873</ele>
        <time>2019-09-25T08:30:41.001Z</time>
      </trkpt>
      <trkpt lat="47.91284" lon="5.74971">
        <ele>312.873</ele>
        <time>2019-09-25T08:30:44.001Z</time>
      </trkpt>
      <trkpt lat="47.91276" lon="5.74972">
        <ele>313.141</ele>
        <time>2019-09-25T08:30:47.001Z</time>
      </trkpt>
      <trkpt lat="47.91268" lon="5.74972">
        <ele>313.191</ele>
        <time>2019-09-25T08:30:50.001Z</time>
      </trkpt>
      <trkpt lat="47.9126" lon="5.74972">
        <ele>313.281</ele>
        <time>2019-09-25T08:30:53.001Z</time>
      </trkpt>
      <trkpt lat="47.91253" lon="5.74972">
        <ele>313.305</ele>
        <time>2019-09-25T08:30:56.001Z</time>
      </trkpt>
      <trkpt lat="47.91246" lon="5.74973">
        <ele>313.19</ele>
        <time>2019-09-25T08:30:59.001Z</time>
      </trkpt>
      <trkpt lat="47.91239" lon="5.74973">
        <ele>312.882</ele>
        <time>2019-09-25T10:31:02Z</time>
      </trkpt>
      <trkpt lat="47.91231" lon="5.74974">
        <ele>312.824</ele>
        <time>2019-09-25T08:31:05.001Z</time>
      </trkpt>
      <trkpt lat="47.91224" lon="5.74975">
        <ele>312.974</ele>
        <time>2019-09-25T08:31:08.001Z</time>
      </trkpt>
      <trkpt lat="47.91217" lon="5.74976">
        <ele>313.519</ele>
        <time>2019-09-25T08:31:11.001Z</time>
      </trkpt>
      <trkpt lat="47.9121" lon="5.74978">
        <ele>314.588</ele>
        <time>2019-09-25T08:31:14.001Z</time>
      </trkpt>
      <trkpt lat="47.91203" lon="5.74979">
        <ele>314.934</ele>
        <time>2019-09-25T08:31:17.001Z</time>
      </trkpt>
      <trkpt lat="47.91196" lon="5.74979">
        <ele>315.771</ele>
        <time>2019-09-25T08:31:20.001Z</time>
      </trkpt>
      <trkpt lat="47.91191" lon="5.7498">
        <ele>315.774</ele>
        <time>2019-09-25T08:31:23.001Z</time>
      </trkpt>
      <trkpt lat="47.91185" lon="5.74982">
        <ele>315.734</ele>
        <time>2019-09-25T08:31:26.001Z</time>
      </trkpt>
      <trkpt lat="47.9118" lon="5.74981">
        <ele>315.472</ele>
        <time>2019-09-25T08:31:29.001Z</time>
      </trkpt>
      <trkpt lat="47.91173" lon="5.74981">
        <ele>315.582</ele>
        <time>2019-09-25T08:31:32.001Z</time>
      </trkpt>
      <trkpt lat="47.91166" lon="5.74981">
        <ele>315.796</ele>
        <time>2019-09-25T08:31:35.001Z</time>
      </trkpt>
      <trkpt lat="47.91158" lon="5.74982">
        <ele>315.93</ele>
        <time>2019-09-25T08:31:38.001Z</time>
      </trkpt>
      <trkpt lat="47.91151" lon="5.74983">
        <ele>316.023</ele>
        <time>2019-09-25T08:31:41.001Z</time>
      </trkpt>
      <trkpt lat="47.91144" lon="5.74984">
        <ele>316.267</ele>
        <time>2019-09-25T08:31:44.001Z</time>
      </trkpt>
      <trkpt lat="47.91137" lon="5.74986">
        <ele>316.609</ele>
        <time>2019-09-25T08:31:47.001Z</time>
      </trkpt>
      <trkpt lat="47.91131" lon="5.74987">
        <ele>317.045</ele>
        <time>2019-09-25T08:31:50.001Z</time>
      </trkpt>
      <trkpt lat="47.91123" lon="5.74989">
        <ele>317.663</ele>
        <time>2019-09-25T08:31:53.001Z</time>
      </trkpt>
      <trkpt lat="47.91114" lon="5.74991">
        <ele>317.789</ele>
        <time>2019-09-25T08:31:56.001Z</time>
      </trkpt>
      <trkpt lat="47.91102" lon="5.74994">
        <ele>318.028</ele>
        <time>2019-09-25T08:31:59.001Z</time>
      </trkpt>
      <trkpt lat="47.91086" lon="5.74999">
        <ele>318.091</ele>
        <time>2019-09-25T10:32:02Z</time>
      </trkpt>
      <trkpt lat="47.91068" lon="5.75006">
        <ele>317.72</ele>
        <time>2019-09-25T08:32:05.001Z</time>
      </trkpt>
      <trkpt lat="47.91047" lon="5.75014">
        <ele>316.728</ele>
        <time>2019-09-25T08:32:08.001Z</time>
      </trkpt>
      <trkpt lat="47.91025" lon="5.75022">
        <ele>314.787</ele>
        <time>2019-09-25T08:32:11.001Z</time>
      </trkpt>
      <trkpt lat="47.91002" lon="5.75033">
        <ele>313.231</ele>
        <time>2019-09-25T08:32:14.001Z</time>
      </trkpt>
      <trkpt lat="47.90976" lon="5.7505">
        <ele>311.612</ele>
        <time>2019-09-25T08:32:17.001Z</time>
      </trkpt>
      <trkpt lat="47.90949" lon="5.75069">
        <ele>310.5</ele>
        <time>2019-09-25T08:32:20.001Z</time>
      </trkpt>
      <trkpt lat="47.90924" lon="5.75088">
        <ele>309.795</ele>
        <time>2019-09-25T08:32:23.001Z</time>
      </trkpt>
      <trkpt lat="47.909" lon="5.75105">
        <ele>309.098</ele>
        <time>2019-09-25T08:32:26.001Z</time>
      </trkpt>
      <trkpt lat="47.90878" lon="5.75121">
        <ele>308.421</ele>
        <time>2019-09-25T08:32:29.001Z</time>
      </trkpt>
      <trkpt lat="47.90858" lon="5.75137">
        <ele>307.513</ele>
        <time>2019-09-25T08:32:32.001Z</time>
      </trkpt>
      <trkpt lat="47.90841" lon="5.75155">
        <ele>306.623</ele>
        <time>2019-09-25T08:32:35.001Z</time>
      </trkpt>
      <trkpt lat="47.90826" lon="5.75175">
        <ele>305.756</ele>
        <time>2019-09-25T08:32:38.001Z</time>
      </trkpt>
      <trkpt lat="47.90811" lon="5.75197">
        <ele>305.112</ele>
        <time>2019-09-25T08:32:41.001Z</time>
      </trkpt>
      <trkpt lat="47.90796" lon="5.75221">
        <ele>303.793</ele>
        <time>2019-09-25T08:32:44.001Z</time>
      </trkpt>
      <trkpt lat="47.90779" lon="5.75246">
        <ele>302.586</ele>
        <time>2019-09-25T08:32:47.001Z</time>
      </trkpt>
      <trkpt lat="47.90762" lon="5.75272">
        <ele>301.784</ele>
        <time>2019-09-25T08:32:50.001Z</time>
      </trkpt>
      <trkpt lat="47.90745" lon="5.75299">
        <ele>300.624</ele>
        <time>2019-09-25T08:32:53.001Z</time>
      </trkpt>
      <trkpt lat="47.90729" lon="5.7533">
        <ele>299.231</ele>
        <time>2019-09-25T08:32:56.001Z</time>
      </trkpt>
      <trkpt lat="47.90719" lon="5.75365">
        <ele>298.529</ele>
        <time>2019-09-25T08:32:59.001Z</time>
      </trkpt>
      <trkpt lat="47.90714" lon="5.75398">
        <ele>298.983</ele>
        <time>2019-09-25T10:33:02Z</time>
      </trkpt>
      <trkpt lat="47.90708" lon="5.75428">
        <ele>298.858</ele>
        <time>2019-09-25T08:33:05.001Z</time>
      </trkpt>
      <trkpt lat="47.90702" lon="5.75455">
        <ele>298.917</ele>
        <time>2019-09-25T08:33:08.001Z</time>
      </trkpt>
      <trkpt lat="47.90694" lon="5.75482">
        <ele>299.055</ele>
        <time>2019-09-25T08:33:11.001Z</time>
      </trkpt>
      <trkpt lat="47.90684" lon="5.75508">
        <ele>298.921</ele>
        <time>2019-09-25T08:33:14.001Z</time>
      </trkpt>
      <trkpt lat="47.90675" lon="5.75533">
        <ele>298.516</ele>
        <time>2019-09-25T08:33:17.001Z</time>
      </trkpt>
      <trkpt lat="47.90664" lon="5.75562">
        <ele>297.709</ele>
        <time>2019-09-25T08:33:20.001Z</time>
      </trkpt>
      <trkpt lat="47.90654" lon="5.7559">
        <ele>297.431</ele>
        <time>2019-09-25T08:33:23.001Z</time>
      </trkpt>
      <trkpt lat="47.90643" lon="5.7562">
        <ele>297.238</ele>
        <time>2019-09-25T08:33:26.001Z</time>
      </trkpt>
      <trkpt lat="47.90631" lon="5.75652">
        <ele>296.747</ele>
        <time>2019-09-25T08:33:29.001Z</time>
      </trkpt>
      <trkpt lat="47.90618" lon="5.75686">
        <ele>296.217</ele>
        <time>2019-09-25T08:33:32.001Z</time>
      </trkpt>
      <trkpt lat="47.90604" lon="5.75721">
        <ele>295.9</ele>
        <time>2019-09-25T08:33:35.001Z</time>
      </trkpt>
      <trkpt lat="47.90591" lon="5.75758">
        <ele>295.443</ele>
        <time>2019-09-25T08:33:38.001Z</time>
      </trkpt>
      <trkpt lat="47.90578" lon="5.75796">
        <ele>295.089</ele>
        <time>2019-09-25T08:33:41.001Z</time>
      </trkpt>
      <trkpt lat="47.90564" lon="5.75833">
        <ele>294.396</ele>
        <time>2019-09-25T08:33:44.001Z</time>
      </trkpt>
      <trkpt lat="47.90551" lon="5.75868">
        <ele>293.16</ele>
        <time>2019-09-25T08:33:47.001Z</time>
      </trkpt>
      <trkpt lat="47.90538" lon="5.75902">
        <ele>291.613</ele>
        <time>2019-09-25T08:33:50.001Z</time>
      </trkpt>
      <trkpt lat="47.90526" lon="5.75936">
        <ele>290.124</ele>
        <time>2019-09-25T08:33:53.001Z</time>
      </trkpt>
      <trkpt lat="47.90515" lon="5.75971">
        <ele>288.89</ele>
        <time>2019-09-25T08:33:56.001Z</time>
      </trkpt>
      <trkpt lat="47.90506" lon="5.76005">
        <ele>287.383</ele>
        <time>2019-09-25T08:33:59.001Z</time>
      </trkpt>
      <trkpt lat="47.90499" lon="5.7604">
        <ele>285.857</ele>
        <time>2019-09-25T10:34:02Z</time>
      </trkpt>
      <trkpt lat="47.90492" lon="5.76073">
        <ele>284.547</ele>
        <time>2019-09-25T08:34:05.001Z</time>
      </trkpt>
      <trkpt lat="47.90486" lon="5.76103">
        <ele>283.256</ele>
        <time>2019-09-25T08:34:08.001Z</time>
      </trkpt>
      <trkpt lat="47.90483" lon="5.76134">
        <ele>282.314</ele>
        <time>2019-09-25T08:34:11.001Z</time>
      </trkpt>
      <trkpt lat="47.90481" lon="5.76166">
        <ele>282.162</ele>
        <time>2019-09-25T08:34:14.001Z</time>
      </trkpt>
      <trkpt lat="47.90483" lon="5.76199">
        <ele>281.937</ele>
        <time>2019-09-25T08:34:17.001Z</time>
      </trkpt>
      <trkpt lat="47.90488" lon="5.76232">
        <ele>281.377</ele>
        <time>2019-09-25T08:34:20.001Z</time>
      </trkpt>
      <trkpt lat="47.90496" lon="5.76265">
        <ele>280.937</ele>
        <time>2019-09-25T08:34:23.001Z</time>
      </trkpt>
      <trkpt lat="47.90504" lon="5.76297">
        <ele>280.048</ele>
        <time>2019-09-25T08:34:26.001Z</time>
      </trkpt>
      <trkpt lat="47.90512" lon="5.76327">
        <ele>280.219</ele>
        <time>2019-09-25T08:34:29.001Z</time>
      </trkpt>
      <trkpt lat="47.90521" lon="5.76356">
        <ele>280.415</ele>
        <time>2019-09-25T08:34:32.001Z</time>
      </trkpt>
      <trkpt lat="47.9053" lon="5.76386">
        <ele>280.06</ele>
        <time>2019-09-25T08:34:35.001Z</time>
      </trkpt>
      <trkpt lat="47.90536" lon="5.76417">
        <ele>279.891</ele>
        <time>2019-09-25T08:34:38.001Z</time>
      </trkpt>
      <trkpt lat="47.90538" lon="5.76446">
        <ele>280.118</ele>
        <time>2019-09-25T08:34:41.001Z</time>
      </trkpt>
      <trkpt lat="47.90537" lon="5.76473">
        <ele>280.73</ele>
        <time>2019-09-25T08:34:44.001Z</time>
      </trkpt>
      <trkpt lat="47.90535" lon="5.76499">
        <ele>280.988</ele>
        <time>2019-09-25T08:34:47.001Z</time>
      </trkpt>
      <trkpt lat="47.90533" lon="5.76525">
        <ele>281.213</ele>
        <time>2019-09-25T08:34:50.001Z</time>
      </trkpt>
      <trkpt lat="47.90531" lon="5.76551">
        <ele>281.367</ele>
        <time>2019-09-25T08:34:53.001Z</time>
      </trkpt>
      <trkpt lat="47.90528" lon="5.76575">
        <ele>281.321</ele>
        <time>2019-09-25T08:34:56.001Z</time>
      </trkpt>
      <trkpt lat="47.90523" lon="5.766">
        <ele>281.883</ele>
        <time>2019-09-25T08:34:59.001Z</time>
      </trkpt>
      <trkpt lat="47.90516" lon="5.76621">
        <ele>281.727</ele>
        <time>2019-09-25T10:35:02Z</time>
      </trkpt>
      <trkpt lat="47.90506" lon="5.7664">
        <ele>281.576</ele>
        <time>2019-09-25T08:35:05.001Z</time>
      </trkpt>
      <trkpt lat="47.90496" lon="5.76657">
        <ele>281.801</ele>
        <time>2019-09-25T08:35:08.001Z</time>
      </trkpt>
      <trkpt lat="47.90485" lon="5.76675">
        <ele>282.41</ele>
        <time>2019-09-25T08:35:11.001Z</time>
      </trkpt>
      <trkpt lat="47.90473" lon="5.76694">
        <ele>282.354</ele>
        <time>2019-09-25T08:35:14.001Z</time>
      </trkpt>
      <trkpt lat="47.90462" lon="5.76713">
        <ele>282.365</ele>
        <time>2019-09-25T08:35:17.001Z</time>
      </trkpt>
      <trkpt lat="47.90451" lon="5.76732">
        <ele>282.428</ele>
        <time>2019-09-25T08:35:20.001Z</time>
      </trkpt>
      <trkpt lat="47.9044" lon="5.76749">
        <ele>282.42</ele>
        <time>2019-09-25T08:35:23.001Z</time>
      </trkpt>
      <trkpt lat="47.90427" lon="5.76767">
        <ele>282.339</ele>
        <time>2019-09-25T08:35:26.001Z</time>
      </trkpt>
      <trkpt lat="47.90414" lon="5.76786">
        <ele>281.978</ele>
        <time>2019-09-25T08:35:29.001Z</time>
      </trkpt>
      <trkpt lat="47.90401" lon="5.76806">
        <ele>280.817</ele>
        <time>2019-09-25T08:35:32.001Z</time>
      </trkpt>
      <trkpt lat="47.9039" lon="5.76825">
        <ele>280.04</ele>
        <time>2019-09-25T08:35:35.001Z</time>
      </trkpt>
      <trkpt lat="47.90379" lon="5.76845">
        <ele>279.614</ele>
        <time>2019-09-25T08:35:38.001Z</time>
      </trkpt>
      <trkpt lat="47.90368" lon="5.76866">
        <ele>278.946</ele>
        <time>2019-09-25T08:35:41.001Z</time>
      </trkpt>
      <trkpt lat="47.90356" lon="5.76886">
        <ele>278.314</ele>
        <time>2019-09-25T08:35:44.001Z</time>
      </trkpt>
      <trkpt lat="47.90344" lon="5.76908">
        <ele>278.267</ele>
        <time>2019-09-25T08:35:47.001Z</time>
      </trkpt>
      <trkpt lat="47.90331" lon="5.7693">
        <ele>278.238</ele>
        <time>2019-09-25T08:35:50.001Z</time>
      </trkpt>
      <trkpt lat="47.9032" lon="5.76952">
        <ele>277.571</ele>
        <time>2019-09-25T08:35:53.001Z</time>
      </trkpt>
      <trkpt lat="47.90307" lon="5.76974">
        <ele>277.38</ele>
        <time>2019-09-25T08:35:56.001Z</time>
      </trkpt>
      <trkpt lat="47.90295" lon="5.76995">
        <ele>277.304</ele>
        <time>2019-09-25T08:35:59.001Z</time>
      </trkpt>
      <trkpt lat="47.90282" lon="5.77017">
        <ele>277.015</ele>
        <time>2019-09-25T10:36:02Z</time>
      </trkpt>
      <trkpt lat="47.9027" lon="5.7704">
        <ele>276.298</ele>
        <time>2019-09-25T08:36:05.001Z</time>
      </trkpt>
      <trkpt lat="47.90258" lon="5.77063">
        <ele>275.518</ele>
        <time>2019-09-25T08:36:08.001Z</time>
      </trkpt>
      <trkpt lat="47.90245" lon="5.77086">
        <ele>274.92</ele>
        <time>2019-09-25T08:36:11.001Z</time>
      </trkpt>
      <trkpt lat="47.90229" lon="5.77109">
        <ele>274.018</ele>
        <time>2019-09-25T08:36:14.001Z</time>
      </trkpt>
      <trkpt lat="47.90212" lon="5.77129">
        <ele>273.623</ele>
        <time>2019-09-25T08:36:17.001Z</time>
      </trkpt>
      <trkpt lat="47.90196" lon="5.77149">
        <ele>273.788</ele>
        <time>2019-09-25T08:36:20.001Z</time>
      </trkpt>
      <trkpt lat="47.90181" lon="5.77167">
        <ele>274.16</ele>
        <time>2019-09-25T08:36:23.001Z</time>
      </trkpt>
      <trkpt lat="47.90165" lon="5.77183">
        <ele>274.905</ele>
        <time>2019-09-25T08:36:26.001Z</time>
      </trkpt>
      <trkpt lat="47.9015" lon="5.77198">
        <ele>275.491</ele>
        <time>2019-09-25T08:36:29.001Z</time>
      </trkpt>
      <trkpt lat="47.90134" lon="5.77213">
        <ele>275.832</ele>
        <time>2019-09-25T08:36:32.001Z</time>
      </trkpt>
      <trkpt lat="47.9012" lon="5.77225">
        <ele>275.895</ele>
        <time>2019-09-25T08:36:35.001Z</time>
      </trkpt>
      <trkpt lat="47.90105" lon="5.77236">
        <ele>275.531</ele>
        <time>2019-09-25T08:36:38.001Z</time>
      </trkpt>
      <trkpt lat="47.9009" lon="5.77246">
        <ele>274.933</ele>
        <time>2019-09-25T08:36:41.001Z</time>
      </trkpt>
      <trkpt lat="47.90074" lon="5.77255">
        <ele>274.488</ele>
        <time>2019-09-25T08:36:44.001Z</time>
      </trkpt>
      <trkpt lat="47.90059" lon="5.77263">
        <ele>274.512</ele>
        <time>2019-09-25T08:36:47.001Z</time>
      </trkpt>
      <trkpt lat="47.90041" lon="5.77273">
        <ele>274.08</ele>
        <time>2019-09-25T08:36:50.001Z</time>
      </trkpt>
      <trkpt lat="47.90024" lon="5.77281">
        <ele>273.862</ele>
        <time>2019-09-25T08:36:53.001Z</time>
      </trkpt>
      <trkpt lat="47.90007" lon="5.77289">
        <ele>273.169</ele>
        <time>2019-09-25T08:36:56.001Z</time>
      </trkpt>
      <trkpt lat="47.8999" lon="5.77298">
        <ele>272.769</ele>
        <time>2019-09-25T08:36:59.001Z</time>
      </trkpt>
      <trkpt lat="47.89972" lon="5.77308">
        <ele>273.336</ele>
        <time>2019-09-25T10:37:02Z</time>
      </trkpt>
      <trkpt lat="47.89954" lon="5.7732">
        <ele>274.394</ele>
        <time>2019-09-25T08:37:05.001Z</time>
      </trkpt>
      <trkpt lat="47.89936" lon="5.77332">
        <ele>274.951</ele>
        <time>2019-09-25T08:37:08.001Z</time>
      </trkpt>
      <trkpt lat="47.89919" lon="5.77346">
        <ele>275.225</ele>
        <time>2019-09-25T08:37:11.001Z</time>
      </trkpt>
      <trkpt lat="47.89902" lon="5.77359">
        <ele>275.147</ele>
        <time>2019-09-25T08:37:14.001Z</time>
      </trkpt>
      <trkpt lat="47.89887" lon="5.7737">
        <ele>275.42</ele>
        <time>2019-09-25T08:37:17.001Z</time>
      </trkpt>
      <trkpt lat="47.89871" lon="5.77381">
        <ele>275.524</ele>
        <time>2019-09-25T08:37:20.001Z</time>
      </trkpt>
      <trkpt lat="47.89855" lon="5.77392">
        <ele>275.397</ele>
        <time>2019-09-25T08:37:23.001Z</time>
      </trkpt>
      <trkpt lat="47.89839" lon="5.77402">
        <ele>275.471</ele>
        <time>2019-09-25T08:37:26.001Z</time>
      </trkpt>
      <trkpt lat="47.89824" lon="5.77413">
        <ele>275.539</ele>
        <time>2019-09-25T08:37:29.001Z</time>
      </trkpt>
      <trkpt lat="47.89806" lon="5.77423">
        <ele>275.756</ele>
        <time>2019-09-25T08:37:32.001Z</time>
      </trkpt>
      <trkpt lat="47.89788" lon="5.77434">
        <ele>276.272</ele>
        <time>2019-09-25T08:37:35.001Z</time>
      </trkpt>
      <trkpt lat="47.8977" lon="5.77445">
        <ele>276.479</ele>
        <time>2019-09-25T08:37:38.001Z</time>
      </trkpt>
      <trkpt lat="47.89752" lon="5.77455">
        <ele>276.811</ele>
        <time>2019-09-25T08:37:41.001Z</time>
      </trkpt>
      <trkpt lat="47.89736" lon="5.77467">
        <ele>277.101</ele>
        <time>2019-09-25T08:37:44.001Z</time>
      </trkpt>
      <trkpt lat="47.8972" lon="5.77479">
        <ele>276.913</ele>
        <time>2019-09-25T08:37:47.001Z</time>
      </trkpt>
      <trkpt lat="47.89705" lon="5.77494">
        <ele>276.548</ele>
        <time>2019-09-25T08:37:50.001Z</time>
      </trkpt>
      <trkpt lat="47.8969" lon="5.77509">
        <ele>277.125</ele>
        <time>2019-09-25T08:37:53.001Z</time>
      </trkpt>
      <trkpt lat="47.89674" lon="5.77526">
        <ele>277.587</ele>
        <time>2019-09-25T08:37:56.001Z</time>
      </trkpt>
      <trkpt lat="47.89659" lon="5.77545">
        <ele>277.992</ele>
        <time>2019-09-25T08:37:59.001Z</time>
      </trkpt>
      <trkpt lat="47.89644" lon="5.77565">
        <ele>277.381</ele>
        <time>2019-09-25T10:38:02Z</time>
      </trkpt>
      <trkpt lat="47.89631" lon="5.77585">
        <ele>276.33</ele>
        <time>2019-09-25T08:38:05.001Z</time>
      </trkpt>
      <trkpt lat="47.89617" lon="5.77607">
        <ele>275.532</ele>
        <time>2019-09-25T08:38:08.001Z</time>
      </trkpt>
      <trkpt lat="47.89603" lon="5.77627">
        <ele>275.364</ele>
        <time>2019-09-25T08:38:11.001Z</time>
      </trkpt>
      <trkpt lat="47.89591" lon="5.77646">
        <ele>275.388</ele>
        <time>2019-09-25T08:38:14.001Z</time>
      </trkpt>
      <trkpt lat="47.89575" lon="5.77665">
        <ele>274.584</ele>
        <time>2019-09-25T08:38:17.001Z</time>
      </trkpt>
      <trkpt lat="47.89559" lon="5.77685">
        <ele>275.148</ele>
        <time>2019-09-25T08:38:20.001Z</time>
      </trkpt>
      <trkpt lat="47.89543" lon="5.77702">
        <ele>276.053</ele>
        <time>2019-09-25T08:38:23.001Z</time>
      </trkpt>
      <trkpt lat="47.89527" lon="5.77718">
        <ele>276.644</ele>
        <time>2019-09-25T08:38:26.001Z</time>
      </trkpt>
      <trkpt lat="47.8951" lon="5.77734">
        <ele>276.277</ele>
        <time>2019-09-25T08:38:29.001Z</time>
      </trkpt>
      <trkpt lat="47.89496" lon="5.77748">
        <ele>276.41</ele>
        <time>2019-09-25T08:38:32.001Z</time>
      </trkpt>
      <trkpt lat="47.89483" lon="5.7776">
        <ele>275.333</ele>
        <time>2019-09-25T08:38:35.001Z</time>
      </trkpt>
      <trkpt lat="47.8947" lon="5.77772">
        <ele>273.29</ele>
        <time>2019-09-25T08:38:38.001Z</time>
      </trkpt>
      <trkpt lat="47.89457" lon="5.77781">
        <ele>271.739</ele>
        <time>2019-09-25T08:38:41.001Z</time>
      </trkpt>
      <trkpt lat="47.89445" lon="5.7779">
        <ele>271.311</ele>
        <time>2019-09-25T08:38:44.001Z</time>
      </trkpt>
      <trkpt lat="47.89431" lon="5.77799">
        <ele>270.549</ele>
        <time>2019-09-25T08:38:47.001Z</time>
      </trkpt>
      <trkpt lat="47.89417" lon="5.7781">
        <ele>270.325</ele>
        <time>2019-09-25T08:38:50.001Z</time>
      </trkpt>
      <trkpt lat="47.89404" lon="5.7782">
        <ele>269.788</ele>
        <time>2019-09-25T08:38:53.001Z</time>
      </trkpt>
      <trkpt lat="47.89392" lon="5.7783">
        <ele>268.919</ele>
        <time>2019-09-25T08:38:56.001Z</time>
      </trkpt>
      <trkpt lat="47.89379" lon="5.7784">
        <ele>268.314</ele>
        <time>2019-09-25T08:38:59.001Z</time>
      </trkpt>
      <trkpt lat="47.89366" lon="5.77849">
        <ele>267.911</ele>
        <time>2019-09-25T10:39:02Z</time>
      </trkpt>
      <trkpt lat="47.89352" lon="5.77861">
        <ele>267.812</ele>
        <time>2019-09-25T08:39:05.001Z</time>
      </trkpt>
      <trkpt lat="47.89337" lon="5.77873">
        <ele>268.008</ele>
        <time>2019-09-25T08:39:08.001Z</time>
      </trkpt>
      <trkpt lat="47.89322" lon="5.77885">
        <ele>268.403</ele>
        <time>2019-09-25T08:39:11.001Z</time>
      </trkpt>
      <trkpt lat="47.89307" lon="5.77899">
        <ele>268.957</ele>
        <time>2019-09-25T08:39:14.001Z</time>
      </trkpt>
      <trkpt lat="47.89293" lon="5.77914">
        <ele>269.484</ele>
        <time>2019-09-25T08:39:17.001Z</time>
      </trkpt>
      <trkpt lat="47.8928" lon="5.77929">
        <ele>268.634</ele>
        <time>2019-09-25T08:39:20.001Z</time>
      </trkpt>
      <trkpt lat="47.89263" lon="5.77944">
        <ele>267.774</ele>
        <time>2019-09-25T08:39:23.001Z</time>
      </trkpt>
      <trkpt lat="47.89246" lon="5.77958">
        <ele>267.194</ele>
        <time>2019-09-25T08:39:26.001Z</time>
      </trkpt>
      <trkpt lat="47.89227" lon="5.77972">
        <ele>265.684</ele>
        <time>2019-09-25T08:39:29.001Z</time>
      </trkpt>
      <trkpt lat="47.89208" lon="5.77984">
        <ele>264.247</ele>
        <time>2019-09-25T08:39:32.001Z</time>
      </trkpt>
      <trkpt lat="47.8919" lon="5.77995">
        <ele>262.778</ele>
        <time>2019-09-25T08:39:35.001Z</time>
      </trkpt>
      <trkpt lat="47.89173" lon="5.78004">
        <ele>262.722</ele>
        <time>2019-09-25T08:39:38.001Z</time>
      </trkpt>
      <trkpt lat="47.89156" lon="5.78014">
        <ele>263.038</ele>
        <time>2019-09-25T08:39:41.001Z</time>
      </trkpt>
      <trkpt lat="47.8914" lon="5.78022">
        <ele>263.012</ele>
        <time>2019-09-25T08:39:44.001Z</time>
      </trkpt>
      <trkpt lat="47.89125" lon="5.7803">
        <ele>262.353</ele>
        <time>2019-09-25T08:39:47.001Z</time>
      </trkpt>
      <trkpt lat="47.89109" lon="5.78037">
        <ele>262.018</ele>
        <time>2019-09-25T08:39:50.001Z</time>
      </trkpt>
      <trkpt lat="47.89092" lon="5.78045">
        <ele>261.45</ele>
        <time>2019-09-25T08:39:53.001Z</time>
      </trkpt>
      <trkpt lat="47.89076" lon="5.78054">
        <ele>261.593</ele>
        <time>2019-09-25T08:39:56.001Z</time>
      </trkpt>
      <trkpt lat="47.8906" lon="5.78061">
        <ele>261.104</ele>
        <time>2019-09-25T08:39:59.001Z</time>
      </trkpt>
      <trkpt lat="47.89042" lon="5.78069">
        <ele>260.698</ele>
        <time>2019-09-25T10:40:02Z</time>
      </trkpt>
      <trkpt lat="47.89024" lon="5.7808">
        <ele>261.344</ele>
        <time>2019-09-25T08:40:05.001Z</time>
      </trkpt>
      <trkpt lat="47.89008" lon="5.78091">
        <ele>261.833</ele>
        <time>2019-09-25T08:40:08.001Z</time>
      </trkpt>
      <trkpt lat="47.88992" lon="5.78101">
        <ele>262.73</ele>
        <time>2019-09-25T08:40:11.001Z</time>
      </trkpt>
      <trkpt lat="47.88977" lon="5.78111">
        <ele>264.225</ele>
        <time>2019-09-25T08:40:14.001Z</time>
      </trkpt>
      <trkpt lat="47.88963" lon="5.7812">
        <ele>264.821</ele>
        <time>2019-09-25T08:40:17.001Z</time>
      </trkpt>
      <trkpt lat="47.88947" lon="5.78129">
        <ele>265.061</ele>
        <time>2019-09-25T08:40:20.001Z</time>
      </trkpt>
      <trkpt lat="47.88928" lon="5.78139">
        <ele>264.946</ele>
        <time>2019-09-25T08:40:23.001Z</time>
      </trkpt>
      <trkpt lat="47.88911" lon="5.7815">
        <ele>264.634</ele>
        <time>2019-09-25T08:40:26.001Z</time>
      </trkpt>
      <trkpt lat="47.88896" lon="5.7816">
        <ele>264.234</ele>
        <time>2019-09-25T08:40:29.001Z</time>
      </trkpt>
      <trkpt lat="47.88881" lon="5.78168">
        <ele>263.844</ele>
        <time>2019-09-25T08:40:32.001Z</time>
      </trkpt>
      <trkpt lat="47.88864" lon="5.78178">
        <ele>263.551</ele>
        <time>2019-09-25T08:40:35.001Z</time>
      </trkpt>
      <trkpt lat="47.88846" lon="5.78189">
        <ele>263.706</ele>
        <time>2019-09-25T08:40:38.001Z</time>
      </trkpt>
      <trkpt lat="47.88829" lon="5.78199">
        <ele>263.361</ele>
        <time>2019-09-25T08:40:41.001Z</time>
      </trkpt>
      <trkpt lat="47.88813" lon="5.78209">
        <ele>262.171</ele>
        <time>2019-09-25T08:40:44.001Z</time>
      </trkpt>
      <trkpt lat="47.88798" lon="5.78217">
        <ele>260.944</ele>
        <time>2019-09-25T08:40:47.001Z</time>
      </trkpt>
      <trkpt lat="47.88782" lon="5.78223">
        <ele>259.571</ele>
        <time>2019-09-25T08:40:50.001Z</time>
      </trkpt>
      <trkpt lat="47.88764" lon="5.78226">
        <ele>258.68</ele>
        <time>2019-09-25T08:40:53.001Z</time>
      </trkpt>
      <trkpt lat="47.88745" lon="5.78228">
        <ele>258.176</ele>
        <time>2019-09-25T08:40:56.001Z</time>
      </trkpt>
      <trkpt lat="47.88727" lon="5.78228">
        <ele>257.595</ele>
        <time>2019-09-25T08:40:59.001Z</time>
      </trkpt>
      <trkpt lat="47.88708" lon="5.78229">
        <ele>257.074</ele>
        <time>2019-09-25T10:41:02Z</time>
      </trkpt>
      <trkpt lat="47.8869" lon="5.7823">
        <ele>257.578</ele>
        <time>2019-09-25T08:41:05.001Z</time>
      </trkpt>
      <trkpt lat="47.88672" lon="5.7823">
        <ele>257.61</ele>
        <time>2019-09-25T08:41:08.001Z</time>
      </trkpt>
      <trkpt lat="47.88655" lon="5.78231">
        <ele>257.009</ele>
        <time>2019-09-25T08:41:11.001Z</time>
      </trkpt>
      <trkpt lat="47.88639" lon="5.78232">
        <ele>256.623</ele>
        <time>2019-09-25T08:41:14.001Z</time>
      </trkpt>
      <trkpt lat="47.88623" lon="5.78234">
        <ele>257.209</ele>
        <time>2019-09-25T08:41:17.001Z</time>
      </trkpt>
      <trkpt lat="47.88606" lon="5.78234">
        <ele>257.776</ele>
        <time>2019-09-25T08:41:20.001Z</time>
      </trkpt>
      <trkpt lat="47.88589" lon="5.78234">
        <ele>257.355</ele>
        <time>2019-09-25T08:41:23.001Z</time>
      </trkpt>
      <trkpt lat="47.88572" lon="5.78233">
        <ele>256.894</ele>
        <time>2019-09-25T08:41:26.001Z</time>
      </trkpt>
      <trkpt lat="47.88557" lon="5.78235">
        <ele>256.449</ele>
        <time>2019-09-25T08:41:29.001Z</time>
      </trkpt>
      <trkpt lat="47.88541" lon="5.78239">
        <ele>254.162</ele>
        <time>2019-09-25T08:41:32.001Z</time>
      </trkpt>
      <trkpt lat="47.88525" lon="5.78244">
        <ele>253.704</ele>
        <time>2019-09-25T08:41:35.001Z</time>
      </trkpt>
      <trkpt lat="47.88512" lon="5.78252">
        <ele>254.426</ele>
        <time>2019-09-25T08:41:38.001Z</time>
      </trkpt>
      <trkpt lat="47.88497" lon="5.78257">
        <ele>254.445</ele>
        <time>2019-09-25T08:41:41.001Z</time>
      </trkpt>
      <trkpt lat="47.88477" lon="5.78261">
        <ele>254.827</ele>
        <time>2019-09-25T08:41:44.001Z</time>
      </trkpt>
      <trkpt lat="47.88457" lon="5.78268">
        <ele>254.959</ele>
        <time>2019-09-25T08:41:47.001Z</time>
      </trkpt>
      <trkpt lat="47.88436" lon="5.78275">
        <ele>254.342</ele>
        <time>2019-09-25T08:41:50.001Z</time>
      </trkpt>
      <trkpt lat="47.88415" lon="5.78283">
        <ele>254.139</ele>
        <time>2019-09-25T08:41:53.001Z</time>
      </trkpt>
      <trkpt lat="47.88393" lon="5.78286">
        <ele>253.312</ele>
        <time>2019-09-25T08:41:56.001Z</time>
      </trkpt>
      <trkpt lat="47.88367" lon="5.78287">
        <ele>253.099</ele>
        <time>2019-09-25T08:41:59.001Z</time>
      </trkpt>
      <trkpt lat="47.88345" lon="5.78297">
        <ele>253.249</ele>
        <time>2019-09-25T10:42:02Z</time>
      </trkpt>
      <trkpt lat="47.88324" lon="5.78307">
        <ele>253.958</ele>
        <time>2019-09-25T08:42:05.001Z</time>
      </trkpt>
      <trkpt lat="47.88303" lon="5.78317">
        <ele>255.059</ele>
        <time>2019-09-25T08:42:08.001Z</time>
      </trkpt>
      <trkpt lat="47.88284" lon="5.78322">
        <ele>255.308</ele>
        <time>2019-09-25T08:42:11.001Z</time>
      </trkpt>
      <trkpt lat="47.88266" lon="5.78327">
        <ele>256.045</ele>
        <time>2019-09-25T08:42:14.001Z</time>
      </trkpt>
      <trkpt lat="47.88248" lon="5.78329">
        <ele>255.637</ele>
        <time>2019-09-25T08:42:17.001Z</time>
      </trkpt>
      <trkpt lat="47.88233" lon="5.78332">
        <ele>255.136</ele>
        <time>2019-09-25T08:42:20.001Z</time>
      </trkpt>
      <trkpt lat="47.88219" lon="5.78342">
        <ele>254.562</ele>
        <time>2019-09-25T08:42:23.001Z</time>
      </trkpt>
      <trkpt lat="47.88206" lon="5.78357">
        <ele>253.896</ele>
        <time>2019-09-25T08:42:26.001Z</time>
      </trkpt>
      <trkpt lat="47.88196" lon="5.78376">
        <ele>252.482</ele>
        <time>2019-09-25T08:42:29.001Z</time>
      </trkpt>
      <trkpt lat="47.88186" lon="5.78393">
        <ele>251.829</ele>
        <time>2019-09-25T08:42:32.001Z</time>
      </trkpt>
      <trkpt lat="47.88175" lon="5.78409">
        <ele>251.889</ele>
        <time>2019-09-25T08:42:35.001Z</time>
      </trkpt>
      <trkpt lat="47.88164" lon="5.7842">
        <ele>251.876</ele>
        <time>2019-09-25T08:42:38.001Z</time>
      </trkpt>
      <trkpt lat="47.88154" lon="5.78429">
        <ele>252.3</ele>
        <time>2019-09-25T08:42:41.001Z</time>
      </trkpt>
      <trkpt lat="47.88144" lon="5.78438">
        <ele>253.917</ele>
        <time>2019-09-25T08:42:44.001Z</time>
      </trkpt>
      <trkpt lat="47.88134" lon="5.78446">
        <ele>254.466</ele>
        <time>2019-09-25T08:42:47.001Z</time>
      </trkpt>
      <trkpt lat="47.88124" lon="5.78454">
        <ele>253.339</ele>
        <time>2019-09-25T08:42:50.001Z</time>
      </trkpt>
      <trkpt lat="47.88116" lon="5.78461">
        <ele>253.205</ele>
        <time>2019-09-25T08:42:53.001Z</time>
      </trkpt>
      <trkpt lat="47.88108" lon="5.7847">
        <ele>253.256</ele>
        <time>2019-09-25T08:42:56.001Z</time>
      </trkpt>
      <trkpt lat="47.881" lon="5.78479">
        <ele>253.456</ele>
        <time>2019-09-25T08:42:59.001Z</time>
      </trkpt>
      <trkpt lat="47.88093" lon="5.78489">
        <ele>253.401</ele>
        <time>2019-09-25T10:43:02Z</time>
      </trkpt>
      <trkpt lat="47.88083" lon="5.78498">
        <ele>252.876</ele>
        <time>2019-09-25T08:43:05.001Z</time>
      </trkpt>
      <trkpt lat="47.88074" lon="5.78507">
        <ele>252.984</ele>
        <time>2019-09-25T08:43:08.001Z</time>
      </trkpt>
      <trkpt lat="47.88066" lon="5.78516">
        <ele>252.373</ele>
        <time>2019-09-25T08:43:11.001Z</time>
      </trkpt>
      <trkpt lat="47.88059" lon="5.78524">
        <ele>252.619</ele>
        <time>2019-09-25T08:43:14.001Z</time>
      </trkpt>
      <trkpt lat="47.88054" lon="5.78533">
        <ele>252.955</ele>
        <time>2019-09-25T08:43:17.001Z</time>
      </trkpt>
      <trkpt lat="47.88049" lon="5.78543">
        <ele>252.791</ele>
        <time>2019-09-25T08:43:20.001Z</time>
      </trkpt>
      <trkpt lat="47.88041" lon="5.78552">
        <ele>251.799</ele>
        <time>2019-09-25T08:43:23.001Z</time>
      </trkpt>
      <trkpt lat="47.88034" lon="5.78561">
        <ele>251.252</ele>
        <time>2019-09-25T08:43:26.001Z</time>
      </trkpt>
      <trkpt lat="47.88027" lon="5.78572">
        <ele>251.268</ele>
        <time>2019-09-25T08:43:29.001Z</time>
      </trkpt>
      <trkpt lat="47.88021" lon="5.78582">
        <ele>251.488</ele>
        <time>2019-09-25T08:43:32.001Z</time>
      </trkpt>
      <trkpt lat="47.88014" lon="5.78593">
        <ele>252.11</ele>
        <time>2019-09-25T08:43:35.001Z</time>
      </trkpt>
      <trkpt lat="47.88006" lon="5.78607">
        <ele>252.111</ele>
        <time>2019-09-25T08:43:38.001Z</time>
      </trkpt>
      <trkpt lat="47.87998" lon="5.78619">
        <ele>252.128</ele>
        <time>2019-09-25T08:43:41.001Z</time>
      </trkpt>
      <trkpt lat="47.8799" lon="5.7863">
        <ele>252.12</ele>
        <time>2019-09-25T08:43:44.001Z</time>
      </trkpt>
      <trkpt lat="47.87982" lon="5.78643">
        <ele>251.947</ele>
        <time>2019-09-25T08:43:47.001Z</time>
      </trkpt>
      <trkpt lat="47.87975" lon="5.78656">
        <ele>251.261</ele>
        <time>2019-09-25T08:43:50.001Z</time>
      </trkpt>
      <trkpt lat="47.87968" lon="5.78668">
        <ele>251.265</ele>
        <time>2019-09-25T08:43:53.001Z</time>
      </trkpt>
      <trkpt lat="47.87962" lon="5.7868">
        <ele>251.255</ele>
        <time>2019-09-25T08:43:56.001Z</time>
      </trkpt>
      <trkpt lat="47.87957" lon="5.78691">
        <ele>251.56</ele>
        <time>2019-09-25T08:43:59.001Z</time>
      </trkpt>
      <trkpt lat="47.87951" lon="5.78702">
        <ele>251.575</ele>
        <time>2019-09-25T10:44:02Z</time>
      </trkpt>
      <trkpt lat="47.87945" lon="5.78712">
        <ele>251.204</ele>
        <time>2019-09-25T08:44:05.001Z</time>
      </trkpt>
      <trkpt lat="47.87937" lon="5.78722">
        <ele>250.652</ele>
        <time>2019-09-25T08:44:08.001Z</time>
      </trkpt>
      <trkpt lat="47.8793" lon="5.7873">
        <ele>250.48</ele>
        <time>2019-09-25T08:44:11.001Z</time>
      </trkpt>
      <trkpt lat="47.87925" lon="5.78738">
        <ele>250.424</ele>
        <time>2019-09-25T08:44:14.001Z</time>
      </trkpt>
      <trkpt lat="47.8792" lon="5.78745">
        <ele>250.302</ele>
        <time>2019-09-25T08:44:17.001Z</time>
      </trkpt>
      <trkpt lat="47.87916" lon="5.78753">
        <ele>249.719</ele>
        <time>2019-09-25T08:44:20.001Z</time>
      </trkpt>
      <trkpt lat="47.8791" lon="5.78761">
        <ele>249.835</ele>
        <time>2019-09-25T08:44:23.001Z</time>
      </trkpt>
      <trkpt lat="47.87903" lon="5.78768">
        <ele>249.954</ele>
        <time>2019-09-25T08:44:26.001Z</time>
      </trkpt>
      <trkpt lat="47.87898" lon="5.78775">
        <ele>249.669</ele>
        <time>2019-09-25T08:44:29.001Z</time>
      </trkpt>
      <trkpt lat="47.87894" lon="5.78782">
        <ele>249.903</ele>
        <time>2019-09-25T08:44:32.001Z</time>
      </trkpt>
      <trkpt lat="47.87889" lon="5.7879">
        <ele>250.867</ele>
        <time>2019-09-25T08:44:35.001Z</time>
      </trkpt>
      <trkpt lat="47.87884" lon="5.78796">
        <ele>252.135</ele>
        <time>2019-09-25T08:44:38.001Z</time>
      </trkpt>
      <trkpt lat="47.87878" lon="5.78804">
        <ele>253.533</ele>
        <time>2019-09-25T08:44:41.001Z</time>
      </trkpt>
      <trkpt lat="47.87873" lon="5.78811">
        <ele>254.891</ele>
        <time>2019-09-25T08:44:44.001Z</time>
      </trkpt>
      <trkpt lat="47.87869" lon="5.78818">
        <ele>256.569</ele>
        <time>2019-09-25T08:44:47.001Z</time>
      </trkpt>
      <trkpt lat="47.87865" lon="5.78824">
        <ele>258.262</ele>
        <time>2019-09-25T08:44:50.001Z</time>
      </trkpt>
      <trkpt lat="47.87858" lon="5.78831">
        <ele>259.414</ele>
        <time>2019-09-25T08:44:53.001Z</time>
      </trkpt>
      <trkpt lat="47.87852" lon="5.78838">
        <ele>260.499</ele>
        <time>2019-09-25T08:44:56.001Z</time>
      </trkpt>
      <trkpt lat="47.87845" lon="5.78845">
        <ele>261.62</ele>
        <time>2019-09-25T08:44:59.001Z</time>
      </trkpt>
      <trkpt lat="47.87838" lon="5.78853">
        <ele>262.851</ele>
        <time>2019-09-25T10:45:02Z</time>
      </trkpt>
      <trkpt lat="47.87831" lon="5.78861">
        <ele>263.767</ele>
        <time>2019-09-25T08:45:05.001Z</time>
      </trkpt>
      <trkpt lat="47.87822" lon="5.78872">
        <ele>264.663</ele>
        <time>2019-09-25T08:45:08.001Z</time>
      </trkpt>
      <trkpt lat="47.87814" lon="5.78887">
        <ele>264.592</ele>
        <time>2019-09-25T08:45:11.001Z</time>
      </trkpt>
      <trkpt lat="47.87804" lon="5.78904">
        <ele>264.775</ele>
        <time>2019-09-25T08:45:14.001Z</time>
      </trkpt>
      <trkpt lat="47.87794" lon="5.78924">
        <ele>264.444</ele>
        <time>2019-09-25T08:45:17.001Z</time>
      </trkpt>
      <trkpt lat="47.87783" lon="5.78945">
        <ele>263.371</ele>
        <time>2019-09-25T08:45:20.001Z</time>
      </trkpt>
      <trkpt lat="47.87771" lon="5.78966">
        <ele>262.637</ele>
        <time>2019-09-25T08:45:23.001Z</time>
      </trkpt>
      <trkpt lat="47.87756" lon="5.78982">
        <ele>262.077</ele>
        <time>2019-09-25T08:45:26.001Z</time>
      </trkpt>
      <trkpt lat="47.8774" lon="5.78991">
        <ele>261.603</ele>
        <time>2019-09-25T08:45:29.001Z</time>
      </trkpt>
      <trkpt lat="47.87725" lon="5.78997">
        <ele>260.634</ele>
        <time>2019-09-25T08:45:32.001Z</time>
      </trkpt>
      <trkpt lat="47.87712" lon="5.79001">
        <ele>259.75</ele>
        <time>2019-09-25T08:45:35.001Z</time>
      </trkpt>
      <trkpt lat="47.877" lon="5.79006">
        <ele>259.236</ele>
        <time>2019-09-25T08:45:38.001Z</time>
      </trkpt>
      <trkpt lat="47.87687" lon="5.79013">
        <ele>258.393</ele>
        <time>2019-09-25T08:45:41.001Z</time>
      </trkpt>
      <trkpt lat="47.87676" lon="5.79021">
        <ele>257.721</ele>
        <time>2019-09-25T08:45:44.001Z</time>
      </trkpt>
      <trkpt lat="47.87666" lon="5.79032">
        <ele>257.725</ele>
        <time>2019-09-25T08:45:47.001Z</time>
      </trkpt>
      <trkpt lat="47.87657" lon="5.79047">
        <ele>257.61</ele>
        <time>2019-09-25T08:45:50.001Z</time>
      </trkpt>
      <trkpt lat="47.87646" lon="5.79062">
        <ele>257.136</ele>
        <time>2019-09-25T08:45:53.001Z</time>
      </trkpt>
      <trkpt lat="47.87634" lon="5.7908">
        <ele>257.175</ele>
        <time>2019-09-25T08:45:56.001Z</time>
      </trkpt>
      <trkpt lat="47.87619" lon="5.79098">
        <ele>256.447</ele>
        <time>2019-09-25T08:45:59.001Z</time>
      </trkpt>
      <trkpt lat="47.87604" lon="5.79118">
        <ele>256.036</ele>
        <time>2019-09-25T10:46:02Z</time>
      </trkpt>
      <trkpt lat="47.87589" lon="5.79137">
        <ele>255.659</ele>
        <time>2019-09-25T08:46:05.001Z</time>
      </trkpt>
      <trkpt lat="47.87575" lon="5.79157">
        <ele>255.696</ele>
        <time>2019-09-25T08:46:08.001Z</time>
      </trkpt>
      <trkpt lat="47.87561" lon="5.79175">
        <ele>255.235</ele>
        <time>2019-09-25T08:46:11.001Z</time>
      </trkpt>
      <trkpt lat="47.87547" lon="5.79193">
        <ele>254.715</ele>
        <time>2019-09-25T08:46:14.001Z</time>
      </trkpt>
      <trkpt lat="47.87534" lon="5.79211">
        <ele>254.579</ele>
        <time>2019-09-25T08:46:17.001Z</time>
      </trkpt>
      <trkpt lat="47.87521" lon="5.79228">
        <ele>254.239</ele>
        <time>2019-09-25T08:46:20.001Z</time>
      </trkpt>
      <trkpt lat="47.87509" lon="5.79245">
        <ele>253.787</ele>
        <time>2019-09-25T08:46:23.001Z</time>
      </trkpt>
      <trkpt lat="47.87496" lon="5.79263">
        <ele>253.558</ele>
        <time>2019-09-25T08:46:26.001Z</time>
      </trkpt>
      <trkpt lat="47.87483" lon="5.79281">
        <ele>253.314</ele>
        <time>2019-09-25T08:46:29.001Z</time>
      </trkpt>
      <trkpt lat="47.8747" lon="5.79299">
        <ele>253.227</ele>
        <time>2019-09-25T08:46:32.001Z</time>
      </trkpt>
      <trkpt lat="47.87457" lon="5.79316">
        <ele>253.61</ele>
        <time>2019-09-25T08:46:35.001Z</time>
      </trkpt>
      <trkpt lat="47.87444" lon="5.79333">
        <ele>253.94</ele>
        <time>2019-09-25T08:46:38.001Z</time>
      </trkpt>
      <trkpt lat="47.87432" lon="5.7935">
        <ele>253.774</ele>
        <time>2019-09-25T08:46:41.001Z</time>
      </trkpt>
      <trkpt lat="47.87421" lon="5.79369">
        <ele>253.443</ele>
        <time>2019-09-25T08:46:44.001Z</time>
      </trkpt>
      <trkpt lat="47.87409" lon="5.79388">
        <ele>253.384</ele>
        <time>2019-09-25T08:46:47.001Z</time>
      </trkpt>
      <trkpt lat="47.87395" lon="5.79409">
        <ele>253.331</ele>
        <time>2019-09-25T08:46:50.001Z</time>
      </trkpt>
      <trkpt lat="47.87378" lon="5.79429">
        <ele>253.164</ele>
        <time>2019-09-25T08:46:53.001Z</time>
      </trkpt>
      <trkpt lat="47.87358" lon="5.79446">
        <ele>253.05</ele>
        <time>2019-09-25T08:46:56.001Z</time>
      </trkpt>
      <trkpt lat="47.87335" lon="5.79458">
        <ele>252.548</ele>
        <time>2019-09-25T08:46:59.001Z</time>
      </trkpt>
      <trkpt lat="47.87312" lon="5.79469">
        <ele>251.448</ele>
        <time>2019-09-25T10:47:02Z</time>
      </trkpt>
      <trkpt lat="47.87289" lon="5.79481">
        <ele>249.678</ele>
        <time>2019-09-25T08:47:05.001Z</time>
      </trkpt>
      <trkpt lat="47.87267" lon="5.79493">
        <ele>247.853</ele>
        <time>2019-09-25T08:47:08.001Z</time>
      </trkpt>
      <trkpt lat="47.87245" lon="5.79507">
        <ele>246.283</ele>
        <time>2019-09-25T08:47:11.001Z</time>
      </trkpt>
      <trkpt lat="47.87226" lon="5.79525">
        <ele>245.06</ele>
        <time>2019-09-25T08:47:14.001Z</time>
      </trkpt>
      <trkpt lat="47.87211" lon="5.79547">
        <ele>244.38</ele>
        <time>2019-09-25T08:47:17.001Z</time>
      </trkpt>
      <trkpt lat="47.87194" lon="5.79567">
        <ele>243.509</ele>
        <time>2019-09-25T08:47:20.001Z</time>
      </trkpt>
      <trkpt lat="47.87178" lon="5.79587">
        <ele>242.361</ele>
        <time>2019-09-25T08:47:23.001Z</time>
      </trkpt>
      <trkpt lat="47.87162" lon="5.79607">
        <ele>241.308</ele>
        <time>2019-09-25T08:47:26.001Z</time>
      </trkpt>
      <trkpt lat="47.87148" lon="5.79628">
        <ele>240.644</ele>
        <time>2019-09-25T08:47:29.001Z</time>
      </trkpt>
      <trkpt lat="47.87136" lon="5.7965">
        <ele>240.219</ele>
        <time>2019-09-25T08:47:32.001Z</time>
      </trkpt>
      <trkpt lat="47.87125" lon="5.79675">
        <ele>239.662</ele>
        <time>2019-09-25T08:47:35.001Z</time>
      </trkpt>
      <trkpt lat="47.87119" lon="5.797">
        <ele>239.923</ele>
        <time>2019-09-25T08:47:38.001Z</time>
      </trkpt>
      <trkpt lat="47.87114" lon="5.79726">
        <ele>239.949</ele>
        <time>2019-09-25T08:47:41.001Z</time>
      </trkpt>
      <trkpt lat="47.87107" lon="5.79753">
        <ele>239.863</ele>
        <time>2019-09-25T08:47:44.001Z</time>
      </trkpt>
      <trkpt lat="47.87099" lon="5.79781">
        <ele>239.34</ele>
        <time>2019-09-25T08:47:47.001Z</time>
      </trkpt>
      <trkpt lat="47.87094" lon="5.7981">
        <ele>239.734</ele>
        <time>2019-09-25T08:47:50.001Z</time>
      </trkpt>
      <trkpt lat="47.87089" lon="5.79837">
        <ele>240.097</ele>
        <time>2019-09-25T08:47:53.001Z</time>
      </trkpt>
      <trkpt lat="47.87085" lon="5.79863">
        <ele>240.56</ele>
        <time>2019-09-25T08:47:56.001Z</time>
      </trkpt>
      <trkpt lat="47.87083" lon="5.79888">
        <ele>239.515</ele>
        <time>2019-09-25T08:47:59.001Z</time>
      </trkpt>
      <trkpt lat="47.87084" lon="5.79913">
        <ele>238.278</ele>
        <time>2019-09-25T10:48:02Z</time>
      </trkpt>
      <trkpt lat="47.87086" lon="5.79936">
        <ele>237.364</ele>
        <time>2019-09-25T08:48:05.001Z</time>
      </trkpt>
      <trkpt lat="47.87085" lon="5.79961">
        <ele>236.759</ele>
        <time>2019-09-25T08:48:08.001Z</time>
      </trkpt>
      <trkpt lat="47.87082" lon="5.79986">
        <ele>236.775</ele>
        <time>2019-09-25T08:48:11.001Z</time>
      </trkpt>
      <trkpt lat="47.87079" lon="5.80012">
        <ele>236.597</ele>
        <time>2019-09-25T08:48:14.001Z</time>
      </trkpt>
      <trkpt lat="47.87075" lon="5.80037">
        <ele>236.665</ele>
        <time>2019-09-25T08:48:17.001Z</time>
      </trkpt>
      <trkpt lat="47.8707" lon="5.80062">
        <ele>236.239</ele>
        <time>2019-09-25T08:48:20.001Z</time>
      </trkpt>
      <trkpt lat="47.87064" lon="5.80086">
        <ele>235.401</ele>
        <time>2019-09-25T08:48:23.001Z</time>
      </trkpt>
      <trkpt lat="47.87058" lon="5.8011">
        <ele>235.012</ele>
        <time>2019-09-25T08:48:26.001Z</time>
      </trkpt>
      <trkpt lat="47.87048" lon="5.80133">
        <ele>235.251</ele>
        <time>2019-09-25T08:48:29.001Z</time>
      </trkpt>
      <trkpt lat="47.8704" lon="5.80154">
        <ele>234.786</ele>
        <time>2019-09-25T08:48:32.001Z</time>
      </trkpt>
      <trkpt lat="47.87029" lon="5.80174">
        <ele>234.015</ele>
        <time>2019-09-25T08:48:35.001Z</time>
      </trkpt>
      <trkpt lat="47.87017" lon="5.80196">
        <ele>233.419</ele>
        <time>2019-09-25T08:48:38.001Z</time>
      </trkpt>
      <trkpt lat="47.87006" lon="5.80218">
        <ele>232.595</ele>
        <time>2019-09-25T08:48:41.001Z</time>
      </trkpt>
      <trkpt lat="47.86996" lon="5.80238">
        <ele>232.274</ele>
        <time>2019-09-25T08:48:44.001Z</time>
      </trkpt>
      <trkpt lat="47.86988" lon="5.80257">
        <ele>232.252</ele>
        <time>2019-09-25T08:48:47.001Z</time>
      </trkpt>
      <trkpt lat="47.8698" lon="5.80273">
        <ele>232.125</ele>
        <time>2019-09-25T08:48:50.001Z</time>
      </trkpt>
      <trkpt lat="47.8697" lon="5.80292">
        <ele>232.351</ele>
        <time>2019-09-25T08:48:53.001Z</time>
      </trkpt>
      <trkpt lat="47.86959" lon="5.8031">
        <ele>232.728</ele>
        <time>2019-09-25T08:48:56.001Z</time>
      </trkpt>
      <trkpt lat="47.86949" lon="5.80329">
        <ele>233.211</ele>
        <time>2019-09-25T08:48:59.001Z</time>
      </trkpt>
      <trkpt lat="47.86937" lon="5.80348">
        <ele>233.991</ele>
        <time>2019-09-25T10:49:02Z</time>
      </trkpt>
      <trkpt lat="47.86923" lon="5.8037">
        <ele>235.195</ele>
        <time>2019-09-25T08:49:05.001Z</time>
      </trkpt>
      <trkpt lat="47.86912" lon="5.80391">
        <ele>236.456</ele>
        <time>2019-09-25T08:49:08.001Z</time>
      </trkpt>
      <trkpt lat="47.86903" lon="5.80413">
        <ele>238.014</ele>
        <time>2019-09-25T08:49:11.001Z</time>
      </trkpt>
      <trkpt lat="47.86896" lon="5.80433">
        <ele>239.201</ele>
        <time>2019-09-25T08:49:14.001Z</time>
      </trkpt>
      <trkpt lat="47.86889" lon="5.80455">
        <ele>239.758</ele>
        <time>2019-09-25T08:49:17.001Z</time>
      </trkpt>
      <trkpt lat="47.8688" lon="5.80477">
        <ele>239.469</ele>
        <time>2019-09-25T08:49:20.001Z</time>
      </trkpt>
      <trkpt lat="47.8687" lon="5.805">
        <ele>239.057</ele>
        <time>2019-09-25T08:49:23.001Z</time>
      </trkpt>
      <trkpt lat="47.86853" lon="5.80521">
        <ele>237.449</ele>
        <time>2019-09-25T08:49:26.001Z</time>
      </trkpt>
      <trkpt lat="47.8683" lon="5.80536">
        <ele>235.294</ele>
        <time>2019-09-25T08:49:29.001Z</time>
      </trkpt>
      <trkpt lat="47.86808" lon="5.80539">
        <ele>233.557</ele>
        <time>2019-09-25T08:49:32.001Z</time>
      </trkpt>
      <trkpt lat="47.86789" lon="5.8054">
        <ele>232.608</ele>
        <time>2019-09-25T08:49:35.001Z</time>
      </trkpt>
      <trkpt lat="47.86773" lon="5.8054">
        <ele>231.964</ele>
        <time>2019-09-25T08:49:38.001Z</time>
      </trkpt>
      <trkpt lat="47.86759" lon="5.80544">
        <ele>231.752</ele>
        <time>2019-09-25T08:49:41.001Z</time>
      </trkpt>
      <trkpt lat="47.86747" lon="5.80547">
        <ele>232.349</ele>
        <time>2019-09-25T08:49:44.001Z</time>
      </trkpt>
      <trkpt lat="47.86734" lon="5.80553">
        <ele>233.534</ele>
        <time>2019-09-25T08:49:47.001Z</time>
      </trkpt>
      <trkpt lat="47.86722" lon="5.80557">
        <ele>234.146</ele>
        <time>2019-09-25T08:49:50.001Z</time>
      </trkpt>
      <trkpt lat="47.86708" lon="5.80562">
        <ele>234.311</ele>
        <time>2019-09-25T08:49:53.001Z</time>
      </trkpt>
      <trkpt lat="47.86691" lon="5.80569">
        <ele>234.558</ele>
        <time>2019-09-25T08:49:56.001Z</time>
      </trkpt>
      <trkpt lat="47.86676" lon="5.80579">
        <ele>234.147</ele>
        <time>2019-09-25T08:49:59.001Z</time>
      </trkpt>
      <trkpt lat="47.86664" lon="5.80596">
        <ele>234.355</ele>
        <time>2019-09-25T10:50:02Z</time>
      </trkpt>
      <trkpt lat="47.86653" lon="5.80615">
        <ele>235.116</ele>
        <time>2019-09-25T08:50:05.001Z</time>
      </trkpt>
      <trkpt lat="47.86641" lon="5.80632">
        <ele>235.749</ele>
        <time>2019-09-25T08:50:08.001Z</time>
      </trkpt>
      <trkpt lat="47.86629" lon="5.8065">
        <ele>236.507</ele>
        <time>2019-09-25T08:50:11.001Z</time>
      </trkpt>
      <trkpt lat="47.86615" lon="5.80668">
        <ele>236.938</ele>
        <time>2019-09-25T08:50:14.001Z</time>
      </trkpt>
      <trkpt lat="47.86602" lon="5.80685">
        <ele>238.038</ele>
        <time>2019-09-25T08:50:17.001Z</time>
      </trkpt>
      <trkpt lat="47.86591" lon="5.807">
        <ele>238.583</ele>
        <time>2019-09-25T08:50:20.001Z</time>
      </trkpt>
      <trkpt lat="47.86581" lon="5.80714">
        <ele>238.448</ele>
        <time>2019-09-25T08:50:23.001Z</time>
      </trkpt>
      <trkpt lat="47.86569" lon="5.80728">
        <ele>238.041</ele>
        <time>2019-09-25T08:50:26.001Z</time>
      </trkpt>
      <trkpt lat="47.86558" lon="5.80745">
        <ele>237.788</ele>
        <time>2019-09-25T08:50:29.001Z</time>
      </trkpt>
      <trkpt lat="47.86548" lon="5.80761">
        <ele>238.376</ele>
        <time>2019-09-25T08:50:32.001Z</time>
      </trkpt>
      <trkpt lat="47.86538" lon="5.80777">
        <ele>238.523</ele>
        <time>2019-09-25T08:50:35.001Z</time>
      </trkpt>
      <trkpt lat="47.86526" lon="5.80796">
        <ele>239.307</ele>
        <time>2019-09-25T08:50:38.001Z</time>
      </trkpt>
      <trkpt lat="47.86514" lon="5.80815">
        <ele>239.13</ele>
        <time>2019-09-25T08:50:41.001Z</time>
      </trkpt>
      <trkpt lat="47.86503" lon="5.80831">
        <ele>239.818</ele>
        <time>2019-09-25T08:50:44.001Z</time>
      </trkpt>
      <trkpt lat="47.86494" lon="5.80847">
        <ele>240.446</ele>
        <time>2019-09-25T08:50:47.001Z</time>
      </trkpt>
      <trkpt lat="47.86483" lon="5.80864">
        <ele>241.052</ele>
        <time>2019-09-25T08:50:50.001Z</time>
      </trkpt>
      <trkpt lat="47.86474" lon="5.80882">
        <ele>242.166</ele>
        <time>2019-09-25T08:50:53.001Z</time>
      </trkpt>
      <trkpt lat="47.86462" lon="5.809">
        <ele>243.078</ele>
        <time>2019-09-25T08:50:56.001Z</time>
      </trkpt>
      <trkpt lat="47.8645" lon="5.8092">
        <ele>244.231</ele>
        <time>2019-09-25T08:50:59.001Z</time>
      </trkpt>
      <trkpt lat="47.86439" lon="5.80939">
        <ele>245.193</ele>
        <time>2019-09-25T10:51:02Z</time>
      </trkpt>
      <trkpt lat="47.86428" lon="5.80957">
        <ele>245.853</ele>
        <time>2019-09-25T08:51:05.001Z</time>
      </trkpt>
      <trkpt lat="47.86416" lon="5.80975">
        <ele>245.48</ele>
        <time>2019-09-25T08:51:08.001Z</time>
      </trkpt>
      <trkpt lat="47.86403" lon="5.80995">
        <ele>244.559</ele>
        <time>2019-09-25T08:51:11.001Z</time>
      </trkpt>
      <trkpt lat="47.86392" lon="5.81012">
        <ele>244.308</ele>
        <time>2019-09-25T08:51:14.001Z</time>
      </trkpt>
      <trkpt lat="47.86381" lon="5.81028">
        <ele>243.802</ele>
        <time>2019-09-25T08:51:17.001Z</time>
      </trkpt>
      <trkpt lat="47.86369" lon="5.81041">
        <ele>243.036</ele>
        <time>2019-09-25T08:51:20.001Z</time>
      </trkpt>
      <trkpt lat="47.86358" lon="5.81056">
        <ele>241.992</ele>
        <time>2019-09-25T08:51:23.001Z</time>
      </trkpt>
      <trkpt lat="47.86347" lon="5.81073">
        <ele>240.845</ele>
        <time>2019-09-25T08:51:26.001Z</time>
      </trkpt>
      <trkpt lat="47.86337" lon="5.81092">
        <ele>240.223</ele>
        <time>2019-09-25T08:51:29.001Z</time>
      </trkpt>
      <trkpt lat="47.86329" lon="5.81114">
        <ele>240.233</ele>
        <time>2019-09-25T08:51:32.001Z</time>
      </trkpt>
      <trkpt lat="47.86321" lon="5.81136">
        <ele>239.804</ele>
        <time>2019-09-25T08:51:35.001Z</time>
      </trkpt>
      <trkpt lat="47.86314" lon="5.81158">
        <ele>239.032</ele>
        <time>2019-09-25T08:51:38.001Z</time>
      </trkpt>
      <trkpt lat="47.86307" lon="5.8118">
        <ele>237.764</ele>
        <time>2019-09-25T08:51:41.001Z</time>
      </trkpt>
      <trkpt lat="47.86302" lon="5.81199">
        <ele>235.822</ele>
        <time>2019-09-25T08:51:44.001Z</time>
      </trkpt>
      <trkpt lat="47.86299" lon="5.81218">
        <ele>234.592</ele>
        <time>2019-09-25T08:51:47.001Z</time>
      </trkpt>
      <trkpt lat="47.86294" lon="5.81238">
        <ele>233.914</ele>
        <time>2019-09-25T08:51:50.001Z</time>
      </trkpt>
      <trkpt lat="47.86289" lon="5.81258">
        <ele>233.108</ele>
        <time>2019-09-25T08:51:53.001Z</time>
      </trkpt>
      <trkpt lat="47.86284" lon="5.8128">
        <ele>232.246</ele>
        <time>2019-09-25T08:51:56.001Z</time>
      </trkpt>
      <trkpt lat="47.86278" lon="5.81304">
        <ele>231.663</ele>
        <time>2019-09-25T08:51:59.001Z</time>
      </trkpt>
      <trkpt lat="47.86271" lon="5.81328">
        <ele>231.209</ele>
        <time>2019-09-25T10:52:02Z</time>
      </trkpt>
      <trkpt lat="47.86264" lon="5.81353">
        <ele>231.402</ele>
        <time>2019-09-25T08:52:05.001Z</time>
      </trkpt>
      <trkpt lat="47.86258" lon="5.81377">
        <ele>231.483</ele>
        <time>2019-09-25T08:52:08.001Z</time>
      </trkpt>
      <trkpt lat="47.86251" lon="5.814">
        <ele>231.565</ele>
        <time>2019-09-25T08:52:11.001Z</time>
      </trkpt>
      <trkpt lat="47.86245" lon="5.81423">
        <ele>231.668</ele>
        <time>2019-09-25T08:52:14.001Z</time>
      </trkpt>
      <trkpt lat="47.86239" lon="5.81445">
        <ele>231.312</ele>
        <time>2019-09-25T08:52:17.001Z</time>
      </trkpt>
      <trkpt lat="47.86233" lon="5.81468">
        <ele>231.001</ele>
        <time>2019-09-25T08:52:20.001Z</time>
      </trkpt>
      <trkpt lat="47.86227" lon="5.8149">
        <ele>230.914</ele>
        <time>2019-09-25T08:52:23.001Z</time>
      </trkpt>
      <trkpt lat="47.8622" lon="5.81509">
        <ele>230.519</ele>
        <time>2019-09-25T08:52:26.001Z</time>
      </trkpt>
      <trkpt lat="47.8621" lon="5.81526">
        <ele>230.039</ele>
        <time>2019-09-25T08:52:29.001Z</time>
      </trkpt>
      <trkpt lat="47.86198" lon="5.81538">
        <ele>230.224</ele>
        <time>2019-09-25T08:52:32.001Z</time>
      </trkpt>
      <trkpt lat="47.86184" lon="5.81547">
        <ele>229.811</ele>
        <time>2019-09-25T08:52:35.001Z</time>
      </trkpt>
      <trkpt lat="47.8617" lon="5.81553">
        <ele>229.628</ele>
        <time>2019-09-25T08:52:38.001Z</time>
      </trkpt>
      <trkpt lat="47.86156" lon="5.81559">
        <ele>230.008</ele>
        <time>2019-09-25T08:52:41.001Z</time>
      </trkpt>
      <trkpt lat="47.86142" lon="5.81565">
        <ele>230.389</ele>
        <time>2019-09-25T08:52:44.001Z</time>
      </trkpt>
      <trkpt lat="47.86127" lon="5.8157">
        <ele>230.316</ele>
        <time>2019-09-25T08:52:47.001Z</time>
      </trkpt>
      <trkpt lat="47.86113" lon="5.81576">
        <ele>229.88</ele>
        <time>2019-09-25T08:52:50.001Z</time>
      </trkpt>
      <trkpt lat="47.86099" lon="5.8158">
        <ele>229.479</ele>
        <time>2019-09-25T08:52:53.001Z</time>
      </trkpt>
      <trkpt lat="47.86085" lon="5.81584">
        <ele>229.095</ele>
        <time>2019-09-25T08:52:56.001Z</time>
      </trkpt>
      <trkpt lat="47.86072" lon="5.81587">
        <ele>228.496</ele>
        <time>2019-09-25T08:52:59.001Z</time>
      </trkpt>
      <trkpt lat="47.86058" lon="5.81589">
        <ele>228.172</ele>
        <time>2019-09-25T10:53:02Z</time>
      </trkpt>
      <trkpt lat="47.86044" lon="5.8159">
        <ele>228.468</ele>
        <time>2019-09-25T08:53:05.001Z</time>
      </trkpt>
      <trkpt lat="47.8603" lon="5.8159">
        <ele>228.635</ele>
        <time>2019-09-25T08:53:08.001Z</time>
      </trkpt>
      <trkpt lat="47.86017" lon="5.81588">
        <ele>229.246</ele>
        <time>2019-09-25T08:53:11.001Z</time>
      </trkpt>
      <trkpt lat="47.86003" lon="5.81586">
        <ele>229.508</ele>
        <time>2019-09-25T08:53:14.001Z</time>
      </trkpt>
      <trkpt lat="47.85989" lon="5.81581">
        <ele>229.756</ele>
        <time>2019-09-25T08:53:17.001Z</time>
      </trkpt>
      <trkpt lat="47.85976" lon="5.81576">
        <ele>229.486</ele>
        <time>2019-09-25T08:53:20.001Z</time>
      </trkpt>
      <trkpt lat="47.85962" lon="5.81571">
        <ele>229.314</ele>
        <time>2019-09-25T08:53:23.001Z</time>
      </trkpt>
      <trkpt lat="47.85949" lon="5.81565">
        <ele>229.162</ele>
        <time>2019-09-25T08:53:26.001Z</time>
      </trkpt>
      <trkpt lat="47.85936" lon="5.81559">
        <ele>228.739</ele>
        <time>2019-09-25T08:53:29.001Z</time>
      </trkpt>
      <trkpt lat="47.85922" lon="5.81553">
        <ele>228.398</ele>
        <time>2019-09-25T08:53:32.001Z</time>
      </trkpt>
      <trkpt lat="47.85907" lon="5.81547">
        <ele>228.26</ele>
        <time>2019-09-25T08:53:35.001Z</time>
      </trkpt>
      <trkpt lat="47.85893" lon="5.81542">
        <ele>228.18</ele>
        <time>2019-09-25T08:53:38.001Z</time>
      </trkpt>
      <trkpt lat="47.85879" lon="5.81535">
        <ele>228.144</ele>
        <time>2019-09-25T08:53:41.001Z</time>
      </trkpt>
      <trkpt lat="47.85865" lon="5.8153">
        <ele>228.309</ele>
        <time>2019-09-25T08:53:44.001Z</time>
      </trkpt>
      <trkpt lat="47.85851" lon="5.81526">
        <ele>229.001</ele>
        <time>2019-09-25T08:53:47.001Z</time>
      </trkpt>
      <trkpt lat="47.85837" lon="5.81526">
        <ele>229.394</ele>
        <time>2019-09-25T08:53:50.001Z</time>
      </trkpt>
      <trkpt lat="47.85823" lon="5.8153">
        <ele>229.74</ele>
        <time>2019-09-25T08:53:53.001Z</time>
      </trkpt>
      <trkpt lat="47.8581" lon="5.81535">
        <ele>231.112</ele>
        <time>2019-09-25T08:53:56.001Z</time>
      </trkpt>
      <trkpt lat="47.85799" lon="5.81541">
        <ele>232.466</ele>
        <time>2019-09-25T08:53:59.001Z</time>
      </trkpt>
      <trkpt lat="47.85788" lon="5.81547">
        <ele>233.513</ele>
        <time>2019-09-25T10:54:02Z</time>
      </trkpt>
      <trkpt lat="47.85777" lon="5.81553">
        <ele>234.253</ele>
        <time>2019-09-25T08:54:05.001Z</time>
      </trkpt>
      <trkpt lat="47.85766" lon="5.81557">
        <ele>235.109</ele>
        <time>2019-09-25T08:54:08.001Z</time>
      </trkpt>
      <trkpt lat="47.85755" lon="5.81561">
        <ele>235.248</ele>
        <time>2019-09-25T08:54:11.001Z</time>
      </trkpt>
      <trkpt lat="47.85745" lon="5.81566">
        <ele>234.864</ele>
        <time>2019-09-25T08:54:14.001Z</time>
      </trkpt>
      <trkpt lat="47.85737" lon="5.81572">
        <ele>235.047</ele>
        <time>2019-09-25T08:54:17.001Z</time>
      </trkpt>
      <trkpt lat="47.85735" lon="5.81586">
        <ele>234.993</ele>
        <time>2019-09-25T08:54:20.001Z</time>
      </trkpt>
      <trkpt lat="47.85741" lon="5.81605">
        <ele>234.525</ele>
        <time>2019-09-25T08:54:23.001Z</time>
      </trkpt>
      <trkpt lat="47.85746" lon="5.81625">
        <ele>234.5</ele>
        <time>2019-09-25T08:54:26.001Z</time>
      </trkpt>
      <trkpt lat="47.8575" lon="5.81646">
        <ele>234.778</ele>
        <time>2019-09-25T08:54:29.001Z</time>
      </trkpt>
      <trkpt lat="47.85754" lon="5.81668">
        <ele>235.352</ele>
        <time>2019-09-25T08:54:32.001Z</time>
      </trkpt>
      <trkpt lat="47.85758" lon="5.81692">
        <ele>235.761</ele>
        <time>2019-09-25T08:54:35.001Z</time>
      </trkpt>
      <trkpt lat="47.85762" lon="5.81715">
        <ele>236.216</ele>
        <time>2019-09-25T08:54:38.001Z</time>
      </trkpt>
      <trkpt lat="47.85765" lon="5.81739">
        <ele>236.083</ele>
        <time>2019-09-25T08:54:41.001Z</time>
      </trkpt>
      <trkpt lat="47.85767" lon="5.81762">
        <ele>235.986</ele>
        <time>2019-09-25T08:54:44.001Z</time>
      </trkpt>
      <trkpt lat="47.85769" lon="5.81787">
        <ele>235.889</ele>
        <time>2019-09-25T08:54:47.001Z</time>
      </trkpt>
      <trkpt lat="47.85773" lon="5.8181">
        <ele>235.768</ele>
        <time>2019-09-25T08:54:50.001Z</time>
      </trkpt>
      <trkpt lat="47.85776" lon="5.81836">
        <ele>235.478</ele>
        <time>2019-09-25T08:54:53.001Z</time>
      </trkpt>
      <trkpt lat="47.8578" lon="5.81861">
        <ele>234.89</ele>
        <time>2019-09-25T08:54:56.001Z</time>
      </trkpt>
      <trkpt lat="47.85784" lon="5.81889">
        <ele>234.248</ele>
        <time>2019-09-25T08:54:59.001Z</time>
      </trkpt>
      <trkpt lat="47.85788" lon="5.81916">
        <ele>234.19</ele>
        <time>2019-09-25T10:55:02Z</time>
      </trkpt>
      <trkpt lat="47.85791" lon="5.81943">
        <ele>234.105</ele>
        <time>2019-09-25T08:55:05.001Z</time>
      </trkpt>
      <trkpt lat="47.85794" lon="5.81972">
        <ele>233.589</ele>
        <time>2019-09-25T08:55:08.001Z</time>
      </trkpt>
      <trkpt lat="47.85798" lon="5.82001">
        <ele>233.236</ele>
        <time>2019-09-25T08:55:11.001Z</time>
      </trkpt>
      <trkpt lat="47.85802" lon="5.8203">
        <ele>233.119</ele>
        <time>2019-09-25T08:55:14.001Z</time>
      </trkpt>
      <trkpt lat="47.85805" lon="5.82057">
        <ele>232.871</ele>
        <time>2019-09-25T08:55:17.001Z</time>
      </trkpt>
      <trkpt lat="47.85809" lon="5.82084">
        <ele>232.696</ele>
        <time>2019-09-25T08:55:20.001Z</time>
      </trkpt>
      <trkpt lat="47.85813" lon="5.82112">
        <ele>232.15</ele>
        <time>2019-09-25T08:55:23.001Z</time>
      </trkpt>
      <trkpt lat="47.85818" lon="5.82139">
        <ele>232.153</ele>
        <time>2019-09-25T08:55:26.001Z</time>
      </trkpt>
      <trkpt lat="47.85821" lon="5.82166">
        <ele>232.301</ele>
        <time>2019-09-25T08:55:29.001Z</time>
      </trkpt>
      <trkpt lat="47.85823" lon="5.82191">
        <ele>232.375</ele>
        <time>2019-09-25T08:55:32.001Z</time>
      </trkpt>
      <trkpt lat="47.85826" lon="5.82216">
        <ele>232.353</ele>
        <time>2019-09-25T08:55:35.001Z</time>
      </trkpt>
      <trkpt lat="47.85828" lon="5.8224">
        <ele>232.925</ele>
        <time>2019-09-25T08:55:38.001Z</time>
      </trkpt>
      <trkpt lat="47.8583" lon="5.82265">
        <ele>233.266</ele>
        <time>2019-09-25T08:55:41.001Z</time>
      </trkpt>
      <trkpt lat="47.85832" lon="5.82289">
        <ele>233.504</ele>
        <time>2019-09-25T08:55:44.001Z</time>
      </trkpt>
      <trkpt lat="47.85836" lon="5.82313">
        <ele>233.628</ele>
        <time>2019-09-25T08:55:47.001Z</time>
      </trkpt>
      <trkpt lat="47.85839" lon="5.82338">
        <ele>233.871</ele>
        <time>2019-09-25T08:55:50.001Z</time>
      </trkpt>
      <trkpt lat="47.85842" lon="5.82363">
        <ele>233.971</ele>
        <time>2019-09-25T08:55:53.001Z</time>
      </trkpt>
      <trkpt lat="47.85846" lon="5.82389">
        <ele>233.535</ele>
        <time>2019-09-25T08:55:56.001Z</time>
      </trkpt>
      <trkpt lat="47.85851" lon="5.82414">
        <ele>232.792</ele>
        <time>2019-09-25T08:55:59.001Z</time>
      </trkpt>
      <trkpt lat="47.85855" lon="5.82439">
        <ele>232.772</ele>
        <time>2019-09-25T10:56:02Z</time>
      </trkpt>
      <trkpt lat="47.85859" lon="5.82464">
        <ele>232.25</ele>
        <time>2019-09-25T08:56:05.001Z</time>
      </trkpt>
      <trkpt lat="47.85862" lon="5.8249">
        <ele>232.443</ele>
        <time>2019-09-25T08:56:08.001Z</time>
      </trkpt>
      <trkpt lat="47.85865" lon="5.82514">
        <ele>232.615</ele>
        <time>2019-09-25T08:56:11.001Z</time>
      </trkpt>
      <trkpt lat="47.85867" lon="5.82539">
        <ele>232.259</ele>
        <time>2019-09-25T08:56:14.001Z</time>
      </trkpt>
      <trkpt lat="47.85871" lon="5.82564">
        <ele>232.298</ele>
        <time>2019-09-25T08:56:17.001Z</time>
      </trkpt>
      <trkpt lat="47.85873" lon="5.82587">
        <ele>232.872</ele>
        <time>2019-09-25T08:56:20.001Z</time>
      </trkpt>
      <trkpt lat="47.85878" lon="5.8261">
        <ele>232.348</ele>
        <time>2019-09-25T08:56:23.001Z</time>
      </trkpt>
      <trkpt lat="47.85883" lon="5.82632">
        <ele>232.145</ele>
        <time>2019-09-25T08:56:26.001Z</time>
      </trkpt>
      <trkpt lat="47.85886" lon="5.82656">
        <ele>231.148</ele>
        <time>2019-09-25T08:56:29.001Z</time>
      </trkpt>
      <trkpt lat="47.85889" lon="5.8268">
        <ele>230.369</ele>
        <time>2019-09-25T08:56:32.001Z</time>
      </trkpt>
      <trkpt lat="47.85893" lon="5.82704">
        <ele>229.847</ele>
        <time>2019-09-25T08:56:35.001Z</time>
      </trkpt>
      <trkpt lat="47.85896" lon="5.82727">
        <ele>228.673</ele>
        <time>2019-09-25T08:56:38.001Z</time>
      </trkpt>
      <trkpt lat="47.859" lon="5.82751">
        <ele>228.235</ele>
        <time>2019-09-25T08:56:41.001Z</time>
      </trkpt>
      <trkpt lat="47.85903" lon="5.82774">
        <ele>227.36</ele>
        <time>2019-09-25T08:56:44.001Z</time>
      </trkpt>
      <trkpt lat="47.85907" lon="5.82796">
        <ele>226.857</ele>
        <time>2019-09-25T08:56:47.001Z</time>
      </trkpt>
      <trkpt lat="47.85911" lon="5.82818">
        <ele>226.593</ele>
        <time>2019-09-25T08:56:50.001Z</time>
      </trkpt>
      <trkpt lat="47.85914" lon="5.8284">
        <ele>226.222</ele>
        <time>2019-09-25T08:56:53.001Z</time>
      </trkpt>
      <trkpt lat="47.85917" lon="5.82862">
        <ele>226.676</ele>
        <time>2019-09-25T08:56:56.001Z</time>
      </trkpt>
      <trkpt lat="47.8592" lon="5.82884">
        <ele>226.139</ele>
        <time>2019-09-25T08:56:59.001Z</time>
      </trkpt>
      <trkpt lat="47.85924" lon="5.82904">
        <ele>225.916</ele>
        <time>2019-09-25T10:57:02Z</time>
      </trkpt>
      <trkpt lat="47.85926" lon="5.82923">
        <ele>226.409</ele>
        <time>2019-09-25T08:57:05.001Z</time>
      </trkpt>
      <trkpt lat="47.85928" lon="5.82941">
        <ele>227.9</ele>
        <time>2019-09-25T08:57:08.001Z</time>
      </trkpt>
      <trkpt lat="47.8593" lon="5.8296">
        <ele>228.788</ele>
        <time>2019-09-25T08:57:11.001Z</time>
      </trkpt>
      <trkpt lat="47.85932" lon="5.82978">
        <ele>229.48</ele>
        <time>2019-09-25T08:57:14.001Z</time>
      </trkpt>
      <trkpt lat="47.85935" lon="5.82996">
        <ele>230.055</ele>
        <time>2019-09-25T08:57:17.001Z</time>
      </trkpt>
      <trkpt lat="47.85937" lon="5.83012">
        <ele>230.371</ele>
        <time>2019-09-25T08:57:20.001Z</time>
      </trkpt>
      <trkpt lat="47.85939" lon="5.83028">
        <ele>231.066</ele>
        <time>2019-09-25T08:57:23.001Z</time>
      </trkpt>
      <trkpt lat="47.85942" lon="5.83043">
        <ele>231.3</ele>
        <time>2019-09-25T08:57:26.001Z</time>
      </trkpt>
      <trkpt lat="47.85944" lon="5.83058">
        <ele>231.976</ele>
        <time>2019-09-25T08:57:29.001Z</time>
      </trkpt>
      <trkpt lat="47.85947" lon="5.83073">
        <ele>232.568</ele>
        <time>2019-09-25T08:57:32.001Z</time>
      </trkpt>
      <trkpt lat="47.85949" lon="5.83088">
        <ele>232.882</ele>
        <time>2019-09-25T08:57:35.001Z</time>
      </trkpt>
      <trkpt lat="47.85951" lon="5.83102">
        <ele>233.408</ele>
        <time>2019-09-25T08:57:38.001Z</time>
      </trkpt>
      <trkpt lat="47.85953" lon="5.83117">
        <ele>233.948</ele>
        <time>2019-09-25T08:57:41.001Z</time>
      </trkpt>
      <trkpt lat="47.85954" lon="5.83132">
        <ele>233.536</ele>
        <time>2019-09-25T08:57:44.001Z</time>
      </trkpt>
      <trkpt lat="47.85956" lon="5.83146">
        <ele>233.777</ele>
        <time>2019-09-25T08:57:47.001Z</time>
      </trkpt>
      <trkpt lat="47.85958" lon="5.83161">
        <ele>234.233</ele>
        <time>2019-09-25T08:57:50.001Z</time>
      </trkpt>
      <trkpt lat="47.85961" lon="5.83176">
        <ele>235.166</ele>
        <time>2019-09-25T08:57:53.001Z</time>
      </trkpt>
      <trkpt lat="47.85963" lon="5.8319">
        <ele>235.509</ele>
        <time>2019-09-25T08:57:56.001Z</time>
      </trkpt>
      <trkpt lat="47.85963" lon="5.83203">
        <ele>235.501</ele>
        <time>2019-09-25T08:57:59.001Z</time>
      </trkpt>
      <trkpt lat="47.85964" lon="5.83216">
        <ele>235.451</ele>
        <time>2019-09-25T10:58:02Z</time>
      </trkpt>
      <trkpt lat="47.85966" lon="5.83229">
        <ele>235.742</ele>
        <time>2019-09-25T08:58:05.001Z</time>
      </trkpt>
      <trkpt lat="47.85968" lon="5.83242">
        <ele>236.235</ele>
        <time>2019-09-25T08:58:08.001Z</time>
      </trkpt>
      <trkpt lat="47.8597" lon="5.83254">
        <ele>236.427</ele>
        <time>2019-09-25T08:58:11.001Z</time>
      </trkpt>
      <trkpt lat="47.85972" lon="5.83267">
        <ele>236.172</ele>
        <time>2019-09-25T08:58:14.001Z</time>
      </trkpt>
      <trkpt lat="47.85974" lon="5.83279">
        <ele>235.595</ele>
        <time>2019-09-25T08:58:17.001Z</time>
      </trkpt>
      <trkpt lat="47.85976" lon="5.83292">
        <ele>235.381</ele>
        <time>2019-09-25T08:58:20.001Z</time>
      </trkpt>
      <trkpt lat="47.85978" lon="5.83306">
        <ele>235.203</ele>
        <time>2019-09-25T08:58:23.001Z</time>
      </trkpt>
      <trkpt lat="47.85981" lon="5.83319">
        <ele>235.315</ele>
        <time>2019-09-25T08:58:26.001Z</time>
      </trkpt>
      <trkpt lat="47.85982" lon="5.83332">
        <ele>235.841</ele>
        <time>2019-09-25T08:58:29.001Z</time>
      </trkpt>
      <trkpt lat="47.85984" lon="5.83344">
        <ele>235.694</ele>
        <time>2019-09-25T08:58:32.001Z</time>
      </trkpt>
      <trkpt lat="47.85985" lon="5.83357">
        <ele>236.179</ele>
        <time>2019-09-25T08:58:35.001Z</time>
      </trkpt>
      <trkpt lat="47.85987" lon="5.8337">
        <ele>236.433</ele>
        <time>2019-09-25T08:58:38.001Z</time>
      </trkpt>
      <trkpt lat="47.85988" lon="5.83385">
        <ele>236.929</ele>
        <time>2019-09-25T08:58:41.001Z</time>
      </trkpt>
      <trkpt lat="47.8599" lon="5.83399">
        <ele>237.517</ele>
        <time>2019-09-25T08:58:44.001Z</time>
      </trkpt>
      <trkpt lat="47.85992" lon="5.83412">
        <ele>238.005</ele>
        <time>2019-09-25T08:58:47.001Z</time>
      </trkpt>
      <trkpt lat="47.85994" lon="5.83426">
        <ele>238.6</ele>
        <time>2019-09-25T08:58:50.001Z</time>
      </trkpt>
      <trkpt lat="47.85996" lon="5.83439">
        <ele>238.942</ele>
        <time>2019-09-25T08:58:53.001Z</time>
      </trkpt>
      <trkpt lat="47.85998" lon="5.83452">
        <ele>239.619</ele>
        <time>2019-09-25T08:58:56.001Z</time>
      </trkpt>
      <trkpt lat="47.86001" lon="5.83465">
        <ele>240.297</ele>
        <time>2019-09-25T08:58:59.001Z</time>
      </trkpt>
      <trkpt lat="47.86005" lon="5.83479">
        <ele>240.677</ele>
        <time>2019-09-25T10:59:02Z</time>
      </trkpt>
      <trkpt lat="47.86009" lon="5.83494">
        <ele>240.638</ele>
        <time>2019-09-25T08:59:05.001Z</time>
      </trkpt>
      <trkpt lat="47.86014" lon="5.83512">
        <ele>240.992</ele>
        <time>2019-09-25T08:59:08.001Z</time>
      </trkpt>
      <trkpt lat="47.8602" lon="5.83531">
        <ele>241.056</ele>
        <time>2019-09-25T08:59:11.001Z</time>
      </trkpt>
      <trkpt lat="47.86027" lon="5.83552">
        <ele>241.008</ele>
        <time>2019-09-25T08:59:14.001Z</time>
      </trkpt>
      <trkpt lat="47.86034" lon="5.83573">
        <ele>240.359</ele>
        <time>2019-09-25T08:59:17.001Z</time>
      </trkpt>
      <trkpt lat="47.86041" lon="5.83595">
        <ele>239.663</ele>
        <time>2019-09-25T08:59:20.001Z</time>
      </trkpt>
      <trkpt lat="47.86048" lon="5.83619">
        <ele>239.025</ele>
        <time>2019-09-25T08:59:23.001Z</time>
      </trkpt>
      <trkpt lat="47.86056" lon="5.83643">
        <ele>238.662</ele>
        <time>2019-09-25T08:59:26.001Z</time>
      </trkpt>
      <trkpt lat="47.86064" lon="5.83666">
        <ele>238.12</ele>
        <time>2019-09-25T08:59:29.001Z</time>
      </trkpt>
      <trkpt lat="47.86072" lon="5.8369">
        <ele>237.554</ele>
        <time>2019-09-25T08:59:32.001Z</time>
      </trkpt>
      <trkpt lat="47.8608" lon="5.83716">
        <ele>237.067</ele>
        <time>2019-09-25T08:59:35.001Z</time>
      </trkpt>
      <trkpt lat="47.86089" lon="5.83741">
        <ele>236.213</ele>
        <time>2019-09-25T08:59:38.001Z</time>
      </trkpt>
      <trkpt lat="47.86097" lon="5.83767">
        <ele>235.61</ele>
        <time>2019-09-25T08:59:41.001Z</time>
      </trkpt>
      <trkpt lat="47.86105" lon="5.83792">
        <ele>234.886</ele>
        <time>2019-09-25T08:59:44.001Z</time>
      </trkpt>
      <trkpt lat="47.86114" lon="5.83818">
        <ele>234.468</ele>
        <time>2019-09-25T08:59:47.001Z</time>
      </trkpt>
      <trkpt lat="47.86122" lon="5.83843">
        <ele>233.939</ele>
        <time>2019-09-25T08:59:50.001Z</time>
      </trkpt>
      <trkpt lat="47.86131" lon="5.83869">
        <ele>233.597</ele>
        <time>2019-09-25T08:59:53.001Z</time>
      </trkpt>
      <trkpt lat="47.86139" lon="5.83894">
        <ele>233.554</ele>
        <time>2019-09-25T08:59:56.001Z</time>
      </trkpt>
      <trkpt lat="47.86147" lon="5.8392">
        <ele>233.236</ele>
        <time>2019-09-25T08:59:59.001Z</time>
      </trkpt>
      <trkpt lat="47.86156" lon="5.83946">
        <ele>233.117</ele>
        <time>2019-09-25T11:00:02Z</time>
      </trkpt>
      <trkpt lat="47.86164" lon="5.83972">
        <ele>233.432</ele>
        <time>2019-09-25T09:00:05.001Z</time>
      </trkpt>
      <trkpt lat="47.86172" lon="5.83997">
        <ele>233.639</ele>
        <time>2019-09-25T09:00:08.001Z</time>
      </trkpt>
      <trkpt lat="47.8618" lon="5.84021">
        <ele>233.845</ele>
        <time>2019-09-25T09:00:11.001Z</time>
      </trkpt>
      <trkpt lat="47.86187" lon="5.84048">
        <ele>234.053</ele>
        <time>2019-09-25T09:00:14.001Z</time>
      </trkpt>
      <trkpt lat="47.86193" lon="5.84077">
        <ele>233.873</ele>
        <time>2019-09-25T09:00:17.001Z</time>
      </trkpt>
      <trkpt lat="47.86197" lon="5.84107">
        <ele>233.463</ele>
        <time>2019-09-25T09:00:20.001Z</time>
      </trkpt>
      <trkpt lat="47.86199" lon="5.84138">
        <ele>233.405</ele>
        <time>2019-09-25T09:00:23.001Z</time>
      </trkpt>
      <trkpt lat="47.86202" lon="5.84169">
        <ele>232.278</ele>
        <time>2019-09-25T09:00:26.001Z</time>
      </trkpt>
      <trkpt lat="47.86205" lon="5.84199">
        <ele>229.494</ele>
        <time>2019-09-25T09:00:29.001Z</time>
      </trkpt>
      <trkpt lat="47.86207" lon="5.84231">
        <ele>229.049</ele>
        <time>2019-09-25T09:00:32.001Z</time>
      </trkpt>
      <trkpt lat="47.86209" lon="5.84263">
        <ele>228.697</ele>
        <time>2019-09-25T09:00:35.001Z</time>
      </trkpt>
      <trkpt lat="47.86212" lon="5.84295">
        <ele>228.318</ele>
        <time>2019-09-25T09:00:38.001Z</time>
      </trkpt>
      <trkpt lat="47.86215" lon="5.84325">
        <ele>228.687</ele>
        <time>2019-09-25T09:00:41.001Z</time>
      </trkpt>
      <trkpt lat="47.8622" lon="5.84355">
        <ele>229.395</ele>
        <time>2019-09-25T09:00:44.001Z</time>
      </trkpt>
      <trkpt lat="47.86229" lon="5.84385">
        <ele>229.352</ele>
        <time>2019-09-25T09:00:47.001Z</time>
      </trkpt>
      <trkpt lat="47.86237" lon="5.84414">
        <ele>228.633</ele>
        <time>2019-09-25T09:00:50.001Z</time>
      </trkpt>
      <trkpt lat="47.86244" lon="5.84442">
        <ele>227.553</ele>
        <time>2019-09-25T09:00:53.001Z</time>
      </trkpt>
      <trkpt lat="47.86251" lon="5.84468">
        <ele>226.793</ele>
        <time>2019-09-25T09:00:56.002Z</time>
      </trkpt>
      <trkpt lat="47.86259" lon="5.84494">
        <ele>226.614</ele>
        <time>2019-09-25T09:00:59.001Z</time>
      </trkpt>
      <trkpt lat="47.86267" lon="5.84522">
        <ele>226.728</ele>
        <time>2019-09-25T11:01:02Z</time>
      </trkpt>
      <trkpt lat="47.86274" lon="5.8455">
        <ele>227.198</ele>
        <time>2019-09-25T09:01:05.001Z</time>
      </trkpt>
      <trkpt lat="47.86278" lon="5.84577">
        <ele>227.344</ele>
        <time>2019-09-25T09:01:08.001Z</time>
      </trkpt>
      <trkpt lat="47.86278" lon="5.84606">
        <ele>227.543</ele>
        <time>2019-09-25T09:01:11.001Z</time>
      </trkpt>
      <trkpt lat="47.86274" lon="5.84633">
        <ele>227.645</ele>
        <time>2019-09-25T09:01:14.001Z</time>
      </trkpt>
      <trkpt lat="47.86268" lon="5.8466">
        <ele>227.548</ele>
        <time>2019-09-25T09:01:17.001Z</time>
      </trkpt>
      <trkpt lat="47.86264" lon="5.84685">
        <ele>227.095</ele>
        <time>2019-09-25T09:01:20.001Z</time>
      </trkpt>
      <trkpt lat="47.86271" lon="5.84704">
        <ele>226.645</ele>
        <time>2019-09-25T09:01:23.001Z</time>
      </trkpt>
      <trkpt lat="47.86287" lon="5.84707">
        <ele>226.738</ele>
        <time>2019-09-25T09:01:26.001Z</time>
      </trkpt>
      <trkpt lat="47.86302" lon="5.84705">
        <ele>226.774</ele>
        <time>2019-09-25T09:01:29.001Z</time>
      </trkpt>
      <trkpt lat="47.86315" lon="5.84705">
        <ele>227.071</ele>
        <time>2019-09-25T09:01:32.001Z</time>
      </trkpt>
      <trkpt lat="47.86326" lon="5.84703">
        <ele>227.994</ele>
        <time>2019-09-25T09:01:35.001Z</time>
      </trkpt>
      <trkpt lat="47.86337" lon="5.84702">
        <ele>229.098</ele>
        <time>2019-09-25T09:01:38.001Z</time>
      </trkpt>
      <trkpt lat="47.86348" lon="5.84701">
        <ele>229.462</ele>
        <time>2019-09-25T09:01:41.001Z</time>
      </trkpt>
      <trkpt lat="47.86358" lon="5.84702">
        <ele>229.49</ele>
        <time>2019-09-25T09:01:44.001Z</time>
      </trkpt>
      <trkpt lat="47.86368" lon="5.84702">
        <ele>228.813</ele>
        <time>2019-09-25T09:01:47.001Z</time>
      </trkpt>
      <trkpt lat="47.86377" lon="5.84701">
        <ele>228.473</ele>
        <time>2019-09-25T09:01:50.001Z</time>
      </trkpt>
      <trkpt lat="47.86386" lon="5.847">
        <ele>228.741</ele>
        <time>2019-09-25T09:01:53.001Z</time>
      </trkpt>
      <trkpt lat="47.86396" lon="5.84699">
        <ele>229.537</ele>
        <time>2019-09-25T09:01:56.001Z</time>
      </trkpt>
      <trkpt lat="47.86405" lon="5.84697">
        <ele>229.938</ele>
        <time>2019-09-25T09:01:59.001Z</time>
      </trkpt>
      <trkpt lat="47.86413" lon="5.84696">
        <ele>230.591</ele>
        <time>2019-09-25T11:02:02Z</time>
      </trkpt>
      <trkpt lat="47.86422" lon="5.84694">
        <ele>230.818</ele>
        <time>2019-09-25T09:02:05.001Z</time>
      </trkpt>
      <trkpt lat="47.8643" lon="5.84693">
        <ele>231.773</ele>
        <time>2019-09-25T09:02:08.001Z</time>
      </trkpt>
      <trkpt lat="47.86438" lon="5.84693">
        <ele>233.441</ele>
        <time>2019-09-25T09:02:11.001Z</time>
      </trkpt>
      <trkpt lat="47.86447" lon="5.84692">
        <ele>234.781</ele>
        <time>2019-09-25T09:02:14.001Z</time>
      </trkpt>
      <trkpt lat="47.86455" lon="5.84691">
        <ele>235.793</ele>
        <time>2019-09-25T09:02:17.001Z</time>
      </trkpt>
      <trkpt lat="47.86463" lon="5.84688">
        <ele>237.141</ele>
        <time>2019-09-25T09:02:20.001Z</time>
      </trkpt>
      <trkpt lat="47.8647" lon="5.84687">
        <ele>238.834</ele>
        <time>2019-09-25T09:02:23.001Z</time>
      </trkpt>
      <trkpt lat="47.86479" lon="5.84689">
        <ele>239.911</ele>
        <time>2019-09-25T09:02:26.001Z</time>
      </trkpt>
      <trkpt lat="47.86487" lon="5.84695">
        <ele>240.361</ele>
        <time>2019-09-25T09:02:29.001Z</time>
      </trkpt>
      <trkpt lat="47.86495" lon="5.84706">
        <ele>240.324</ele>
        <time>2019-09-25T09:02:32.001Z</time>
      </trkpt>
      <trkpt lat="47.86501" lon="5.84718">
        <ele>240.189</ele>
        <time>2019-09-25T09:02:35.001Z</time>
      </trkpt>
      <trkpt lat="47.86505" lon="5.8473">
        <ele>240.282</ele>
        <time>2019-09-25T09:02:38.001Z</time>
      </trkpt>
      <trkpt lat="47.86509" lon="5.84741">
        <ele>240.213</ele>
        <time>2019-09-25T09:02:41.001Z</time>
      </trkpt>
      <trkpt lat="47.86513" lon="5.84754">
        <ele>240.323</ele>
        <time>2019-09-25T09:02:44.001Z</time>
      </trkpt>
      <trkpt lat="47.86517" lon="5.84768">
        <ele>239.834</ele>
        <time>2019-09-25T09:02:47.001Z</time>
      </trkpt>
      <trkpt lat="47.8652" lon="5.84781">
        <ele>239.141</ele>
        <time>2019-09-25T09:02:50.001Z</time>
      </trkpt>
      <trkpt lat="47.86524" lon="5.84794">
        <ele>239.108</ele>
        <time>2019-09-25T09:02:53.001Z</time>
      </trkpt>
      <trkpt lat="47.86529" lon="5.84807">
        <ele>238.105</ele>
        <time>2019-09-25T09:02:56.001Z</time>
      </trkpt>
      <trkpt lat="47.86534" lon="5.84822">
        <ele>237.517</ele>
        <time>2019-09-25T09:02:59.001Z</time>
      </trkpt>
      <trkpt lat="47.8654" lon="5.84835">
        <ele>237.219</ele>
        <time>2019-09-25T11:03:02Z</time>
      </trkpt>
      <trkpt lat="47.86547" lon="5.84848">
        <ele>237.358</ele>
        <time>2019-09-25T09:03:05.001Z</time>
      </trkpt>
      <trkpt lat="47.86555" lon="5.8486">
        <ele>237.6</ele>
        <time>2019-09-25T09:03:08.001Z</time>
      </trkpt>
      <trkpt lat="47.86565" lon="5.84872">
        <ele>237.635</ele>
        <time>2019-09-25T09:03:11.001Z</time>
      </trkpt>
      <trkpt lat="47.86576" lon="5.84883">
        <ele>237.176</ele>
        <time>2019-09-25T09:03:14.001Z</time>
      </trkpt>
      <trkpt lat="47.86588" lon="5.84897">
        <ele>236.769</ele>
        <time>2019-09-25T09:03:17.001Z</time>
      </trkpt>
      <trkpt lat="47.866" lon="5.84909">
        <ele>235.818</ele>
        <time>2019-09-25T09:03:20.001Z</time>
      </trkpt>
      <trkpt lat="47.86613" lon="5.84922">
        <ele>235.274</ele>
        <time>2019-09-25T09:03:23.001Z</time>
      </trkpt>
      <trkpt lat="47.86626" lon="5.84936">
        <ele>234.679</ele>
        <time>2019-09-25T09:03:26.001Z</time>
      </trkpt>
      <trkpt lat="47.8664" lon="5.84954">
        <ele>233.935</ele>
        <time>2019-09-25T09:03:29.001Z</time>
      </trkpt>
      <trkpt lat="47.86656" lon="5.84975">
        <ele>232.914</ele>
        <time>2019-09-25T09:03:32.001Z</time>
      </trkpt>
      <trkpt lat="47.86672" lon="5.85">
        <ele>231.492</ele>
        <time>2019-09-25T09:03:35.001Z</time>
      </trkpt>
      <trkpt lat="47.86688" lon="5.85029">
        <ele>230.439</ele>
        <time>2019-09-25T09:03:38.001Z</time>
      </trkpt>
      <trkpt lat="47.86705" lon="5.8506">
        <ele>229.293</ele>
        <time>2019-09-25T09:03:41.001Z</time>
      </trkpt>
      <trkpt lat="47.86722" lon="5.85091">
        <ele>228.221</ele>
        <time>2019-09-25T09:03:44.001Z</time>
      </trkpt>
      <trkpt lat="47.86738" lon="5.8512">
        <ele>227.729</ele>
        <time>2019-09-25T09:03:47.001Z</time>
      </trkpt>
      <trkpt lat="47.86751" lon="5.85145">
        <ele>226.728</ele>
        <time>2019-09-25T09:03:50.001Z</time>
      </trkpt>
      <trkpt lat="47.86762" lon="5.85167">
        <ele>226.188</ele>
        <time>2019-09-25T09:03:53.001Z</time>
      </trkpt>
      <trkpt lat="47.86772" lon="5.85184">
        <ele>226.239</ele>
        <time>2019-09-25T09:03:56.001Z</time>
      </trkpt>
      <trkpt lat="47.8678" lon="5.85199">
        <ele>226.553</ele>
        <time>2019-09-25T09:03:59.001Z</time>
      </trkpt>
      <trkpt lat="47.86788" lon="5.85213">
        <ele>227.089</ele>
        <time>2019-09-25T11:04:02Z</time>
      </trkpt>
      <trkpt lat="47.86795" lon="5.85224">
        <ele>227.572</ele>
        <time>2019-09-25T09:04:05.001Z</time>
      </trkpt>
      <trkpt lat="47.86801" lon="5.85236">
        <ele>228.439</ele>
        <time>2019-09-25T09:04:08.001Z</time>
      </trkpt>
      <trkpt lat="47.86807" lon="5.85247">
        <ele>229.262</ele>
        <time>2019-09-25T09:04:11.001Z</time>
      </trkpt>
      <trkpt lat="47.86813" lon="5.85258">
        <ele>229.838</ele>
        <time>2019-09-25T09:04:14.001Z</time>
      </trkpt>
      <trkpt lat="47.86819" lon="5.85269">
        <ele>230.747</ele>
        <time>2019-09-25T09:04:17.001Z</time>
      </trkpt>
      <trkpt lat="47.86826" lon="5.8528">
        <ele>231.672</ele>
        <time>2019-09-25T09:04:20.001Z</time>
      </trkpt>
      <trkpt lat="47.86832" lon="5.85291">
        <ele>232.121</ele>
        <time>2019-09-25T09:04:23.001Z</time>
      </trkpt>
      <trkpt lat="47.86838" lon="5.85302">
        <ele>233.103</ele>
        <time>2019-09-25T09:04:26.001Z</time>
      </trkpt>
      <trkpt lat="47.86844" lon="5.85313">
        <ele>233.316</ele>
        <time>2019-09-25T09:04:29.001Z</time>
      </trkpt>
      <trkpt lat="47.8685" lon="5.85323">
        <ele>233.72</ele>
        <time>2019-09-25T09:04:32.001Z</time>
      </trkpt>
      <trkpt lat="47.86855" lon="5.85334">
        <ele>234</ele>
        <time>2019-09-25T09:04:35.001Z</time>
      </trkpt>
      <trkpt lat="47.86861" lon="5.85345">
        <ele>234.444</ele>
        <time>2019-09-25T09:04:38.001Z</time>
      </trkpt>
      <trkpt lat="47.86868" lon="5.85355">
        <ele>234.558</ele>
        <time>2019-09-25T09:04:41.001Z</time>
      </trkpt>
      <trkpt lat="47.86874" lon="5.85367">
        <ele>234.58</ele>
        <time>2019-09-25T09:04:44.001Z</time>
      </trkpt>
      <trkpt lat="47.86881" lon="5.85379">
        <ele>234.892</ele>
        <time>2019-09-25T09:04:47.001Z</time>
      </trkpt>
      <trkpt lat="47.86887" lon="5.85392">
        <ele>235.185</ele>
        <time>2019-09-25T09:04:50.001Z</time>
      </trkpt>
      <trkpt lat="47.86894" lon="5.85405">
        <ele>235.449</ele>
        <time>2019-09-25T09:04:53.001Z</time>
      </trkpt>
      <trkpt lat="47.86901" lon="5.85417">
        <ele>235.84</ele>
        <time>2019-09-25T09:04:56.001Z</time>
      </trkpt>
      <trkpt lat="47.86908" lon="5.8543">
        <ele>235.873</ele>
        <time>2019-09-25T09:04:59.001Z</time>
      </trkpt>
      <trkpt lat="47.86916" lon="5.85443">
        <ele>236.472</ele>
        <time>2019-09-25T11:05:02Z</time>
      </trkpt>
      <trkpt lat="47.86924" lon="5.85456">
        <ele>236.641</ele>
        <time>2019-09-25T09:05:05.001Z</time>
      </trkpt>
      <trkpt lat="47.86931" lon="5.8547">
        <ele>236.586</ele>
        <time>2019-09-25T09:05:08.001Z</time>
      </trkpt>
      <trkpt lat="47.86939" lon="5.85483">
        <ele>236.728</ele>
        <time>2019-09-25T09:05:11.001Z</time>
      </trkpt>
      <trkpt lat="47.86946" lon="5.85496">
        <ele>236.343</ele>
        <time>2019-09-25T09:05:14.001Z</time>
      </trkpt>
      <trkpt lat="47.86954" lon="5.85509">
        <ele>236.337</ele>
        <time>2019-09-25T09:05:17.001Z</time>
      </trkpt>
      <trkpt lat="47.86961" lon="5.85522">
        <ele>236.489</ele>
        <time>2019-09-25T09:05:20.001Z</time>
      </trkpt>
      <trkpt lat="47.86968" lon="5.85534">
        <ele>236.446</ele>
        <time>2019-09-25T09:05:23.001Z</time>
      </trkpt>
      <trkpt lat="47.86976" lon="5.85546">
        <ele>236.497</ele>
        <time>2019-09-25T09:05:26.001Z</time>
      </trkpt>
      <trkpt lat="47.86984" lon="5.85559">
        <ele>236.824</ele>
        <time>2019-09-25T09:05:29.001Z</time>
      </trkpt>
      <trkpt lat="47.86992" lon="5.85572">
        <ele>236.816</ele>
        <time>2019-09-25T09:05:32.001Z</time>
      </trkpt>
      <trkpt lat="47.87" lon="5.85589">
        <ele>236.53</ele>
        <time>2019-09-25T09:05:35.001Z</time>
      </trkpt>
      <trkpt lat="47.87009" lon="5.85608">
        <ele>236.658</ele>
        <time>2019-09-25T09:05:38.001Z</time>
      </trkpt>
      <trkpt lat="47.87017" lon="5.85629">
        <ele>236.896</ele>
        <time>2019-09-25T09:05:41.001Z</time>
      </trkpt>
      <trkpt lat="47.87024" lon="5.85649">
        <ele>237.113</ele>
        <time>2019-09-25T09:05:44.001Z</time>
      </trkpt>
      <trkpt lat="47.87031" lon="5.85669">
        <ele>237.229</ele>
        <time>2019-09-25T09:05:47.001Z</time>
      </trkpt>
      <trkpt lat="47.87037" lon="5.85688">
        <ele>237.395</ele>
        <time>2019-09-25T09:05:50.001Z</time>
      </trkpt>
      <trkpt lat="47.87045" lon="5.85706">
        <ele>237.379</ele>
        <time>2019-09-25T09:05:53.001Z</time>
      </trkpt>
      <trkpt lat="47.87053" lon="5.85725">
        <ele>237.312</ele>
        <time>2019-09-25T09:05:56.001Z</time>
      </trkpt>
      <trkpt lat="47.87063" lon="5.85744">
        <ele>237.128</ele>
        <time>2019-09-25T09:05:59.001Z</time>
      </trkpt>
      <trkpt lat="47.87074" lon="5.85761">
        <ele>236.785</ele>
        <time>2019-09-25T11:06:02Z</time>
      </trkpt>
      <trkpt lat="47.87085" lon="5.85777">
        <ele>236.618</ele>
        <time>2019-09-25T09:06:05.001Z</time>
      </trkpt>
      <trkpt lat="47.87097" lon="5.85794">
        <ele>236.401</ele>
        <time>2019-09-25T09:06:08.001Z</time>
      </trkpt>
      <trkpt lat="47.87109" lon="5.8581">
        <ele>236.126</ele>
        <time>2019-09-25T09:06:11.001Z</time>
      </trkpt>
      <trkpt lat="47.8712" lon="5.85826">
        <ele>235.909</ele>
        <time>2019-09-25T09:06:14.001Z</time>
      </trkpt>
      <trkpt lat="47.87131" lon="5.85842">
        <ele>235.813</ele>
        <time>2019-09-25T09:06:17.001Z</time>
      </trkpt>
      <trkpt lat="47.87143" lon="5.85858">
        <ele>235.589</ele>
        <time>2019-09-25T09:06:20.001Z</time>
      </trkpt>
      <trkpt lat="47.87155" lon="5.85874">
        <ele>235.735</ele>
        <time>2019-09-25T09:06:23.001Z</time>
      </trkpt>
      <trkpt lat="47.87166" lon="5.85891">
        <ele>235.664</ele>
        <time>2019-09-25T09:06:26.001Z</time>
      </trkpt>
      <trkpt lat="47.87176" lon="5.85911">
        <ele>235.476</ele>
        <time>2019-09-25T09:06:29.001Z</time>
      </trkpt>
      <trkpt lat="47.87188" lon="5.85933">
        <ele>235.494</ele>
        <time>2019-09-25T09:06:32.001Z</time>
      </trkpt>
      <trkpt lat="47.872" lon="5.85954">
        <ele>235.797</ele>
        <time>2019-09-25T09:06:35.001Z</time>
      </trkpt>
      <trkpt lat="47.87212" lon="5.85974">
        <ele>236.362</ele>
        <time>2019-09-25T09:06:38.001Z</time>
      </trkpt>
      <trkpt lat="47.87222" lon="5.85992">
        <ele>237.107</ele>
        <time>2019-09-25T09:06:41.001Z</time>
      </trkpt>
      <trkpt lat="47.87232" lon="5.86007">
        <ele>237.457</ele>
        <time>2019-09-25T09:06:44.001Z</time>
      </trkpt>
      <trkpt lat="47.87241" lon="5.8602">
        <ele>237.699</ele>
        <time>2019-09-25T09:06:47.001Z</time>
      </trkpt>
      <trkpt lat="47.8725" lon="5.86032">
        <ele>237.848</ele>
        <time>2019-09-25T09:06:50.001Z</time>
      </trkpt>
      <trkpt lat="47.87259" lon="5.86043">
        <ele>238.145</ele>
        <time>2019-09-25T09:06:53.001Z</time>
      </trkpt>
      <trkpt lat="47.87269" lon="5.86053">
        <ele>238.211</ele>
        <time>2019-09-25T09:06:56.001Z</time>
      </trkpt>
      <trkpt lat="47.87278" lon="5.86063">
        <ele>238.13</ele>
        <time>2019-09-25T09:06:59.001Z</time>
      </trkpt>
      <trkpt lat="47.87289" lon="5.86074">
        <ele>237.994</ele>
        <time>2019-09-25T11:07:02Z</time>
      </trkpt>
      <trkpt lat="47.873" lon="5.86084">
        <ele>237.844</ele>
        <time>2019-09-25T09:07:05.001Z</time>
      </trkpt>
      <trkpt lat="47.87311" lon="5.86094">
        <ele>237.958</ele>
        <time>2019-09-25T09:07:08.001Z</time>
      </trkpt>
      <trkpt lat="47.87322" lon="5.86103">
        <ele>238.229</ele>
        <time>2019-09-25T09:07:11.001Z</time>
      </trkpt>
      <trkpt lat="47.87332" lon="5.86112">
        <ele>238.464</ele>
        <time>2019-09-25T09:07:14.001Z</time>
      </trkpt>
      <trkpt lat="47.87342" lon="5.8612">
        <ele>238.533</ele>
        <time>2019-09-25T09:07:17.001Z</time>
      </trkpt>
      <trkpt lat="47.87352" lon="5.86128">
        <ele>238.75</ele>
        <time>2019-09-25T09:07:20.001Z</time>
      </trkpt>
      <trkpt lat="47.87362" lon="5.86136">
        <ele>239.039</ele>
        <time>2019-09-25T09:07:23.001Z</time>
      </trkpt>
      <trkpt lat="47.87374" lon="5.86146">
        <ele>238.975</ele>
        <time>2019-09-25T09:07:26.001Z</time>
      </trkpt>
      <trkpt lat="47.87386" lon="5.86156">
        <ele>238.855</ele>
        <time>2019-09-25T09:07:29.001Z</time>
      </trkpt>
      <trkpt lat="47.87398" lon="5.86167">
        <ele>239.117</ele>
        <time>2019-09-25T09:07:32.001Z</time>
      </trkpt>
      <trkpt lat="47.8741" lon="5.86179">
        <ele>239.715</ele>
        <time>2019-09-25T09:07:35.001Z</time>
      </trkpt>
      <trkpt lat="47.87422" lon="5.86191">
        <ele>240.234</ele>
        <time>2019-09-25T09:07:38.001Z</time>
      </trkpt>
      <trkpt lat="47.87434" lon="5.86205">
        <ele>240.207</ele>
        <time>2019-09-25T09:07:41.001Z</time>
      </trkpt>
      <trkpt lat="47.87447" lon="5.86219">
        <ele>240.034</ele>
        <time>2019-09-25T09:07:44.001Z</time>
      </trkpt>
      <trkpt lat="47.8746" lon="5.86233">
        <ele>239.459</ele>
        <time>2019-09-25T09:07:47.001Z</time>
      </trkpt>
      <trkpt lat="47.87472" lon="5.86251">
        <ele>239.008</ele>
        <time>2019-09-25T09:07:50.001Z</time>
      </trkpt>
      <trkpt lat="47.87485" lon="5.86266">
        <ele>238.636</ele>
        <time>2019-09-25T09:07:53.001Z</time>
      </trkpt>
      <trkpt lat="47.87498" lon="5.86283">
        <ele>238.398</ele>
        <time>2019-09-25T09:07:56.001Z</time>
      </trkpt>
      <trkpt lat="47.8751" lon="5.86299">
        <ele>238.279</ele>
        <time>2019-09-25T09:07:59.001Z</time>
      </trkpt>
      <trkpt lat="47.87523" lon="5.86315">
        <ele>237.828</ele>
        <time>2019-09-25T11:08:02Z</time>
      </trkpt>
      <trkpt lat="47.87536" lon="5.86331">
        <ele>237.631</ele>
        <time>2019-09-25T09:08:05.001Z</time>
      </trkpt>
      <trkpt lat="47.87549" lon="5.86347">
        <ele>237.575</ele>
        <time>2019-09-25T09:08:08.001Z</time>
      </trkpt>
      <trkpt lat="47.87561" lon="5.86362">
        <ele>237.506</ele>
        <time>2019-09-25T09:08:11.001Z</time>
      </trkpt>
      <trkpt lat="47.87574" lon="5.86378">
        <ele>237.055</ele>
        <time>2019-09-25T09:08:14.001Z</time>
      </trkpt>
      <trkpt lat="47.87587" lon="5.86394">
        <ele>236.681</ele>
        <time>2019-09-25T09:08:17.001Z</time>
      </trkpt>
      <trkpt lat="47.87601" lon="5.8641">
        <ele>236.419</ele>
        <time>2019-09-25T09:08:20.001Z</time>
      </trkpt>
      <trkpt lat="47.87615" lon="5.86423">
        <ele>236.089</ele>
        <time>2019-09-25T09:08:23.001Z</time>
      </trkpt>
      <trkpt lat="47.87629" lon="5.86436">
        <ele>235.857</ele>
        <time>2019-09-25T09:08:26.001Z</time>
      </trkpt>
      <trkpt lat="47.87643" lon="5.86447">
        <ele>235.264</ele>
        <time>2019-09-25T09:08:29.001Z</time>
      </trkpt>
      <trkpt lat="47.87657" lon="5.86458">
        <ele>234.921</ele>
        <time>2019-09-25T09:08:32.001Z</time>
      </trkpt>
      <trkpt lat="47.87675" lon="5.86472">
        <ele>234.263</ele>
        <time>2019-09-25T09:08:35.001Z</time>
      </trkpt>
      <trkpt lat="47.87699" lon="5.86482">
        <ele>233.735</ele>
        <time>2019-09-25T09:08:38.001Z</time>
      </trkpt>
      <trkpt lat="47.87727" lon="5.86495">
        <ele>232.573</ele>
        <time>2019-09-25T09:08:41.001Z</time>
      </trkpt>
      <trkpt lat="47.87751" lon="5.86515">
        <ele>231.904</ele>
        <time>2019-09-25T09:08:44.001Z</time>
      </trkpt>
      <trkpt lat="47.87772" lon="5.86534">
        <ele>231.11</ele>
        <time>2019-09-25T09:08:47.001Z</time>
      </trkpt>
      <trkpt lat="47.87793" lon="5.86551">
        <ele>230.631</ele>
        <time>2019-09-25T09:08:50.001Z</time>
      </trkpt>
      <trkpt lat="47.87811" lon="5.8657">
        <ele>230.236</ele>
        <time>2019-09-25T09:08:53.001Z</time>
      </trkpt>
      <trkpt lat="47.87824" lon="5.86591">
        <ele>230.451</ele>
        <time>2019-09-25T09:08:56.001Z</time>
      </trkpt>
      <trkpt lat="47.87828" lon="5.86608">
        <ele>230.886</ele>
        <time>2019-09-25T09:08:59.001Z</time>
      </trkpt>
      <trkpt lat="47.87826" lon="5.8662">
        <ele>231.623</ele>
        <time>2019-09-25T11:09:02Z</time>
      </trkpt>
      <trkpt lat="47.87823" lon="5.86634">
        <ele>232.251</ele>
        <time>2019-09-25T09:09:05.001Z</time>
      </trkpt>
      <trkpt lat="47.87821" lon="5.86646">
        <ele>232.937</ele>
        <time>2019-09-25T09:09:08.001Z</time>
      </trkpt>
      <trkpt lat="47.87816" lon="5.86659">
        <ele>233.721</ele>
        <time>2019-09-25T09:09:11.001Z</time>
      </trkpt>
      <trkpt lat="47.87806" lon="5.86671">
        <ele>235.001</ele>
        <time>2019-09-25T09:09:14.001Z</time>
      </trkpt>
      <trkpt lat="47.87792" lon="5.86685">
        <ele>236.151</ele>
        <time>2019-09-25T09:09:17.001Z</time>
      </trkpt>
      <trkpt lat="47.87777" lon="5.86703">
        <ele>235.938</ele>
        <time>2019-09-25T09:09:20.001Z</time>
      </trkpt>
      <trkpt lat="47.87761" lon="5.86728">
        <ele>235.308</ele>
        <time>2019-09-25T09:09:23.001Z</time>
      </trkpt>
      <trkpt lat="47.87747" lon="5.86757">
        <ele>235.603</ele>
        <time>2019-09-25T09:09:26.001Z</time>
      </trkpt>
      <trkpt lat="47.87739" lon="5.86787">
        <ele>235.284</ele>
        <time>2019-09-25T09:09:29.001Z</time>
      </trkpt>
      <trkpt lat="47.87732" lon="5.86816">
        <ele>234.791</ele>
        <time>2019-09-25T09:09:32.001Z</time>
      </trkpt>
      <trkpt lat="47.87726" lon="5.86843">
        <ele>234.606</ele>
        <time>2019-09-25T09:09:35.001Z</time>
      </trkpt>
      <trkpt lat="47.87721" lon="5.86868">
        <ele>235.029</ele>
        <time>2019-09-25T09:09:38.001Z</time>
      </trkpt>
      <trkpt lat="47.87715" lon="5.86892">
        <ele>234.807</ele>
        <time>2019-09-25T09:09:41.001Z</time>
      </trkpt>
      <trkpt lat="47.87709" lon="5.86914">
        <ele>234.541</ele>
        <time>2019-09-25T09:09:44.001Z</time>
      </trkpt>
      <trkpt lat="47.87703" lon="5.86935">
        <ele>234.233</ele>
        <time>2019-09-25T09:09:47.001Z</time>
      </trkpt>
      <trkpt lat="47.877" lon="5.86955">
        <ele>234.262</ele>
        <time>2019-09-25T09:09:50.001Z</time>
      </trkpt>
      <trkpt lat="47.87695" lon="5.86975">
        <ele>234.253</ele>
        <time>2019-09-25T09:09:53.001Z</time>
      </trkpt>
      <trkpt lat="47.87686" lon="5.86991">
        <ele>233.45</ele>
        <time>2019-09-25T09:09:56.001Z</time>
      </trkpt>
      <trkpt lat="47.87673" lon="5.86997">
        <ele>234.017</ele>
        <time>2019-09-25T09:09:59.001Z</time>
      </trkpt>
      <trkpt lat="47.87658" lon="5.86993">
        <ele>234.02</ele>
        <time>2019-09-25T11:10:02Z</time>
      </trkpt>
      <trkpt lat="47.87645" lon="5.86988">
        <ele>233.955</ele>
        <time>2019-09-25T09:10:05.001Z</time>
      </trkpt>
      <trkpt lat="47.87631" lon="5.86985">
        <ele>234.9</ele>
        <time>2019-09-25T09:10:08.001Z</time>
      </trkpt>
      <trkpt lat="47.87619" lon="5.8698">
        <ele>234.815</ele>
        <time>2019-09-25T09:10:11.001Z</time>
      </trkpt>
      <trkpt lat="47.87607" lon="5.86976">
        <ele>234.783</ele>
        <time>2019-09-25T09:10:14.001Z</time>
      </trkpt>
      <trkpt lat="47.87595" lon="5.86972">
        <ele>235.175</ele>
        <time>2019-09-25T09:10:17.001Z</time>
      </trkpt>
      <trkpt lat="47.87582" lon="5.86968">
        <ele>235.857</ele>
        <time>2019-09-25T09:10:20.001Z</time>
      </trkpt>
      <trkpt lat="47.87568" lon="5.86964">
        <ele>234.859</ele>
        <time>2019-09-25T09:10:23.001Z</time>
      </trkpt>
      <trkpt lat="47.87553" lon="5.86958">
        <ele>234.067</ele>
        <time>2019-09-25T09:10:26.001Z</time>
      </trkpt>
      <trkpt lat="47.8754" lon="5.86953">
        <ele>233.412</ele>
        <time>2019-09-25T09:10:29.001Z</time>
      </trkpt>
      <trkpt lat="47.87526" lon="5.86949">
        <ele>233.454</ele>
        <time>2019-09-25T09:10:32.001Z</time>
      </trkpt>
      <trkpt lat="47.87513" lon="5.86948">
        <ele>234.666</ele>
        <time>2019-09-25T09:10:35.001Z</time>
      </trkpt>
      <trkpt lat="47.87501" lon="5.86949">
        <ele>235.915</ele>
        <time>2019-09-25T09:10:38.001Z</time>
      </trkpt>
      <trkpt lat="47.87491" lon="5.86952">
        <ele>236.979</ele>
        <time>2019-09-25T09:10:41.001Z</time>
      </trkpt>
      <trkpt lat="47.87484" lon="5.86954">
        <ele>238.245</ele>
        <time>2019-09-25T09:10:44.001Z</time>
      </trkpt>
      <trkpt lat="47.87476" lon="5.86956">
        <ele>238.655</ele>
        <time>2019-09-25T09:10:47.001Z</time>
      </trkpt>
      <trkpt lat="47.87468" lon="5.86958">
        <ele>239.076</ele>
        <time>2019-09-25T09:10:50.001Z</time>
      </trkpt>
      <trkpt lat="47.87462" lon="5.86959">
        <ele>239.56</ele>
        <time>2019-09-25T09:10:53.001Z</time>
      </trkpt>
      <trkpt lat="47.87451" lon="5.86961">
        <ele>240.483</ele>
        <time>2019-09-25T09:10:59.001Z</time>
      </trkpt>
      <trkpt lat="47.87444" lon="5.86963">
        <ele>241.64</ele>
        <time>2019-09-25T11:11:02Z</time>
      </trkpt>
      <trkpt lat="47.87437" lon="5.86965">
        <ele>242.296</ele>
        <time>2019-09-25T09:11:05.001Z</time>
      </trkpt>
      <trkpt lat="47.8743" lon="5.86967">
        <ele>242.553</ele>
        <time>2019-09-25T09:11:08.001Z</time>
      </trkpt>
      <trkpt lat="47.87422" lon="5.86968">
        <ele>242.615</ele>
        <time>2019-09-25T09:11:11.001Z</time>
      </trkpt>
      <trkpt lat="47.87416" lon="5.8697">
        <ele>242.576</ele>
        <time>2019-09-25T09:11:14.001Z</time>
      </trkpt>
      <trkpt lat="47.8741" lon="5.86971">
        <ele>242.762</ele>
        <time>2019-09-25T09:11:17.001Z</time>
      </trkpt>
      <trkpt lat="47.87402" lon="5.86974">
        <ele>242.803</ele>
        <time>2019-09-25T09:11:20.001Z</time>
      </trkpt>
      <trkpt lat="47.87397" lon="5.86976">
        <ele>243.577</ele>
        <time>2019-09-25T09:11:23.001Z</time>
      </trkpt>
      <trkpt lat="47.87392" lon="5.86978">
        <ele>244.753</ele>
        <time>2019-09-25T09:11:26.001Z</time>
      </trkpt>
      <trkpt lat="47.87384" lon="5.8698">
        <ele>244.428</ele>
        <time>2019-09-25T09:11:29.001Z</time>
      </trkpt>
      <trkpt lat="47.87377" lon="5.86981">
        <ele>244.695</ele>
        <time>2019-09-25T09:11:32.001Z</time>
      </trkpt>
      <trkpt lat="47.8737" lon="5.86983">
        <ele>244.811</ele>
        <time>2019-09-25T09:11:35.001Z</time>
      </trkpt>
      <trkpt lat="47.87362" lon="5.86985">
        <ele>244.553</ele>
        <time>2019-09-25T09:11:38.001Z</time>
      </trkpt>
      <trkpt lat="47.87355" lon="5.86986">
        <ele>244.769</ele>
        <time>2019-09-25T09:11:41.001Z</time>
      </trkpt>
      <trkpt lat="47.87348" lon="5.86989">
        <ele>244.514</ele>
        <time>2019-09-25T09:11:44.001Z</time>
      </trkpt>
      <trkpt lat="47.87341" lon="5.8699">
        <ele>245.079</ele>
        <time>2019-09-25T09:11:47.001Z</time>
      </trkpt>
      <trkpt lat="47.87334" lon="5.86992">
        <ele>245.186</ele>
        <time>2019-09-25T09:11:50.001Z</time>
      </trkpt>
      <trkpt lat="47.87327" lon="5.86993">
        <ele>245.38</ele>
        <time>2019-09-25T09:11:53.001Z</time>
      </trkpt>
      <trkpt lat="47.87319" lon="5.86996">
        <ele>245.144</ele>
        <time>2019-09-25T09:11:56.001Z</time>
      </trkpt>
      <trkpt lat="47.87312" lon="5.86999">
        <ele>245.413</ele>
        <time>2019-09-25T09:11:59.001Z</time>
      </trkpt>
      <trkpt lat="47.87306" lon="5.87">
        <ele>245.698</ele>
        <time>2019-09-25T11:12:02Z</time>
      </trkpt>
      <trkpt lat="47.873" lon="5.87002">
        <ele>246.169</ele>
        <time>2019-09-25T09:12:05.001Z</time>
      </trkpt>
      <trkpt lat="47.87295" lon="5.87005">
        <ele>246.556</ele>
        <time>2019-09-25T09:12:08.001Z</time>
      </trkpt>
      <trkpt lat="47.8729" lon="5.87005">
        <ele>247.424</ele>
        <time>2019-09-25T09:12:11.001Z</time>
      </trkpt>
      <trkpt lat="47.87284" lon="5.87006">
        <ele>248.238</ele>
        <time>2019-09-25T09:12:14.001Z</time>
      </trkpt>
      <trkpt lat="47.87276" lon="5.87008">
        <ele>248.383</ele>
        <time>2019-09-25T09:12:17.001Z</time>
      </trkpt>
      <trkpt lat="47.87267" lon="5.8701">
        <ele>248.679</ele>
        <time>2019-09-25T09:12:20.001Z</time>
      </trkpt>
      <trkpt lat="47.87258" lon="5.87012">
        <ele>248.895</ele>
        <time>2019-09-25T09:12:23.001Z</time>
      </trkpt>
      <trkpt lat="47.8725" lon="5.87013">
        <ele>249.405</ele>
        <time>2019-09-25T09:12:26.001Z</time>
      </trkpt>
      <trkpt lat="47.87243" lon="5.87016">
        <ele>249.995</ele>
        <time>2019-09-25T09:12:29.001Z</time>
      </trkpt>
      <trkpt lat="47.87235" lon="5.87018">
        <ele>249.767</ele>
        <time>2019-09-25T09:12:32.001Z</time>
      </trkpt>
      <trkpt lat="47.87227" lon="5.8702">
        <ele>249.713</ele>
        <time>2019-09-25T09:12:35.001Z</time>
      </trkpt>
      <trkpt lat="47.8722" lon="5.87023">
        <ele>249.421</ele>
        <time>2019-09-25T09:12:38.001Z</time>
      </trkpt>
      <trkpt lat="47.87212" lon="5.87026">
        <ele>249.365</ele>
        <time>2019-09-25T09:12:41.001Z</time>
      </trkpt>
      <trkpt lat="47.87205" lon="5.87028">
        <ele>249.518</ele>
        <time>2019-09-25T09:12:44.001Z</time>
      </trkpt>
      <trkpt lat="47.87198" lon="5.8703">
        <ele>249.928</ele>
        <time>2019-09-25T09:12:47.001Z</time>
      </trkpt>
      <trkpt lat="47.87191" lon="5.87032">
        <ele>250.103</ele>
        <time>2019-09-25T09:12:50.001Z</time>
      </trkpt>
      <trkpt lat="47.87184" lon="5.87034">
        <ele>250.358</ele>
        <time>2019-09-25T09:12:53.001Z</time>
      </trkpt>
      <trkpt lat="47.87177" lon="5.87036">
        <ele>250.184</ele>
        <time>2019-09-25T09:12:56.001Z</time>
      </trkpt>
      <trkpt lat="47.8717" lon="5.87039">
        <ele>250.687</ele>
        <time>2019-09-25T09:12:59.001Z</time>
      </trkpt>
      <trkpt lat="47.87163" lon="5.87042">
        <ele>250.94</ele>
        <time>2019-09-25T11:13:02Z</time>
      </trkpt>
      <trkpt lat="47.87156" lon="5.87044">
        <ele>251.164</ele>
        <time>2019-09-25T09:13:05.001Z</time>
      </trkpt>
      <trkpt lat="47.87149" lon="5.87046">
        <ele>251.676</ele>
        <time>2019-09-25T09:13:08.001Z</time>
      </trkpt>
      <trkpt lat="47.87141" lon="5.87047">
        <ele>251.874</ele>
        <time>2019-09-25T09:13:11.001Z</time>
      </trkpt>
      <trkpt lat="47.87132" lon="5.87049">
        <ele>251.825</ele>
        <time>2019-09-25T09:13:14.001Z</time>
      </trkpt>
      <trkpt lat="47.87125" lon="5.87053">
        <ele>251.811</ele>
        <time>2019-09-25T09:13:17.001Z</time>
      </trkpt>
      <trkpt lat="47.87117" lon="5.87055">
        <ele>251.766</ele>
        <time>2019-09-25T09:13:20.001Z</time>
      </trkpt>
      <trkpt lat="47.87111" lon="5.87058">
        <ele>251.805</ele>
        <time>2019-09-25T09:13:23.001Z</time>
      </trkpt>
      <trkpt lat="47.87104" lon="5.87062">
        <ele>252.323</ele>
        <time>2019-09-25T09:13:26.001Z</time>
      </trkpt>
      <trkpt lat="47.87097" lon="5.87066">
        <ele>252.608</ele>
        <time>2019-09-25T09:13:29.001Z</time>
      </trkpt>
      <trkpt lat="47.87091" lon="5.8707">
        <ele>252.623</ele>
        <time>2019-09-25T09:13:32.001Z</time>
      </trkpt>
      <trkpt lat="47.87086" lon="5.87076">
        <ele>252.686</ele>
        <time>2019-09-25T09:13:35.001Z</time>
      </trkpt>
      <trkpt lat="47.87082" lon="5.87082">
        <ele>253.018</ele>
        <time>2019-09-25T09:13:38.001Z</time>
      </trkpt>
      <trkpt lat="47.87075" lon="5.8709">
        <ele>253.231</ele>
        <time>2019-09-25T09:13:41.001Z</time>
      </trkpt>
      <trkpt lat="47.8707" lon="5.87098">
        <ele>253.538</ele>
        <time>2019-09-25T09:13:44.001Z</time>
      </trkpt>
      <trkpt lat="47.87064" lon="5.87106">
        <ele>254.247</ele>
        <time>2019-09-25T09:13:47.001Z</time>
      </trkpt>
      <trkpt lat="47.87059" lon="5.87115">
        <ele>255.299</ele>
        <time>2019-09-25T09:13:50.001Z</time>
      </trkpt>
      <trkpt lat="47.87055" lon="5.87124">
        <ele>255.969</ele>
        <time>2019-09-25T09:13:53.001Z</time>
      </trkpt>
      <trkpt lat="47.87051" lon="5.87135">
        <ele>256.673</ele>
        <time>2019-09-25T09:13:56.001Z</time>
      </trkpt>
      <trkpt lat="47.87048" lon="5.87144">
        <ele>256.951</ele>
        <time>2019-09-25T09:13:59.001Z</time>
      </trkpt>
      <trkpt lat="47.87047" lon="5.87154">
        <ele>257.089</ele>
        <time>2019-09-25T11:14:02Z</time>
      </trkpt>
      <trkpt lat="47.87046" lon="5.87165">
        <ele>256.897</ele>
        <time>2019-09-25T09:14:05.001Z</time>
      </trkpt>
      <trkpt lat="47.87046" lon="5.87177">
        <ele>256.979</ele>
        <time>2019-09-25T09:14:08.001Z</time>
      </trkpt>
      <trkpt lat="47.87046" lon="5.8719">
        <ele>257.316</ele>
        <time>2019-09-25T09:14:11.001Z</time>
      </trkpt>
      <trkpt lat="47.87047" lon="5.87201">
        <ele>257.648</ele>
        <time>2019-09-25T09:14:14.001Z</time>
      </trkpt>
      <trkpt lat="47.87049" lon="5.87212">
        <ele>257.575</ele>
        <time>2019-09-25T09:14:17.001Z</time>
      </trkpt>
      <trkpt lat="47.8705" lon="5.87223">
        <ele>257.335</ele>
        <time>2019-09-25T09:14:20.001Z</time>
      </trkpt>
      <trkpt lat="47.8705" lon="5.87236">
        <ele>257.276</ele>
        <time>2019-09-25T09:14:23.001Z</time>
      </trkpt>
      <trkpt lat="47.87051" lon="5.87248">
        <ele>257.237</ele>
        <time>2019-09-25T09:14:26.001Z</time>
      </trkpt>
      <trkpt lat="47.87052" lon="5.8726">
        <ele>257.589</ele>
        <time>2019-09-25T09:14:29.001Z</time>
      </trkpt>
      <trkpt lat="47.87053" lon="5.87272">
        <ele>258.051</ele>
        <time>2019-09-25T09:14:32.001Z</time>
      </trkpt>
      <trkpt lat="47.87054" lon="5.87284">
        <ele>258.618</ele>
        <time>2019-09-25T09:14:35.001Z</time>
      </trkpt>
      <trkpt lat="47.87056" lon="5.87296">
        <ele>258.814</ele>
        <time>2019-09-25T09:14:38.001Z</time>
      </trkpt>
      <trkpt lat="47.87057" lon="5.87308">
        <ele>259.187</ele>
        <time>2019-09-25T09:14:41.001Z</time>
      </trkpt>
      <trkpt lat="47.87057" lon="5.8732">
        <ele>259.859</ele>
        <time>2019-09-25T09:14:44.001Z</time>
      </trkpt>
      <trkpt lat="47.87058" lon="5.87332">
        <ele>260.327</ele>
        <time>2019-09-25T09:14:47.001Z</time>
      </trkpt>
      <trkpt lat="47.87059" lon="5.87344">
        <ele>260.501</ele>
        <time>2019-09-25T09:14:50.001Z</time>
      </trkpt>
      <trkpt lat="47.87059" lon="5.87357">
        <ele>260.362</ele>
        <time>2019-09-25T09:14:53.001Z</time>
      </trkpt>
      <trkpt lat="47.8706" lon="5.87369">
        <ele>260.695</ele>
        <time>2019-09-25T09:14:56.001Z</time>
      </trkpt>
      <trkpt lat="47.87062" lon="5.87381">
        <ele>261.325</ele>
        <time>2019-09-25T09:14:59.001Z</time>
      </trkpt>
      <trkpt lat="47.87064" lon="5.87392">
        <ele>261.541</ele>
        <time>2019-09-25T11:15:02Z</time>
      </trkpt>
      <trkpt lat="47.87065" lon="5.87403">
        <ele>261.629</ele>
        <time>2019-09-25T09:15:05.001Z</time>
      </trkpt>
      <trkpt lat="47.87066" lon="5.87415">
        <ele>261.898</ele>
        <time>2019-09-25T09:15:08.001Z</time>
      </trkpt>
      <trkpt lat="47.87067" lon="5.87426">
        <ele>261.658</ele>
        <time>2019-09-25T09:15:11.001Z</time>
      </trkpt>
      <trkpt lat="47.87067" lon="5.87438">
        <ele>261.47</ele>
        <time>2019-09-25T09:15:14.001Z</time>
      </trkpt>
      <trkpt lat="47.87068" lon="5.87451">
        <ele>261.677</ele>
        <time>2019-09-25T09:15:17.001Z</time>
      </trkpt>
      <trkpt lat="47.87069" lon="5.87462">
        <ele>262.171</ele>
        <time>2019-09-25T09:15:20.001Z</time>
      </trkpt>
      <trkpt lat="47.8707" lon="5.87474">
        <ele>262.502</ele>
        <time>2019-09-25T09:15:23.001Z</time>
      </trkpt>
      <trkpt lat="47.87072" lon="5.87485">
        <ele>263.328</ele>
        <time>2019-09-25T09:15:26.001Z</time>
      </trkpt>
      <trkpt lat="47.87072" lon="5.87496">
        <ele>263.812</ele>
        <time>2019-09-25T09:15:29.001Z</time>
      </trkpt>
      <trkpt lat="47.87073" lon="5.87508">
        <ele>263.952</ele>
        <time>2019-09-25T09:15:32.001Z</time>
      </trkpt>
      <trkpt lat="47.87074" lon="5.87519">
        <ele>264.453</ele>
        <time>2019-09-25T09:15:35.001Z</time>
      </trkpt>
      <trkpt lat="47.87074" lon="5.87532">
        <ele>264.754</ele>
        <time>2019-09-25T09:15:38.001Z</time>
      </trkpt>
      <trkpt lat="47.87075" lon="5.87543">
        <ele>265.33</ele>
        <time>2019-09-25T09:15:41.001Z</time>
      </trkpt>
      <trkpt lat="47.87076" lon="5.87554">
        <ele>265.645</ele>
        <time>2019-09-25T09:15:44.001Z</time>
      </trkpt>
      <trkpt lat="47.87076" lon="5.87566">
        <ele>265.516</ele>
        <time>2019-09-25T09:15:47.001Z</time>
      </trkpt>
      <trkpt lat="47.87078" lon="5.87579">
        <ele>265.867</ele>
        <time>2019-09-25T09:15:50.001Z</time>
      </trkpt>
      <trkpt lat="47.8708" lon="5.87591">
        <ele>265.884</ele>
        <time>2019-09-25T09:15:53.001Z</time>
      </trkpt>
      <trkpt lat="47.87082" lon="5.87603">
        <ele>265.884</ele>
        <time>2019-09-25T09:15:56.001Z</time>
      </trkpt>
      <trkpt lat="47.87085" lon="5.87615">
        <ele>266.069</ele>
        <time>2019-09-25T09:15:59.001Z</time>
      </trkpt>
      <trkpt lat="47.87089" lon="5.87627">
        <ele>266.227</ele>
        <time>2019-09-25T11:16:02Z</time>
      </trkpt>
      <trkpt lat="47.87093" lon="5.87638">
        <ele>265.967</ele>
        <time>2019-09-25T09:16:05.001Z</time>
      </trkpt>
      <trkpt lat="47.87098" lon="5.87649">
        <ele>266.41</ele>
        <time>2019-09-25T09:16:08.001Z</time>
      </trkpt>
      <trkpt lat="47.87102" lon="5.87659">
        <ele>266.92</ele>
        <time>2019-09-25T09:16:11.001Z</time>
      </trkpt>
      <trkpt lat="47.87107" lon="5.87668">
        <ele>267.356</ele>
        <time>2019-09-25T09:16:14.001Z</time>
      </trkpt>
      <trkpt lat="47.87111" lon="5.87677">
        <ele>267.449</ele>
        <time>2019-09-25T09:16:17.001Z</time>
      </trkpt>
      <trkpt lat="47.87116" lon="5.87687">
        <ele>267.357</ele>
        <time>2019-09-25T09:16:20.001Z</time>
      </trkpt>
      <trkpt lat="47.87121" lon="5.87697">
        <ele>267.417</ele>
        <time>2019-09-25T09:16:23.001Z</time>
      </trkpt>
      <trkpt lat="47.87125" lon="5.87709">
        <ele>267.72</ele>
        <time>2019-09-25T09:16:26.001Z</time>
      </trkpt>
      <trkpt lat="47.87127" lon="5.8772">
        <ele>267.666</ele>
        <time>2019-09-25T09:16:29.001Z</time>
      </trkpt>
      <trkpt lat="47.87129" lon="5.87732">
        <ele>267.885</ele>
        <time>2019-09-25T09:16:32.001Z</time>
      </trkpt>
      <trkpt lat="47.8713" lon="5.87742">
        <ele>268.371</ele>
        <time>2019-09-25T09:16:35.001Z</time>
      </trkpt>
      <trkpt lat="47.8713" lon="5.87754">
        <ele>269.503</ele>
        <time>2019-09-25T09:16:38.001Z</time>
      </trkpt>
      <trkpt lat="47.87129" lon="5.87765">
        <ele>270.552</ele>
        <time>2019-09-25T09:16:41.001Z</time>
      </trkpt>
      <trkpt lat="47.87126" lon="5.87776">
        <ele>271.571</ele>
        <time>2019-09-25T09:16:44.001Z</time>
      </trkpt>
      <trkpt lat="47.87122" lon="5.87787">
        <ele>272.359</ele>
        <time>2019-09-25T09:16:47.001Z</time>
      </trkpt>
      <trkpt lat="47.87118" lon="5.87797">
        <ele>272.843</ele>
        <time>2019-09-25T09:16:50.001Z</time>
      </trkpt>
      <trkpt lat="47.87113" lon="5.87806">
        <ele>273.156</ele>
        <time>2019-09-25T09:16:53.001Z</time>
      </trkpt>
      <trkpt lat="47.87109" lon="5.87816">
        <ele>273.976</ele>
        <time>2019-09-25T09:16:56.001Z</time>
      </trkpt>
      <trkpt lat="47.87105" lon="5.87825">
        <ele>274.645</ele>
        <time>2019-09-25T09:16:59.001Z</time>
      </trkpt>
      <trkpt lat="47.87101" lon="5.87835">
        <ele>275.382</ele>
        <time>2019-09-25T11:17:02Z</time>
      </trkpt>
      <trkpt lat="47.87097" lon="5.87844">
        <ele>276.237</ele>
        <time>2019-09-25T09:17:05.001Z</time>
      </trkpt>
      <trkpt lat="47.87093" lon="5.87854">
        <ele>276.93</ele>
        <time>2019-09-25T09:17:08.001Z</time>
      </trkpt>
      <trkpt lat="47.87088" lon="5.87864">
        <ele>277.921</ele>
        <time>2019-09-25T09:17:11.001Z</time>
      </trkpt>
      <trkpt lat="47.87084" lon="5.87875">
        <ele>278.136</ele>
        <time>2019-09-25T09:17:14.001Z</time>
      </trkpt>
      <trkpt lat="47.87081" lon="5.87886">
        <ele>277.926</ele>
        <time>2019-09-25T09:17:17.001Z</time>
      </trkpt>
      <trkpt lat="47.87077" lon="5.87896">
        <ele>278.263</ele>
        <time>2019-09-25T09:17:20.001Z</time>
      </trkpt>
      <trkpt lat="47.87073" lon="5.87907">
        <ele>277.827</ele>
        <time>2019-09-25T09:17:23.001Z</time>
      </trkpt>
      <trkpt lat="47.87068" lon="5.87918">
        <ele>277.863</ele>
        <time>2019-09-25T09:17:26.001Z</time>
      </trkpt>
      <trkpt lat="47.87065" lon="5.87928">
        <ele>277.586</ele>
        <time>2019-09-25T09:17:29.001Z</time>
      </trkpt>
      <trkpt lat="47.87062" lon="5.87937">
        <ele>277.623</ele>
        <time>2019-09-25T09:17:32.001Z</time>
      </trkpt>
      <trkpt lat="47.87058" lon="5.87947">
        <ele>277.405</ele>
        <time>2019-09-25T09:17:35.001Z</time>
      </trkpt>
      <trkpt lat="47.87055" lon="5.87957">
        <ele>277.513</ele>
        <time>2019-09-25T09:17:38.001Z</time>
      </trkpt>
      <trkpt lat="47.87051" lon="5.87968">
        <ele>277.839</ele>
        <time>2019-09-25T09:17:41.001Z</time>
      </trkpt>
      <trkpt lat="47.87047" lon="5.87978">
        <ele>277.677</ele>
        <time>2019-09-25T09:17:44.001Z</time>
      </trkpt>
      <trkpt lat="47.87043" lon="5.87988">
        <ele>277.879</ele>
        <time>2019-09-25T09:17:47.001Z</time>
      </trkpt>
      <trkpt lat="47.8704" lon="5.87999">
        <ele>277.769</ele>
        <time>2019-09-25T09:17:50.001Z</time>
      </trkpt>
      <trkpt lat="47.87036" lon="5.88009">
        <ele>277.652</ele>
        <time>2019-09-25T09:17:53.001Z</time>
      </trkpt>
      <trkpt lat="47.87033" lon="5.8802">
        <ele>277.675</ele>
        <time>2019-09-25T09:17:56.001Z</time>
      </trkpt>
      <trkpt lat="47.87029" lon="5.8803">
        <ele>278.03</ele>
        <time>2019-09-25T09:17:59.001Z</time>
      </trkpt>
      <trkpt lat="47.87025" lon="5.8804">
        <ele>278.658</ele>
        <time>2019-09-25T11:18:02Z</time>
      </trkpt>
      <trkpt lat="47.8702" lon="5.88051">
        <ele>278.893</ele>
        <time>2019-09-25T09:18:05.001Z</time>
      </trkpt>
      <trkpt lat="47.87016" lon="5.88061">
        <ele>278.644</ele>
        <time>2019-09-25T09:18:08.001Z</time>
      </trkpt>
      <trkpt lat="47.8701" lon="5.8807">
        <ele>278.933</ele>
        <time>2019-09-25T09:18:11.001Z</time>
      </trkpt>
      <trkpt lat="47.87005" lon="5.8808">
        <ele>279.215</ele>
        <time>2019-09-25T09:18:14.001Z</time>
      </trkpt>
      <trkpt lat="47.86999" lon="5.88088">
        <ele>280.114</ele>
        <time>2019-09-25T09:18:17.001Z</time>
      </trkpt>
      <trkpt lat="47.86993" lon="5.88095">
        <ele>280.889</ele>
        <time>2019-09-25T09:18:20.001Z</time>
      </trkpt>
      <trkpt lat="47.86986" lon="5.88102">
        <ele>281.602</ele>
        <time>2019-09-25T09:18:23.001Z</time>
      </trkpt>
      <trkpt lat="47.86978" lon="5.88109">
        <ele>282.09</ele>
        <time>2019-09-25T09:18:26.001Z</time>
      </trkpt>
      <trkpt lat="47.86971" lon="5.88115">
        <ele>282.375</ele>
        <time>2019-09-25T09:18:29.001Z</time>
      </trkpt>
      <trkpt lat="47.86964" lon="5.8812">
        <ele>282.804</ele>
        <time>2019-09-25T09:18:32.001Z</time>
      </trkpt>
      <trkpt lat="47.86957" lon="5.88125">
        <ele>283.022</ele>
        <time>2019-09-25T09:18:35.001Z</time>
      </trkpt>
      <trkpt lat="47.8695" lon="5.8813">
        <ele>283.711</ele>
        <time>2019-09-25T09:18:38.001Z</time>
      </trkpt>
      <trkpt lat="47.86942" lon="5.88135">
        <ele>283.927</ele>
        <time>2019-09-25T09:18:41.001Z</time>
      </trkpt>
      <trkpt lat="47.86934" lon="5.8814">
        <ele>283.927</ele>
        <time>2019-09-25T09:18:44.001Z</time>
      </trkpt>
      <trkpt lat="47.86925" lon="5.88146">
        <ele>284.748</ele>
        <time>2019-09-25T09:18:47.001Z</time>
      </trkpt>
      <trkpt lat="47.86917" lon="5.88152">
        <ele>285.499</ele>
        <time>2019-09-25T09:18:50.001Z</time>
      </trkpt>
      <trkpt lat="47.86907" lon="5.88159">
        <ele>285.702</ele>
        <time>2019-09-25T09:18:53.001Z</time>
      </trkpt>
      <trkpt lat="47.86895" lon="5.88168">
        <ele>285.421</ele>
        <time>2019-09-25T09:18:56.001Z</time>
      </trkpt>
      <trkpt lat="47.86883" lon="5.88176">
        <ele>285.112</ele>
        <time>2019-09-25T09:18:59.001Z</time>
      </trkpt>
      <trkpt lat="47.86871" lon="5.88186">
        <ele>284.658</ele>
        <time>2019-09-25T11:19:02Z</time>
      </trkpt>
      <trkpt lat="47.86857" lon="5.88195">
        <ele>283.685</ele>
        <time>2019-09-25T09:19:05.001Z</time>
      </trkpt>
      <trkpt lat="47.86842" lon="5.88203">
        <ele>282.56</ele>
        <time>2019-09-25T09:19:08.001Z</time>
      </trkpt>
      <trkpt lat="47.86828" lon="5.88212">
        <ele>281.353</ele>
        <time>2019-09-25T09:19:11.001Z</time>
      </trkpt>
      <trkpt lat="47.86813" lon="5.8822">
        <ele>280.211</ele>
        <time>2019-09-25T09:19:14.001Z</time>
      </trkpt>
      <trkpt lat="47.86799" lon="5.88229">
        <ele>279.364</ele>
        <time>2019-09-25T09:19:17.001Z</time>
      </trkpt>
      <trkpt lat="47.86782" lon="5.8824">
        <ele>278.609</ele>
        <time>2019-09-25T09:19:20.001Z</time>
      </trkpt>
      <trkpt lat="47.86765" lon="5.88251">
        <ele>278.127</ele>
        <time>2019-09-25T09:19:23.001Z</time>
      </trkpt>
      <trkpt lat="47.86748" lon="5.88263">
        <ele>277.553</ele>
        <time>2019-09-25T09:19:26.001Z</time>
      </trkpt>
      <trkpt lat="47.86729" lon="5.88276">
        <ele>276.868</ele>
        <time>2019-09-25T09:19:29.001Z</time>
      </trkpt>
      <trkpt lat="47.8671" lon="5.88289">
        <ele>275.699</ele>
        <time>2019-09-25T09:19:32.001Z</time>
      </trkpt>
      <trkpt lat="47.86688" lon="5.88306">
        <ele>274.783</ele>
        <time>2019-09-25T09:19:35.001Z</time>
      </trkpt>
      <trkpt lat="47.86661" lon="5.88323">
        <ele>272.927</ele>
        <time>2019-09-25T09:19:38.001Z</time>
      </trkpt>
      <trkpt lat="47.86632" lon="5.88341">
        <ele>270.141</ele>
        <time>2019-09-25T09:19:41.001Z</time>
      </trkpt>
      <trkpt lat="47.86601" lon="5.88362">
        <ele>268.102</ele>
        <time>2019-09-25T09:19:44.001Z</time>
      </trkpt>
      <trkpt lat="47.86574" lon="5.8838">
        <ele>266.112</ele>
        <time>2019-09-25T09:19:47.001Z</time>
      </trkpt>
      <trkpt lat="47.8655" lon="5.88396">
        <ele>264.654</ele>
        <time>2019-09-25T09:19:50.001Z</time>
      </trkpt>
      <trkpt lat="47.86525" lon="5.88415">
        <ele>263.207</ele>
        <time>2019-09-25T09:19:53.001Z</time>
      </trkpt>
      <trkpt lat="47.86499" lon="5.88432">
        <ele>261.619</ele>
        <time>2019-09-25T09:19:56.001Z</time>
      </trkpt>
      <trkpt lat="47.86474" lon="5.88449">
        <ele>259.775</ele>
        <time>2019-09-25T09:19:59.001Z</time>
      </trkpt>
      <trkpt lat="47.86449" lon="5.88466">
        <ele>258.114</ele>
        <time>2019-09-25T11:20:02Z</time>
      </trkpt>
      <trkpt lat="47.86425" lon="5.88482">
        <ele>257.415</ele>
        <time>2019-09-25T09:20:05.001Z</time>
      </trkpt>
      <trkpt lat="47.86404" lon="5.88496">
        <ele>256.541</ele>
        <time>2019-09-25T09:20:08.001Z</time>
      </trkpt>
      <trkpt lat="47.86384" lon="5.8851">
        <ele>255.866</ele>
        <time>2019-09-25T09:20:11.001Z</time>
      </trkpt>
      <trkpt lat="47.86366" lon="5.88523">
        <ele>255.133</ele>
        <time>2019-09-25T09:20:14.001Z</time>
      </trkpt>
      <trkpt lat="47.86348" lon="5.88535">
        <ele>254.39</ele>
        <time>2019-09-25T09:20:17.001Z</time>
      </trkpt>
      <trkpt lat="47.86331" lon="5.88546">
        <ele>254.162</ele>
        <time>2019-09-25T09:20:20.001Z</time>
      </trkpt>
      <trkpt lat="47.86314" lon="5.88557">
        <ele>253.638</ele>
        <time>2019-09-25T09:20:23.001Z</time>
      </trkpt>
      <trkpt lat="47.86297" lon="5.88569">
        <ele>253.329</ele>
        <time>2019-09-25T09:20:26.001Z</time>
      </trkpt>
      <trkpt lat="47.86282" lon="5.88579">
        <ele>252.978</ele>
        <time>2019-09-25T09:20:29.001Z</time>
      </trkpt>
      <trkpt lat="47.86265" lon="5.8859">
        <ele>252.738</ele>
        <time>2019-09-25T09:20:32.001Z</time>
      </trkpt>
      <trkpt lat="47.86247" lon="5.88603">
        <ele>252.788</ele>
        <time>2019-09-25T09:20:35.001Z</time>
      </trkpt>
      <trkpt lat="47.86225" lon="5.88619">
        <ele>252.479</ele>
        <time>2019-09-25T09:20:38.001Z</time>
      </trkpt>
      <trkpt lat="47.862" lon="5.88637">
        <ele>251.482</ele>
        <time>2019-09-25T09:20:41.001Z</time>
      </trkpt>
      <trkpt lat="47.86174" lon="5.88652">
        <ele>250.763</ele>
        <time>2019-09-25T09:20:44.001Z</time>
      </trkpt>
      <trkpt lat="47.86147" lon="5.88645">
        <ele>249.809</ele>
        <time>2019-09-25T09:20:47.001Z</time>
      </trkpt>
      <trkpt lat="47.86126" lon="5.8862">
        <ele>249.223</ele>
        <time>2019-09-25T09:20:50.001Z</time>
      </trkpt>
      <trkpt lat="47.86107" lon="5.88595">
        <ele>248.636</ele>
        <time>2019-09-25T09:20:53.001Z</time>
      </trkpt>
      <trkpt lat="47.86092" lon="5.88573">
        <ele>247.892</ele>
        <time>2019-09-25T09:20:56.001Z</time>
      </trkpt>
      <trkpt lat="47.86076" lon="5.88552">
        <ele>247.185</ele>
        <time>2019-09-25T09:20:59.001Z</time>
      </trkpt>
      <trkpt lat="47.86061" lon="5.88531">
        <ele>245.965</ele>
        <time>2019-09-25T11:21:02Z</time>
      </trkpt>
      <trkpt lat="47.86041" lon="5.88522">
        <ele>244.622</ele>
        <time>2019-09-25T09:21:05.001Z</time>
      </trkpt>
      <trkpt lat="47.86019" lon="5.88539">
        <ele>243.496</ele>
        <time>2019-09-25T09:21:08.001Z</time>
      </trkpt>
      <trkpt lat="47.86" lon="5.88564">
        <ele>242.274</ele>
        <time>2019-09-25T09:21:11.001Z</time>
      </trkpt>
      <trkpt lat="47.85975" lon="5.88591">
        <ele>240.746</ele>
        <time>2019-09-25T09:21:14.001Z</time>
      </trkpt>
      <trkpt lat="47.85944" lon="5.88609">
        <ele>239.238</ele>
        <time>2019-09-25T09:21:17.001Z</time>
      </trkpt>
      <trkpt lat="47.85913" lon="5.88621">
        <ele>237.733</ele>
        <time>2019-09-25T09:21:20.001Z</time>
      </trkpt>
      <trkpt lat="47.85883" lon="5.88633">
        <ele>235.917</ele>
        <time>2019-09-25T09:21:23.001Z</time>
      </trkpt>
      <trkpt lat="47.85859" lon="5.88643">
        <ele>234.226</ele>
        <time>2019-09-25T09:21:26.001Z</time>
      </trkpt>
      <trkpt lat="47.8584" lon="5.88652">
        <ele>231.181</ele>
        <time>2019-09-25T09:21:29.001Z</time>
      </trkpt>
      <trkpt lat="47.85823" lon="5.88661">
        <ele>229.727</ele>
        <time>2019-09-25T09:21:32.001Z</time>
      </trkpt>
      <trkpt lat="47.85807" lon="5.8867">
        <ele>228.506</ele>
        <time>2019-09-25T09:21:35.001Z</time>
      </trkpt>
      <trkpt lat="47.8579" lon="5.88677">
        <ele>227.391</ele>
        <time>2019-09-25T09:21:38.001Z</time>
      </trkpt>
      <trkpt lat="47.85773" lon="5.88687">
        <ele>226.684</ele>
        <time>2019-09-25T09:21:41.001Z</time>
      </trkpt>
      <trkpt lat="47.85758" lon="5.88696">
        <ele>225.417</ele>
        <time>2019-09-25T09:21:44.001Z</time>
      </trkpt>
      <trkpt lat="47.85743" lon="5.88706">
        <ele>223.352</ele>
        <time>2019-09-25T09:21:47.001Z</time>
      </trkpt>
      <trkpt lat="47.8573" lon="5.88716">
        <ele>222.383</ele>
        <time>2019-09-25T09:21:50.001Z</time>
      </trkpt>
      <trkpt lat="47.85715" lon="5.88725">
        <ele>221.954</ele>
        <time>2019-09-25T09:21:53.001Z</time>
      </trkpt>
      <trkpt lat="47.85701" lon="5.88735">
        <ele>221.55</ele>
        <time>2019-09-25T09:21:56.001Z</time>
      </trkpt>
      <trkpt lat="47.85687" lon="5.88743">
        <ele>221.905</ele>
        <time>2019-09-25T09:21:59.001Z</time>
      </trkpt>
      <trkpt lat="47.85671" lon="5.88751">
        <ele>221.143</ele>
        <time>2019-09-25T11:22:02Z</time>
      </trkpt>
      <trkpt lat="47.85656" lon="5.8876">
        <ele>220.514</ele>
        <time>2019-09-25T09:22:05.001Z</time>
      </trkpt>
      <trkpt lat="47.85641" lon="5.8877">
        <ele>220.695</ele>
        <time>2019-09-25T09:22:08.001Z</time>
      </trkpt>
      <trkpt lat="47.85627" lon="5.88778">
        <ele>221.08</ele>
        <time>2019-09-25T09:22:11.001Z</time>
      </trkpt>
      <trkpt lat="47.85614" lon="5.88786">
        <ele>221.713</ele>
        <time>2019-09-25T09:22:14.001Z</time>
      </trkpt>
      <trkpt lat="47.85601" lon="5.88794">
        <ele>221.988</ele>
        <time>2019-09-25T09:22:17.001Z</time>
      </trkpt>
      <trkpt lat="47.85589" lon="5.88801">
        <ele>222.613</ele>
        <time>2019-09-25T09:22:20.001Z</time>
      </trkpt>
      <trkpt lat="47.85576" lon="5.88808">
        <ele>222.638</ele>
        <time>2019-09-25T09:22:23.001Z</time>
      </trkpt>
      <trkpt lat="47.85563" lon="5.88816">
        <ele>222.448</ele>
        <time>2019-09-25T09:22:26.001Z</time>
      </trkpt>
      <trkpt lat="47.8555" lon="5.88824">
        <ele>222.837</ele>
        <time>2019-09-25T09:22:29.001Z</time>
      </trkpt>
      <trkpt lat="47.85537" lon="5.88832">
        <ele>223.432</ele>
        <time>2019-09-25T09:22:32.001Z</time>
      </trkpt>
      <trkpt lat="47.85524" lon="5.8884">
        <ele>223.728</ele>
        <time>2019-09-25T09:22:35.001Z</time>
      </trkpt>
      <trkpt lat="47.85512" lon="5.88846">
        <ele>223.929</ele>
        <time>2019-09-25T09:22:38.001Z</time>
      </trkpt>
      <trkpt lat="47.85501" lon="5.88853">
        <ele>224.178</ele>
        <time>2019-09-25T09:22:41.001Z</time>
      </trkpt>
      <trkpt lat="47.85489" lon="5.8886">
        <ele>224.241</ele>
        <time>2019-09-25T09:22:44.001Z</time>
      </trkpt>
      <trkpt lat="47.85479" lon="5.88868">
        <ele>224.534</ele>
        <time>2019-09-25T09:22:47.001Z</time>
      </trkpt>
      <trkpt lat="47.85469" lon="5.88873">
        <ele>224.851</ele>
        <time>2019-09-25T09:22:50.001Z</time>
      </trkpt>
      <trkpt lat="47.85461" lon="5.88877">
        <ele>224.91</ele>
        <time>2019-09-25T09:22:53.001Z</time>
      </trkpt>
      <trkpt lat="47.85453" lon="5.88881">
        <ele>224.954</ele>
        <time>2019-09-25T09:22:56.001Z</time>
      </trkpt>
      <trkpt lat="47.85446" lon="5.88885">
        <ele>224.911</ele>
        <time>2019-09-25T09:22:59.001Z</time>
      </trkpt>
      <trkpt lat="47.85439" lon="5.8889">
        <ele>225.148</ele>
        <time>2019-09-25T11:23:02Z</time>
      </trkpt>
      <trkpt lat="47.85433" lon="5.88893">
        <ele>226.19</ele>
        <time>2019-09-25T09:23:05.001Z</time>
      </trkpt>
      <trkpt lat="47.85427" lon="5.88897">
        <ele>227.036</ele>
        <time>2019-09-25T09:23:08.001Z</time>
      </trkpt>
      <trkpt lat="47.85421" lon="5.889">
        <ele>227.549</ele>
        <time>2019-09-25T09:23:11.001Z</time>
      </trkpt>
      <trkpt lat="47.85414" lon="5.88904">
        <ele>228.075</ele>
        <time>2019-09-25T09:23:14.001Z</time>
      </trkpt>
      <trkpt lat="47.85408" lon="5.88907">
        <ele>228.513</ele>
        <time>2019-09-25T09:23:17.001Z</time>
      </trkpt>
      <trkpt lat="47.85401" lon="5.88912">
        <ele>228.909</ele>
        <time>2019-09-25T09:23:20.001Z</time>
      </trkpt>
      <trkpt lat="47.85394" lon="5.88916">
        <ele>229.011</ele>
        <time>2019-09-25T09:23:23.001Z</time>
      </trkpt>
      <trkpt lat="47.85386" lon="5.8892">
        <ele>229.251</ele>
        <time>2019-09-25T09:23:26.001Z</time>
      </trkpt>
      <trkpt lat="47.8538" lon="5.88924">
        <ele>229.681</ele>
        <time>2019-09-25T09:23:29.001Z</time>
      </trkpt>
      <trkpt lat="47.85374" lon="5.88928">
        <ele>229.75</ele>
        <time>2019-09-25T09:23:32.001Z</time>
      </trkpt>
      <trkpt lat="47.85367" lon="5.88932">
        <ele>230.201</ele>
        <time>2019-09-25T09:23:35.001Z</time>
      </trkpt>
      <trkpt lat="47.8536" lon="5.88936">
        <ele>230.704</ele>
        <time>2019-09-25T09:23:38.001Z</time>
      </trkpt>
      <trkpt lat="47.85354" lon="5.88941">
        <ele>231.492</ele>
        <time>2019-09-25T09:23:41.001Z</time>
      </trkpt>
      <trkpt lat="47.85347" lon="5.88945">
        <ele>232.24</ele>
        <time>2019-09-25T09:23:44.001Z</time>
      </trkpt>
      <trkpt lat="47.8534" lon="5.88948">
        <ele>232.829</ele>
        <time>2019-09-25T09:23:47.001Z</time>
      </trkpt>
      <trkpt lat="47.85333" lon="5.88952">
        <ele>233.485</ele>
        <time>2019-09-25T09:23:50.001Z</time>
      </trkpt>
      <trkpt lat="47.85325" lon="5.88956">
        <ele>233.925</ele>
        <time>2019-09-25T09:23:53.001Z</time>
      </trkpt>
      <trkpt lat="47.85318" lon="5.88961">
        <ele>234.298</ele>
        <time>2019-09-25T09:23:56.001Z</time>
      </trkpt>
      <trkpt lat="47.8531" lon="5.88965">
        <ele>234.931</ele>
        <time>2019-09-25T09:23:59.001Z</time>
      </trkpt>
      <trkpt lat="47.85303" lon="5.8897">
        <ele>235.623</ele>
        <time>2019-09-25T11:24:02Z</time>
      </trkpt>
      <trkpt lat="47.85295" lon="5.88975">
        <ele>235.445</ele>
        <time>2019-09-25T09:24:05.001Z</time>
      </trkpt>
      <trkpt lat="47.85287" lon="5.8898">
        <ele>234.925</ele>
        <time>2019-09-25T09:24:08.001Z</time>
      </trkpt>
      <trkpt lat="47.85278" lon="5.88985">
        <ele>234.902</ele>
        <time>2019-09-25T09:24:11.001Z</time>
      </trkpt>
      <trkpt lat="47.85268" lon="5.8899">
        <ele>235.309</ele>
        <time>2019-09-25T09:24:14.001Z</time>
      </trkpt>
      <trkpt lat="47.85256" lon="5.88995">
        <ele>235.701</ele>
        <time>2019-09-25T09:24:17.001Z</time>
      </trkpt>
      <trkpt lat="47.85244" lon="5.89002">
        <ele>235.702</ele>
        <time>2019-09-25T09:24:20.001Z</time>
      </trkpt>
      <trkpt lat="47.8523" lon="5.89009">
        <ele>235.479</ele>
        <time>2019-09-25T09:24:23.001Z</time>
      </trkpt>
      <trkpt lat="47.85217" lon="5.89018">
        <ele>235.123</ele>
        <time>2019-09-25T09:24:26.001Z</time>
      </trkpt>
      <trkpt lat="47.85202" lon="5.89027">
        <ele>234.568</ele>
        <time>2019-09-25T09:24:29.001Z</time>
      </trkpt>
      <trkpt lat="47.85187" lon="5.89037">
        <ele>234.079</ele>
        <time>2019-09-25T09:24:32.001Z</time>
      </trkpt>
      <trkpt lat="47.85171" lon="5.89046">
        <ele>233.371</ele>
        <time>2019-09-25T09:24:35.001Z</time>
      </trkpt>
      <trkpt lat="47.85155" lon="5.89055">
        <ele>232.708</ele>
        <time>2019-09-25T09:24:38.001Z</time>
      </trkpt>
      <trkpt lat="47.85138" lon="5.89064">
        <ele>231.707</ele>
        <time>2019-09-25T09:24:41.001Z</time>
      </trkpt>
      <trkpt lat="47.8512" lon="5.89074">
        <ele>230.856</ele>
        <time>2019-09-25T09:24:44.001Z</time>
      </trkpt>
      <trkpt lat="47.85103" lon="5.89085">
        <ele>230.118</ele>
        <time>2019-09-25T09:24:47.001Z</time>
      </trkpt>
      <trkpt lat="47.85085" lon="5.89095">
        <ele>229.544</ele>
        <time>2019-09-25T09:24:50.001Z</time>
      </trkpt>
      <trkpt lat="47.85068" lon="5.89105">
        <ele>228.994</ele>
        <time>2019-09-25T09:24:53.001Z</time>
      </trkpt>
      <trkpt lat="47.85051" lon="5.89115">
        <ele>228.151</ele>
        <time>2019-09-25T09:24:56.001Z</time>
      </trkpt>
      <trkpt lat="47.85036" lon="5.89124">
        <ele>227.52</ele>
        <time>2019-09-25T09:24:59.001Z</time>
      </trkpt>
      <trkpt lat="47.85021" lon="5.89133">
        <ele>226.959</ele>
        <time>2019-09-25T11:25:02Z</time>
      </trkpt>
      <trkpt lat="47.85007" lon="5.89142">
        <ele>226.674</ele>
        <time>2019-09-25T09:25:05.001Z</time>
      </trkpt>
      <trkpt lat="47.84993" lon="5.89149">
        <ele>226.647</ele>
        <time>2019-09-25T09:25:08.001Z</time>
      </trkpt>
      <trkpt lat="47.84978" lon="5.89156">
        <ele>226.524</ele>
        <time>2019-09-25T09:25:11.001Z</time>
      </trkpt>
      <trkpt lat="47.84964" lon="5.89164">
        <ele>226.207</ele>
        <time>2019-09-25T09:25:14.001Z</time>
      </trkpt>
      <trkpt lat="47.84951" lon="5.89171">
        <ele>226.124</ele>
        <time>2019-09-25T09:25:17.001Z</time>
      </trkpt>
      <trkpt lat="47.8494" lon="5.89178">
        <ele>226.01</ele>
        <time>2019-09-25T09:25:20.001Z</time>
      </trkpt>
      <trkpt lat="47.8493" lon="5.89184">
        <ele>226.014</ele>
        <time>2019-09-25T09:25:23.001Z</time>
      </trkpt>
      <trkpt lat="47.8492" lon="5.8919">
        <ele>226.083</ele>
        <time>2019-09-25T09:25:26.001Z</time>
      </trkpt>
      <trkpt lat="47.84911" lon="5.89196">
        <ele>226.682</ele>
        <time>2019-09-25T09:25:29.001Z</time>
      </trkpt>
      <trkpt lat="47.84902" lon="5.89201">
        <ele>227.346</ele>
        <time>2019-09-25T09:25:32.001Z</time>
      </trkpt>
      <trkpt lat="47.84892" lon="5.89206">
        <ele>228.218</ele>
        <time>2019-09-25T09:25:35.001Z</time>
      </trkpt>
      <trkpt lat="47.84883" lon="5.89212">
        <ele>229.238</ele>
        <time>2019-09-25T09:25:38.001Z</time>
      </trkpt>
      <trkpt lat="47.84873" lon="5.89216">
        <ele>230.514</ele>
        <time>2019-09-25T09:25:41.001Z</time>
      </trkpt>
      <trkpt lat="47.84865" lon="5.89221">
        <ele>231.56</ele>
        <time>2019-09-25T09:25:44.001Z</time>
      </trkpt>
      <trkpt lat="47.84856" lon="5.89227">
        <ele>233.039</ele>
        <time>2019-09-25T09:25:47.001Z</time>
      </trkpt>
      <trkpt lat="47.84849" lon="5.89232">
        <ele>234.417</ele>
        <time>2019-09-25T09:25:50.001Z</time>
      </trkpt>
      <trkpt lat="47.84841" lon="5.89237">
        <ele>235.768</ele>
        <time>2019-09-25T09:25:53.001Z</time>
      </trkpt>
      <trkpt lat="47.84835" lon="5.89241">
        <ele>237.211</ele>
        <time>2019-09-25T09:25:56.001Z</time>
      </trkpt>
      <trkpt lat="47.84828" lon="5.89245">
        <ele>238.613</ele>
        <time>2019-09-25T09:25:59.001Z</time>
      </trkpt>
      <trkpt lat="47.84821" lon="5.8925">
        <ele>240.153</ele>
        <time>2019-09-25T11:26:02Z</time>
      </trkpt>
      <trkpt lat="47.84814" lon="5.89255">
        <ele>241.302</ele>
        <time>2019-09-25T09:26:05.001Z</time>
      </trkpt>
      <trkpt lat="47.84806" lon="5.8926">
        <ele>242.978</ele>
        <time>2019-09-25T09:26:08.001Z</time>
      </trkpt>
      <trkpt lat="47.84799" lon="5.89265">
        <ele>244.649</ele>
        <time>2019-09-25T09:26:11.001Z</time>
      </trkpt>
      <trkpt lat="47.84792" lon="5.8927">
        <ele>246.39</ele>
        <time>2019-09-25T09:26:14.001Z</time>
      </trkpt>
      <trkpt lat="47.84786" lon="5.89275">
        <ele>248.141</ele>
        <time>2019-09-25T09:26:17.001Z</time>
      </trkpt>
      <trkpt lat="47.84779" lon="5.89278">
        <ele>250.057</ele>
        <time>2019-09-25T09:26:20.001Z</time>
      </trkpt>
      <trkpt lat="47.84773" lon="5.89281">
        <ele>251.108</ele>
        <time>2019-09-25T09:26:23.001Z</time>
      </trkpt>
      <trkpt lat="47.84765" lon="5.89284">
        <ele>252.511</ele>
        <time>2019-09-25T09:26:26.001Z</time>
      </trkpt>
      <trkpt lat="47.84758" lon="5.89286">
        <ele>252.813</ele>
        <time>2019-09-25T09:26:29.001Z</time>
      </trkpt>
      <trkpt lat="47.8475" lon="5.89288">
        <ele>253.036</ele>
        <time>2019-09-25T09:26:32.001Z</time>
      </trkpt>
      <trkpt lat="47.84742" lon="5.89292">
        <ele>252.857</ele>
        <time>2019-09-25T09:26:35.001Z</time>
      </trkpt>
      <trkpt lat="47.84733" lon="5.89296">
        <ele>252.391</ele>
        <time>2019-09-25T09:26:38.001Z</time>
      </trkpt>
      <trkpt lat="47.84724" lon="5.89299">
        <ele>252.271</ele>
        <time>2019-09-25T09:26:41.001Z</time>
      </trkpt>
      <trkpt lat="47.84716" lon="5.89304">
        <ele>252.042</ele>
        <time>2019-09-25T09:26:44.001Z</time>
      </trkpt>
      <trkpt lat="47.84708" lon="5.8931">
        <ele>251.356</ele>
        <time>2019-09-25T09:26:47.001Z</time>
      </trkpt>
      <trkpt lat="47.847" lon="5.89314">
        <ele>249.143</ele>
        <time>2019-09-25T09:26:50.001Z</time>
      </trkpt>
      <trkpt lat="47.84692" lon="5.89319">
        <ele>247.087</ele>
        <time>2019-09-25T09:26:53.001Z</time>
      </trkpt>
      <trkpt lat="47.84685" lon="5.89324">
        <ele>245.68</ele>
        <time>2019-09-25T09:26:56.001Z</time>
      </trkpt>
      <trkpt lat="47.84677" lon="5.89329">
        <ele>244.78</ele>
        <time>2019-09-25T09:26:59.001Z</time>
      </trkpt>
      <trkpt lat="47.84669" lon="5.89335">
        <ele>243.717</ele>
        <time>2019-09-25T11:27:02Z</time>
      </trkpt>
      <trkpt lat="47.8466" lon="5.89339">
        <ele>243.081</ele>
        <time>2019-09-25T09:27:05.001Z</time>
      </trkpt>
      <trkpt lat="47.84651" lon="5.89345">
        <ele>242.564</ele>
        <time>2019-09-25T09:27:08.001Z</time>
      </trkpt>
      <trkpt lat="47.84641" lon="5.8935">
        <ele>241.874</ele>
        <time>2019-09-25T09:27:11.001Z</time>
      </trkpt>
      <trkpt lat="47.84632" lon="5.89356">
        <ele>241.593</ele>
        <time>2019-09-25T09:27:14.001Z</time>
      </trkpt>
      <trkpt lat="47.84621" lon="5.89361">
        <ele>241.188</ele>
        <time>2019-09-25T09:27:17.001Z</time>
      </trkpt>
      <trkpt lat="47.84611" lon="5.89366">
        <ele>240.499</ele>
        <time>2019-09-25T09:27:20.001Z</time>
      </trkpt>
      <trkpt lat="47.84602" lon="5.89372">
        <ele>239.931</ele>
        <time>2019-09-25T09:27:23.001Z</time>
      </trkpt>
      <trkpt lat="47.84592" lon="5.89377">
        <ele>239.622</ele>
        <time>2019-09-25T09:27:26.001Z</time>
      </trkpt>
      <trkpt lat="47.84581" lon="5.89383">
        <ele>239.547</ele>
        <time>2019-09-25T09:27:29.001Z</time>
      </trkpt>
      <trkpt lat="47.84571" lon="5.89389">
        <ele>239.432</ele>
        <time>2019-09-25T09:27:32.001Z</time>
      </trkpt>
      <trkpt lat="47.8456" lon="5.89394">
        <ele>239.046</ele>
        <time>2019-09-25T09:27:35.001Z</time>
      </trkpt>
      <trkpt lat="47.8455" lon="5.89401">
        <ele>238.877</ele>
        <time>2019-09-25T09:27:38.001Z</time>
      </trkpt>
      <trkpt lat="47.84541" lon="5.89407">
        <ele>238.456</ele>
        <time>2019-09-25T09:27:41.001Z</time>
      </trkpt>
      <trkpt lat="47.84532" lon="5.89413">
        <ele>238.325</ele>
        <time>2019-09-25T09:27:44.001Z</time>
      </trkpt>
      <trkpt lat="47.84523" lon="5.89417">
        <ele>238.507</ele>
        <time>2019-09-25T09:27:47.001Z</time>
      </trkpt>
      <trkpt lat="47.84513" lon="5.89423">
        <ele>238.843</ele>
        <time>2019-09-25T09:27:50.001Z</time>
      </trkpt>
      <trkpt lat="47.84502" lon="5.89429">
        <ele>238.924</ele>
        <time>2019-09-25T09:27:53.001Z</time>
      </trkpt>
      <trkpt lat="47.84491" lon="5.89434">
        <ele>238.808</ele>
        <time>2019-09-25T09:27:56.001Z</time>
      </trkpt>
      <trkpt lat="47.84479" lon="5.89441">
        <ele>238.675</ele>
        <time>2019-09-25T09:27:59.001Z</time>
      </trkpt>
      <trkpt lat="47.84465" lon="5.89449">
        <ele>238.821</ele>
        <time>2019-09-25T11:28:02Z</time>
      </trkpt>
      <trkpt lat="47.84451" lon="5.89457">
        <ele>238.958</ele>
        <time>2019-09-25T09:28:05.001Z</time>
      </trkpt>
      <trkpt lat="47.84437" lon="5.89467">
        <ele>239.08</ele>
        <time>2019-09-25T09:28:08.001Z</time>
      </trkpt>
      <trkpt lat="47.84422" lon="5.89476">
        <ele>238.951</ele>
        <time>2019-09-25T09:28:11.001Z</time>
      </trkpt>
      <trkpt lat="47.84407" lon="5.89486">
        <ele>238.985</ele>
        <time>2019-09-25T09:28:14.001Z</time>
      </trkpt>
      <trkpt lat="47.84393" lon="5.89494">
        <ele>238.698</ele>
        <time>2019-09-25T09:28:17.001Z</time>
      </trkpt>
      <trkpt lat="47.84376" lon="5.89505">
        <ele>238.669</ele>
        <time>2019-09-25T09:28:20.001Z</time>
      </trkpt>
      <trkpt lat="47.84357" lon="5.89517">
        <ele>238.41</ele>
        <time>2019-09-25T09:28:23.001Z</time>
      </trkpt>
      <trkpt lat="47.84339" lon="5.89528">
        <ele>237.739</ele>
        <time>2019-09-25T09:28:26.001Z</time>
      </trkpt>
      <trkpt lat="47.84321" lon="5.89539">
        <ele>236.731</ele>
        <time>2019-09-25T09:28:29.001Z</time>
      </trkpt>
      <trkpt lat="47.84302" lon="5.89551">
        <ele>235.504</ele>
        <time>2019-09-25T09:28:32.001Z</time>
      </trkpt>
      <trkpt lat="47.84281" lon="5.89564">
        <ele>234.369</ele>
        <time>2019-09-25T09:28:35.001Z</time>
      </trkpt>
      <trkpt lat="47.8426" lon="5.89578">
        <ele>233.319</ele>
        <time>2019-09-25T09:28:38.001Z</time>
      </trkpt>
      <trkpt lat="47.84239" lon="5.89595">
        <ele>232.616</ele>
        <time>2019-09-25T09:28:41.001Z</time>
      </trkpt>
      <trkpt lat="47.84218" lon="5.89614">
        <ele>231.948</ele>
        <time>2019-09-25T09:28:44.001Z</time>
      </trkpt>
      <trkpt lat="47.84199" lon="5.89631">
        <ele>231.317</ele>
        <time>2019-09-25T09:28:47.001Z</time>
      </trkpt>
      <trkpt lat="47.84182" lon="5.89647">
        <ele>230.915</ele>
        <time>2019-09-25T09:28:50.001Z</time>
      </trkpt>
      <trkpt lat="47.84167" lon="5.89663">
        <ele>230.581</ele>
        <time>2019-09-25T09:28:53.001Z</time>
      </trkpt>
      <trkpt lat="47.84154" lon="5.89677">
        <ele>229.966</ele>
        <time>2019-09-25T09:28:56.001Z</time>
      </trkpt>
      <trkpt lat="47.84143" lon="5.89688">
        <ele>229.609</ele>
        <time>2019-09-25T09:28:59.001Z</time>
      </trkpt>
      <trkpt lat="47.84134" lon="5.89696">
        <ele>229.187</ele>
        <time>2019-09-25T11:29:02Z</time>
      </trkpt>
      <trkpt lat="47.84126" lon="5.89704">
        <ele>229.488</ele>
        <time>2019-09-25T09:29:05.001Z</time>
      </trkpt>
      <trkpt lat="47.84118" lon="5.89712">
        <ele>229.926</ele>
        <time>2019-09-25T09:29:08.001Z</time>
      </trkpt>
      <trkpt lat="47.8411" lon="5.89719">
        <ele>230.747</ele>
        <time>2019-09-25T09:29:11.001Z</time>
      </trkpt>
      <trkpt lat="47.84103" lon="5.89725">
        <ele>231.652</ele>
        <time>2019-09-25T09:29:14.001Z</time>
      </trkpt>
      <trkpt lat="47.84097" lon="5.89732">
        <ele>232.535</ele>
        <time>2019-09-25T09:29:17.001Z</time>
      </trkpt>
      <trkpt lat="47.84091" lon="5.89739">
        <ele>233.17</ele>
        <time>2019-09-25T09:29:20.001Z</time>
      </trkpt>
      <trkpt lat="47.84085" lon="5.89744">
        <ele>233.685</ele>
        <time>2019-09-25T09:29:23.001Z</time>
      </trkpt>
      <trkpt lat="47.84079" lon="5.8975">
        <ele>233.975</ele>
        <time>2019-09-25T09:29:26.001Z</time>
      </trkpt>
      <trkpt lat="47.84071" lon="5.89756">
        <ele>234.932</ele>
        <time>2019-09-25T09:29:29.001Z</time>
      </trkpt>
      <trkpt lat="47.84065" lon="5.89762">
        <ele>235.651</ele>
        <time>2019-09-25T09:29:32.001Z</time>
      </trkpt>
      <trkpt lat="47.84059" lon="5.89768">
        <ele>236.602</ele>
        <time>2019-09-25T09:29:35.001Z</time>
      </trkpt>
      <trkpt lat="47.84052" lon="5.89775">
        <ele>237.422</ele>
        <time>2019-09-25T09:29:38.001Z</time>
      </trkpt>
      <trkpt lat="47.84046" lon="5.8978">
        <ele>238.211</ele>
        <time>2019-09-25T09:29:41.001Z</time>
      </trkpt>
      <trkpt lat="47.8404" lon="5.89786">
        <ele>238.979</ele>
        <time>2019-09-25T09:29:44.001Z</time>
      </trkpt>
      <trkpt lat="47.84034" lon="5.8979">
        <ele>238.291</ele>
        <time>2019-09-25T09:29:47.001Z</time>
      </trkpt>
      <trkpt lat="47.84028" lon="5.89795">
        <ele>238.499</ele>
        <time>2019-09-25T09:29:50.001Z</time>
      </trkpt>
      <trkpt lat="47.84022" lon="5.89801">
        <ele>238.909</ele>
        <time>2019-09-25T09:29:53.001Z</time>
      </trkpt>
      <trkpt lat="47.84015" lon="5.89808">
        <ele>239.381</ele>
        <time>2019-09-25T09:29:56.001Z</time>
      </trkpt>
      <trkpt lat="47.84007" lon="5.89814">
        <ele>239.519</ele>
        <time>2019-09-25T09:29:59.001Z</time>
      </trkpt>
      <trkpt lat="47.83999" lon="5.89822">
        <ele>239.503</ele>
        <time>2019-09-25T11:30:02Z</time>
      </trkpt>
      <trkpt lat="47.83989" lon="5.8983">
        <ele>239.241</ele>
        <time>2019-09-25T09:30:05.001Z</time>
      </trkpt>
      <trkpt lat="47.83977" lon="5.89839">
        <ele>239.023</ele>
        <time>2019-09-25T09:30:08.001Z</time>
      </trkpt>
      <trkpt lat="47.83961" lon="5.89851">
        <ele>238.676</ele>
        <time>2019-09-25T09:30:11.001Z</time>
      </trkpt>
      <trkpt lat="47.83944" lon="5.89864">
        <ele>238.435</ele>
        <time>2019-09-25T09:30:14.001Z</time>
      </trkpt>
      <trkpt lat="47.83926" lon="5.89877">
        <ele>237.597</ele>
        <time>2019-09-25T09:30:17.001Z</time>
      </trkpt>
      <trkpt lat="47.83906" lon="5.89892">
        <ele>236.688</ele>
        <time>2019-09-25T09:30:20.001Z</time>
      </trkpt>
      <trkpt lat="47.83885" lon="5.89909">
        <ele>235.925</ele>
        <time>2019-09-25T09:30:23.001Z</time>
      </trkpt>
      <trkpt lat="47.83863" lon="5.89926">
        <ele>235.19</ele>
        <time>2019-09-25T09:30:26.001Z</time>
      </trkpt>
      <trkpt lat="47.83839" lon="5.89942">
        <ele>234.625</ele>
        <time>2019-09-25T09:30:29.001Z</time>
      </trkpt>
      <trkpt lat="47.83815" lon="5.89961">
        <ele>233.364</ele>
        <time>2019-09-25T09:30:32.001Z</time>
      </trkpt>
      <trkpt lat="47.8379" lon="5.89979">
        <ele>231.485</ele>
        <time>2019-09-25T09:30:35.001Z</time>
      </trkpt>
      <trkpt lat="47.83764" lon="5.90002">
        <ele>229.749</ele>
        <time>2019-09-25T09:30:38.001Z</time>
      </trkpt>
      <trkpt lat="47.8375" lon="5.90039">
        <ele>228.728</ele>
        <time>2019-09-25T09:30:41.001Z</time>
      </trkpt>
      <trkpt lat="47.8375" lon="5.90081">
        <ele>227.838</ele>
        <time>2019-09-25T09:30:44.001Z</time>
      </trkpt>
      <trkpt lat="47.83749" lon="5.9012">
        <ele>227.059</ele>
        <time>2019-09-25T09:30:47.001Z</time>
      </trkpt>
      <trkpt lat="47.83746" lon="5.90156">
        <ele>226.057</ele>
        <time>2019-09-25T09:30:50.001Z</time>
      </trkpt>
      <trkpt lat="47.83749" lon="5.90189">
        <ele>225.958</ele>
        <time>2019-09-25T09:30:53.001Z</time>
      </trkpt>
      <trkpt lat="47.83756" lon="5.9022">
        <ele>225.462</ele>
        <time>2019-09-25T09:30:56.001Z</time>
      </trkpt>
      <trkpt lat="47.83756" lon="5.90247">
        <ele>225.073</ele>
        <time>2019-09-25T09:30:59.001Z</time>
      </trkpt>
      <trkpt lat="47.83753" lon="5.90273">
        <ele>225.477</ele>
        <time>2019-09-25T11:31:02Z</time>
      </trkpt>
      <trkpt lat="47.83752" lon="5.90297">
        <ele>225.722</ele>
        <time>2019-09-25T09:31:05.001Z</time>
      </trkpt>
      <trkpt lat="47.83749" lon="5.90323">
        <ele>225.969</ele>
        <time>2019-09-25T09:31:08.001Z</time>
      </trkpt>
      <trkpt lat="47.83747" lon="5.90349">
        <ele>226.214</ele>
        <time>2019-09-25T09:31:11.001Z</time>
      </trkpt>
      <trkpt lat="47.83744" lon="5.90374">
        <ele>226.189</ele>
        <time>2019-09-25T09:31:14.001Z</time>
      </trkpt>
      <trkpt lat="47.83742" lon="5.90398">
        <ele>226.651</ele>
        <time>2019-09-25T09:31:17.001Z</time>
      </trkpt>
      <trkpt lat="47.8374" lon="5.90422">
        <ele>226.843</ele>
        <time>2019-09-25T09:31:20.001Z</time>
      </trkpt>
      <trkpt lat="47.83737" lon="5.90446">
        <ele>227.513</ele>
        <time>2019-09-25T09:31:23.001Z</time>
      </trkpt>
      <trkpt lat="47.83735" lon="5.90468">
        <ele>228.275</ele>
        <time>2019-09-25T09:31:26.001Z</time>
      </trkpt>
      <trkpt lat="47.83734" lon="5.90491">
        <ele>228.75</ele>
        <time>2019-09-25T09:31:29.001Z</time>
      </trkpt>
      <trkpt lat="47.83734" lon="5.90516">
        <ele>228.669</ele>
        <time>2019-09-25T09:31:32.001Z</time>
      </trkpt>
      <trkpt lat="47.83734" lon="5.90541">
        <ele>228.001</ele>
        <time>2019-09-25T09:31:35.001Z</time>
      </trkpt>
      <trkpt lat="47.83733" lon="5.90567">
        <ele>226.875</ele>
        <time>2019-09-25T09:31:38.001Z</time>
      </trkpt>
      <trkpt lat="47.83731" lon="5.90592">
        <ele>225.941</ele>
        <time>2019-09-25T09:31:41.001Z</time>
      </trkpt>
      <trkpt lat="47.8373" lon="5.90617">
        <ele>225.133</ele>
        <time>2019-09-25T09:31:44.001Z</time>
      </trkpt>
      <trkpt lat="47.83729" lon="5.90643">
        <ele>224.444</ele>
        <time>2019-09-25T09:31:47.001Z</time>
      </trkpt>
      <trkpt lat="47.83727" lon="5.90668">
        <ele>224.29</ele>
        <time>2019-09-25T09:31:50.001Z</time>
      </trkpt>
      <trkpt lat="47.83726" lon="5.90693">
        <ele>224.463</ele>
        <time>2019-09-25T09:31:53.001Z</time>
      </trkpt>
      <trkpt lat="47.83723" lon="5.90717">
        <ele>225.219</ele>
        <time>2019-09-25T09:31:56.001Z</time>
      </trkpt>
      <trkpt lat="47.83719" lon="5.90739">
        <ele>225.992</ele>
        <time>2019-09-25T09:31:59.001Z</time>
      </trkpt>
      <trkpt lat="47.83716" lon="5.9076">
        <ele>226.282</ele>
        <time>2019-09-25T11:32:02Z</time>
      </trkpt>
      <trkpt lat="47.83713" lon="5.90782">
        <ele>226.725</ele>
        <time>2019-09-25T09:32:05.001Z</time>
      </trkpt>
      <trkpt lat="47.83709" lon="5.90804">
        <ele>226.543</ele>
        <time>2019-09-25T09:32:08.001Z</time>
      </trkpt>
      <trkpt lat="47.83707" lon="5.90828">
        <ele>226.813</ele>
        <time>2019-09-25T09:32:11.001Z</time>
      </trkpt>
      <trkpt lat="47.83708" lon="5.9085">
        <ele>226.848</ele>
        <time>2019-09-25T09:32:14.001Z</time>
      </trkpt>
      <trkpt lat="47.83712" lon="5.90872">
        <ele>226.799</ele>
        <time>2019-09-25T09:32:17.001Z</time>
      </trkpt>
      <trkpt lat="47.83717" lon="5.90892">
        <ele>226.434</ele>
        <time>2019-09-25T09:32:20.001Z</time>
      </trkpt>
      <trkpt lat="47.83723" lon="5.90911">
        <ele>226.233</ele>
        <time>2019-09-25T09:32:23.001Z</time>
      </trkpt>
      <trkpt lat="47.83729" lon="5.90928">
        <ele>226.144</ele>
        <time>2019-09-25T09:32:26.001Z</time>
      </trkpt>
      <trkpt lat="47.83734" lon="5.90946">
        <ele>226.09</ele>
        <time>2019-09-25T09:32:29.001Z</time>
      </trkpt>
      <trkpt lat="47.8374" lon="5.90961">
        <ele>226.177</ele>
        <time>2019-09-25T09:32:32.001Z</time>
      </trkpt>
      <trkpt lat="47.83747" lon="5.90977">
        <ele>226.067</ele>
        <time>2019-09-25T09:32:35.001Z</time>
      </trkpt>
      <trkpt lat="47.83753" lon="5.90991">
        <ele>226.402</ele>
        <time>2019-09-25T09:32:38.001Z</time>
      </trkpt>
      <trkpt lat="47.83757" lon="5.91007">
        <ele>227.183</ele>
        <time>2019-09-25T09:32:41.001Z</time>
      </trkpt>
      <trkpt lat="47.83762" lon="5.91023">
        <ele>227.814</ele>
        <time>2019-09-25T09:32:44.001Z</time>
      </trkpt>
      <trkpt lat="47.83768" lon="5.91039">
        <ele>228.2</ele>
        <time>2019-09-25T09:32:47.001Z</time>
      </trkpt>
      <trkpt lat="47.83772" lon="5.91052">
        <ele>230.337</ele>
        <time>2019-09-25T09:32:50.001Z</time>
      </trkpt>
      <trkpt lat="47.83776" lon="5.91067">
        <ele>231.716</ele>
        <time>2019-09-25T09:32:53.001Z</time>
      </trkpt>
      <trkpt lat="47.8378" lon="5.91082">
        <ele>232.649</ele>
        <time>2019-09-25T09:32:56.001Z</time>
      </trkpt>
      <trkpt lat="47.83785" lon="5.91098">
        <ele>232.988</ele>
        <time>2019-09-25T09:32:59.001Z</time>
      </trkpt>
      <trkpt lat="47.83791" lon="5.91113">
        <ele>233.307</ele>
        <time>2019-09-25T11:33:02Z</time>
      </trkpt>
      <trkpt lat="47.83796" lon="5.91129">
        <ele>233</ele>
        <time>2019-09-25T09:33:05.001Z</time>
      </trkpt>
      <trkpt lat="47.83801" lon="5.91144">
        <ele>232.6</ele>
        <time>2019-09-25T09:33:08.001Z</time>
      </trkpt>
      <trkpt lat="47.83805" lon="5.91158">
        <ele>232.601</ele>
        <time>2019-09-25T09:33:11.001Z</time>
      </trkpt>
      <trkpt lat="47.83808" lon="5.91171">
        <ele>232.347</ele>
        <time>2019-09-25T09:33:14.001Z</time>
      </trkpt>
      <trkpt lat="47.83813" lon="5.91185">
        <ele>232.909</ele>
        <time>2019-09-25T09:33:17.001Z</time>
      </trkpt>
      <trkpt lat="47.83816" lon="5.91198">
        <ele>233.418</ele>
        <time>2019-09-25T09:33:20.001Z</time>
      </trkpt>
      <trkpt lat="47.83821" lon="5.91214">
        <ele>234.081</ele>
        <time>2019-09-25T09:33:23.001Z</time>
      </trkpt>
      <trkpt lat="47.83825" lon="5.91229">
        <ele>234.304</ele>
        <time>2019-09-25T09:33:26.001Z</time>
      </trkpt>
      <trkpt lat="47.83832" lon="5.91245">
        <ele>233.909</ele>
        <time>2019-09-25T09:33:29.001Z</time>
      </trkpt>
      <trkpt lat="47.83836" lon="5.91261">
        <ele>233.808</ele>
        <time>2019-09-25T09:33:32.001Z</time>
      </trkpt>
      <trkpt lat="47.8384" lon="5.91277">
        <ele>233.954</ele>
        <time>2019-09-25T09:33:35.001Z</time>
      </trkpt>
      <trkpt lat="47.83846" lon="5.91292">
        <ele>233.449</ele>
        <time>2019-09-25T09:33:38.001Z</time>
      </trkpt>
      <trkpt lat="47.83851" lon="5.91307">
        <ele>233.584</ele>
        <time>2019-09-25T09:33:41.001Z</time>
      </trkpt>
      <trkpt lat="47.83856" lon="5.91322">
        <ele>233.597</ele>
        <time>2019-09-25T09:33:44.001Z</time>
      </trkpt>
      <trkpt lat="47.83861" lon="5.91336">
        <ele>233.085</ele>
        <time>2019-09-25T09:33:47.001Z</time>
      </trkpt>
      <trkpt lat="47.83866" lon="5.91351">
        <ele>232.582</ele>
        <time>2019-09-25T09:33:50.001Z</time>
      </trkpt>
      <trkpt lat="47.83871" lon="5.91365">
        <ele>232.584</ele>
        <time>2019-09-25T09:33:53.001Z</time>
      </trkpt>
      <trkpt lat="47.83877" lon="5.91379">
        <ele>232.182</ele>
        <time>2019-09-25T09:33:56.001Z</time>
      </trkpt>
      <trkpt lat="47.83883" lon="5.91394">
        <ele>232.144</ele>
        <time>2019-09-25T09:33:59.001Z</time>
      </trkpt>
      <trkpt lat="47.83889" lon="5.9141">
        <ele>232.266</ele>
        <time>2019-09-25T11:34:02Z</time>
      </trkpt>
      <trkpt lat="47.83896" lon="5.91427">
        <ele>232.444</ele>
        <time>2019-09-25T09:34:05.001Z</time>
      </trkpt>
      <trkpt lat="47.83904" lon="5.91445">
        <ele>232.874</ele>
        <time>2019-09-25T09:34:08.001Z</time>
      </trkpt>
      <trkpt lat="47.83913" lon="5.91466">
        <ele>233.018</ele>
        <time>2019-09-25T09:34:11.001Z</time>
      </trkpt>
      <trkpt lat="47.83922" lon="5.91486">
        <ele>232.28</ele>
        <time>2019-09-25T09:34:14.001Z</time>
      </trkpt>
      <trkpt lat="47.83933" lon="5.91508">
        <ele>231.184</ele>
        <time>2019-09-25T09:34:17.001Z</time>
      </trkpt>
      <trkpt lat="47.83947" lon="5.91532">
        <ele>229.948</ele>
        <time>2019-09-25T09:34:20.001Z</time>
      </trkpt>
      <trkpt lat="47.83965" lon="5.91559">
        <ele>228.239</ele>
        <time>2019-09-25T09:34:23.001Z</time>
      </trkpt>
      <trkpt lat="47.83985" lon="5.91585">
        <ele>226.707</ele>
        <time>2019-09-25T09:34:26.001Z</time>
      </trkpt>
      <trkpt lat="47.84009" lon="5.9161">
        <ele>225.754</ele>
        <time>2019-09-25T09:34:29.001Z</time>
      </trkpt>
      <trkpt lat="47.84027" lon="5.91641">
        <ele>225.045</ele>
        <time>2019-09-25T09:34:32.001Z</time>
      </trkpt>
      <trkpt lat="47.84038" lon="5.91672">
        <ele>224.563</ele>
        <time>2019-09-25T09:34:35.001Z</time>
      </trkpt>
      <trkpt lat="47.84044" lon="5.917">
        <ele>224.081</ele>
        <time>2019-09-25T09:34:38.001Z</time>
      </trkpt>
      <trkpt lat="47.84048" lon="5.91723">
        <ele>223.853</ele>
        <time>2019-09-25T09:34:41.001Z</time>
      </trkpt>
      <trkpt lat="47.84051" lon="5.91744">
        <ele>223.743</ele>
        <time>2019-09-25T09:34:44.001Z</time>
      </trkpt>
      <trkpt lat="47.84054" lon="5.91763">
        <ele>223.706</ele>
        <time>2019-09-25T09:34:47.001Z</time>
      </trkpt>
      <trkpt lat="47.84057" lon="5.91782">
        <ele>224.357</ele>
        <time>2019-09-25T09:34:50.001Z</time>
      </trkpt>
      <trkpt lat="47.8406" lon="5.91804">
        <ele>224.888</ele>
        <time>2019-09-25T09:34:53.001Z</time>
      </trkpt>
      <trkpt lat="47.84063" lon="5.91828">
        <ele>224.695</ele>
        <time>2019-09-25T09:34:56.001Z</time>
      </trkpt>
      <trkpt lat="47.84068" lon="5.91854">
        <ele>224.412</ele>
        <time>2019-09-25T09:34:59.001Z</time>
      </trkpt>
      <trkpt lat="47.84074" lon="5.91883">
        <ele>224.139</ele>
        <time>2019-09-25T11:35:02Z</time>
      </trkpt>
      <trkpt lat="47.84081" lon="5.91913">
        <ele>223.945</ele>
        <time>2019-09-25T09:35:05.001Z</time>
      </trkpt>
      <trkpt lat="47.84089" lon="5.91944">
        <ele>223.846</ele>
        <time>2019-09-25T09:35:08.001Z</time>
      </trkpt>
      <trkpt lat="47.84097" lon="5.91975">
        <ele>223.415</ele>
        <time>2019-09-25T09:35:11.001Z</time>
      </trkpt>
      <trkpt lat="47.84105" lon="5.92006">
        <ele>222.664</ele>
        <time>2019-09-25T09:35:14.001Z</time>
      </trkpt>
      <trkpt lat="47.84113" lon="5.92036">
        <ele>222.054</ele>
        <time>2019-09-25T09:35:17.001Z</time>
      </trkpt>
      <trkpt lat="47.8412" lon="5.92063">
        <ele>221.541</ele>
        <time>2019-09-25T09:35:20.001Z</time>
      </trkpt>
      <trkpt lat="47.84126" lon="5.92089">
        <ele>220.995</ele>
        <time>2019-09-25T09:35:23.001Z</time>
      </trkpt>
      <trkpt lat="47.84133" lon="5.92114">
        <ele>220.846</ele>
        <time>2019-09-25T09:35:26.001Z</time>
      </trkpt>
      <trkpt lat="47.8414" lon="5.92139">
        <ele>220.54</ele>
        <time>2019-09-25T09:35:29.001Z</time>
      </trkpt>
      <trkpt lat="47.84146" lon="5.92162">
        <ele>220.421</ele>
        <time>2019-09-25T09:35:32.001Z</time>
      </trkpt>
      <trkpt lat="47.84153" lon="5.92186">
        <ele>220.511</ele>
        <time>2019-09-25T09:35:35.001Z</time>
      </trkpt>
      <trkpt lat="47.8416" lon="5.92209">
        <ele>220.784</ele>
        <time>2019-09-25T09:35:38.001Z</time>
      </trkpt>
      <trkpt lat="47.84166" lon="5.92231">
        <ele>221.505</ele>
        <time>2019-09-25T09:35:41.001Z</time>
      </trkpt>
      <trkpt lat="47.84172" lon="5.92253">
        <ele>221.997</ele>
        <time>2019-09-25T09:35:44.001Z</time>
      </trkpt>
      <trkpt lat="47.84178" lon="5.92275">
        <ele>222.238</ele>
        <time>2019-09-25T09:35:47.001Z</time>
      </trkpt>
      <trkpt lat="47.84183" lon="5.92295">
        <ele>222.721</ele>
        <time>2019-09-25T09:35:50.001Z</time>
      </trkpt>
      <trkpt lat="47.84187" lon="5.92314">
        <ele>223.158</ele>
        <time>2019-09-25T09:35:53.001Z</time>
      </trkpt>
      <trkpt lat="47.84192" lon="5.92333">
        <ele>223.118</ele>
        <time>2019-09-25T09:35:56.001Z</time>
      </trkpt>
      <trkpt lat="47.84197" lon="5.92352">
        <ele>223.559</ele>
        <time>2019-09-25T09:35:59.001Z</time>
      </trkpt>
      <trkpt lat="47.84202" lon="5.9237">
        <ele>224.274</ele>
        <time>2019-09-25T11:36:02Z</time>
      </trkpt>
      <trkpt lat="47.84207" lon="5.92387">
        <ele>224.512</ele>
        <time>2019-09-25T09:36:05.001Z</time>
      </trkpt>
      <trkpt lat="47.84211" lon="5.92402">
        <ele>224.904</ele>
        <time>2019-09-25T09:36:08.001Z</time>
      </trkpt>
      <trkpt lat="47.84218" lon="5.92421">
        <ele>225.147</ele>
        <time>2019-09-25T09:36:11.001Z</time>
      </trkpt>
      <trkpt lat="47.84224" lon="5.92438">
        <ele>224.798</ele>
        <time>2019-09-25T09:36:14.001Z</time>
      </trkpt>
      <trkpt lat="47.84233" lon="5.92448">
        <ele>224.771</ele>
        <time>2019-09-25T09:36:17.001Z</time>
      </trkpt>
      <trkpt lat="47.84241" lon="5.92456">
        <ele>225.744</ele>
        <time>2019-09-25T09:36:20.001Z</time>
      </trkpt>
      <trkpt lat="47.84246" lon="5.92465">
        <ele>226.155</ele>
        <time>2019-09-25T09:36:23.001Z</time>
      </trkpt>
      <trkpt lat="47.84249" lon="5.92475">
        <ele>226.838</ele>
        <time>2019-09-25T09:36:26.001Z</time>
      </trkpt>
      <trkpt lat="47.84252" lon="5.92485">
        <ele>227.418</ele>
        <time>2019-09-25T09:36:29.001Z</time>
      </trkpt>
      <trkpt lat="47.84253" lon="5.92497">
        <ele>227.972</ele>
        <time>2019-09-25T09:36:32.001Z</time>
      </trkpt>
      <trkpt lat="47.84255" lon="5.92507">
        <ele>229.036</ele>
        <time>2019-09-25T09:36:35.001Z</time>
      </trkpt>
      <trkpt lat="47.84256" lon="5.92518">
        <ele>229.871</ele>
        <time>2019-09-25T09:36:38.001Z</time>
      </trkpt>
      <trkpt lat="47.84258" lon="5.92529">
        <ele>231.138</ele>
        <time>2019-09-25T09:36:41.001Z</time>
      </trkpt>
      <trkpt lat="47.84261" lon="5.92541">
        <ele>232.464</ele>
        <time>2019-09-25T09:36:44.001Z</time>
      </trkpt>
      <trkpt lat="47.84268" lon="5.92556">
        <ele>233.812</ele>
        <time>2019-09-25T09:36:47.001Z</time>
      </trkpt>
      <trkpt lat="47.84271" lon="5.92569">
        <ele>233.988</ele>
        <time>2019-09-25T09:36:50.001Z</time>
      </trkpt>
      <trkpt lat="47.84272" lon="5.92581">
        <ele>233.681</ele>
        <time>2019-09-25T09:36:53.001Z</time>
      </trkpt>
      <trkpt lat="47.84274" lon="5.92591">
        <ele>233.777</ele>
        <time>2019-09-25T09:36:56.001Z</time>
      </trkpt>
      <trkpt lat="47.8428" lon="5.92597">
        <ele>234.26</ele>
        <time>2019-09-25T11:37:02Z</time>
      </trkpt>
      <trkpt lat="47.8428" lon="5.92597">
        <ele>234.26</ele>
        <time>2019-09-25T09:37:05.001Z</time>
      </trkpt>
      <trkpt lat="47.8428" lon="5.92597">
        <ele>234.26</ele>
        <time>2019-09-25T09:38:38.001Z</time>
      </trkpt>
      <trkpt lat="47.84279" lon="5.92597">
        <ele>233.789</ele>
        <time>2019-09-25T09:38:41.001Z</time>
      </trkpt>
      <trkpt lat="47.84278" lon="5.92597">
        <ele>232.894</ele>
        <time>2019-09-25T09:38:44.001Z</time>
      </trkpt>
      <trkpt lat="47.84277" lon="5.92598">
        <ele>233.291</ele>
        <time>2019-09-25T09:39:11.001Z</time>
      </trkpt>
      <trkpt lat="47.84275" lon="5.926">
        <ele>233.58</ele>
        <time>2019-09-25T09:39:14.001Z</time>
      </trkpt>
      <trkpt lat="47.84274" lon="5.92608">
        <ele>232.881</ele>
        <time>2019-09-25T09:39:17.001Z</time>
      </trkpt>
      <trkpt lat="47.84273" lon="5.92619">
        <ele>231.935</ele>
        <time>2019-09-25T09:39:20.001Z</time>
      </trkpt>
      <trkpt lat="47.84272" lon="5.92634">
        <ele>231.763</ele>
        <time>2019-09-25T09:39:23.001Z</time>
      </trkpt>
      <trkpt lat="47.84271" lon="5.92652">
        <ele>231.496</ele>
        <time>2019-09-25T09:39:26.001Z</time>
      </trkpt>
      <trkpt lat="47.84267" lon="5.92669">
        <ele>232.256</ele>
        <time>2019-09-25T09:39:29.001Z</time>
      </trkpt>
      <trkpt lat="47.84265" lon="5.92687">
        <ele>232.859</ele>
        <time>2019-09-25T09:39:32.001Z</time>
      </trkpt>
      <trkpt lat="47.84262" lon="5.92704">
        <ele>233.482</ele>
        <time>2019-09-25T09:39:35.001Z</time>
      </trkpt>
      <trkpt lat="47.8426" lon="5.92721">
        <ele>233.623</ele>
        <time>2019-09-25T09:39:38.001Z</time>
      </trkpt>
      <trkpt lat="47.84258" lon="5.92736">
        <ele>233.25</ele>
        <time>2019-09-25T09:39:41.001Z</time>
      </trkpt>
      <trkpt lat="47.84254" lon="5.9275">
        <ele>232.927</ele>
        <time>2019-09-25T09:39:44.001Z</time>
      </trkpt>
      <trkpt lat="47.8425" lon="5.92765">
        <ele>232.941</ele>
        <time>2019-09-25T09:39:47.001Z</time>
      </trkpt>
      <trkpt lat="47.84248" lon="5.92782">
        <ele>233.115</ele>
        <time>2019-09-25T09:39:50.001Z</time>
      </trkpt>
      <trkpt lat="47.84246" lon="5.92801">
        <ele>232.521</ele>
        <time>2019-09-25T09:39:53.001Z</time>
      </trkpt>
      <trkpt lat="47.84243" lon="5.92818">
        <ele>231.165</ele>
        <time>2019-09-25T09:39:56.001Z</time>
      </trkpt>
      <trkpt lat="47.84243" lon="5.92837">
        <ele>230.274</ele>
        <time>2019-09-25T09:39:59.001Z</time>
      </trkpt>
      <trkpt lat="47.84244" lon="5.92856">
        <ele>229.58</ele>
        <time>2019-09-25T11:40:02Z</time>
      </trkpt>
      <trkpt lat="47.84245" lon="5.92875">
        <ele>229.105</ele>
        <time>2019-09-25T09:40:05.001Z</time>
      </trkpt>
      <trkpt lat="47.84244" lon="5.92895">
        <ele>228.363</ele>
        <time>2019-09-25T09:40:08.001Z</time>
      </trkpt>
      <trkpt lat="47.84242" lon="5.92915">
        <ele>227.87</ele>
        <time>2019-09-25T09:40:11.001Z</time>
      </trkpt>
      <trkpt lat="47.84239" lon="5.92932">
        <ele>227.684</ele>
        <time>2019-09-25T09:40:14.001Z</time>
      </trkpt>
      <trkpt lat="47.84234" lon="5.92949">
        <ele>228.185</ele>
        <time>2019-09-25T09:40:17.001Z</time>
      </trkpt>
      <trkpt lat="47.84227" lon="5.92962">
        <ele>228.49</ele>
        <time>2019-09-25T09:40:20.001Z</time>
      </trkpt>
      <trkpt lat="47.8422" lon="5.92972">
        <ele>228.488</ele>
        <time>2019-09-25T09:40:23.001Z</time>
      </trkpt>
      <trkpt lat="47.84213" lon="5.92981">
        <ele>228.88</ele>
        <time>2019-09-25T09:40:26.001Z</time>
      </trkpt>
      <trkpt lat="47.84205" lon="5.9299">
        <ele>229.851</ele>
        <time>2019-09-25T09:40:29.001Z</time>
      </trkpt>
      <trkpt lat="47.84196" lon="5.92999">
        <ele>230.476</ele>
        <time>2019-09-25T09:40:32.001Z</time>
      </trkpt>
      <trkpt lat="47.84187" lon="5.9301">
        <ele>230.861</ele>
        <time>2019-09-25T09:40:35.001Z</time>
      </trkpt>
      <trkpt lat="47.84178" lon="5.93019">
        <ele>231.451</ele>
        <time>2019-09-25T09:40:38.001Z</time>
      </trkpt>
      <trkpt lat="47.84168" lon="5.93028">
        <ele>232.462</ele>
        <time>2019-09-25T09:40:41.001Z</time>
      </trkpt>
      <trkpt lat="47.84158" lon="5.93039">
        <ele>233.639</ele>
        <time>2019-09-25T09:40:44.001Z</time>
      </trkpt>
      <trkpt lat="47.84151" lon="5.93051">
        <ele>234.297</ele>
        <time>2019-09-25T09:40:47.001Z</time>
      </trkpt>
      <trkpt lat="47.84145" lon="5.93063">
        <ele>234.509</ele>
        <time>2019-09-25T09:40:50.001Z</time>
      </trkpt>
      <trkpt lat="47.84137" lon="5.93075">
        <ele>234.351</ele>
        <time>2019-09-25T09:40:53.001Z</time>
      </trkpt>
      <trkpt lat="47.84131" lon="5.93088">
        <ele>234.21</ele>
        <time>2019-09-25T09:40:56.001Z</time>
      </trkpt>
      <trkpt lat="47.84125" lon="5.93102">
        <ele>234.005</ele>
        <time>2019-09-25T09:40:59.001Z</time>
      </trkpt>
      <trkpt lat="47.84121" lon="5.93116">
        <ele>234.143</ele>
        <time>2019-09-25T11:41:02Z</time>
      </trkpt>
      <trkpt lat="47.84117" lon="5.93129">
        <ele>234.168</ele>
        <time>2019-09-25T09:41:05.001Z</time>
      </trkpt>
      <trkpt lat="47.84114" lon="5.93141">
        <ele>234.35</ele>
        <time>2019-09-25T09:41:08.001Z</time>
      </trkpt>
      <trkpt lat="47.84111" lon="5.93157">
        <ele>234.591</ele>
        <time>2019-09-25T09:41:11.001Z</time>
      </trkpt>
      <trkpt lat="47.84107" lon="5.93172">
        <ele>235.015</ele>
        <time>2019-09-25T09:41:14.001Z</time>
      </trkpt>
      <trkpt lat="47.84103" lon="5.93186">
        <ele>235.731</ele>
        <time>2019-09-25T09:41:17.001Z</time>
      </trkpt>
      <trkpt lat="47.84099" lon="5.932">
        <ele>235.923</ele>
        <time>2019-09-25T09:41:20.001Z</time>
      </trkpt>
      <trkpt lat="47.84092" lon="5.93214">
        <ele>235.688</ele>
        <time>2019-09-25T09:41:23.001Z</time>
      </trkpt>
      <trkpt lat="47.84084" lon="5.93227">
        <ele>235.986</ele>
        <time>2019-09-25T09:41:26.001Z</time>
      </trkpt>
      <trkpt lat="47.84077" lon="5.93239">
        <ele>236.463</ele>
        <time>2019-09-25T09:41:29.001Z</time>
      </trkpt>
      <trkpt lat="47.84069" lon="5.93252">
        <ele>236.714</ele>
        <time>2019-09-25T09:41:32.001Z</time>
      </trkpt>
      <trkpt lat="47.84061" lon="5.93263">
        <ele>237.113</ele>
        <time>2019-09-25T09:41:35.001Z</time>
      </trkpt>
      <trkpt lat="47.84054" lon="5.93275">
        <ele>237.46</ele>
        <time>2019-09-25T09:41:38.001Z</time>
      </trkpt>
      <trkpt lat="47.84046" lon="5.93287">
        <ele>237.328</ele>
        <time>2019-09-25T09:41:41.001Z</time>
      </trkpt>
      <trkpt lat="47.84038" lon="5.93299">
        <ele>237.469</ele>
        <time>2019-09-25T09:41:44.001Z</time>
      </trkpt>
      <trkpt lat="47.84033" lon="5.93309">
        <ele>237.454</ele>
        <time>2019-09-25T09:41:47.001Z</time>
      </trkpt>
      <trkpt lat="47.84027" lon="5.93321">
        <ele>237.649</ele>
        <time>2019-09-25T09:41:50.001Z</time>
      </trkpt>
      <trkpt lat="47.84019" lon="5.93334">
        <ele>238.053</ele>
        <time>2019-09-25T09:41:53.001Z</time>
      </trkpt>
      <trkpt lat="47.84011" lon="5.93348">
        <ele>238.571</ele>
        <time>2019-09-25T09:41:56.001Z</time>
      </trkpt>
      <trkpt lat="47.84003" lon="5.9336">
        <ele>238.709</ele>
        <time>2019-09-25T09:41:59.001Z</time>
      </trkpt>
      <trkpt lat="47.83995" lon="5.93372">
        <ele>238.824</ele>
        <time>2019-09-25T11:42:02Z</time>
      </trkpt>
      <trkpt lat="47.83988" lon="5.93384">
        <ele>238.525</ele>
        <time>2019-09-25T09:42:05.001Z</time>
      </trkpt>
      <trkpt lat="47.8398" lon="5.93398">
        <ele>238.448</ele>
        <time>2019-09-25T09:42:08.001Z</time>
      </trkpt>
      <trkpt lat="47.83972" lon="5.93411">
        <ele>238.437</ele>
        <time>2019-09-25T09:42:11.001Z</time>
      </trkpt>
      <trkpt lat="47.83964" lon="5.93423">
        <ele>238.364</ele>
        <time>2019-09-25T09:42:14.001Z</time>
      </trkpt>
      <trkpt lat="47.83958" lon="5.93433">
        <ele>238.527</ele>
        <time>2019-09-25T09:42:17.001Z</time>
      </trkpt>
      <trkpt lat="47.83952" lon="5.93443">
        <ele>238.557</ele>
        <time>2019-09-25T09:42:20.001Z</time>
      </trkpt>
      <trkpt lat="47.83946" lon="5.93453">
        <ele>238.312</ele>
        <time>2019-09-25T09:42:23.001Z</time>
      </trkpt>
      <trkpt lat="47.83941" lon="5.93462">
        <ele>238.017</ele>
        <time>2019-09-25T09:42:26.001Z</time>
      </trkpt>
      <trkpt lat="47.83937" lon="5.93472">
        <ele>237.861</ele>
        <time>2019-09-25T09:42:29.001Z</time>
      </trkpt>
      <trkpt lat="47.83933" lon="5.93482">
        <ele>237.597</ele>
        <time>2019-09-25T09:42:32.001Z</time>
      </trkpt>
      <trkpt lat="47.8393" lon="5.93491">
        <ele>237.387</ele>
        <time>2019-09-25T09:42:35.001Z</time>
      </trkpt>
      <trkpt lat="47.83927" lon="5.93499">
        <ele>237.491</ele>
        <time>2019-09-25T09:42:38.001Z</time>
      </trkpt>
      <trkpt lat="47.83924" lon="5.93505">
        <ele>238.103</ele>
        <time>2019-09-25T09:42:41.001Z</time>
      </trkpt>
      <trkpt lat="47.83922" lon="5.93513">
        <ele>238.618</ele>
        <time>2019-09-25T09:42:44.001Z</time>
      </trkpt>
      <trkpt lat="47.83921" lon="5.93522">
        <ele>239.185</ele>
        <time>2019-09-25T09:42:47.001Z</time>
      </trkpt>
      <trkpt lat="47.83922" lon="5.93531">
        <ele>239.673</ele>
        <time>2019-09-25T09:42:50.001Z</time>
      </trkpt>
      <trkpt lat="47.83924" lon="5.93541">
        <ele>240.092</ele>
        <time>2019-09-25T09:42:53.001Z</time>
      </trkpt>
      <trkpt lat="47.83926" lon="5.9355">
        <ele>240.328</ele>
        <time>2019-09-25T09:42:56.001Z</time>
      </trkpt>
      <trkpt lat="47.83928" lon="5.93558">
        <ele>240.79</ele>
        <time>2019-09-25T09:42:59.001Z</time>
      </trkpt>
      <trkpt lat="47.83929" lon="5.93566">
        <ele>241.627</ele>
        <time>2019-09-25T11:43:02Z</time>
      </trkpt>
      <trkpt lat="47.83929" lon="5.93574">
        <ele>242.46</ele>
        <time>2019-09-25T09:43:05.001Z</time>
      </trkpt>
      <trkpt lat="47.83932" lon="5.93582">
        <ele>243.474</ele>
        <time>2019-09-25T09:43:08.001Z</time>
      </trkpt>
      <trkpt lat="47.83933" lon="5.9359">
        <ele>244.154</ele>
        <time>2019-09-25T09:43:11.001Z</time>
      </trkpt>
      <trkpt lat="47.83932" lon="5.93598">
        <ele>244.846</ele>
        <time>2019-09-25T09:43:14.001Z</time>
      </trkpt>
      <trkpt lat="47.83932" lon="5.93606">
        <ele>245.319</ele>
        <time>2019-09-25T09:43:17.001Z</time>
      </trkpt>
      <trkpt lat="47.83933" lon="5.93613">
        <ele>245.625</ele>
        <time>2019-09-25T09:43:20.001Z</time>
      </trkpt>
      <trkpt lat="47.83933" lon="5.93621">
        <ele>246.132</ele>
        <time>2019-09-25T09:43:23.001Z</time>
      </trkpt>
      <trkpt lat="47.83934" lon="5.93631">
        <ele>246.697</ele>
        <time>2019-09-25T09:43:26.001Z</time>
      </trkpt>
      <trkpt lat="47.83935" lon="5.9364">
        <ele>247.143</ele>
        <time>2019-09-25T09:43:29.001Z</time>
      </trkpt>
      <trkpt lat="47.83937" lon="5.93647">
        <ele>247.397</ele>
        <time>2019-09-25T09:43:32.001Z</time>
      </trkpt>
      <trkpt lat="47.83937" lon="5.93656">
        <ele>247.259</ele>
        <time>2019-09-25T09:43:35.001Z</time>
      </trkpt>
      <trkpt lat="47.83937" lon="5.93663">
        <ele>247.711</ele>
        <time>2019-09-25T09:43:38.001Z</time>
      </trkpt>
      <trkpt lat="47.83937" lon="5.93672">
        <ele>248.382</ele>
        <time>2019-09-25T09:43:41.001Z</time>
      </trkpt>
      <trkpt lat="47.83937" lon="5.9368">
        <ele>248.512</ele>
        <time>2019-09-25T09:43:44.001Z</time>
      </trkpt>
      <trkpt lat="47.83938" lon="5.93688">
        <ele>248.324</ele>
        <time>2019-09-25T09:43:47.001Z</time>
      </trkpt>
      <trkpt lat="47.83937" lon="5.93699">
        <ele>248.63</ele>
        <time>2019-09-25T09:43:50.001Z</time>
      </trkpt>
      <trkpt lat="47.83937" lon="5.9371">
        <ele>248.954</ele>
        <time>2019-09-25T09:43:53.001Z</time>
      </trkpt>
      <trkpt lat="47.83937" lon="5.93722">
        <ele>249.552</ele>
        <time>2019-09-25T09:43:56.001Z</time>
      </trkpt>
      <trkpt lat="47.83938" lon="5.93733">
        <ele>250.396</ele>
        <time>2019-09-25T09:43:59.001Z</time>
      </trkpt>
      <trkpt lat="47.8394" lon="5.93745">
        <ele>251.526</ele>
        <time>2019-09-25T11:44:02Z</time>
      </trkpt>
      <trkpt lat="47.83941" lon="5.93761">
        <ele>251.813</ele>
        <time>2019-09-25T09:44:05.001Z</time>
      </trkpt>
      <trkpt lat="47.83939" lon="5.9378">
        <ele>251.978</ele>
        <time>2019-09-25T09:44:08.001Z</time>
      </trkpt>
      <trkpt lat="47.83927" lon="5.93802">
        <ele>252.137</ele>
        <time>2019-09-25T09:44:11.001Z</time>
      </trkpt>
      <trkpt lat="47.83911" lon="5.93828">
        <ele>252.303</ele>
        <time>2019-09-25T09:44:14.001Z</time>
      </trkpt>
      <trkpt lat="47.83893" lon="5.93853">
        <ele>252.334</ele>
        <time>2019-09-25T09:44:17.001Z</time>
      </trkpt>
      <trkpt lat="47.83872" lon="5.93877">
        <ele>252.125</ele>
        <time>2019-09-25T09:44:20.001Z</time>
      </trkpt>
      <trkpt lat="47.83849" lon="5.93894">
        <ele>251.404</ele>
        <time>2019-09-25T09:44:23.001Z</time>
      </trkpt>
      <trkpt lat="47.83828" lon="5.93908">
        <ele>249.136</ele>
        <time>2019-09-25T09:44:26.001Z</time>
      </trkpt>
      <trkpt lat="47.83809" lon="5.93919">
        <ele>245.751</ele>
        <time>2019-09-25T09:44:29.001Z</time>
      </trkpt>
      <trkpt lat="47.83793" lon="5.93926">
        <ele>242.133</ele>
        <time>2019-09-25T09:44:32.001Z</time>
      </trkpt>
      <trkpt lat="47.83777" lon="5.9393">
        <ele>240.117</ele>
        <time>2019-09-25T09:44:35.001Z</time>
      </trkpt>
      <trkpt lat="47.83759" lon="5.93938">
        <ele>238.84</ele>
        <time>2019-09-25T09:44:38.001Z</time>
      </trkpt>
      <trkpt lat="47.83742" lon="5.93955">
        <ele>237.511</ele>
        <time>2019-09-25T09:44:41.001Z</time>
      </trkpt>
      <trkpt lat="47.83728" lon="5.93976">
        <ele>236.453</ele>
        <time>2019-09-25T09:44:44.001Z</time>
      </trkpt>
      <trkpt lat="47.83718" lon="5.93997">
        <ele>236.233</ele>
        <time>2019-09-25T09:44:47.001Z</time>
      </trkpt>
      <trkpt lat="47.83709" lon="5.94015">
        <ele>236.001</ele>
        <time>2019-09-25T09:44:50.001Z</time>
      </trkpt>
      <trkpt lat="47.83699" lon="5.94031">
        <ele>235.725</ele>
        <time>2019-09-25T09:44:53.001Z</time>
      </trkpt>
      <trkpt lat="47.83688" lon="5.94047">
        <ele>234.924</ele>
        <time>2019-09-25T09:44:56.001Z</time>
      </trkpt>
      <trkpt lat="47.83679" lon="5.94065">
        <ele>234.758</ele>
        <time>2019-09-25T09:44:59.001Z</time>
      </trkpt>
      <trkpt lat="47.83667" lon="5.94083">
        <ele>234.695</ele>
        <time>2019-09-25T11:45:02Z</time>
      </trkpt>
      <trkpt lat="47.83656" lon="5.941">
        <ele>235.013</ele>
        <time>2019-09-25T09:45:05.001Z</time>
      </trkpt>
      <trkpt lat="47.83643" lon="5.94118">
        <ele>234.938</ele>
        <time>2019-09-25T09:45:08.001Z</time>
      </trkpt>
      <trkpt lat="47.8363" lon="5.94137">
        <ele>234.537</ele>
        <time>2019-09-25T09:45:11.001Z</time>
      </trkpt>
      <trkpt lat="47.83616" lon="5.94154">
        <ele>234.016</ele>
        <time>2019-09-25T09:45:14.001Z</time>
      </trkpt>
      <trkpt lat="47.83602" lon="5.9417">
        <ele>233.408</ele>
        <time>2019-09-25T09:45:17.001Z</time>
      </trkpt>
      <trkpt lat="47.83588" lon="5.94187">
        <ele>233.045</ele>
        <time>2019-09-25T09:45:20.001Z</time>
      </trkpt>
      <trkpt lat="47.83573" lon="5.94203">
        <ele>232.845</ele>
        <time>2019-09-25T09:45:23.001Z</time>
      </trkpt>
      <trkpt lat="47.83558" lon="5.9422">
        <ele>232.568</ele>
        <time>2019-09-25T09:45:26.001Z</time>
      </trkpt>
      <trkpt lat="47.83543" lon="5.94241">
        <ele>232.158</ele>
        <time>2019-09-25T09:45:29.001Z</time>
      </trkpt>
      <trkpt lat="47.83531" lon="5.94267">
        <ele>231.689</ele>
        <time>2019-09-25T09:45:32.001Z</time>
      </trkpt>
      <trkpt lat="47.83521" lon="5.94294">
        <ele>230.727</ele>
        <time>2019-09-25T09:45:35.001Z</time>
      </trkpt>
      <trkpt lat="47.83512" lon="5.94321">
        <ele>229.573</ele>
        <time>2019-09-25T09:45:38.001Z</time>
      </trkpt>
      <trkpt lat="47.83502" lon="5.94348">
        <ele>228.596</ele>
        <time>2019-09-25T09:45:41.001Z</time>
      </trkpt>
      <trkpt lat="47.83493" lon="5.94375">
        <ele>227.958</ele>
        <time>2019-09-25T09:45:44.001Z</time>
      </trkpt>
      <trkpt lat="47.83484" lon="5.94402">
        <ele>227.201</ele>
        <time>2019-09-25T09:45:47.001Z</time>
      </trkpt>
      <trkpt lat="47.83476" lon="5.9443">
        <ele>226.522</ele>
        <time>2019-09-25T09:45:50.001Z</time>
      </trkpt>
      <trkpt lat="47.83467" lon="5.94457">
        <ele>225.892</ele>
        <time>2019-09-25T09:45:53.001Z</time>
      </trkpt>
      <trkpt lat="47.83458" lon="5.94482">
        <ele>225.281</ele>
        <time>2019-09-25T09:45:56.001Z</time>
      </trkpt>
      <trkpt lat="47.83449" lon="5.94506">
        <ele>224.742</ele>
        <time>2019-09-25T09:45:59.001Z</time>
      </trkpt>
      <trkpt lat="47.83441" lon="5.94528">
        <ele>225.028</ele>
        <time>2019-09-25T11:46:02Z</time>
      </trkpt>
      <trkpt lat="47.83432" lon="5.9455">
        <ele>225.512</ele>
        <time>2019-09-25T09:46:05.001Z</time>
      </trkpt>
      <trkpt lat="47.83425" lon="5.94571">
        <ele>225.177</ele>
        <time>2019-09-25T09:46:08.001Z</time>
      </trkpt>
      <trkpt lat="47.83419" lon="5.94592">
        <ele>225.412</ele>
        <time>2019-09-25T09:46:11.001Z</time>
      </trkpt>
      <trkpt lat="47.83413" lon="5.94611">
        <ele>226.1</ele>
        <time>2019-09-25T09:46:14.001Z</time>
      </trkpt>
      <trkpt lat="47.83407" lon="5.94631">
        <ele>226.404</ele>
        <time>2019-09-25T09:46:17.001Z</time>
      </trkpt>
      <trkpt lat="47.83401" lon="5.9465">
        <ele>226.656</ele>
        <time>2019-09-25T09:46:20.001Z</time>
      </trkpt>
      <trkpt lat="47.83395" lon="5.94671">
        <ele>226.797</ele>
        <time>2019-09-25T09:46:23.001Z</time>
      </trkpt>
      <trkpt lat="47.83391" lon="5.94692">
        <ele>226.751</ele>
        <time>2019-09-25T09:46:26.001Z</time>
      </trkpt>
      <trkpt lat="47.8339" lon="5.94713">
        <ele>226.961</ele>
        <time>2019-09-25T09:46:29.001Z</time>
      </trkpt>
      <trkpt lat="47.83388" lon="5.94736">
        <ele>227.208</ele>
        <time>2019-09-25T09:46:32.001Z</time>
      </trkpt>
      <trkpt lat="47.83386" lon="5.94758">
        <ele>228.179</ele>
        <time>2019-09-25T09:46:35.001Z</time>
      </trkpt>
      <trkpt lat="47.83385" lon="5.94778">
        <ele>229.448</ele>
        <time>2019-09-25T09:46:38.001Z</time>
      </trkpt>
      <trkpt lat="47.83386" lon="5.94796">
        <ele>230.327</ele>
        <time>2019-09-25T09:46:41.001Z</time>
      </trkpt>
      <trkpt lat="47.83388" lon="5.94814">
        <ele>230.413</ele>
        <time>2019-09-25T09:46:44.001Z</time>
      </trkpt>
      <trkpt lat="47.8339" lon="5.9483">
        <ele>230.367</ele>
        <time>2019-09-25T09:46:47.001Z</time>
      </trkpt>
      <trkpt lat="47.83391" lon="5.94844">
        <ele>230.398</ele>
        <time>2019-09-25T09:46:50.001Z</time>
      </trkpt>
      <trkpt lat="47.83393" lon="5.94859">
        <ele>230.313</ele>
        <time>2019-09-25T09:46:53.001Z</time>
      </trkpt>
      <trkpt lat="47.83394" lon="5.94873">
        <ele>230.223</ele>
        <time>2019-09-25T09:46:56.001Z</time>
      </trkpt>
      <trkpt lat="47.83395" lon="5.94885">
        <ele>230.253</ele>
        <time>2019-09-25T09:46:59.001Z</time>
      </trkpt>
      <trkpt lat="47.83396" lon="5.94898">
        <ele>230.377</ele>
        <time>2019-09-25T11:47:02Z</time>
      </trkpt>
      <trkpt lat="47.83396" lon="5.94909">
        <ele>230.493</ele>
        <time>2019-09-25T09:47:05.001Z</time>
      </trkpt>
      <trkpt lat="47.83397" lon="5.9492">
        <ele>230.5</ele>
        <time>2019-09-25T09:47:08.001Z</time>
      </trkpt>
      <trkpt lat="47.83398" lon="5.94932">
        <ele>230.379</ele>
        <time>2019-09-25T09:47:11.001Z</time>
      </trkpt>
      <trkpt lat="47.83398" lon="5.94942">
        <ele>230.736</ele>
        <time>2019-09-25T09:47:14.001Z</time>
      </trkpt>
      <trkpt lat="47.83399" lon="5.94953">
        <ele>230.856</ele>
        <time>2019-09-25T09:47:17.001Z</time>
      </trkpt>
      <trkpt lat="47.83399" lon="5.94963">
        <ele>231.125</ele>
        <time>2019-09-25T09:47:20.001Z</time>
      </trkpt>
      <trkpt lat="47.83399" lon="5.94973">
        <ele>231.582</ele>
        <time>2019-09-25T09:47:23.001Z</time>
      </trkpt>
      <trkpt lat="47.83398" lon="5.94984">
        <ele>231.944</ele>
        <time>2019-09-25T09:47:26.001Z</time>
      </trkpt>
      <trkpt lat="47.83398" lon="5.94995">
        <ele>232.451</ele>
        <time>2019-09-25T09:47:29.001Z</time>
      </trkpt>
      <trkpt lat="47.83399" lon="5.95006">
        <ele>233.125</ele>
        <time>2019-09-25T09:47:32.001Z</time>
      </trkpt>
      <trkpt lat="47.834" lon="5.95017">
        <ele>233.766</ele>
        <time>2019-09-25T09:47:35.001Z</time>
      </trkpt>
      <trkpt lat="47.834" lon="5.95028">
        <ele>234.396</ele>
        <time>2019-09-25T09:47:38.001Z</time>
      </trkpt>
      <trkpt lat="47.834" lon="5.95039">
        <ele>235.213</ele>
        <time>2019-09-25T09:47:41.001Z</time>
      </trkpt>
      <trkpt lat="47.83399" lon="5.9505">
        <ele>236.008</ele>
        <time>2019-09-25T09:47:44.001Z</time>
      </trkpt>
      <trkpt lat="47.834" lon="5.9506">
        <ele>236.655</ele>
        <time>2019-09-25T09:47:47.001Z</time>
      </trkpt>
      <trkpt lat="47.83401" lon="5.95071">
        <ele>237.144</ele>
        <time>2019-09-25T09:47:50.001Z</time>
      </trkpt>
      <trkpt lat="47.83401" lon="5.95082">
        <ele>237.404</ele>
        <time>2019-09-25T09:47:53.001Z</time>
      </trkpt>
      <trkpt lat="47.83401" lon="5.95092">
        <ele>237.89</ele>
        <time>2019-09-25T09:47:56.001Z</time>
      </trkpt>
      <trkpt lat="47.83402" lon="5.95103">
        <ele>238.444</ele>
        <time>2019-09-25T09:47:59.001Z</time>
      </trkpt>
      <trkpt lat="47.83403" lon="5.95114">
        <ele>238.664</ele>
        <time>2019-09-25T11:48:02Z</time>
      </trkpt>
      <trkpt lat="47.83402" lon="5.95125">
        <ele>238.965</ele>
        <time>2019-09-25T09:48:05.001Z</time>
      </trkpt>
      <trkpt lat="47.83403" lon="5.95135">
        <ele>239.077</ele>
        <time>2019-09-25T09:48:08.001Z</time>
      </trkpt>
      <trkpt lat="47.83403" lon="5.95145">
        <ele>239.411</ele>
        <time>2019-09-25T09:48:11.001Z</time>
      </trkpt>
      <trkpt lat="47.83404" lon="5.95155">
        <ele>239.932</ele>
        <time>2019-09-25T09:48:14.001Z</time>
      </trkpt>
      <trkpt lat="47.83404" lon="5.95165">
        <ele>240.432</ele>
        <time>2019-09-25T09:48:17.001Z</time>
      </trkpt>
      <trkpt lat="47.83404" lon="5.95175">
        <ele>241.163</ele>
        <time>2019-09-25T09:48:20.001Z</time>
      </trkpt>
      <trkpt lat="47.83405" lon="5.95184">
        <ele>241.985</ele>
        <time>2019-09-25T09:48:23.001Z</time>
      </trkpt>
      <trkpt lat="47.83405" lon="5.95194">
        <ele>242.637</ele>
        <time>2019-09-25T09:48:26.001Z</time>
      </trkpt>
      <trkpt lat="47.83405" lon="5.95203">
        <ele>242.805</ele>
        <time>2019-09-25T09:48:29.001Z</time>
      </trkpt>
      <trkpt lat="47.83404" lon="5.95211">
        <ele>243.2</ele>
        <time>2019-09-25T09:48:32.001Z</time>
      </trkpt>
      <trkpt lat="47.83404" lon="5.95218">
        <ele>243.452</ele>
        <time>2019-09-25T09:48:35.001Z</time>
      </trkpt>
      <trkpt lat="47.83404" lon="5.95225">
        <ele>243.518</ele>
        <time>2019-09-25T09:48:38.001Z</time>
      </trkpt>
      <trkpt lat="47.83405" lon="5.95232">
        <ele>243.576</ele>
        <time>2019-09-25T09:48:41.001Z</time>
      </trkpt>
      <trkpt lat="47.83405" lon="5.9524">
        <ele>243.756</ele>
        <time>2019-09-25T09:48:44.001Z</time>
      </trkpt>
      <trkpt lat="47.83404" lon="5.95248">
        <ele>243.838</ele>
        <time>2019-09-25T09:48:47.001Z</time>
      </trkpt>
      <trkpt lat="47.83404" lon="5.95257">
        <ele>243.843</ele>
        <time>2019-09-25T09:48:50.001Z</time>
      </trkpt>
      <trkpt lat="47.83404" lon="5.95265">
        <ele>244.343</ele>
        <time>2019-09-25T09:48:53.001Z</time>
      </trkpt>
      <trkpt lat="47.83405" lon="5.95274">
        <ele>244.724</ele>
        <time>2019-09-25T09:48:56.001Z</time>
      </trkpt>
      <trkpt lat="47.83407" lon="5.95282">
        <ele>245.155</ele>
        <time>2019-09-25T09:48:59.001Z</time>
      </trkpt>
      <trkpt lat="47.83406" lon="5.95289">
        <ele>245.568</ele>
        <time>2019-09-25T11:49:02Z</time>
      </trkpt>
      <trkpt lat="47.83406" lon="5.95298">
        <ele>246.213</ele>
        <time>2019-09-25T09:49:05.001Z</time>
      </trkpt>
      <trkpt lat="47.83407" lon="5.95307">
        <ele>247.308</ele>
        <time>2019-09-25T09:49:08.001Z</time>
      </trkpt>
      <trkpt lat="47.83406" lon="5.95314">
        <ele>248.341</ele>
        <time>2019-09-25T09:49:11.001Z</time>
      </trkpt>
      <trkpt lat="47.83405" lon="5.95321">
        <ele>249.501</ele>
        <time>2019-09-25T09:49:14.001Z</time>
      </trkpt>
      <trkpt lat="47.83406" lon="5.95329">
        <ele>249.906</ele>
        <time>2019-09-25T09:49:17.001Z</time>
      </trkpt>
      <trkpt lat="47.83406" lon="5.95336">
        <ele>250.379</ele>
        <time>2019-09-25T09:49:20.001Z</time>
      </trkpt>
      <trkpt lat="47.83406" lon="5.95343">
        <ele>250.779</ele>
        <time>2019-09-25T09:49:23.001Z</time>
      </trkpt>
      <trkpt lat="47.83406" lon="5.95351">
        <ele>251.256</ele>
        <time>2019-09-25T09:49:26.001Z</time>
      </trkpt>
      <trkpt lat="47.83408" lon="5.95359">
        <ele>251.839</ele>
        <time>2019-09-25T09:49:29.001Z</time>
      </trkpt>
      <trkpt lat="47.83409" lon="5.95366">
        <ele>252.68</ele>
        <time>2019-09-25T09:49:32.001Z</time>
      </trkpt>
      <trkpt lat="47.8341" lon="5.95375">
        <ele>253.325</ele>
        <time>2019-09-25T09:49:35.001Z</time>
      </trkpt>
      <trkpt lat="47.83412" lon="5.95385">
        <ele>253.459</ele>
        <time>2019-09-25T09:49:38.001Z</time>
      </trkpt>
      <trkpt lat="47.83414" lon="5.95394">
        <ele>253.457</ele>
        <time>2019-09-25T09:49:41.001Z</time>
      </trkpt>
      <trkpt lat="47.83415" lon="5.95403">
        <ele>253.419</ele>
        <time>2019-09-25T09:49:44.001Z</time>
      </trkpt>
      <trkpt lat="47.83418" lon="5.95411">
        <ele>253.601</ele>
        <time>2019-09-25T09:49:47.001Z</time>
      </trkpt>
      <trkpt lat="47.83421" lon="5.95419">
        <ele>253.345</ele>
        <time>2019-09-25T09:49:50.001Z</time>
      </trkpt>
      <trkpt lat="47.83423" lon="5.95429">
        <ele>253.342</ele>
        <time>2019-09-25T09:49:53.001Z</time>
      </trkpt>
      <trkpt lat="47.83426" lon="5.95441">
        <ele>253.551</ele>
        <time>2019-09-25T09:49:56.001Z</time>
      </trkpt>
      <trkpt lat="47.83429" lon="5.95454">
        <ele>253.535</ele>
        <time>2019-09-25T09:49:59.001Z</time>
      </trkpt>
      <trkpt lat="47.83434" lon="5.9547">
        <ele>253.228</ele>
        <time>2019-09-25T11:50:02Z</time>
      </trkpt>
      <trkpt lat="47.83439" lon="5.9549">
        <ele>253.03</ele>
        <time>2019-09-25T09:50:05.001Z</time>
      </trkpt>
      <trkpt lat="47.83449" lon="5.95513">
        <ele>252.33</ele>
        <time>2019-09-25T09:50:08.001Z</time>
      </trkpt>
      <trkpt lat="47.83463" lon="5.9554">
        <ele>251.328</ele>
        <time>2019-09-25T09:50:11.001Z</time>
      </trkpt>
      <trkpt lat="47.83478" lon="5.95573">
        <ele>250.228</ele>
        <time>2019-09-25T09:50:14.001Z</time>
      </trkpt>
      <trkpt lat="47.83492" lon="5.9561">
        <ele>248.715</ele>
        <time>2019-09-25T09:50:17.001Z</time>
      </trkpt>
      <trkpt lat="47.83503" lon="5.95647">
        <ele>247.845</ele>
        <time>2019-09-25T09:50:20.001Z</time>
      </trkpt>
      <trkpt lat="47.8351" lon="5.9568">
        <ele>246.6</ele>
        <time>2019-09-25T09:50:23.001Z</time>
      </trkpt>
      <trkpt lat="47.83514" lon="5.95709">
        <ele>245.552</ele>
        <time>2019-09-25T09:50:26.001Z</time>
      </trkpt>
      <trkpt lat="47.83514" lon="5.95732">
        <ele>245.183</ele>
        <time>2019-09-25T09:50:29.001Z</time>
      </trkpt>
      <trkpt lat="47.83514" lon="5.95749">
        <ele>244.976</ele>
        <time>2019-09-25T09:50:32.001Z</time>
      </trkpt>
      <trkpt lat="47.83513" lon="5.95764">
        <ele>244.962</ele>
        <time>2019-09-25T09:50:35.001Z</time>
      </trkpt>
      <trkpt lat="47.83513" lon="5.95778">
        <ele>245.175</ele>
        <time>2019-09-25T09:50:38.001Z</time>
      </trkpt>
      <trkpt lat="47.83512" lon="5.9579">
        <ele>245.734</ele>
        <time>2019-09-25T09:50:41.001Z</time>
      </trkpt>
      <trkpt lat="47.8351" lon="5.95801">
        <ele>246.666</ele>
        <time>2019-09-25T09:50:44.001Z</time>
      </trkpt>
      <trkpt lat="47.83509" lon="5.95812">
        <ele>247.181</ele>
        <time>2019-09-25T09:50:47.001Z</time>
      </trkpt>
      <trkpt lat="47.83509" lon="5.95822">
        <ele>247.893</ele>
        <time>2019-09-25T09:50:50.001Z</time>
      </trkpt>
      <trkpt lat="47.83508" lon="5.9583">
        <ele>248.759</ele>
        <time>2019-09-25T09:50:53.001Z</time>
      </trkpt>
      <trkpt lat="47.83507" lon="5.9584">
        <ele>249.657</ele>
        <time>2019-09-25T09:50:56.001Z</time>
      </trkpt>
      <trkpt lat="47.83506" lon="5.9585">
        <ele>250.203</ele>
        <time>2019-09-25T09:50:59.001Z</time>
      </trkpt>
      <trkpt lat="47.83504" lon="5.9586">
        <ele>250.472</ele>
        <time>2019-09-25T11:51:02Z</time>
      </trkpt>
      <trkpt lat="47.83502" lon="5.95869">
        <ele>251.127</ele>
        <time>2019-09-25T09:51:05.001Z</time>
      </trkpt>
      <trkpt lat="47.83502" lon="5.95879">
        <ele>251.818</ele>
        <time>2019-09-25T09:51:08.001Z</time>
      </trkpt>
      <trkpt lat="47.83502" lon="5.95891">
        <ele>252.222</ele>
        <time>2019-09-25T09:51:11.001Z</time>
      </trkpt>
      <trkpt lat="47.835" lon="5.95903">
        <ele>253.031</ele>
        <time>2019-09-25T09:51:14.001Z</time>
      </trkpt>
      <trkpt lat="47.83497" lon="5.95914">
        <ele>253.861</ele>
        <time>2019-09-25T09:51:17.001Z</time>
      </trkpt>
      <trkpt lat="47.83495" lon="5.95926">
        <ele>254.812</ele>
        <time>2019-09-25T09:51:20.001Z</time>
      </trkpt>
      <trkpt lat="47.83494" lon="5.95938">
        <ele>256.048</ele>
        <time>2019-09-25T09:51:23.001Z</time>
      </trkpt>
      <trkpt lat="47.83493" lon="5.9595">
        <ele>257.065</ele>
        <time>2019-09-25T09:51:26.001Z</time>
      </trkpt>
      <trkpt lat="47.8349" lon="5.95961">
        <ele>257.752</ele>
        <time>2019-09-25T09:51:29.001Z</time>
      </trkpt>
      <trkpt lat="47.83488" lon="5.95971">
        <ele>258.382</ele>
        <time>2019-09-25T09:51:32.001Z</time>
      </trkpt>
      <trkpt lat="47.83485" lon="5.9598">
        <ele>259.208</ele>
        <time>2019-09-25T09:51:35.001Z</time>
      </trkpt>
      <trkpt lat="47.83481" lon="5.95988">
        <ele>260.341</ele>
        <time>2019-09-25T09:51:38.001Z</time>
      </trkpt>
      <trkpt lat="47.83478" lon="5.95995">
        <ele>261.476</ele>
        <time>2019-09-25T09:51:41.001Z</time>
      </trkpt>
      <trkpt lat="47.83475" lon="5.96002">
        <ele>262.402</ele>
        <time>2019-09-25T09:51:44.001Z</time>
      </trkpt>
      <trkpt lat="47.8347" lon="5.96009">
        <ele>263.394</ele>
        <time>2019-09-25T09:51:47.001Z</time>
      </trkpt>
      <trkpt lat="47.83465" lon="5.96015">
        <ele>264.219</ele>
        <time>2019-09-25T09:51:50.001Z</time>
      </trkpt>
      <trkpt lat="47.8346" lon="5.96022">
        <ele>265.128</ele>
        <time>2019-09-25T09:51:53.001Z</time>
      </trkpt>
      <trkpt lat="47.83454" lon="5.96029">
        <ele>266.005</ele>
        <time>2019-09-25T09:51:56.001Z</time>
      </trkpt>
      <trkpt lat="47.83448" lon="5.96036">
        <ele>266.772</ele>
        <time>2019-09-25T09:51:59.001Z</time>
      </trkpt>
      <trkpt lat="47.8344" lon="5.96042">
        <ele>266.891</ele>
        <time>2019-09-25T11:52:02Z</time>
      </trkpt>
      <trkpt lat="47.83432" lon="5.96048">
        <ele>266.725</ele>
        <time>2019-09-25T09:52:05.001Z</time>
      </trkpt>
      <trkpt lat="47.83423" lon="5.96055">
        <ele>266.733</ele>
        <time>2019-09-25T09:52:08.001Z</time>
      </trkpt>
      <trkpt lat="47.83412" lon="5.96064">
        <ele>266.472</ele>
        <time>2019-09-25T09:52:11.001Z</time>
      </trkpt>
      <trkpt lat="47.834" lon="5.96072">
        <ele>266.303</ele>
        <time>2019-09-25T09:52:14.001Z</time>
      </trkpt>
      <trkpt lat="47.83388" lon="5.96084">
        <ele>266.503</ele>
        <time>2019-09-25T09:52:17.001Z</time>
      </trkpt>
      <trkpt lat="47.83376" lon="5.96099">
        <ele>265.787</ele>
        <time>2019-09-25T09:52:20.001Z</time>
      </trkpt>
      <trkpt lat="47.83363" lon="5.96116">
        <ele>263.785</ele>
        <time>2019-09-25T09:52:23.001Z</time>
      </trkpt>
      <trkpt lat="47.83352" lon="5.96136">
        <ele>261.919</ele>
        <time>2019-09-25T09:52:26.001Z</time>
      </trkpt>
      <trkpt lat="47.83344" lon="5.96155">
        <ele>259.159</ele>
        <time>2019-09-25T09:52:29.001Z</time>
      </trkpt>
      <trkpt lat="47.83338" lon="5.96176">
        <ele>258.096</ele>
        <time>2019-09-25T09:52:32.001Z</time>
      </trkpt>
      <trkpt lat="47.83333" lon="5.96195">
        <ele>257.759</ele>
        <time>2019-09-25T09:52:35.001Z</time>
      </trkpt>
      <trkpt lat="47.83328" lon="5.96215">
        <ele>257.247</ele>
        <time>2019-09-25T09:52:38.001Z</time>
      </trkpt>
      <trkpt lat="47.83323" lon="5.96233">
        <ele>256.555</ele>
        <time>2019-09-25T09:52:41.001Z</time>
      </trkpt>
      <trkpt lat="47.83318" lon="5.96251">
        <ele>255.811</ele>
        <time>2019-09-25T09:52:44.001Z</time>
      </trkpt>
      <trkpt lat="47.83312" lon="5.96268">
        <ele>255.145</ele>
        <time>2019-09-25T09:52:47.001Z</time>
      </trkpt>
      <trkpt lat="47.83307" lon="5.96288">
        <ele>254.489</ele>
        <time>2019-09-25T09:52:50.001Z</time>
      </trkpt>
      <trkpt lat="47.83301" lon="5.9631">
        <ele>254.007</ele>
        <time>2019-09-25T09:52:53.001Z</time>
      </trkpt>
      <trkpt lat="47.83295" lon="5.96332">
        <ele>253.86</ele>
        <time>2019-09-25T09:52:56.001Z</time>
      </trkpt>
      <trkpt lat="47.8329" lon="5.96354">
        <ele>253.868</ele>
        <time>2019-09-25T09:52:59.001Z</time>
      </trkpt>
      <trkpt lat="47.83284" lon="5.96374">
        <ele>253.55</ele>
        <time>2019-09-25T11:53:02Z</time>
      </trkpt>
      <trkpt lat="47.83277" lon="5.96393">
        <ele>253.36</ele>
        <time>2019-09-25T09:53:05.001Z</time>
      </trkpt>
      <trkpt lat="47.83268" lon="5.96409">
        <ele>253.078</ele>
        <time>2019-09-25T09:53:08.001Z</time>
      </trkpt>
      <trkpt lat="47.83258" lon="5.96427">
        <ele>252.49</ele>
        <time>2019-09-25T09:53:11.001Z</time>
      </trkpt>
      <trkpt lat="47.83249" lon="5.96444">
        <ele>252.401</ele>
        <time>2019-09-25T09:53:14.001Z</time>
      </trkpt>
      <trkpt lat="47.8324" lon="5.96458">
        <ele>251.939</ele>
        <time>2019-09-25T09:53:17.001Z</time>
      </trkpt>
      <trkpt lat="47.83232" lon="5.96477">
        <ele>251.825</ele>
        <time>2019-09-25T09:53:20.001Z</time>
      </trkpt>
      <trkpt lat="47.83222" lon="5.96503">
        <ele>251.798</ele>
        <time>2019-09-25T09:53:23.001Z</time>
      </trkpt>
      <trkpt lat="47.83209" lon="5.9653">
        <ele>251.44</ele>
        <time>2019-09-25T09:53:26.001Z</time>
      </trkpt>
      <trkpt lat="47.83184" lon="5.96551">
        <ele>250.863</ele>
        <time>2019-09-25T09:53:29.001Z</time>
      </trkpt>
      <trkpt lat="47.83157" lon="5.96564">
        <ele>250.448</ele>
        <time>2019-09-25T09:53:32.001Z</time>
      </trkpt>
      <trkpt lat="47.83133" lon="5.96577">
        <ele>250.255</ele>
        <time>2019-09-25T09:53:35.001Z</time>
      </trkpt>
      <trkpt lat="47.83113" lon="5.96591">
        <ele>250.879</ele>
        <time>2019-09-25T09:53:38.001Z</time>
      </trkpt>
      <trkpt lat="47.83093" lon="5.96608">
        <ele>251.165</ele>
        <time>2019-09-25T09:53:41.001Z</time>
      </trkpt>
      <trkpt lat="47.83073" lon="5.96626">
        <ele>250.846</ele>
        <time>2019-09-25T09:53:44.001Z</time>
      </trkpt>
      <trkpt lat="47.83049" lon="5.9664">
        <ele>250.363</ele>
        <time>2019-09-25T09:53:47.001Z</time>
      </trkpt>
      <trkpt lat="47.83025" lon="5.96651">
        <ele>248.86</ele>
        <time>2019-09-25T09:53:50.001Z</time>
      </trkpt>
      <trkpt lat="47.83" lon="5.96663">
        <ele>248.215</ele>
        <time>2019-09-25T09:53:53.001Z</time>
      </trkpt>
      <trkpt lat="47.82977" lon="5.96681">
        <ele>247.46</ele>
        <time>2019-09-25T09:53:56.001Z</time>
      </trkpt>
      <trkpt lat="47.82956" lon="5.96703">
        <ele>246.012</ele>
        <time>2019-09-25T09:53:59.001Z</time>
      </trkpt>
      <trkpt lat="47.82936" lon="5.96728">
        <ele>244.924</ele>
        <time>2019-09-25T11:54:02Z</time>
      </trkpt>
      <trkpt lat="47.8292" lon="5.96754">
        <ele>244.46</ele>
        <time>2019-09-25T09:54:05.001Z</time>
      </trkpt>
      <trkpt lat="47.8291" lon="5.96782">
        <ele>243.961</ele>
        <time>2019-09-25T09:54:08.001Z</time>
      </trkpt>
      <trkpt lat="47.82905" lon="5.96812">
        <ele>243.469</ele>
        <time>2019-09-25T09:54:11.001Z</time>
      </trkpt>
      <trkpt lat="47.82899" lon="5.96843">
        <ele>243.221</ele>
        <time>2019-09-25T09:54:14.001Z</time>
      </trkpt>
      <trkpt lat="47.8289" lon="5.96875">
        <ele>242.987</ele>
        <time>2019-09-25T09:54:17.001Z</time>
      </trkpt>
      <trkpt lat="47.82881" lon="5.96907">
        <ele>242.018</ele>
        <time>2019-09-25T09:54:20.001Z</time>
      </trkpt>
      <trkpt lat="47.82871" lon="5.96937">
        <ele>240.691</ele>
        <time>2019-09-25T09:54:23.001Z</time>
      </trkpt>
      <trkpt lat="47.8286" lon="5.96971">
        <ele>239.786</ele>
        <time>2019-09-25T09:54:26.001Z</time>
      </trkpt>
      <trkpt lat="47.82848" lon="5.97007">
        <ele>238.769</ele>
        <time>2019-09-25T09:54:29.001Z</time>
      </trkpt>
      <trkpt lat="47.82837" lon="5.97042">
        <ele>237.642</ele>
        <time>2019-09-25T09:54:32.001Z</time>
      </trkpt>
      <trkpt lat="47.82824" lon="5.97083">
        <ele>235.782</ele>
        <time>2019-09-25T09:54:35.001Z</time>
      </trkpt>
      <trkpt lat="47.82808" lon="5.97127">
        <ele>233.327</ele>
        <time>2019-09-25T09:54:38.001Z</time>
      </trkpt>
      <trkpt lat="47.82795" lon="5.97171">
        <ele>231.358</ele>
        <time>2019-09-25T09:54:41.001Z</time>
      </trkpt>
      <trkpt lat="47.82785" lon="5.97211">
        <ele>228.911</ele>
        <time>2019-09-25T09:54:44.001Z</time>
      </trkpt>
      <trkpt lat="47.82779" lon="5.97249">
        <ele>227.323</ele>
        <time>2019-09-25T09:54:47.001Z</time>
      </trkpt>
      <trkpt lat="47.82774" lon="5.97288">
        <ele>226.641</ele>
        <time>2019-09-25T09:54:50.001Z</time>
      </trkpt>
      <trkpt lat="47.82769" lon="5.97324">
        <ele>225.705</ele>
        <time>2019-09-25T09:54:53.001Z</time>
      </trkpt>
      <trkpt lat="47.82764" lon="5.97358">
        <ele>224.555</ele>
        <time>2019-09-25T09:54:56.001Z</time>
      </trkpt>
      <trkpt lat="47.82759" lon="5.9739">
        <ele>223.477</ele>
        <time>2019-09-25T09:54:59.001Z</time>
      </trkpt>
      <trkpt lat="47.82757" lon="5.9742">
        <ele>222.434</ele>
        <time>2019-09-25T11:55:02Z</time>
      </trkpt>
      <trkpt lat="47.82752" lon="5.97447">
        <ele>221.511</ele>
        <time>2019-09-25T09:55:05.001Z</time>
      </trkpt>
      <trkpt lat="47.82747" lon="5.97473">
        <ele>220.834</ele>
        <time>2019-09-25T09:55:08.001Z</time>
      </trkpt>
      <trkpt lat="47.82742" lon="5.97497">
        <ele>220.595</ele>
        <time>2019-09-25T09:55:11.001Z</time>
      </trkpt>
      <trkpt lat="47.82739" lon="5.9752">
        <ele>220.46</ele>
        <time>2019-09-25T09:55:14.001Z</time>
      </trkpt>
      <trkpt lat="47.82736" lon="5.97544">
        <ele>220.756</ele>
        <time>2019-09-25T09:55:17.001Z</time>
      </trkpt>
      <trkpt lat="47.82733" lon="5.97567">
        <ele>220.848</ele>
        <time>2019-09-25T09:55:20.001Z</time>
      </trkpt>
      <trkpt lat="47.8273" lon="5.97589">
        <ele>221.121</ele>
        <time>2019-09-25T09:55:23.001Z</time>
      </trkpt>
      <trkpt lat="47.82727" lon="5.97611">
        <ele>221.419</ele>
        <time>2019-09-25T09:55:26.001Z</time>
      </trkpt>
      <trkpt lat="47.82723" lon="5.9763">
        <ele>221.839</ele>
        <time>2019-09-25T09:55:29.001Z</time>
      </trkpt>
      <trkpt lat="47.82721" lon="5.97646">
        <ele>222.645</ele>
        <time>2019-09-25T09:55:32.001Z</time>
      </trkpt>
      <trkpt lat="47.82718" lon="5.97661">
        <ele>223.204</ele>
        <time>2019-09-25T09:55:35.001Z</time>
      </trkpt>
      <trkpt lat="47.82715" lon="5.97675">
        <ele>223.939</ele>
        <time>2019-09-25T09:55:38.001Z</time>
      </trkpt>
      <trkpt lat="47.82712" lon="5.97688">
        <ele>225.054</ele>
        <time>2019-09-25T09:55:41.001Z</time>
      </trkpt>
      <trkpt lat="47.82711" lon="5.977">
        <ele>226.042</ele>
        <time>2019-09-25T09:55:44.001Z</time>
      </trkpt>
      <trkpt lat="47.82708" lon="5.97713">
        <ele>227.242</ele>
        <time>2019-09-25T09:55:47.001Z</time>
      </trkpt>
      <trkpt lat="47.82706" lon="5.97726">
        <ele>227.891</ele>
        <time>2019-09-25T09:55:50.001Z</time>
      </trkpt>
      <trkpt lat="47.82704" lon="5.9774">
        <ele>228.593</ele>
        <time>2019-09-25T09:55:53.001Z</time>
      </trkpt>
      <trkpt lat="47.82702" lon="5.97753">
        <ele>229.368</ele>
        <time>2019-09-25T09:55:56.001Z</time>
      </trkpt>
      <trkpt lat="47.827" lon="5.97766">
        <ele>230.153</ele>
        <time>2019-09-25T09:55:59.001Z</time>
      </trkpt>
      <trkpt lat="47.82692" lon="5.97775">
        <ele>230.941</ele>
        <time>2019-09-25T11:56:02Z</time>
      </trkpt>
      <trkpt lat="47.8268" lon="5.97778">
        <ele>231.729</ele>
        <time>2019-09-25T09:56:05.001Z</time>
      </trkpt>
      <trkpt lat="47.82668" lon="5.97778">
        <ele>232.492</ele>
        <time>2019-09-25T09:56:08.001Z</time>
      </trkpt>
      <trkpt lat="47.82656" lon="5.97778">
        <ele>232.798</ele>
        <time>2019-09-25T09:56:11.001Z</time>
      </trkpt>
      <trkpt lat="47.82642" lon="5.9778">
        <ele>232.872</ele>
        <time>2019-09-25T09:56:14.001Z</time>
      </trkpt>
      <trkpt lat="47.82629" lon="5.97779">
        <ele>232.75</ele>
        <time>2019-09-25T09:56:17.001Z</time>
      </trkpt>
      <trkpt lat="47.82617" lon="5.97777">
        <ele>232.289</ele>
        <time>2019-09-25T09:56:20.001Z</time>
      </trkpt>
      <trkpt lat="47.82603" lon="5.97777">
        <ele>232.224</ele>
        <time>2019-09-25T09:56:23.001Z</time>
      </trkpt>
      <trkpt lat="47.82588" lon="5.97778">
        <ele>232.016</ele>
        <time>2019-09-25T09:56:26.001Z</time>
      </trkpt>
      <trkpt lat="47.82572" lon="5.97779">
        <ele>231.426</ele>
        <time>2019-09-25T09:56:29.001Z</time>
      </trkpt>
      <trkpt lat="47.82557" lon="5.97779">
        <ele>231.129</ele>
        <time>2019-09-25T09:56:32.001Z</time>
      </trkpt>
      <trkpt lat="47.82542" lon="5.97779">
        <ele>230.548</ele>
        <time>2019-09-25T09:56:35.001Z</time>
      </trkpt>
      <trkpt lat="47.82527" lon="5.97779">
        <ele>230.077</ele>
        <time>2019-09-25T09:56:38.001Z</time>
      </trkpt>
      <trkpt lat="47.82513" lon="5.97779">
        <ele>229.816</ele>
        <time>2019-09-25T09:56:41.001Z</time>
      </trkpt>
      <trkpt lat="47.82499" lon="5.97779">
        <ele>229.745</ele>
        <time>2019-09-25T09:56:44.001Z</time>
      </trkpt>
      <trkpt lat="47.82485" lon="5.97777">
        <ele>229.57</ele>
        <time>2019-09-25T09:56:47.001Z</time>
      </trkpt>
      <trkpt lat="47.82472" lon="5.97775">
        <ele>229.632</ele>
        <time>2019-09-25T09:56:50.001Z</time>
      </trkpt>
      <trkpt lat="47.82458" lon="5.97774">
        <ele>229.627</ele>
        <time>2019-09-25T09:56:53.001Z</time>
      </trkpt>
      <trkpt lat="47.82444" lon="5.97772">
        <ele>229.694</ele>
        <time>2019-09-25T09:56:56.001Z</time>
      </trkpt>
      <trkpt lat="47.82429" lon="5.97771">
        <ele>229.678</ele>
        <time>2019-09-25T09:56:59.001Z</time>
      </trkpt>
      <trkpt lat="47.82416" lon="5.97771">
        <ele>230.162</ele>
        <time>2019-09-25T11:57:02Z</time>
      </trkpt>
      <trkpt lat="47.82402" lon="5.97772">
        <ele>230.562</ele>
        <time>2019-09-25T09:57:05.001Z</time>
      </trkpt>
      <trkpt lat="47.82388" lon="5.97776">
        <ele>230.666</ele>
        <time>2019-09-25T09:57:08.001Z</time>
      </trkpt>
      <trkpt lat="47.82376" lon="5.97783">
        <ele>230.065</ele>
        <time>2019-09-25T09:57:11.001Z</time>
      </trkpt>
      <trkpt lat="47.82364" lon="5.97792">
        <ele>229.297</ele>
        <time>2019-09-25T09:57:14.001Z</time>
      </trkpt>
      <trkpt lat="47.8235" lon="5.97799">
        <ele>228.562</ele>
        <time>2019-09-25T09:57:17.001Z</time>
      </trkpt>
      <trkpt lat="47.82335" lon="5.97803">
        <ele>228.412</ele>
        <time>2019-09-25T09:57:20.001Z</time>
      </trkpt>
      <trkpt lat="47.82322" lon="5.97802">
        <ele>228.372</ele>
        <time>2019-09-25T09:57:23.001Z</time>
      </trkpt>
      <trkpt lat="47.82308" lon="5.97798">
        <ele>228.214</ele>
        <time>2019-09-25T09:57:26.001Z</time>
      </trkpt>
      <trkpt lat="47.82295" lon="5.97794">
        <ele>227.399</ele>
        <time>2019-09-25T09:57:29.001Z</time>
      </trkpt>
      <trkpt lat="47.82281" lon="5.9779">
        <ele>226.842</ele>
        <time>2019-09-25T09:57:32.001Z</time>
      </trkpt>
      <trkpt lat="47.82266" lon="5.97788">
        <ele>225.874</ele>
        <time>2019-09-25T09:57:35.001Z</time>
      </trkpt>
      <trkpt lat="47.82252" lon="5.97784">
        <ele>225.108</ele>
        <time>2019-09-25T09:57:38.001Z</time>
      </trkpt>
      <trkpt lat="47.82236" lon="5.97781">
        <ele>224.563</ele>
        <time>2019-09-25T09:57:41.001Z</time>
      </trkpt>
      <trkpt lat="47.8222" lon="5.97778">
        <ele>224.01</ele>
        <time>2019-09-25T09:57:44.001Z</time>
      </trkpt>
      <trkpt lat="47.82205" lon="5.97775">
        <ele>223.556</ele>
        <time>2019-09-25T09:57:47.001Z</time>
      </trkpt>
      <trkpt lat="47.82191" lon="5.97774">
        <ele>223.785</ele>
        <time>2019-09-25T09:57:50.001Z</time>
      </trkpt>
      <trkpt lat="47.82177" lon="5.97773">
        <ele>224.431</ele>
        <time>2019-09-25T09:57:53.001Z</time>
      </trkpt>
      <trkpt lat="47.82162" lon="5.97773">
        <ele>224.501</ele>
        <time>2019-09-25T09:57:56.001Z</time>
      </trkpt>
      <trkpt lat="47.82147" lon="5.97774">
        <ele>224.073</ele>
        <time>2019-09-25T09:57:59.001Z</time>
      </trkpt>
      <trkpt lat="47.82132" lon="5.97774">
        <ele>223.554</ele>
        <time>2019-09-25T11:58:02Z</time>
      </trkpt>
      <trkpt lat="47.82117" lon="5.97777">
        <ele>222.646</ele>
        <time>2019-09-25T09:58:05.001Z</time>
      </trkpt>
      <trkpt lat="47.82102" lon="5.97779">
        <ele>221.446</ele>
        <time>2019-09-25T09:58:08.001Z</time>
      </trkpt>
      <trkpt lat="47.82085" lon="5.97782">
        <ele>220.413</ele>
        <time>2019-09-25T09:58:11.001Z</time>
      </trkpt>
      <trkpt lat="47.82068" lon="5.97786">
        <ele>219.663</ele>
        <time>2019-09-25T09:58:14.001Z</time>
      </trkpt>
      <trkpt lat="47.82051" lon="5.97792">
        <ele>219.054</ele>
        <time>2019-09-25T09:58:17.001Z</time>
      </trkpt>
      <trkpt lat="47.82035" lon="5.97802">
        <ele>218.83</ele>
        <time>2019-09-25T09:58:20.001Z</time>
      </trkpt>
      <trkpt lat="47.8202" lon="5.97817">
        <ele>217.97</ele>
        <time>2019-09-25T09:58:23.001Z</time>
      </trkpt>
      <trkpt lat="47.82005" lon="5.97833">
        <ele>217.669</ele>
        <time>2019-09-25T09:58:26.001Z</time>
      </trkpt>
      <trkpt lat="47.81992" lon="5.97847">
        <ele>217.145</ele>
        <time>2019-09-25T09:58:29.001Z</time>
      </trkpt>
      <trkpt lat="47.81979" lon="5.97861">
        <ele>216.698</ele>
        <time>2019-09-25T09:58:32.001Z</time>
      </trkpt>
      <trkpt lat="47.81966" lon="5.97874">
        <ele>216.212</ele>
        <time>2019-09-25T09:58:35.001Z</time>
      </trkpt>
      <trkpt lat="47.81954" lon="5.97888">
        <ele>215.841</ele>
        <time>2019-09-25T09:58:38.001Z</time>
      </trkpt>
      <trkpt lat="47.81942" lon="5.979">
        <ele>216.261</ele>
        <time>2019-09-25T09:58:41.001Z</time>
      </trkpt>
      <trkpt lat="47.81931" lon="5.97912">
        <ele>216.112</ele>
        <time>2019-09-25T09:58:44.001Z</time>
      </trkpt>
      <trkpt lat="47.8192" lon="5.97924">
        <ele>215.57</ele>
        <time>2019-09-25T09:58:47.002Z</time>
      </trkpt>
      <trkpt lat="47.8191" lon="5.97936">
        <ele>216.408</ele>
        <time>2019-09-25T09:58:50.001Z</time>
      </trkpt>
      <trkpt lat="47.81899" lon="5.97949">
        <ele>217.151</ele>
        <time>2019-09-25T09:58:53.001Z</time>
      </trkpt>
      <trkpt lat="47.81889" lon="5.97964">
        <ele>217.515</ele>
        <time>2019-09-25T09:58:56.001Z</time>
      </trkpt>
      <trkpt lat="47.81878" lon="5.97979">
        <ele>217.701</ele>
        <time>2019-09-25T09:58:59.001Z</time>
      </trkpt>
      <trkpt lat="47.81869" lon="5.97993">
        <ele>217.84</ele>
        <time>2019-09-25T11:59:02Z</time>
      </trkpt>
      <trkpt lat="47.8186" lon="5.98008">
        <ele>217.92</ele>
        <time>2019-09-25T09:59:05.001Z</time>
      </trkpt>
      <trkpt lat="47.8185" lon="5.98022">
        <ele>217.868</ele>
        <time>2019-09-25T09:59:08.001Z</time>
      </trkpt>
      <trkpt lat="47.81842" lon="5.98039">
        <ele>218.107</ele>
        <time>2019-09-25T09:59:11.001Z</time>
      </trkpt>
      <trkpt lat="47.81834" lon="5.98055">
        <ele>218.356</ele>
        <time>2019-09-25T09:59:14.001Z</time>
      </trkpt>
      <trkpt lat="47.81827" lon="5.98069">
        <ele>219.229</ele>
        <time>2019-09-25T09:59:17.001Z</time>
      </trkpt>
      <trkpt lat="47.81817" lon="5.98082">
        <ele>219.03</ele>
        <time>2019-09-25T09:59:20.001Z</time>
      </trkpt>
      <trkpt lat="47.81807" lon="5.98094">
        <ele>219.118</ele>
        <time>2019-09-25T09:59:23.001Z</time>
      </trkpt>
      <trkpt lat="47.81798" lon="5.98107">
        <ele>219.225</ele>
        <time>2019-09-25T09:59:26.001Z</time>
      </trkpt>
      <trkpt lat="47.81789" lon="5.9812">
        <ele>219.669</ele>
        <time>2019-09-25T09:59:29.001Z</time>
      </trkpt>
      <trkpt lat="47.81779" lon="5.9813">
        <ele>219.414</ele>
        <time>2019-09-25T09:59:32.001Z</time>
      </trkpt>
      <trkpt lat="47.81768" lon="5.98141">
        <ele>219.182</ele>
        <time>2019-09-25T09:59:35.001Z</time>
      </trkpt>
      <trkpt lat="47.81756" lon="5.98151">
        <ele>219.354</ele>
        <time>2019-09-25T09:59:38.001Z</time>
      </trkpt>
      <trkpt lat="47.81742" lon="5.98161">
        <ele>219.96</ele>
        <time>2019-09-25T09:59:41.001Z</time>
      </trkpt>
      <trkpt lat="47.81727" lon="5.98173">
        <ele>220.067</ele>
        <time>2019-09-25T09:59:44.001Z</time>
      </trkpt>
      <trkpt lat="47.81714" lon="5.98183">
        <ele>219.476</ele>
        <time>2019-09-25T09:59:47.001Z</time>
      </trkpt>
      <trkpt lat="47.81699" lon="5.98192">
        <ele>219.03</ele>
        <time>2019-09-25T09:59:50.001Z</time>
      </trkpt>
      <trkpt lat="47.81684" lon="5.98202">
        <ele>218.915</ele>
        <time>2019-09-25T09:59:53.001Z</time>
      </trkpt>
      <trkpt lat="47.81671" lon="5.98212">
        <ele>218.439</ele>
        <time>2019-09-25T09:59:56.001Z</time>
      </trkpt>
      <trkpt lat="47.81658" lon="5.98223">
        <ele>218.199</ele>
        <time>2019-09-25T09:59:59.001Z</time>
      </trkpt>
      <trkpt lat="47.81646" lon="5.98234">
        <ele>218.731</ele>
        <time>2019-09-25T12:00:02Z</time>
      </trkpt>
      <trkpt lat="47.81634" lon="5.98246">
        <ele>218.451</ele>
        <time>2019-09-25T10:00:05.001Z</time>
      </trkpt>
      <trkpt lat="47.81621" lon="5.98258">
        <ele>218.855</ele>
        <time>2019-09-25T10:00:08.001Z</time>
      </trkpt>
      <trkpt lat="47.81607" lon="5.98268">
        <ele>219.201</ele>
        <time>2019-09-25T10:00:11.001Z</time>
      </trkpt>
      <trkpt lat="47.81592" lon="5.98275">
        <ele>219.301</ele>
        <time>2019-09-25T10:00:14.001Z</time>
      </trkpt>
      <trkpt lat="47.81578" lon="5.9828">
        <ele>220.079</ele>
        <time>2019-09-25T10:00:17.001Z</time>
      </trkpt>
      <trkpt lat="47.81562" lon="5.98285">
        <ele>220.41</ele>
        <time>2019-09-25T10:00:20.001Z</time>
      </trkpt>
      <trkpt lat="47.81547" lon="5.9829">
        <ele>220.112</ele>
        <time>2019-09-25T10:00:23.001Z</time>
      </trkpt>
      <trkpt lat="47.81533" lon="5.98296">
        <ele>220.033</ele>
        <time>2019-09-25T10:00:26.001Z</time>
      </trkpt>
      <trkpt lat="47.81519" lon="5.98303">
        <ele>221.156</ele>
        <time>2019-09-25T10:00:29.001Z</time>
      </trkpt>
      <trkpt lat="47.81506" lon="5.98312">
        <ele>220.593</ele>
        <time>2019-09-25T10:00:32.001Z</time>
      </trkpt>
      <trkpt lat="47.81495" lon="5.98321">
        <ele>220.059</ele>
        <time>2019-09-25T10:00:35.001Z</time>
      </trkpt>
      <trkpt lat="47.81489" lon="5.98329">
        <ele>219.362</ele>
        <time>2019-09-25T10:00:38.001Z</time>
      </trkpt>
      <trkpt lat="47.81487" lon="5.98335">
        <ele>219.392</ele>
        <time>2019-09-25T10:00:41.001Z</time>
      </trkpt>
      <trkpt lat="47.81487" lon="5.98338">
        <ele>218.743</ele>
        <time>2019-09-25T10:00:44.001Z</time>
      </trkpt>
      <trkpt lat="47.81486" lon="5.98344">
        <ele>218.874</ele>
        <time>2019-09-25T10:06:11.001Z</time>
      </trkpt>
      <trkpt lat="47.81485" lon="5.98346">
        <ele>218.473</ele>
        <time>2019-09-25T10:06:14.001Z</time>
      </trkpt>
      <trkpt lat="47.81485" lon="5.98356">
        <ele>218.09</ele>
        <time>2019-09-25T10:06:20.001Z</time>
      </trkpt>
      <trkpt lat="47.81483" lon="5.98358">
        <ele>217.878</ele>
        <time>2019-09-25T10:06:23.001Z</time>
      </trkpt>
      <trkpt lat="47.81483" lon="5.98358">
        <ele>217.878</ele>
        <time>2019-09-25T10:06:29.001Z</time>
      </trkpt>
      <trkpt lat="47.81484" lon="5.98358">
        <ele>217.873</ele>
        <time>2019-09-25T10:06:32.001Z</time>
      </trkpt>
      <trkpt lat="47.81484" lon="5.98359">
        <ele>217.891</ele>
        <time>2019-09-25T10:06:35.001Z</time>
      </trkpt>
      <trkpt lat="47.81484" lon="5.98359">
        <ele>217.891</ele>
        <time>2019-09-25T10:06:38.001Z</time>
      </trkpt>
      <trkpt lat="47.81484" lon="5.98361">
        <ele>217.81</ele>
        <time>2019-09-25T10:24:20.001Z</time>
      </trkpt>
      <trkpt lat="47.81484" lon="5.98361">
        <ele>217.89</ele>
        <time>2019-09-25T10:24:23.001Z</time>
      </trkpt>
      <trkpt lat="47.81482" lon="5.98358">
        <ele>217.908</ele>
        <time>2019-09-25T10:24:29.001Z</time>
      </trkpt>
      <trkpt lat="47.8148" lon="5.98358">
        <ele>217.926</ele>
        <time>2019-09-25T10:24:32.001Z</time>
      </trkpt>
      <trkpt lat="47.8148" lon="5.98358">
        <ele>217.926</ele>
        <time>2019-09-25T10:24:38.001Z</time>
      </trkpt>
      <trkpt lat="47.81481" lon="5.98356">
        <ele>217.429</ele>
        <time>2019-09-25T10:24:41.001Z</time>
      </trkpt>
      <trkpt lat="47.81482" lon="5.98354">
        <ele>216.467</ele>
        <time>2019-09-25T10:24:44.001Z</time>
      </trkpt>
      <trkpt lat="47.81482" lon="5.9835">
        <ele>215.587</ele>
        <time>2019-09-25T10:29:47.001Z</time>
      </trkpt>
      <trkpt lat="47.81479" lon="5.98349">
        <ele>215.614</ele>
        <time>2019-09-25T10:29:50.001Z</time>
      </trkpt>
      <trkpt lat="47.81471" lon="5.98349">
        <ele>215.417</ele>
        <time>2019-09-25T10:29:56.001Z</time>
      </trkpt>
      <trkpt lat="47.81469" lon="5.9835">
        <ele>215.556</ele>
        <time>2019-09-25T10:29:59.001Z</time>
      </trkpt>
      <trkpt lat="47.81468" lon="5.98352">
        <ele>216.174</ele>
        <time>2019-09-25T12:30:02Z</time>
      </trkpt>
      <trkpt lat="47.81468" lon="5.98352">
        <ele>215.966</ele>
        <time>2019-09-25T10:31:05.001Z</time>
      </trkpt>
      <trkpt lat="47.81468" lon="5.98353">
        <ele>215.868</ele>
        <time>2019-09-25T10:31:08.001Z</time>
      </trkpt>
      <trkpt lat="47.81466" lon="5.98366">
        <ele>215.266</ele>
        <time>2019-09-25T10:31:14.001Z</time>
      </trkpt>
      <trkpt lat="47.81466" lon="5.98376">
        <ele>214.741</ele>
        <time>2019-09-25T10:31:17.001Z</time>
      </trkpt>
      <trkpt lat="47.81465" lon="5.98387">
        <ele>214.29</ele>
        <time>2019-09-25T10:31:20.001Z</time>
      </trkpt>
      <trkpt lat="47.81466" lon="5.98398">
        <ele>213.352</ele>
        <time>2019-09-25T10:31:23.001Z</time>
      </trkpt>
      <trkpt lat="47.81467" lon="5.98411">
        <ele>212.682</ele>
        <time>2019-09-25T10:31:26.001Z</time>
      </trkpt>
      <trkpt lat="47.81465" lon="5.98424">
        <ele>212.16</ele>
        <time>2019-09-25T10:31:29.001Z</time>
      </trkpt>
      <trkpt lat="47.81463" lon="5.98428">
        <ele>211.293</ele>
        <time>2019-09-25T10:31:32.001Z</time>
      </trkpt>
      <trkpt lat="47.81463" lon="5.98428">
        <ele>211.293</ele>
        <time>2019-09-25T10:33:44.001Z</time>
      </trkpt>
      <trkpt lat="47.81463" lon="5.98434">
        <ele>211.489</ele>
        <time>2019-09-25T10:33:47.001Z</time>
      </trkpt>
      <trkpt lat="47.81461" lon="5.98441">
        <ele>211.751</ele>
        <time>2019-09-25T10:33:50.001Z</time>
      </trkpt>
      <trkpt lat="47.81458" lon="5.98452">
        <ele>212.581</ele>
        <time>2019-09-25T10:33:53.001Z</time>
      </trkpt>
      <trkpt lat="47.81453" lon="5.98464">
        <ele>212.919</ele>
        <time>2019-09-25T10:33:56.001Z</time>
      </trkpt>
      <trkpt lat="47.81446" lon="5.98475">
        <ele>213.414</ele>
        <time>2019-09-25T10:33:59.001Z</time>
      </trkpt>
      <trkpt lat="47.81439" lon="5.98484">
        <ele>213.653</ele>
        <time>2019-09-25T12:34:02Z</time>
      </trkpt>
      <trkpt lat="47.8143" lon="5.98492">
        <ele>213.145</ele>
        <time>2019-09-25T10:34:05.001Z</time>
      </trkpt>
      <trkpt lat="47.8142" lon="5.98498">
        <ele>213.013</ele>
        <time>2019-09-25T10:34:08.001Z</time>
      </trkpt>
      <trkpt lat="47.81408" lon="5.98504">
        <ele>211.866</ele>
        <time>2019-09-25T10:34:11.001Z</time>
      </trkpt>
      <trkpt lat="47.81396" lon="5.98513">
        <ele>211.283</ele>
        <time>2019-09-25T10:34:14.001Z</time>
      </trkpt>
      <trkpt lat="47.81384" lon="5.98523">
        <ele>210.751</ele>
        <time>2019-09-25T10:34:17.001Z</time>
      </trkpt>
      <trkpt lat="47.81374" lon="5.98534">
        <ele>209.922</ele>
        <time>2019-09-25T10:34:20.001Z</time>
      </trkpt>
      <trkpt lat="47.81366" lon="5.98544">
        <ele>209.235</ele>
        <time>2019-09-25T10:34:23.001Z</time>
      </trkpt>
      <trkpt lat="47.81357" lon="5.98555">
        <ele>209.033</ele>
        <time>2019-09-25T10:34:26.001Z</time>
      </trkpt>
      <trkpt lat="47.8135" lon="5.98567">
        <ele>208.773</ele>
        <time>2019-09-25T10:34:29.001Z</time>
      </trkpt>
      <trkpt lat="47.81342" lon="5.9858">
        <ele>208.464</ele>
        <time>2019-09-25T10:34:32.001Z</time>
      </trkpt>
      <trkpt lat="47.81334" lon="5.98591">
        <ele>208.131</ele>
        <time>2019-09-25T10:34:35.001Z</time>
      </trkpt>
      <trkpt lat="47.81326" lon="5.986">
        <ele>208.013</ele>
        <time>2019-09-25T10:34:38.001Z</time>
      </trkpt>
      <trkpt lat="47.81318" lon="5.98605">
        <ele>208.091</ele>
        <time>2019-09-25T10:34:41.001Z</time>
      </trkpt>
      <trkpt lat="47.8131" lon="5.98608">
        <ele>208.098</ele>
        <time>2019-09-25T10:34:44.001Z</time>
      </trkpt>
      <trkpt lat="47.81303" lon="5.98609">
        <ele>207.85</ele>
        <time>2019-09-25T10:34:47.001Z</time>
      </trkpt>
      <trkpt lat="47.81293" lon="5.9861">
        <ele>207.193</ele>
        <time>2019-09-25T10:34:50.001Z</time>
      </trkpt>
      <trkpt lat="47.8128" lon="5.98614">
        <ele>206.438</ele>
        <time>2019-09-25T10:34:53.001Z</time>
      </trkpt>
      <trkpt lat="47.81268" lon="5.98618">
        <ele>206.79</ele>
        <time>2019-09-25T10:34:56.001Z</time>
      </trkpt>
      <trkpt lat="47.81255" lon="5.98621">
        <ele>206.605</ele>
        <time>2019-09-25T10:34:59.001Z</time>
      </trkpt>
      <trkpt lat="47.81243" lon="5.98625">
        <ele>206.413</ele>
        <time>2019-09-25T12:35:02Z</time>
      </trkpt>
      <trkpt lat="47.81231" lon="5.98629">
        <ele>206.065</ele>
        <time>2019-09-25T10:35:05.001Z</time>
      </trkpt>
      <trkpt lat="47.81218" lon="5.98633">
        <ele>205.389</ele>
        <time>2019-09-25T10:35:08.001Z</time>
      </trkpt>
      <trkpt lat="47.81206" lon="5.98638">
        <ele>205.241</ele>
        <time>2019-09-25T10:35:11.001Z</time>
      </trkpt>
      <trkpt lat="47.81193" lon="5.98643">
        <ele>205.32</ele>
        <time>2019-09-25T10:35:14.001Z</time>
      </trkpt>
      <trkpt lat="47.8118" lon="5.98647">
        <ele>205.728</ele>
        <time>2019-09-25T10:35:17.001Z</time>
      </trkpt>
      <trkpt lat="47.81168" lon="5.98651">
        <ele>206.133</ele>
        <time>2019-09-25T10:35:20.001Z</time>
      </trkpt>
      <trkpt lat="47.81156" lon="5.98655">
        <ele>206.514</ele>
        <time>2019-09-25T10:35:23.001Z</time>
      </trkpt>
      <trkpt lat="47.81144" lon="5.98659">
        <ele>207.002</ele>
        <time>2019-09-25T10:35:26.001Z</time>
      </trkpt>
      <trkpt lat="47.81132" lon="5.98663">
        <ele>207.752</ele>
        <time>2019-09-25T10:35:29.001Z</time>
      </trkpt>
      <trkpt lat="47.8112" lon="5.98666">
        <ele>208.011</ele>
        <time>2019-09-25T10:35:32.001Z</time>
      </trkpt>
      <trkpt lat="47.81109" lon="5.9867">
        <ele>208.402</ele>
        <time>2019-09-25T10:35:35.001Z</time>
      </trkpt>
      <trkpt lat="47.81098" lon="5.98673">
        <ele>208.715</ele>
        <time>2019-09-25T10:35:38.001Z</time>
      </trkpt>
      <trkpt lat="47.81087" lon="5.98677">
        <ele>208.846</ele>
        <time>2019-09-25T10:35:41.001Z</time>
      </trkpt>
      <trkpt lat="47.81076" lon="5.98682">
        <ele>209.017</ele>
        <time>2019-09-25T10:35:44.001Z</time>
      </trkpt>
      <trkpt lat="47.81065" lon="5.98685">
        <ele>209.203</ele>
        <time>2019-09-25T10:35:47.001Z</time>
      </trkpt>
      <trkpt lat="47.81054" lon="5.9869">
        <ele>209.313</ele>
        <time>2019-09-25T10:35:50.001Z</time>
      </trkpt>
      <trkpt lat="47.81043" lon="5.98695">
        <ele>209.73</ele>
        <time>2019-09-25T10:35:53.001Z</time>
      </trkpt>
      <trkpt lat="47.81033" lon="5.987">
        <ele>210.065</ele>
        <time>2019-09-25T10:35:56.001Z</time>
      </trkpt>
      <trkpt lat="47.81022" lon="5.98705">
        <ele>210.583</ele>
        <time>2019-09-25T10:35:59.001Z</time>
      </trkpt>
      <trkpt lat="47.81012" lon="5.98711">
        <ele>211.283</ele>
        <time>2019-09-25T12:36:02Z</time>
      </trkpt>
      <trkpt lat="47.81001" lon="5.98714">
        <ele>212.172</ele>
        <time>2019-09-25T10:36:05.001Z</time>
      </trkpt>
      <trkpt lat="47.80991" lon="5.98717">
        <ele>212.845</ele>
        <time>2019-09-25T10:36:08.001Z</time>
      </trkpt>
      <trkpt lat="47.80983" lon="5.98729">
        <ele>213.4</ele>
        <time>2019-09-25T10:36:11.001Z</time>
      </trkpt>
      <trkpt lat="47.80977" lon="5.98746">
        <ele>213.126</ele>
        <time>2019-09-25T10:36:14.001Z</time>
      </trkpt>
      <trkpt lat="47.8097" lon="5.98763">
        <ele>213.122</ele>
        <time>2019-09-25T10:36:17.001Z</time>
      </trkpt>
      <trkpt lat="47.80959" lon="5.98777">
        <ele>213.446</ele>
        <time>2019-09-25T10:36:20.001Z</time>
      </trkpt>
      <trkpt lat="47.80949" lon="5.98789">
        <ele>213.305</ele>
        <time>2019-09-25T10:36:23.001Z</time>
      </trkpt>
      <trkpt lat="47.80939" lon="5.98801">
        <ele>212.967</ele>
        <time>2019-09-25T10:36:26.001Z</time>
      </trkpt>
      <trkpt lat="47.80929" lon="5.98813">
        <ele>213.14</ele>
        <time>2019-09-25T10:36:29.001Z</time>
      </trkpt>
      <trkpt lat="47.80918" lon="5.98825">
        <ele>213.324</ele>
        <time>2019-09-25T10:36:32.001Z</time>
      </trkpt>
      <trkpt lat="47.80907" lon="5.98838">
        <ele>212.98</ele>
        <time>2019-09-25T10:36:35.001Z</time>
      </trkpt>
      <trkpt lat="47.80896" lon="5.9885">
        <ele>212.382</ele>
        <time>2019-09-25T10:36:38.001Z</time>
      </trkpt>
      <trkpt lat="47.80886" lon="5.98863">
        <ele>211.464</ele>
        <time>2019-09-25T10:36:41.001Z</time>
      </trkpt>
      <trkpt lat="47.80877" lon="5.98875">
        <ele>210.69</ele>
        <time>2019-09-25T10:36:44.001Z</time>
      </trkpt>
      <trkpt lat="47.80866" lon="5.98887">
        <ele>210.112</ele>
        <time>2019-09-25T10:36:47.001Z</time>
      </trkpt>
      <trkpt lat="47.80857" lon="5.98899">
        <ele>209.687</ele>
        <time>2019-09-25T10:36:50.001Z</time>
      </trkpt>
      <trkpt lat="47.80847" lon="5.98911">
        <ele>209.506</ele>
        <time>2019-09-25T10:36:53.001Z</time>
      </trkpt>
      <trkpt lat="47.80837" lon="5.98922">
        <ele>209.341</ele>
        <time>2019-09-25T10:36:56.001Z</time>
      </trkpt>
      <trkpt lat="47.80827" lon="5.98935">
        <ele>209.286</ele>
        <time>2019-09-25T10:36:59.001Z</time>
      </trkpt>
      <trkpt lat="47.80816" lon="5.98947">
        <ele>208.673</ele>
        <time>2019-09-25T12:37:02Z</time>
      </trkpt>
      <trkpt lat="47.80807" lon="5.9896">
        <ele>208.14</ele>
        <time>2019-09-25T10:37:05.001Z</time>
      </trkpt>
      <trkpt lat="47.80797" lon="5.98972">
        <ele>208.099</ele>
        <time>2019-09-25T10:37:08.001Z</time>
      </trkpt>
      <trkpt lat="47.80785" lon="5.98985">
        <ele>208.055</ele>
        <time>2019-09-25T10:37:11.001Z</time>
      </trkpt>
      <trkpt lat="47.80775" lon="5.98997">
        <ele>208.346</ele>
        <time>2019-09-25T10:37:14.001Z</time>
      </trkpt>
      <trkpt lat="47.80764" lon="5.99008">
        <ele>208.505</ele>
        <time>2019-09-25T10:37:17.001Z</time>
      </trkpt>
      <trkpt lat="47.80753" lon="5.99018">
        <ele>208.352</ele>
        <time>2019-09-25T10:37:20.001Z</time>
      </trkpt>
      <trkpt lat="47.80741" lon="5.99028">
        <ele>208.348</ele>
        <time>2019-09-25T10:37:23.001Z</time>
      </trkpt>
      <trkpt lat="47.8073" lon="5.99037">
        <ele>209.006</ele>
        <time>2019-09-25T10:37:26.001Z</time>
      </trkpt>
      <trkpt lat="47.80718" lon="5.99044">
        <ele>209.233</ele>
        <time>2019-09-25T10:37:29.001Z</time>
      </trkpt>
      <trkpt lat="47.80705" lon="5.99051">
        <ele>209.458</ele>
        <time>2019-09-25T10:37:32.001Z</time>
      </trkpt>
      <trkpt lat="47.80693" lon="5.99058">
        <ele>210.014</ele>
        <time>2019-09-25T10:37:35.001Z</time>
      </trkpt>
      <trkpt lat="47.80679" lon="5.99066">
        <ele>210.127</ele>
        <time>2019-09-25T10:37:38.001Z</time>
      </trkpt>
      <trkpt lat="47.80667" lon="5.99073">
        <ele>210.012</ele>
        <time>2019-09-25T10:37:41.001Z</time>
      </trkpt>
      <trkpt lat="47.80655" lon="5.9908">
        <ele>209.29</ele>
        <time>2019-09-25T10:37:44.001Z</time>
      </trkpt>
      <trkpt lat="47.80643" lon="5.99087">
        <ele>208.894</ele>
        <time>2019-09-25T10:37:47.001Z</time>
      </trkpt>
      <trkpt lat="47.80631" lon="5.99094">
        <ele>208.855</ele>
        <time>2019-09-25T10:37:50.001Z</time>
      </trkpt>
      <trkpt lat="47.80618" lon="5.99101">
        <ele>208.769</ele>
        <time>2019-09-25T10:37:53.001Z</time>
      </trkpt>
      <trkpt lat="47.80606" lon="5.99108">
        <ele>208.626</ele>
        <time>2019-09-25T10:37:56.001Z</time>
      </trkpt>
      <trkpt lat="47.80593" lon="5.99115">
        <ele>208.907</ele>
        <time>2019-09-25T10:37:59.001Z</time>
      </trkpt>
      <trkpt lat="47.80581" lon="5.99122">
        <ele>208.937</ele>
        <time>2019-09-25T12:38:02Z</time>
      </trkpt>
      <trkpt lat="47.80569" lon="5.99129">
        <ele>209.904</ele>
        <time>2019-09-25T10:38:05.001Z</time>
      </trkpt>
      <trkpt lat="47.80558" lon="5.99135">
        <ele>210.499</ele>
        <time>2019-09-25T10:38:08.001Z</time>
      </trkpt>
      <trkpt lat="47.80547" lon="5.99141">
        <ele>210.687</ele>
        <time>2019-09-25T10:38:11.001Z</time>
      </trkpt>
      <trkpt lat="47.80536" lon="5.99147">
        <ele>210.9</ele>
        <time>2019-09-25T10:38:14.001Z</time>
      </trkpt>
      <trkpt lat="47.80522" lon="5.99156">
        <ele>211.045</ele>
        <time>2019-09-25T10:38:17.001Z</time>
      </trkpt>
      <trkpt lat="47.80508" lon="5.99164">
        <ele>210.894</ele>
        <time>2019-09-25T10:38:20.001Z</time>
      </trkpt>
      <trkpt lat="47.80495" lon="5.99172">
        <ele>210.738</ele>
        <time>2019-09-25T10:38:23.001Z</time>
      </trkpt>
      <trkpt lat="47.80482" lon="5.99178">
        <ele>210.399</ele>
        <time>2019-09-25T10:38:26.001Z</time>
      </trkpt>
      <trkpt lat="47.80468" lon="5.99185">
        <ele>210.013</ele>
        <time>2019-09-25T10:38:29.001Z</time>
      </trkpt>
      <trkpt lat="47.80456" lon="5.99191">
        <ele>210.452</ele>
        <time>2019-09-25T10:38:32.001Z</time>
      </trkpt>
      <trkpt lat="47.80444" lon="5.99196">
        <ele>211.304</ele>
        <time>2019-09-25T10:38:35.001Z</time>
      </trkpt>
      <trkpt lat="47.80432" lon="5.99202">
        <ele>211.996</ele>
        <time>2019-09-25T10:38:38.001Z</time>
      </trkpt>
      <trkpt lat="47.8042" lon="5.99208">
        <ele>212.452</ele>
        <time>2019-09-25T10:38:41.001Z</time>
      </trkpt>
      <trkpt lat="47.80407" lon="5.99213">
        <ele>213.505</ele>
        <time>2019-09-25T10:38:44.001Z</time>
      </trkpt>
      <trkpt lat="47.80392" lon="5.99222">
        <ele>213.8</ele>
        <time>2019-09-25T10:38:47.001Z</time>
      </trkpt>
      <trkpt lat="47.80378" lon="5.99231">
        <ele>213.503</ele>
        <time>2019-09-25T10:38:50.001Z</time>
      </trkpt>
      <trkpt lat="47.80365" lon="5.9924">
        <ele>213.501</ele>
        <time>2019-09-25T10:38:53.001Z</time>
      </trkpt>
      <trkpt lat="47.80351" lon="5.99248">
        <ele>213.232</ele>
        <time>2019-09-25T10:38:56.001Z</time>
      </trkpt>
      <trkpt lat="47.80338" lon="5.99255">
        <ele>213.2</ele>
        <time>2019-09-25T10:38:59.001Z</time>
      </trkpt>
      <trkpt lat="47.80326" lon="5.99261">
        <ele>213.37</ele>
        <time>2019-09-25T12:39:02Z</time>
      </trkpt>
      <trkpt lat="47.80312" lon="5.99268">
        <ele>213.892</ele>
        <time>2019-09-25T10:39:05.001Z</time>
      </trkpt>
      <trkpt lat="47.80298" lon="5.99275">
        <ele>214.611</ele>
        <time>2019-09-25T10:39:08.001Z</time>
      </trkpt>
      <trkpt lat="47.80286" lon="5.99281">
        <ele>214.847</ele>
        <time>2019-09-25T10:39:11.001Z</time>
      </trkpt>
      <trkpt lat="47.80273" lon="5.9929">
        <ele>214.145</ele>
        <time>2019-09-25T10:39:14.001Z</time>
      </trkpt>
      <trkpt lat="47.8026" lon="5.993">
        <ele>213.706</ele>
        <time>2019-09-25T10:39:17.001Z</time>
      </trkpt>
      <trkpt lat="47.80248" lon="5.99311">
        <ele>213.304</ele>
        <time>2019-09-25T10:39:20.001Z</time>
      </trkpt>
      <trkpt lat="47.80235" lon="5.99321">
        <ele>212.64</ele>
        <time>2019-09-25T10:39:23.001Z</time>
      </trkpt>
      <trkpt lat="47.80221" lon="5.9933">
        <ele>212.134</ele>
        <time>2019-09-25T10:39:26.001Z</time>
      </trkpt>
      <trkpt lat="47.80209" lon="5.99337">
        <ele>211.933</ele>
        <time>2019-09-25T10:39:29.001Z</time>
      </trkpt>
      <trkpt lat="47.80197" lon="5.99345">
        <ele>211.702</ele>
        <time>2019-09-25T10:39:32.001Z</time>
      </trkpt>
      <trkpt lat="47.80185" lon="5.99352">
        <ele>211.287</ele>
        <time>2019-09-25T10:39:35.001Z</time>
      </trkpt>
      <trkpt lat="47.80174" lon="5.99359">
        <ele>210.912</ele>
        <time>2019-09-25T10:39:38.001Z</time>
      </trkpt>
      <trkpt lat="47.80162" lon="5.99364">
        <ele>210.579</ele>
        <time>2019-09-25T10:39:41.001Z</time>
      </trkpt>
      <trkpt lat="47.80151" lon="5.9937">
        <ele>210.265</ele>
        <time>2019-09-25T10:39:44.001Z</time>
      </trkpt>
      <trkpt lat="47.80139" lon="5.99375">
        <ele>209.877</ele>
        <time>2019-09-25T10:39:47.001Z</time>
      </trkpt>
      <trkpt lat="47.80128" lon="5.99381">
        <ele>210.2</ele>
        <time>2019-09-25T10:39:50.001Z</time>
      </trkpt>
      <trkpt lat="47.80117" lon="5.99388">
        <ele>209.839</ele>
        <time>2019-09-25T10:39:53.001Z</time>
      </trkpt>
      <trkpt lat="47.80106" lon="5.99396">
        <ele>209.367</ele>
        <time>2019-09-25T10:39:56.001Z</time>
      </trkpt>
      <trkpt lat="47.80096" lon="5.99405">
        <ele>208.771</ele>
        <time>2019-09-25T10:39:59.001Z</time>
      </trkpt>
      <trkpt lat="47.80084" lon="5.99413">
        <ele>208.022</ele>
        <time>2019-09-25T12:40:02Z</time>
      </trkpt>
      <trkpt lat="47.80073" lon="5.99421">
        <ele>207.804</ele>
        <time>2019-09-25T10:40:05.001Z</time>
      </trkpt>
      <trkpt lat="47.80062" lon="5.99432">
        <ele>207.394</ele>
        <time>2019-09-25T10:40:08.001Z</time>
      </trkpt>
      <trkpt lat="47.80049" lon="5.99442">
        <ele>207.283</ele>
        <time>2019-09-25T10:40:11.001Z</time>
      </trkpt>
      <trkpt lat="47.80037" lon="5.99452">
        <ele>207.477</ele>
        <time>2019-09-25T10:40:14.001Z</time>
      </trkpt>
      <trkpt lat="47.80027" lon="5.99461">
        <ele>207.287</ele>
        <time>2019-09-25T10:40:17.001Z</time>
      </trkpt>
      <trkpt lat="47.80016" lon="5.9947">
        <ele>207.151</ele>
        <time>2019-09-25T10:40:20.001Z</time>
      </trkpt>
      <trkpt lat="47.80004" lon="5.9948">
        <ele>207.103</ele>
        <time>2019-09-25T10:40:23.001Z</time>
      </trkpt>
      <trkpt lat="47.79993" lon="5.9949">
        <ele>207.293</ele>
        <time>2019-09-25T10:40:26.001Z</time>
      </trkpt>
      <trkpt lat="47.79982" lon="5.99501">
        <ele>207.515</ele>
        <time>2019-09-25T10:40:29.001Z</time>
      </trkpt>
      <trkpt lat="47.7997" lon="5.99511">
        <ele>207.884</ele>
        <time>2019-09-25T10:40:32.001Z</time>
      </trkpt>
      <trkpt lat="47.7996" lon="5.99521">
        <ele>208.08</ele>
        <time>2019-09-25T10:40:35.001Z</time>
      </trkpt>
      <trkpt lat="47.79948" lon="5.9953">
        <ele>208.139</ele>
        <time>2019-09-25T10:40:38.001Z</time>
      </trkpt>
      <trkpt lat="47.79937" lon="5.9954">
        <ele>207.083</ele>
        <time>2019-09-25T10:40:41.001Z</time>
      </trkpt>
      <trkpt lat="47.79923" lon="5.99551">
        <ele>206.842</ele>
        <time>2019-09-25T10:40:44.001Z</time>
      </trkpt>
      <trkpt lat="47.7991" lon="5.99561">
        <ele>207.22</ele>
        <time>2019-09-25T10:40:47.001Z</time>
      </trkpt>
      <trkpt lat="47.79898" lon="5.99572">
        <ele>207.238</ele>
        <time>2019-09-25T10:40:50.001Z</time>
      </trkpt>
      <trkpt lat="47.79885" lon="5.9958">
        <ele>206.964</ele>
        <time>2019-09-25T10:40:53.001Z</time>
      </trkpt>
      <trkpt lat="47.79874" lon="5.99591">
        <ele>207.581</ele>
        <time>2019-09-25T10:40:56.001Z</time>
      </trkpt>
      <trkpt lat="47.79862" lon="5.99601">
        <ele>207.586</ele>
        <time>2019-09-25T10:40:59.001Z</time>
      </trkpt>
      <trkpt lat="47.7985" lon="5.99613">
        <ele>207.257</ele>
        <time>2019-09-25T12:41:02Z</time>
      </trkpt>
      <trkpt lat="47.79838" lon="5.99622">
        <ele>206.863</ele>
        <time>2019-09-25T10:41:05.001Z</time>
      </trkpt>
      <trkpt lat="47.79825" lon="5.99631">
        <ele>206.792</ele>
        <time>2019-09-25T10:41:08.001Z</time>
      </trkpt>
      <trkpt lat="47.79812" lon="5.9964">
        <ele>207.276</ele>
        <time>2019-09-25T10:41:11.001Z</time>
      </trkpt>
      <trkpt lat="47.798" lon="5.99647">
        <ele>207.676</ele>
        <time>2019-09-25T10:41:14.001Z</time>
      </trkpt>
      <trkpt lat="47.79788" lon="5.99656">
        <ele>207.403</ele>
        <time>2019-09-25T10:41:17.001Z</time>
      </trkpt>
      <trkpt lat="47.79777" lon="5.99663">
        <ele>207.452</ele>
        <time>2019-09-25T10:41:20.001Z</time>
      </trkpt>
      <trkpt lat="47.79766" lon="5.99672">
        <ele>206.938</ele>
        <time>2019-09-25T10:41:23.001Z</time>
      </trkpt>
      <trkpt lat="47.79754" lon="5.9968">
        <ele>206.271</ele>
        <time>2019-09-25T10:41:26.001Z</time>
      </trkpt>
      <trkpt lat="47.79743" lon="5.99687">
        <ele>205.67</ele>
        <time>2019-09-25T10:41:29.001Z</time>
      </trkpt>
      <trkpt lat="47.79732" lon="5.99696">
        <ele>205.413</ele>
        <time>2019-09-25T10:41:32.001Z</time>
      </trkpt>
      <trkpt lat="47.79721" lon="5.99705">
        <ele>205.415</ele>
        <time>2019-09-25T10:41:35.001Z</time>
      </trkpt>
      <trkpt lat="47.79709" lon="5.99713">
        <ele>205.257</ele>
        <time>2019-09-25T10:41:38.001Z</time>
      </trkpt>
      <trkpt lat="47.79698" lon="5.99722">
        <ele>205.189</ele>
        <time>2019-09-25T10:41:41.001Z</time>
      </trkpt>
      <trkpt lat="47.79685" lon="5.99732">
        <ele>205.597</ele>
        <time>2019-09-25T10:41:44.001Z</time>
      </trkpt>
      <trkpt lat="47.79673" lon="5.99741">
        <ele>205.257</ele>
        <time>2019-09-25T10:41:47.001Z</time>
      </trkpt>
      <trkpt lat="47.79662" lon="5.99749">
        <ele>205.219</ele>
        <time>2019-09-25T10:41:50.001Z</time>
      </trkpt>
      <trkpt lat="47.79651" lon="5.99758">
        <ele>204.991</ele>
        <time>2019-09-25T10:41:53.001Z</time>
      </trkpt>
      <trkpt lat="47.79639" lon="5.99767">
        <ele>205.148</ele>
        <time>2019-09-25T10:41:56.001Z</time>
      </trkpt>
      <trkpt lat="47.79627" lon="5.99777">
        <ele>205.207</ele>
        <time>2019-09-25T10:41:59.001Z</time>
      </trkpt>
      <trkpt lat="47.79616" lon="5.99785">
        <ele>204.936</ele>
        <time>2019-09-25T12:42:02Z</time>
      </trkpt>
      <trkpt lat="47.79605" lon="5.99795">
        <ele>205.148</ele>
        <time>2019-09-25T10:42:05.001Z</time>
      </trkpt>
      <trkpt lat="47.79593" lon="5.99804">
        <ele>205.31</ele>
        <time>2019-09-25T10:42:08.001Z</time>
      </trkpt>
      <trkpt lat="47.79581" lon="5.99813">
        <ele>205.487</ele>
        <time>2019-09-25T10:42:11.001Z</time>
      </trkpt>
      <trkpt lat="47.7957" lon="5.99822">
        <ele>205.591</ele>
        <time>2019-09-25T10:42:14.001Z</time>
      </trkpt>
      <trkpt lat="47.79559" lon="5.99831">
        <ele>205.919</ele>
        <time>2019-09-25T10:42:17.001Z</time>
      </trkpt>
      <trkpt lat="47.79548" lon="5.99838">
        <ele>205.899</ele>
        <time>2019-09-25T10:42:20.001Z</time>
      </trkpt>
      <trkpt lat="47.79537" lon="5.99847">
        <ele>206.149</ele>
        <time>2019-09-25T10:42:23.001Z</time>
      </trkpt>
      <trkpt lat="47.79527" lon="5.99856">
        <ele>206.316</ele>
        <time>2019-09-25T10:42:26.001Z</time>
      </trkpt>
      <trkpt lat="47.79517" lon="5.99863">
        <ele>206.753</ele>
        <time>2019-09-25T10:42:29.001Z</time>
      </trkpt>
      <trkpt lat="47.79509" lon="5.99871">
        <ele>207.331</ele>
        <time>2019-09-25T10:42:32.001Z</time>
      </trkpt>
      <trkpt lat="47.79501" lon="5.99878">
        <ele>208.377</ele>
        <time>2019-09-25T10:42:35.001Z</time>
      </trkpt>
      <trkpt lat="47.79491" lon="5.99884">
        <ele>209.177</ele>
        <time>2019-09-25T10:42:38.001Z</time>
      </trkpt>
      <trkpt lat="47.79482" lon="5.9989">
        <ele>209.484</ele>
        <time>2019-09-25T10:42:41.001Z</time>
      </trkpt>
      <trkpt lat="47.79472" lon="5.99898">
        <ele>209.838</ele>
        <time>2019-09-25T10:42:44.001Z</time>
      </trkpt>
      <trkpt lat="47.79463" lon="5.99906">
        <ele>209.736</ele>
        <time>2019-09-25T10:42:47.001Z</time>
      </trkpt>
      <trkpt lat="47.79454" lon="5.99915">
        <ele>209.724</ele>
        <time>2019-09-25T10:42:50.001Z</time>
      </trkpt>
      <trkpt lat="47.79446" lon="5.99923">
        <ele>209.418</ele>
        <time>2019-09-25T10:42:53.001Z</time>
      </trkpt>
      <trkpt lat="47.79436" lon="5.9993">
        <ele>209.478</ele>
        <time>2019-09-25T10:42:56.001Z</time>
      </trkpt>
      <trkpt lat="47.79427" lon="5.99937">
        <ele>209.843</ele>
        <time>2019-09-25T10:42:59.001Z</time>
      </trkpt>
      <trkpt lat="47.79418" lon="5.99943">
        <ele>209.573</ele>
        <time>2019-09-25T12:43:02Z</time>
      </trkpt>
      <trkpt lat="47.79407" lon="5.99952">
        <ele>209.403</ele>
        <time>2019-09-25T10:43:05.001Z</time>
      </trkpt>
      <trkpt lat="47.79396" lon="5.9996">
        <ele>209.053</ele>
        <time>2019-09-25T10:43:08.001Z</time>
      </trkpt>
      <trkpt lat="47.79382" lon="5.9997">
        <ele>209.063</ele>
        <time>2019-09-25T10:43:11.001Z</time>
      </trkpt>
      <trkpt lat="47.79369" lon="5.9998">
        <ele>208.559</ele>
        <time>2019-09-25T10:43:14.001Z</time>
      </trkpt>
      <trkpt lat="47.79355" lon="5.99991">
        <ele>207.926</ele>
        <time>2019-09-25T10:43:17.001Z</time>
      </trkpt>
      <trkpt lat="47.7934" lon="6">
        <ele>207.955</ele>
        <time>2019-09-25T10:43:20.001Z</time>
      </trkpt>
      <trkpt lat="47.79327" lon="6.00009">
        <ele>208.047</ele>
        <time>2019-09-25T10:43:23.001Z</time>
      </trkpt>
      <trkpt lat="47.79315" lon="6.00019">
        <ele>207.775</ele>
        <time>2019-09-25T10:43:26.001Z</time>
      </trkpt>
      <trkpt lat="47.79304" lon="6.00029">
        <ele>207.826</ele>
        <time>2019-09-25T10:43:29.001Z</time>
      </trkpt>
      <trkpt lat="47.79294" lon="6.00038">
        <ele>207.385</ele>
        <time>2019-09-25T10:43:32.001Z</time>
      </trkpt>
      <trkpt lat="47.79284" lon="6.00045">
        <ele>207.195</ele>
        <time>2019-09-25T10:43:35.001Z</time>
      </trkpt>
      <trkpt lat="47.79273" lon="6.00055">
        <ele>207.648</ele>
        <time>2019-09-25T10:43:38.001Z</time>
      </trkpt>
      <trkpt lat="47.79261" lon="6.00064">
        <ele>207.996</ele>
        <time>2019-09-25T10:43:41.001Z</time>
      </trkpt>
      <trkpt lat="47.7925" lon="6.00073">
        <ele>208.599</ele>
        <time>2019-09-25T10:43:44.001Z</time>
      </trkpt>
      <trkpt lat="47.79239" lon="6.00084">
        <ele>207.913</ele>
        <time>2019-09-25T10:43:47.001Z</time>
      </trkpt>
      <trkpt lat="47.79228" lon="6.00096">
        <ele>208.062</ele>
        <time>2019-09-25T10:43:50.001Z</time>
      </trkpt>
      <trkpt lat="47.79216" lon="6.00107">
        <ele>207.932</ele>
        <time>2019-09-25T10:43:53.001Z</time>
      </trkpt>
      <trkpt lat="47.79203" lon="6.00119">
        <ele>207.394</ele>
        <time>2019-09-25T10:43:56.001Z</time>
      </trkpt>
      <trkpt lat="47.7919" lon="6.00133">
        <ele>207.372</ele>
        <time>2019-09-25T10:43:59.001Z</time>
      </trkpt>
      <trkpt lat="47.79177" lon="6.00146">
        <ele>207.386</ele>
        <time>2019-09-25T12:44:02Z</time>
      </trkpt>
      <trkpt lat="47.79165" lon="6.00157">
        <ele>208.043</ele>
        <time>2019-09-25T10:44:05.001Z</time>
      </trkpt>
      <trkpt lat="47.79153" lon="6.00166">
        <ele>209.087</ele>
        <time>2019-09-25T10:44:08.001Z</time>
      </trkpt>
      <trkpt lat="47.79141" lon="6.00175">
        <ele>209.77</ele>
        <time>2019-09-25T10:44:11.001Z</time>
      </trkpt>
      <trkpt lat="47.79128" lon="6.00182">
        <ele>210.737</ele>
        <time>2019-09-25T10:44:14.001Z</time>
      </trkpt>
      <trkpt lat="47.79115" lon="6.0019">
        <ele>211.464</ele>
        <time>2019-09-25T10:44:17.001Z</time>
      </trkpt>
      <trkpt lat="47.79103" lon="6.00198">
        <ele>212.646</ele>
        <time>2019-09-25T10:44:20.001Z</time>
      </trkpt>
      <trkpt lat="47.79092" lon="6.00208">
        <ele>213.333</ele>
        <time>2019-09-25T10:44:23.001Z</time>
      </trkpt>
      <trkpt lat="47.79083" lon="6.00218">
        <ele>212.12</ele>
        <time>2019-09-25T10:44:26.001Z</time>
      </trkpt>
      <trkpt lat="47.79072" lon="6.00231">
        <ele>210.849</ele>
        <time>2019-09-25T10:44:29.001Z</time>
      </trkpt>
      <trkpt lat="47.79064" lon="6.00246">
        <ele>210.513</ele>
        <time>2019-09-25T10:44:32.001Z</time>
      </trkpt>
      <trkpt lat="47.79056" lon="6.00261">
        <ele>211.2</ele>
        <time>2019-09-25T10:44:35.001Z</time>
      </trkpt>
      <trkpt lat="47.7905" lon="6.00275">
        <ele>212.438</ele>
        <time>2019-09-25T10:44:38.001Z</time>
      </trkpt>
      <trkpt lat="47.79042" lon="6.00287">
        <ele>213.136</ele>
        <time>2019-09-25T10:44:41.001Z</time>
      </trkpt>
      <trkpt lat="47.79033" lon="6.00298">
        <ele>213.726</ele>
        <time>2019-09-25T10:44:44.001Z</time>
      </trkpt>
      <trkpt lat="47.79025" lon="6.00309">
        <ele>214.468</ele>
        <time>2019-09-25T10:44:47.001Z</time>
      </trkpt>
      <trkpt lat="47.79018" lon="6.0032">
        <ele>215.333</ele>
        <time>2019-09-25T10:44:50.001Z</time>
      </trkpt>
      <trkpt lat="47.7901" lon="6.00332">
        <ele>216.141</ele>
        <time>2019-09-25T10:44:53.001Z</time>
      </trkpt>
      <trkpt lat="47.79003" lon="6.00342">
        <ele>217.057</ele>
        <time>2019-09-25T10:44:56.001Z</time>
      </trkpt>
      <trkpt lat="47.78995" lon="6.00354">
        <ele>218.335</ele>
        <time>2019-09-25T10:44:59.001Z</time>
      </trkpt>
      <trkpt lat="47.7899" lon="6.00367">
        <ele>219.281</ele>
        <time>2019-09-25T12:45:02Z</time>
      </trkpt>
      <trkpt lat="47.78984" lon="6.0038">
        <ele>220.028</ele>
        <time>2019-09-25T10:45:05.001Z</time>
      </trkpt>
      <trkpt lat="47.78979" lon="6.00394">
        <ele>220.932</ele>
        <time>2019-09-25T10:45:08.001Z</time>
      </trkpt>
      <trkpt lat="47.78973" lon="6.00404">
        <ele>222.021</ele>
        <time>2019-09-25T10:45:11.001Z</time>
      </trkpt>
      <trkpt lat="47.78969" lon="6.00416">
        <ele>222.674</ele>
        <time>2019-09-25T10:45:14.001Z</time>
      </trkpt>
      <trkpt lat="47.78965" lon="6.00427">
        <ele>223.234</ele>
        <time>2019-09-25T10:45:17.001Z</time>
      </trkpt>
      <trkpt lat="47.78961" lon="6.00436">
        <ele>224.059</ele>
        <time>2019-09-25T10:45:20.001Z</time>
      </trkpt>
      <trkpt lat="47.78957" lon="6.00446">
        <ele>224.822</ele>
        <time>2019-09-25T10:45:23.001Z</time>
      </trkpt>
      <trkpt lat="47.78954" lon="6.00455">
        <ele>224.906</ele>
        <time>2019-09-25T10:45:26.001Z</time>
      </trkpt>
      <trkpt lat="47.7895" lon="6.00465">
        <ele>225.044</ele>
        <time>2019-09-25T10:45:29.001Z</time>
      </trkpt>
      <trkpt lat="47.78947" lon="6.00474">
        <ele>225.012</ele>
        <time>2019-09-25T10:45:32.001Z</time>
      </trkpt>
      <trkpt lat="47.78944" lon="6.00483">
        <ele>224.794</ele>
        <time>2019-09-25T10:45:35.001Z</time>
      </trkpt>
      <trkpt lat="47.7894" lon="6.00493">
        <ele>223.66</ele>
        <time>2019-09-25T10:45:38.001Z</time>
      </trkpt>
      <trkpt lat="47.78935" lon="6.00502">
        <ele>223.47</ele>
        <time>2019-09-25T10:45:41.001Z</time>
      </trkpt>
      <trkpt lat="47.7893" lon="6.0051">
        <ele>224.241</ele>
        <time>2019-09-25T10:45:44.001Z</time>
      </trkpt>
      <trkpt lat="47.78925" lon="6.00519">
        <ele>225.136</ele>
        <time>2019-09-25T10:45:47.001Z</time>
      </trkpt>
      <trkpt lat="47.78919" lon="6.00528">
        <ele>225.982</ele>
        <time>2019-09-25T10:45:50.001Z</time>
      </trkpt>
      <trkpt lat="47.78915" lon="6.00537">
        <ele>226.573</ele>
        <time>2019-09-25T10:45:53.001Z</time>
      </trkpt>
      <trkpt lat="47.7891" lon="6.00545">
        <ele>227.354</ele>
        <time>2019-09-25T10:45:56.001Z</time>
      </trkpt>
      <trkpt lat="47.78905" lon="6.00554">
        <ele>227.88</ele>
        <time>2019-09-25T10:45:59.001Z</time>
      </trkpt>
      <trkpt lat="47.78901" lon="6.0056">
        <ele>228.603</ele>
        <time>2019-09-25T12:46:02Z</time>
      </trkpt>
      <trkpt lat="47.78897" lon="6.00567">
        <ele>229.03</ele>
        <time>2019-09-25T10:46:05.001Z</time>
      </trkpt>
      <trkpt lat="47.78893" lon="6.00576">
        <ele>229.517</ele>
        <time>2019-09-25T10:46:08.001Z</time>
      </trkpt>
      <trkpt lat="47.78885" lon="6.00585">
        <ele>228.45</ele>
        <time>2019-09-25T10:46:11.001Z</time>
      </trkpt>
      <trkpt lat="47.78876" lon="6.00597">
        <ele>227.015</ele>
        <time>2019-09-25T10:46:14.001Z</time>
      </trkpt>
      <trkpt lat="47.78867" lon="6.00611">
        <ele>226.244</ele>
        <time>2019-09-25T10:46:17.001Z</time>
      </trkpt>
      <trkpt lat="47.78857" lon="6.00626">
        <ele>225.234</ele>
        <time>2019-09-25T10:46:20.001Z</time>
      </trkpt>
      <trkpt lat="47.7885" lon="6.00643">
        <ele>224.519</ele>
        <time>2019-09-25T10:46:23.001Z</time>
      </trkpt>
      <trkpt lat="47.78842" lon="6.00661">
        <ele>224.445</ele>
        <time>2019-09-25T10:46:26.001Z</time>
      </trkpt>
      <trkpt lat="47.7883" lon="6.00678">
        <ele>223.715</ele>
        <time>2019-09-25T10:46:29.001Z</time>
      </trkpt>
      <trkpt lat="47.78822" lon="6.00696">
        <ele>223.181</ele>
        <time>2019-09-25T10:46:32.001Z</time>
      </trkpt>
      <trkpt lat="47.78814" lon="6.00712">
        <ele>222.65</ele>
        <time>2019-09-25T10:46:35.001Z</time>
      </trkpt>
      <trkpt lat="47.78805" lon="6.00728">
        <ele>222.604</ele>
        <time>2019-09-25T10:46:38.001Z</time>
      </trkpt>
      <trkpt lat="47.78797" lon="6.00744">
        <ele>222.44</ele>
        <time>2019-09-25T10:46:41.001Z</time>
      </trkpt>
      <trkpt lat="47.7879" lon="6.0076">
        <ele>221.926</ele>
        <time>2019-09-25T10:46:44.001Z</time>
      </trkpt>
      <trkpt lat="47.78784" lon="6.00777">
        <ele>221.827</ele>
        <time>2019-09-25T10:46:47.001Z</time>
      </trkpt>
      <trkpt lat="47.78779" lon="6.00792">
        <ele>221.688</ele>
        <time>2019-09-25T10:46:50.001Z</time>
      </trkpt>
      <trkpt lat="47.78773" lon="6.00806">
        <ele>221.398</ele>
        <time>2019-09-25T10:46:53.001Z</time>
      </trkpt>
      <trkpt lat="47.78768" lon="6.00817">
        <ele>221.268</ele>
        <time>2019-09-25T10:46:56.001Z</time>
      </trkpt>
      <trkpt lat="47.78765" lon="6.00827">
        <ele>221.376</ele>
        <time>2019-09-25T10:46:59.001Z</time>
      </trkpt>
      <trkpt lat="47.78761" lon="6.00836">
        <ele>222.078</ele>
        <time>2019-09-25T12:47:02Z</time>
      </trkpt>
      <trkpt lat="47.7876" lon="6.00848">
        <ele>223.39</ele>
        <time>2019-09-25T10:47:05.001Z</time>
      </trkpt>
      <trkpt lat="47.78756" lon="6.00857">
        <ele>224.28</ele>
        <time>2019-09-25T10:47:08.001Z</time>
      </trkpt>
      <trkpt lat="47.78752" lon="6.00865">
        <ele>224.358</ele>
        <time>2019-09-25T10:47:11.001Z</time>
      </trkpt>
      <trkpt lat="47.78746" lon="6.00872">
        <ele>224.539</ele>
        <time>2019-09-25T10:47:14.001Z</time>
      </trkpt>
      <trkpt lat="47.7874" lon="6.00879">
        <ele>224.971</ele>
        <time>2019-09-25T10:47:17.001Z</time>
      </trkpt>
      <trkpt lat="47.78736" lon="6.00887">
        <ele>225.001</ele>
        <time>2019-09-25T10:47:20.001Z</time>
      </trkpt>
      <trkpt lat="47.78731" lon="6.00894">
        <ele>225.684</ele>
        <time>2019-09-25T10:47:23.001Z</time>
      </trkpt>
      <trkpt lat="47.78727" lon="6.00903">
        <ele>226.348</ele>
        <time>2019-09-25T10:47:26.001Z</time>
      </trkpt>
      <trkpt lat="47.78723" lon="6.00911">
        <ele>226.894</ele>
        <time>2019-09-25T10:47:29.001Z</time>
      </trkpt>
      <trkpt lat="47.78719" lon="6.00918">
        <ele>226.263</ele>
        <time>2019-09-25T10:47:32.001Z</time>
      </trkpt>
      <trkpt lat="47.78712" lon="6.00922">
        <ele>226.451</ele>
        <time>2019-09-25T10:47:35.001Z</time>
      </trkpt>
      <trkpt lat="47.78705" lon="6.00922">
        <ele>227.767</ele>
        <time>2019-09-25T10:47:38.001Z</time>
      </trkpt>
      <trkpt lat="47.78696" lon="6.00918">
        <ele>228.616</ele>
        <time>2019-09-25T10:47:41.001Z</time>
      </trkpt>
      <trkpt lat="47.78683" lon="6.00914">
        <ele>229.068</ele>
        <time>2019-09-25T10:47:44.001Z</time>
      </trkpt>
      <trkpt lat="47.78672" lon="6.00916">
        <ele>228.247</ele>
        <time>2019-09-25T10:47:47.001Z</time>
      </trkpt>
      <trkpt lat="47.78667" lon="6.00932">
        <ele>228.366</ele>
        <time>2019-09-25T10:47:50.001Z</time>
      </trkpt>
      <trkpt lat="47.78663" lon="6.00948">
        <ele>227.837</ele>
        <time>2019-09-25T10:47:53.001Z</time>
      </trkpt>
      <trkpt lat="47.78659" lon="6.00962">
        <ele>226.842</ele>
        <time>2019-09-25T10:47:56.001Z</time>
      </trkpt>
      <trkpt lat="47.78657" lon="6.00976">
        <ele>226.583</ele>
        <time>2019-09-25T10:47:59.001Z</time>
      </trkpt>
      <trkpt lat="47.78655" lon="6.00988">
        <ele>226.997</ele>
        <time>2019-09-25T12:48:02Z</time>
      </trkpt>
      <trkpt lat="47.78653" lon="6.01001">
        <ele>226.858</ele>
        <time>2019-09-25T10:48:05.001Z</time>
      </trkpt>
      <trkpt lat="47.7865" lon="6.01015">
        <ele>226.552</ele>
        <time>2019-09-25T10:48:08.001Z</time>
      </trkpt>
      <trkpt lat="47.78648" lon="6.01027">
        <ele>227.002</ele>
        <time>2019-09-25T10:48:11.001Z</time>
      </trkpt>
      <trkpt lat="47.78645" lon="6.01041">
        <ele>227.854</ele>
        <time>2019-09-25T10:48:14.001Z</time>
      </trkpt>
      <trkpt lat="47.78642" lon="6.01057">
        <ele>228.28</ele>
        <time>2019-09-25T10:48:17.001Z</time>
      </trkpt>
      <trkpt lat="47.78639" lon="6.01072">
        <ele>228.695</ele>
        <time>2019-09-25T10:48:20.001Z</time>
      </trkpt>
      <trkpt lat="47.78638" lon="6.01086">
        <ele>228.646</ele>
        <time>2019-09-25T10:48:23.001Z</time>
      </trkpt>
      <trkpt lat="47.78637" lon="6.011">
        <ele>229.428</ele>
        <time>2019-09-25T10:48:26.001Z</time>
      </trkpt>
      <trkpt lat="47.78637" lon="6.01114">
        <ele>228.754</ele>
        <time>2019-09-25T10:48:29.001Z</time>
      </trkpt>
      <trkpt lat="47.78635" lon="6.0113">
        <ele>227.355</ele>
        <time>2019-09-25T10:48:32.001Z</time>
      </trkpt>
      <trkpt lat="47.78632" lon="6.01144">
        <ele>226.127</ele>
        <time>2019-09-25T10:48:35.001Z</time>
      </trkpt>
      <trkpt lat="47.78627" lon="6.01157">
        <ele>225.5</ele>
        <time>2019-09-25T10:48:38.001Z</time>
      </trkpt>
      <trkpt lat="47.78621" lon="6.0117">
        <ele>224.765</ele>
        <time>2019-09-25T10:48:41.001Z</time>
      </trkpt>
      <trkpt lat="47.78613" lon="6.01182">
        <ele>224.649</ele>
        <time>2019-09-25T10:48:44.001Z</time>
      </trkpt>
      <trkpt lat="47.78602" lon="6.01194">
        <ele>223.599</ele>
        <time>2019-09-25T10:48:47.001Z</time>
      </trkpt>
      <trkpt lat="47.78588" lon="6.01209">
        <ele>222.718</ele>
        <time>2019-09-25T10:48:50.001Z</time>
      </trkpt>
      <trkpt lat="47.78576" lon="6.01228">
        <ele>222.159</ele>
        <time>2019-09-25T10:48:53.001Z</time>
      </trkpt>
      <trkpt lat="47.78563" lon="6.01251">
        <ele>221.456</ele>
        <time>2019-09-25T10:48:56.001Z</time>
      </trkpt>
      <trkpt lat="47.78551" lon="6.01274">
        <ele>220.739</ele>
        <time>2019-09-25T10:48:59.001Z</time>
      </trkpt>
      <trkpt lat="47.78538" lon="6.01298">
        <ele>220.396</ele>
        <time>2019-09-25T12:49:02Z</time>
      </trkpt>
      <trkpt lat="47.78526" lon="6.01321">
        <ele>220.166</ele>
        <time>2019-09-25T10:49:05.001Z</time>
      </trkpt>
      <trkpt lat="47.78513" lon="6.01344">
        <ele>220.055</ele>
        <time>2019-09-25T10:49:08.001Z</time>
      </trkpt>
      <trkpt lat="47.78501" lon="6.01366">
        <ele>220.143</ele>
        <time>2019-09-25T10:49:11.001Z</time>
      </trkpt>
      <trkpt lat="47.78489" lon="6.01386">
        <ele>220.285</ele>
        <time>2019-09-25T10:49:14.001Z</time>
      </trkpt>
      <trkpt lat="47.78479" lon="6.01404">
        <ele>220.36</ele>
        <time>2019-09-25T10:49:17.001Z</time>
      </trkpt>
      <trkpt lat="47.78469" lon="6.01422">
        <ele>219.995</ele>
        <time>2019-09-25T10:49:20.001Z</time>
      </trkpt>
      <trkpt lat="47.7846" lon="6.01439">
        <ele>219.388</ele>
        <time>2019-09-25T10:49:23.001Z</time>
      </trkpt>
      <trkpt lat="47.7845" lon="6.01455">
        <ele>218.95</ele>
        <time>2019-09-25T10:49:26.001Z</time>
      </trkpt>
      <trkpt lat="47.78441" lon="6.01473">
        <ele>219.064</ele>
        <time>2019-09-25T10:49:29.001Z</time>
      </trkpt>
      <trkpt lat="47.7843" lon="6.01489">
        <ele>218.944</ele>
        <time>2019-09-25T10:49:32.001Z</time>
      </trkpt>
      <trkpt lat="47.78419" lon="6.01506">
        <ele>218.333</ele>
        <time>2019-09-25T10:49:35.001Z</time>
      </trkpt>
      <trkpt lat="47.78407" lon="6.01523">
        <ele>217.876</ele>
        <time>2019-09-25T10:49:38.001Z</time>
      </trkpt>
      <trkpt lat="47.78393" lon="6.01539">
        <ele>217.352</ele>
        <time>2019-09-25T10:49:41.001Z</time>
      </trkpt>
      <trkpt lat="47.78376" lon="6.01553">
        <ele>216.809</ele>
        <time>2019-09-25T10:49:44.001Z</time>
      </trkpt>
      <trkpt lat="47.78358" lon="6.01565">
        <ele>216.193</ele>
        <time>2019-09-25T10:49:47.001Z</time>
      </trkpt>
      <trkpt lat="47.7834" lon="6.01577">
        <ele>215.749</ele>
        <time>2019-09-25T10:49:50.001Z</time>
      </trkpt>
      <trkpt lat="47.78322" lon="6.01587">
        <ele>215.363</ele>
        <time>2019-09-25T10:49:53.001Z</time>
      </trkpt>
      <trkpt lat="47.78303" lon="6.01596">
        <ele>214.812</ele>
        <time>2019-09-25T10:49:56.001Z</time>
      </trkpt>
      <trkpt lat="47.78284" lon="6.01604">
        <ele>214.186</ele>
        <time>2019-09-25T10:49:59.001Z</time>
      </trkpt>
      <trkpt lat="47.78266" lon="6.0161">
        <ele>213.288</ele>
        <time>2019-09-25T12:50:02Z</time>
      </trkpt>
      <trkpt lat="47.78249" lon="6.01617">
        <ele>212.939</ele>
        <time>2019-09-25T10:50:05.001Z</time>
      </trkpt>
      <trkpt lat="47.78231" lon="6.01623">
        <ele>212.972</ele>
        <time>2019-09-25T10:50:08.001Z</time>
      </trkpt>
      <trkpt lat="47.78215" lon="6.0163">
        <ele>212.994</ele>
        <time>2019-09-25T10:50:11.001Z</time>
      </trkpt>
      <trkpt lat="47.782" lon="6.01639">
        <ele>212.777</ele>
        <time>2019-09-25T10:50:14.001Z</time>
      </trkpt>
      <trkpt lat="47.78185" lon="6.0165">
        <ele>212.536</ele>
        <time>2019-09-25T10:50:17.001Z</time>
      </trkpt>
      <trkpt lat="47.78172" lon="6.01663">
        <ele>212.552</ele>
        <time>2019-09-25T10:50:20.001Z</time>
      </trkpt>
      <trkpt lat="47.7816" lon="6.01677">
        <ele>212.447</ele>
        <time>2019-09-25T10:50:23.001Z</time>
      </trkpt>
      <trkpt lat="47.78148" lon="6.01691">
        <ele>212.364</ele>
        <time>2019-09-25T10:50:26.001Z</time>
      </trkpt>
      <trkpt lat="47.78136" lon="6.01704">
        <ele>212.295</ele>
        <time>2019-09-25T10:50:29.001Z</time>
      </trkpt>
      <trkpt lat="47.78123" lon="6.01717">
        <ele>211.844</ele>
        <time>2019-09-25T10:50:32.001Z</time>
      </trkpt>
      <trkpt lat="47.7811" lon="6.01729">
        <ele>211.587</ele>
        <time>2019-09-25T10:50:35.001Z</time>
      </trkpt>
      <trkpt lat="47.78099" lon="6.01744">
        <ele>212.093</ele>
        <time>2019-09-25T10:50:38.001Z</time>
      </trkpt>
      <trkpt lat="47.78087" lon="6.01757">
        <ele>212.228</ele>
        <time>2019-09-25T10:50:41.001Z</time>
      </trkpt>
      <trkpt lat="47.78076" lon="6.01769">
        <ele>212.286</ele>
        <time>2019-09-25T10:50:44.001Z</time>
      </trkpt>
      <trkpt lat="47.78064" lon="6.01782">
        <ele>212.31</ele>
        <time>2019-09-25T10:50:47.001Z</time>
      </trkpt>
      <trkpt lat="47.78053" lon="6.01795">
        <ele>212.395</ele>
        <time>2019-09-25T10:50:50.001Z</time>
      </trkpt>
      <trkpt lat="47.78042" lon="6.01808">
        <ele>212.591</ele>
        <time>2019-09-25T10:50:53.001Z</time>
      </trkpt>
      <trkpt lat="47.78031" lon="6.0182">
        <ele>212.955</ele>
        <time>2019-09-25T10:50:56.001Z</time>
      </trkpt>
      <trkpt lat="47.78019" lon="6.01834">
        <ele>213.434</ele>
        <time>2019-09-25T10:50:59.001Z</time>
      </trkpt>
      <trkpt lat="47.78008" lon="6.01846">
        <ele>213.382</ele>
        <time>2019-09-25T12:51:02Z</time>
      </trkpt>
      <trkpt lat="47.77997" lon="6.01857">
        <ele>213.421</ele>
        <time>2019-09-25T10:51:05.001Z</time>
      </trkpt>
      <trkpt lat="47.77986" lon="6.01869">
        <ele>213.476</ele>
        <time>2019-09-25T10:51:08.001Z</time>
      </trkpt>
      <trkpt lat="47.77975" lon="6.01881">
        <ele>213.712</ele>
        <time>2019-09-25T10:51:11.001Z</time>
      </trkpt>
      <trkpt lat="47.77964" lon="6.01894">
        <ele>214.003</ele>
        <time>2019-09-25T10:51:14.001Z</time>
      </trkpt>
      <trkpt lat="47.77953" lon="6.01908">
        <ele>213.961</ele>
        <time>2019-09-25T10:51:17.001Z</time>
      </trkpt>
      <trkpt lat="47.77942" lon="6.01919">
        <ele>213.621</ele>
        <time>2019-09-25T10:51:20.001Z</time>
      </trkpt>
      <trkpt lat="47.77929" lon="6.01932">
        <ele>213.211</ele>
        <time>2019-09-25T10:51:23.001Z</time>
      </trkpt>
      <trkpt lat="47.77917" lon="6.01946">
        <ele>212.96</ele>
        <time>2019-09-25T10:51:26.001Z</time>
      </trkpt>
      <trkpt lat="47.77904" lon="6.01961">
        <ele>212.676</ele>
        <time>2019-09-25T10:51:29.001Z</time>
      </trkpt>
      <trkpt lat="47.77892" lon="6.01974">
        <ele>212.104</ele>
        <time>2019-09-25T10:51:32.001Z</time>
      </trkpt>
      <trkpt lat="47.7788" lon="6.01986">
        <ele>211.957</ele>
        <time>2019-09-25T10:51:35.001Z</time>
      </trkpt>
      <trkpt lat="47.77869" lon="6.01999">
        <ele>212.066</ele>
        <time>2019-09-25T10:51:38.001Z</time>
      </trkpt>
      <trkpt lat="47.77858" lon="6.02012">
        <ele>212.339</ele>
        <time>2019-09-25T10:51:41.001Z</time>
      </trkpt>
      <trkpt lat="47.77847" lon="6.02025">
        <ele>212.928</ele>
        <time>2019-09-25T10:51:44.001Z</time>
      </trkpt>
      <trkpt lat="47.77837" lon="6.02037">
        <ele>213.204</ele>
        <time>2019-09-25T10:51:47.001Z</time>
      </trkpt>
      <trkpt lat="47.77826" lon="6.02049">
        <ele>213.341</ele>
        <time>2019-09-25T10:51:50.001Z</time>
      </trkpt>
      <trkpt lat="47.77815" lon="6.02062">
        <ele>213.609</ele>
        <time>2019-09-25T10:51:53.001Z</time>
      </trkpt>
      <trkpt lat="47.77804" lon="6.02074">
        <ele>213.365</ele>
        <time>2019-09-25T10:51:56.001Z</time>
      </trkpt>
      <trkpt lat="47.77793" lon="6.02087">
        <ele>213.317</ele>
        <time>2019-09-25T10:51:59.001Z</time>
      </trkpt>
      <trkpt lat="47.77783" lon="6.021">
        <ele>213.696</ele>
        <time>2019-09-25T12:52:02Z</time>
      </trkpt>
      <trkpt lat="47.77772" lon="6.02113">
        <ele>214.02</ele>
        <time>2019-09-25T10:52:05.001Z</time>
      </trkpt>
      <trkpt lat="47.77761" lon="6.02125">
        <ele>214.132</ele>
        <time>2019-09-25T10:52:08.001Z</time>
      </trkpt>
      <trkpt lat="47.7775" lon="6.02138">
        <ele>214.062</ele>
        <time>2019-09-25T10:52:11.001Z</time>
      </trkpt>
      <trkpt lat="47.77738" lon="6.02152">
        <ele>214.656</ele>
        <time>2019-09-25T10:52:14.001Z</time>
      </trkpt>
      <trkpt lat="47.77728" lon="6.02165">
        <ele>214.857</ele>
        <time>2019-09-25T10:52:17.001Z</time>
      </trkpt>
      <trkpt lat="47.77717" lon="6.02178">
        <ele>214.395</ele>
        <time>2019-09-25T10:52:20.001Z</time>
      </trkpt>
      <trkpt lat="47.77707" lon="6.02191">
        <ele>214.199</ele>
        <time>2019-09-25T10:52:23.001Z</time>
      </trkpt>
      <trkpt lat="47.77696" lon="6.02204">
        <ele>214.263</ele>
        <time>2019-09-25T10:52:26.001Z</time>
      </trkpt>
      <trkpt lat="47.77685" lon="6.02217">
        <ele>214.145</ele>
        <time>2019-09-25T10:52:29.001Z</time>
      </trkpt>
      <trkpt lat="47.77674" lon="6.02227">
        <ele>213.864</ele>
        <time>2019-09-25T10:52:32.001Z</time>
      </trkpt>
      <trkpt lat="47.77663" lon="6.02238">
        <ele>213.834</ele>
        <time>2019-09-25T10:52:35.001Z</time>
      </trkpt>
      <trkpt lat="47.77653" lon="6.02247">
        <ele>213.828</ele>
        <time>2019-09-25T10:52:38.001Z</time>
      </trkpt>
      <trkpt lat="47.77644" lon="6.02256">
        <ele>214.097</ele>
        <time>2019-09-25T10:52:41.001Z</time>
      </trkpt>
      <trkpt lat="47.77635" lon="6.02268">
        <ele>214.569</ele>
        <time>2019-09-25T10:52:44.001Z</time>
      </trkpt>
      <trkpt lat="47.77623" lon="6.02282">
        <ele>215.526</ele>
        <time>2019-09-25T10:52:47.001Z</time>
      </trkpt>
      <trkpt lat="47.77614" lon="6.02298">
        <ele>216.556</ele>
        <time>2019-09-25T10:52:50.001Z</time>
      </trkpt>
      <trkpt lat="47.77606" lon="6.02316">
        <ele>217.217</ele>
        <time>2019-09-25T10:52:53.001Z</time>
      </trkpt>
      <trkpt lat="47.77596" lon="6.02333">
        <ele>217.836</ele>
        <time>2019-09-25T10:52:56.001Z</time>
      </trkpt>
      <trkpt lat="47.77586" lon="6.02351">
        <ele>218.098</ele>
        <time>2019-09-25T10:52:59.001Z</time>
      </trkpt>
      <trkpt lat="47.77574" lon="6.02368">
        <ele>218.068</ele>
        <time>2019-09-25T12:53:02Z</time>
      </trkpt>
      <trkpt lat="47.77562" lon="6.02384">
        <ele>217.826</ele>
        <time>2019-09-25T10:53:05.001Z</time>
      </trkpt>
      <trkpt lat="47.77549" lon="6.024">
        <ele>217.631</ele>
        <time>2019-09-25T10:53:08.001Z</time>
      </trkpt>
      <trkpt lat="47.77537" lon="6.02415">
        <ele>217.025</ele>
        <time>2019-09-25T10:53:11.001Z</time>
      </trkpt>
      <trkpt lat="47.77524" lon="6.0243">
        <ele>216.397</ele>
        <time>2019-09-25T10:53:14.001Z</time>
      </trkpt>
      <trkpt lat="47.77513" lon="6.02446">
        <ele>216.193</ele>
        <time>2019-09-25T10:53:17.001Z</time>
      </trkpt>
      <trkpt lat="47.77501" lon="6.02463">
        <ele>215.364</ele>
        <time>2019-09-25T10:53:20.001Z</time>
      </trkpt>
      <trkpt lat="47.7749" lon="6.0248">
        <ele>215.302</ele>
        <time>2019-09-25T10:53:23.001Z</time>
      </trkpt>
      <trkpt lat="47.77478" lon="6.02497">
        <ele>214.948</ele>
        <time>2019-09-25T10:53:26.001Z</time>
      </trkpt>
      <trkpt lat="47.77469" lon="6.02512">
        <ele>214.377</ele>
        <time>2019-09-25T10:53:29.001Z</time>
      </trkpt>
      <trkpt lat="47.77459" lon="6.02528">
        <ele>214.095</ele>
        <time>2019-09-25T10:53:32.001Z</time>
      </trkpt>
      <trkpt lat="47.7745" lon="6.02542">
        <ele>213.806</ele>
        <time>2019-09-25T10:53:35.001Z</time>
      </trkpt>
      <trkpt lat="47.77441" lon="6.02555">
        <ele>213.198</ele>
        <time>2019-09-25T10:53:38.001Z</time>
      </trkpt>
      <trkpt lat="47.77433" lon="6.02568">
        <ele>212.199</ele>
        <time>2019-09-25T10:53:41.001Z</time>
      </trkpt>
      <trkpt lat="47.77422" lon="6.02583">
        <ele>210.914</ele>
        <time>2019-09-25T10:53:44.001Z</time>
      </trkpt>
      <trkpt lat="47.77412" lon="6.02598">
        <ele>210.217</ele>
        <time>2019-09-25T10:53:47.001Z</time>
      </trkpt>
      <trkpt lat="47.77402" lon="6.02613">
        <ele>210.284</ele>
        <time>2019-09-25T10:53:50.001Z</time>
      </trkpt>
      <trkpt lat="47.77391" lon="6.02628">
        <ele>210.221</ele>
        <time>2019-09-25T10:53:53.001Z</time>
      </trkpt>
      <trkpt lat="47.77381" lon="6.02642">
        <ele>210.498</ele>
        <time>2019-09-25T10:53:56.001Z</time>
      </trkpt>
      <trkpt lat="47.7737" lon="6.02656">
        <ele>210.519</ele>
        <time>2019-09-25T10:53:59.001Z</time>
      </trkpt>
      <trkpt lat="47.7736" lon="6.02671">
        <ele>210.521</ele>
        <time>2019-09-25T12:54:02Z</time>
      </trkpt>
      <trkpt lat="47.7735" lon="6.02687">
        <ele>210.644</ele>
        <time>2019-09-25T10:54:05.001Z</time>
      </trkpt>
      <trkpt lat="47.7734" lon="6.02703">
        <ele>210.637</ele>
        <time>2019-09-25T10:54:08.001Z</time>
      </trkpt>
      <trkpt lat="47.77331" lon="6.02718">
        <ele>210.658</ele>
        <time>2019-09-25T10:54:11.001Z</time>
      </trkpt>
      <trkpt lat="47.77323" lon="6.02734">
        <ele>210.7</ele>
        <time>2019-09-25T10:54:14.001Z</time>
      </trkpt>
      <trkpt lat="47.77314" lon="6.02749">
        <ele>210.762</ele>
        <time>2019-09-25T10:54:17.001Z</time>
      </trkpt>
      <trkpt lat="47.77305" lon="6.02765">
        <ele>210.796</ele>
        <time>2019-09-25T10:54:20.001Z</time>
      </trkpt>
      <trkpt lat="47.77297" lon="6.02781">
        <ele>210.668</ele>
        <time>2019-09-25T10:54:23.001Z</time>
      </trkpt>
      <trkpt lat="47.77289" lon="6.02797">
        <ele>210.513</ele>
        <time>2019-09-25T10:54:26.001Z</time>
      </trkpt>
      <trkpt lat="47.77281" lon="6.02814">
        <ele>210.509</ele>
        <time>2019-09-25T10:54:29.001Z</time>
      </trkpt>
      <trkpt lat="47.77273" lon="6.02831">
        <ele>210.406</ele>
        <time>2019-09-25T10:54:32.001Z</time>
      </trkpt>
      <trkpt lat="47.77265" lon="6.02847">
        <ele>210.026</ele>
        <time>2019-09-25T10:54:35.001Z</time>
      </trkpt>
      <trkpt lat="47.77257" lon="6.02864">
        <ele>209.727</ele>
        <time>2019-09-25T10:54:38.001Z</time>
      </trkpt>
      <trkpt lat="47.77249" lon="6.02882">
        <ele>209.561</ele>
        <time>2019-09-25T10:54:41.001Z</time>
      </trkpt>
      <trkpt lat="47.77242" lon="6.02898">
        <ele>209.662</ele>
        <time>2019-09-25T10:54:44.001Z</time>
      </trkpt>
      <trkpt lat="47.77234" lon="6.02914">
        <ele>209.921</ele>
        <time>2019-09-25T10:54:47.001Z</time>
      </trkpt>
      <trkpt lat="47.77227" lon="6.02931">
        <ele>210.118</ele>
        <time>2019-09-25T10:54:50.001Z</time>
      </trkpt>
      <trkpt lat="47.7722" lon="6.02945">
        <ele>210.4</ele>
        <time>2019-09-25T10:54:53.001Z</time>
      </trkpt>
      <trkpt lat="47.77214" lon="6.0296">
        <ele>210.256</ele>
        <time>2019-09-25T10:54:56.001Z</time>
      </trkpt>
      <trkpt lat="47.77208" lon="6.02974">
        <ele>210.48</ele>
        <time>2019-09-25T10:54:59.001Z</time>
      </trkpt>
      <trkpt lat="47.77203" lon="6.02987">
        <ele>210.919</ele>
        <time>2019-09-25T12:55:02Z</time>
      </trkpt>
      <trkpt lat="47.77198" lon="6.03001">
        <ele>211.363</ele>
        <time>2019-09-25T10:55:05.001Z</time>
      </trkpt>
      <trkpt lat="47.77192" lon="6.03012">
        <ele>211.84</ele>
        <time>2019-09-25T10:55:08.001Z</time>
      </trkpt>
      <trkpt lat="47.77186" lon="6.03024">
        <ele>212.436</ele>
        <time>2019-09-25T10:55:11.001Z</time>
      </trkpt>
      <trkpt lat="47.7718" lon="6.03037">
        <ele>212.594</ele>
        <time>2019-09-25T10:55:14.001Z</time>
      </trkpt>
      <trkpt lat="47.77174" lon="6.03048">
        <ele>212.898</ele>
        <time>2019-09-25T10:55:17.001Z</time>
      </trkpt>
      <trkpt lat="47.77169" lon="6.0306">
        <ele>213.557</ele>
        <time>2019-09-25T10:55:20.001Z</time>
      </trkpt>
      <trkpt lat="47.77163" lon="6.03071">
        <ele>213.601</ele>
        <time>2019-09-25T10:55:23.001Z</time>
      </trkpt>
      <trkpt lat="47.77157" lon="6.03082">
        <ele>214.399</ele>
        <time>2019-09-25T10:55:26.001Z</time>
      </trkpt>
      <trkpt lat="47.77152" lon="6.03094">
        <ele>215.537</ele>
        <time>2019-09-25T10:55:29.001Z</time>
      </trkpt>
      <trkpt lat="47.77146" lon="6.03105">
        <ele>217.37</ele>
        <time>2019-09-25T10:55:32.001Z</time>
      </trkpt>
      <trkpt lat="47.7714" lon="6.03115">
        <ele>217.926</ele>
        <time>2019-09-25T10:55:35.001Z</time>
      </trkpt>
      <trkpt lat="47.77134" lon="6.03126">
        <ele>218.334</ele>
        <time>2019-09-25T10:55:38.001Z</time>
      </trkpt>
      <trkpt lat="47.77129" lon="6.03137">
        <ele>219.002</ele>
        <time>2019-09-25T10:55:41.001Z</time>
      </trkpt>
      <trkpt lat="47.77122" lon="6.03148">
        <ele>219.898</ele>
        <time>2019-09-25T10:55:44.001Z</time>
      </trkpt>
      <trkpt lat="47.77114" lon="6.03156">
        <ele>220.507</ele>
        <time>2019-09-25T10:55:47.001Z</time>
      </trkpt>
      <trkpt lat="47.77104" lon="6.03165">
        <ele>220.392</ele>
        <time>2019-09-25T10:55:50.001Z</time>
      </trkpt>
      <trkpt lat="47.77093" lon="6.03175">
        <ele>220.221</ele>
        <time>2019-09-25T10:55:53.001Z</time>
      </trkpt>
      <trkpt lat="47.77083" lon="6.03186">
        <ele>219.904</ele>
        <time>2019-09-25T10:55:56.001Z</time>
      </trkpt>
      <trkpt lat="47.77073" lon="6.03194">
        <ele>218.996</ele>
        <time>2019-09-25T10:55:59.001Z</time>
      </trkpt>
      <trkpt lat="47.77061" lon="6.03201">
        <ele>218.729</ele>
        <time>2019-09-25T12:56:02Z</time>
      </trkpt>
      <trkpt lat="47.77048" lon="6.03208">
        <ele>218.493</ele>
        <time>2019-09-25T10:56:05.001Z</time>
      </trkpt>
      <trkpt lat="47.77036" lon="6.03215">
        <ele>218.616</ele>
        <time>2019-09-25T10:56:08.001Z</time>
      </trkpt>
      <trkpt lat="47.77024" lon="6.03223">
        <ele>219.012</ele>
        <time>2019-09-25T10:56:11.001Z</time>
      </trkpt>
      <trkpt lat="47.77011" lon="6.0323">
        <ele>219.591</ele>
        <time>2019-09-25T10:56:14.001Z</time>
      </trkpt>
      <trkpt lat="47.77" lon="6.03235">
        <ele>219.616</ele>
        <time>2019-09-25T10:56:17.001Z</time>
      </trkpt>
      <trkpt lat="47.76988" lon="6.03242">
        <ele>220.351</ele>
        <time>2019-09-25T10:56:20.001Z</time>
      </trkpt>
      <trkpt lat="47.76974" lon="6.03251">
        <ele>220.14</ele>
        <time>2019-09-25T10:56:23.001Z</time>
      </trkpt>
      <trkpt lat="47.76962" lon="6.0326">
        <ele>219.718</ele>
        <time>2019-09-25T10:56:26.001Z</time>
      </trkpt>
      <trkpt lat="47.7695" lon="6.03269">
        <ele>219.332</ele>
        <time>2019-09-25T10:56:29.001Z</time>
      </trkpt>
      <trkpt lat="47.76938" lon="6.03276">
        <ele>218.459</ele>
        <time>2019-09-25T10:56:32.001Z</time>
      </trkpt>
      <trkpt lat="47.76925" lon="6.03283">
        <ele>218.209</ele>
        <time>2019-09-25T10:56:35.001Z</time>
      </trkpt>
      <trkpt lat="47.76913" lon="6.03291">
        <ele>218.423</ele>
        <time>2019-09-25T10:56:38.001Z</time>
      </trkpt>
      <trkpt lat="47.769" lon="6.03298">
        <ele>218.266</ele>
        <time>2019-09-25T10:56:41.001Z</time>
      </trkpt>
      <trkpt lat="47.76887" lon="6.03307">
        <ele>218.076</ele>
        <time>2019-09-25T10:56:44.001Z</time>
      </trkpt>
      <trkpt lat="47.76874" lon="6.03315">
        <ele>217.246</ele>
        <time>2019-09-25T10:56:47.001Z</time>
      </trkpt>
      <trkpt lat="47.76861" lon="6.03324">
        <ele>216.466</ele>
        <time>2019-09-25T10:56:50.001Z</time>
      </trkpt>
      <trkpt lat="47.76847" lon="6.03332">
        <ele>215.877</ele>
        <time>2019-09-25T10:56:53.001Z</time>
      </trkpt>
      <trkpt lat="47.76834" lon="6.0334">
        <ele>215.857</ele>
        <time>2019-09-25T10:56:56.001Z</time>
      </trkpt>
      <trkpt lat="47.76819" lon="6.03348">
        <ele>215.76</ele>
        <time>2019-09-25T10:56:59.001Z</time>
      </trkpt>
      <trkpt lat="47.76805" lon="6.03356">
        <ele>215.811</ele>
        <time>2019-09-25T12:57:02Z</time>
      </trkpt>
      <trkpt lat="47.76793" lon="6.03362">
        <ele>216.609</ele>
        <time>2019-09-25T10:57:05.001Z</time>
      </trkpt>
      <trkpt lat="47.76781" lon="6.03369">
        <ele>217.422</ele>
        <time>2019-09-25T10:57:08.001Z</time>
      </trkpt>
      <trkpt lat="47.76769" lon="6.03376">
        <ele>217.891</ele>
        <time>2019-09-25T10:57:11.001Z</time>
      </trkpt>
      <trkpt lat="47.76756" lon="6.03382">
        <ele>218.121</ele>
        <time>2019-09-25T10:57:14.001Z</time>
      </trkpt>
      <trkpt lat="47.76744" lon="6.0339">
        <ele>218.106</ele>
        <time>2019-09-25T10:57:17.002Z</time>
      </trkpt>
      <trkpt lat="47.76731" lon="6.03397">
        <ele>218.558</ele>
        <time>2019-09-25T10:57:20.001Z</time>
      </trkpt>
      <trkpt lat="47.76718" lon="6.03403">
        <ele>219.137</ele>
        <time>2019-09-25T10:57:23.001Z</time>
      </trkpt>
      <trkpt lat="47.76707" lon="6.03409">
        <ele>219.755</ele>
        <time>2019-09-25T10:57:26.001Z</time>
      </trkpt>
      <trkpt lat="47.76693" lon="6.03418">
        <ele>220.38</ele>
        <time>2019-09-25T10:57:29.001Z</time>
      </trkpt>
      <trkpt lat="47.7668" lon="6.03426">
        <ele>220.413</ele>
        <time>2019-09-25T10:57:32.001Z</time>
      </trkpt>
      <trkpt lat="47.76668" lon="6.03433">
        <ele>220.314</ele>
        <time>2019-09-25T10:57:35.001Z</time>
      </trkpt>
      <trkpt lat="47.76655" lon="6.03441">
        <ele>220.282</ele>
        <time>2019-09-25T10:57:38.001Z</time>
      </trkpt>
      <trkpt lat="47.76641" lon="6.03447">
        <ele>220.42</ele>
        <time>2019-09-25T10:57:41.001Z</time>
      </trkpt>
      <trkpt lat="47.76628" lon="6.03454">
        <ele>220.176</ele>
        <time>2019-09-25T10:57:44.001Z</time>
      </trkpt>
      <trkpt lat="47.76615" lon="6.03461">
        <ele>220.957</ele>
        <time>2019-09-25T10:57:47.001Z</time>
      </trkpt>
      <trkpt lat="47.76602" lon="6.03469">
        <ele>220.288</ele>
        <time>2019-09-25T10:57:50.001Z</time>
      </trkpt>
      <trkpt lat="47.76589" lon="6.03477">
        <ele>218.527</ele>
        <time>2019-09-25T10:57:53.001Z</time>
      </trkpt>
      <trkpt lat="47.76579" lon="6.03485">
        <ele>216.843</ele>
        <time>2019-09-25T10:57:56.001Z</time>
      </trkpt>
      <trkpt lat="47.76578" lon="6.03488">
        <ele>215.491</ele>
        <time>2019-09-25T10:57:59.001Z</time>
      </trkpt>
      <trkpt lat="47.76578" lon="6.03488">
        <ele>215.491</ele>
        <time>2019-09-25T11:00:41.001Z</time>
      </trkpt>
      <trkpt lat="47.76576" lon="6.03488">
        <ele>215.345</ele>
        <time>2019-09-25T11:00:44.001Z</time>
      </trkpt>
      <trkpt lat="47.76566" lon="6.03493">
        <ele>215.141</ele>
        <time>2019-09-25T11:00:50.001Z</time>
      </trkpt>
      <trkpt lat="47.76557" lon="6.03498">
        <ele>215.133</ele>
        <time>2019-09-25T11:00:53.001Z</time>
      </trkpt>
      <trkpt lat="47.76546" lon="6.03505">
        <ele>215.014</ele>
        <time>2019-09-25T11:00:56.001Z</time>
      </trkpt>
      <trkpt lat="47.76534" lon="6.03511">
        <ele>214.821</ele>
        <time>2019-09-25T11:00:59.001Z</time>
      </trkpt>
      <trkpt lat="47.76522" lon="6.03519">
        <ele>214.378</ele>
        <time>2019-09-25T13:01:02Z</time>
      </trkpt>
      <trkpt lat="47.76509" lon="6.03526">
        <ele>214.166</ele>
        <time>2019-09-25T11:01:05.001Z</time>
      </trkpt>
      <trkpt lat="47.76498" lon="6.03534">
        <ele>213.838</ele>
        <time>2019-09-25T11:01:08.001Z</time>
      </trkpt>
      <trkpt lat="47.76485" lon="6.03541">
        <ele>213.385</ele>
        <time>2019-09-25T11:01:11.001Z</time>
      </trkpt>
      <trkpt lat="47.76473" lon="6.03547">
        <ele>212.989</ele>
        <time>2019-09-25T11:01:14.001Z</time>
      </trkpt>
      <trkpt lat="47.76462" lon="6.03554">
        <ele>212.567</ele>
        <time>2019-09-25T11:01:17.001Z</time>
      </trkpt>
      <trkpt lat="47.76451" lon="6.03561">
        <ele>212.195</ele>
        <time>2019-09-25T11:01:20.001Z</time>
      </trkpt>
      <trkpt lat="47.76439" lon="6.03568">
        <ele>212.06</ele>
        <time>2019-09-25T11:01:23.001Z</time>
      </trkpt>
      <trkpt lat="47.76426" lon="6.03575">
        <ele>212.243</ele>
        <time>2019-09-25T11:01:26.001Z</time>
      </trkpt>
      <trkpt lat="47.76414" lon="6.03582">
        <ele>212.597</ele>
        <time>2019-09-25T11:01:29.001Z</time>
      </trkpt>
      <trkpt lat="47.76401" lon="6.03589">
        <ele>212.813</ele>
        <time>2019-09-25T11:01:32.001Z</time>
      </trkpt>
      <trkpt lat="47.76389" lon="6.03595">
        <ele>213.114</ele>
        <time>2019-09-25T11:01:35.001Z</time>
      </trkpt>
      <trkpt lat="47.76377" lon="6.03602">
        <ele>213.578</ele>
        <time>2019-09-25T11:01:38.001Z</time>
      </trkpt>
      <trkpt lat="47.76365" lon="6.03609">
        <ele>213.803</ele>
        <time>2019-09-25T11:01:41.001Z</time>
      </trkpt>
      <trkpt lat="47.76355" lon="6.03616">
        <ele>214.195</ele>
        <time>2019-09-25T11:01:44.001Z</time>
      </trkpt>
      <trkpt lat="47.76346" lon="6.03625">
        <ele>214.466</ele>
        <time>2019-09-25T11:01:47.001Z</time>
      </trkpt>
      <trkpt lat="47.76345" lon="6.0364">
        <ele>214.948</ele>
        <time>2019-09-25T11:01:50.001Z</time>
      </trkpt>
      <trkpt lat="47.7635" lon="6.03656">
        <ele>215.852</ele>
        <time>2019-09-25T11:01:53.001Z</time>
      </trkpt>
      <trkpt lat="47.76356" lon="6.03671">
        <ele>215.641</ele>
        <time>2019-09-25T11:01:56.001Z</time>
      </trkpt>
      <trkpt lat="47.76363" lon="6.03685">
        <ele>216.084</ele>
        <time>2019-09-25T11:01:59.001Z</time>
      </trkpt>
      <trkpt lat="47.76368" lon="6.03699">
        <ele>216.412</ele>
        <time>2019-09-25T13:02:02Z</time>
      </trkpt>
      <trkpt lat="47.76375" lon="6.03713">
        <ele>216.523</ele>
        <time>2019-09-25T11:02:05.001Z</time>
      </trkpt>
      <trkpt lat="47.7638" lon="6.03725">
        <ele>216.552</ele>
        <time>2019-09-25T11:02:08.001Z</time>
      </trkpt>
      <trkpt lat="47.76386" lon="6.03738">
        <ele>216.391</ele>
        <time>2019-09-25T11:02:11.001Z</time>
      </trkpt>
      <trkpt lat="47.76392" lon="6.03751">
        <ele>216.634</ele>
        <time>2019-09-25T11:02:14.001Z</time>
      </trkpt>
      <trkpt lat="47.76398" lon="6.03765">
        <ele>217.456</ele>
        <time>2019-09-25T11:02:17.001Z</time>
      </trkpt>
      <trkpt lat="47.76405" lon="6.03777">
        <ele>217.689</ele>
        <time>2019-09-25T11:02:20.001Z</time>
      </trkpt>
      <trkpt lat="47.76411" lon="6.03788">
        <ele>218.27</ele>
        <time>2019-09-25T11:02:23.001Z</time>
      </trkpt>
      <trkpt lat="47.76416" lon="6.03798">
        <ele>218.676</ele>
        <time>2019-09-25T11:02:26.001Z</time>
      </trkpt>
      <trkpt lat="47.76422" lon="6.03808">
        <ele>218.271</ele>
        <time>2019-09-25T11:02:29.001Z</time>
      </trkpt>
      <trkpt lat="47.76428" lon="6.03817">
        <ele>217.389</ele>
        <time>2019-09-25T11:02:32.001Z</time>
      </trkpt>
      <trkpt lat="47.76435" lon="6.03828">
        <ele>217.219</ele>
        <time>2019-09-25T11:02:35.001Z</time>
      </trkpt>
      <trkpt lat="47.76442" lon="6.03841">
        <ele>217.133</ele>
        <time>2019-09-25T11:02:38.001Z</time>
      </trkpt>
      <trkpt lat="47.76449" lon="6.03853">
        <ele>216.746</ele>
        <time>2019-09-25T11:02:41.001Z</time>
      </trkpt>
      <trkpt lat="47.76457" lon="6.03866">
        <ele>216.496</ele>
        <time>2019-09-25T11:02:44.001Z</time>
      </trkpt>
      <trkpt lat="47.76466" lon="6.03879">
        <ele>216.757</ele>
        <time>2019-09-25T11:02:47.001Z</time>
      </trkpt>
      <trkpt lat="47.76474" lon="6.03891">
        <ele>216.757</ele>
        <time>2019-09-25T11:02:50.001Z</time>
      </trkpt>
      <trkpt lat="47.76484" lon="6.03903">
        <ele>216.885</ele>
        <time>2019-09-25T11:02:53.001Z</time>
      </trkpt>
      <trkpt lat="47.76492" lon="6.03916">
        <ele>217.201</ele>
        <time>2019-09-25T11:02:56.001Z</time>
      </trkpt>
      <trkpt lat="47.765" lon="6.03929">
        <ele>217.363</ele>
        <time>2019-09-25T11:02:59.001Z</time>
      </trkpt>
      <trkpt lat="47.76509" lon="6.03942">
        <ele>217.891</ele>
        <time>2019-09-25T13:03:02Z</time>
      </trkpt>
      <trkpt lat="47.76518" lon="6.03954">
        <ele>218.531</ele>
        <time>2019-09-25T11:03:05.001Z</time>
      </trkpt>
      <trkpt lat="47.76528" lon="6.03968">
        <ele>218.965</ele>
        <time>2019-09-25T11:03:08.001Z</time>
      </trkpt>
      <trkpt lat="47.76538" lon="6.03983">
        <ele>219.85</ele>
        <time>2019-09-25T11:03:11.001Z</time>
      </trkpt>
      <trkpt lat="47.76547" lon="6.03998">
        <ele>220.735</ele>
        <time>2019-09-25T11:03:14.001Z</time>
      </trkpt>
      <trkpt lat="47.76556" lon="6.04013">
        <ele>222.059</ele>
        <time>2019-09-25T11:03:17.001Z</time>
      </trkpt>
      <trkpt lat="47.76564" lon="6.04029">
        <ele>223.753</ele>
        <time>2019-09-25T11:03:20.001Z</time>
      </trkpt>
      <trkpt lat="47.7657" lon="6.04043">
        <ele>224.328</ele>
        <time>2019-09-25T11:03:23.001Z</time>
      </trkpt>
      <trkpt lat="47.76576" lon="6.04059">
        <ele>224.26</ele>
        <time>2019-09-25T11:03:26.001Z</time>
      </trkpt>
      <trkpt lat="47.76581" lon="6.04075">
        <ele>223.814</ele>
        <time>2019-09-25T11:03:29.001Z</time>
      </trkpt>
      <trkpt lat="47.76586" lon="6.0409">
        <ele>223.513</ele>
        <time>2019-09-25T11:03:32.001Z</time>
      </trkpt>
      <trkpt lat="47.7659" lon="6.04106">
        <ele>223.33</ele>
        <time>2019-09-25T11:03:35.001Z</time>
      </trkpt>
      <trkpt lat="47.76594" lon="6.04123">
        <ele>223.62</ele>
        <time>2019-09-25T11:03:38.001Z</time>
      </trkpt>
      <trkpt lat="47.76599" lon="6.04141">
        <ele>224.102</ele>
        <time>2019-09-25T11:03:41.001Z</time>
      </trkpt>
      <trkpt lat="47.76603" lon="6.04157">
        <ele>224.705</ele>
        <time>2019-09-25T11:03:44.001Z</time>
      </trkpt>
      <trkpt lat="47.76607" lon="6.04175">
        <ele>225.521</ele>
        <time>2019-09-25T11:03:47.001Z</time>
      </trkpt>
      <trkpt lat="47.76609" lon="6.04192">
        <ele>225.733</ele>
        <time>2019-09-25T11:03:50.001Z</time>
      </trkpt>
      <trkpt lat="47.76611" lon="6.04209">
        <ele>225.418</ele>
        <time>2019-09-25T11:03:53.001Z</time>
      </trkpt>
      <trkpt lat="47.76615" lon="6.04227">
        <ele>225.026</ele>
        <time>2019-09-25T11:03:56.001Z</time>
      </trkpt>
      <trkpt lat="47.7662" lon="6.04247">
        <ele>224.605</ele>
        <time>2019-09-25T11:03:59.001Z</time>
      </trkpt>
      <trkpt lat="47.76624" lon="6.04267">
        <ele>223.338</ele>
        <time>2019-09-25T13:04:02Z</time>
      </trkpt>
      <trkpt lat="47.76628" lon="6.04287">
        <ele>222.521</ele>
        <time>2019-09-25T11:04:05.001Z</time>
      </trkpt>
      <trkpt lat="47.76632" lon="6.04307">
        <ele>221.752</ele>
        <time>2019-09-25T11:04:08.001Z</time>
      </trkpt>
      <trkpt lat="47.76636" lon="6.04326">
        <ele>221.822</ele>
        <time>2019-09-25T11:04:11.001Z</time>
      </trkpt>
      <trkpt lat="47.7664" lon="6.04343">
        <ele>221.596</ele>
        <time>2019-09-25T11:04:14.001Z</time>
      </trkpt>
      <trkpt lat="47.76644" lon="6.04361">
        <ele>221.672</ele>
        <time>2019-09-25T11:04:17.001Z</time>
      </trkpt>
      <trkpt lat="47.76648" lon="6.04378">
        <ele>221.807</ele>
        <time>2019-09-25T11:04:20.001Z</time>
      </trkpt>
      <trkpt lat="47.76653" lon="6.04395">
        <ele>222.006</ele>
        <time>2019-09-25T11:04:23.001Z</time>
      </trkpt>
      <trkpt lat="47.76658" lon="6.04414">
        <ele>221.799</ele>
        <time>2019-09-25T11:04:26.001Z</time>
      </trkpt>
      <trkpt lat="47.76665" lon="6.04431">
        <ele>222.329</ele>
        <time>2019-09-25T11:04:29.001Z</time>
      </trkpt>
      <trkpt lat="47.76672" lon="6.04449">
        <ele>222.877</ele>
        <time>2019-09-25T11:04:32.001Z</time>
      </trkpt>
      <trkpt lat="47.76677" lon="6.04466">
        <ele>223.681</ele>
        <time>2019-09-25T11:04:35.001Z</time>
      </trkpt>
      <trkpt lat="47.76683" lon="6.04481">
        <ele>224.909</ele>
        <time>2019-09-25T11:04:38.001Z</time>
      </trkpt>
      <trkpt lat="47.76688" lon="6.04498">
        <ele>225.797</ele>
        <time>2019-09-25T11:04:41.001Z</time>
      </trkpt>
      <trkpt lat="47.76694" lon="6.04514">
        <ele>226.239</ele>
        <time>2019-09-25T11:04:44.001Z</time>
      </trkpt>
      <trkpt lat="47.767" lon="6.04531">
        <ele>226.57</ele>
        <time>2019-09-25T11:04:47.001Z</time>
      </trkpt>
      <trkpt lat="47.76705" lon="6.04547">
        <ele>226.88</ele>
        <time>2019-09-25T11:04:50.001Z</time>
      </trkpt>
      <trkpt lat="47.76711" lon="6.04562">
        <ele>227.461</ele>
        <time>2019-09-25T11:04:53.001Z</time>
      </trkpt>
      <trkpt lat="47.76715" lon="6.04576">
        <ele>227.936</ele>
        <time>2019-09-25T11:04:56.001Z</time>
      </trkpt>
      <trkpt lat="47.76719" lon="6.04592">
        <ele>228.297</ele>
        <time>2019-09-25T11:04:59.001Z</time>
      </trkpt>
      <trkpt lat="47.76723" lon="6.04608">
        <ele>228.162</ele>
        <time>2019-09-25T13:05:02Z</time>
      </trkpt>
      <trkpt lat="47.76727" lon="6.04621">
        <ele>227.603</ele>
        <time>2019-09-25T11:05:05.001Z</time>
      </trkpt>
      <trkpt lat="47.76731" lon="6.04635">
        <ele>227.877</ele>
        <time>2019-09-25T11:05:08.001Z</time>
      </trkpt>
      <trkpt lat="47.76735" lon="6.0465">
        <ele>227.708</ele>
        <time>2019-09-25T11:05:11.001Z</time>
      </trkpt>
      <trkpt lat="47.76741" lon="6.04665">
        <ele>227.521</ele>
        <time>2019-09-25T11:05:14.001Z</time>
      </trkpt>
      <trkpt lat="47.76746" lon="6.04679">
        <ele>227.395</ele>
        <time>2019-09-25T11:05:17.001Z</time>
      </trkpt>
      <trkpt lat="47.7675" lon="6.04694">
        <ele>227.124</ele>
        <time>2019-09-25T11:05:20.001Z</time>
      </trkpt>
      <trkpt lat="47.76753" lon="6.04708">
        <ele>227.147</ele>
        <time>2019-09-25T11:05:23.001Z</time>
      </trkpt>
      <trkpt lat="47.76757" lon="6.04722">
        <ele>227.245</ele>
        <time>2019-09-25T11:05:26.001Z</time>
      </trkpt>
      <trkpt lat="47.76761" lon="6.04736">
        <ele>226.485</ele>
        <time>2019-09-25T11:05:29.001Z</time>
      </trkpt>
      <trkpt lat="47.76764" lon="6.0475">
        <ele>225.677</ele>
        <time>2019-09-25T11:05:32.001Z</time>
      </trkpt>
      <trkpt lat="47.76767" lon="6.04764">
        <ele>225.178</ele>
        <time>2019-09-25T11:05:35.001Z</time>
      </trkpt>
      <trkpt lat="47.7677" lon="6.0478">
        <ele>224.588</ele>
        <time>2019-09-25T11:05:38.001Z</time>
      </trkpt>
      <trkpt lat="47.76773" lon="6.04794">
        <ele>224.851</ele>
        <time>2019-09-25T11:05:41.001Z</time>
      </trkpt>
      <trkpt lat="47.76776" lon="6.04809">
        <ele>224.456</ele>
        <time>2019-09-25T11:05:44.001Z</time>
      </trkpt>
      <trkpt lat="47.76779" lon="6.04824">
        <ele>223.918</ele>
        <time>2019-09-25T11:05:47.001Z</time>
      </trkpt>
      <trkpt lat="47.76784" lon="6.04839">
        <ele>222.766</ele>
        <time>2019-09-25T11:05:50.001Z</time>
      </trkpt>
      <trkpt lat="47.76788" lon="6.04855">
        <ele>223.156</ele>
        <time>2019-09-25T11:05:53.001Z</time>
      </trkpt>
      <trkpt lat="47.76791" lon="6.04869">
        <ele>223.189</ele>
        <time>2019-09-25T11:05:56.001Z</time>
      </trkpt>
      <trkpt lat="47.76794" lon="6.04884">
        <ele>222.913</ele>
        <time>2019-09-25T11:05:59.001Z</time>
      </trkpt>
      <trkpt lat="47.76798" lon="6.04899">
        <ele>222.679</ele>
        <time>2019-09-25T13:06:02Z</time>
      </trkpt>
      <trkpt lat="47.76801" lon="6.04914">
        <ele>222.565</ele>
        <time>2019-09-25T11:06:05.001Z</time>
      </trkpt>
      <trkpt lat="47.76805" lon="6.04929">
        <ele>222.452</ele>
        <time>2019-09-25T11:06:08.001Z</time>
      </trkpt>
      <trkpt lat="47.76809" lon="6.04946">
        <ele>222.288</ele>
        <time>2019-09-25T11:06:11.001Z</time>
      </trkpt>
      <trkpt lat="47.76813" lon="6.04964">
        <ele>222.073</ele>
        <time>2019-09-25T11:06:14.001Z</time>
      </trkpt>
      <trkpt lat="47.76818" lon="6.04982">
        <ele>222.444</ele>
        <time>2019-09-25T11:06:17.001Z</time>
      </trkpt>
      <trkpt lat="47.76823" lon="6.04999">
        <ele>223.057</ele>
        <time>2019-09-25T11:06:20.001Z</time>
      </trkpt>
      <trkpt lat="47.76828" lon="6.05016">
        <ele>223.44</ele>
        <time>2019-09-25T11:06:23.001Z</time>
      </trkpt>
      <trkpt lat="47.76834" lon="6.05034">
        <ele>224.3</ele>
        <time>2019-09-25T11:06:26.001Z</time>
      </trkpt>
      <trkpt lat="47.76841" lon="6.05052">
        <ele>225.152</ele>
        <time>2019-09-25T11:06:29.001Z</time>
      </trkpt>
      <trkpt lat="47.76848" lon="6.05071">
        <ele>225.554</ele>
        <time>2019-09-25T11:06:32.001Z</time>
      </trkpt>
      <trkpt lat="47.76856" lon="6.05089">
        <ele>226.477</ele>
        <time>2019-09-25T11:06:35.001Z</time>
      </trkpt>
      <trkpt lat="47.76863" lon="6.05107">
        <ele>227.304</ele>
        <time>2019-09-25T11:06:38.001Z</time>
      </trkpt>
      <trkpt lat="47.7687" lon="6.05125">
        <ele>227.922</ele>
        <time>2019-09-25T11:06:41.001Z</time>
      </trkpt>
      <trkpt lat="47.76877" lon="6.05143">
        <ele>228.209</ele>
        <time>2019-09-25T11:06:44.001Z</time>
      </trkpt>
      <trkpt lat="47.76884" lon="6.05161">
        <ele>228.507</ele>
        <time>2019-09-25T11:06:47.001Z</time>
      </trkpt>
      <trkpt lat="47.76891" lon="6.05177">
        <ele>229.226</ele>
        <time>2019-09-25T11:06:50.001Z</time>
      </trkpt>
      <trkpt lat="47.76897" lon="6.05193">
        <ele>229.924</ele>
        <time>2019-09-25T11:06:53.001Z</time>
      </trkpt>
      <trkpt lat="47.76905" lon="6.05211">
        <ele>230.385</ele>
        <time>2019-09-25T11:06:56.001Z</time>
      </trkpt>
      <trkpt lat="47.76913" lon="6.0523">
        <ele>231.316</ele>
        <time>2019-09-25T11:06:59.001Z</time>
      </trkpt>
      <trkpt lat="47.76921" lon="6.05249">
        <ele>231.722</ele>
        <time>2019-09-25T13:07:02Z</time>
      </trkpt>
      <trkpt lat="47.7693" lon="6.05267">
        <ele>232.127</ele>
        <time>2019-09-25T11:07:05.001Z</time>
      </trkpt>
      <trkpt lat="47.76937" lon="6.05284">
        <ele>232.747</ele>
        <time>2019-09-25T11:07:08.001Z</time>
      </trkpt>
      <trkpt lat="47.76945" lon="6.05302">
        <ele>233.169</ele>
        <time>2019-09-25T11:07:11.001Z</time>
      </trkpt>
      <trkpt lat="47.76953" lon="6.05319">
        <ele>233.2</ele>
        <time>2019-09-25T11:07:14.001Z</time>
      </trkpt>
      <trkpt lat="47.7696" lon="6.05336">
        <ele>233.653</ele>
        <time>2019-09-25T11:07:17.001Z</time>
      </trkpt>
      <trkpt lat="47.76968" lon="6.05353">
        <ele>233.942</ele>
        <time>2019-09-25T11:07:20.001Z</time>
      </trkpt>
      <trkpt lat="47.76974" lon="6.05371">
        <ele>234.158</ele>
        <time>2019-09-25T11:07:23.001Z</time>
      </trkpt>
      <trkpt lat="47.7698" lon="6.0539">
        <ele>233.841</ele>
        <time>2019-09-25T11:07:26.001Z</time>
      </trkpt>
      <trkpt lat="47.76986" lon="6.05409">
        <ele>233.78</ele>
        <time>2019-09-25T11:07:29.001Z</time>
      </trkpt>
      <trkpt lat="47.76992" lon="6.05427">
        <ele>234.257</ele>
        <time>2019-09-25T11:07:32.001Z</time>
      </trkpt>
      <trkpt lat="47.76997" lon="6.05443">
        <ele>234.711</ele>
        <time>2019-09-25T11:07:35.001Z</time>
      </trkpt>
      <trkpt lat="47.77004" lon="6.05462">
        <ele>235.101</ele>
        <time>2019-09-25T11:07:38.001Z</time>
      </trkpt>
      <trkpt lat="47.7701" lon="6.05484">
        <ele>235.482</ele>
        <time>2019-09-25T11:07:41.001Z</time>
      </trkpt>
      <trkpt lat="47.77018" lon="6.05507">
        <ele>235.578</ele>
        <time>2019-09-25T11:07:44.001Z</time>
      </trkpt>
      <trkpt lat="47.77025" lon="6.05529">
        <ele>235.784</ele>
        <time>2019-09-25T11:07:47.001Z</time>
      </trkpt>
      <trkpt lat="47.77031" lon="6.05552">
        <ele>235.319</ele>
        <time>2019-09-25T11:07:50.001Z</time>
      </trkpt>
      <trkpt lat="47.77039" lon="6.05576">
        <ele>234.076</ele>
        <time>2019-09-25T11:07:53.001Z</time>
      </trkpt>
      <trkpt lat="47.77046" lon="6.056">
        <ele>233.862</ele>
        <time>2019-09-25T11:07:56.001Z</time>
      </trkpt>
      <trkpt lat="47.77052" lon="6.05623">
        <ele>233.306</ele>
        <time>2019-09-25T11:07:59.001Z</time>
      </trkpt>
      <trkpt lat="47.77058" lon="6.05646">
        <ele>231.874</ele>
        <time>2019-09-25T13:08:02Z</time>
      </trkpt>
      <trkpt lat="47.77063" lon="6.05668">
        <ele>230.4</ele>
        <time>2019-09-25T11:08:05.001Z</time>
      </trkpt>
      <trkpt lat="47.77068" lon="6.05691">
        <ele>229.322</ele>
        <time>2019-09-25T11:08:08.001Z</time>
      </trkpt>
      <trkpt lat="47.77073" lon="6.05714">
        <ele>227.948</ele>
        <time>2019-09-25T11:08:11.001Z</time>
      </trkpt>
      <trkpt lat="47.77077" lon="6.05738">
        <ele>227.341</ele>
        <time>2019-09-25T11:08:14.001Z</time>
      </trkpt>
      <trkpt lat="47.77081" lon="6.05762">
        <ele>226.725</ele>
        <time>2019-09-25T11:08:17.001Z</time>
      </trkpt>
      <trkpt lat="47.77084" lon="6.05787">
        <ele>225.363</ele>
        <time>2019-09-25T11:08:20.001Z</time>
      </trkpt>
      <trkpt lat="47.77088" lon="6.05811">
        <ele>224.089</ele>
        <time>2019-09-25T11:08:23.001Z</time>
      </trkpt>
      <trkpt lat="47.77091" lon="6.05835">
        <ele>222.798</ele>
        <time>2019-09-25T11:08:26.001Z</time>
      </trkpt>
      <trkpt lat="47.77093" lon="6.05858">
        <ele>222.088</ele>
        <time>2019-09-25T11:08:29.001Z</time>
      </trkpt>
      <trkpt lat="47.77096" lon="6.05879">
        <ele>222.158</ele>
        <time>2019-09-25T11:08:32.001Z</time>
      </trkpt>
      <trkpt lat="47.77099" lon="6.05899">
        <ele>222.448</ele>
        <time>2019-09-25T11:08:35.001Z</time>
      </trkpt>
      <trkpt lat="47.77104" lon="6.05918">
        <ele>222.351</ele>
        <time>2019-09-25T11:08:38.001Z</time>
      </trkpt>
      <trkpt lat="47.77109" lon="6.05937">
        <ele>222.546</ele>
        <time>2019-09-25T11:08:41.001Z</time>
      </trkpt>
      <trkpt lat="47.77115" lon="6.05956">
        <ele>222.156</ele>
        <time>2019-09-25T11:08:44.001Z</time>
      </trkpt>
      <trkpt lat="47.7712" lon="6.05976">
        <ele>221.709</ele>
        <time>2019-09-25T11:08:47.001Z</time>
      </trkpt>
      <trkpt lat="47.77126" lon="6.05995">
        <ele>221.479</ele>
        <time>2019-09-25T11:08:50.001Z</time>
      </trkpt>
      <trkpt lat="47.77132" lon="6.06016">
        <ele>221.776</ele>
        <time>2019-09-25T11:08:53.001Z</time>
      </trkpt>
      <trkpt lat="47.77136" lon="6.06036">
        <ele>221.78</ele>
        <time>2019-09-25T11:08:56.001Z</time>
      </trkpt>
      <trkpt lat="47.7714" lon="6.06057">
        <ele>222.369</ele>
        <time>2019-09-25T11:08:59.001Z</time>
      </trkpt>
      <trkpt lat="47.77145" lon="6.06077">
        <ele>222.689</ele>
        <time>2019-09-25T13:09:02Z</time>
      </trkpt>
      <trkpt lat="47.77151" lon="6.06096">
        <ele>223.125</ele>
        <time>2019-09-25T11:09:05.001Z</time>
      </trkpt>
      <trkpt lat="47.77156" lon="6.06114">
        <ele>223.605</ele>
        <time>2019-09-25T11:09:08.001Z</time>
      </trkpt>
      <trkpt lat="47.77161" lon="6.06133">
        <ele>223.53</ele>
        <time>2019-09-25T11:09:11.001Z</time>
      </trkpt>
      <trkpt lat="47.77166" lon="6.06154">
        <ele>223.526</ele>
        <time>2019-09-25T11:09:14.001Z</time>
      </trkpt>
      <trkpt lat="47.77173" lon="6.06175">
        <ele>224.064</ele>
        <time>2019-09-25T11:09:17.001Z</time>
      </trkpt>
      <trkpt lat="47.77179" lon="6.06195">
        <ele>225.048</ele>
        <time>2019-09-25T11:09:20.001Z</time>
      </trkpt>
      <trkpt lat="47.77184" lon="6.06217">
        <ele>225.827</ele>
        <time>2019-09-25T11:09:23.001Z</time>
      </trkpt>
      <trkpt lat="47.7719" lon="6.0624">
        <ele>226.537</ele>
        <time>2019-09-25T11:09:26.001Z</time>
      </trkpt>
      <trkpt lat="47.77197" lon="6.06262">
        <ele>226.953</ele>
        <time>2019-09-25T11:09:29.001Z</time>
      </trkpt>
      <trkpt lat="47.77203" lon="6.06283">
        <ele>227.7</ele>
        <time>2019-09-25T11:09:32.001Z</time>
      </trkpt>
      <trkpt lat="47.77208" lon="6.06302">
        <ele>228.286</ele>
        <time>2019-09-25T11:09:35.001Z</time>
      </trkpt>
      <trkpt lat="47.77215" lon="6.06321">
        <ele>228.651</ele>
        <time>2019-09-25T11:09:38.001Z</time>
      </trkpt>
      <trkpt lat="47.7722" lon="6.0634">
        <ele>228.97</ele>
        <time>2019-09-25T11:09:41.001Z</time>
      </trkpt>
      <trkpt lat="47.77226" lon="6.0636">
        <ele>229.38</ele>
        <time>2019-09-25T11:09:44.001Z</time>
      </trkpt>
      <trkpt lat="47.7723" lon="6.06377">
        <ele>230.343</ele>
        <time>2019-09-25T11:09:47.001Z</time>
      </trkpt>
      <trkpt lat="47.77236" lon="6.06395">
        <ele>231.017</ele>
        <time>2019-09-25T11:09:50.001Z</time>
      </trkpt>
      <trkpt lat="47.77242" lon="6.06414">
        <ele>231.148</ele>
        <time>2019-09-25T11:09:53.001Z</time>
      </trkpt>
      <trkpt lat="47.77248" lon="6.06433">
        <ele>231.162</ele>
        <time>2019-09-25T11:09:56.001Z</time>
      </trkpt>
      <trkpt lat="47.77256" lon="6.06452">
        <ele>231.689</ele>
        <time>2019-09-25T11:09:59.001Z</time>
      </trkpt>
      <trkpt lat="47.77262" lon="6.06472">
        <ele>231.627</ele>
        <time>2019-09-25T13:10:02Z</time>
      </trkpt>
      <trkpt lat="47.77268" lon="6.0649">
        <ele>231.782</ele>
        <time>2019-09-25T11:10:05.001Z</time>
      </trkpt>
      <trkpt lat="47.77274" lon="6.06508">
        <ele>231.751</ele>
        <time>2019-09-25T11:10:08.001Z</time>
      </trkpt>
      <trkpt lat="47.7728" lon="6.06528">
        <ele>231.879</ele>
        <time>2019-09-25T11:10:11.001Z</time>
      </trkpt>
      <trkpt lat="47.77286" lon="6.06546">
        <ele>231.685</ele>
        <time>2019-09-25T11:10:14.001Z</time>
      </trkpt>
      <trkpt lat="47.77291" lon="6.06566">
        <ele>232.19</ele>
        <time>2019-09-25T11:10:17.001Z</time>
      </trkpt>
      <trkpt lat="47.77297" lon="6.06588">
        <ele>232.22</ele>
        <time>2019-09-25T11:10:20.001Z</time>
      </trkpt>
      <trkpt lat="47.77303" lon="6.06609">
        <ele>231.936</ele>
        <time>2019-09-25T11:10:23.001Z</time>
      </trkpt>
      <trkpt lat="47.77308" lon="6.06629">
        <ele>231.27</ele>
        <time>2019-09-25T11:10:26.001Z</time>
      </trkpt>
      <trkpt lat="47.77314" lon="6.06651">
        <ele>230.978</ele>
        <time>2019-09-25T11:10:29.001Z</time>
      </trkpt>
      <trkpt lat="47.77319" lon="6.0667">
        <ele>230.832</ele>
        <time>2019-09-25T11:10:32.001Z</time>
      </trkpt>
      <trkpt lat="47.77324" lon="6.06689">
        <ele>230.991</ele>
        <time>2019-09-25T11:10:35.001Z</time>
      </trkpt>
      <trkpt lat="47.77327" lon="6.06708">
        <ele>231.263</ele>
        <time>2019-09-25T11:10:38.001Z</time>
      </trkpt>
      <trkpt lat="47.77332" lon="6.06726">
        <ele>231.791</ele>
        <time>2019-09-25T11:10:41.001Z</time>
      </trkpt>
      <trkpt lat="47.77336" lon="6.06745">
        <ele>231.51</ele>
        <time>2019-09-25T11:10:44.001Z</time>
      </trkpt>
      <trkpt lat="47.7734" lon="6.06764">
        <ele>231.14</ele>
        <time>2019-09-25T11:10:47.001Z</time>
      </trkpt>
      <trkpt lat="47.77345" lon="6.06782">
        <ele>230.993</ele>
        <time>2019-09-25T11:10:50.001Z</time>
      </trkpt>
      <trkpt lat="47.77349" lon="6.068">
        <ele>231.362</ele>
        <time>2019-09-25T11:10:53.001Z</time>
      </trkpt>
      <trkpt lat="47.77353" lon="6.06818">
        <ele>232.286</ele>
        <time>2019-09-25T11:10:56.001Z</time>
      </trkpt>
      <trkpt lat="47.77357" lon="6.06836">
        <ele>232.019</ele>
        <time>2019-09-25T11:10:59.001Z</time>
      </trkpt>
      <trkpt lat="47.77362" lon="6.06852">
        <ele>232.073</ele>
        <time>2019-09-25T13:11:02Z</time>
      </trkpt>
      <trkpt lat="47.77367" lon="6.0687">
        <ele>232.618</ele>
        <time>2019-09-25T11:11:05.001Z</time>
      </trkpt>
      <trkpt lat="47.77371" lon="6.06888">
        <ele>232.911</ele>
        <time>2019-09-25T11:11:08.001Z</time>
      </trkpt>
      <trkpt lat="47.77376" lon="6.06905">
        <ele>233.767</ele>
        <time>2019-09-25T11:11:11.001Z</time>
      </trkpt>
      <trkpt lat="47.7738" lon="6.0692">
        <ele>234.467</ele>
        <time>2019-09-25T11:11:14.001Z</time>
      </trkpt>
      <trkpt lat="47.77384" lon="6.06936">
        <ele>235.027</ele>
        <time>2019-09-25T11:11:17.001Z</time>
      </trkpt>
      <trkpt lat="47.77388" lon="6.06955">
        <ele>235.478</ele>
        <time>2019-09-25T11:11:20.001Z</time>
      </trkpt>
      <trkpt lat="47.77394" lon="6.06974">
        <ele>236.128</ele>
        <time>2019-09-25T11:11:23.001Z</time>
      </trkpt>
      <trkpt lat="47.774" lon="6.06994">
        <ele>236.591</ele>
        <time>2019-09-25T11:11:26.001Z</time>
      </trkpt>
      <trkpt lat="47.77406" lon="6.07013">
        <ele>236.488</ele>
        <time>2019-09-25T11:11:29.001Z</time>
      </trkpt>
      <trkpt lat="47.77411" lon="6.07031">
        <ele>237.121</ele>
        <time>2019-09-25T11:11:32.001Z</time>
      </trkpt>
      <trkpt lat="47.77416" lon="6.07047">
        <ele>237.15</ele>
        <time>2019-09-25T11:11:35.001Z</time>
      </trkpt>
      <trkpt lat="47.77421" lon="6.07061">
        <ele>237.005</ele>
        <time>2019-09-25T11:11:38.001Z</time>
      </trkpt>
      <trkpt lat="47.77426" lon="6.07078">
        <ele>237.01</ele>
        <time>2019-09-25T11:11:41.001Z</time>
      </trkpt>
      <trkpt lat="47.77433" lon="6.07094">
        <ele>237.4</ele>
        <time>2019-09-25T11:11:44.001Z</time>
      </trkpt>
      <trkpt lat="47.77439" lon="6.07109">
        <ele>237.006</ele>
        <time>2019-09-25T11:11:47.001Z</time>
      </trkpt>
      <trkpt lat="47.77446" lon="6.07125">
        <ele>236.914</ele>
        <time>2019-09-25T11:11:50.001Z</time>
      </trkpt>
      <trkpt lat="47.77454" lon="6.07141">
        <ele>236.62</ele>
        <time>2019-09-25T11:11:53.001Z</time>
      </trkpt>
      <trkpt lat="47.7746" lon="6.07158">
        <ele>235.875</ele>
        <time>2019-09-25T11:11:56.001Z</time>
      </trkpt>
      <trkpt lat="47.77467" lon="6.07172">
        <ele>235.379</ele>
        <time>2019-09-25T11:11:59.001Z</time>
      </trkpt>
      <trkpt lat="47.77473" lon="6.07186">
        <ele>235.548</ele>
        <time>2019-09-25T13:12:02Z</time>
      </trkpt>
      <trkpt lat="47.77479" lon="6.072">
        <ele>235.344</ele>
        <time>2019-09-25T11:12:05.001Z</time>
      </trkpt>
      <trkpt lat="47.77485" lon="6.07213">
        <ele>235.926</ele>
        <time>2019-09-25T11:12:08.001Z</time>
      </trkpt>
      <trkpt lat="47.77492" lon="6.07227">
        <ele>235.681</ele>
        <time>2019-09-25T11:12:11.001Z</time>
      </trkpt>
      <trkpt lat="47.77499" lon="6.07242">
        <ele>235.513</ele>
        <time>2019-09-25T11:12:14.001Z</time>
      </trkpt>
      <trkpt lat="47.77508" lon="6.07258">
        <ele>235.289</ele>
        <time>2019-09-25T11:12:17.001Z</time>
      </trkpt>
      <trkpt lat="47.77516" lon="6.07272">
        <ele>235.217</ele>
        <time>2019-09-25T11:12:20.001Z</time>
      </trkpt>
      <trkpt lat="47.77523" lon="6.07287">
        <ele>235.723</ele>
        <time>2019-09-25T11:12:23.001Z</time>
      </trkpt>
      <trkpt lat="47.77529" lon="6.07302">
        <ele>236.072</ele>
        <time>2019-09-25T11:12:26.001Z</time>
      </trkpt>
      <trkpt lat="47.77536" lon="6.07317">
        <ele>236.114</ele>
        <time>2019-09-25T11:12:29.001Z</time>
      </trkpt>
      <trkpt lat="47.77542" lon="6.07331">
        <ele>236.061</ele>
        <time>2019-09-25T11:12:32.001Z</time>
      </trkpt>
      <trkpt lat="47.77549" lon="6.07343">
        <ele>236.451</ele>
        <time>2019-09-25T11:12:35.001Z</time>
      </trkpt>
      <trkpt lat="47.77554" lon="6.07355">
        <ele>237.516</ele>
        <time>2019-09-25T11:12:38.001Z</time>
      </trkpt>
      <trkpt lat="47.77559" lon="6.07364">
        <ele>238.995</ele>
        <time>2019-09-25T11:12:41.001Z</time>
      </trkpt>
      <trkpt lat="47.77565" lon="6.07376">
        <ele>239.038</ele>
        <time>2019-09-25T11:12:44.001Z</time>
      </trkpt>
      <trkpt lat="47.7757" lon="6.07388">
        <ele>238.941</ele>
        <time>2019-09-25T11:12:47.001Z</time>
      </trkpt>
      <trkpt lat="47.77576" lon="6.07401">
        <ele>239.17</ele>
        <time>2019-09-25T11:12:50.001Z</time>
      </trkpt>
      <trkpt lat="47.7758" lon="6.07413">
        <ele>239.459</ele>
        <time>2019-09-25T11:12:53.001Z</time>
      </trkpt>
      <trkpt lat="47.77586" lon="6.07424">
        <ele>239.131</ele>
        <time>2019-09-25T11:12:56.001Z</time>
      </trkpt>
      <trkpt lat="47.77593" lon="6.07437">
        <ele>239.134</ele>
        <time>2019-09-25T11:12:59.001Z</time>
      </trkpt>
      <trkpt lat="47.776" lon="6.0745">
        <ele>239.266</ele>
        <time>2019-09-25T13:13:02Z</time>
      </trkpt>
      <trkpt lat="47.77606" lon="6.07463">
        <ele>239.469</ele>
        <time>2019-09-25T11:13:05.001Z</time>
      </trkpt>
      <trkpt lat="47.7761" lon="6.07475">
        <ele>240.84</ele>
        <time>2019-09-25T11:13:08.001Z</time>
      </trkpt>
      <trkpt lat="47.77613" lon="6.07489">
        <ele>241.13</ele>
        <time>2019-09-25T11:13:11.001Z</time>
      </trkpt>
      <trkpt lat="47.77613" lon="6.07504">
        <ele>239.232</ele>
        <time>2019-09-25T11:13:14.001Z</time>
      </trkpt>
      <trkpt lat="47.77609" lon="6.07517">
        <ele>238.264</ele>
        <time>2019-09-25T11:13:17.001Z</time>
      </trkpt>
      <trkpt lat="47.77599" lon="6.07528">
        <ele>238.13</ele>
        <time>2019-09-25T11:13:20.001Z</time>
      </trkpt>
      <trkpt lat="47.77587" lon="6.07535">
        <ele>237.584</ele>
        <time>2019-09-25T11:13:23.001Z</time>
      </trkpt>
      <trkpt lat="47.77573" lon="6.07542">
        <ele>236.578</ele>
        <time>2019-09-25T11:13:26.001Z</time>
      </trkpt>
      <trkpt lat="47.77558" lon="6.0755">
        <ele>235.367</ele>
        <time>2019-09-25T11:13:29.001Z</time>
      </trkpt>
      <trkpt lat="47.77542" lon="6.07559">
        <ele>234.679</ele>
        <time>2019-09-25T11:13:32.001Z</time>
      </trkpt>
      <trkpt lat="47.77527" lon="6.07567">
        <ele>234.309</ele>
        <time>2019-09-25T11:13:35.001Z</time>
      </trkpt>
      <trkpt lat="47.77511" lon="6.07574">
        <ele>233.751</ele>
        <time>2019-09-25T11:13:38.001Z</time>
      </trkpt>
      <trkpt lat="47.77494" lon="6.07582">
        <ele>233.606</ele>
        <time>2019-09-25T11:13:41.001Z</time>
      </trkpt>
      <trkpt lat="47.7748" lon="6.07591">
        <ele>233.347</ele>
        <time>2019-09-25T11:13:44.001Z</time>
      </trkpt>
      <trkpt lat="47.77463" lon="6.076">
        <ele>232.942</ele>
        <time>2019-09-25T11:13:47.001Z</time>
      </trkpt>
      <trkpt lat="47.77446" lon="6.07608">
        <ele>232.418</ele>
        <time>2019-09-25T11:13:50.001Z</time>
      </trkpt>
      <trkpt lat="47.77428" lon="6.07616">
        <ele>231.89</ele>
        <time>2019-09-25T11:13:53.001Z</time>
      </trkpt>
      <trkpt lat="47.7741" lon="6.07627">
        <ele>231.03</ele>
        <time>2019-09-25T11:13:56.001Z</time>
      </trkpt>
      <trkpt lat="47.77391" lon="6.07638">
        <ele>230.457</ele>
        <time>2019-09-25T11:13:59.001Z</time>
      </trkpt>
      <trkpt lat="47.77371" lon="6.07649">
        <ele>230.169</ele>
        <time>2019-09-25T13:14:02Z</time>
      </trkpt>
      <trkpt lat="47.77351" lon="6.0766">
        <ele>230.228</ele>
        <time>2019-09-25T11:14:05.001Z</time>
      </trkpt>
      <trkpt lat="47.77331" lon="6.07671">
        <ele>229.875</ele>
        <time>2019-09-25T11:14:08.001Z</time>
      </trkpt>
      <trkpt lat="47.77311" lon="6.07681">
        <ele>229.63</ele>
        <time>2019-09-25T11:14:11.001Z</time>
      </trkpt>
      <trkpt lat="47.77292" lon="6.07692">
        <ele>229.104</ele>
        <time>2019-09-25T11:14:14.001Z</time>
      </trkpt>
      <trkpt lat="47.77272" lon="6.07702">
        <ele>228.872</ele>
        <time>2019-09-25T11:14:17.001Z</time>
      </trkpt>
      <trkpt lat="47.77252" lon="6.07715">
        <ele>228.721</ele>
        <time>2019-09-25T11:14:20.001Z</time>
      </trkpt>
      <trkpt lat="47.77233" lon="6.07728">
        <ele>227.905</ele>
        <time>2019-09-25T11:14:23.001Z</time>
      </trkpt>
      <trkpt lat="47.77215" lon="6.07745">
        <ele>226.879</ele>
        <time>2019-09-25T11:14:26.001Z</time>
      </trkpt>
      <trkpt lat="47.77197" lon="6.07764">
        <ele>226.056</ele>
        <time>2019-09-25T11:14:29.001Z</time>
      </trkpt>
      <trkpt lat="47.7718" lon="6.07788">
        <ele>225.487</ele>
        <time>2019-09-25T11:14:32.001Z</time>
      </trkpt>
      <trkpt lat="47.77165" lon="6.07814">
        <ele>224.71</ele>
        <time>2019-09-25T11:14:35.001Z</time>
      </trkpt>
      <trkpt lat="47.77153" lon="6.07842">
        <ele>224.42</ele>
        <time>2019-09-25T11:14:38.001Z</time>
      </trkpt>
      <trkpt lat="47.77143" lon="6.0787">
        <ele>223.268</ele>
        <time>2019-09-25T11:14:41.001Z</time>
      </trkpt>
      <trkpt lat="47.77135" lon="6.07899">
        <ele>221.946</ele>
        <time>2019-09-25T11:14:44.001Z</time>
      </trkpt>
      <trkpt lat="47.77129" lon="6.07927">
        <ele>220.971</ele>
        <time>2019-09-25T11:14:47.001Z</time>
      </trkpt>
      <trkpt lat="47.77123" lon="6.07954">
        <ele>220.35</ele>
        <time>2019-09-25T11:14:50.001Z</time>
      </trkpt>
      <trkpt lat="47.77119" lon="6.07981">
        <ele>220.505</ele>
        <time>2019-09-25T11:14:53.001Z</time>
      </trkpt>
      <trkpt lat="47.77114" lon="6.08006">
        <ele>221.049</ele>
        <time>2019-09-25T11:14:56.001Z</time>
      </trkpt>
      <trkpt lat="47.77109" lon="6.08032">
        <ele>221.697</ele>
        <time>2019-09-25T11:14:59.001Z</time>
      </trkpt>
      <trkpt lat="47.77104" lon="6.08057">
        <ele>222.411</ele>
        <time>2019-09-25T13:15:02Z</time>
      </trkpt>
      <trkpt lat="47.771" lon="6.0808">
        <ele>223.307</ele>
        <time>2019-09-25T11:15:05.001Z</time>
      </trkpt>
      <trkpt lat="47.77096" lon="6.08101">
        <ele>224.188</ele>
        <time>2019-09-25T11:15:08.001Z</time>
      </trkpt>
      <trkpt lat="47.77093" lon="6.08121">
        <ele>224.442</ele>
        <time>2019-09-25T11:15:11.001Z</time>
      </trkpt>
      <trkpt lat="47.7709" lon="6.0814">
        <ele>224.931</ele>
        <time>2019-09-25T11:15:14.001Z</time>
      </trkpt>
      <trkpt lat="47.77086" lon="6.08159">
        <ele>225.6</ele>
        <time>2019-09-25T11:15:17.001Z</time>
      </trkpt>
      <trkpt lat="47.77081" lon="6.08174">
        <ele>225.586</ele>
        <time>2019-09-25T11:15:20.001Z</time>
      </trkpt>
      <trkpt lat="47.77077" lon="6.0819">
        <ele>225.855</ele>
        <time>2019-09-25T11:15:23.001Z</time>
      </trkpt>
      <trkpt lat="47.77074" lon="6.08206">
        <ele>226.078</ele>
        <time>2019-09-25T11:15:26.001Z</time>
      </trkpt>
      <trkpt lat="47.77071" lon="6.0822">
        <ele>226.548</ele>
        <time>2019-09-25T11:15:29.001Z</time>
      </trkpt>
      <trkpt lat="47.77068" lon="6.08233">
        <ele>227.166</ele>
        <time>2019-09-25T11:15:32.001Z</time>
      </trkpt>
      <trkpt lat="47.77065" lon="6.08245">
        <ele>227.531</ele>
        <time>2019-09-25T11:15:35.001Z</time>
      </trkpt>
      <trkpt lat="47.77061" lon="6.08258">
        <ele>227.895</ele>
        <time>2019-09-25T11:15:38.001Z</time>
      </trkpt>
      <trkpt lat="47.77057" lon="6.08269">
        <ele>228.421</ele>
        <time>2019-09-25T11:15:41.001Z</time>
      </trkpt>
      <trkpt lat="47.77053" lon="6.08282">
        <ele>228.945</ele>
        <time>2019-09-25T11:15:44.001Z</time>
      </trkpt>
      <trkpt lat="47.7705" lon="6.08294">
        <ele>228.736</ele>
        <time>2019-09-25T11:15:47.001Z</time>
      </trkpt>
      <trkpt lat="47.77046" lon="6.08307">
        <ele>228.988</ele>
        <time>2019-09-25T11:15:50.001Z</time>
      </trkpt>
      <trkpt lat="47.77043" lon="6.08319">
        <ele>229.301</ele>
        <time>2019-09-25T11:15:53.001Z</time>
      </trkpt>
      <trkpt lat="47.77039" lon="6.08332">
        <ele>229.421</ele>
        <time>2019-09-25T11:15:56.001Z</time>
      </trkpt>
      <trkpt lat="47.77035" lon="6.08345">
        <ele>229.952</ele>
        <time>2019-09-25T11:15:59.001Z</time>
      </trkpt>
      <trkpt lat="47.77031" lon="6.08359">
        <ele>230.873</ele>
        <time>2019-09-25T13:16:02Z</time>
      </trkpt>
      <trkpt lat="47.77027" lon="6.08373">
        <ele>231.322</ele>
        <time>2019-09-25T11:16:05.001Z</time>
      </trkpt>
      <trkpt lat="47.77023" lon="6.08387">
        <ele>231.079</ele>
        <time>2019-09-25T11:16:08.001Z</time>
      </trkpt>
      <trkpt lat="47.77018" lon="6.08402">
        <ele>231.385</ele>
        <time>2019-09-25T11:16:11.001Z</time>
      </trkpt>
      <trkpt lat="47.77013" lon="6.08415">
        <ele>231.799</ele>
        <time>2019-09-25T11:16:14.001Z</time>
      </trkpt>
      <trkpt lat="47.77009" lon="6.08429">
        <ele>231.829</ele>
        <time>2019-09-25T11:16:17.001Z</time>
      </trkpt>
      <trkpt lat="47.77005" lon="6.08442">
        <ele>231.957</ele>
        <time>2019-09-25T11:16:20.001Z</time>
      </trkpt>
      <trkpt lat="47.77" lon="6.08455">
        <ele>232.453</ele>
        <time>2019-09-25T11:16:23.001Z</time>
      </trkpt>
      <trkpt lat="47.76995" lon="6.08466">
        <ele>233.589</ele>
        <time>2019-09-25T11:16:26.001Z</time>
      </trkpt>
      <trkpt lat="47.76991" lon="6.08478">
        <ele>234.204</ele>
        <time>2019-09-25T11:16:29.001Z</time>
      </trkpt>
      <trkpt lat="47.76986" lon="6.0849">
        <ele>234.647</ele>
        <time>2019-09-25T11:16:32.001Z</time>
      </trkpt>
      <trkpt lat="47.7698" lon="6.08502">
        <ele>235.07</ele>
        <time>2019-09-25T11:16:35.001Z</time>
      </trkpt>
      <trkpt lat="47.76976" lon="6.08513">
        <ele>235.157</ele>
        <time>2019-09-25T11:16:38.001Z</time>
      </trkpt>
      <trkpt lat="47.76971" lon="6.08525">
        <ele>235.352</ele>
        <time>2019-09-25T11:16:41.001Z</time>
      </trkpt>
      <trkpt lat="47.76966" lon="6.08536">
        <ele>236.079</ele>
        <time>2019-09-25T11:16:44.001Z</time>
      </trkpt>
      <trkpt lat="47.7696" lon="6.08548">
        <ele>236.052</ele>
        <time>2019-09-25T11:16:47.001Z</time>
      </trkpt>
      <trkpt lat="47.76955" lon="6.0856">
        <ele>235.834</ele>
        <time>2019-09-25T11:16:50.001Z</time>
      </trkpt>
      <trkpt lat="47.76949" lon="6.08574">
        <ele>235.162</ele>
        <time>2019-09-25T11:16:53.001Z</time>
      </trkpt>
      <trkpt lat="47.76943" lon="6.08589">
        <ele>234.913</ele>
        <time>2019-09-25T11:16:56.001Z</time>
      </trkpt>
      <trkpt lat="47.76937" lon="6.08603">
        <ele>235.561</ele>
        <time>2019-09-25T11:16:59.001Z</time>
      </trkpt>
      <trkpt lat="47.76931" lon="6.08615">
        <ele>235.803</ele>
        <time>2019-09-25T13:17:02Z</time>
      </trkpt>
      <trkpt lat="47.76924" lon="6.08629">
        <ele>235.66</ele>
        <time>2019-09-25T11:17:05.001Z</time>
      </trkpt>
      <trkpt lat="47.76917" lon="6.08645">
        <ele>235.643</ele>
        <time>2019-09-25T11:17:08.001Z</time>
      </trkpt>
      <trkpt lat="47.7691" lon="6.08662">
        <ele>235.095</ele>
        <time>2019-09-25T11:17:11.001Z</time>
      </trkpt>
      <trkpt lat="47.76902" lon="6.08681">
        <ele>234.996</ele>
        <time>2019-09-25T11:17:14.001Z</time>
      </trkpt>
      <trkpt lat="47.76893" lon="6.087">
        <ele>234.502</ele>
        <time>2019-09-25T11:17:17.001Z</time>
      </trkpt>
      <trkpt lat="47.76882" lon="6.08719">
        <ele>234.145</ele>
        <time>2019-09-25T11:17:20.001Z</time>
      </trkpt>
      <trkpt lat="47.76871" lon="6.08738">
        <ele>233.439</ele>
        <time>2019-09-25T11:17:23.001Z</time>
      </trkpt>
      <trkpt lat="47.7686" lon="6.08757">
        <ele>232.668</ele>
        <time>2019-09-25T11:17:26.001Z</time>
      </trkpt>
      <trkpt lat="47.76848" lon="6.08774">
        <ele>232.124</ele>
        <time>2019-09-25T11:17:29.001Z</time>
      </trkpt>
      <trkpt lat="47.76837" lon="6.0879">
        <ele>231.342</ele>
        <time>2019-09-25T11:17:32.001Z</time>
      </trkpt>
      <trkpt lat="47.76826" lon="6.08804">
        <ele>230.722</ele>
        <time>2019-09-25T11:17:35.001Z</time>
      </trkpt>
      <trkpt lat="47.76814" lon="6.08818">
        <ele>229.961</ele>
        <time>2019-09-25T11:17:38.001Z</time>
      </trkpt>
      <trkpt lat="47.76803" lon="6.08833">
        <ele>230.044</ele>
        <time>2019-09-25T11:17:41.001Z</time>
      </trkpt>
      <trkpt lat="47.76792" lon="6.08848">
        <ele>230.87</ele>
        <time>2019-09-25T11:17:44.001Z</time>
      </trkpt>
      <trkpt lat="47.76781" lon="6.08863">
        <ele>231.851</ele>
        <time>2019-09-25T11:17:47.001Z</time>
      </trkpt>
      <trkpt lat="47.76771" lon="6.08879">
        <ele>232.431</ele>
        <time>2019-09-25T11:17:50.001Z</time>
      </trkpt>
      <trkpt lat="47.76756" lon="6.08891">
        <ele>232.64</ele>
        <time>2019-09-25T11:17:53.001Z</time>
      </trkpt>
      <trkpt lat="47.76741" lon="6.08902">
        <ele>231.694</ele>
        <time>2019-09-25T11:17:56.001Z</time>
      </trkpt>
      <trkpt lat="47.76733" lon="6.08923">
        <ele>230.497</ele>
        <time>2019-09-25T11:17:59.001Z</time>
      </trkpt>
      <trkpt lat="47.76725" lon="6.08945">
        <ele>230.341</ele>
        <time>2019-09-25T13:18:02Z</time>
      </trkpt>
      <trkpt lat="47.76714" lon="6.08966">
        <ele>229.85</ele>
        <time>2019-09-25T11:18:05.001Z</time>
      </trkpt>
      <trkpt lat="47.76703" lon="6.08987">
        <ele>229.126</ele>
        <time>2019-09-25T11:18:08.001Z</time>
      </trkpt>
      <trkpt lat="47.76694" lon="6.09008">
        <ele>228.801</ele>
        <time>2019-09-25T11:18:11.001Z</time>
      </trkpt>
      <trkpt lat="47.76683" lon="6.09031">
        <ele>227.855</ele>
        <time>2019-09-25T11:18:14.001Z</time>
      </trkpt>
      <trkpt lat="47.76672" lon="6.09056">
        <ele>227.386</ele>
        <time>2019-09-25T11:18:17.001Z</time>
      </trkpt>
      <trkpt lat="47.76661" lon="6.09083">
        <ele>226.421</ele>
        <time>2019-09-25T11:18:20.001Z</time>
      </trkpt>
      <trkpt lat="47.7665" lon="6.09112">
        <ele>225.445</ele>
        <time>2019-09-25T11:18:23.001Z</time>
      </trkpt>
      <trkpt lat="47.76642" lon="6.09141">
        <ele>224.648</ele>
        <time>2019-09-25T11:18:26.001Z</time>
      </trkpt>
      <trkpt lat="47.76636" lon="6.0917">
        <ele>224.345</ele>
        <time>2019-09-25T11:18:29.001Z</time>
      </trkpt>
      <trkpt lat="47.76631" lon="6.09199">
        <ele>223.693</ele>
        <time>2019-09-25T11:18:32.001Z</time>
      </trkpt>
      <trkpt lat="47.76629" lon="6.09228">
        <ele>222.821</ele>
        <time>2019-09-25T11:18:35.001Z</time>
      </trkpt>
      <trkpt lat="47.76627" lon="6.09254">
        <ele>221.921</ele>
        <time>2019-09-25T11:18:38.001Z</time>
      </trkpt>
      <trkpt lat="47.76627" lon="6.09281">
        <ele>221.149</ele>
        <time>2019-09-25T11:18:41.001Z</time>
      </trkpt>
      <trkpt lat="47.76625" lon="6.09307">
        <ele>221.051</ele>
        <time>2019-09-25T11:18:44.001Z</time>
      </trkpt>
      <trkpt lat="47.76624" lon="6.09332">
        <ele>221.209</ele>
        <time>2019-09-25T11:18:47.001Z</time>
      </trkpt>
      <trkpt lat="47.76623" lon="6.09356">
        <ele>221.214</ele>
        <time>2019-09-25T11:18:50.001Z</time>
      </trkpt>
      <trkpt lat="47.76621" lon="6.09378">
        <ele>220.892</ele>
        <time>2019-09-25T11:18:53.001Z</time>
      </trkpt>
      <trkpt lat="47.76619" lon="6.09399">
        <ele>221.87</ele>
        <time>2019-09-25T11:18:56.001Z</time>
      </trkpt>
      <trkpt lat="47.76617" lon="6.0942">
        <ele>222.959</ele>
        <time>2019-09-25T11:18:59.001Z</time>
      </trkpt>
      <trkpt lat="47.76615" lon="6.09441">
        <ele>224.144</ele>
        <time>2019-09-25T13:19:02Z</time>
      </trkpt>
      <trkpt lat="47.76612" lon="6.09462">
        <ele>225.001</ele>
        <time>2019-09-25T11:19:05.001Z</time>
      </trkpt>
      <trkpt lat="47.7661" lon="6.09484">
        <ele>225.285</ele>
        <time>2019-09-25T11:19:08.001Z</time>
      </trkpt>
      <trkpt lat="47.7661" lon="6.09506">
        <ele>225.291</ele>
        <time>2019-09-25T11:19:11.001Z</time>
      </trkpt>
      <trkpt lat="47.7661" lon="6.09529">
        <ele>225.375</ele>
        <time>2019-09-25T11:19:14.001Z</time>
      </trkpt>
      <trkpt lat="47.7661" lon="6.09555">
        <ele>225.191</ele>
        <time>2019-09-25T11:19:17.001Z</time>
      </trkpt>
      <trkpt lat="47.7661" lon="6.09584">
        <ele>224.184</ele>
        <time>2019-09-25T11:19:20.001Z</time>
      </trkpt>
      <trkpt lat="47.76611" lon="6.09615">
        <ele>223.564</ele>
        <time>2019-09-25T11:19:23.001Z</time>
      </trkpt>
      <trkpt lat="47.76613" lon="6.09647">
        <ele>223.539</ele>
        <time>2019-09-25T11:19:26.001Z</time>
      </trkpt>
      <trkpt lat="47.76614" lon="6.09679">
        <ele>222.795</ele>
        <time>2019-09-25T11:19:29.001Z</time>
      </trkpt>
      <trkpt lat="47.76614" lon="6.09712">
        <ele>221.363</ele>
        <time>2019-09-25T11:19:32.001Z</time>
      </trkpt>
      <trkpt lat="47.76613" lon="6.09743">
        <ele>219.575</ele>
        <time>2019-09-25T11:19:35.001Z</time>
      </trkpt>
      <trkpt lat="47.76614" lon="6.09772">
        <ele>218.89</ele>
        <time>2019-09-25T11:19:38.001Z</time>
      </trkpt>
      <trkpt lat="47.76614" lon="6.09799">
        <ele>218.555</ele>
        <time>2019-09-25T11:19:41.001Z</time>
      </trkpt>
      <trkpt lat="47.76615" lon="6.09826">
        <ele>218.078</ele>
        <time>2019-09-25T11:19:44.001Z</time>
      </trkpt>
      <trkpt lat="47.76615" lon="6.09851">
        <ele>217.413</ele>
        <time>2019-09-25T11:19:47.001Z</time>
      </trkpt>
      <trkpt lat="47.76616" lon="6.09878">
        <ele>216.483</ele>
        <time>2019-09-25T11:19:50.001Z</time>
      </trkpt>
      <trkpt lat="47.76617" lon="6.09904">
        <ele>216.806</ele>
        <time>2019-09-25T11:19:53.001Z</time>
      </trkpt>
      <trkpt lat="47.76618" lon="6.09929">
        <ele>217.02</ele>
        <time>2019-09-25T11:19:56.001Z</time>
      </trkpt>
      <trkpt lat="47.76619" lon="6.09955">
        <ele>216.8</ele>
        <time>2019-09-25T11:19:59.001Z</time>
      </trkpt>
      <trkpt lat="47.7662" lon="6.09981">
        <ele>216.654</ele>
        <time>2019-09-25T13:20:02Z</time>
      </trkpt>
      <trkpt lat="47.7662" lon="6.10007">
        <ele>216.798</ele>
        <time>2019-09-25T11:20:05.001Z</time>
      </trkpt>
      <trkpt lat="47.76621" lon="6.10033">
        <ele>216.827</ele>
        <time>2019-09-25T11:20:08.001Z</time>
      </trkpt>
      <trkpt lat="47.7662" lon="6.10057">
        <ele>216.807</ele>
        <time>2019-09-25T11:20:11.001Z</time>
      </trkpt>
      <trkpt lat="47.76619" lon="6.10081">
        <ele>217.263</ele>
        <time>2019-09-25T11:20:14.001Z</time>
      </trkpt>
      <trkpt lat="47.76617" lon="6.10105">
        <ele>217.698</ele>
        <time>2019-09-25T11:20:17.001Z</time>
      </trkpt>
      <trkpt lat="47.76616" lon="6.10128">
        <ele>217.167</ele>
        <time>2019-09-25T11:20:20.001Z</time>
      </trkpt>
      <trkpt lat="47.76616" lon="6.10151">
        <ele>217.415</ele>
        <time>2019-09-25T11:20:23.001Z</time>
      </trkpt>
      <trkpt lat="47.76617" lon="6.10173">
        <ele>217.662</ele>
        <time>2019-09-25T11:20:26.001Z</time>
      </trkpt>
      <trkpt lat="47.76618" lon="6.10197">
        <ele>217.605</ele>
        <time>2019-09-25T11:20:29.001Z</time>
      </trkpt>
      <trkpt lat="47.76621" lon="6.10221">
        <ele>217.337</ele>
        <time>2019-09-25T11:20:32.001Z</time>
      </trkpt>
      <trkpt lat="47.76625" lon="6.10244">
        <ele>217.896</ele>
        <time>2019-09-25T11:20:35.001Z</time>
      </trkpt>
      <trkpt lat="47.76617" lon="6.10264">
        <ele>217.9</ele>
        <time>2019-09-25T11:20:38.001Z</time>
      </trkpt>
      <trkpt lat="47.76599" lon="6.10275">
        <ele>218.992</ele>
        <time>2019-09-25T11:20:41.001Z</time>
      </trkpt>
      <trkpt lat="47.76581" lon="6.10281">
        <ele>220.195</ele>
        <time>2019-09-25T11:20:44.001Z</time>
      </trkpt>
      <trkpt lat="47.76564" lon="6.10286">
        <ele>220.933</ele>
        <time>2019-09-25T11:20:47.001Z</time>
      </trkpt>
      <trkpt lat="47.76547" lon="6.10292">
        <ele>221.143</ele>
        <time>2019-09-25T11:20:50.001Z</time>
      </trkpt>
      <trkpt lat="47.76531" lon="6.10296">
        <ele>221.448</ele>
        <time>2019-09-25T11:20:53.001Z</time>
      </trkpt>
      <trkpt lat="47.76515" lon="6.10299">
        <ele>222.294</ele>
        <time>2019-09-25T11:20:56.001Z</time>
      </trkpt>
      <trkpt lat="47.765" lon="6.10301">
        <ele>222.632</ele>
        <time>2019-09-25T11:20:59.001Z</time>
      </trkpt>
      <trkpt lat="47.76484" lon="6.10304">
        <ele>222.788</ele>
        <time>2019-09-25T13:21:02Z</time>
      </trkpt>
      <trkpt lat="47.76474" lon="6.10308">
        <ele>222.305</ele>
        <time>2019-09-25T11:21:05.001Z</time>
      </trkpt>
      <trkpt lat="47.76463" lon="6.10309">
        <ele>221.489</ele>
        <time>2019-09-25T11:21:08.001Z</time>
      </trkpt>
      <trkpt lat="47.76449" lon="6.1031">
        <ele>221.673</ele>
        <time>2019-09-25T11:21:11.001Z</time>
      </trkpt>
      <trkpt lat="47.76434" lon="6.10313">
        <ele>222.311</ele>
        <time>2019-09-25T11:21:14.001Z</time>
      </trkpt>
      <trkpt lat="47.76418" lon="6.10314">
        <ele>222.53</ele>
        <time>2019-09-25T11:21:17.001Z</time>
      </trkpt>
      <trkpt lat="47.76401" lon="6.10316">
        <ele>222.692</ele>
        <time>2019-09-25T11:21:20.001Z</time>
      </trkpt>
      <trkpt lat="47.76382" lon="6.10319">
        <ele>222.965</ele>
        <time>2019-09-25T11:21:23.001Z</time>
      </trkpt>
      <trkpt lat="47.76364" lon="6.10322">
        <ele>223.667</ele>
        <time>2019-09-25T11:21:26.001Z</time>
      </trkpt>
      <trkpt lat="47.76346" lon="6.10324">
        <ele>223.733</ele>
        <time>2019-09-25T11:21:29.001Z</time>
      </trkpt>
      <trkpt lat="47.7633" lon="6.10325">
        <ele>223.802</ele>
        <time>2019-09-25T11:21:32.001Z</time>
      </trkpt>
      <trkpt lat="47.76314" lon="6.10326">
        <ele>223.93</ele>
        <time>2019-09-25T11:21:35.001Z</time>
      </trkpt>
      <trkpt lat="47.76301" lon="6.10328">
        <ele>224.61</ele>
        <time>2019-09-25T11:21:38.001Z</time>
      </trkpt>
      <trkpt lat="47.76286" lon="6.10331">
        <ele>225.101</ele>
        <time>2019-09-25T11:21:41.001Z</time>
      </trkpt>
      <trkpt lat="47.76271" lon="6.10333">
        <ele>225.241</ele>
        <time>2019-09-25T11:21:44.001Z</time>
      </trkpt>
      <trkpt lat="47.76255" lon="6.10334">
        <ele>225.191</ele>
        <time>2019-09-25T11:21:47.001Z</time>
      </trkpt>
      <trkpt lat="47.7624" lon="6.10335">
        <ele>224.623</ele>
        <time>2019-09-25T11:21:50.001Z</time>
      </trkpt>
      <trkpt lat="47.76224" lon="6.10334">
        <ele>224.299</ele>
        <time>2019-09-25T11:21:53.001Z</time>
      </trkpt>
      <trkpt lat="47.76209" lon="6.10334">
        <ele>224.794</ele>
        <time>2019-09-25T11:21:56.001Z</time>
      </trkpt>
      <trkpt lat="47.76195" lon="6.10333">
        <ele>225.101</ele>
        <time>2019-09-25T11:21:59.001Z</time>
      </trkpt>
      <trkpt lat="47.76182" lon="6.10333">
        <ele>225.331</ele>
        <time>2019-09-25T13:22:02Z</time>
      </trkpt>
      <trkpt lat="47.7617" lon="6.10334">
        <ele>224.878</ele>
        <time>2019-09-25T11:22:05.001Z</time>
      </trkpt>
      <trkpt lat="47.76158" lon="6.10337">
        <ele>224.974</ele>
        <time>2019-09-25T11:22:08.001Z</time>
      </trkpt>
      <trkpt lat="47.76147" lon="6.1034">
        <ele>224.486</ele>
        <time>2019-09-25T11:22:11.001Z</time>
      </trkpt>
      <trkpt lat="47.76137" lon="6.10346">
        <ele>224.499</ele>
        <time>2019-09-25T11:22:14.001Z</time>
      </trkpt>
      <trkpt lat="47.76126" lon="6.10353">
        <ele>224.041</ele>
        <time>2019-09-25T11:22:17.001Z</time>
      </trkpt>
      <trkpt lat="47.76117" lon="6.10359">
        <ele>223.193</ele>
        <time>2019-09-25T11:22:20.001Z</time>
      </trkpt>
      <trkpt lat="47.76107" lon="6.10366">
        <ele>222.356</ele>
        <time>2019-09-25T11:22:23.001Z</time>
      </trkpt>
      <trkpt lat="47.76096" lon="6.10373">
        <ele>221.074</ele>
        <time>2019-09-25T11:22:26.001Z</time>
      </trkpt>
      <trkpt lat="47.76086" lon="6.1038">
        <ele>220.419</ele>
        <time>2019-09-25T11:22:29.001Z</time>
      </trkpt>
      <trkpt lat="47.76075" lon="6.10387">
        <ele>220.532</ele>
        <time>2019-09-25T11:22:32.001Z</time>
      </trkpt>
      <trkpt lat="47.76065" lon="6.10392">
        <ele>219.977</ele>
        <time>2019-09-25T11:22:35.001Z</time>
      </trkpt>
      <trkpt lat="47.76054" lon="6.10401">
        <ele>219.729</ele>
        <time>2019-09-25T11:22:38.001Z</time>
      </trkpt>
      <trkpt lat="47.7604" lon="6.10411">
        <ele>219.69</ele>
        <time>2019-09-25T11:22:41.001Z</time>
      </trkpt>
      <trkpt lat="47.76027" lon="6.10419">
        <ele>218.946</ele>
        <time>2019-09-25T11:22:44.001Z</time>
      </trkpt>
      <trkpt lat="47.76016" lon="6.10435">
        <ele>217.19</ele>
        <time>2019-09-25T11:22:47.001Z</time>
      </trkpt>
      <trkpt lat="47.76021" lon="6.10458">
        <ele>216.6</ele>
        <time>2019-09-25T11:22:50.001Z</time>
      </trkpt>
      <trkpt lat="47.76032" lon="6.10478">
        <ele>216.468</ele>
        <time>2019-09-25T11:22:53.001Z</time>
      </trkpt>
      <trkpt lat="47.7604" lon="6.10498">
        <ele>216.459</ele>
        <time>2019-09-25T11:22:56.001Z</time>
      </trkpt>
      <trkpt lat="47.76048" lon="6.10518">
        <ele>216.915</ele>
        <time>2019-09-25T11:22:59.001Z</time>
      </trkpt>
      <trkpt lat="47.76056" lon="6.10538">
        <ele>216.943</ele>
        <time>2019-09-25T13:23:02Z</time>
      </trkpt>
      <trkpt lat="47.76064" lon="6.10556">
        <ele>216.917</ele>
        <time>2019-09-25T11:23:05.001Z</time>
      </trkpt>
      <trkpt lat="47.76073" lon="6.10573">
        <ele>217.778</ele>
        <time>2019-09-25T11:23:08.001Z</time>
      </trkpt>
      <trkpt lat="47.76079" lon="6.10591">
        <ele>218.732</ele>
        <time>2019-09-25T11:23:11.001Z</time>
      </trkpt>
      <trkpt lat="47.76085" lon="6.1061">
        <ele>219.258</ele>
        <time>2019-09-25T11:23:14.001Z</time>
      </trkpt>
      <trkpt lat="47.76091" lon="6.10628">
        <ele>218.687</ele>
        <time>2019-09-25T11:23:17.001Z</time>
      </trkpt>
      <trkpt lat="47.76098" lon="6.10645">
        <ele>218.42</ele>
        <time>2019-09-25T11:23:20.001Z</time>
      </trkpt>
      <trkpt lat="47.76103" lon="6.10661">
        <ele>218.786</ele>
        <time>2019-09-25T11:23:23.001Z</time>
      </trkpt>
      <trkpt lat="47.76109" lon="6.10677">
        <ele>219.234</ele>
        <time>2019-09-25T11:23:26.001Z</time>
      </trkpt>
      <trkpt lat="47.76115" lon="6.10693">
        <ele>218.984</ele>
        <time>2019-09-25T11:23:29.001Z</time>
      </trkpt>
      <trkpt lat="47.76122" lon="6.1071">
        <ele>218.993</ele>
        <time>2019-09-25T11:23:32.001Z</time>
      </trkpt>
      <trkpt lat="47.76129" lon="6.10729">
        <ele>219.449</ele>
        <time>2019-09-25T11:23:35.001Z</time>
      </trkpt>
      <trkpt lat="47.76137" lon="6.10747">
        <ele>220.049</ele>
        <time>2019-09-25T11:23:38.001Z</time>
      </trkpt>
      <trkpt lat="47.76144" lon="6.10766">
        <ele>220.16</ele>
        <time>2019-09-25T11:23:41.001Z</time>
      </trkpt>
      <trkpt lat="47.76154" lon="6.10784">
        <ele>220.72</ele>
        <time>2019-09-25T11:23:44.001Z</time>
      </trkpt>
      <trkpt lat="47.76162" lon="6.10803">
        <ele>221.822</ele>
        <time>2019-09-25T11:23:47.001Z</time>
      </trkpt>
      <trkpt lat="47.76171" lon="6.10821">
        <ele>223.411</ele>
        <time>2019-09-25T11:23:50.001Z</time>
      </trkpt>
      <trkpt lat="47.76179" lon="6.10837">
        <ele>224.277</ele>
        <time>2019-09-25T11:23:53.001Z</time>
      </trkpt>
      <trkpt lat="47.76185" lon="6.1085">
        <ele>223.658</ele>
        <time>2019-09-25T11:23:56.001Z</time>
      </trkpt>
      <trkpt lat="47.7619" lon="6.10861">
        <ele>223.275</ele>
        <time>2019-09-25T11:23:59.001Z</time>
      </trkpt>
      <trkpt lat="47.76194" lon="6.10871">
        <ele>223.5</ele>
        <time>2019-09-25T13:24:02Z</time>
      </trkpt>
      <trkpt lat="47.76198" lon="6.10881">
        <ele>223.116</ele>
        <time>2019-09-25T11:24:05.001Z</time>
      </trkpt>
      <trkpt lat="47.76202" lon="6.1089">
        <ele>222.936</ele>
        <time>2019-09-25T11:24:08.001Z</time>
      </trkpt>
      <trkpt lat="47.76207" lon="6.109">
        <ele>223.028</ele>
        <time>2019-09-25T11:24:11.001Z</time>
      </trkpt>
      <trkpt lat="47.76211" lon="6.10909">
        <ele>223.412</ele>
        <time>2019-09-25T11:24:14.001Z</time>
      </trkpt>
      <trkpt lat="47.76217" lon="6.10919">
        <ele>223.605</ele>
        <time>2019-09-25T11:24:17.001Z</time>
      </trkpt>
      <trkpt lat="47.76222" lon="6.10929">
        <ele>223.96</ele>
        <time>2019-09-25T11:24:20.001Z</time>
      </trkpt>
      <trkpt lat="47.76226" lon="6.10938">
        <ele>223.943</ele>
        <time>2019-09-25T11:24:23.001Z</time>
      </trkpt>
      <trkpt lat="47.7623" lon="6.10947">
        <ele>224.161</ele>
        <time>2019-09-25T11:24:26.001Z</time>
      </trkpt>
      <trkpt lat="47.76234" lon="6.10955">
        <ele>225.119</ele>
        <time>2019-09-25T11:24:29.001Z</time>
      </trkpt>
      <trkpt lat="47.76238" lon="6.10963">
        <ele>225.898</ele>
        <time>2019-09-25T11:24:32.001Z</time>
      </trkpt>
      <trkpt lat="47.76242" lon="6.10972">
        <ele>226.277</ele>
        <time>2019-09-25T11:24:35.001Z</time>
      </trkpt>
      <trkpt lat="47.76245" lon="6.1098">
        <ele>226.889</ele>
        <time>2019-09-25T11:24:38.001Z</time>
      </trkpt>
      <trkpt lat="47.76249" lon="6.10987">
        <ele>227.506</ele>
        <time>2019-09-25T11:24:41.001Z</time>
      </trkpt>
      <trkpt lat="47.76252" lon="6.10995">
        <ele>227.622</ele>
        <time>2019-09-25T11:24:44.001Z</time>
      </trkpt>
      <trkpt lat="47.76256" lon="6.11004">
        <ele>228.271</ele>
        <time>2019-09-25T11:24:47.001Z</time>
      </trkpt>
      <trkpt lat="47.7626" lon="6.11014">
        <ele>228.614</ele>
        <time>2019-09-25T11:24:50.001Z</time>
      </trkpt>
      <trkpt lat="47.76265" lon="6.11022">
        <ele>229.209</ele>
        <time>2019-09-25T11:24:53.001Z</time>
      </trkpt>
      <trkpt lat="47.76269" lon="6.11031">
        <ele>229.527</ele>
        <time>2019-09-25T11:24:56.001Z</time>
      </trkpt>
      <trkpt lat="47.76273" lon="6.11039">
        <ele>229.861</ele>
        <time>2019-09-25T11:24:59.001Z</time>
      </trkpt>
      <trkpt lat="47.76277" lon="6.11047">
        <ele>230.909</ele>
        <time>2019-09-25T13:25:02Z</time>
      </trkpt>
      <trkpt lat="47.76282" lon="6.11056">
        <ele>231.684</ele>
        <time>2019-09-25T11:25:05.001Z</time>
      </trkpt>
      <trkpt lat="47.76286" lon="6.11066">
        <ele>232.845</ele>
        <time>2019-09-25T11:25:08.001Z</time>
      </trkpt>
      <trkpt lat="47.76292" lon="6.11077">
        <ele>233.334</ele>
        <time>2019-09-25T11:25:11.001Z</time>
      </trkpt>
      <trkpt lat="47.76299" lon="6.11089">
        <ele>233.182</ele>
        <time>2019-09-25T11:25:14.001Z</time>
      </trkpt>
      <trkpt lat="47.76305" lon="6.11102">
        <ele>233.314</ele>
        <time>2019-09-25T11:25:17.001Z</time>
      </trkpt>
      <trkpt lat="47.76314" lon="6.11119">
        <ele>233.133</ele>
        <time>2019-09-25T11:25:20.001Z</time>
      </trkpt>
      <trkpt lat="47.76322" lon="6.11135">
        <ele>233.317</ele>
        <time>2019-09-25T11:25:23.001Z</time>
      </trkpt>
      <trkpt lat="47.76329" lon="6.11152">
        <ele>233.268</ele>
        <time>2019-09-25T11:25:26.001Z</time>
      </trkpt>
      <trkpt lat="47.76336" lon="6.1117">
        <ele>233.782</ele>
        <time>2019-09-25T11:25:29.001Z</time>
      </trkpt>
      <trkpt lat="47.76341" lon="6.11187">
        <ele>234.678</ele>
        <time>2019-09-25T11:25:32.001Z</time>
      </trkpt>
      <trkpt lat="47.76346" lon="6.11202">
        <ele>236.166</ele>
        <time>2019-09-25T11:25:35.001Z</time>
      </trkpt>
      <trkpt lat="47.76348" lon="6.11221">
        <ele>237.256</ele>
        <time>2019-09-25T11:25:38.001Z</time>
      </trkpt>
      <trkpt lat="47.76354" lon="6.11236">
        <ele>238.042</ele>
        <time>2019-09-25T11:25:41.001Z</time>
      </trkpt>
      <trkpt lat="47.76359" lon="6.11253">
        <ele>238.823</ele>
        <time>2019-09-25T11:25:44.001Z</time>
      </trkpt>
      <trkpt lat="47.76364" lon="6.11275">
        <ele>238.658</ele>
        <time>2019-09-25T11:25:47.001Z</time>
      </trkpt>
      <trkpt lat="47.7637" lon="6.113">
        <ele>238.487</ele>
        <time>2019-09-25T11:25:50.001Z</time>
      </trkpt>
      <trkpt lat="47.76377" lon="6.11322">
        <ele>239.119</ele>
        <time>2019-09-25T11:25:53.001Z</time>
      </trkpt>
      <trkpt lat="47.76384" lon="6.11345">
        <ele>240.273</ele>
        <time>2019-09-25T11:25:56.001Z</time>
      </trkpt>
      <trkpt lat="47.76389" lon="6.11364">
        <ele>241.492</ele>
        <time>2019-09-25T11:25:59.001Z</time>
      </trkpt>
      <trkpt lat="47.76393" lon="6.11387">
        <ele>240.515</ele>
        <time>2019-09-25T13:26:02Z</time>
      </trkpt>
      <trkpt lat="47.76395" lon="6.11411">
        <ele>240.368</ele>
        <time>2019-09-25T11:26:05.001Z</time>
      </trkpt>
      <trkpt lat="47.76398" lon="6.11433">
        <ele>241.608</ele>
        <time>2019-09-25T11:26:08.001Z</time>
      </trkpt>
      <trkpt lat="47.76399" lon="6.11454">
        <ele>242.941</ele>
        <time>2019-09-25T11:26:11.001Z</time>
      </trkpt>
      <trkpt lat="47.764" lon="6.11472">
        <ele>244.137</ele>
        <time>2019-09-25T11:26:14.001Z</time>
      </trkpt>
      <trkpt lat="47.76399" lon="6.1149">
        <ele>244.52</ele>
        <time>2019-09-25T11:26:17.001Z</time>
      </trkpt>
      <trkpt lat="47.76399" lon="6.1151">
        <ele>244.214</ele>
        <time>2019-09-25T11:26:20.001Z</time>
      </trkpt>
      <trkpt lat="47.76395" lon="6.11534">
        <ele>242.815</ele>
        <time>2019-09-25T11:26:23.001Z</time>
      </trkpt>
      <trkpt lat="47.76394" lon="6.11554">
        <ele>241.764</ele>
        <time>2019-09-25T11:26:26.001Z</time>
      </trkpt>
      <trkpt lat="47.76394" lon="6.11575">
        <ele>240.625</ele>
        <time>2019-09-25T11:26:29.001Z</time>
      </trkpt>
      <trkpt lat="47.76391" lon="6.11598">
        <ele>239.043</ele>
        <time>2019-09-25T11:26:32.001Z</time>
      </trkpt>
      <trkpt lat="47.76386" lon="6.11622">
        <ele>237.357</ele>
        <time>2019-09-25T11:26:35.001Z</time>
      </trkpt>
      <trkpt lat="47.76382" lon="6.11644">
        <ele>235.678</ele>
        <time>2019-09-25T11:26:38.001Z</time>
      </trkpt>
      <trkpt lat="47.76378" lon="6.11662">
        <ele>234.815</ele>
        <time>2019-09-25T11:26:41.001Z</time>
      </trkpt>
      <trkpt lat="47.76375" lon="6.11677">
        <ele>234.466</ele>
        <time>2019-09-25T11:26:44.001Z</time>
      </trkpt>
      <trkpt lat="47.76373" lon="6.11691">
        <ele>234.571</ele>
        <time>2019-09-25T11:26:47.001Z</time>
      </trkpt>
      <trkpt lat="47.76371" lon="6.11704">
        <ele>233.68</ele>
        <time>2019-09-25T11:26:50.001Z</time>
      </trkpt>
      <trkpt lat="47.76369" lon="6.11718">
        <ele>232.31</ele>
        <time>2019-09-25T11:26:53.001Z</time>
      </trkpt>
      <trkpt lat="47.76366" lon="6.11736">
        <ele>230.868</ele>
        <time>2019-09-25T11:26:56.001Z</time>
      </trkpt>
      <trkpt lat="47.76363" lon="6.11755">
        <ele>229.294</ele>
        <time>2019-09-25T11:26:59.001Z</time>
      </trkpt>
      <trkpt lat="47.7636" lon="6.11775">
        <ele>228.347</ele>
        <time>2019-09-25T13:27:02Z</time>
      </trkpt>
      <trkpt lat="47.76356" lon="6.11796">
        <ele>227.328</ele>
        <time>2019-09-25T11:27:05.001Z</time>
      </trkpt>
      <trkpt lat="47.76352" lon="6.11816">
        <ele>226.843</ele>
        <time>2019-09-25T11:27:08.001Z</time>
      </trkpt>
      <trkpt lat="47.76348" lon="6.11835">
        <ele>227.06</ele>
        <time>2019-09-25T11:27:11.001Z</time>
      </trkpt>
      <trkpt lat="47.76342" lon="6.11854">
        <ele>227.717</ele>
        <time>2019-09-25T11:27:14.001Z</time>
      </trkpt>
      <trkpt lat="47.76337" lon="6.11871">
        <ele>228.327</ele>
        <time>2019-09-25T11:27:17.001Z</time>
      </trkpt>
      <trkpt lat="47.76331" lon="6.11888">
        <ele>228.685</ele>
        <time>2019-09-25T11:27:20.001Z</time>
      </trkpt>
      <trkpt lat="47.76325" lon="6.11902">
        <ele>229.472</ele>
        <time>2019-09-25T11:27:23.001Z</time>
      </trkpt>
      <trkpt lat="47.76319" lon="6.11917">
        <ele>229.766</ele>
        <time>2019-09-25T11:27:26.001Z</time>
      </trkpt>
      <trkpt lat="47.76313" lon="6.11932">
        <ele>230.025</ele>
        <time>2019-09-25T11:27:29.001Z</time>
      </trkpt>
      <trkpt lat="47.76305" lon="6.11947">
        <ele>230.38</ele>
        <time>2019-09-25T11:27:32.001Z</time>
      </trkpt>
      <trkpt lat="47.76297" lon="6.11961">
        <ele>230.113</ele>
        <time>2019-09-25T11:27:35.001Z</time>
      </trkpt>
      <trkpt lat="47.76289" lon="6.11973">
        <ele>230.019</ele>
        <time>2019-09-25T11:27:38.001Z</time>
      </trkpt>
      <trkpt lat="47.76281" lon="6.11983">
        <ele>229.759</ele>
        <time>2019-09-25T11:27:41.001Z</time>
      </trkpt>
      <trkpt lat="47.76274" lon="6.11992">
        <ele>229.454</ele>
        <time>2019-09-25T11:27:44.001Z</time>
      </trkpt>
      <trkpt lat="47.76268" lon="6.12">
        <ele>229.574</ele>
        <time>2019-09-25T11:27:47.001Z</time>
      </trkpt>
      <trkpt lat="47.76261" lon="6.12007">
        <ele>229.42</ele>
        <time>2019-09-25T11:27:50.001Z</time>
      </trkpt>
      <trkpt lat="47.76255" lon="6.12014">
        <ele>229.679</ele>
        <time>2019-09-25T11:27:53.001Z</time>
      </trkpt>
      <trkpt lat="47.76248" lon="6.12023">
        <ele>229.629</ele>
        <time>2019-09-25T11:27:56.001Z</time>
      </trkpt>
      <trkpt lat="47.76241" lon="6.12031">
        <ele>229.419</ele>
        <time>2019-09-25T11:27:59.001Z</time>
      </trkpt>
      <trkpt lat="47.76233" lon="6.1204">
        <ele>229.574</ele>
        <time>2019-09-25T13:28:02Z</time>
      </trkpt>
      <trkpt lat="47.76225" lon="6.12048">
        <ele>229.607</ele>
        <time>2019-09-25T11:28:05.001Z</time>
      </trkpt>
      <trkpt lat="47.76217" lon="6.12058">
        <ele>229.89</ele>
        <time>2019-09-25T11:28:08.001Z</time>
      </trkpt>
      <trkpt lat="47.76209" lon="6.12066">
        <ele>230.464</ele>
        <time>2019-09-25T11:28:11.001Z</time>
      </trkpt>
      <trkpt lat="47.76202" lon="6.12076">
        <ele>230.729</ele>
        <time>2019-09-25T11:28:14.001Z</time>
      </trkpt>
      <trkpt lat="47.76196" lon="6.12084">
        <ele>230.479</ele>
        <time>2019-09-25T11:28:17.001Z</time>
      </trkpt>
      <trkpt lat="47.7619" lon="6.12093">
        <ele>230.605</ele>
        <time>2019-09-25T11:28:20.001Z</time>
      </trkpt>
      <trkpt lat="47.76184" lon="6.121">
        <ele>230.979</ele>
        <time>2019-09-25T11:28:23.001Z</time>
      </trkpt>
      <trkpt lat="47.76178" lon="6.12105">
        <ele>231.235</ele>
        <time>2019-09-25T11:28:26.001Z</time>
      </trkpt>
      <trkpt lat="47.76172" lon="6.12113">
        <ele>231.818</ele>
        <time>2019-09-25T11:28:29.001Z</time>
      </trkpt>
      <trkpt lat="47.76166" lon="6.12121">
        <ele>232.316</ele>
        <time>2019-09-25T11:28:32.001Z</time>
      </trkpt>
      <trkpt lat="47.7616" lon="6.12129">
        <ele>233.225</ele>
        <time>2019-09-25T11:28:35.001Z</time>
      </trkpt>
      <trkpt lat="47.76153" lon="6.12137">
        <ele>233.912</ele>
        <time>2019-09-25T11:28:38.001Z</time>
      </trkpt>
      <trkpt lat="47.76145" lon="6.12148">
        <ele>234.465</ele>
        <time>2019-09-25T11:28:41.001Z</time>
      </trkpt>
      <trkpt lat="47.76136" lon="6.1216">
        <ele>234.139</ele>
        <time>2019-09-25T11:28:44.001Z</time>
      </trkpt>
      <trkpt lat="47.76124" lon="6.12173">
        <ele>233.723</ele>
        <time>2019-09-25T11:28:47.001Z</time>
      </trkpt>
      <trkpt lat="47.76109" lon="6.12189">
        <ele>232.479</ele>
        <time>2019-09-25T11:28:50.001Z</time>
      </trkpt>
      <trkpt lat="47.76094" lon="6.12207">
        <ele>231.409</ele>
        <time>2019-09-25T11:28:53.001Z</time>
      </trkpt>
      <trkpt lat="47.76078" lon="6.12225">
        <ele>230.758</ele>
        <time>2019-09-25T11:28:56.001Z</time>
      </trkpt>
      <trkpt lat="47.76064" lon="6.12243">
        <ele>230.354</ele>
        <time>2019-09-25T11:28:59.001Z</time>
      </trkpt>
      <trkpt lat="47.76051" lon="6.12259">
        <ele>229.847</ele>
        <time>2019-09-25T13:29:02Z</time>
      </trkpt>
      <trkpt lat="47.76038" lon="6.12275">
        <ele>229.664</ele>
        <time>2019-09-25T11:29:05.001Z</time>
      </trkpt>
      <trkpt lat="47.76027" lon="6.12288">
        <ele>229.578</ele>
        <time>2019-09-25T11:29:08.001Z</time>
      </trkpt>
      <trkpt lat="47.76017" lon="6.12301">
        <ele>229.787</ele>
        <time>2019-09-25T11:29:11.001Z</time>
      </trkpt>
      <trkpt lat="47.76008" lon="6.12314">
        <ele>230.058</ele>
        <time>2019-09-25T11:29:14.001Z</time>
      </trkpt>
      <trkpt lat="47.75997" lon="6.12329">
        <ele>230.074</ele>
        <time>2019-09-25T11:29:17.001Z</time>
      </trkpt>
      <trkpt lat="47.75984" lon="6.12344">
        <ele>230.047</ele>
        <time>2019-09-25T11:29:20.001Z</time>
      </trkpt>
      <trkpt lat="47.7597" lon="6.1236">
        <ele>228.848</ele>
        <time>2019-09-25T11:29:23.001Z</time>
      </trkpt>
      <trkpt lat="47.75955" lon="6.12378">
        <ele>228.049</ele>
        <time>2019-09-25T11:29:26.001Z</time>
      </trkpt>
      <trkpt lat="47.7594" lon="6.12398">
        <ele>227.59</ele>
        <time>2019-09-25T11:29:29.001Z</time>
      </trkpt>
      <trkpt lat="47.75925" lon="6.12425">
        <ele>226.914</ele>
        <time>2019-09-25T11:29:32.001Z</time>
      </trkpt>
      <trkpt lat="47.75914" lon="6.12462">
        <ele>226.537</ele>
        <time>2019-09-25T11:29:35.001Z</time>
      </trkpt>
      <trkpt lat="47.7591" lon="6.12497">
        <ele>226.429</ele>
        <time>2019-09-25T11:29:38.001Z</time>
      </trkpt>
      <trkpt lat="47.75909" lon="6.12531">
        <ele>226.642</ele>
        <time>2019-09-25T11:29:41.001Z</time>
      </trkpt>
      <trkpt lat="47.75909" lon="6.12561">
        <ele>226.713</ele>
        <time>2019-09-25T11:29:44.001Z</time>
      </trkpt>
      <trkpt lat="47.75909" lon="6.12588">
        <ele>227.316</ele>
        <time>2019-09-25T11:29:47.001Z</time>
      </trkpt>
      <trkpt lat="47.75909" lon="6.12612">
        <ele>227.326</ele>
        <time>2019-09-25T11:29:50.001Z</time>
      </trkpt>
      <trkpt lat="47.75908" lon="6.12634">
        <ele>227.653</ele>
        <time>2019-09-25T11:29:53.001Z</time>
      </trkpt>
      <trkpt lat="47.75907" lon="6.12654">
        <ele>228.15</ele>
        <time>2019-09-25T11:29:56.001Z</time>
      </trkpt>
      <trkpt lat="47.75907" lon="6.12673">
        <ele>228.279</ele>
        <time>2019-09-25T11:29:59.001Z</time>
      </trkpt>
      <trkpt lat="47.75906" lon="6.12696">
        <ele>228.383</ele>
        <time>2019-09-25T13:30:02Z</time>
      </trkpt>
      <trkpt lat="47.75905" lon="6.12722">
        <ele>228.099</ele>
        <time>2019-09-25T11:30:05.001Z</time>
      </trkpt>
      <trkpt lat="47.75901" lon="6.12749">
        <ele>227.837</ele>
        <time>2019-09-25T11:30:08.001Z</time>
      </trkpt>
      <trkpt lat="47.75891" lon="6.12771">
        <ele>227.756</ele>
        <time>2019-09-25T11:30:11.001Z</time>
      </trkpt>
      <trkpt lat="47.75879" lon="6.12787">
        <ele>228.164</ele>
        <time>2019-09-25T11:30:14.001Z</time>
      </trkpt>
      <trkpt lat="47.75867" lon="6.128">
        <ele>227.877</ele>
        <time>2019-09-25T11:30:17.001Z</time>
      </trkpt>
      <trkpt lat="47.75855" lon="6.12812">
        <ele>227.567</ele>
        <time>2019-09-25T11:30:20.001Z</time>
      </trkpt>
      <trkpt lat="47.75844" lon="6.12821">
        <ele>227.473</ele>
        <time>2019-09-25T11:30:23.001Z</time>
      </trkpt>
      <trkpt lat="47.75833" lon="6.12832">
        <ele>227.183</ele>
        <time>2019-09-25T11:30:26.001Z</time>
      </trkpt>
      <trkpt lat="47.7582" lon="6.12843">
        <ele>225.523</ele>
        <time>2019-09-25T11:30:29.001Z</time>
      </trkpt>
      <trkpt lat="47.75807" lon="6.12854">
        <ele>223.94</ele>
        <time>2019-09-25T11:30:32.001Z</time>
      </trkpt>
      <trkpt lat="47.75794" lon="6.12865">
        <ele>223.25</ele>
        <time>2019-09-25T11:30:35.001Z</time>
      </trkpt>
      <trkpt lat="47.75782" lon="6.12876">
        <ele>222.429</ele>
        <time>2019-09-25T11:30:38.001Z</time>
      </trkpt>
      <trkpt lat="47.75771" lon="6.12886">
        <ele>222.612</ele>
        <time>2019-09-25T11:30:41.001Z</time>
      </trkpt>
      <trkpt lat="47.7576" lon="6.12895">
        <ele>223.059</ele>
        <time>2019-09-25T11:30:44.001Z</time>
      </trkpt>
      <trkpt lat="47.7575" lon="6.12904">
        <ele>224.177</ele>
        <time>2019-09-25T11:30:47.001Z</time>
      </trkpt>
      <trkpt lat="47.7574" lon="6.12913">
        <ele>224.958</ele>
        <time>2019-09-25T11:30:50.001Z</time>
      </trkpt>
      <trkpt lat="47.75729" lon="6.12923">
        <ele>225.923</ele>
        <time>2019-09-25T11:30:53.001Z</time>
      </trkpt>
      <trkpt lat="47.75718" lon="6.12935">
        <ele>226.73</ele>
        <time>2019-09-25T11:30:56.001Z</time>
      </trkpt>
      <trkpt lat="47.75706" lon="6.12947">
        <ele>227.119</ele>
        <time>2019-09-25T11:30:59.001Z</time>
      </trkpt>
      <trkpt lat="47.75694" lon="6.12957">
        <ele>227.573</ele>
        <time>2019-09-25T13:31:02Z</time>
      </trkpt>
      <trkpt lat="47.75683" lon="6.12967">
        <ele>227.834</ele>
        <time>2019-09-25T11:31:05.001Z</time>
      </trkpt>
      <trkpt lat="47.75671" lon="6.12977">
        <ele>227.458</ele>
        <time>2019-09-25T11:31:08.001Z</time>
      </trkpt>
      <trkpt lat="47.7566" lon="6.12987">
        <ele>227.49</ele>
        <time>2019-09-25T11:31:11.001Z</time>
      </trkpt>
      <trkpt lat="47.75648" lon="6.12997">
        <ele>227.688</ele>
        <time>2019-09-25T11:31:14.001Z</time>
      </trkpt>
      <trkpt lat="47.75638" lon="6.13006">
        <ele>227.625</ele>
        <time>2019-09-25T11:31:17.001Z</time>
      </trkpt>
      <trkpt lat="47.75629" lon="6.13016">
        <ele>228.062</ele>
        <time>2019-09-25T11:31:20.001Z</time>
      </trkpt>
      <trkpt lat="47.7562" lon="6.13028">
        <ele>228.596</ele>
        <time>2019-09-25T11:31:23.001Z</time>
      </trkpt>
      <trkpt lat="47.75614" lon="6.1304">
        <ele>229.177</ele>
        <time>2019-09-25T11:31:26.001Z</time>
      </trkpt>
      <trkpt lat="47.75608" lon="6.13052">
        <ele>229.809</ele>
        <time>2019-09-25T11:31:29.001Z</time>
      </trkpt>
      <trkpt lat="47.75604" lon="6.13066">
        <ele>230.742</ele>
        <time>2019-09-25T11:31:32.001Z</time>
      </trkpt>
      <trkpt lat="47.75597" lon="6.13078">
        <ele>232.859</ele>
        <time>2019-09-25T11:31:35.001Z</time>
      </trkpt>
      <trkpt lat="47.75588" lon="6.13088">
        <ele>234.562</ele>
        <time>2019-09-25T11:31:38.001Z</time>
      </trkpt>
      <trkpt lat="47.75578" lon="6.13098">
        <ele>234.437</ele>
        <time>2019-09-25T11:31:41.001Z</time>
      </trkpt>
      <trkpt lat="47.75568" lon="6.13108">
        <ele>234.066</ele>
        <time>2019-09-25T11:31:44.001Z</time>
      </trkpt>
      <trkpt lat="47.75558" lon="6.13118">
        <ele>232.597</ele>
        <time>2019-09-25T11:31:47.001Z</time>
      </trkpt>
      <trkpt lat="47.7555" lon="6.13129">
        <ele>230.626</ele>
        <time>2019-09-25T11:31:50.001Z</time>
      </trkpt>
      <trkpt lat="47.75542" lon="6.13139">
        <ele>229.762</ele>
        <time>2019-09-25T11:31:53.001Z</time>
      </trkpt>
      <trkpt lat="47.75534" lon="6.13146">
        <ele>229.267</ele>
        <time>2019-09-25T11:31:56.001Z</time>
      </trkpt>
      <trkpt lat="47.75524" lon="6.13153">
        <ele>229.339</ele>
        <time>2019-09-25T11:31:59.001Z</time>
      </trkpt>
      <trkpt lat="47.75514" lon="6.13161">
        <ele>230.023</ele>
        <time>2019-09-25T13:32:02Z</time>
      </trkpt>
      <trkpt lat="47.75504" lon="6.13167">
        <ele>230.043</ele>
        <time>2019-09-25T11:32:05.001Z</time>
      </trkpt>
      <trkpt lat="47.75494" lon="6.13175">
        <ele>229.697</ele>
        <time>2019-09-25T11:32:08.001Z</time>
      </trkpt>
      <trkpt lat="47.75485" lon="6.13182">
        <ele>229.9</ele>
        <time>2019-09-25T11:32:11.001Z</time>
      </trkpt>
      <trkpt lat="47.75476" lon="6.13189">
        <ele>229.797</ele>
        <time>2019-09-25T11:32:14.001Z</time>
      </trkpt>
      <trkpt lat="47.75467" lon="6.13196">
        <ele>229.763</ele>
        <time>2019-09-25T11:32:17.001Z</time>
      </trkpt>
      <trkpt lat="47.75459" lon="6.13204">
        <ele>229.493</ele>
        <time>2019-09-25T11:32:20.001Z</time>
      </trkpt>
      <trkpt lat="47.7545" lon="6.1321">
        <ele>229.794</ele>
        <time>2019-09-25T11:32:23.001Z</time>
      </trkpt>
      <trkpt lat="47.75442" lon="6.13216">
        <ele>230.289</ele>
        <time>2019-09-25T11:32:26.001Z</time>
      </trkpt>
      <trkpt lat="47.75434" lon="6.13224">
        <ele>230.597</ele>
        <time>2019-09-25T11:32:29.001Z</time>
      </trkpt>
      <trkpt lat="47.75424" lon="6.1323">
        <ele>231.118</ele>
        <time>2019-09-25T11:32:32.001Z</time>
      </trkpt>
      <trkpt lat="47.75415" lon="6.13238">
        <ele>231.556</ele>
        <time>2019-09-25T11:32:35.001Z</time>
      </trkpt>
      <trkpt lat="47.75406" lon="6.13245">
        <ele>232.096</ele>
        <time>2019-09-25T11:32:38.001Z</time>
      </trkpt>
      <trkpt lat="47.75398" lon="6.13252">
        <ele>232.707</ele>
        <time>2019-09-25T11:32:41.001Z</time>
      </trkpt>
      <trkpt lat="47.75389" lon="6.13258">
        <ele>233.268</ele>
        <time>2019-09-25T11:32:44.001Z</time>
      </trkpt>
      <trkpt lat="47.75381" lon="6.13265">
        <ele>233.455</ele>
        <time>2019-09-25T11:32:47.001Z</time>
      </trkpt>
      <trkpt lat="47.75372" lon="6.13272">
        <ele>233.224</ele>
        <time>2019-09-25T11:32:50.001Z</time>
      </trkpt>
      <trkpt lat="47.75365" lon="6.13277">
        <ele>233.291</ele>
        <time>2019-09-25T11:32:53.001Z</time>
      </trkpt>
      <trkpt lat="47.75357" lon="6.13283">
        <ele>233.4</ele>
        <time>2019-09-25T11:32:56.001Z</time>
      </trkpt>
      <trkpt lat="47.7535" lon="6.1329">
        <ele>233.145</ele>
        <time>2019-09-25T11:32:59.001Z</time>
      </trkpt>
      <trkpt lat="47.75342" lon="6.13298">
        <ele>233.385</ele>
        <time>2019-09-25T13:33:02Z</time>
      </trkpt>
      <trkpt lat="47.75336" lon="6.13306">
        <ele>234.123</ele>
        <time>2019-09-25T11:33:05.001Z</time>
      </trkpt>
      <trkpt lat="47.75329" lon="6.13315">
        <ele>234.793</ele>
        <time>2019-09-25T11:33:08.001Z</time>
      </trkpt>
      <trkpt lat="47.75323" lon="6.13325">
        <ele>235.39</ele>
        <time>2019-09-25T11:33:11.001Z</time>
      </trkpt>
      <trkpt lat="47.75317" lon="6.13335">
        <ele>235.613</ele>
        <time>2019-09-25T11:33:14.001Z</time>
      </trkpt>
      <trkpt lat="47.7531" lon="6.13344">
        <ele>235.578</ele>
        <time>2019-09-25T11:33:17.001Z</time>
      </trkpt>
      <trkpt lat="47.75304" lon="6.13351">
        <ele>235.425</ele>
        <time>2019-09-25T11:33:20.001Z</time>
      </trkpt>
      <trkpt lat="47.75298" lon="6.13359">
        <ele>235.431</ele>
        <time>2019-09-25T11:33:23.001Z</time>
      </trkpt>
      <trkpt lat="47.75292" lon="6.13367">
        <ele>235.505</ele>
        <time>2019-09-25T11:33:26.001Z</time>
      </trkpt>
      <trkpt lat="47.75285" lon="6.13375">
        <ele>235.199</ele>
        <time>2019-09-25T11:33:29.001Z</time>
      </trkpt>
      <trkpt lat="47.7528" lon="6.13383">
        <ele>235.139</ele>
        <time>2019-09-25T11:33:32.001Z</time>
      </trkpt>
      <trkpt lat="47.75274" lon="6.13391">
        <ele>235.279</ele>
        <time>2019-09-25T11:33:35.001Z</time>
      </trkpt>
      <trkpt lat="47.75268" lon="6.13397">
        <ele>235.738</ele>
        <time>2019-09-25T11:33:38.001Z</time>
      </trkpt>
      <trkpt lat="47.75263" lon="6.13404">
        <ele>236.424</ele>
        <time>2019-09-25T11:33:41.001Z</time>
      </trkpt>
      <trkpt lat="47.75257" lon="6.13411">
        <ele>237.457</ele>
        <time>2019-09-25T11:33:44.001Z</time>
      </trkpt>
      <trkpt lat="47.75252" lon="6.13419">
        <ele>238.296</ele>
        <time>2019-09-25T11:33:47.001Z</time>
      </trkpt>
      <trkpt lat="47.75246" lon="6.13424">
        <ele>238.771</ele>
        <time>2019-09-25T11:33:50.001Z</time>
      </trkpt>
      <trkpt lat="47.75239" lon="6.13428">
        <ele>239.432</ele>
        <time>2019-09-25T11:33:53.001Z</time>
      </trkpt>
      <trkpt lat="47.75233" lon="6.13432">
        <ele>239.808</ele>
        <time>2019-09-25T11:33:56.001Z</time>
      </trkpt>
      <trkpt lat="47.75227" lon="6.13436">
        <ele>240.183</ele>
        <time>2019-09-25T11:33:59.001Z</time>
      </trkpt>
      <trkpt lat="47.75221" lon="6.1344">
        <ele>240.337</ele>
        <time>2019-09-25T13:34:02Z</time>
      </trkpt>
      <trkpt lat="47.75214" lon="6.13444">
        <ele>240.354</ele>
        <time>2019-09-25T11:34:05.001Z</time>
      </trkpt>
      <trkpt lat="47.75209" lon="6.13448">
        <ele>240.236</ele>
        <time>2019-09-25T11:34:08.001Z</time>
      </trkpt>
      <trkpt lat="47.75203" lon="6.13454">
        <ele>240.458</ele>
        <time>2019-09-25T11:34:11.001Z</time>
      </trkpt>
      <trkpt lat="47.75198" lon="6.1346">
        <ele>241.343</ele>
        <time>2019-09-25T11:34:14.001Z</time>
      </trkpt>
      <trkpt lat="47.75194" lon="6.13465">
        <ele>241.463</ele>
        <time>2019-09-25T11:34:17.001Z</time>
      </trkpt>
      <trkpt lat="47.7519" lon="6.1347">
        <ele>241.865</ele>
        <time>2019-09-25T11:34:20.001Z</time>
      </trkpt>
      <trkpt lat="47.75187" lon="6.13475">
        <ele>242.247</ele>
        <time>2019-09-25T11:34:23.001Z</time>
      </trkpt>
      <trkpt lat="47.75186" lon="6.13475">
        <ele>242.164</ele>
        <time>2019-09-25T11:34:26.001Z</time>
      </trkpt>
      <trkpt lat="47.75186" lon="6.13475">
        <ele>242.164</ele>
        <time>2019-09-25T11:40:08.001Z</time>
      </trkpt>
      <trkpt lat="47.75187" lon="6.13476">
        <ele>242.014</ele>
        <time>2019-09-25T11:40:11.001Z</time>
      </trkpt>
      <trkpt lat="47.75189" lon="6.13476">
        <ele>242.248</ele>
        <time>2019-09-25T11:40:14.001Z</time>
      </trkpt>
      <trkpt lat="47.75189" lon="6.13478">
        <ele>242.346</ele>
        <time>2019-09-25T11:40:17.001Z</time>
      </trkpt>
      <trkpt lat="47.75189" lon="6.13478">
        <ele>242.346</ele>
        <time>2019-09-25T11:40:29.001Z</time>
      </trkpt>
      <trkpt lat="47.7519" lon="6.13473">
        <ele>242.46</ele>
        <time>2019-09-25T11:40:32.001Z</time>
      </trkpt>
      <trkpt lat="47.75193" lon="6.13466">
        <ele>242.767</ele>
        <time>2019-09-25T11:40:35.001Z</time>
      </trkpt>
      <trkpt lat="47.75199" lon="6.13458">
        <ele>243.288</ele>
        <time>2019-09-25T11:40:38.001Z</time>
      </trkpt>
      <trkpt lat="47.7521" lon="6.13452">
        <ele>243.177</ele>
        <time>2019-09-25T11:40:41.001Z</time>
      </trkpt>
      <trkpt lat="47.75224" lon="6.13443">
        <ele>243.039</ele>
        <time>2019-09-25T11:40:44.001Z</time>
      </trkpt>
      <trkpt lat="47.75242" lon="6.13433">
        <ele>242.785</ele>
        <time>2019-09-25T11:40:47.001Z</time>
      </trkpt>
      <trkpt lat="47.75262" lon="6.13424">
        <ele>242.185</ele>
        <time>2019-09-25T11:40:50.001Z</time>
      </trkpt>
      <trkpt lat="47.75282" lon="6.13416">
        <ele>241.721</ele>
        <time>2019-09-25T11:40:53.001Z</time>
      </trkpt>
      <trkpt lat="47.75302" lon="6.13406">
        <ele>241.454</ele>
        <time>2019-09-25T11:40:56.001Z</time>
      </trkpt>
      <trkpt lat="47.75319" lon="6.13397">
        <ele>241.323</ele>
        <time>2019-09-25T11:40:59.001Z</time>
      </trkpt>
      <trkpt lat="47.75333" lon="6.13389">
        <ele>241.437</ele>
        <time>2019-09-25T13:41:02Z</time>
      </trkpt>
      <trkpt lat="47.75344" lon="6.13381">
        <ele>241.638</ele>
        <time>2019-09-25T11:41:05.001Z</time>
      </trkpt>
      <trkpt lat="47.75352" lon="6.13376">
        <ele>241.751</ele>
        <time>2019-09-25T11:41:08.001Z</time>
      </trkpt>
      <trkpt lat="47.75361" lon="6.13369">
        <ele>241.433</ele>
        <time>2019-09-25T11:41:11.001Z</time>
      </trkpt>
      <trkpt lat="47.75371" lon="6.13364">
        <ele>241.809</ele>
        <time>2019-09-25T11:41:14.001Z</time>
      </trkpt>
      <trkpt lat="47.75384" lon="6.13357">
        <ele>241.733</ele>
        <time>2019-09-25T11:41:17.001Z</time>
      </trkpt>
      <trkpt lat="47.75396" lon="6.13354">
        <ele>241.712</ele>
        <time>2019-09-25T11:41:20.001Z</time>
      </trkpt>
      <trkpt lat="47.75407" lon="6.13354">
        <ele>242.35</ele>
        <time>2019-09-25T11:41:23.001Z</time>
      </trkpt>
      <trkpt lat="47.75417" lon="6.13355">
        <ele>243.028</ele>
        <time>2019-09-25T11:41:26.001Z</time>
      </trkpt>
      <trkpt lat="47.75427" lon="6.13356">
        <ele>243.974</ele>
        <time>2019-09-25T11:41:29.001Z</time>
      </trkpt>
      <trkpt lat="47.75437" lon="6.13358">
        <ele>244.653</ele>
        <time>2019-09-25T11:41:32.001Z</time>
      </trkpt>
      <trkpt lat="47.75447" lon="6.13358">
        <ele>244.452</ele>
        <time>2019-09-25T11:41:35.001Z</time>
      </trkpt>
      <trkpt lat="47.75457" lon="6.13356">
        <ele>244.5</ele>
        <time>2019-09-25T11:41:38.001Z</time>
      </trkpt>
      <trkpt lat="47.75469" lon="6.1335">
        <ele>245.387</ele>
        <time>2019-09-25T11:41:41.001Z</time>
      </trkpt>
      <trkpt lat="47.75482" lon="6.13344">
        <ele>245.757</ele>
        <time>2019-09-25T11:41:44.001Z</time>
      </trkpt>
      <trkpt lat="47.75495" lon="6.13339">
        <ele>245.744</ele>
        <time>2019-09-25T11:41:47.001Z</time>
      </trkpt>
      <trkpt lat="47.75506" lon="6.13332">
        <ele>245.553</ele>
        <time>2019-09-25T11:41:50.001Z</time>
      </trkpt>
      <trkpt lat="47.7552" lon="6.13326">
        <ele>245.539</ele>
        <time>2019-09-25T11:41:53.001Z</time>
      </trkpt>
      <trkpt lat="47.75532" lon="6.1332">
        <ele>245.252</ele>
        <time>2019-09-25T11:41:56.001Z</time>
      </trkpt>
      <trkpt lat="47.75543" lon="6.13317">
        <ele>243.616</ele>
        <time>2019-09-25T11:41:59.001Z</time>
      </trkpt>
      <trkpt lat="47.75554" lon="6.13313">
        <ele>243.944</ele>
        <time>2019-09-25T13:42:02Z</time>
      </trkpt>
      <trkpt lat="47.75564" lon="6.13308">
        <ele>244.163</ele>
        <time>2019-09-25T11:42:05.001Z</time>
      </trkpt>
      <trkpt lat="47.75574" lon="6.13302">
        <ele>243.798</ele>
        <time>2019-09-25T11:42:08.001Z</time>
      </trkpt>
      <trkpt lat="47.75583" lon="6.13297">
        <ele>243.736</ele>
        <time>2019-09-25T11:42:11.001Z</time>
      </trkpt>
      <trkpt lat="47.75593" lon="6.13291">
        <ele>243.666</ele>
        <time>2019-09-25T11:42:14.001Z</time>
      </trkpt>
      <trkpt lat="47.75604" lon="6.13285">
        <ele>243.63</ele>
        <time>2019-09-25T11:42:17.001Z</time>
      </trkpt>
      <trkpt lat="47.75613" lon="6.13281">
        <ele>243.278</ele>
        <time>2019-09-25T11:42:20.001Z</time>
      </trkpt>
      <trkpt lat="47.75622" lon="6.13277">
        <ele>243.242</ele>
        <time>2019-09-25T11:42:23.001Z</time>
      </trkpt>
      <trkpt lat="47.75631" lon="6.13272">
        <ele>243.73</ele>
        <time>2019-09-25T11:42:26.001Z</time>
      </trkpt>
      <trkpt lat="47.75641" lon="6.13266">
        <ele>244.53</ele>
        <time>2019-09-25T11:42:29.001Z</time>
      </trkpt>
      <trkpt lat="47.75651" lon="6.13261">
        <ele>244.888</ele>
        <time>2019-09-25T11:42:32.001Z</time>
      </trkpt>
      <trkpt lat="47.75661" lon="6.13255">
        <ele>245.239</ele>
        <time>2019-09-25T11:42:35.001Z</time>
      </trkpt>
      <trkpt lat="47.75672" lon="6.13251">
        <ele>245.796</ele>
        <time>2019-09-25T11:42:38.001Z</time>
      </trkpt>
      <trkpt lat="47.75681" lon="6.13245">
        <ele>246.129</ele>
        <time>2019-09-25T11:42:41.001Z</time>
      </trkpt>
      <trkpt lat="47.75689" lon="6.13238">
        <ele>246.157</ele>
        <time>2019-09-25T11:42:44.001Z</time>
      </trkpt>
      <trkpt lat="47.757" lon="6.1323">
        <ele>245.932</ele>
        <time>2019-09-25T11:42:47.001Z</time>
      </trkpt>
      <trkpt lat="47.75712" lon="6.13221">
        <ele>245.861</ele>
        <time>2019-09-25T11:42:50.001Z</time>
      </trkpt>
      <trkpt lat="47.75723" lon="6.13212">
        <ele>246.17</ele>
        <time>2019-09-25T11:42:53.001Z</time>
      </trkpt>
      <trkpt lat="47.75735" lon="6.132">
        <ele>247.106</ele>
        <time>2019-09-25T11:42:56.001Z</time>
      </trkpt>
      <trkpt lat="47.75747" lon="6.13188">
        <ele>248.167</ele>
        <time>2019-09-25T11:42:59.001Z</time>
      </trkpt>
      <trkpt lat="47.7576" lon="6.1318">
        <ele>247.644</ele>
        <time>2019-09-25T13:43:02Z</time>
      </trkpt>
      <trkpt lat="47.75773" lon="6.13189">
        <ele>245.614</ele>
        <time>2019-09-25T11:43:05.001Z</time>
      </trkpt>
      <trkpt lat="47.75778" lon="6.13205">
        <ele>244.908</ele>
        <time>2019-09-25T11:43:08.001Z</time>
      </trkpt>
      <trkpt lat="47.75781" lon="6.13218">
        <ele>244.226</ele>
        <time>2019-09-25T11:43:11.001Z</time>
      </trkpt>
      <trkpt lat="47.75785" lon="6.13229">
        <ele>243.784</ele>
        <time>2019-09-25T11:43:14.001Z</time>
      </trkpt>
      <trkpt lat="47.75789" lon="6.13242">
        <ele>243.276</ele>
        <time>2019-09-25T11:43:17.001Z</time>
      </trkpt>
      <trkpt lat="47.75792" lon="6.13256">
        <ele>242.976</ele>
        <time>2019-09-25T11:43:20.001Z</time>
      </trkpt>
      <trkpt lat="47.75797" lon="6.13265">
        <ele>244.921</ele>
        <time>2019-09-25T11:43:23.001Z</time>
      </trkpt>
      <trkpt lat="47.75801" lon="6.13275">
        <ele>245.957</ele>
        <time>2019-09-25T11:43:26.001Z</time>
      </trkpt>
      <trkpt lat="47.75803" lon="6.13285">
        <ele>246.06</ele>
        <time>2019-09-25T11:43:29.001Z</time>
      </trkpt>
      <trkpt lat="47.75806" lon="6.13294">
        <ele>246.552</ele>
        <time>2019-09-25T11:43:32.001Z</time>
      </trkpt>
      <trkpt lat="47.7581" lon="6.13305">
        <ele>247.355</ele>
        <time>2019-09-25T11:43:35.001Z</time>
      </trkpt>
      <trkpt lat="47.75812" lon="6.13313">
        <ele>247.641</ele>
        <time>2019-09-25T11:43:38.001Z</time>
      </trkpt>
      <trkpt lat="47.75816" lon="6.13323">
        <ele>247.692</ele>
        <time>2019-09-25T11:43:41.001Z</time>
      </trkpt>
      <trkpt lat="47.75819" lon="6.13332">
        <ele>248.476</ele>
        <time>2019-09-25T11:43:44.001Z</time>
      </trkpt>
      <trkpt lat="47.75824" lon="6.13341">
        <ele>248.671</ele>
        <time>2019-09-25T11:43:47.001Z</time>
      </trkpt>
      <trkpt lat="47.75828" lon="6.1335">
        <ele>248.953</ele>
        <time>2019-09-25T11:43:50.001Z</time>
      </trkpt>
      <trkpt lat="47.75833" lon="6.1336">
        <ele>248.747</ele>
        <time>2019-09-25T11:43:53.001Z</time>
      </trkpt>
      <trkpt lat="47.75839" lon="6.13372">
        <ele>248.737</ele>
        <time>2019-09-25T11:43:56.001Z</time>
      </trkpt>
      <trkpt lat="47.75845" lon="6.13384">
        <ele>248.794</ele>
        <time>2019-09-25T11:43:59.001Z</time>
      </trkpt>
      <trkpt lat="47.75852" lon="6.13395">
        <ele>249.102</ele>
        <time>2019-09-25T13:44:02Z</time>
      </trkpt>
      <trkpt lat="47.75858" lon="6.13406">
        <ele>249.219</ele>
        <time>2019-09-25T11:44:05.001Z</time>
      </trkpt>
      <trkpt lat="47.75865" lon="6.13418">
        <ele>248.816</ele>
        <time>2019-09-25T11:44:08.001Z</time>
      </trkpt>
      <trkpt lat="47.75873" lon="6.13428">
        <ele>248.628</ele>
        <time>2019-09-25T11:44:11.001Z</time>
      </trkpt>
      <trkpt lat="47.7588" lon="6.13439">
        <ele>248.643</ele>
        <time>2019-09-25T11:44:14.001Z</time>
      </trkpt>
      <trkpt lat="47.75888" lon="6.1345">
        <ele>248.803</ele>
        <time>2019-09-25T11:44:17.001Z</time>
      </trkpt>
      <trkpt lat="47.75895" lon="6.13461">
        <ele>248.769</ele>
        <time>2019-09-25T11:44:20.001Z</time>
      </trkpt>
      <trkpt lat="47.75903" lon="6.13471">
        <ele>248.346</ele>
        <time>2019-09-25T11:44:23.001Z</time>
      </trkpt>
      <trkpt lat="47.75911" lon="6.13482">
        <ele>248.137</ele>
        <time>2019-09-25T11:44:26.001Z</time>
      </trkpt>
      <trkpt lat="47.7592" lon="6.13492">
        <ele>247.444</ele>
        <time>2019-09-25T11:44:29.001Z</time>
      </trkpt>
      <trkpt lat="47.7593" lon="6.13503">
        <ele>246.983</ele>
        <time>2019-09-25T11:44:32.001Z</time>
      </trkpt>
      <trkpt lat="47.7594" lon="6.13514">
        <ele>247.031</ele>
        <time>2019-09-25T11:44:35.001Z</time>
      </trkpt>
      <trkpt lat="47.75949" lon="6.13524">
        <ele>246.928</ele>
        <time>2019-09-25T11:44:38.001Z</time>
      </trkpt>
      <trkpt lat="47.75959" lon="6.13535">
        <ele>247.014</ele>
        <time>2019-09-25T11:44:41.001Z</time>
      </trkpt>
      <trkpt lat="47.75968" lon="6.13546">
        <ele>246.832</ele>
        <time>2019-09-25T11:44:44.001Z</time>
      </trkpt>
      <trkpt lat="47.75978" lon="6.13557">
        <ele>246.946</ele>
        <time>2019-09-25T11:44:47.001Z</time>
      </trkpt>
      <trkpt lat="47.75987" lon="6.13567">
        <ele>247.046</ele>
        <time>2019-09-25T11:44:50.001Z</time>
      </trkpt>
      <trkpt lat="47.75997" lon="6.13578">
        <ele>246.944</ele>
        <time>2019-09-25T11:44:53.001Z</time>
      </trkpt>
      <trkpt lat="47.76007" lon="6.13589">
        <ele>247.251</ele>
        <time>2019-09-25T11:44:56.001Z</time>
      </trkpt>
      <trkpt lat="47.76017" lon="6.13599">
        <ele>247.997</ele>
        <time>2019-09-25T11:44:59.001Z</time>
      </trkpt>
      <trkpt lat="47.76025" lon="6.13608">
        <ele>248.797</ele>
        <time>2019-09-25T13:45:02Z</time>
      </trkpt>
      <trkpt lat="47.76034" lon="6.13617">
        <ele>249.516</ele>
        <time>2019-09-25T11:45:05.001Z</time>
      </trkpt>
      <trkpt lat="47.76043" lon="6.13625">
        <ele>250.857</ele>
        <time>2019-09-25T11:45:08.001Z</time>
      </trkpt>
      <trkpt lat="47.76051" lon="6.13634">
        <ele>252.201</ele>
        <time>2019-09-25T11:45:11.001Z</time>
      </trkpt>
      <trkpt lat="47.76059" lon="6.13643">
        <ele>253.343</ele>
        <time>2019-09-25T11:45:14.001Z</time>
      </trkpt>
      <trkpt lat="47.76066" lon="6.13654">
        <ele>254.178</ele>
        <time>2019-09-25T11:45:17.001Z</time>
      </trkpt>
      <trkpt lat="47.76073" lon="6.13664">
        <ele>254.207</ele>
        <time>2019-09-25T11:45:20.001Z</time>
      </trkpt>
      <trkpt lat="47.76081" lon="6.13676">
        <ele>254.08</ele>
        <time>2019-09-25T11:45:23.001Z</time>
      </trkpt>
      <trkpt lat="47.76089" lon="6.13689">
        <ele>253.807</ele>
        <time>2019-09-25T11:45:26.001Z</time>
      </trkpt>
      <trkpt lat="47.76097" lon="6.13701">
        <ele>253.637</ele>
        <time>2019-09-25T11:45:29.001Z</time>
      </trkpt>
      <trkpt lat="47.76104" lon="6.13714">
        <ele>253.557</ele>
        <time>2019-09-25T11:45:32.001Z</time>
      </trkpt>
      <trkpt lat="47.76111" lon="6.13727">
        <ele>253.574</ele>
        <time>2019-09-25T11:45:35.001Z</time>
      </trkpt>
      <trkpt lat="47.76117" lon="6.1374">
        <ele>253.249</ele>
        <time>2019-09-25T11:45:38.001Z</time>
      </trkpt>
      <trkpt lat="47.76124" lon="6.13755">
        <ele>253.237</ele>
        <time>2019-09-25T11:45:41.001Z</time>
      </trkpt>
      <trkpt lat="47.7613" lon="6.13769">
        <ele>253.132</ele>
        <time>2019-09-25T11:45:44.001Z</time>
      </trkpt>
      <trkpt lat="47.76136" lon="6.13785">
        <ele>253.237</ele>
        <time>2019-09-25T11:45:47.001Z</time>
      </trkpt>
      <trkpt lat="47.76142" lon="6.138">
        <ele>253.214</ele>
        <time>2019-09-25T11:45:50.001Z</time>
      </trkpt>
      <trkpt lat="47.76147" lon="6.13817">
        <ele>253.313</ele>
        <time>2019-09-25T11:45:53.001Z</time>
      </trkpt>
      <trkpt lat="47.76154" lon="6.13834">
        <ele>253.296</ele>
        <time>2019-09-25T11:45:56.001Z</time>
      </trkpt>
      <trkpt lat="47.76159" lon="6.13852">
        <ele>253.078</ele>
        <time>2019-09-25T11:45:59.001Z</time>
      </trkpt>
      <trkpt lat="47.76166" lon="6.13871">
        <ele>252.77</ele>
        <time>2019-09-25T13:46:02Z</time>
      </trkpt>
      <trkpt lat="47.76174" lon="6.13895">
        <ele>252.109</ele>
        <time>2019-09-25T11:46:05.001Z</time>
      </trkpt>
      <trkpt lat="47.76182" lon="6.13921">
        <ele>251.262</ele>
        <time>2019-09-25T11:46:08.001Z</time>
      </trkpt>
      <trkpt lat="47.76187" lon="6.13952">
        <ele>250.785</ele>
        <time>2019-09-25T11:46:11.001Z</time>
      </trkpt>
      <trkpt lat="47.76189" lon="6.13984">
        <ele>250.026</ele>
        <time>2019-09-25T11:46:14.001Z</time>
      </trkpt>
      <trkpt lat="47.76188" lon="6.14017">
        <ele>249.109</ele>
        <time>2019-09-25T11:46:17.001Z</time>
      </trkpt>
      <trkpt lat="47.76186" lon="6.14049">
        <ele>248.409</ele>
        <time>2019-09-25T11:46:20.001Z</time>
      </trkpt>
      <trkpt lat="47.76183" lon="6.14081">
        <ele>248</ele>
        <time>2019-09-25T11:46:23.001Z</time>
      </trkpt>
      <trkpt lat="47.76182" lon="6.14111">
        <ele>247.591</ele>
        <time>2019-09-25T11:46:26.001Z</time>
      </trkpt>
      <trkpt lat="47.7618" lon="6.14139">
        <ele>247.058</ele>
        <time>2019-09-25T11:46:29.001Z</time>
      </trkpt>
      <trkpt lat="47.76178" lon="6.14164">
        <ele>246.691</ele>
        <time>2019-09-25T11:46:32.001Z</time>
      </trkpt>
      <trkpt lat="47.76177" lon="6.14189">
        <ele>246.561</ele>
        <time>2019-09-25T11:46:35.001Z</time>
      </trkpt>
      <trkpt lat="47.76176" lon="6.14213">
        <ele>246.323</ele>
        <time>2019-09-25T11:46:38.001Z</time>
      </trkpt>
      <trkpt lat="47.76175" lon="6.14237">
        <ele>245.974</ele>
        <time>2019-09-25T11:46:41.001Z</time>
      </trkpt>
      <trkpt lat="47.76173" lon="6.14259">
        <ele>245.64</ele>
        <time>2019-09-25T11:46:44.001Z</time>
      </trkpt>
      <trkpt lat="47.76172" lon="6.14281">
        <ele>245.936</ele>
        <time>2019-09-25T11:46:47.001Z</time>
      </trkpt>
      <trkpt lat="47.76171" lon="6.14303">
        <ele>246.131</ele>
        <time>2019-09-25T11:46:50.001Z</time>
      </trkpt>
      <trkpt lat="47.7617" lon="6.14323">
        <ele>246.148</ele>
        <time>2019-09-25T11:46:53.001Z</time>
      </trkpt>
      <trkpt lat="47.76169" lon="6.14342">
        <ele>246.341</ele>
        <time>2019-09-25T11:46:56.001Z</time>
      </trkpt>
      <trkpt lat="47.76169" lon="6.1436">
        <ele>246.844</ele>
        <time>2019-09-25T11:46:59.001Z</time>
      </trkpt>
      <trkpt lat="47.76168" lon="6.14376">
        <ele>247.118</ele>
        <time>2019-09-25T13:47:02Z</time>
      </trkpt>
      <trkpt lat="47.76168" lon="6.14392">
        <ele>247.456</ele>
        <time>2019-09-25T11:47:05.001Z</time>
      </trkpt>
      <trkpt lat="47.76167" lon="6.14407">
        <ele>247.931</ele>
        <time>2019-09-25T11:47:08.001Z</time>
      </trkpt>
      <trkpt lat="47.76166" lon="6.14421">
        <ele>248.343</ele>
        <time>2019-09-25T11:47:11.001Z</time>
      </trkpt>
      <trkpt lat="47.76166" lon="6.14435">
        <ele>248.984</ele>
        <time>2019-09-25T11:47:14.001Z</time>
      </trkpt>
      <trkpt lat="47.76165" lon="6.14449">
        <ele>249.413</ele>
        <time>2019-09-25T11:47:17.001Z</time>
      </trkpt>
      <trkpt lat="47.76165" lon="6.14463">
        <ele>249.798</ele>
        <time>2019-09-25T11:47:20.001Z</time>
      </trkpt>
      <trkpt lat="47.76164" lon="6.14477">
        <ele>250.035</ele>
        <time>2019-09-25T11:47:23.001Z</time>
      </trkpt>
      <trkpt lat="47.76164" lon="6.1449">
        <ele>250.326</ele>
        <time>2019-09-25T11:47:26.001Z</time>
      </trkpt>
      <trkpt lat="47.76163" lon="6.14505">
        <ele>250.481</ele>
        <time>2019-09-25T11:47:29.001Z</time>
      </trkpt>
      <trkpt lat="47.76162" lon="6.14519">
        <ele>250.852</ele>
        <time>2019-09-25T11:47:32.001Z</time>
      </trkpt>
      <trkpt lat="47.76161" lon="6.14532">
        <ele>251.27</ele>
        <time>2019-09-25T11:47:35.001Z</time>
      </trkpt>
      <trkpt lat="47.76161" lon="6.14544">
        <ele>251.735</ele>
        <time>2019-09-25T11:47:38.001Z</time>
      </trkpt>
      <trkpt lat="47.76161" lon="6.14555">
        <ele>252.27</ele>
        <time>2019-09-25T11:47:41.001Z</time>
      </trkpt>
      <trkpt lat="47.7616" lon="6.14567">
        <ele>252.727</ele>
        <time>2019-09-25T11:47:44.001Z</time>
      </trkpt>
      <trkpt lat="47.7616" lon="6.14578">
        <ele>252.83</ele>
        <time>2019-09-25T11:47:47.001Z</time>
      </trkpt>
      <trkpt lat="47.76159" lon="6.14591">
        <ele>253.494</ele>
        <time>2019-09-25T11:47:50.001Z</time>
      </trkpt>
      <trkpt lat="47.76159" lon="6.14603">
        <ele>254.07</ele>
        <time>2019-09-25T11:47:53.001Z</time>
      </trkpt>
      <trkpt lat="47.76158" lon="6.14616">
        <ele>254.341</ele>
        <time>2019-09-25T11:47:56.001Z</time>
      </trkpt>
      <trkpt lat="47.76156" lon="6.14631">
        <ele>254.57</ele>
        <time>2019-09-25T11:47:59.001Z</time>
      </trkpt>
      <trkpt lat="47.76154" lon="6.14646">
        <ele>254.77</ele>
        <time>2019-09-25T13:48:02Z</time>
      </trkpt>
      <trkpt lat="47.76151" lon="6.14661">
        <ele>254.802</ele>
        <time>2019-09-25T11:48:05.001Z</time>
      </trkpt>
      <trkpt lat="47.76148" lon="6.14677">
        <ele>254.993</ele>
        <time>2019-09-25T11:48:08.001Z</time>
      </trkpt>
      <trkpt lat="47.76144" lon="6.14692">
        <ele>255.021</ele>
        <time>2019-09-25T11:48:11.001Z</time>
      </trkpt>
      <trkpt lat="47.7614" lon="6.14707">
        <ele>255.002</ele>
        <time>2019-09-25T11:48:14.001Z</time>
      </trkpt>
      <trkpt lat="47.76136" lon="6.14723">
        <ele>254.876</ele>
        <time>2019-09-25T11:48:17.001Z</time>
      </trkpt>
      <trkpt lat="47.76134" lon="6.1474">
        <ele>254.588</ele>
        <time>2019-09-25T11:48:20.001Z</time>
      </trkpt>
      <trkpt lat="47.76132" lon="6.1476">
        <ele>254.382</ele>
        <time>2019-09-25T11:48:23.001Z</time>
      </trkpt>
      <trkpt lat="47.76131" lon="6.14783">
        <ele>254.144</ele>
        <time>2019-09-25T11:48:26.001Z</time>
      </trkpt>
      <trkpt lat="47.76131" lon="6.14808">
        <ele>254.319</ele>
        <time>2019-09-25T11:48:29.001Z</time>
      </trkpt>
      <trkpt lat="47.76131" lon="6.14834">
        <ele>254.135</ele>
        <time>2019-09-25T11:48:32.001Z</time>
      </trkpt>
      <trkpt lat="47.76133" lon="6.14862">
        <ele>253.904</ele>
        <time>2019-09-25T11:48:35.001Z</time>
      </trkpt>
      <trkpt lat="47.76135" lon="6.1489">
        <ele>253.635</ele>
        <time>2019-09-25T11:48:38.001Z</time>
      </trkpt>
      <trkpt lat="47.76138" lon="6.14919">
        <ele>253.305</ele>
        <time>2019-09-25T11:48:41.001Z</time>
      </trkpt>
      <trkpt lat="47.7614" lon="6.14947">
        <ele>252.896</ele>
        <time>2019-09-25T11:48:44.001Z</time>
      </trkpt>
      <trkpt lat="47.76143" lon="6.14976">
        <ele>252.742</ele>
        <time>2019-09-25T11:48:47.001Z</time>
      </trkpt>
      <trkpt lat="47.76146" lon="6.15005">
        <ele>252.457</ele>
        <time>2019-09-25T11:48:50.001Z</time>
      </trkpt>
      <trkpt lat="47.76148" lon="6.15034">
        <ele>252.073</ele>
        <time>2019-09-25T11:48:53.001Z</time>
      </trkpt>
      <trkpt lat="47.7615" lon="6.1506">
        <ele>251.396</ele>
        <time>2019-09-25T11:48:56.001Z</time>
      </trkpt>
      <trkpt lat="47.76152" lon="6.15082">
        <ele>250.399</ele>
        <time>2019-09-25T11:48:59.001Z</time>
      </trkpt>
      <trkpt lat="47.76154" lon="6.15104">
        <ele>249.689</ele>
        <time>2019-09-25T13:49:02Z</time>
      </trkpt>
      <trkpt lat="47.76156" lon="6.15123">
        <ele>249.908</ele>
        <time>2019-09-25T11:49:05.001Z</time>
      </trkpt>
      <trkpt lat="47.76156" lon="6.1514">
        <ele>250.476</ele>
        <time>2019-09-25T11:49:08.001Z</time>
      </trkpt>
      <trkpt lat="47.76158" lon="6.15158">
        <ele>250.687</ele>
        <time>2019-09-25T11:49:11.001Z</time>
      </trkpt>
      <trkpt lat="47.76159" lon="6.15175">
        <ele>251.432</ele>
        <time>2019-09-25T11:49:14.001Z</time>
      </trkpt>
      <trkpt lat="47.76161" lon="6.1519">
        <ele>251.486</ele>
        <time>2019-09-25T11:49:17.001Z</time>
      </trkpt>
      <trkpt lat="47.76164" lon="6.15204">
        <ele>252.377</ele>
        <time>2019-09-25T11:49:20.001Z</time>
      </trkpt>
      <trkpt lat="47.76168" lon="6.15217">
        <ele>252.832</ele>
        <time>2019-09-25T11:49:23.001Z</time>
      </trkpt>
      <trkpt lat="47.76172" lon="6.15231">
        <ele>253.239</ele>
        <time>2019-09-25T11:49:26.001Z</time>
      </trkpt>
      <trkpt lat="47.76176" lon="6.15244">
        <ele>253.53</ele>
        <time>2019-09-25T11:49:29.001Z</time>
      </trkpt>
      <trkpt lat="47.7618" lon="6.15257">
        <ele>253.871</ele>
        <time>2019-09-25T11:49:32.001Z</time>
      </trkpt>
      <trkpt lat="47.76182" lon="6.15271">
        <ele>254.554</ele>
        <time>2019-09-25T11:49:35.001Z</time>
      </trkpt>
      <trkpt lat="47.76184" lon="6.15286">
        <ele>255.418</ele>
        <time>2019-09-25T11:49:38.001Z</time>
      </trkpt>
      <trkpt lat="47.76185" lon="6.153">
        <ele>256.264</ele>
        <time>2019-09-25T11:49:41.001Z</time>
      </trkpt>
      <trkpt lat="47.76184" lon="6.15315">
        <ele>256.305</ele>
        <time>2019-09-25T11:49:44.001Z</time>
      </trkpt>
      <trkpt lat="47.76184" lon="6.15329">
        <ele>257.252</ele>
        <time>2019-09-25T11:49:47.001Z</time>
      </trkpt>
      <trkpt lat="47.76184" lon="6.15343">
        <ele>257.91</ele>
        <time>2019-09-25T11:49:50.001Z</time>
      </trkpt>
      <trkpt lat="47.76183" lon="6.15356">
        <ele>258.309</ele>
        <time>2019-09-25T11:49:53.001Z</time>
      </trkpt>
      <trkpt lat="47.76183" lon="6.15371">
        <ele>258.806</ele>
        <time>2019-09-25T11:49:56.001Z</time>
      </trkpt>
      <trkpt lat="47.76182" lon="6.15386">
        <ele>259.174</ele>
        <time>2019-09-25T11:49:59.001Z</time>
      </trkpt>
      <trkpt lat="47.76182" lon="6.15404">
        <ele>259.288</ele>
        <time>2019-09-25T13:50:02Z</time>
      </trkpt>
      <trkpt lat="47.76181" lon="6.15423">
        <ele>258.927</ele>
        <time>2019-09-25T11:50:05.001Z</time>
      </trkpt>
      <trkpt lat="47.7618" lon="6.15444">
        <ele>258.708</ele>
        <time>2019-09-25T11:50:08.001Z</time>
      </trkpt>
      <trkpt lat="47.76179" lon="6.15464">
        <ele>258.413</ele>
        <time>2019-09-25T11:50:11.001Z</time>
      </trkpt>
      <trkpt lat="47.76178" lon="6.15483">
        <ele>257.756</ele>
        <time>2019-09-25T11:50:14.001Z</time>
      </trkpt>
      <trkpt lat="47.76176" lon="6.155">
        <ele>257.313</ele>
        <time>2019-09-25T11:50:17.001Z</time>
      </trkpt>
      <trkpt lat="47.76175" lon="6.15519">
        <ele>256.987</ele>
        <time>2019-09-25T11:50:20.001Z</time>
      </trkpt>
      <trkpt lat="47.76175" lon="6.15536">
        <ele>256.932</ele>
        <time>2019-09-25T11:50:23.001Z</time>
      </trkpt>
      <trkpt lat="47.76176" lon="6.15555">
        <ele>256.882</ele>
        <time>2019-09-25T11:50:26.001Z</time>
      </trkpt>
      <trkpt lat="47.76177" lon="6.15575">
        <ele>256.92</ele>
        <time>2019-09-25T11:50:29.001Z</time>
      </trkpt>
      <trkpt lat="47.76177" lon="6.15595">
        <ele>257.065</ele>
        <time>2019-09-25T11:50:32.001Z</time>
      </trkpt>
      <trkpt lat="47.76177" lon="6.15615">
        <ele>256.628</ele>
        <time>2019-09-25T11:50:35.001Z</time>
      </trkpt>
      <trkpt lat="47.76178" lon="6.15636">
        <ele>255.528</ele>
        <time>2019-09-25T11:50:38.001Z</time>
      </trkpt>
      <trkpt lat="47.76179" lon="6.1566">
        <ele>255.176</ele>
        <time>2019-09-25T11:50:41.001Z</time>
      </trkpt>
      <trkpt lat="47.7618" lon="6.15684">
        <ele>255.316</ele>
        <time>2019-09-25T11:50:44.001Z</time>
      </trkpt>
      <trkpt lat="47.7618" lon="6.15709">
        <ele>254.83</ele>
        <time>2019-09-25T11:50:47.001Z</time>
      </trkpt>
      <trkpt lat="47.7618" lon="6.15733">
        <ele>254.568</ele>
        <time>2019-09-25T11:50:50.001Z</time>
      </trkpt>
      <trkpt lat="47.76182" lon="6.15754">
        <ele>254.67</ele>
        <time>2019-09-25T11:50:53.001Z</time>
      </trkpt>
      <trkpt lat="47.76186" lon="6.15775">
        <ele>254.401</ele>
        <time>2019-09-25T11:50:56.001Z</time>
      </trkpt>
      <trkpt lat="47.7619" lon="6.15794">
        <ele>254.49</ele>
        <time>2019-09-25T11:50:59.001Z</time>
      </trkpt>
      <trkpt lat="47.76195" lon="6.15814">
        <ele>254.665</ele>
        <time>2019-09-25T13:51:02Z</time>
      </trkpt>
      <trkpt lat="47.76198" lon="6.15833">
        <ele>254.652</ele>
        <time>2019-09-25T11:51:05.001Z</time>
      </trkpt>
      <trkpt lat="47.76202" lon="6.15851">
        <ele>254.613</ele>
        <time>2019-09-25T11:51:08.001Z</time>
      </trkpt>
      <trkpt lat="47.76205" lon="6.15869">
        <ele>255.182</ele>
        <time>2019-09-25T11:51:11.001Z</time>
      </trkpt>
      <trkpt lat="47.76206" lon="6.15887">
        <ele>255.325</ele>
        <time>2019-09-25T11:51:14.001Z</time>
      </trkpt>
      <trkpt lat="47.76208" lon="6.15904">
        <ele>255.467</ele>
        <time>2019-09-25T11:51:17.001Z</time>
      </trkpt>
      <trkpt lat="47.76209" lon="6.15921">
        <ele>255.807</ele>
        <time>2019-09-25T11:51:20.001Z</time>
      </trkpt>
      <trkpt lat="47.7621" lon="6.15938">
        <ele>255.972</ele>
        <time>2019-09-25T11:51:23.001Z</time>
      </trkpt>
      <trkpt lat="47.76212" lon="6.15955">
        <ele>256.319</ele>
        <time>2019-09-25T11:51:26.001Z</time>
      </trkpt>
      <trkpt lat="47.76215" lon="6.15972">
        <ele>256.419</ele>
        <time>2019-09-25T11:51:29.001Z</time>
      </trkpt>
      <trkpt lat="47.76219" lon="6.15988">
        <ele>256.635</ele>
        <time>2019-09-25T11:51:32.001Z</time>
      </trkpt>
      <trkpt lat="47.76226" lon="6.16003">
        <ele>257.188</ele>
        <time>2019-09-25T11:51:35.001Z</time>
      </trkpt>
      <trkpt lat="47.76231" lon="6.16019">
        <ele>257.527</ele>
        <time>2019-09-25T11:51:38.001Z</time>
      </trkpt>
      <trkpt lat="47.76238" lon="6.16034">
        <ele>257.894</ele>
        <time>2019-09-25T11:51:41.001Z</time>
      </trkpt>
      <trkpt lat="47.76245" lon="6.16047">
        <ele>258.274</ele>
        <time>2019-09-25T11:51:44.001Z</time>
      </trkpt>
      <trkpt lat="47.7625" lon="6.16061">
        <ele>258.461</ele>
        <time>2019-09-25T11:51:47.001Z</time>
      </trkpt>
      <trkpt lat="47.76255" lon="6.16074">
        <ele>258.371</ele>
        <time>2019-09-25T11:51:50.001Z</time>
      </trkpt>
      <trkpt lat="47.7626" lon="6.16086">
        <ele>258.799</ele>
        <time>2019-09-25T11:51:53.001Z</time>
      </trkpt>
      <trkpt lat="47.76265" lon="6.16098">
        <ele>259.101</ele>
        <time>2019-09-25T11:51:56.001Z</time>
      </trkpt>
      <trkpt lat="47.76269" lon="6.16109">
        <ele>259.703</ele>
        <time>2019-09-25T11:51:59.001Z</time>
      </trkpt>
      <trkpt lat="47.76274" lon="6.1612">
        <ele>260.191</ele>
        <time>2019-09-25T13:52:02Z</time>
      </trkpt>
      <trkpt lat="47.76277" lon="6.16133">
        <ele>261.24</ele>
        <time>2019-09-25T11:52:05.001Z</time>
      </trkpt>
      <trkpt lat="47.7628" lon="6.16144">
        <ele>262.636</ele>
        <time>2019-09-25T11:52:08.001Z</time>
      </trkpt>
      <trkpt lat="47.76282" lon="6.16158">
        <ele>264.116</ele>
        <time>2019-09-25T11:52:11.001Z</time>
      </trkpt>
      <trkpt lat="47.76285" lon="6.16177">
        <ele>263.889</ele>
        <time>2019-09-25T11:52:14.001Z</time>
      </trkpt>
      <trkpt lat="47.76286" lon="6.16198">
        <ele>264.613</ele>
        <time>2019-09-25T11:52:17.001Z</time>
      </trkpt>
      <trkpt lat="47.76287" lon="6.16221">
        <ele>265.785</ele>
        <time>2019-09-25T11:52:20.001Z</time>
      </trkpt>
      <trkpt lat="47.76287" lon="6.16247">
        <ele>265.697</ele>
        <time>2019-09-25T11:52:23.001Z</time>
      </trkpt>
      <trkpt lat="47.76287" lon="6.16275">
        <ele>265.321</ele>
        <time>2019-09-25T11:52:26.001Z</time>
      </trkpt>
      <trkpt lat="47.76288" lon="6.16304">
        <ele>264.275</ele>
        <time>2019-09-25T11:52:29.001Z</time>
      </trkpt>
      <trkpt lat="47.76291" lon="6.16336">
        <ele>262.951</ele>
        <time>2019-09-25T11:52:32.001Z</time>
      </trkpt>
      <trkpt lat="47.76295" lon="6.16368">
        <ele>261.871</ele>
        <time>2019-09-25T11:52:35.001Z</time>
      </trkpt>
      <trkpt lat="47.763" lon="6.164">
        <ele>260.997</ele>
        <time>2019-09-25T11:52:38.001Z</time>
      </trkpt>
      <trkpt lat="47.76306" lon="6.16429">
        <ele>260.113</ele>
        <time>2019-09-25T11:52:41.001Z</time>
      </trkpt>
      <trkpt lat="47.7631" lon="6.16452">
        <ele>260.076</ele>
        <time>2019-09-25T11:52:44.001Z</time>
      </trkpt>
      <trkpt lat="47.76311" lon="6.16469">
        <ele>259.998</ele>
        <time>2019-09-25T11:52:47.001Z</time>
      </trkpt>
      <trkpt lat="47.76315" lon="6.16485">
        <ele>259.822</ele>
        <time>2019-09-25T11:52:50.001Z</time>
      </trkpt>
      <trkpt lat="47.76319" lon="6.16502">
        <ele>259.963</ele>
        <time>2019-09-25T11:52:53.001Z</time>
      </trkpt>
      <trkpt lat="47.76321" lon="6.16519">
        <ele>260.283</ele>
        <time>2019-09-25T11:52:56.001Z</time>
      </trkpt>
      <trkpt lat="47.76323" lon="6.16533">
        <ele>260.706</ele>
        <time>2019-09-25T11:52:59.001Z</time>
      </trkpt>
      <trkpt lat="47.76326" lon="6.16546">
        <ele>260.5</ele>
        <time>2019-09-25T13:53:02Z</time>
      </trkpt>
      <trkpt lat="47.76329" lon="6.16557">
        <ele>260.136</ele>
        <time>2019-09-25T11:53:05.001Z</time>
      </trkpt>
      <trkpt lat="47.76333" lon="6.16566">
        <ele>260.652</ele>
        <time>2019-09-25T11:53:08.001Z</time>
      </trkpt>
      <trkpt lat="47.76336" lon="6.16576">
        <ele>260.824</ele>
        <time>2019-09-25T11:53:11.001Z</time>
      </trkpt>
      <trkpt lat="47.76341" lon="6.16586">
        <ele>261.23</ele>
        <time>2019-09-25T11:53:14.001Z</time>
      </trkpt>
      <trkpt lat="47.76345" lon="6.16597">
        <ele>261.246</ele>
        <time>2019-09-25T11:53:17.001Z</time>
      </trkpt>
      <trkpt lat="47.76349" lon="6.1661">
        <ele>260.112</ele>
        <time>2019-09-25T11:53:20.001Z</time>
      </trkpt>
      <trkpt lat="47.76354" lon="6.16622">
        <ele>260.589</ele>
        <time>2019-09-25T11:53:23.001Z</time>
      </trkpt>
      <trkpt lat="47.76358" lon="6.16633">
        <ele>260.994</ele>
        <time>2019-09-25T11:53:26.001Z</time>
      </trkpt>
      <trkpt lat="47.76362" lon="6.16643">
        <ele>261.694</ele>
        <time>2019-09-25T11:53:29.001Z</time>
      </trkpt>
      <trkpt lat="47.76367" lon="6.16654">
        <ele>262.229</ele>
        <time>2019-09-25T11:53:32.001Z</time>
      </trkpt>
      <trkpt lat="47.76371" lon="6.16664">
        <ele>262.607</ele>
        <time>2019-09-25T11:53:35.001Z</time>
      </trkpt>
      <trkpt lat="47.76375" lon="6.16675">
        <ele>262.905</ele>
        <time>2019-09-25T11:53:38.001Z</time>
      </trkpt>
      <trkpt lat="47.76379" lon="6.16686">
        <ele>263.233</ele>
        <time>2019-09-25T11:53:41.001Z</time>
      </trkpt>
      <trkpt lat="47.76384" lon="6.16697">
        <ele>263.318</ele>
        <time>2019-09-25T11:53:44.001Z</time>
      </trkpt>
      <trkpt lat="47.76389" lon="6.16706">
        <ele>263.668</ele>
        <time>2019-09-25T11:53:47.001Z</time>
      </trkpt>
      <trkpt lat="47.76392" lon="6.16716">
        <ele>264.131</ele>
        <time>2019-09-25T11:53:50.001Z</time>
      </trkpt>
      <trkpt lat="47.76396" lon="6.16726">
        <ele>264.438</ele>
        <time>2019-09-25T11:53:53.001Z</time>
      </trkpt>
      <trkpt lat="47.76401" lon="6.16736">
        <ele>264.27</ele>
        <time>2019-09-25T11:53:56.001Z</time>
      </trkpt>
      <trkpt lat="47.76405" lon="6.16747">
        <ele>264.797</ele>
        <time>2019-09-25T11:53:59.001Z</time>
      </trkpt>
      <trkpt lat="47.76409" lon="6.16759">
        <ele>265.162</ele>
        <time>2019-09-25T13:54:02Z</time>
      </trkpt>
      <trkpt lat="47.76414" lon="6.1677">
        <ele>265.525</ele>
        <time>2019-09-25T11:54:05.001Z</time>
      </trkpt>
      <trkpt lat="47.76418" lon="6.16781">
        <ele>266.069</ele>
        <time>2019-09-25T11:54:08.001Z</time>
      </trkpt>
      <trkpt lat="47.76422" lon="6.1679">
        <ele>266.225</ele>
        <time>2019-09-25T11:54:11.001Z</time>
      </trkpt>
      <trkpt lat="47.76426" lon="6.168">
        <ele>266.207</ele>
        <time>2019-09-25T11:54:14.001Z</time>
      </trkpt>
      <trkpt lat="47.76432" lon="6.16809">
        <ele>266.72</ele>
        <time>2019-09-25T11:54:17.001Z</time>
      </trkpt>
      <trkpt lat="47.76439" lon="6.16819">
        <ele>267.074</ele>
        <time>2019-09-25T11:54:20.001Z</time>
      </trkpt>
      <trkpt lat="47.76446" lon="6.16831">
        <ele>267.075</ele>
        <time>2019-09-25T11:54:23.001Z</time>
      </trkpt>
      <trkpt lat="47.76453" lon="6.16842">
        <ele>267.156</ele>
        <time>2019-09-25T11:54:26.001Z</time>
      </trkpt>
      <trkpt lat="47.76461" lon="6.16854">
        <ele>267.265</ele>
        <time>2019-09-25T11:54:29.001Z</time>
      </trkpt>
      <trkpt lat="47.7647" lon="6.16866">
        <ele>267.482</ele>
        <time>2019-09-25T11:54:32.001Z</time>
      </trkpt>
      <trkpt lat="47.76479" lon="6.16879">
        <ele>267.599</ele>
        <time>2019-09-25T11:54:35.001Z</time>
      </trkpt>
      <trkpt lat="47.76488" lon="6.16892">
        <ele>267.811</ele>
        <time>2019-09-25T11:54:38.001Z</time>
      </trkpt>
      <trkpt lat="47.76496" lon="6.16905">
        <ele>267.735</ele>
        <time>2019-09-25T11:54:41.001Z</time>
      </trkpt>
      <trkpt lat="47.76504" lon="6.16917">
        <ele>268.224</ele>
        <time>2019-09-25T11:54:44.001Z</time>
      </trkpt>
      <trkpt lat="47.76513" lon="6.1693">
        <ele>268.47</ele>
        <time>2019-09-25T11:54:47.001Z</time>
      </trkpt>
      <trkpt lat="47.76521" lon="6.16942">
        <ele>269.064</ele>
        <time>2019-09-25T11:54:50.001Z</time>
      </trkpt>
      <trkpt lat="47.7653" lon="6.16954">
        <ele>269.802</ele>
        <time>2019-09-25T11:54:53.001Z</time>
      </trkpt>
      <trkpt lat="47.76539" lon="6.16969">
        <ele>270.381</ele>
        <time>2019-09-25T11:54:56.001Z</time>
      </trkpt>
      <trkpt lat="47.76547" lon="6.16982">
        <ele>270.901</ele>
        <time>2019-09-25T11:54:59.001Z</time>
      </trkpt>
      <trkpt lat="47.76555" lon="6.16993">
        <ele>271.118</ele>
        <time>2019-09-25T13:55:02Z</time>
      </trkpt>
      <trkpt lat="47.76562" lon="6.17004">
        <ele>271.495</ele>
        <time>2019-09-25T11:55:05.001Z</time>
      </trkpt>
      <trkpt lat="47.76568" lon="6.17015">
        <ele>271.948</ele>
        <time>2019-09-25T11:55:08.001Z</time>
      </trkpt>
      <trkpt lat="47.76574" lon="6.17024">
        <ele>272.29</ele>
        <time>2019-09-25T11:55:11.001Z</time>
      </trkpt>
      <trkpt lat="47.7658" lon="6.17033">
        <ele>272.814</ele>
        <time>2019-09-25T11:55:14.001Z</time>
      </trkpt>
      <trkpt lat="47.76587" lon="6.17041">
        <ele>273.281</ele>
        <time>2019-09-25T11:55:17.001Z</time>
      </trkpt>
      <trkpt lat="47.76595" lon="6.17047">
        <ele>273.821</ele>
        <time>2019-09-25T11:55:20.001Z</time>
      </trkpt>
      <trkpt lat="47.76603" lon="6.17057">
        <ele>274.196</ele>
        <time>2019-09-25T11:55:23.001Z</time>
      </trkpt>
      <trkpt lat="47.7661" lon="6.17066">
        <ele>274.388</ele>
        <time>2019-09-25T11:55:26.001Z</time>
      </trkpt>
      <trkpt lat="47.76617" lon="6.17076">
        <ele>274.322</ele>
        <time>2019-09-25T11:55:29.001Z</time>
      </trkpt>
      <trkpt lat="47.76624" lon="6.17087">
        <ele>274.167</ele>
        <time>2019-09-25T11:55:32.001Z</time>
      </trkpt>
      <trkpt lat="47.76631" lon="6.17096">
        <ele>274.017</ele>
        <time>2019-09-25T11:55:35.001Z</time>
      </trkpt>
      <trkpt lat="47.76638" lon="6.17107">
        <ele>273.838</ele>
        <time>2019-09-25T11:55:38.001Z</time>
      </trkpt>
      <trkpt lat="47.76644" lon="6.17116">
        <ele>274.485</ele>
        <time>2019-09-25T11:55:41.001Z</time>
      </trkpt>
      <trkpt lat="47.76649" lon="6.17125">
        <ele>274.903</ele>
        <time>2019-09-25T11:55:44.001Z</time>
      </trkpt>
      <trkpt lat="47.76655" lon="6.17135">
        <ele>275.935</ele>
        <time>2019-09-25T11:55:47.001Z</time>
      </trkpt>
      <trkpt lat="47.76662" lon="6.17146">
        <ele>276.188</ele>
        <time>2019-09-25T11:55:50.001Z</time>
      </trkpt>
      <trkpt lat="47.76671" lon="6.17158">
        <ele>276.04</ele>
        <time>2019-09-25T11:55:53.001Z</time>
      </trkpt>
      <trkpt lat="47.76681" lon="6.17172">
        <ele>275.781</ele>
        <time>2019-09-25T11:55:56.001Z</time>
      </trkpt>
      <trkpt lat="47.76689" lon="6.17184">
        <ele>274.833</ele>
        <time>2019-09-25T11:55:59.001Z</time>
      </trkpt>
      <trkpt lat="47.76697" lon="6.17196">
        <ele>274.296</ele>
        <time>2019-09-25T13:56:02Z</time>
      </trkpt>
      <trkpt lat="47.76703" lon="6.17207">
        <ele>273.924</ele>
        <time>2019-09-25T11:56:05.001Z</time>
      </trkpt>
      <trkpt lat="47.7671" lon="6.17221">
        <ele>272.714</ele>
        <time>2019-09-25T11:56:08.001Z</time>
      </trkpt>
      <trkpt lat="47.76716" lon="6.17233">
        <ele>272.229</ele>
        <time>2019-09-25T11:56:11.001Z</time>
      </trkpt>
      <trkpt lat="47.76721" lon="6.17246">
        <ele>271.71</ele>
        <time>2019-09-25T11:56:14.001Z</time>
      </trkpt>
      <trkpt lat="47.76727" lon="6.17259">
        <ele>271.522</ele>
        <time>2019-09-25T11:56:17.001Z</time>
      </trkpt>
      <trkpt lat="47.76732" lon="6.17272">
        <ele>271.718</ele>
        <time>2019-09-25T11:56:20.001Z</time>
      </trkpt>
      <trkpt lat="47.76739" lon="6.17284">
        <ele>272.3</ele>
        <time>2019-09-25T11:56:23.001Z</time>
      </trkpt>
      <trkpt lat="47.76744" lon="6.17297">
        <ele>273.184</ele>
        <time>2019-09-25T11:56:26.001Z</time>
      </trkpt>
      <trkpt lat="47.76749" lon="6.1731">
        <ele>273.161</ele>
        <time>2019-09-25T11:56:29.001Z</time>
      </trkpt>
      <trkpt lat="47.76755" lon="6.17324">
        <ele>272.632</ele>
        <time>2019-09-25T11:56:32.001Z</time>
      </trkpt>
      <trkpt lat="47.76762" lon="6.1734">
        <ele>272.489</ele>
        <time>2019-09-25T11:56:35.001Z</time>
      </trkpt>
      <trkpt lat="47.7677" lon="6.17359">
        <ele>272.151</ele>
        <time>2019-09-25T11:56:38.001Z</time>
      </trkpt>
      <trkpt lat="47.76779" lon="6.17379">
        <ele>272.328</ele>
        <time>2019-09-25T11:56:41.001Z</time>
      </trkpt>
      <trkpt lat="47.76787" lon="6.17399">
        <ele>272.253</ele>
        <time>2019-09-25T11:56:44.001Z</time>
      </trkpt>
      <trkpt lat="47.76795" lon="6.1742">
        <ele>272.066</ele>
        <time>2019-09-25T11:56:47.001Z</time>
      </trkpt>
      <trkpt lat="47.76805" lon="6.17441">
        <ele>271.699</ele>
        <time>2019-09-25T11:56:50.001Z</time>
      </trkpt>
      <trkpt lat="47.76813" lon="6.17462">
        <ele>271.303</ele>
        <time>2019-09-25T11:56:53.001Z</time>
      </trkpt>
      <trkpt lat="47.76822" lon="6.17484">
        <ele>271.44</ele>
        <time>2019-09-25T11:56:56.001Z</time>
      </trkpt>
      <trkpt lat="47.76831" lon="6.17506">
        <ele>271.546</ele>
        <time>2019-09-25T11:56:59.001Z</time>
      </trkpt>
      <trkpt lat="47.76841" lon="6.1753">
        <ele>271.42</ele>
        <time>2019-09-25T13:57:02Z</time>
      </trkpt>
      <trkpt lat="47.76851" lon="6.17553">
        <ele>271.365</ele>
        <time>2019-09-25T11:57:05.001Z</time>
      </trkpt>
      <trkpt lat="47.76862" lon="6.17577">
        <ele>271.078</ele>
        <time>2019-09-25T11:57:08.001Z</time>
      </trkpt>
      <trkpt lat="47.76873" lon="6.17602">
        <ele>270.734</ele>
        <time>2019-09-25T11:57:11.001Z</time>
      </trkpt>
      <trkpt lat="47.76883" lon="6.17627">
        <ele>270.335</ele>
        <time>2019-09-25T11:57:14.001Z</time>
      </trkpt>
      <trkpt lat="47.76895" lon="6.17653">
        <ele>270.001</ele>
        <time>2019-09-25T11:57:17.001Z</time>
      </trkpt>
      <trkpt lat="47.76905" lon="6.1768">
        <ele>269.668</ele>
        <time>2019-09-25T11:57:20.001Z</time>
      </trkpt>
      <trkpt lat="47.76916" lon="6.17707">
        <ele>269.222</ele>
        <time>2019-09-25T11:57:23.001Z</time>
      </trkpt>
      <trkpt lat="47.76924" lon="6.17736">
        <ele>269.013</ele>
        <time>2019-09-25T11:57:26.001Z</time>
      </trkpt>
      <trkpt lat="47.7693" lon="6.17763">
        <ele>268.934</ele>
        <time>2019-09-25T11:57:29.001Z</time>
      </trkpt>
      <trkpt lat="47.76933" lon="6.17788">
        <ele>268.862</ele>
        <time>2019-09-25T11:57:32.001Z</time>
      </trkpt>
      <trkpt lat="47.76933" lon="6.1781">
        <ele>268.508</ele>
        <time>2019-09-25T11:57:35.001Z</time>
      </trkpt>
      <trkpt lat="47.76931" lon="6.1783">
        <ele>268.348</ele>
        <time>2019-09-25T11:57:38.002Z</time>
      </trkpt>
      <trkpt lat="47.76928" lon="6.17849">
        <ele>268.274</ele>
        <time>2019-09-25T11:57:41.001Z</time>
      </trkpt>
      <trkpt lat="47.76925" lon="6.17869">
        <ele>268.533</ele>
        <time>2019-09-25T11:57:44.001Z</time>
      </trkpt>
      <trkpt lat="47.76921" lon="6.17887">
        <ele>268.361</ele>
        <time>2019-09-25T11:57:47.001Z</time>
      </trkpt>
      <trkpt lat="47.76919" lon="6.17905">
        <ele>268.759</ele>
        <time>2019-09-25T11:57:50.001Z</time>
      </trkpt>
      <trkpt lat="47.76915" lon="6.17924">
        <ele>268.434</ele>
        <time>2019-09-25T11:57:53.001Z</time>
      </trkpt>
      <trkpt lat="47.76912" lon="6.17944">
        <ele>268.527</ele>
        <time>2019-09-25T11:57:56.001Z</time>
      </trkpt>
      <trkpt lat="47.76908" lon="6.17964">
        <ele>268.925</ele>
        <time>2019-09-25T11:57:59.001Z</time>
      </trkpt>
      <trkpt lat="47.76906" lon="6.17984">
        <ele>269.626</ele>
        <time>2019-09-25T13:58:02Z</time>
      </trkpt>
      <trkpt lat="47.76905" lon="6.18004">
        <ele>269.985</ele>
        <time>2019-09-25T11:58:05.001Z</time>
      </trkpt>
      <trkpt lat="47.76905" lon="6.18022">
        <ele>270.337</ele>
        <time>2019-09-25T11:58:08.001Z</time>
      </trkpt>
      <trkpt lat="47.76904" lon="6.1804">
        <ele>270.385</ele>
        <time>2019-09-25T11:58:11.001Z</time>
      </trkpt>
      <trkpt lat="47.76903" lon="6.18057">
        <ele>270.288</ele>
        <time>2019-09-25T11:58:14.001Z</time>
      </trkpt>
      <trkpt lat="47.76901" lon="6.18074">
        <ele>270.284</ele>
        <time>2019-09-25T11:58:17.001Z</time>
      </trkpt>
      <trkpt lat="47.769" lon="6.18089">
        <ele>270.306</ele>
        <time>2019-09-25T11:58:20.001Z</time>
      </trkpt>
      <trkpt lat="47.76899" lon="6.18105">
        <ele>270.318</ele>
        <time>2019-09-25T11:58:23.001Z</time>
      </trkpt>
      <trkpt lat="47.76899" lon="6.18121">
        <ele>270.164</ele>
        <time>2019-09-25T11:58:26.001Z</time>
      </trkpt>
      <trkpt lat="47.76898" lon="6.18137">
        <ele>270.39</ele>
        <time>2019-09-25T11:58:29.001Z</time>
      </trkpt>
      <trkpt lat="47.76897" lon="6.18154">
        <ele>271.043</ele>
        <time>2019-09-25T11:58:32.001Z</time>
      </trkpt>
      <trkpt lat="47.76895" lon="6.18169">
        <ele>271.752</ele>
        <time>2019-09-25T11:58:35.001Z</time>
      </trkpt>
      <trkpt lat="47.76894" lon="6.18185">
        <ele>272.708</ele>
        <time>2019-09-25T11:58:38.001Z</time>
      </trkpt>
      <trkpt lat="47.76893" lon="6.18203">
        <ele>273.02</ele>
        <time>2019-09-25T11:58:41.001Z</time>
      </trkpt>
      <trkpt lat="47.76891" lon="6.18219">
        <ele>272.887</ele>
        <time>2019-09-25T11:58:44.001Z</time>
      </trkpt>
      <trkpt lat="47.7689" lon="6.18234">
        <ele>273.143</ele>
        <time>2019-09-25T11:58:47.001Z</time>
      </trkpt>
      <trkpt lat="47.76889" lon="6.1825">
        <ele>273.227</ele>
        <time>2019-09-25T11:58:50.001Z</time>
      </trkpt>
      <trkpt lat="47.76889" lon="6.18265">
        <ele>273.443</ele>
        <time>2019-09-25T11:58:53.001Z</time>
      </trkpt>
      <trkpt lat="47.76887" lon="6.1828">
        <ele>273.458</ele>
        <time>2019-09-25T11:58:56.001Z</time>
      </trkpt>
      <trkpt lat="47.76887" lon="6.18295">
        <ele>273.666</ele>
        <time>2019-09-25T11:58:59.001Z</time>
      </trkpt>
      <trkpt lat="47.76888" lon="6.18312">
        <ele>274.514</ele>
        <time>2019-09-25T13:59:02Z</time>
      </trkpt>
      <trkpt lat="47.76887" lon="6.18328">
        <ele>274.69</ele>
        <time>2019-09-25T11:59:05.001Z</time>
      </trkpt>
      <trkpt lat="47.76886" lon="6.18343">
        <ele>274.999</ele>
        <time>2019-09-25T11:59:08.001Z</time>
      </trkpt>
      <trkpt lat="47.76887" lon="6.18357">
        <ele>275.411</ele>
        <time>2019-09-25T11:59:11.001Z</time>
      </trkpt>
      <trkpt lat="47.76886" lon="6.18371">
        <ele>275.693</ele>
        <time>2019-09-25T11:59:14.001Z</time>
      </trkpt>
      <trkpt lat="47.76884" lon="6.18385">
        <ele>276.125</ele>
        <time>2019-09-25T11:59:17.001Z</time>
      </trkpt>
      <trkpt lat="47.76883" lon="6.18397">
        <ele>275.911</ele>
        <time>2019-09-25T11:59:20.001Z</time>
      </trkpt>
      <trkpt lat="47.76882" lon="6.18411">
        <ele>275.805</ele>
        <time>2019-09-25T11:59:23.001Z</time>
      </trkpt>
      <trkpt lat="47.7688" lon="6.18424">
        <ele>275.956</ele>
        <time>2019-09-25T11:59:26.001Z</time>
      </trkpt>
      <trkpt lat="47.76879" lon="6.18438">
        <ele>276.391</ele>
        <time>2019-09-25T11:59:29.001Z</time>
      </trkpt>
      <trkpt lat="47.76877" lon="6.1845">
        <ele>276.628</ele>
        <time>2019-09-25T11:59:32.001Z</time>
      </trkpt>
      <trkpt lat="47.76877" lon="6.18461">
        <ele>276.586</ele>
        <time>2019-09-25T11:59:35.001Z</time>
      </trkpt>
      <trkpt lat="47.76876" lon="6.18472">
        <ele>277.091</ele>
        <time>2019-09-25T11:59:38.001Z</time>
      </trkpt>
      <trkpt lat="47.76876" lon="6.18484">
        <ele>277.794</ele>
        <time>2019-09-25T11:59:41.001Z</time>
      </trkpt>
      <trkpt lat="47.76875" lon="6.18496">
        <ele>278.244</ele>
        <time>2019-09-25T11:59:44.001Z</time>
      </trkpt>
      <trkpt lat="47.76875" lon="6.18508">
        <ele>279.011</ele>
        <time>2019-09-25T11:59:47.001Z</time>
      </trkpt>
      <trkpt lat="47.76876" lon="6.1852">
        <ele>280.512</ele>
        <time>2019-09-25T11:59:50.001Z</time>
      </trkpt>
      <trkpt lat="47.76875" lon="6.18533">
        <ele>281.502</ele>
        <time>2019-09-25T11:59:53.001Z</time>
      </trkpt>
      <trkpt lat="47.76873" lon="6.18546">
        <ele>282.027</ele>
        <time>2019-09-25T11:59:56.001Z</time>
      </trkpt>
      <trkpt lat="47.76872" lon="6.1856">
        <ele>282.654</ele>
        <time>2019-09-25T11:59:59.001Z</time>
      </trkpt>
      <trkpt lat="47.76871" lon="6.18576">
        <ele>283.268</ele>
        <time>2019-09-25T14:00:02Z</time>
      </trkpt>
      <trkpt lat="47.76869" lon="6.18594">
        <ele>283.531</ele>
        <time>2019-09-25T12:00:05.001Z</time>
      </trkpt>
      <trkpt lat="47.76867" lon="6.18611">
        <ele>283.53</ele>
        <time>2019-09-25T12:00:08.001Z</time>
      </trkpt>
      <trkpt lat="47.76866" lon="6.18628">
        <ele>283.651</ele>
        <time>2019-09-25T12:00:11.001Z</time>
      </trkpt>
      <trkpt lat="47.76867" lon="6.18644">
        <ele>284.35</ele>
        <time>2019-09-25T12:00:14.001Z</time>
      </trkpt>
      <trkpt lat="47.76868" lon="6.18661">
        <ele>283.948</ele>
        <time>2019-09-25T12:00:17.001Z</time>
      </trkpt>
      <trkpt lat="47.76868" lon="6.18678">
        <ele>283.966</ele>
        <time>2019-09-25T12:00:20.001Z</time>
      </trkpt>
      <trkpt lat="47.76869" lon="6.18693">
        <ele>283.954</ele>
        <time>2019-09-25T12:00:23.001Z</time>
      </trkpt>
      <trkpt lat="47.76869" lon="6.1871">
        <ele>283.216</ele>
        <time>2019-09-25T12:00:26.001Z</time>
      </trkpt>
      <trkpt lat="47.7687" lon="6.18728">
        <ele>282.211</ele>
        <time>2019-09-25T12:00:29.001Z</time>
      </trkpt>
      <trkpt lat="47.76873" lon="6.18746">
        <ele>281.635</ele>
        <time>2019-09-25T12:00:32.001Z</time>
      </trkpt>
      <trkpt lat="47.76875" lon="6.18763">
        <ele>281.25</ele>
        <time>2019-09-25T12:00:35.001Z</time>
      </trkpt>
      <trkpt lat="47.76876" lon="6.18779">
        <ele>281.511</ele>
        <time>2019-09-25T12:00:38.001Z</time>
      </trkpt>
      <trkpt lat="47.76878" lon="6.18795">
        <ele>281.885</ele>
        <time>2019-09-25T12:00:41.001Z</time>
      </trkpt>
      <trkpt lat="47.7688" lon="6.18811">
        <ele>282.383</ele>
        <time>2019-09-25T12:00:44.001Z</time>
      </trkpt>
      <trkpt lat="47.76882" lon="6.18826">
        <ele>283.054</ele>
        <time>2019-09-25T12:00:47.001Z</time>
      </trkpt>
      <trkpt lat="47.76883" lon="6.18842">
        <ele>284.074</ele>
        <time>2019-09-25T12:00:50.001Z</time>
      </trkpt>
      <trkpt lat="47.76884" lon="6.18857">
        <ele>284.356</ele>
        <time>2019-09-25T12:00:53.001Z</time>
      </trkpt>
      <trkpt lat="47.76885" lon="6.18874">
        <ele>284.167</ele>
        <time>2019-09-25T12:00:56.001Z</time>
      </trkpt>
      <trkpt lat="47.76887" lon="6.18891">
        <ele>283.635</ele>
        <time>2019-09-25T12:00:59.001Z</time>
      </trkpt>
      <trkpt lat="47.76888" lon="6.18909">
        <ele>283.189</ele>
        <time>2019-09-25T14:01:02Z</time>
      </trkpt>
      <trkpt lat="47.7689" lon="6.18929">
        <ele>281.943</ele>
        <time>2019-09-25T12:01:05.001Z</time>
      </trkpt>
      <trkpt lat="47.76892" lon="6.18954">
        <ele>280.83</ele>
        <time>2019-09-25T12:01:08.001Z</time>
      </trkpt>
      <trkpt lat="47.76898" lon="6.18981">
        <ele>279.683</ele>
        <time>2019-09-25T12:01:11.001Z</time>
      </trkpt>
      <trkpt lat="47.76908" lon="6.19007">
        <ele>280.069</ele>
        <time>2019-09-25T12:01:14.001Z</time>
      </trkpt>
      <trkpt lat="47.76923" lon="6.19029">
        <ele>279.778</ele>
        <time>2019-09-25T12:01:17.001Z</time>
      </trkpt>
      <trkpt lat="47.76937" lon="6.19047">
        <ele>279.476</ele>
        <time>2019-09-25T12:01:20.001Z</time>
      </trkpt>
      <trkpt lat="47.76949" lon="6.19065">
        <ele>279.082</ele>
        <time>2019-09-25T12:01:23.001Z</time>
      </trkpt>
      <trkpt lat="47.76962" lon="6.19082">
        <ele>278.718</ele>
        <time>2019-09-25T12:01:26.001Z</time>
      </trkpt>
      <trkpt lat="47.76974" lon="6.191">
        <ele>278.376</ele>
        <time>2019-09-25T12:01:29.001Z</time>
      </trkpt>
      <trkpt lat="47.76989" lon="6.19121">
        <ele>276.65</ele>
        <time>2019-09-25T12:01:32.001Z</time>
      </trkpt>
      <trkpt lat="47.77005" lon="6.19147">
        <ele>275.605</ele>
        <time>2019-09-25T12:01:35.001Z</time>
      </trkpt>
      <trkpt lat="47.77017" lon="6.1918">
        <ele>274.214</ele>
        <time>2019-09-25T12:01:38.001Z</time>
      </trkpt>
      <trkpt lat="47.77027" lon="6.1922">
        <ele>272.472</ele>
        <time>2019-09-25T12:01:41.001Z</time>
      </trkpt>
      <trkpt lat="47.77037" lon="6.19261">
        <ele>271.31</ele>
        <time>2019-09-25T12:01:44.001Z</time>
      </trkpt>
      <trkpt lat="47.77047" lon="6.19304">
        <ele>269.831</ele>
        <time>2019-09-25T12:01:47.001Z</time>
      </trkpt>
      <trkpt lat="47.77058" lon="6.19351">
        <ele>268.163</ele>
        <time>2019-09-25T12:01:50.001Z</time>
      </trkpt>
      <trkpt lat="47.77065" lon="6.19399">
        <ele>267.188</ele>
        <time>2019-09-25T12:01:53.001Z</time>
      </trkpt>
      <trkpt lat="47.77065" lon="6.19446">
        <ele>266.477</ele>
        <time>2019-09-25T12:01:56.001Z</time>
      </trkpt>
      <trkpt lat="47.77065" lon="6.19488">
        <ele>265.508</ele>
        <time>2019-09-25T12:01:59.001Z</time>
      </trkpt>
      <trkpt lat="47.77069" lon="6.19528">
        <ele>263.87</ele>
        <time>2019-09-25T14:02:02Z</time>
      </trkpt>
      <trkpt lat="47.77082" lon="6.19568">
        <ele>263.046</ele>
        <time>2019-09-25T12:02:05.001Z</time>
      </trkpt>
      <trkpt lat="47.77097" lon="6.19604">
        <ele>262.534</ele>
        <time>2019-09-25T12:02:08.001Z</time>
      </trkpt>
      <trkpt lat="47.77112" lon="6.19636">
        <ele>261.939</ele>
        <time>2019-09-25T12:02:11.001Z</time>
      </trkpt>
      <trkpt lat="47.77127" lon="6.19665">
        <ele>261.422</ele>
        <time>2019-09-25T12:02:14.001Z</time>
      </trkpt>
      <trkpt lat="47.77142" lon="6.19693">
        <ele>261.291</ele>
        <time>2019-09-25T12:02:17.001Z</time>
      </trkpt>
      <trkpt lat="47.7715" lon="6.19714">
        <ele>261.383</ele>
        <time>2019-09-25T12:02:20.001Z</time>
      </trkpt>
      <trkpt lat="47.77154" lon="6.19736">
        <ele>261.546</ele>
        <time>2019-09-25T12:02:23.001Z</time>
      </trkpt>
      <trkpt lat="47.77157" lon="6.19758">
        <ele>261.385</ele>
        <time>2019-09-25T12:02:26.001Z</time>
      </trkpt>
      <trkpt lat="47.77157" lon="6.1978">
        <ele>261.653</ele>
        <time>2019-09-25T12:02:29.001Z</time>
      </trkpt>
      <trkpt lat="47.77154" lon="6.19803">
        <ele>261.904</ele>
        <time>2019-09-25T12:02:32.001Z</time>
      </trkpt>
      <trkpt lat="47.77151" lon="6.1983">
        <ele>261.681</ele>
        <time>2019-09-25T12:02:35.001Z</time>
      </trkpt>
      <trkpt lat="47.77148" lon="6.19858">
        <ele>261.549</ele>
        <time>2019-09-25T12:02:38.001Z</time>
      </trkpt>
      <trkpt lat="47.77145" lon="6.19886">
        <ele>261.463</ele>
        <time>2019-09-25T12:02:41.001Z</time>
      </trkpt>
      <trkpt lat="47.77143" lon="6.19914">
        <ele>261.029</ele>
        <time>2019-09-25T12:02:44.001Z</time>
      </trkpt>
      <trkpt lat="47.77144" lon="6.19941">
        <ele>260.595</ele>
        <time>2019-09-25T12:02:47.001Z</time>
      </trkpt>
      <trkpt lat="47.77146" lon="6.19962">
        <ele>260.841</ele>
        <time>2019-09-25T12:02:50.001Z</time>
      </trkpt>
      <trkpt lat="47.77147" lon="6.19982">
        <ele>260.745</ele>
        <time>2019-09-25T12:02:53.001Z</time>
      </trkpt>
      <trkpt lat="47.77148" lon="6.20002">
        <ele>260.806</ele>
        <time>2019-09-25T12:02:56.001Z</time>
      </trkpt>
      <trkpt lat="47.77149" lon="6.20022">
        <ele>261.439</ele>
        <time>2019-09-25T12:02:59.001Z</time>
      </trkpt>
      <trkpt lat="47.7715" lon="6.20043">
        <ele>261.733</ele>
        <time>2019-09-25T14:03:02Z</time>
      </trkpt>
      <trkpt lat="47.7715" lon="6.20064">
        <ele>262.088</ele>
        <time>2019-09-25T12:03:05.001Z</time>
      </trkpt>
      <trkpt lat="47.7715" lon="6.20083">
        <ele>262.149</ele>
        <time>2019-09-25T12:03:08.001Z</time>
      </trkpt>
      <trkpt lat="47.7715" lon="6.201">
        <ele>262.501</ele>
        <time>2019-09-25T12:03:11.001Z</time>
      </trkpt>
      <trkpt lat="47.77149" lon="6.20115">
        <ele>264.299</ele>
        <time>2019-09-25T12:03:14.001Z</time>
      </trkpt>
      <trkpt lat="47.77147" lon="6.2013">
        <ele>265.25</ele>
        <time>2019-09-25T12:03:17.001Z</time>
      </trkpt>
      <trkpt lat="47.77145" lon="6.20143">
        <ele>265.467</ele>
        <time>2019-09-25T12:03:20.001Z</time>
      </trkpt>
      <trkpt lat="47.77143" lon="6.20155">
        <ele>266.391</ele>
        <time>2019-09-25T12:03:23.001Z</time>
      </trkpt>
      <trkpt lat="47.77141" lon="6.20164">
        <ele>266.732</ele>
        <time>2019-09-25T12:03:26.001Z</time>
      </trkpt>
      <trkpt lat="47.7714" lon="6.20174">
        <ele>267.425</ele>
        <time>2019-09-25T12:03:29.001Z</time>
      </trkpt>
      <trkpt lat="47.77139" lon="6.20183">
        <ele>268.14</ele>
        <time>2019-09-25T12:03:32.001Z</time>
      </trkpt>
      <trkpt lat="47.77138" lon="6.20194">
        <ele>268.34</ele>
        <time>2019-09-25T12:03:35.001Z</time>
      </trkpt>
      <trkpt lat="47.77136" lon="6.20204">
        <ele>268.229</ele>
        <time>2019-09-25T12:03:38.001Z</time>
      </trkpt>
      <trkpt lat="47.77135" lon="6.20215">
        <ele>267.811</ele>
        <time>2019-09-25T12:03:41.001Z</time>
      </trkpt>
      <trkpt lat="47.77135" lon="6.20225">
        <ele>268.119</ele>
        <time>2019-09-25T12:03:44.001Z</time>
      </trkpt>
      <trkpt lat="47.77134" lon="6.20234">
        <ele>268.407</ele>
        <time>2019-09-25T12:03:47.001Z</time>
      </trkpt>
      <trkpt lat="47.77133" lon="6.20244">
        <ele>268.582</ele>
        <time>2019-09-25T12:03:50.001Z</time>
      </trkpt>
      <trkpt lat="47.77132" lon="6.20254">
        <ele>268.652</ele>
        <time>2019-09-25T12:03:53.001Z</time>
      </trkpt>
      <trkpt lat="47.77131" lon="6.20264">
        <ele>269.109</ele>
        <time>2019-09-25T12:03:56.001Z</time>
      </trkpt>
      <trkpt lat="47.77131" lon="6.20274">
        <ele>269.822</ele>
        <time>2019-09-25T12:03:59.001Z</time>
      </trkpt>
      <trkpt lat="47.7713" lon="6.20284">
        <ele>269.555</ele>
        <time>2019-09-25T14:04:02Z</time>
      </trkpt>
      <trkpt lat="47.7713" lon="6.20293">
        <ele>269.843</ele>
        <time>2019-09-25T12:04:05.001Z</time>
      </trkpt>
      <trkpt lat="47.77129" lon="6.20302">
        <ele>270.166</ele>
        <time>2019-09-25T12:04:08.001Z</time>
      </trkpt>
      <trkpt lat="47.77128" lon="6.20312">
        <ele>270.418</ele>
        <time>2019-09-25T12:04:11.001Z</time>
      </trkpt>
      <trkpt lat="47.77127" lon="6.20322">
        <ele>270.94</ele>
        <time>2019-09-25T12:04:14.001Z</time>
      </trkpt>
      <trkpt lat="47.77127" lon="6.20331">
        <ele>271.053</ele>
        <time>2019-09-25T12:04:17.001Z</time>
      </trkpt>
      <trkpt lat="47.77126" lon="6.2034">
        <ele>271.091</ele>
        <time>2019-09-25T12:04:20.001Z</time>
      </trkpt>
      <trkpt lat="47.77125" lon="6.20348">
        <ele>271.803</ele>
        <time>2019-09-25T12:04:23.001Z</time>
      </trkpt>
      <trkpt lat="47.77125" lon="6.20358">
        <ele>272.934</ele>
        <time>2019-09-25T12:04:26.001Z</time>
      </trkpt>
      <trkpt lat="47.77124" lon="6.20367">
        <ele>274.602</ele>
        <time>2019-09-25T12:04:29.001Z</time>
      </trkpt>
      <trkpt lat="47.77124" lon="6.20377">
        <ele>275.624</ele>
        <time>2019-09-25T12:04:32.001Z</time>
      </trkpt>
      <trkpt lat="47.77124" lon="6.20385">
        <ele>276.995</ele>
        <time>2019-09-25T12:04:35.001Z</time>
      </trkpt>
      <trkpt lat="47.77123" lon="6.20393">
        <ele>278.218</ele>
        <time>2019-09-25T12:04:38.001Z</time>
      </trkpt>
      <trkpt lat="47.77122" lon="6.20403">
        <ele>279.15</ele>
        <time>2019-09-25T12:04:41.001Z</time>
      </trkpt>
      <trkpt lat="47.7712" lon="6.20415">
        <ele>279.25</ele>
        <time>2019-09-25T12:04:44.001Z</time>
      </trkpt>
      <trkpt lat="47.77117" lon="6.20428">
        <ele>279.51</ele>
        <time>2019-09-25T12:04:47.001Z</time>
      </trkpt>
      <trkpt lat="47.77113" lon="6.20443">
        <ele>278.835</ele>
        <time>2019-09-25T12:04:50.001Z</time>
      </trkpt>
      <trkpt lat="47.77109" lon="6.20459">
        <ele>278.406</ele>
        <time>2019-09-25T12:04:53.001Z</time>
      </trkpt>
      <trkpt lat="47.77106" lon="6.20477">
        <ele>277.77</ele>
        <time>2019-09-25T12:04:56.001Z</time>
      </trkpt>
      <trkpt lat="47.77102" lon="6.20496">
        <ele>276.194</ele>
        <time>2019-09-25T12:04:59.001Z</time>
      </trkpt>
      <trkpt lat="47.77099" lon="6.20508">
        <ele>274.465</ele>
        <time>2019-09-25T14:05:02Z</time>
      </trkpt>
      <trkpt lat="47.77096" lon="6.20518">
        <ele>272.88</ele>
        <time>2019-09-25T12:05:05.001Z</time>
      </trkpt>
      <trkpt lat="47.77099" lon="6.2053">
        <ele>272.391</ele>
        <time>2019-09-25T12:05:08.001Z</time>
      </trkpt>
      <trkpt lat="47.77103" lon="6.20547">
        <ele>271.525</ele>
        <time>2019-09-25T12:05:11.001Z</time>
      </trkpt>
      <trkpt lat="47.77108" lon="6.20566">
        <ele>270.945</ele>
        <time>2019-09-25T12:05:14.001Z</time>
      </trkpt>
      <trkpt lat="47.77111" lon="6.20586">
        <ele>270.516</ele>
        <time>2019-09-25T12:05:17.001Z</time>
      </trkpt>
      <trkpt lat="47.77112" lon="6.2061">
        <ele>269.716</ele>
        <time>2019-09-25T12:05:20.001Z</time>
      </trkpt>
      <trkpt lat="47.77109" lon="6.20638">
        <ele>268.485</ele>
        <time>2019-09-25T12:05:23.001Z</time>
      </trkpt>
      <trkpt lat="47.77104" lon="6.20666">
        <ele>267.608</ele>
        <time>2019-09-25T12:05:26.001Z</time>
      </trkpt>
      <trkpt lat="47.77097" lon="6.20702">
        <ele>266.775</ele>
        <time>2019-09-25T12:05:29.001Z</time>
      </trkpt>
      <trkpt lat="47.77094" lon="6.20741">
        <ele>266.076</ele>
        <time>2019-09-25T12:05:32.001Z</time>
      </trkpt>
      <trkpt lat="47.77091" lon="6.2078">
        <ele>264.828</ele>
        <time>2019-09-25T12:05:35.001Z</time>
      </trkpt>
      <trkpt lat="47.77089" lon="6.20817">
        <ele>264.096</ele>
        <time>2019-09-25T12:05:38.001Z</time>
      </trkpt>
      <trkpt lat="47.77087" lon="6.20848">
        <ele>263.696</ele>
        <time>2019-09-25T12:05:41.001Z</time>
      </trkpt>
      <trkpt lat="47.77085" lon="6.20874">
        <ele>263.796</ele>
        <time>2019-09-25T12:05:44.001Z</time>
      </trkpt>
      <trkpt lat="47.77083" lon="6.20898">
        <ele>263.712</ele>
        <time>2019-09-25T12:05:47.001Z</time>
      </trkpt>
      <trkpt lat="47.77081" lon="6.2092">
        <ele>263.979</ele>
        <time>2019-09-25T12:05:50.001Z</time>
      </trkpt>
      <trkpt lat="47.77079" lon="6.2094">
        <ele>264.378</ele>
        <time>2019-09-25T12:05:53.001Z</time>
      </trkpt>
      <trkpt lat="47.77076" lon="6.20959">
        <ele>264.757</ele>
        <time>2019-09-25T12:05:56.001Z</time>
      </trkpt>
      <trkpt lat="47.77073" lon="6.20982">
        <ele>264.414</ele>
        <time>2019-09-25T12:05:59.001Z</time>
      </trkpt>
      <trkpt lat="47.77069" lon="6.21004">
        <ele>264.369</ele>
        <time>2019-09-25T14:06:02Z</time>
      </trkpt>
      <trkpt lat="47.77063" lon="6.2103">
        <ele>263.578</ele>
        <time>2019-09-25T12:06:05.001Z</time>
      </trkpt>
      <trkpt lat="47.77058" lon="6.2106">
        <ele>262.326</ele>
        <time>2019-09-25T12:06:08.001Z</time>
      </trkpt>
      <trkpt lat="47.77052" lon="6.21093">
        <ele>260.605</ele>
        <time>2019-09-25T12:06:11.001Z</time>
      </trkpt>
      <trkpt lat="47.77045" lon="6.2113">
        <ele>259.329</ele>
        <time>2019-09-25T12:06:14.001Z</time>
      </trkpt>
      <trkpt lat="47.77038" lon="6.21168">
        <ele>257.639</ele>
        <time>2019-09-25T12:06:17.001Z</time>
      </trkpt>
      <trkpt lat="47.77031" lon="6.21208">
        <ele>256.663</ele>
        <time>2019-09-25T12:06:20.001Z</time>
      </trkpt>
      <trkpt lat="47.77024" lon="6.21246">
        <ele>256.156</ele>
        <time>2019-09-25T12:06:23.001Z</time>
      </trkpt>
      <trkpt lat="47.77018" lon="6.21281">
        <ele>256.2</ele>
        <time>2019-09-25T12:06:26.001Z</time>
      </trkpt>
      <trkpt lat="47.77013" lon="6.21312">
        <ele>256.681</ele>
        <time>2019-09-25T12:06:29.001Z</time>
      </trkpt>
      <trkpt lat="47.77008" lon="6.21339">
        <ele>256.687</ele>
        <time>2019-09-25T12:06:32.001Z</time>
      </trkpt>
      <trkpt lat="47.77004" lon="6.21366">
        <ele>256.694</ele>
        <time>2019-09-25T12:06:35.001Z</time>
      </trkpt>
      <trkpt lat="47.76999" lon="6.21392">
        <ele>256.552</ele>
        <time>2019-09-25T12:06:38.001Z</time>
      </trkpt>
      <trkpt lat="47.76995" lon="6.21418">
        <ele>256.495</ele>
        <time>2019-09-25T12:06:41.001Z</time>
      </trkpt>
      <trkpt lat="47.76991" lon="6.21444">
        <ele>256.213</ele>
        <time>2019-09-25T12:06:44.001Z</time>
      </trkpt>
      <trkpt lat="47.76987" lon="6.21471">
        <ele>255.759</ele>
        <time>2019-09-25T12:06:47.001Z</time>
      </trkpt>
      <trkpt lat="47.76982" lon="6.21499">
        <ele>255.358</ele>
        <time>2019-09-25T12:06:50.001Z</time>
      </trkpt>
      <trkpt lat="47.76976" lon="6.21527">
        <ele>255.144</ele>
        <time>2019-09-25T12:06:53.001Z</time>
      </trkpt>
      <trkpt lat="47.76971" lon="6.21555">
        <ele>254.897</ele>
        <time>2019-09-25T12:06:56.001Z</time>
      </trkpt>
      <trkpt lat="47.76965" lon="6.21584">
        <ele>254.149</ele>
        <time>2019-09-25T12:06:59.001Z</time>
      </trkpt>
      <trkpt lat="47.7696" lon="6.21614">
        <ele>253.706</ele>
        <time>2019-09-25T14:07:02Z</time>
      </trkpt>
      <trkpt lat="47.76955" lon="6.21643">
        <ele>253.37</ele>
        <time>2019-09-25T12:07:05.001Z</time>
      </trkpt>
      <trkpt lat="47.7695" lon="6.21671">
        <ele>253.415</ele>
        <time>2019-09-25T12:07:08.001Z</time>
      </trkpt>
      <trkpt lat="47.76947" lon="6.21696">
        <ele>253.558</ele>
        <time>2019-09-25T12:07:11.001Z</time>
      </trkpt>
      <trkpt lat="47.76943" lon="6.21718">
        <ele>254.059</ele>
        <time>2019-09-25T12:07:14.001Z</time>
      </trkpt>
      <trkpt lat="47.76939" lon="6.21736">
        <ele>254.424</ele>
        <time>2019-09-25T12:07:17.001Z</time>
      </trkpt>
      <trkpt lat="47.76937" lon="6.21753">
        <ele>255.261</ele>
        <time>2019-09-25T12:07:20.001Z</time>
      </trkpt>
      <trkpt lat="47.76934" lon="6.21768">
        <ele>255.575</ele>
        <time>2019-09-25T12:07:23.001Z</time>
      </trkpt>
      <trkpt lat="47.76931" lon="6.21783">
        <ele>256.083</ele>
        <time>2019-09-25T12:07:26.001Z</time>
      </trkpt>
      <trkpt lat="47.76929" lon="6.21797">
        <ele>256.788</ele>
        <time>2019-09-25T12:07:29.001Z</time>
      </trkpt>
      <trkpt lat="47.76927" lon="6.21811">
        <ele>257.877</ele>
        <time>2019-09-25T12:07:32.001Z</time>
      </trkpt>
      <trkpt lat="47.76924" lon="6.21823">
        <ele>258.687</ele>
        <time>2019-09-25T12:07:35.001Z</time>
      </trkpt>
      <trkpt lat="47.76922" lon="6.21834">
        <ele>259.271</ele>
        <time>2019-09-25T12:07:38.001Z</time>
      </trkpt>
      <trkpt lat="47.76922" lon="6.21845">
        <ele>260.029</ele>
        <time>2019-09-25T12:07:41.001Z</time>
      </trkpt>
      <trkpt lat="47.7692" lon="6.21855">
        <ele>260.534</ele>
        <time>2019-09-25T12:07:44.001Z</time>
      </trkpt>
      <trkpt lat="47.76918" lon="6.21865">
        <ele>261.015</ele>
        <time>2019-09-25T12:07:47.001Z</time>
      </trkpt>
      <trkpt lat="47.76916" lon="6.21876">
        <ele>261.652</ele>
        <time>2019-09-25T12:07:50.001Z</time>
      </trkpt>
      <trkpt lat="47.76914" lon="6.21887">
        <ele>261.569</ele>
        <time>2019-09-25T12:07:53.001Z</time>
      </trkpt>
      <trkpt lat="47.76912" lon="6.21899">
        <ele>261.441</ele>
        <time>2019-09-25T12:07:56.001Z</time>
      </trkpt>
      <trkpt lat="47.7691" lon="6.21908">
        <ele>261.032</ele>
        <time>2019-09-25T12:07:59.001Z</time>
      </trkpt>
      <trkpt lat="47.76908" lon="6.21918">
        <ele>261.204</ele>
        <time>2019-09-25T14:08:02Z</time>
      </trkpt>
      <trkpt lat="47.76907" lon="6.21929">
        <ele>261.494</ele>
        <time>2019-09-25T12:08:05.001Z</time>
      </trkpt>
      <trkpt lat="47.76905" lon="6.21942">
        <ele>261.756</ele>
        <time>2019-09-25T12:08:08.001Z</time>
      </trkpt>
      <trkpt lat="47.76903" lon="6.21953">
        <ele>261.987</ele>
        <time>2019-09-25T12:08:11.001Z</time>
      </trkpt>
      <trkpt lat="47.769" lon="6.21966">
        <ele>262.228</ele>
        <time>2019-09-25T12:08:14.001Z</time>
      </trkpt>
      <trkpt lat="47.76898" lon="6.21982">
        <ele>262.18</ele>
        <time>2019-09-25T12:08:17.001Z</time>
      </trkpt>
      <trkpt lat="47.76895" lon="6.22">
        <ele>262.034</ele>
        <time>2019-09-25T12:08:20.001Z</time>
      </trkpt>
      <trkpt lat="47.76891" lon="6.22024">
        <ele>261.825</ele>
        <time>2019-09-25T12:08:23.001Z</time>
      </trkpt>
      <trkpt lat="47.76883" lon="6.22049">
        <ele>260.952</ele>
        <time>2019-09-25T12:08:26.001Z</time>
      </trkpt>
      <trkpt lat="47.76874" lon="6.22078">
        <ele>259.841</ele>
        <time>2019-09-25T12:08:29.001Z</time>
      </trkpt>
      <trkpt lat="47.76863" lon="6.22107">
        <ele>258.443</ele>
        <time>2019-09-25T12:08:32.001Z</time>
      </trkpt>
      <trkpt lat="47.76852" lon="6.2214">
        <ele>257.447</ele>
        <time>2019-09-25T12:08:35.001Z</time>
      </trkpt>
      <trkpt lat="47.76839" lon="6.22173">
        <ele>255.347</ele>
        <time>2019-09-25T12:08:38.001Z</time>
      </trkpt>
      <trkpt lat="47.76825" lon="6.22209">
        <ele>253.867</ele>
        <time>2019-09-25T12:08:41.001Z</time>
      </trkpt>
      <trkpt lat="47.76811" lon="6.22245">
        <ele>252.638</ele>
        <time>2019-09-25T12:08:44.001Z</time>
      </trkpt>
      <trkpt lat="47.76798" lon="6.22283">
        <ele>251.404</ele>
        <time>2019-09-25T12:08:47.001Z</time>
      </trkpt>
      <trkpt lat="47.76788" lon="6.22322">
        <ele>249.714</ele>
        <time>2019-09-25T12:08:50.001Z</time>
      </trkpt>
      <trkpt lat="47.76786" lon="6.22367">
        <ele>248.615</ele>
        <time>2019-09-25T12:08:53.001Z</time>
      </trkpt>
      <trkpt lat="47.7679" lon="6.22409">
        <ele>247.948</ele>
        <time>2019-09-25T12:08:56.001Z</time>
      </trkpt>
      <trkpt lat="47.76794" lon="6.22446">
        <ele>247.805</ele>
        <time>2019-09-25T12:08:59.001Z</time>
      </trkpt>
      <trkpt lat="47.76802" lon="6.22475">
        <ele>248.017</ele>
        <time>2019-09-25T14:09:02Z</time>
      </trkpt>
      <trkpt lat="47.76813" lon="6.22499">
        <ele>247.797</ele>
        <time>2019-09-25T12:09:05.001Z</time>
      </trkpt>
      <trkpt lat="47.76824" lon="6.2252">
        <ele>248.166</ele>
        <time>2019-09-25T12:09:08.001Z</time>
      </trkpt>
      <trkpt lat="47.76832" lon="6.22539">
        <ele>247.947</ele>
        <time>2019-09-25T12:09:11.001Z</time>
      </trkpt>
      <trkpt lat="47.76839" lon="6.22559">
        <ele>247.753</ele>
        <time>2019-09-25T12:09:14.001Z</time>
      </trkpt>
      <trkpt lat="47.76846" lon="6.22577">
        <ele>247.764</ele>
        <time>2019-09-25T12:09:17.001Z</time>
      </trkpt>
      <trkpt lat="47.76852" lon="6.22595">
        <ele>248.158</ele>
        <time>2019-09-25T12:09:20.001Z</time>
      </trkpt>
      <trkpt lat="47.76859" lon="6.22613">
        <ele>248.63</ele>
        <time>2019-09-25T12:09:23.001Z</time>
      </trkpt>
      <trkpt lat="47.76865" lon="6.22633">
        <ele>249.259</ele>
        <time>2019-09-25T12:09:26.001Z</time>
      </trkpt>
      <trkpt lat="47.7687" lon="6.22652">
        <ele>249.833</ele>
        <time>2019-09-25T12:09:29.001Z</time>
      </trkpt>
      <trkpt lat="47.76876" lon="6.22671">
        <ele>249.655</ele>
        <time>2019-09-25T12:09:32.001Z</time>
      </trkpt>
      <trkpt lat="47.76882" lon="6.2269">
        <ele>249.619</ele>
        <time>2019-09-25T12:09:35.001Z</time>
      </trkpt>
      <trkpt lat="47.76888" lon="6.22709">
        <ele>249.875</ele>
        <time>2019-09-25T12:09:38.001Z</time>
      </trkpt>
      <trkpt lat="47.76894" lon="6.22727">
        <ele>250.022</ele>
        <time>2019-09-25T12:09:41.001Z</time>
      </trkpt>
      <trkpt lat="47.769" lon="6.22745">
        <ele>250.507</ele>
        <time>2019-09-25T12:09:44.001Z</time>
      </trkpt>
      <trkpt lat="47.76905" lon="6.22763">
        <ele>251.416</ele>
        <time>2019-09-25T12:09:47.001Z</time>
      </trkpt>
      <trkpt lat="47.7691" lon="6.22781">
        <ele>251.85</ele>
        <time>2019-09-25T12:09:50.001Z</time>
      </trkpt>
      <trkpt lat="47.76916" lon="6.22799">
        <ele>252.105</ele>
        <time>2019-09-25T12:09:53.001Z</time>
      </trkpt>
      <trkpt lat="47.76923" lon="6.22818">
        <ele>252.255</ele>
        <time>2019-09-25T12:09:56.001Z</time>
      </trkpt>
      <trkpt lat="47.76929" lon="6.22836">
        <ele>252.784</ele>
        <time>2019-09-25T12:09:59.001Z</time>
      </trkpt>
      <trkpt lat="47.76935" lon="6.22854">
        <ele>253.096</ele>
        <time>2019-09-25T14:10:02Z</time>
      </trkpt>
      <trkpt lat="47.76939" lon="6.22869">
        <ele>253.423</ele>
        <time>2019-09-25T12:10:05.001Z</time>
      </trkpt>
      <trkpt lat="47.76944" lon="6.22886">
        <ele>252.977</ele>
        <time>2019-09-25T12:10:08.001Z</time>
      </trkpt>
      <trkpt lat="47.76948" lon="6.22901">
        <ele>253.723</ele>
        <time>2019-09-25T12:10:11.001Z</time>
      </trkpt>
      <trkpt lat="47.76954" lon="6.22916">
        <ele>254.762</ele>
        <time>2019-09-25T12:10:14.001Z</time>
      </trkpt>
      <trkpt lat="47.76958" lon="6.22927">
        <ele>255.317</ele>
        <time>2019-09-25T12:10:17.001Z</time>
      </trkpt>
      <trkpt lat="47.76962" lon="6.22941">
        <ele>255.974</ele>
        <time>2019-09-25T12:10:20.001Z</time>
      </trkpt>
      <trkpt lat="47.76966" lon="6.22952">
        <ele>256.696</ele>
        <time>2019-09-25T12:10:23.001Z</time>
      </trkpt>
      <trkpt lat="47.7697" lon="6.22964">
        <ele>257.15</ele>
        <time>2019-09-25T12:10:26.001Z</time>
      </trkpt>
      <trkpt lat="47.76973" lon="6.22975">
        <ele>257.621</ele>
        <time>2019-09-25T12:10:29.001Z</time>
      </trkpt>
      <trkpt lat="47.76977" lon="6.22988">
        <ele>257.889</ele>
        <time>2019-09-25T12:10:32.001Z</time>
      </trkpt>
      <trkpt lat="47.76982" lon="6.23">
        <ele>258.36</ele>
        <time>2019-09-25T12:10:35.001Z</time>
      </trkpt>
      <trkpt lat="47.76986" lon="6.2301">
        <ele>259.283</ele>
        <time>2019-09-25T12:10:38.001Z</time>
      </trkpt>
      <trkpt lat="47.76988" lon="6.23023">
        <ele>259.745</ele>
        <time>2019-09-25T12:10:41.001Z</time>
      </trkpt>
      <trkpt lat="47.76991" lon="6.23035">
        <ele>259.696</ele>
        <time>2019-09-25T12:10:44.001Z</time>
      </trkpt>
      <trkpt lat="47.76995" lon="6.23047">
        <ele>259.896</ele>
        <time>2019-09-25T12:10:47.001Z</time>
      </trkpt>
      <trkpt lat="47.76999" lon="6.2306">
        <ele>260.398</ele>
        <time>2019-09-25T12:10:50.001Z</time>
      </trkpt>
      <trkpt lat="47.77003" lon="6.23071">
        <ele>261.682</ele>
        <time>2019-09-25T12:10:53.001Z</time>
      </trkpt>
      <trkpt lat="47.77008" lon="6.23085">
        <ele>261.648</ele>
        <time>2019-09-25T12:10:56.001Z</time>
      </trkpt>
      <trkpt lat="47.77012" lon="6.23097">
        <ele>261.266</ele>
        <time>2019-09-25T12:10:59.001Z</time>
      </trkpt>
      <trkpt lat="47.77015" lon="6.23108">
        <ele>261.69</ele>
        <time>2019-09-25T14:11:02Z</time>
      </trkpt>
      <trkpt lat="47.7702" lon="6.2312">
        <ele>261.631</ele>
        <time>2019-09-25T12:11:05.001Z</time>
      </trkpt>
      <trkpt lat="47.77024" lon="6.2313">
        <ele>262.144</ele>
        <time>2019-09-25T12:11:08.001Z</time>
      </trkpt>
      <trkpt lat="47.77032" lon="6.2314">
        <ele>261.902</ele>
        <time>2019-09-25T12:11:11.001Z</time>
      </trkpt>
      <trkpt lat="47.77042" lon="6.23152">
        <ele>261.483</ele>
        <time>2019-09-25T12:11:14.001Z</time>
      </trkpt>
      <trkpt lat="47.77055" lon="6.23167">
        <ele>260.046</ele>
        <time>2019-09-25T12:11:17.001Z</time>
      </trkpt>
      <trkpt lat="47.77071" lon="6.23183">
        <ele>259.04</ele>
        <time>2019-09-25T12:11:20.001Z</time>
      </trkpt>
      <trkpt lat="47.77088" lon="6.23199">
        <ele>258.026</ele>
        <time>2019-09-25T12:11:23.001Z</time>
      </trkpt>
      <trkpt lat="47.77102" lon="6.23222">
        <ele>257.563</ele>
        <time>2019-09-25T12:11:26.001Z</time>
      </trkpt>
      <trkpt lat="47.77109" lon="6.23253">
        <ele>257.222</ele>
        <time>2019-09-25T12:11:29.001Z</time>
      </trkpt>
      <trkpt lat="47.77113" lon="6.23285">
        <ele>256.784</ele>
        <time>2019-09-25T12:11:32.001Z</time>
      </trkpt>
      <trkpt lat="47.77116" lon="6.23308">
        <ele>255.618</ele>
        <time>2019-09-25T12:11:35.001Z</time>
      </trkpt>
      <trkpt lat="47.77118" lon="6.23325">
        <ele>254.761</ele>
        <time>2019-09-25T12:11:38.001Z</time>
      </trkpt>
      <trkpt lat="47.7712" lon="6.23342">
        <ele>254.697</ele>
        <time>2019-09-25T12:11:41.001Z</time>
      </trkpt>
      <trkpt lat="47.77122" lon="6.2336">
        <ele>254.615</ele>
        <time>2019-09-25T12:11:44.001Z</time>
      </trkpt>
      <trkpt lat="47.77126" lon="6.23375">
        <ele>254.927</ele>
        <time>2019-09-25T12:11:47.001Z</time>
      </trkpt>
      <trkpt lat="47.7713" lon="6.23389">
        <ele>255.118</ele>
        <time>2019-09-25T12:11:50.001Z</time>
      </trkpt>
      <trkpt lat="47.77135" lon="6.23399">
        <ele>254.809</ele>
        <time>2019-09-25T12:11:53.001Z</time>
      </trkpt>
      <trkpt lat="47.77137" lon="6.23407">
        <ele>255.395</ele>
        <time>2019-09-25T12:11:56.001Z</time>
      </trkpt>
      <trkpt lat="47.77141" lon="6.23415">
        <ele>255.96</ele>
        <time>2019-09-25T12:11:59.001Z</time>
      </trkpt>
      <trkpt lat="47.77147" lon="6.23424">
        <ele>256.75</ele>
        <time>2019-09-25T14:12:02Z</time>
      </trkpt>
      <trkpt lat="47.77152" lon="6.23434">
        <ele>257.894</ele>
        <time>2019-09-25T12:12:05.001Z</time>
      </trkpt>
      <trkpt lat="47.77155" lon="6.23442">
        <ele>258.266</ele>
        <time>2019-09-25T12:12:08.001Z</time>
      </trkpt>
      <trkpt lat="47.77159" lon="6.2345">
        <ele>258.823</ele>
        <time>2019-09-25T12:12:11.001Z</time>
      </trkpt>
      <trkpt lat="47.77164" lon="6.23459">
        <ele>260.327</ele>
        <time>2019-09-25T12:12:14.001Z</time>
      </trkpt>
      <trkpt lat="47.77169" lon="6.23468">
        <ele>261.074</ele>
        <time>2019-09-25T12:12:17.001Z</time>
      </trkpt>
      <trkpt lat="47.77172" lon="6.23478">
        <ele>262.303</ele>
        <time>2019-09-25T12:12:20.001Z</time>
      </trkpt>
      <trkpt lat="47.77176" lon="6.23485">
        <ele>263.235</ele>
        <time>2019-09-25T12:12:23.001Z</time>
      </trkpt>
      <trkpt lat="47.77178" lon="6.23496">
        <ele>263.242</ele>
        <time>2019-09-25T12:12:26.001Z</time>
      </trkpt>
      <trkpt lat="47.7718" lon="6.23507">
        <ele>263.784</ele>
        <time>2019-09-25T12:12:29.001Z</time>
      </trkpt>
      <trkpt lat="47.77182" lon="6.23518">
        <ele>264.724</ele>
        <time>2019-09-25T12:12:32.001Z</time>
      </trkpt>
      <trkpt lat="47.77184" lon="6.23528">
        <ele>265.431</ele>
        <time>2019-09-25T12:12:35.001Z</time>
      </trkpt>
      <trkpt lat="47.77186" lon="6.23539">
        <ele>265.095</ele>
        <time>2019-09-25T12:12:38.001Z</time>
      </trkpt>
      <trkpt lat="47.77188" lon="6.2355">
        <ele>265.087</ele>
        <time>2019-09-25T12:12:41.001Z</time>
      </trkpt>
      <trkpt lat="47.7719" lon="6.2356">
        <ele>265.339</ele>
        <time>2019-09-25T12:12:44.001Z</time>
      </trkpt>
      <trkpt lat="47.77192" lon="6.23572">
        <ele>265.8</ele>
        <time>2019-09-25T12:12:47.001Z</time>
      </trkpt>
      <trkpt lat="47.77194" lon="6.23584">
        <ele>265.937</ele>
        <time>2019-09-25T12:12:50.001Z</time>
      </trkpt>
      <trkpt lat="47.77196" lon="6.23596">
        <ele>265.96</ele>
        <time>2019-09-25T12:12:53.001Z</time>
      </trkpt>
      <trkpt lat="47.77197" lon="6.2361">
        <ele>267.204</ele>
        <time>2019-09-25T12:12:56.001Z</time>
      </trkpt>
      <trkpt lat="47.772" lon="6.23626">
        <ele>267.92</ele>
        <time>2019-09-25T12:12:59.001Z</time>
      </trkpt>
      <trkpt lat="47.77203" lon="6.23643">
        <ele>267.195</ele>
        <time>2019-09-25T14:13:02Z</time>
      </trkpt>
      <trkpt lat="47.77206" lon="6.23662">
        <ele>266.157</ele>
        <time>2019-09-25T12:13:05.001Z</time>
      </trkpt>
      <trkpt lat="47.7721" lon="6.23682">
        <ele>265.498</ele>
        <time>2019-09-25T12:13:08.001Z</time>
      </trkpt>
      <trkpt lat="47.77215" lon="6.23702">
        <ele>266.043</ele>
        <time>2019-09-25T12:13:11.001Z</time>
      </trkpt>
      <trkpt lat="47.77219" lon="6.23721">
        <ele>265.374</ele>
        <time>2019-09-25T12:13:14.001Z</time>
      </trkpt>
      <trkpt lat="47.77224" lon="6.23739">
        <ele>264.783</ele>
        <time>2019-09-25T12:13:17.001Z</time>
      </trkpt>
      <trkpt lat="47.7723" lon="6.23756">
        <ele>265.031</ele>
        <time>2019-09-25T12:13:20.001Z</time>
      </trkpt>
      <trkpt lat="47.77234" lon="6.23771">
        <ele>265.2</ele>
        <time>2019-09-25T12:13:23.001Z</time>
      </trkpt>
      <trkpt lat="47.7724" lon="6.23787">
        <ele>265.786</ele>
        <time>2019-09-25T12:13:26.001Z</time>
      </trkpt>
      <trkpt lat="47.77246" lon="6.23804">
        <ele>265.355</ele>
        <time>2019-09-25T12:13:29.001Z</time>
      </trkpt>
      <trkpt lat="47.77253" lon="6.23822">
        <ele>264.557</ele>
        <time>2019-09-25T12:13:32.001Z</time>
      </trkpt>
      <trkpt lat="47.77258" lon="6.23841">
        <ele>263.261</ele>
        <time>2019-09-25T12:13:35.001Z</time>
      </trkpt>
      <trkpt lat="47.77264" lon="6.23857">
        <ele>262.425</ele>
        <time>2019-09-25T12:13:38.001Z</time>
      </trkpt>
      <trkpt lat="47.77266" lon="6.23867">
        <ele>261.989</ele>
        <time>2019-09-25T12:13:41.001Z</time>
      </trkpt>
      <trkpt lat="47.77267" lon="6.23867">
        <ele>261.649</ele>
        <time>2019-09-25T12:13:44.001Z</time>
      </trkpt>
      <trkpt lat="47.77267" lon="6.23867">
        <ele>261.649</ele>
        <time>2019-09-25T12:15:11.001Z</time>
      </trkpt>
      <trkpt lat="47.77268" lon="6.23871">
        <ele>261.547</ele>
        <time>2019-09-25T12:15:14.001Z</time>
      </trkpt>
      <trkpt lat="47.77271" lon="6.23879">
        <ele>261.618</ele>
        <time>2019-09-25T12:15:17.001Z</time>
      </trkpt>
      <trkpt lat="47.77275" lon="6.2389">
        <ele>261.978</ele>
        <time>2019-09-25T12:15:20.001Z</time>
      </trkpt>
      <trkpt lat="47.77279" lon="6.23903">
        <ele>262.491</ele>
        <time>2019-09-25T12:15:23.001Z</time>
      </trkpt>
      <trkpt lat="47.77284" lon="6.23917">
        <ele>262.708</ele>
        <time>2019-09-25T12:15:26.001Z</time>
      </trkpt>
      <trkpt lat="47.77289" lon="6.2393">
        <ele>263.048</ele>
        <time>2019-09-25T12:15:29.001Z</time>
      </trkpt>
      <trkpt lat="47.77294" lon="6.23943">
        <ele>263.488</ele>
        <time>2019-09-25T12:15:32.001Z</time>
      </trkpt>
      <trkpt lat="47.77299" lon="6.23957">
        <ele>263.808</ele>
        <time>2019-09-25T12:15:35.001Z</time>
      </trkpt>
      <trkpt lat="47.77303" lon="6.23971">
        <ele>263.801</ele>
        <time>2019-09-25T12:15:38.001Z</time>
      </trkpt>
      <trkpt lat="47.77308" lon="6.23985">
        <ele>263.725</ele>
        <time>2019-09-25T12:15:41.001Z</time>
      </trkpt>
      <trkpt lat="47.77313" lon="6.23999">
        <ele>263.661</ele>
        <time>2019-09-25T12:15:44.001Z</time>
      </trkpt>
      <trkpt lat="47.77317" lon="6.24013">
        <ele>263.516</ele>
        <time>2019-09-25T12:15:47.001Z</time>
      </trkpt>
      <trkpt lat="47.77322" lon="6.24026">
        <ele>263.889</ele>
        <time>2019-09-25T12:15:50.001Z</time>
      </trkpt>
      <trkpt lat="47.77326" lon="6.2404">
        <ele>264.311</ele>
        <time>2019-09-25T12:15:53.001Z</time>
      </trkpt>
      <trkpt lat="47.77331" lon="6.24052">
        <ele>264.358</ele>
        <time>2019-09-25T12:15:56.001Z</time>
      </trkpt>
      <trkpt lat="47.77335" lon="6.24064">
        <ele>264.481</ele>
        <time>2019-09-25T12:15:59.001Z</time>
      </trkpt>
      <trkpt lat="47.7734" lon="6.24075">
        <ele>264.671</ele>
        <time>2019-09-25T14:16:02Z</time>
      </trkpt>
      <trkpt lat="47.77344" lon="6.24088">
        <ele>264.755</ele>
        <time>2019-09-25T12:16:05.001Z</time>
      </trkpt>
      <trkpt lat="47.77348" lon="6.241">
        <ele>265.087</ele>
        <time>2019-09-25T12:16:08.001Z</time>
      </trkpt>
      <trkpt lat="47.77352" lon="6.24113">
        <ele>265.009</ele>
        <time>2019-09-25T12:16:11.001Z</time>
      </trkpt>
      <trkpt lat="47.77356" lon="6.24126">
        <ele>264.629</ele>
        <time>2019-09-25T12:16:14.001Z</time>
      </trkpt>
      <trkpt lat="47.7736" lon="6.24137">
        <ele>265.217</ele>
        <time>2019-09-25T12:16:17.001Z</time>
      </trkpt>
      <trkpt lat="47.77364" lon="6.2415">
        <ele>265.818</ele>
        <time>2019-09-25T12:16:20.001Z</time>
      </trkpt>
      <trkpt lat="47.77368" lon="6.24162">
        <ele>265.814</ele>
        <time>2019-09-25T12:16:23.001Z</time>
      </trkpt>
      <trkpt lat="47.77372" lon="6.24174">
        <ele>265.321</ele>
        <time>2019-09-25T12:16:26.001Z</time>
      </trkpt>
      <trkpt lat="47.77377" lon="6.24187">
        <ele>265.184</ele>
        <time>2019-09-25T12:16:29.001Z</time>
      </trkpt>
      <trkpt lat="47.77382" lon="6.24201">
        <ele>264.871</ele>
        <time>2019-09-25T12:16:32.001Z</time>
      </trkpt>
      <trkpt lat="47.77388" lon="6.24215">
        <ele>264.389</ele>
        <time>2019-09-25T12:16:35.001Z</time>
      </trkpt>
      <trkpt lat="47.77395" lon="6.24231">
        <ele>264.223</ele>
        <time>2019-09-25T12:16:38.001Z</time>
      </trkpt>
      <trkpt lat="47.77403" lon="6.24249">
        <ele>264.202</ele>
        <time>2019-09-25T12:16:41.001Z</time>
      </trkpt>
      <trkpt lat="47.77412" lon="6.24269">
        <ele>264.169</ele>
        <time>2019-09-25T12:16:44.001Z</time>
      </trkpt>
      <trkpt lat="47.77421" lon="6.24292">
        <ele>263.47</ele>
        <time>2019-09-25T12:16:47.001Z</time>
      </trkpt>
      <trkpt lat="47.77431" lon="6.24316">
        <ele>262.784</ele>
        <time>2019-09-25T12:16:50.001Z</time>
      </trkpt>
      <trkpt lat="47.77442" lon="6.24341">
        <ele>262.377</ele>
        <time>2019-09-25T12:16:53.001Z</time>
      </trkpt>
      <trkpt lat="47.77454" lon="6.24366">
        <ele>262.369</ele>
        <time>2019-09-25T12:16:56.001Z</time>
      </trkpt>
      <trkpt lat="47.77467" lon="6.24396">
        <ele>261.902</ele>
        <time>2019-09-25T12:16:59.001Z</time>
      </trkpt>
      <trkpt lat="47.7748" lon="6.24427">
        <ele>261.421</ele>
        <time>2019-09-25T14:17:02Z</time>
      </trkpt>
      <trkpt lat="47.77494" lon="6.24459">
        <ele>260.049</ele>
        <time>2019-09-25T12:17:05.001Z</time>
      </trkpt>
      <trkpt lat="47.77509" lon="6.24491">
        <ele>259.199</ele>
        <time>2019-09-25T12:17:08.001Z</time>
      </trkpt>
      <trkpt lat="47.77524" lon="6.24525">
        <ele>257.995</ele>
        <time>2019-09-25T12:17:11.001Z</time>
      </trkpt>
      <trkpt lat="47.77539" lon="6.24559">
        <ele>256.751</ele>
        <time>2019-09-25T12:17:14.001Z</time>
      </trkpt>
      <trkpt lat="47.77554" lon="6.24593">
        <ele>255.738</ele>
        <time>2019-09-25T12:17:17.001Z</time>
      </trkpt>
      <trkpt lat="47.77569" lon="6.24628">
        <ele>254.653</ele>
        <time>2019-09-25T12:17:20.001Z</time>
      </trkpt>
      <trkpt lat="47.77584" lon="6.24661">
        <ele>253.753</ele>
        <time>2019-09-25T12:17:23.001Z</time>
      </trkpt>
      <trkpt lat="47.77597" lon="6.24694">
        <ele>252.871</ele>
        <time>2019-09-25T12:17:26.001Z</time>
      </trkpt>
      <trkpt lat="47.77609" lon="6.24725">
        <ele>252.674</ele>
        <time>2019-09-25T12:17:29.001Z</time>
      </trkpt>
      <trkpt lat="47.77621" lon="6.24754">
        <ele>252.635</ele>
        <time>2019-09-25T12:17:32.001Z</time>
      </trkpt>
      <trkpt lat="47.77633" lon="6.24782">
        <ele>252.898</ele>
        <time>2019-09-25T12:17:35.001Z</time>
      </trkpt>
      <trkpt lat="47.77645" lon="6.24806">
        <ele>253.192</ele>
        <time>2019-09-25T12:17:38.001Z</time>
      </trkpt>
      <trkpt lat="47.77656" lon="6.24829">
        <ele>253.027</ele>
        <time>2019-09-25T12:17:41.001Z</time>
      </trkpt>
      <trkpt lat="47.77665" lon="6.24854">
        <ele>252.553</ele>
        <time>2019-09-25T12:17:44.001Z</time>
      </trkpt>
      <trkpt lat="47.77674" lon="6.24876">
        <ele>252.829</ele>
        <time>2019-09-25T12:17:47.001Z</time>
      </trkpt>
      <trkpt lat="47.77684" lon="6.24895">
        <ele>252.734</ele>
        <time>2019-09-25T12:17:50.001Z</time>
      </trkpt>
      <trkpt lat="47.77693" lon="6.24915">
        <ele>253.245</ele>
        <time>2019-09-25T12:17:53.001Z</time>
      </trkpt>
      <trkpt lat="47.77701" lon="6.24934">
        <ele>253.647</ele>
        <time>2019-09-25T12:17:56.001Z</time>
      </trkpt>
      <trkpt lat="47.77709" lon="6.24951">
        <ele>253.952</ele>
        <time>2019-09-25T12:17:59.001Z</time>
      </trkpt>
      <trkpt lat="47.77715" lon="6.24965">
        <ele>254.975</ele>
        <time>2019-09-25T14:18:02Z</time>
      </trkpt>
      <trkpt lat="47.7772" lon="6.24977">
        <ele>255.853</ele>
        <time>2019-09-25T12:18:05.001Z</time>
      </trkpt>
      <trkpt lat="47.77726" lon="6.24989">
        <ele>256.776</ele>
        <time>2019-09-25T12:18:08.001Z</time>
      </trkpt>
      <trkpt lat="47.77732" lon="6.25">
        <ele>258.085</ele>
        <time>2019-09-25T12:18:11.001Z</time>
      </trkpt>
      <trkpt lat="47.77736" lon="6.25012">
        <ele>258.581</ele>
        <time>2019-09-25T12:18:14.001Z</time>
      </trkpt>
      <trkpt lat="47.77741" lon="6.25022">
        <ele>258.861</ele>
        <time>2019-09-25T12:18:17.001Z</time>
      </trkpt>
      <trkpt lat="47.77746" lon="6.25033">
        <ele>259.399</ele>
        <time>2019-09-25T12:18:20.001Z</time>
      </trkpt>
      <trkpt lat="47.7775" lon="6.25044">
        <ele>259.956</ele>
        <time>2019-09-25T12:18:23.001Z</time>
      </trkpt>
      <trkpt lat="47.77756" lon="6.25055">
        <ele>260.762</ele>
        <time>2019-09-25T12:18:26.001Z</time>
      </trkpt>
      <trkpt lat="47.7776" lon="6.25065">
        <ele>261.373</ele>
        <time>2019-09-25T12:18:29.001Z</time>
      </trkpt>
      <trkpt lat="47.77765" lon="6.25075">
        <ele>261.785</ele>
        <time>2019-09-25T12:18:32.001Z</time>
      </trkpt>
      <trkpt lat="47.77768" lon="6.25085">
        <ele>262.278</ele>
        <time>2019-09-25T12:18:35.001Z</time>
      </trkpt>
      <trkpt lat="47.77772" lon="6.25094">
        <ele>263.355</ele>
        <time>2019-09-25T12:18:38.001Z</time>
      </trkpt>
      <trkpt lat="47.77776" lon="6.25102">
        <ele>264.899</ele>
        <time>2019-09-25T12:18:41.001Z</time>
      </trkpt>
      <trkpt lat="47.77779" lon="6.25112">
        <ele>266.089</ele>
        <time>2019-09-25T12:18:44.001Z</time>
      </trkpt>
      <trkpt lat="47.77784" lon="6.25123">
        <ele>266.222</ele>
        <time>2019-09-25T12:18:47.001Z</time>
      </trkpt>
      <trkpt lat="47.77789" lon="6.25136">
        <ele>266.414</ele>
        <time>2019-09-25T12:18:50.001Z</time>
      </trkpt>
      <trkpt lat="47.77794" lon="6.25147">
        <ele>266.969</ele>
        <time>2019-09-25T12:18:53.001Z</time>
      </trkpt>
      <trkpt lat="47.77798" lon="6.25157">
        <ele>267.419</ele>
        <time>2019-09-25T12:18:56.001Z</time>
      </trkpt>
      <trkpt lat="47.77802" lon="6.25167">
        <ele>267.245</ele>
        <time>2019-09-25T12:18:59.001Z</time>
      </trkpt>
      <trkpt lat="47.77808" lon="6.25179">
        <ele>268.4</ele>
        <time>2019-09-25T14:19:02Z</time>
      </trkpt>
      <trkpt lat="47.77815" lon="6.25193">
        <ele>267.915</ele>
        <time>2019-09-25T12:19:05.001Z</time>
      </trkpt>
      <trkpt lat="47.77821" lon="6.25211">
        <ele>267.181</ele>
        <time>2019-09-25T12:19:08.001Z</time>
      </trkpt>
      <trkpt lat="47.77829" lon="6.25233">
        <ele>266.548</ele>
        <time>2019-09-25T12:19:11.001Z</time>
      </trkpt>
      <trkpt lat="47.77839" lon="6.25258">
        <ele>265.829</ele>
        <time>2019-09-25T12:19:14.001Z</time>
      </trkpt>
      <trkpt lat="47.77849" lon="6.25285">
        <ele>265.594</ele>
        <time>2019-09-25T12:19:17.001Z</time>
      </trkpt>
      <trkpt lat="47.7786" lon="6.25313">
        <ele>264.993</ele>
        <time>2019-09-25T12:19:20.001Z</time>
      </trkpt>
      <trkpt lat="47.77871" lon="6.25341">
        <ele>264.091</ele>
        <time>2019-09-25T12:19:23.001Z</time>
      </trkpt>
      <trkpt lat="47.77881" lon="6.25367">
        <ele>263.874</ele>
        <time>2019-09-25T12:19:26.001Z</time>
      </trkpt>
      <trkpt lat="47.77891" lon="6.25391">
        <ele>263.132</ele>
        <time>2019-09-25T12:19:29.001Z</time>
      </trkpt>
      <trkpt lat="47.77898" lon="6.25412">
        <ele>262.585</ele>
        <time>2019-09-25T12:19:32.001Z</time>
      </trkpt>
      <trkpt lat="47.77905" lon="6.25432">
        <ele>262.183</ele>
        <time>2019-09-25T12:19:35.001Z</time>
      </trkpt>
      <trkpt lat="47.77913" lon="6.25452">
        <ele>261.883</ele>
        <time>2019-09-25T12:19:38.001Z</time>
      </trkpt>
      <trkpt lat="47.7792" lon="6.25468">
        <ele>262.12</ele>
        <time>2019-09-25T12:19:41.001Z</time>
      </trkpt>
      <trkpt lat="47.77927" lon="6.25484">
        <ele>262.137</ele>
        <time>2019-09-25T12:19:44.001Z</time>
      </trkpt>
      <trkpt lat="47.77933" lon="6.25499">
        <ele>261.402</ele>
        <time>2019-09-25T12:19:47.001Z</time>
      </trkpt>
      <trkpt lat="47.77939" lon="6.25513">
        <ele>261.203</ele>
        <time>2019-09-25T12:19:50.001Z</time>
      </trkpt>
      <trkpt lat="47.77944" lon="6.25528">
        <ele>261.087</ele>
        <time>2019-09-25T12:19:53.001Z</time>
      </trkpt>
      <trkpt lat="47.7795" lon="6.25541">
        <ele>261.264</ele>
        <time>2019-09-25T12:19:56.001Z</time>
      </trkpt>
      <trkpt lat="47.77955" lon="6.25555">
        <ele>261.236</ele>
        <time>2019-09-25T12:19:59.001Z</time>
      </trkpt>
      <trkpt lat="47.7796" lon="6.25568">
        <ele>261.289</ele>
        <time>2019-09-25T14:20:02Z</time>
      </trkpt>
      <trkpt lat="47.77965" lon="6.25581">
        <ele>261.573</ele>
        <time>2019-09-25T12:20:05.001Z</time>
      </trkpt>
      <trkpt lat="47.7797" lon="6.25593">
        <ele>262.231</ele>
        <time>2019-09-25T12:20:08.001Z</time>
      </trkpt>
      <trkpt lat="47.77975" lon="6.25606">
        <ele>262.435</ele>
        <time>2019-09-25T12:20:11.001Z</time>
      </trkpt>
      <trkpt lat="47.7798" lon="6.25618">
        <ele>262.551</ele>
        <time>2019-09-25T12:20:14.001Z</time>
      </trkpt>
      <trkpt lat="47.77986" lon="6.25632">
        <ele>262.503</ele>
        <time>2019-09-25T12:20:17.001Z</time>
      </trkpt>
      <trkpt lat="47.77991" lon="6.25645">
        <ele>262.628</ele>
        <time>2019-09-25T12:20:20.001Z</time>
      </trkpt>
      <trkpt lat="47.77996" lon="6.25658">
        <ele>262.961</ele>
        <time>2019-09-25T12:20:23.001Z</time>
      </trkpt>
      <trkpt lat="47.78001" lon="6.25671">
        <ele>263.357</ele>
        <time>2019-09-25T12:20:26.001Z</time>
      </trkpt>
      <trkpt lat="47.78005" lon="6.25683">
        <ele>263.842</ele>
        <time>2019-09-25T12:20:29.001Z</time>
      </trkpt>
      <trkpt lat="47.78011" lon="6.25696">
        <ele>264.088</ele>
        <time>2019-09-25T12:20:32.001Z</time>
      </trkpt>
      <trkpt lat="47.78016" lon="6.25709">
        <ele>264.038</ele>
        <time>2019-09-25T12:20:35.001Z</time>
      </trkpt>
      <trkpt lat="47.78021" lon="6.25722">
        <ele>264.277</ele>
        <time>2019-09-25T12:20:38.001Z</time>
      </trkpt>
      <trkpt lat="47.78026" lon="6.25735">
        <ele>264.788</ele>
        <time>2019-09-25T12:20:41.001Z</time>
      </trkpt>
      <trkpt lat="47.78031" lon="6.25746">
        <ele>265.23</ele>
        <time>2019-09-25T12:20:44.001Z</time>
      </trkpt>
      <trkpt lat="47.78035" lon="6.25759">
        <ele>265.552</ele>
        <time>2019-09-25T12:20:47.001Z</time>
      </trkpt>
      <trkpt lat="47.78041" lon="6.25771">
        <ele>266.015</ele>
        <time>2019-09-25T12:20:50.001Z</time>
      </trkpt>
      <trkpt lat="47.78045" lon="6.25783">
        <ele>266.692</ele>
        <time>2019-09-25T12:20:53.001Z</time>
      </trkpt>
      <trkpt lat="47.78051" lon="6.25795">
        <ele>266.78</ele>
        <time>2019-09-25T12:20:56.001Z</time>
      </trkpt>
      <trkpt lat="47.78056" lon="6.25808">
        <ele>267.027</ele>
        <time>2019-09-25T12:20:59.001Z</time>
      </trkpt>
      <trkpt lat="47.7806" lon="6.25821">
        <ele>266.893</ele>
        <time>2019-09-25T14:21:02Z</time>
      </trkpt>
      <trkpt lat="47.78065" lon="6.25833">
        <ele>267.087</ele>
        <time>2019-09-25T12:21:05.001Z</time>
      </trkpt>
      <trkpt lat="47.78069" lon="6.25845">
        <ele>267.944</ele>
        <time>2019-09-25T12:21:08.001Z</time>
      </trkpt>
      <trkpt lat="47.78074" lon="6.25857">
        <ele>268.618</ele>
        <time>2019-09-25T12:21:11.001Z</time>
      </trkpt>
      <trkpt lat="47.78079" lon="6.25868">
        <ele>268.833</ele>
        <time>2019-09-25T12:21:14.001Z</time>
      </trkpt>
      <trkpt lat="47.78084" lon="6.2588">
        <ele>269.3</ele>
        <time>2019-09-25T12:21:17.001Z</time>
      </trkpt>
      <trkpt lat="47.78088" lon="6.25892">
        <ele>269.579</ele>
        <time>2019-09-25T12:21:20.001Z</time>
      </trkpt>
      <trkpt lat="47.78093" lon="6.25903">
        <ele>270.464</ele>
        <time>2019-09-25T12:21:23.001Z</time>
      </trkpt>
      <trkpt lat="47.78098" lon="6.25915">
        <ele>270.552</ele>
        <time>2019-09-25T12:21:26.001Z</time>
      </trkpt>
      <trkpt lat="47.78102" lon="6.25926">
        <ele>270.634</ele>
        <time>2019-09-25T12:21:29.001Z</time>
      </trkpt>
      <trkpt lat="47.78106" lon="6.25939">
        <ele>270.831</ele>
        <time>2019-09-25T12:21:32.001Z</time>
      </trkpt>
      <trkpt lat="47.78111" lon="6.25951">
        <ele>271.288</ele>
        <time>2019-09-25T12:21:35.001Z</time>
      </trkpt>
      <trkpt lat="47.78116" lon="6.25963">
        <ele>271.52</ele>
        <time>2019-09-25T12:21:38.001Z</time>
      </trkpt>
      <trkpt lat="47.78121" lon="6.25974">
        <ele>271.798</ele>
        <time>2019-09-25T12:21:41.001Z</time>
      </trkpt>
      <trkpt lat="47.78126" lon="6.25987">
        <ele>272.252</ele>
        <time>2019-09-25T12:21:44.001Z</time>
      </trkpt>
      <trkpt lat="47.78131" lon="6.25999">
        <ele>272.384</ele>
        <time>2019-09-25T12:21:47.001Z</time>
      </trkpt>
      <trkpt lat="47.78137" lon="6.26011">
        <ele>272.904</ele>
        <time>2019-09-25T12:21:50.001Z</time>
      </trkpt>
      <trkpt lat="47.78142" lon="6.26024">
        <ele>273.288</ele>
        <time>2019-09-25T12:21:53.001Z</time>
      </trkpt>
      <trkpt lat="47.78146" lon="6.26037">
        <ele>273.747</ele>
        <time>2019-09-25T12:21:56.001Z</time>
      </trkpt>
      <trkpt lat="47.78151" lon="6.26049">
        <ele>274.255</ele>
        <time>2019-09-25T12:21:59.001Z</time>
      </trkpt>
      <trkpt lat="47.78155" lon="6.26061">
        <ele>274.936</ele>
        <time>2019-09-25T14:22:02Z</time>
      </trkpt>
      <trkpt lat="47.7816" lon="6.26073">
        <ele>275.524</ele>
        <time>2019-09-25T12:22:05.001Z</time>
      </trkpt>
      <trkpt lat="47.78165" lon="6.26086">
        <ele>275.697</ele>
        <time>2019-09-25T12:22:08.001Z</time>
      </trkpt>
      <trkpt lat="47.7817" lon="6.26098">
        <ele>276.317</ele>
        <time>2019-09-25T12:22:11.001Z</time>
      </trkpt>
      <trkpt lat="47.78175" lon="6.26112">
        <ele>276.595</ele>
        <time>2019-09-25T12:22:14.001Z</time>
      </trkpt>
      <trkpt lat="47.7818" lon="6.26125">
        <ele>277.075</ele>
        <time>2019-09-25T12:22:17.001Z</time>
      </trkpt>
      <trkpt lat="47.78185" lon="6.26138">
        <ele>277.661</ele>
        <time>2019-09-25T12:22:20.001Z</time>
      </trkpt>
      <trkpt lat="47.78191" lon="6.2615">
        <ele>278.715</ele>
        <time>2019-09-25T12:22:23.001Z</time>
      </trkpt>
      <trkpt lat="47.78196" lon="6.26162">
        <ele>280.084</ele>
        <time>2019-09-25T12:22:26.001Z</time>
      </trkpt>
      <trkpt lat="47.78201" lon="6.26175">
        <ele>281.501</ele>
        <time>2019-09-25T12:22:29.001Z</time>
      </trkpt>
      <trkpt lat="47.78206" lon="6.26187">
        <ele>282.572</ele>
        <time>2019-09-25T12:22:32.001Z</time>
      </trkpt>
      <trkpt lat="47.78211" lon="6.26199">
        <ele>283.454</ele>
        <time>2019-09-25T12:22:35.001Z</time>
      </trkpt>
      <trkpt lat="47.78216" lon="6.2621">
        <ele>284.38</ele>
        <time>2019-09-25T12:22:38.001Z</time>
      </trkpt>
      <trkpt lat="47.7822" lon="6.26223">
        <ele>284.903</ele>
        <time>2019-09-25T12:22:41.001Z</time>
      </trkpt>
      <trkpt lat="47.78224" lon="6.26235">
        <ele>285.987</ele>
        <time>2019-09-25T12:22:44.001Z</time>
      </trkpt>
      <trkpt lat="47.78229" lon="6.26247">
        <ele>286.962</ele>
        <time>2019-09-25T12:22:47.001Z</time>
      </trkpt>
      <trkpt lat="47.78234" lon="6.26259">
        <ele>287.997</ele>
        <time>2019-09-25T12:22:50.001Z</time>
      </trkpt>
      <trkpt lat="47.7824" lon="6.26272">
        <ele>288.73</ele>
        <time>2019-09-25T12:22:53.001Z</time>
      </trkpt>
      <trkpt lat="47.78245" lon="6.26288">
        <ele>287.366</ele>
        <time>2019-09-25T12:22:56.001Z</time>
      </trkpt>
      <trkpt lat="47.78251" lon="6.26302">
        <ele>285.982</ele>
        <time>2019-09-25T12:22:59.001Z</time>
      </trkpt>
      <trkpt lat="47.78256" lon="6.26317">
        <ele>284.782</ele>
        <time>2019-09-25T14:23:02Z</time>
      </trkpt>
      <trkpt lat="47.78262" lon="6.26331">
        <ele>283.669</ele>
        <time>2019-09-25T12:23:05.001Z</time>
      </trkpt>
      <trkpt lat="47.78267" lon="6.26345">
        <ele>283.283</ele>
        <time>2019-09-25T12:23:08.001Z</time>
      </trkpt>
      <trkpt lat="47.78272" lon="6.26358">
        <ele>283.296</ele>
        <time>2019-09-25T12:23:11.001Z</time>
      </trkpt>
      <trkpt lat="47.78278" lon="6.26371">
        <ele>282.849</ele>
        <time>2019-09-25T12:23:14.001Z</time>
      </trkpt>
      <trkpt lat="47.78284" lon="6.26385">
        <ele>281.972</ele>
        <time>2019-09-25T12:23:17.001Z</time>
      </trkpt>
      <trkpt lat="47.78289" lon="6.26398">
        <ele>281.485</ele>
        <time>2019-09-25T12:23:20.001Z</time>
      </trkpt>
      <trkpt lat="47.78295" lon="6.2641">
        <ele>281.397</ele>
        <time>2019-09-25T12:23:23.001Z</time>
      </trkpt>
      <trkpt lat="47.783" lon="6.26424">
        <ele>281.547</ele>
        <time>2019-09-25T12:23:26.001Z</time>
      </trkpt>
      <trkpt lat="47.78306" lon="6.26437">
        <ele>281.816</ele>
        <time>2019-09-25T12:23:29.001Z</time>
      </trkpt>
      <trkpt lat="47.78311" lon="6.26451">
        <ele>281.975</ele>
        <time>2019-09-25T12:23:32.001Z</time>
      </trkpt>
      <trkpt lat="47.78316" lon="6.26463">
        <ele>282.012</ele>
        <time>2019-09-25T12:23:35.001Z</time>
      </trkpt>
      <trkpt lat="47.7832" lon="6.26476">
        <ele>281.661</ele>
        <time>2019-09-25T12:23:38.001Z</time>
      </trkpt>
      <trkpt lat="47.78325" lon="6.2649">
        <ele>281.895</ele>
        <time>2019-09-25T12:23:41.001Z</time>
      </trkpt>
      <trkpt lat="47.7833" lon="6.26505">
        <ele>282.183</ele>
        <time>2019-09-25T12:23:44.001Z</time>
      </trkpt>
      <trkpt lat="47.78334" lon="6.26521">
        <ele>282.553</ele>
        <time>2019-09-25T12:23:47.001Z</time>
      </trkpt>
      <trkpt lat="47.78338" lon="6.26539">
        <ele>282.961</ele>
        <time>2019-09-25T12:23:50.001Z</time>
      </trkpt>
      <trkpt lat="47.78342" lon="6.2656">
        <ele>283.407</ele>
        <time>2019-09-25T12:23:53.001Z</time>
      </trkpt>
      <trkpt lat="47.78347" lon="6.26583">
        <ele>283.545</ele>
        <time>2019-09-25T12:23:56.001Z</time>
      </trkpt>
      <trkpt lat="47.78352" lon="6.2661">
        <ele>283.253</ele>
        <time>2019-09-25T12:23:59.001Z</time>
      </trkpt>
      <trkpt lat="47.78358" lon="6.26638">
        <ele>283.122</ele>
        <time>2019-09-25T14:24:02Z</time>
      </trkpt>
      <trkpt lat="47.78364" lon="6.26669">
        <ele>282.739</ele>
        <time>2019-09-25T12:24:05.001Z</time>
      </trkpt>
      <trkpt lat="47.78369" lon="6.26702">
        <ele>282.29</ele>
        <time>2019-09-25T12:24:08.001Z</time>
      </trkpt>
      <trkpt lat="47.78375" lon="6.26736">
        <ele>281.285</ele>
        <time>2019-09-25T12:24:11.001Z</time>
      </trkpt>
      <trkpt lat="47.78382" lon="6.26771">
        <ele>280.141</ele>
        <time>2019-09-25T12:24:14.001Z</time>
      </trkpt>
      <trkpt lat="47.78389" lon="6.26807">
        <ele>279.473</ele>
        <time>2019-09-25T12:24:17.001Z</time>
      </trkpt>
      <trkpt lat="47.78396" lon="6.26843">
        <ele>278.615</ele>
        <time>2019-09-25T12:24:20.001Z</time>
      </trkpt>
      <trkpt lat="47.78403" lon="6.26879">
        <ele>277.627</ele>
        <time>2019-09-25T12:24:23.001Z</time>
      </trkpt>
      <trkpt lat="47.7841" lon="6.26913">
        <ele>276.945</ele>
        <time>2019-09-25T12:24:26.001Z</time>
      </trkpt>
      <trkpt lat="47.78417" lon="6.26949">
        <ele>275.698</ele>
        <time>2019-09-25T12:24:29.001Z</time>
      </trkpt>
      <trkpt lat="47.78424" lon="6.26983">
        <ele>274.724</ele>
        <time>2019-09-25T12:24:32.001Z</time>
      </trkpt>
      <trkpt lat="47.78431" lon="6.27018">
        <ele>273.917</ele>
        <time>2019-09-25T12:24:35.001Z</time>
      </trkpt>
      <trkpt lat="47.78437" lon="6.27052">
        <ele>273.249</ele>
        <time>2019-09-25T12:24:38.001Z</time>
      </trkpt>
      <trkpt lat="47.78444" lon="6.27086">
        <ele>272.523</ele>
        <time>2019-09-25T12:24:41.001Z</time>
      </trkpt>
      <trkpt lat="47.78451" lon="6.2712">
        <ele>271.883</ele>
        <time>2019-09-25T12:24:44.001Z</time>
      </trkpt>
      <trkpt lat="47.78457" lon="6.27152">
        <ele>271.407</ele>
        <time>2019-09-25T12:24:47.001Z</time>
      </trkpt>
      <trkpt lat="47.78462" lon="6.27182">
        <ele>271.359</ele>
        <time>2019-09-25T12:24:50.001Z</time>
      </trkpt>
      <trkpt lat="47.78468" lon="6.2721">
        <ele>270.962</ele>
        <time>2019-09-25T12:24:53.001Z</time>
      </trkpt>
      <trkpt lat="47.78473" lon="6.27237">
        <ele>270.633</ele>
        <time>2019-09-25T12:24:56.001Z</time>
      </trkpt>
      <trkpt lat="47.78478" lon="6.27263">
        <ele>270.254</ele>
        <time>2019-09-25T12:24:59.001Z</time>
      </trkpt>
      <trkpt lat="47.78483" lon="6.27289">
        <ele>269.403</ele>
        <time>2019-09-25T14:25:02Z</time>
      </trkpt>
      <trkpt lat="47.78487" lon="6.27315">
        <ele>269.039</ele>
        <time>2019-09-25T12:25:05.001Z</time>
      </trkpt>
      <trkpt lat="47.78491" lon="6.27341">
        <ele>269.027</ele>
        <time>2019-09-25T12:25:08.001Z</time>
      </trkpt>
      <trkpt lat="47.78497" lon="6.27369">
        <ele>268.563</ele>
        <time>2019-09-25T12:25:11.001Z</time>
      </trkpt>
      <trkpt lat="47.78502" lon="6.27396">
        <ele>268.546</ele>
        <time>2019-09-25T12:25:14.001Z</time>
      </trkpt>
      <trkpt lat="47.78508" lon="6.27423">
        <ele>268.789</ele>
        <time>2019-09-25T12:25:17.001Z</time>
      </trkpt>
      <trkpt lat="47.78513" lon="6.27449">
        <ele>269.48</ele>
        <time>2019-09-25T12:25:20.001Z</time>
      </trkpt>
      <trkpt lat="47.78518" lon="6.27475">
        <ele>270.007</ele>
        <time>2019-09-25T12:25:23.001Z</time>
      </trkpt>
      <trkpt lat="47.78523" lon="6.27501">
        <ele>271.193</ele>
        <time>2019-09-25T12:25:26.001Z</time>
      </trkpt>
      <trkpt lat="47.78528" lon="6.27526">
        <ele>272.411</ele>
        <time>2019-09-25T12:25:29.001Z</time>
      </trkpt>
      <trkpt lat="47.78532" lon="6.2755">
        <ele>273.466</ele>
        <time>2019-09-25T12:25:32.001Z</time>
      </trkpt>
      <trkpt lat="47.78537" lon="6.27574">
        <ele>273.256</ele>
        <time>2019-09-25T12:25:35.001Z</time>
      </trkpt>
      <trkpt lat="47.78541" lon="6.27597">
        <ele>273.199</ele>
        <time>2019-09-25T12:25:38.001Z</time>
      </trkpt>
      <trkpt lat="47.78545" lon="6.27617">
        <ele>273.753</ele>
        <time>2019-09-25T12:25:41.001Z</time>
      </trkpt>
      <trkpt lat="47.78549" lon="6.27635">
        <ele>273.938</ele>
        <time>2019-09-25T12:25:44.001Z</time>
      </trkpt>
      <trkpt lat="47.78553" lon="6.27653">
        <ele>274.009</ele>
        <time>2019-09-25T12:25:47.001Z</time>
      </trkpt>
      <trkpt lat="47.78556" lon="6.2767">
        <ele>273.945</ele>
        <time>2019-09-25T12:25:50.001Z</time>
      </trkpt>
      <trkpt lat="47.78559" lon="6.27687">
        <ele>273.767</ele>
        <time>2019-09-25T12:25:53.001Z</time>
      </trkpt>
      <trkpt lat="47.78563" lon="6.27702">
        <ele>273.841</ele>
        <time>2019-09-25T12:25:56.001Z</time>
      </trkpt>
      <trkpt lat="47.78566" lon="6.27717">
        <ele>274.785</ele>
        <time>2019-09-25T12:25:59.001Z</time>
      </trkpt>
      <trkpt lat="47.78569" lon="6.27731">
        <ele>275.322</ele>
        <time>2019-09-25T14:26:02Z</time>
      </trkpt>
      <trkpt lat="47.78571" lon="6.27745">
        <ele>276.176</ele>
        <time>2019-09-25T12:26:05.001Z</time>
      </trkpt>
      <trkpt lat="47.78573" lon="6.2776">
        <ele>276.249</ele>
        <time>2019-09-25T12:26:08.001Z</time>
      </trkpt>
      <trkpt lat="47.78576" lon="6.27774">
        <ele>276.257</ele>
        <time>2019-09-25T12:26:11.001Z</time>
      </trkpt>
      <trkpt lat="47.78578" lon="6.27788">
        <ele>276.763</ele>
        <time>2019-09-25T12:26:14.001Z</time>
      </trkpt>
      <trkpt lat="47.78581" lon="6.27803">
        <ele>277.436</ele>
        <time>2019-09-25T12:26:17.001Z</time>
      </trkpt>
      <trkpt lat="47.78584" lon="6.27818">
        <ele>278.374</ele>
        <time>2019-09-25T12:26:20.001Z</time>
      </trkpt>
      <trkpt lat="47.78586" lon="6.27833">
        <ele>278.834</ele>
        <time>2019-09-25T12:26:23.001Z</time>
      </trkpt>
      <trkpt lat="47.78588" lon="6.27848">
        <ele>279.04</ele>
        <time>2019-09-25T12:26:26.001Z</time>
      </trkpt>
      <trkpt lat="47.78588" lon="6.27862">
        <ele>279.222</ele>
        <time>2019-09-25T12:26:29.001Z</time>
      </trkpt>
      <trkpt lat="47.78588" lon="6.27876">
        <ele>279.282</ele>
        <time>2019-09-25T12:26:32.001Z</time>
      </trkpt>
      <trkpt lat="47.78586" lon="6.27892">
        <ele>279.158</ele>
        <time>2019-09-25T12:26:35.001Z</time>
      </trkpt>
      <trkpt lat="47.78584" lon="6.27907">
        <ele>279.058</ele>
        <time>2019-09-25T12:26:38.001Z</time>
      </trkpt>
      <trkpt lat="47.78582" lon="6.27924">
        <ele>278.806</ele>
        <time>2019-09-25T12:26:41.001Z</time>
      </trkpt>
      <trkpt lat="47.78581" lon="6.27941">
        <ele>278.535</ele>
        <time>2019-09-25T12:26:44.001Z</time>
      </trkpt>
      <trkpt lat="47.7858" lon="6.27958">
        <ele>278.429</ele>
        <time>2019-09-25T12:26:47.001Z</time>
      </trkpt>
      <trkpt lat="47.78579" lon="6.27975">
        <ele>278.228</ele>
        <time>2019-09-25T12:26:50.001Z</time>
      </trkpt>
      <trkpt lat="47.78577" lon="6.27993">
        <ele>277.827</ele>
        <time>2019-09-25T12:26:53.001Z</time>
      </trkpt>
      <trkpt lat="47.78576" lon="6.2801">
        <ele>277.945</ele>
        <time>2019-09-25T12:26:56.001Z</time>
      </trkpt>
      <trkpt lat="47.78574" lon="6.28029">
        <ele>278.121</ele>
        <time>2019-09-25T12:26:59.001Z</time>
      </trkpt>
      <trkpt lat="47.78573" lon="6.28047">
        <ele>277.936</ele>
        <time>2019-09-25T14:27:02Z</time>
      </trkpt>
      <trkpt lat="47.78572" lon="6.28065">
        <ele>278.247</ele>
        <time>2019-09-25T12:27:05.001Z</time>
      </trkpt>
      <trkpt lat="47.7857" lon="6.28084">
        <ele>278.663</ele>
        <time>2019-09-25T12:27:08.001Z</time>
      </trkpt>
      <trkpt lat="47.78569" lon="6.28102">
        <ele>278.929</ele>
        <time>2019-09-25T12:27:11.001Z</time>
      </trkpt>
      <trkpt lat="47.78567" lon="6.2812">
        <ele>278.669</ele>
        <time>2019-09-25T12:27:14.001Z</time>
      </trkpt>
      <trkpt lat="47.78565" lon="6.28139">
        <ele>278.033</ele>
        <time>2019-09-25T12:27:17.001Z</time>
      </trkpt>
      <trkpt lat="47.78563" lon="6.28161">
        <ele>277.933</ele>
        <time>2019-09-25T12:27:20.001Z</time>
      </trkpt>
      <trkpt lat="47.78561" lon="6.28186">
        <ele>277.929</ele>
        <time>2019-09-25T12:27:23.001Z</time>
      </trkpt>
      <trkpt lat="47.78559" lon="6.28213">
        <ele>277.694</ele>
        <time>2019-09-25T12:27:26.001Z</time>
      </trkpt>
      <trkpt lat="47.78557" lon="6.28243">
        <ele>277.277</ele>
        <time>2019-09-25T12:27:29.001Z</time>
      </trkpt>
      <trkpt lat="47.78555" lon="6.28275">
        <ele>276.069</ele>
        <time>2019-09-25T12:27:32.001Z</time>
      </trkpt>
      <trkpt lat="47.78553" lon="6.28308">
        <ele>275.059</ele>
        <time>2019-09-25T12:27:35.001Z</time>
      </trkpt>
      <trkpt lat="47.7855" lon="6.28342">
        <ele>274.23</ele>
        <time>2019-09-25T12:27:38.001Z</time>
      </trkpt>
      <trkpt lat="47.78548" lon="6.28376">
        <ele>272.915</ele>
        <time>2019-09-25T12:27:41.001Z</time>
      </trkpt>
      <trkpt lat="47.78546" lon="6.28409">
        <ele>271.784</ele>
        <time>2019-09-25T12:27:44.001Z</time>
      </trkpt>
      <trkpt lat="47.78543" lon="6.28442">
        <ele>270.865</ele>
        <time>2019-09-25T12:27:47.001Z</time>
      </trkpt>
      <trkpt lat="47.7854" lon="6.28473">
        <ele>270.192</ele>
        <time>2019-09-25T12:27:50.001Z</time>
      </trkpt>
      <trkpt lat="47.78537" lon="6.28502">
        <ele>269.516</ele>
        <time>2019-09-25T12:27:53.001Z</time>
      </trkpt>
      <trkpt lat="47.78534" lon="6.28529">
        <ele>269.164</ele>
        <time>2019-09-25T12:27:56.001Z</time>
      </trkpt>
      <trkpt lat="47.78531" lon="6.28554">
        <ele>269.045</ele>
        <time>2019-09-25T12:27:59.001Z</time>
      </trkpt>
      <trkpt lat="47.78529" lon="6.28579">
        <ele>269.057</ele>
        <time>2019-09-25T14:28:02Z</time>
      </trkpt>
      <trkpt lat="47.78528" lon="6.28604">
        <ele>268.987</ele>
        <time>2019-09-25T12:28:05.001Z</time>
      </trkpt>
      <trkpt lat="47.7853" lon="6.28632">
        <ele>268.647</ele>
        <time>2019-09-25T12:28:08.001Z</time>
      </trkpt>
      <trkpt lat="47.78531" lon="6.28661">
        <ele>270.66</ele>
        <time>2019-09-25T12:28:11.001Z</time>
      </trkpt>
      <trkpt lat="47.78534" lon="6.28688">
        <ele>271.907</ele>
        <time>2019-09-25T12:28:14.001Z</time>
      </trkpt>
      <trkpt lat="47.78536" lon="6.28714">
        <ele>272.096</ele>
        <time>2019-09-25T12:28:17.001Z</time>
      </trkpt>
      <trkpt lat="47.78539" lon="6.28741">
        <ele>271.239</ele>
        <time>2019-09-25T12:28:20.001Z</time>
      </trkpt>
      <trkpt lat="47.78541" lon="6.28771">
        <ele>270.656</ele>
        <time>2019-09-25T12:28:23.001Z</time>
      </trkpt>
      <trkpt lat="47.78543" lon="6.28802">
        <ele>269.789</ele>
        <time>2019-09-25T12:28:26.001Z</time>
      </trkpt>
      <trkpt lat="47.78546" lon="6.2883">
        <ele>268.762</ele>
        <time>2019-09-25T12:28:29.001Z</time>
      </trkpt>
      <trkpt lat="47.78547" lon="6.28859">
        <ele>266.622</ele>
        <time>2019-09-25T12:28:32.001Z</time>
      </trkpt>
      <trkpt lat="47.78545" lon="6.28886">
        <ele>264.971</ele>
        <time>2019-09-25T12:28:35.001Z</time>
      </trkpt>
      <trkpt lat="47.78534" lon="6.28912">
        <ele>264.371</ele>
        <time>2019-09-25T12:28:38.001Z</time>
      </trkpt>
      <trkpt lat="47.7852" lon="6.2894">
        <ele>264.462</ele>
        <time>2019-09-25T12:28:41.001Z</time>
      </trkpt>
      <trkpt lat="47.78506" lon="6.28968">
        <ele>264.437</ele>
        <time>2019-09-25T12:28:44.001Z</time>
      </trkpt>
      <trkpt lat="47.78493" lon="6.28995">
        <ele>264.457</ele>
        <time>2019-09-25T12:28:47.001Z</time>
      </trkpt>
      <trkpt lat="47.78482" lon="6.29023">
        <ele>264.672</ele>
        <time>2019-09-25T12:28:50.001Z</time>
      </trkpt>
      <trkpt lat="47.78471" lon="6.29045">
        <ele>264.73</ele>
        <time>2019-09-25T12:28:53.001Z</time>
      </trkpt>
      <trkpt lat="47.78463" lon="6.29062">
        <ele>265.214</ele>
        <time>2019-09-25T12:28:56.001Z</time>
      </trkpt>
      <trkpt lat="47.78456" lon="6.29077">
        <ele>264.684</ele>
        <time>2019-09-25T12:28:59.001Z</time>
      </trkpt>
      <trkpt lat="47.78449" lon="6.2909">
        <ele>264.44</ele>
        <time>2019-09-25T14:29:02Z</time>
      </trkpt>
      <trkpt lat="47.78444" lon="6.29103">
        <ele>264.404</ele>
        <time>2019-09-25T12:29:05.001Z</time>
      </trkpt>
      <trkpt lat="47.78438" lon="6.29116">
        <ele>264.686</ele>
        <time>2019-09-25T12:29:08.001Z</time>
      </trkpt>
      <trkpt lat="47.78431" lon="6.29128">
        <ele>265.865</ele>
        <time>2019-09-25T12:29:11.001Z</time>
      </trkpt>
      <trkpt lat="47.78423" lon="6.29139">
        <ele>266.63</ele>
        <time>2019-09-25T12:29:14.001Z</time>
      </trkpt>
      <trkpt lat="47.78416" lon="6.29154">
        <ele>267.454</ele>
        <time>2019-09-25T12:29:17.001Z</time>
      </trkpt>
      <trkpt lat="47.78406" lon="6.2917">
        <ele>265.866</ele>
        <time>2019-09-25T12:29:20.001Z</time>
      </trkpt>
      <trkpt lat="47.78395" lon="6.29185">
        <ele>264.485</ele>
        <time>2019-09-25T12:29:23.001Z</time>
      </trkpt>
      <trkpt lat="47.78382" lon="6.292">
        <ele>263.977</ele>
        <time>2019-09-25T12:29:26.001Z</time>
      </trkpt>
      <trkpt lat="47.78366" lon="6.29217">
        <ele>263.637</ele>
        <time>2019-09-25T12:29:29.001Z</time>
      </trkpt>
      <trkpt lat="47.78349" lon="6.29238">
        <ele>262.152</ele>
        <time>2019-09-25T12:29:32.001Z</time>
      </trkpt>
      <trkpt lat="47.78331" lon="6.29261">
        <ele>261.328</ele>
        <time>2019-09-25T12:29:35.001Z</time>
      </trkpt>
      <trkpt lat="47.78313" lon="6.29284">
        <ele>260.587</ele>
        <time>2019-09-25T12:29:38.001Z</time>
      </trkpt>
      <trkpt lat="47.78298" lon="6.29311">
        <ele>260.13</ele>
        <time>2019-09-25T12:29:41.001Z</time>
      </trkpt>
      <trkpt lat="47.7829" lon="6.29343">
        <ele>259.493</ele>
        <time>2019-09-25T12:29:44.001Z</time>
      </trkpt>
      <trkpt lat="47.78288" lon="6.29374">
        <ele>259.141</ele>
        <time>2019-09-25T12:29:47.001Z</time>
      </trkpt>
      <trkpt lat="47.78288" lon="6.29402">
        <ele>258.915</ele>
        <time>2019-09-25T12:29:50.001Z</time>
      </trkpt>
      <trkpt lat="47.78289" lon="6.29425">
        <ele>259.148</ele>
        <time>2019-09-25T12:29:53.001Z</time>
      </trkpt>
      <trkpt lat="47.78288" lon="6.29445">
        <ele>259.19</ele>
        <time>2019-09-25T12:29:56.001Z</time>
      </trkpt>
      <trkpt lat="47.78288" lon="6.29467">
        <ele>259.103</ele>
        <time>2019-09-25T12:29:59.001Z</time>
      </trkpt>
      <trkpt lat="47.78288" lon="6.29488">
        <ele>258.542</ele>
        <time>2019-09-25T14:30:02Z</time>
      </trkpt>
      <trkpt lat="47.78288" lon="6.2951">
        <ele>258.713</ele>
        <time>2019-09-25T12:30:05.001Z</time>
      </trkpt>
      <trkpt lat="47.78288" lon="6.29532">
        <ele>258.311</ele>
        <time>2019-09-25T12:30:08.001Z</time>
      </trkpt>
      <trkpt lat="47.78289" lon="6.29555">
        <ele>257.589</ele>
        <time>2019-09-25T12:30:11.001Z</time>
      </trkpt>
      <trkpt lat="47.78289" lon="6.29582">
        <ele>256.928</ele>
        <time>2019-09-25T12:30:14.001Z</time>
      </trkpt>
      <trkpt lat="47.78288" lon="6.29615">
        <ele>256.226</ele>
        <time>2019-09-25T12:30:17.001Z</time>
      </trkpt>
      <trkpt lat="47.78287" lon="6.29647">
        <ele>255.848</ele>
        <time>2019-09-25T12:30:20.001Z</time>
      </trkpt>
      <trkpt lat="47.78286" lon="6.29679">
        <ele>255.514</ele>
        <time>2019-09-25T12:30:23.001Z</time>
      </trkpt>
      <trkpt lat="47.78285" lon="6.2971">
        <ele>255.906</ele>
        <time>2019-09-25T12:30:26.001Z</time>
      </trkpt>
      <trkpt lat="47.78285" lon="6.2974">
        <ele>255.873</ele>
        <time>2019-09-25T12:30:29.001Z</time>
      </trkpt>
      <trkpt lat="47.78284" lon="6.29771">
        <ele>256.388</ele>
        <time>2019-09-25T12:30:32.001Z</time>
      </trkpt>
      <trkpt lat="47.78283" lon="6.29801">
        <ele>256.822</ele>
        <time>2019-09-25T12:30:35.001Z</time>
      </trkpt>
      <trkpt lat="47.78282" lon="6.29831">
        <ele>256.907</ele>
        <time>2019-09-25T12:30:38.001Z</time>
      </trkpt>
      <trkpt lat="47.78281" lon="6.29857">
        <ele>256.86</ele>
        <time>2019-09-25T12:30:41.001Z</time>
      </trkpt>
      <trkpt lat="47.7828" lon="6.29883">
        <ele>256.913</ele>
        <time>2019-09-25T12:30:44.001Z</time>
      </trkpt>
      <trkpt lat="47.78279" lon="6.29908">
        <ele>256.79</ele>
        <time>2019-09-25T12:30:47.001Z</time>
      </trkpt>
      <trkpt lat="47.78279" lon="6.29934">
        <ele>256.127</ele>
        <time>2019-09-25T12:30:50.001Z</time>
      </trkpt>
      <trkpt lat="47.78278" lon="6.29957">
        <ele>256.304</ele>
        <time>2019-09-25T12:30:53.001Z</time>
      </trkpt>
      <trkpt lat="47.78277" lon="6.29979">
        <ele>256.312</ele>
        <time>2019-09-25T12:30:56.001Z</time>
      </trkpt>
      <trkpt lat="47.78276" lon="6.29999">
        <ele>256.62</ele>
        <time>2019-09-25T12:30:59.001Z</time>
      </trkpt>
      <trkpt lat="47.78276" lon="6.30019">
        <ele>257.811</ele>
        <time>2019-09-25T14:31:02Z</time>
      </trkpt>
      <trkpt lat="47.78277" lon="6.30038">
        <ele>258.513</ele>
        <time>2019-09-25T12:31:05.001Z</time>
      </trkpt>
      <trkpt lat="47.78277" lon="6.30056">
        <ele>259.01</ele>
        <time>2019-09-25T12:31:08.001Z</time>
      </trkpt>
      <trkpt lat="47.7828" lon="6.30075">
        <ele>259.113</ele>
        <time>2019-09-25T12:31:11.001Z</time>
      </trkpt>
      <trkpt lat="47.78286" lon="6.30094">
        <ele>258.13</ele>
        <time>2019-09-25T12:31:14.001Z</time>
      </trkpt>
      <trkpt lat="47.78294" lon="6.30115">
        <ele>257.15</ele>
        <time>2019-09-25T12:31:17.001Z</time>
      </trkpt>
      <trkpt lat="47.78303" lon="6.30138">
        <ele>256.722</ele>
        <time>2019-09-25T12:31:20.001Z</time>
      </trkpt>
      <trkpt lat="47.78316" lon="6.30164">
        <ele>255.269</ele>
        <time>2019-09-25T12:31:23.001Z</time>
      </trkpt>
      <trkpt lat="47.78332" lon="6.30191">
        <ele>253.613</ele>
        <time>2019-09-25T12:31:26.001Z</time>
      </trkpt>
      <trkpt lat="47.78349" lon="6.30217">
        <ele>252.605</ele>
        <time>2019-09-25T12:31:29.001Z</time>
      </trkpt>
      <trkpt lat="47.78366" lon="6.30243">
        <ele>251.781</ele>
        <time>2019-09-25T12:31:32.001Z</time>
      </trkpt>
      <trkpt lat="47.78382" lon="6.30268">
        <ele>250.999</ele>
        <time>2019-09-25T12:31:35.001Z</time>
      </trkpt>
      <trkpt lat="47.78398" lon="6.3029">
        <ele>250.339</ele>
        <time>2019-09-25T12:31:38.001Z</time>
      </trkpt>
      <trkpt lat="47.78414" lon="6.30313">
        <ele>249.905</ele>
        <time>2019-09-25T12:31:41.001Z</time>
      </trkpt>
      <trkpt lat="47.78429" lon="6.30335">
        <ele>249.299</ele>
        <time>2019-09-25T12:31:44.001Z</time>
      </trkpt>
      <trkpt lat="47.78444" lon="6.30356">
        <ele>248.574</ele>
        <time>2019-09-25T12:31:47.001Z</time>
      </trkpt>
      <trkpt lat="47.78459" lon="6.30376">
        <ele>248.185</ele>
        <time>2019-09-25T12:31:50.001Z</time>
      </trkpt>
      <trkpt lat="47.78473" lon="6.30396">
        <ele>248.214</ele>
        <time>2019-09-25T12:31:53.001Z</time>
      </trkpt>
      <trkpt lat="47.78487" lon="6.30416">
        <ele>248.184</ele>
        <time>2019-09-25T12:31:56.001Z</time>
      </trkpt>
      <trkpt lat="47.785" lon="6.30436">
        <ele>247.901</ele>
        <time>2019-09-25T12:31:59.001Z</time>
      </trkpt>
      <trkpt lat="47.78514" lon="6.30456">
        <ele>248.196</ele>
        <time>2019-09-25T14:32:02Z</time>
      </trkpt>
      <trkpt lat="47.78527" lon="6.30476">
        <ele>248.386</ele>
        <time>2019-09-25T12:32:05.001Z</time>
      </trkpt>
      <trkpt lat="47.78541" lon="6.30496">
        <ele>248.593</ele>
        <time>2019-09-25T12:32:08.001Z</time>
      </trkpt>
      <trkpt lat="47.78556" lon="6.30516">
        <ele>248.41</ele>
        <time>2019-09-25T12:32:11.001Z</time>
      </trkpt>
      <trkpt lat="47.78571" lon="6.30536">
        <ele>248.623</ele>
        <time>2019-09-25T12:32:14.001Z</time>
      </trkpt>
      <trkpt lat="47.78585" lon="6.30557">
        <ele>249.282</ele>
        <time>2019-09-25T12:32:17.001Z</time>
      </trkpt>
      <trkpt lat="47.786" lon="6.30578">
        <ele>249.707</ele>
        <time>2019-09-25T12:32:20.001Z</time>
      </trkpt>
      <trkpt lat="47.78614" lon="6.30599">
        <ele>249.793</ele>
        <time>2019-09-25T12:32:23.001Z</time>
      </trkpt>
      <trkpt lat="47.78628" lon="6.30618">
        <ele>249.571</ele>
        <time>2019-09-25T12:32:26.001Z</time>
      </trkpt>
      <trkpt lat="47.78642" lon="6.30638">
        <ele>249.641</ele>
        <time>2019-09-25T12:32:29.001Z</time>
      </trkpt>
      <trkpt lat="47.78656" lon="6.30658">
        <ele>250.078</ele>
        <time>2019-09-25T12:32:32.001Z</time>
      </trkpt>
      <trkpt lat="47.78671" lon="6.30678">
        <ele>250.584</ele>
        <time>2019-09-25T12:32:35.001Z</time>
      </trkpt>
      <trkpt lat="47.78685" lon="6.30697">
        <ele>250.611</ele>
        <time>2019-09-25T12:32:38.001Z</time>
      </trkpt>
      <trkpt lat="47.78698" lon="6.30717">
        <ele>250.983</ele>
        <time>2019-09-25T12:32:41.001Z</time>
      </trkpt>
      <trkpt lat="47.78709" lon="6.30737">
        <ele>250.726</ele>
        <time>2019-09-25T12:32:44.001Z</time>
      </trkpt>
      <trkpt lat="47.78719" lon="6.30755">
        <ele>251.018</ele>
        <time>2019-09-25T12:32:47.001Z</time>
      </trkpt>
      <trkpt lat="47.78728" lon="6.30775">
        <ele>251.21</ele>
        <time>2019-09-25T12:32:50.001Z</time>
      </trkpt>
      <trkpt lat="47.78739" lon="6.30795">
        <ele>251.146</ele>
        <time>2019-09-25T12:32:53.001Z</time>
      </trkpt>
      <trkpt lat="47.78749" lon="6.30815">
        <ele>250.949</ele>
        <time>2019-09-25T12:32:56.001Z</time>
      </trkpt>
      <trkpt lat="47.7876" lon="6.30838">
        <ele>250.998</ele>
        <time>2019-09-25T12:32:59.001Z</time>
      </trkpt>
      <trkpt lat="47.7877" lon="6.30861">
        <ele>250.651</ele>
        <time>2019-09-25T14:33:02Z</time>
      </trkpt>
      <trkpt lat="47.78781" lon="6.30884">
        <ele>250.718</ele>
        <time>2019-09-25T12:33:05.001Z</time>
      </trkpt>
      <trkpt lat="47.78791" lon="6.30908">
        <ele>251.167</ele>
        <time>2019-09-25T12:33:08.001Z</time>
      </trkpt>
      <trkpt lat="47.788" lon="6.30932">
        <ele>251.204</ele>
        <time>2019-09-25T12:33:11.001Z</time>
      </trkpt>
      <trkpt lat="47.78808" lon="6.30957">
        <ele>250.635</ele>
        <time>2019-09-25T12:33:14.001Z</time>
      </trkpt>
      <trkpt lat="47.78818" lon="6.3098">
        <ele>251.137</ele>
        <time>2019-09-25T12:33:17.001Z</time>
      </trkpt>
      <trkpt lat="47.78828" lon="6.31002">
        <ele>251.394</ele>
        <time>2019-09-25T12:33:20.001Z</time>
      </trkpt>
      <trkpt lat="47.78837" lon="6.31025">
        <ele>252.012</ele>
        <time>2019-09-25T12:33:23.001Z</time>
      </trkpt>
      <trkpt lat="47.78846" lon="6.31048">
        <ele>252.498</ele>
        <time>2019-09-25T12:33:26.001Z</time>
      </trkpt>
      <trkpt lat="47.78852" lon="6.31071">
        <ele>252.571</ele>
        <time>2019-09-25T12:33:29.001Z</time>
      </trkpt>
      <trkpt lat="47.78858" lon="6.31096">
        <ele>252.409</ele>
        <time>2019-09-25T12:33:32.001Z</time>
      </trkpt>
      <trkpt lat="47.78865" lon="6.31122">
        <ele>252.629</ele>
        <time>2019-09-25T12:33:35.001Z</time>
      </trkpt>
      <trkpt lat="47.78871" lon="6.31147">
        <ele>252.995</ele>
        <time>2019-09-25T12:33:38.001Z</time>
      </trkpt>
      <trkpt lat="47.78879" lon="6.3117">
        <ele>253.14</ele>
        <time>2019-09-25T12:33:41.001Z</time>
      </trkpt>
      <trkpt lat="47.78888" lon="6.31191">
        <ele>253.643</ele>
        <time>2019-09-25T12:33:44.001Z</time>
      </trkpt>
      <trkpt lat="47.78899" lon="6.31212">
        <ele>254.19</ele>
        <time>2019-09-25T12:33:47.001Z</time>
      </trkpt>
      <trkpt lat="47.7891" lon="6.31232">
        <ele>253.293</ele>
        <time>2019-09-25T12:33:50.001Z</time>
      </trkpt>
      <trkpt lat="47.78922" lon="6.31253">
        <ele>251.99</ele>
        <time>2019-09-25T12:33:53.001Z</time>
      </trkpt>
      <trkpt lat="47.78935" lon="6.31271">
        <ele>251.063</ele>
        <time>2019-09-25T12:33:56.001Z</time>
      </trkpt>
      <trkpt lat="47.78947" lon="6.31287">
        <ele>251.091</ele>
        <time>2019-09-25T12:33:59.001Z</time>
      </trkpt>
      <trkpt lat="47.7896" lon="6.31302">
        <ele>251.224</ele>
        <time>2019-09-25T14:34:02Z</time>
      </trkpt>
      <trkpt lat="47.78972" lon="6.31317">
        <ele>251.334</ele>
        <time>2019-09-25T12:34:05.001Z</time>
      </trkpt>
      <trkpt lat="47.78984" lon="6.31334">
        <ele>251.785</ele>
        <time>2019-09-25T12:34:08.001Z</time>
      </trkpt>
      <trkpt lat="47.78997" lon="6.31351">
        <ele>252.597</ele>
        <time>2019-09-25T12:34:11.001Z</time>
      </trkpt>
      <trkpt lat="47.7901" lon="6.31367">
        <ele>252.661</ele>
        <time>2019-09-25T12:34:14.001Z</time>
      </trkpt>
      <trkpt lat="47.79022" lon="6.31381">
        <ele>252.892</ele>
        <time>2019-09-25T12:34:17.001Z</time>
      </trkpt>
      <trkpt lat="47.79034" lon="6.31395">
        <ele>252.856</ele>
        <time>2019-09-25T12:34:20.001Z</time>
      </trkpt>
      <trkpt lat="47.79047" lon="6.31409">
        <ele>253.8</ele>
        <time>2019-09-25T12:34:23.001Z</time>
      </trkpt>
      <trkpt lat="47.79059" lon="6.31424">
        <ele>253.829</ele>
        <time>2019-09-25T12:34:26.001Z</time>
      </trkpt>
      <trkpt lat="47.79071" lon="6.31436">
        <ele>253.696</ele>
        <time>2019-09-25T12:34:29.001Z</time>
      </trkpt>
      <trkpt lat="47.79083" lon="6.31452">
        <ele>252.174</ele>
        <time>2019-09-25T12:34:32.001Z</time>
      </trkpt>
      <trkpt lat="47.79095" lon="6.31467">
        <ele>251.176</ele>
        <time>2019-09-25T12:34:35.001Z</time>
      </trkpt>
      <trkpt lat="47.79106" lon="6.3148">
        <ele>250.439</ele>
        <time>2019-09-25T12:34:38.001Z</time>
      </trkpt>
      <trkpt lat="47.79118" lon="6.31495">
        <ele>249.506</ele>
        <time>2019-09-25T12:34:41.001Z</time>
      </trkpt>
      <trkpt lat="47.7913" lon="6.31508">
        <ele>249.251</ele>
        <time>2019-09-25T12:34:44.001Z</time>
      </trkpt>
      <trkpt lat="47.79142" lon="6.3152">
        <ele>249.697</ele>
        <time>2019-09-25T12:34:47.001Z</time>
      </trkpt>
      <trkpt lat="47.79154" lon="6.31534">
        <ele>249.996</ele>
        <time>2019-09-25T12:34:50.001Z</time>
      </trkpt>
      <trkpt lat="47.79166" lon="6.31548">
        <ele>250.345</ele>
        <time>2019-09-25T12:34:53.001Z</time>
      </trkpt>
      <trkpt lat="47.79178" lon="6.31562">
        <ele>250.837</ele>
        <time>2019-09-25T12:34:56.001Z</time>
      </trkpt>
      <trkpt lat="47.7919" lon="6.31576">
        <ele>251.237</ele>
        <time>2019-09-25T12:34:59.001Z</time>
      </trkpt>
      <trkpt lat="47.79202" lon="6.3159">
        <ele>251.116</ele>
        <time>2019-09-25T14:35:02Z</time>
      </trkpt>
      <trkpt lat="47.79214" lon="6.31605">
        <ele>251.207</ele>
        <time>2019-09-25T12:35:05.001Z</time>
      </trkpt>
      <trkpt lat="47.79227" lon="6.31619">
        <ele>251.253</ele>
        <time>2019-09-25T12:35:08.001Z</time>
      </trkpt>
      <trkpt lat="47.79239" lon="6.31634">
        <ele>251.362</ele>
        <time>2019-09-25T12:35:11.001Z</time>
      </trkpt>
      <trkpt lat="47.79252" lon="6.31649">
        <ele>251.528</ele>
        <time>2019-09-25T12:35:14.001Z</time>
      </trkpt>
      <trkpt lat="47.79262" lon="6.31667">
        <ele>251.191</ele>
        <time>2019-09-25T12:35:17.001Z</time>
      </trkpt>
      <trkpt lat="47.7926" lon="6.3169">
        <ele>251.462</ele>
        <time>2019-09-25T12:35:20.001Z</time>
      </trkpt>
      <trkpt lat="47.79248" lon="6.31705">
        <ele>251.566</ele>
        <time>2019-09-25T12:35:23.001Z</time>
      </trkpt>
      <trkpt lat="47.79235" lon="6.31722">
        <ele>251.588</ele>
        <time>2019-09-25T12:35:26.001Z</time>
      </trkpt>
      <trkpt lat="47.79225" lon="6.31739">
        <ele>251.691</ele>
        <time>2019-09-25T12:35:29.001Z</time>
      </trkpt>
      <trkpt lat="47.79217" lon="6.31755">
        <ele>252.079</ele>
        <time>2019-09-25T12:35:32.001Z</time>
      </trkpt>
      <trkpt lat="47.79208" lon="6.31772">
        <ele>252.131</ele>
        <time>2019-09-25T12:35:35.001Z</time>
      </trkpt>
      <trkpt lat="47.79199" lon="6.31789">
        <ele>252.427</ele>
        <time>2019-09-25T12:35:38.001Z</time>
      </trkpt>
      <trkpt lat="47.7919" lon="6.31806">
        <ele>252.088</ele>
        <time>2019-09-25T12:35:41.001Z</time>
      </trkpt>
      <trkpt lat="47.7918" lon="6.31825">
        <ele>251.86</ele>
        <time>2019-09-25T12:35:44.001Z</time>
      </trkpt>
      <trkpt lat="47.79171" lon="6.31843">
        <ele>252.019</ele>
        <time>2019-09-25T12:35:47.001Z</time>
      </trkpt>
      <trkpt lat="47.79161" lon="6.3186">
        <ele>251.661</ele>
        <time>2019-09-25T12:35:50.001Z</time>
      </trkpt>
      <trkpt lat="47.79152" lon="6.31876">
        <ele>252.178</ele>
        <time>2019-09-25T12:35:53.001Z</time>
      </trkpt>
      <trkpt lat="47.79143" lon="6.31893">
        <ele>252.443</ele>
        <time>2019-09-25T12:35:56.001Z</time>
      </trkpt>
      <trkpt lat="47.79134" lon="6.31909">
        <ele>252.586</ele>
        <time>2019-09-25T12:35:59.001Z</time>
      </trkpt>
      <trkpt lat="47.79125" lon="6.31925">
        <ele>252.708</ele>
        <time>2019-09-25T14:36:02Z</time>
      </trkpt>
      <trkpt lat="47.79116" lon="6.3194">
        <ele>252.614</ele>
        <time>2019-09-25T12:36:05.001Z</time>
      </trkpt>
      <trkpt lat="47.79107" lon="6.31955">
        <ele>252.617</ele>
        <time>2019-09-25T12:36:08.001Z</time>
      </trkpt>
      <trkpt lat="47.79098" lon="6.31971">
        <ele>252.837</ele>
        <time>2019-09-25T12:36:11.001Z</time>
      </trkpt>
      <trkpt lat="47.79088" lon="6.31986">
        <ele>252.893</ele>
        <time>2019-09-25T12:36:14.001Z</time>
      </trkpt>
      <trkpt lat="47.79079" lon="6.32002">
        <ele>252.919</ele>
        <time>2019-09-25T12:36:17.001Z</time>
      </trkpt>
      <trkpt lat="47.79069" lon="6.32017">
        <ele>252.701</ele>
        <time>2019-09-25T12:36:20.001Z</time>
      </trkpt>
      <trkpt lat="47.7906" lon="6.32032">
        <ele>253.116</ele>
        <time>2019-09-25T12:36:23.001Z</time>
      </trkpt>
      <trkpt lat="47.7905" lon="6.32047">
        <ele>253.34</ele>
        <time>2019-09-25T12:36:26.001Z</time>
      </trkpt>
      <trkpt lat="47.79041" lon="6.32062">
        <ele>253.56</ele>
        <time>2019-09-25T12:36:29.001Z</time>
      </trkpt>
      <trkpt lat="47.79032" lon="6.32078">
        <ele>253.405</ele>
        <time>2019-09-25T12:36:32.001Z</time>
      </trkpt>
      <trkpt lat="47.79023" lon="6.32094">
        <ele>253.465</ele>
        <time>2019-09-25T12:36:35.001Z</time>
      </trkpt>
      <trkpt lat="47.79014" lon="6.32109">
        <ele>253.789</ele>
        <time>2019-09-25T12:36:38.001Z</time>
      </trkpt>
      <trkpt lat="47.79006" lon="6.32125">
        <ele>253.772</ele>
        <time>2019-09-25T12:36:41.001Z</time>
      </trkpt>
      <trkpt lat="47.78998" lon="6.32141">
        <ele>253.588</ele>
        <time>2019-09-25T12:36:44.001Z</time>
      </trkpt>
      <trkpt lat="47.78989" lon="6.32158">
        <ele>253.457</ele>
        <time>2019-09-25T12:36:47.001Z</time>
      </trkpt>
      <trkpt lat="47.7898" lon="6.32175">
        <ele>253.469</ele>
        <time>2019-09-25T12:36:50.001Z</time>
      </trkpt>
      <trkpt lat="47.78972" lon="6.32193">
        <ele>253.655</ele>
        <time>2019-09-25T12:36:53.001Z</time>
      </trkpt>
      <trkpt lat="47.78964" lon="6.32212">
        <ele>253.772</ele>
        <time>2019-09-25T12:36:56.001Z</time>
      </trkpt>
      <trkpt lat="47.78955" lon="6.32228">
        <ele>253.806</ele>
        <time>2019-09-25T12:36:59.001Z</time>
      </trkpt>
      <trkpt lat="47.78946" lon="6.32246">
        <ele>253.355</ele>
        <time>2019-09-25T14:37:02Z</time>
      </trkpt>
      <trkpt lat="47.78937" lon="6.32262">
        <ele>252.834</ele>
        <time>2019-09-25T12:37:05.001Z</time>
      </trkpt>
      <trkpt lat="47.78928" lon="6.32279">
        <ele>253.02</ele>
        <time>2019-09-25T12:37:08.001Z</time>
      </trkpt>
      <trkpt lat="47.7892" lon="6.32296">
        <ele>253.671</ele>
        <time>2019-09-25T12:37:11.001Z</time>
      </trkpt>
      <trkpt lat="47.78911" lon="6.32312">
        <ele>254.291</ele>
        <time>2019-09-25T12:37:14.001Z</time>
      </trkpt>
      <trkpt lat="47.78903" lon="6.32328">
        <ele>254.502</ele>
        <time>2019-09-25T12:37:17.001Z</time>
      </trkpt>
      <trkpt lat="47.78893" lon="6.32343">
        <ele>254.635</ele>
        <time>2019-09-25T12:37:20.001Z</time>
      </trkpt>
      <trkpt lat="47.78884" lon="6.32359">
        <ele>254.603</ele>
        <time>2019-09-25T12:37:23.001Z</time>
      </trkpt>
      <trkpt lat="47.78874" lon="6.32374">
        <ele>254.341</ele>
        <time>2019-09-25T12:37:26.001Z</time>
      </trkpt>
      <trkpt lat="47.78864" lon="6.3239">
        <ele>254.251</ele>
        <time>2019-09-25T12:37:29.001Z</time>
      </trkpt>
      <trkpt lat="47.78854" lon="6.32405">
        <ele>254.089</ele>
        <time>2019-09-25T12:37:32.001Z</time>
      </trkpt>
      <trkpt lat="47.78845" lon="6.3242">
        <ele>253.396</ele>
        <time>2019-09-25T12:37:35.001Z</time>
      </trkpt>
      <trkpt lat="47.78835" lon="6.32435">
        <ele>252.868</ele>
        <time>2019-09-25T12:37:38.001Z</time>
      </trkpt>
      <trkpt lat="47.78826" lon="6.3245">
        <ele>252.166</ele>
        <time>2019-09-25T12:37:41.001Z</time>
      </trkpt>
      <trkpt lat="47.78816" lon="6.32465">
        <ele>251.278</ele>
        <time>2019-09-25T12:37:44.001Z</time>
      </trkpt>
      <trkpt lat="47.78806" lon="6.32481">
        <ele>251.303</ele>
        <time>2019-09-25T12:37:47.001Z</time>
      </trkpt>
      <trkpt lat="47.78797" lon="6.32496">
        <ele>251.476</ele>
        <time>2019-09-25T12:37:50.001Z</time>
      </trkpt>
      <trkpt lat="47.78787" lon="6.32511">
        <ele>251.278</ele>
        <time>2019-09-25T12:37:53.001Z</time>
      </trkpt>
      <trkpt lat="47.78778" lon="6.32528">
        <ele>251.123</ele>
        <time>2019-09-25T12:37:56.001Z</time>
      </trkpt>
      <trkpt lat="47.78769" lon="6.32543">
        <ele>251.204</ele>
        <time>2019-09-25T12:37:59.001Z</time>
      </trkpt>
      <trkpt lat="47.7876" lon="6.32559">
        <ele>251.507</ele>
        <time>2019-09-25T14:38:02Z</time>
      </trkpt>
      <trkpt lat="47.78751" lon="6.32574">
        <ele>251.892</ele>
        <time>2019-09-25T12:38:05.001Z</time>
      </trkpt>
      <trkpt lat="47.78741" lon="6.32591">
        <ele>252.287</ele>
        <time>2019-09-25T12:38:08.001Z</time>
      </trkpt>
      <trkpt lat="47.78731" lon="6.32607">
        <ele>252.532</ele>
        <time>2019-09-25T12:38:11.001Z</time>
      </trkpt>
      <trkpt lat="47.78721" lon="6.32623">
        <ele>252.813</ele>
        <time>2019-09-25T12:38:14.001Z</time>
      </trkpt>
      <trkpt lat="47.78712" lon="6.32639">
        <ele>252.714</ele>
        <time>2019-09-25T12:38:17.001Z</time>
      </trkpt>
      <trkpt lat="47.78702" lon="6.32654">
        <ele>252.585</ele>
        <time>2019-09-25T12:38:20.001Z</time>
      </trkpt>
      <trkpt lat="47.78692" lon="6.3267">
        <ele>252.686</ele>
        <time>2019-09-25T12:38:23.001Z</time>
      </trkpt>
      <trkpt lat="47.78683" lon="6.32686">
        <ele>252.755</ele>
        <time>2019-09-25T12:38:26.001Z</time>
      </trkpt>
      <trkpt lat="47.78674" lon="6.32702">
        <ele>252.906</ele>
        <time>2019-09-25T12:38:29.001Z</time>
      </trkpt>
      <trkpt lat="47.78665" lon="6.32717">
        <ele>252.846</ele>
        <time>2019-09-25T12:38:32.001Z</time>
      </trkpt>
      <trkpt lat="47.78657" lon="6.32733">
        <ele>252.687</ele>
        <time>2019-09-25T12:38:35.001Z</time>
      </trkpt>
      <trkpt lat="47.78649" lon="6.3275">
        <ele>252.646</ele>
        <time>2019-09-25T12:38:38.001Z</time>
      </trkpt>
      <trkpt lat="47.7864" lon="6.32767">
        <ele>253.005</ele>
        <time>2019-09-25T12:38:41.001Z</time>
      </trkpt>
      <trkpt lat="47.78633" lon="6.32784">
        <ele>253.617</ele>
        <time>2019-09-25T12:38:44.001Z</time>
      </trkpt>
      <trkpt lat="47.78625" lon="6.32802">
        <ele>253.769</ele>
        <time>2019-09-25T12:38:47.001Z</time>
      </trkpt>
      <trkpt lat="47.78617" lon="6.3282">
        <ele>254.068</ele>
        <time>2019-09-25T12:38:50.001Z</time>
      </trkpt>
      <trkpt lat="47.78608" lon="6.32837">
        <ele>254.187</ele>
        <time>2019-09-25T12:38:53.001Z</time>
      </trkpt>
      <trkpt lat="47.786" lon="6.32855">
        <ele>254.431</ele>
        <time>2019-09-25T12:38:56.001Z</time>
      </trkpt>
      <trkpt lat="47.78591" lon="6.32872">
        <ele>254.542</ele>
        <time>2019-09-25T12:38:59.001Z</time>
      </trkpt>
      <trkpt lat="47.78582" lon="6.3289">
        <ele>254.556</ele>
        <time>2019-09-25T14:39:02Z</time>
      </trkpt>
      <trkpt lat="47.78574" lon="6.32907">
        <ele>254.738</ele>
        <time>2019-09-25T12:39:05.001Z</time>
      </trkpt>
      <trkpt lat="47.78565" lon="6.32924">
        <ele>254.957</ele>
        <time>2019-09-25T12:39:08.001Z</time>
      </trkpt>
      <trkpt lat="47.78555" lon="6.3294">
        <ele>255.263</ele>
        <time>2019-09-25T12:39:11.001Z</time>
      </trkpt>
      <trkpt lat="47.78546" lon="6.32955">
        <ele>255.232</ele>
        <time>2019-09-25T12:39:14.001Z</time>
      </trkpt>
      <trkpt lat="47.78535" lon="6.3297">
        <ele>255.326</ele>
        <time>2019-09-25T12:39:17.001Z</time>
      </trkpt>
      <trkpt lat="47.78525" lon="6.32985">
        <ele>255.476</ele>
        <time>2019-09-25T12:39:20.001Z</time>
      </trkpt>
      <trkpt lat="47.78516" lon="6.32999">
        <ele>255.982</ele>
        <time>2019-09-25T12:39:23.001Z</time>
      </trkpt>
      <trkpt lat="47.78507" lon="6.33015">
        <ele>256.346</ele>
        <time>2019-09-25T12:39:26.001Z</time>
      </trkpt>
      <trkpt lat="47.78498" lon="6.33031">
        <ele>257.101</ele>
        <time>2019-09-25T12:39:29.001Z</time>
      </trkpt>
      <trkpt lat="47.78488" lon="6.33046">
        <ele>257.557</ele>
        <time>2019-09-25T12:39:32.001Z</time>
      </trkpt>
      <trkpt lat="47.78477" lon="6.33062">
        <ele>258.231</ele>
        <time>2019-09-25T12:39:35.001Z</time>
      </trkpt>
      <trkpt lat="47.78467" lon="6.33078">
        <ele>258.381</ele>
        <time>2019-09-25T12:39:38.001Z</time>
      </trkpt>
      <trkpt lat="47.78457" lon="6.33094">
        <ele>258.331</ele>
        <time>2019-09-25T12:39:41.001Z</time>
      </trkpt>
      <trkpt lat="47.78446" lon="6.33109">
        <ele>258.325</ele>
        <time>2019-09-25T12:39:44.001Z</time>
      </trkpt>
      <trkpt lat="47.78437" lon="6.33125">
        <ele>258.4</ele>
        <time>2019-09-25T12:39:47.001Z</time>
      </trkpt>
      <trkpt lat="47.78427" lon="6.33142">
        <ele>258.633</ele>
        <time>2019-09-25T12:39:50.001Z</time>
      </trkpt>
      <trkpt lat="47.78417" lon="6.33159">
        <ele>258.831</ele>
        <time>2019-09-25T12:39:53.001Z</time>
      </trkpt>
      <trkpt lat="47.78408" lon="6.33177">
        <ele>259.005</ele>
        <time>2019-09-25T12:39:56.001Z</time>
      </trkpt>
      <trkpt lat="47.784" lon="6.33194">
        <ele>259.383</ele>
        <time>2019-09-25T12:39:59.001Z</time>
      </trkpt>
      <trkpt lat="47.78391" lon="6.33211">
        <ele>260.029</ele>
        <time>2019-09-25T14:40:02Z</time>
      </trkpt>
      <trkpt lat="47.78383" lon="6.3323">
        <ele>260.051</ele>
        <time>2019-09-25T12:40:05.001Z</time>
      </trkpt>
      <trkpt lat="47.78374" lon="6.33248">
        <ele>260.187</ele>
        <time>2019-09-25T12:40:08.001Z</time>
      </trkpt>
      <trkpt lat="47.78366" lon="6.33267">
        <ele>260.062</ele>
        <time>2019-09-25T12:40:11.001Z</time>
      </trkpt>
      <trkpt lat="47.78357" lon="6.33286">
        <ele>259.131</ele>
        <time>2019-09-25T12:40:14.001Z</time>
      </trkpt>
      <trkpt lat="47.78348" lon="6.33304">
        <ele>258.859</ele>
        <time>2019-09-25T12:40:17.001Z</time>
      </trkpt>
      <trkpt lat="47.78339" lon="6.33321">
        <ele>258.829</ele>
        <time>2019-09-25T12:40:20.001Z</time>
      </trkpt>
      <trkpt lat="47.7833" lon="6.33339">
        <ele>259.407</ele>
        <time>2019-09-25T12:40:23.001Z</time>
      </trkpt>
      <trkpt lat="47.78322" lon="6.33356">
        <ele>259.936</ele>
        <time>2019-09-25T12:40:26.001Z</time>
      </trkpt>
      <trkpt lat="47.78314" lon="6.33374">
        <ele>260.349</ele>
        <time>2019-09-25T12:40:29.001Z</time>
      </trkpt>
      <trkpt lat="47.78304" lon="6.33392">
        <ele>261.37</ele>
        <time>2019-09-25T12:40:32.001Z</time>
      </trkpt>
      <trkpt lat="47.78294" lon="6.3341">
        <ele>261.393</ele>
        <time>2019-09-25T12:40:35.001Z</time>
      </trkpt>
      <trkpt lat="47.78283" lon="6.33428">
        <ele>261.183</ele>
        <time>2019-09-25T12:40:38.001Z</time>
      </trkpt>
      <trkpt lat="47.78273" lon="6.33445">
        <ele>260.842</ele>
        <time>2019-09-25T12:40:41.001Z</time>
      </trkpt>
      <trkpt lat="47.78263" lon="6.33461">
        <ele>261.166</ele>
        <time>2019-09-25T12:40:44.001Z</time>
      </trkpt>
      <trkpt lat="47.78252" lon="6.33475">
        <ele>261.529</ele>
        <time>2019-09-25T12:40:47.001Z</time>
      </trkpt>
      <trkpt lat="47.78241" lon="6.33487">
        <ele>262.074</ele>
        <time>2019-09-25T12:40:50.001Z</time>
      </trkpt>
      <trkpt lat="47.78229" lon="6.335">
        <ele>262.174</ele>
        <time>2019-09-25T12:40:53.001Z</time>
      </trkpt>
      <trkpt lat="47.78219" lon="6.33514">
        <ele>262.265</ele>
        <time>2019-09-25T12:40:56.001Z</time>
      </trkpt>
      <trkpt lat="47.78207" lon="6.33528">
        <ele>261.914</ele>
        <time>2019-09-25T12:40:59.001Z</time>
      </trkpt>
      <trkpt lat="47.78196" lon="6.33543">
        <ele>261.232</ele>
        <time>2019-09-25T14:41:02Z</time>
      </trkpt>
      <trkpt lat="47.78183" lon="6.33559">
        <ele>261.377</ele>
        <time>2019-09-25T12:41:05.001Z</time>
      </trkpt>
      <trkpt lat="47.78172" lon="6.33574">
        <ele>261.339</ele>
        <time>2019-09-25T12:41:08.001Z</time>
      </trkpt>
      <trkpt lat="47.78161" lon="6.33589">
        <ele>261.013</ele>
        <time>2019-09-25T12:41:11.001Z</time>
      </trkpt>
      <trkpt lat="47.7815" lon="6.33604">
        <ele>260.599</ele>
        <time>2019-09-25T12:41:14.001Z</time>
      </trkpt>
      <trkpt lat="47.78139" lon="6.33619">
        <ele>260.301</ele>
        <time>2019-09-25T12:41:17.001Z</time>
      </trkpt>
      <trkpt lat="47.78129" lon="6.33634">
        <ele>259.582</ele>
        <time>2019-09-25T12:41:20.001Z</time>
      </trkpt>
      <trkpt lat="47.78119" lon="6.3365">
        <ele>259.436</ele>
        <time>2019-09-25T12:41:23.001Z</time>
      </trkpt>
      <trkpt lat="47.78107" lon="6.33665">
        <ele>258.553</ele>
        <time>2019-09-25T12:41:26.001Z</time>
      </trkpt>
      <trkpt lat="47.78097" lon="6.33683">
        <ele>258.08</ele>
        <time>2019-09-25T12:41:29.001Z</time>
      </trkpt>
      <trkpt lat="47.78087" lon="6.33701">
        <ele>257.923</ele>
        <time>2019-09-25T12:41:32.001Z</time>
      </trkpt>
      <trkpt lat="47.78077" lon="6.33717">
        <ele>257.917</ele>
        <time>2019-09-25T12:41:35.001Z</time>
      </trkpt>
      <trkpt lat="47.78067" lon="6.33734">
        <ele>257.949</ele>
        <time>2019-09-25T12:41:38.001Z</time>
      </trkpt>
      <trkpt lat="47.78057" lon="6.33749">
        <ele>257.918</ele>
        <time>2019-09-25T12:41:41.001Z</time>
      </trkpt>
      <trkpt lat="47.78047" lon="6.33765">
        <ele>258.26</ele>
        <time>2019-09-25T12:41:44.001Z</time>
      </trkpt>
      <trkpt lat="47.78036" lon="6.33781">
        <ele>258.576</ele>
        <time>2019-09-25T12:41:47.001Z</time>
      </trkpt>
      <trkpt lat="47.78025" lon="6.33796">
        <ele>258.681</ele>
        <time>2019-09-25T12:41:50.001Z</time>
      </trkpt>
      <trkpt lat="47.78015" lon="6.33812">
        <ele>258.894</ele>
        <time>2019-09-25T12:41:53.001Z</time>
      </trkpt>
      <trkpt lat="47.78005" lon="6.33829">
        <ele>259.094</ele>
        <time>2019-09-25T12:41:56.001Z</time>
      </trkpt>
      <trkpt lat="47.77995" lon="6.33847">
        <ele>258.698</ele>
        <time>2019-09-25T12:41:59.001Z</time>
      </trkpt>
      <trkpt lat="47.77985" lon="6.33865">
        <ele>258.664</ele>
        <time>2019-09-25T14:42:02Z</time>
      </trkpt>
      <trkpt lat="47.77975" lon="6.33883">
        <ele>258.388</ele>
        <time>2019-09-25T12:42:05.001Z</time>
      </trkpt>
      <trkpt lat="47.77965" lon="6.33901">
        <ele>258.565</ele>
        <time>2019-09-25T12:42:08.001Z</time>
      </trkpt>
      <trkpt lat="47.77956" lon="6.33919">
        <ele>259.781</ele>
        <time>2019-09-25T12:42:11.001Z</time>
      </trkpt>
      <trkpt lat="47.77946" lon="6.33936">
        <ele>259.735</ele>
        <time>2019-09-25T12:42:14.001Z</time>
      </trkpt>
      <trkpt lat="47.77936" lon="6.33953">
        <ele>259.715</ele>
        <time>2019-09-25T12:42:17.001Z</time>
      </trkpt>
      <trkpt lat="47.77926" lon="6.33971">
        <ele>259.94</ele>
        <time>2019-09-25T12:42:20.001Z</time>
      </trkpt>
      <trkpt lat="47.77917" lon="6.33991">
        <ele>260.331</ele>
        <time>2019-09-25T12:42:23.001Z</time>
      </trkpt>
      <trkpt lat="47.77907" lon="6.34008">
        <ele>260.061</ele>
        <time>2019-09-25T12:42:26.001Z</time>
      </trkpt>
      <trkpt lat="47.77898" lon="6.34024">
        <ele>260.159</ele>
        <time>2019-09-25T12:42:29.001Z</time>
      </trkpt>
      <trkpt lat="47.7789" lon="6.34041">
        <ele>260.543</ele>
        <time>2019-09-25T12:42:32.001Z</time>
      </trkpt>
      <trkpt lat="47.77882" lon="6.34057">
        <ele>261.458</ele>
        <time>2019-09-25T12:42:35.001Z</time>
      </trkpt>
      <trkpt lat="47.77876" lon="6.34075">
        <ele>261.779</ele>
        <time>2019-09-25T12:42:38.001Z</time>
      </trkpt>
      <trkpt lat="47.77868" lon="6.34093">
        <ele>261.895</ele>
        <time>2019-09-25T12:42:41.001Z</time>
      </trkpt>
      <trkpt lat="47.77857" lon="6.34109">
        <ele>261.222</ele>
        <time>2019-09-25T12:42:44.001Z</time>
      </trkpt>
      <trkpt lat="47.77846" lon="6.34122">
        <ele>261.649</ele>
        <time>2019-09-25T12:42:47.001Z</time>
      </trkpt>
      <trkpt lat="47.77832" lon="6.3413">
        <ele>261.513</ele>
        <time>2019-09-25T12:42:50.001Z</time>
      </trkpt>
      <trkpt lat="47.77817" lon="6.34137">
        <ele>261.514</ele>
        <time>2019-09-25T12:42:53.001Z</time>
      </trkpt>
      <trkpt lat="47.77803" lon="6.34143">
        <ele>260.977</ele>
        <time>2019-09-25T12:42:56.001Z</time>
      </trkpt>
      <trkpt lat="47.77789" lon="6.3415">
        <ele>260.698</ele>
        <time>2019-09-25T12:42:59.001Z</time>
      </trkpt>
      <trkpt lat="47.77774" lon="6.34156">
        <ele>260.522</ele>
        <time>2019-09-25T14:43:02Z</time>
      </trkpt>
      <trkpt lat="47.77759" lon="6.34162">
        <ele>260.379</ele>
        <time>2019-09-25T12:43:05.001Z</time>
      </trkpt>
      <trkpt lat="47.77744" lon="6.34169">
        <ele>260.105</ele>
        <time>2019-09-25T12:43:08.001Z</time>
      </trkpt>
      <trkpt lat="47.77729" lon="6.34177">
        <ele>260.187</ele>
        <time>2019-09-25T12:43:11.001Z</time>
      </trkpt>
      <trkpt lat="47.77716" lon="6.34186">
        <ele>261.283</ele>
        <time>2019-09-25T12:43:14.001Z</time>
      </trkpt>
      <trkpt lat="47.77707" lon="6.34203">
        <ele>261.893</ele>
        <time>2019-09-25T12:43:17.001Z</time>
      </trkpt>
      <trkpt lat="47.7771" lon="6.34227">
        <ele>262.325</ele>
        <time>2019-09-25T12:43:20.001Z</time>
      </trkpt>
      <trkpt lat="47.77713" lon="6.3425">
        <ele>262.157</ele>
        <time>2019-09-25T12:43:23.001Z</time>
      </trkpt>
      <trkpt lat="47.77713" lon="6.34269">
        <ele>261.94</ele>
        <time>2019-09-25T12:43:26.001Z</time>
      </trkpt>
      <trkpt lat="47.77715" lon="6.34287">
        <ele>261.857</ele>
        <time>2019-09-25T12:43:29.001Z</time>
      </trkpt>
      <trkpt lat="47.77717" lon="6.34306">
        <ele>262.106</ele>
        <time>2019-09-25T12:43:32.001Z</time>
      </trkpt>
      <trkpt lat="47.77719" lon="6.34325">
        <ele>261.838</ele>
        <time>2019-09-25T12:43:35.001Z</time>
      </trkpt>
      <trkpt lat="47.77719" lon="6.34346">
        <ele>261.224</ele>
        <time>2019-09-25T12:43:38.001Z</time>
      </trkpt>
      <trkpt lat="47.7772" lon="6.34367">
        <ele>260.723</ele>
        <time>2019-09-25T12:43:41.001Z</time>
      </trkpt>
      <trkpt lat="47.77723" lon="6.34388">
        <ele>260.272</ele>
        <time>2019-09-25T12:43:44.001Z</time>
      </trkpt>
      <trkpt lat="47.77727" lon="6.34409">
        <ele>260.963</ele>
        <time>2019-09-25T12:43:47.001Z</time>
      </trkpt>
      <trkpt lat="47.77732" lon="6.34429">
        <ele>261.72</ele>
        <time>2019-09-25T12:43:50.001Z</time>
      </trkpt>
      <trkpt lat="47.77738" lon="6.34449">
        <ele>262.778</ele>
        <time>2019-09-25T12:43:53.001Z</time>
      </trkpt>
      <trkpt lat="47.77744" lon="6.34467">
        <ele>264.002</ele>
        <time>2019-09-25T12:43:56.001Z</time>
      </trkpt>
      <trkpt lat="47.77747" lon="6.34483">
        <ele>264.865</ele>
        <time>2019-09-25T12:43:59.001Z</time>
      </trkpt>
      <trkpt lat="47.77748" lon="6.34498">
        <ele>263.769</ele>
        <time>2019-09-25T14:44:02Z</time>
      </trkpt>
      <trkpt lat="47.77748" lon="6.34499">
        <ele>264.343</ele>
        <time>2019-09-25T12:44:05.001Z</time>
      </trkpt>
      <trkpt lat="47.77748" lon="6.34499">
        <ele>264.343</ele>
        <time>2019-09-25T12:44:38.001Z</time>
      </trkpt>
      <trkpt lat="47.77749" lon="6.34502">
        <ele>263.916</ele>
        <time>2019-09-25T12:44:41.001Z</time>
      </trkpt>
      <trkpt lat="47.77758" lon="6.34512">
        <ele>261.798</ele>
        <time>2019-09-25T12:44:47.001Z</time>
      </trkpt>
      <trkpt lat="47.77764" lon="6.34522">
        <ele>261.775</ele>
        <time>2019-09-25T12:44:50.001Z</time>
      </trkpt>
      <trkpt lat="47.77765" lon="6.34542">
        <ele>261.731</ele>
        <time>2019-09-25T12:44:53.001Z</time>
      </trkpt>
      <trkpt lat="47.77764" lon="6.34562">
        <ele>261.532</ele>
        <time>2019-09-25T12:44:56.001Z</time>
      </trkpt>
      <trkpt lat="47.77763" lon="6.34582">
        <ele>261.18</ele>
        <time>2019-09-25T12:44:59.001Z</time>
      </trkpt>
      <trkpt lat="47.77761" lon="6.34604">
        <ele>261.305</ele>
        <time>2019-09-25T14:45:02Z</time>
      </trkpt>
      <trkpt lat="47.77758" lon="6.34624">
        <ele>262.052</ele>
        <time>2019-09-25T12:45:05.001Z</time>
      </trkpt>
      <trkpt lat="47.77756" lon="6.34643">
        <ele>262.721</ele>
        <time>2019-09-25T12:45:08.001Z</time>
      </trkpt>
      <trkpt lat="47.77754" lon="6.34661">
        <ele>263.592</ele>
        <time>2019-09-25T12:45:11.001Z</time>
      </trkpt>
      <trkpt lat="47.77754" lon="6.3468">
        <ele>264.737</ele>
        <time>2019-09-25T12:45:14.001Z</time>
      </trkpt>
      <trkpt lat="47.77754" lon="6.34698">
        <ele>265.413</ele>
        <time>2019-09-25T12:45:17.001Z</time>
      </trkpt>
      <trkpt lat="47.77753" lon="6.34717">
        <ele>266.231</ele>
        <time>2019-09-25T12:45:20.001Z</time>
      </trkpt>
      <trkpt lat="47.77753" lon="6.34736">
        <ele>266.92</ele>
        <time>2019-09-25T12:45:23.001Z</time>
      </trkpt>
      <trkpt lat="47.77751" lon="6.34755">
        <ele>267.165</ele>
        <time>2019-09-25T12:45:26.001Z</time>
      </trkpt>
      <trkpt lat="47.77748" lon="6.34774">
        <ele>267.161</ele>
        <time>2019-09-25T12:45:29.001Z</time>
      </trkpt>
      <trkpt lat="47.77744" lon="6.34792">
        <ele>267.275</ele>
        <time>2019-09-25T12:45:32.001Z</time>
      </trkpt>
      <trkpt lat="47.77741" lon="6.3481">
        <ele>267.345</ele>
        <time>2019-09-25T12:45:35.001Z</time>
      </trkpt>
      <trkpt lat="47.77738" lon="6.34829">
        <ele>267.294</ele>
        <time>2019-09-25T12:45:38.001Z</time>
      </trkpt>
      <trkpt lat="47.77734" lon="6.34848">
        <ele>267.387</ele>
        <time>2019-09-25T12:45:41.001Z</time>
      </trkpt>
      <trkpt lat="47.77729" lon="6.34865">
        <ele>267.327</ele>
        <time>2019-09-25T12:45:44.001Z</time>
      </trkpt>
      <trkpt lat="47.77726" lon="6.34882">
        <ele>267.13</ele>
        <time>2019-09-25T12:45:47.001Z</time>
      </trkpt>
      <trkpt lat="47.77723" lon="6.34901">
        <ele>267.142</ele>
        <time>2019-09-25T12:45:50.001Z</time>
      </trkpt>
      <trkpt lat="47.77721" lon="6.34919">
        <ele>266.708</ele>
        <time>2019-09-25T12:45:53.001Z</time>
      </trkpt>
      <trkpt lat="47.77719" lon="6.34937">
        <ele>267.951</ele>
        <time>2019-09-25T12:45:56.001Z</time>
      </trkpt>
      <trkpt lat="47.77719" lon="6.34954">
        <ele>268.023</ele>
        <time>2019-09-25T12:45:59.001Z</time>
      </trkpt>
      <trkpt lat="47.77721" lon="6.34971">
        <ele>268.16</ele>
        <time>2019-09-25T14:46:02Z</time>
      </trkpt>
      <trkpt lat="47.77723" lon="6.34989">
        <ele>268.052</ele>
        <time>2019-09-25T12:46:05.001Z</time>
      </trkpt>
      <trkpt lat="47.77725" lon="6.35005">
        <ele>267.531</ele>
        <time>2019-09-25T12:46:08.001Z</time>
      </trkpt>
      <trkpt lat="47.77724" lon="6.35023">
        <ele>267.883</ele>
        <time>2019-09-25T12:46:11.001Z</time>
      </trkpt>
      <trkpt lat="47.77724" lon="6.35042">
        <ele>267.366</ele>
        <time>2019-09-25T12:46:14.001Z</time>
      </trkpt>
      <trkpt lat="47.77723" lon="6.35062">
        <ele>267.095</ele>
        <time>2019-09-25T12:46:17.001Z</time>
      </trkpt>
      <trkpt lat="47.7772" lon="6.3508">
        <ele>266.92</ele>
        <time>2019-09-25T12:46:20.001Z</time>
      </trkpt>
      <trkpt lat="47.77717" lon="6.35098">
        <ele>266.401</ele>
        <time>2019-09-25T12:46:23.001Z</time>
      </trkpt>
      <trkpt lat="47.77714" lon="6.35115">
        <ele>265.728</ele>
        <time>2019-09-25T12:46:26.001Z</time>
      </trkpt>
      <trkpt lat="47.77711" lon="6.35132">
        <ele>264.765</ele>
        <time>2019-09-25T12:46:29.001Z</time>
      </trkpt>
      <trkpt lat="47.77708" lon="6.3515">
        <ele>263.496</ele>
        <time>2019-09-25T12:46:32.001Z</time>
      </trkpt>
      <trkpt lat="47.77704" lon="6.35167">
        <ele>262.024</ele>
        <time>2019-09-25T12:46:35.001Z</time>
      </trkpt>
      <trkpt lat="47.777" lon="6.35184">
        <ele>260.909</ele>
        <time>2019-09-25T12:46:38.001Z</time>
      </trkpt>
      <trkpt lat="47.77697" lon="6.35201">
        <ele>260.423</ele>
        <time>2019-09-25T12:46:41.001Z</time>
      </trkpt>
      <trkpt lat="47.77692" lon="6.35216">
        <ele>261.351</ele>
        <time>2019-09-25T12:46:44.001Z</time>
      </trkpt>
      <trkpt lat="47.77687" lon="6.35233">
        <ele>261.492</ele>
        <time>2019-09-25T12:46:47.001Z</time>
      </trkpt>
      <trkpt lat="47.77681" lon="6.35249">
        <ele>261.478</ele>
        <time>2019-09-25T12:46:50.001Z</time>
      </trkpt>
      <trkpt lat="47.77674" lon="6.35267">
        <ele>262.03</ele>
        <time>2019-09-25T12:46:53.001Z</time>
      </trkpt>
      <trkpt lat="47.77668" lon="6.35284">
        <ele>261.761</ele>
        <time>2019-09-25T12:46:56.001Z</time>
      </trkpt>
      <trkpt lat="47.77662" lon="6.35301">
        <ele>261.401</ele>
        <time>2019-09-25T12:46:59.001Z</time>
      </trkpt>
      <trkpt lat="47.77656" lon="6.35318">
        <ele>261.159</ele>
        <time>2019-09-25T14:47:02Z</time>
      </trkpt>
      <trkpt lat="47.7765" lon="6.35333">
        <ele>261.253</ele>
        <time>2019-09-25T12:47:05.001Z</time>
      </trkpt>
      <trkpt lat="47.77643" lon="6.35348">
        <ele>261.212</ele>
        <time>2019-09-25T12:47:08.001Z</time>
      </trkpt>
      <trkpt lat="47.77635" lon="6.35364">
        <ele>261.208</ele>
        <time>2019-09-25T12:47:11.001Z</time>
      </trkpt>
      <trkpt lat="47.77627" lon="6.35381">
        <ele>260.883</ele>
        <time>2019-09-25T12:47:14.001Z</time>
      </trkpt>
      <trkpt lat="47.77619" lon="6.354">
        <ele>261.077</ele>
        <time>2019-09-25T12:47:17.001Z</time>
      </trkpt>
      <trkpt lat="47.77609" lon="6.35417">
        <ele>261.597</ele>
        <time>2019-09-25T12:47:20.001Z</time>
      </trkpt>
      <trkpt lat="47.776" lon="6.35434">
        <ele>261.077</ele>
        <time>2019-09-25T12:47:23.001Z</time>
      </trkpt>
      <trkpt lat="47.77592" lon="6.35451">
        <ele>260.488</ele>
        <time>2019-09-25T12:47:26.001Z</time>
      </trkpt>
      <trkpt lat="47.77583" lon="6.35468">
        <ele>260.103</ele>
        <time>2019-09-25T12:47:29.001Z</time>
      </trkpt>
      <trkpt lat="47.77575" lon="6.35486">
        <ele>259.904</ele>
        <time>2019-09-25T12:47:32.001Z</time>
      </trkpt>
      <trkpt lat="47.77567" lon="6.35502">
        <ele>259.758</ele>
        <time>2019-09-25T12:47:35.001Z</time>
      </trkpt>
      <trkpt lat="47.7756" lon="6.35519">
        <ele>259.301</ele>
        <time>2019-09-25T12:47:38.001Z</time>
      </trkpt>
      <trkpt lat="47.77552" lon="6.35537">
        <ele>259.43</ele>
        <time>2019-09-25T12:47:41.001Z</time>
      </trkpt>
      <trkpt lat="47.77546" lon="6.35555">
        <ele>259.525</ele>
        <time>2019-09-25T12:47:44.001Z</time>
      </trkpt>
      <trkpt lat="47.77538" lon="6.35571">
        <ele>259.379</ele>
        <time>2019-09-25T12:47:47.001Z</time>
      </trkpt>
      <trkpt lat="47.77531" lon="6.35588">
        <ele>259.164</ele>
        <time>2019-09-25T12:47:50.001Z</time>
      </trkpt>
      <trkpt lat="47.77524" lon="6.35604">
        <ele>258.694</ele>
        <time>2019-09-25T12:47:53.001Z</time>
      </trkpt>
      <trkpt lat="47.77516" lon="6.3562">
        <ele>258.282</ele>
        <time>2019-09-25T12:47:56.001Z</time>
      </trkpt>
      <trkpt lat="47.77509" lon="6.35635">
        <ele>257.722</ele>
        <time>2019-09-25T12:47:59.001Z</time>
      </trkpt>
      <trkpt lat="47.77503" lon="6.3565">
        <ele>257.517</ele>
        <time>2019-09-25T14:48:02Z</time>
      </trkpt>
      <trkpt lat="47.77496" lon="6.35667">
        <ele>257.42</ele>
        <time>2019-09-25T12:48:05.001Z</time>
      </trkpt>
      <trkpt lat="47.77489" lon="6.35684">
        <ele>257.2</ele>
        <time>2019-09-25T12:48:08.001Z</time>
      </trkpt>
      <trkpt lat="47.77482" lon="6.357">
        <ele>256.979</ele>
        <time>2019-09-25T12:48:11.001Z</time>
      </trkpt>
      <trkpt lat="47.77475" lon="6.35716">
        <ele>257.145</ele>
        <time>2019-09-25T12:48:14.001Z</time>
      </trkpt>
      <trkpt lat="47.77469" lon="6.35731">
        <ele>257.136</ele>
        <time>2019-09-25T12:48:17.001Z</time>
      </trkpt>
      <trkpt lat="47.77462" lon="6.35747">
        <ele>257.73</ele>
        <time>2019-09-25T12:48:20.001Z</time>
      </trkpt>
      <trkpt lat="47.77456" lon="6.35764">
        <ele>257.911</ele>
        <time>2019-09-25T12:48:23.001Z</time>
      </trkpt>
      <trkpt lat="47.77451" lon="6.35781">
        <ele>258.067</ele>
        <time>2019-09-25T12:48:26.001Z</time>
      </trkpt>
      <trkpt lat="47.77447" lon="6.35798">
        <ele>258.227</ele>
        <time>2019-09-25T12:48:29.001Z</time>
      </trkpt>
      <trkpt lat="47.77444" lon="6.35817">
        <ele>258.501</ele>
        <time>2019-09-25T12:48:32.001Z</time>
      </trkpt>
      <trkpt lat="47.77443" lon="6.35836">
        <ele>258.851</ele>
        <time>2019-09-25T12:48:35.001Z</time>
      </trkpt>
      <trkpt lat="47.77444" lon="6.35854">
        <ele>259.145</ele>
        <time>2019-09-25T12:48:38.001Z</time>
      </trkpt>
      <trkpt lat="47.77446" lon="6.35873">
        <ele>258.993</ele>
        <time>2019-09-25T12:48:41.001Z</time>
      </trkpt>
      <trkpt lat="47.77449" lon="6.35892">
        <ele>258.886</ele>
        <time>2019-09-25T12:48:44.001Z</time>
      </trkpt>
      <trkpt lat="47.77454" lon="6.3591">
        <ele>258.934</ele>
        <time>2019-09-25T12:48:47.001Z</time>
      </trkpt>
      <trkpt lat="47.77459" lon="6.35929">
        <ele>259.362</ele>
        <time>2019-09-25T12:48:50.001Z</time>
      </trkpt>
      <trkpt lat="47.77465" lon="6.35947">
        <ele>259.538</ele>
        <time>2019-09-25T12:48:53.001Z</time>
      </trkpt>
      <trkpt lat="47.7747" lon="6.35966">
        <ele>260.311</ele>
        <time>2019-09-25T12:48:56.001Z</time>
      </trkpt>
      <trkpt lat="47.77471" lon="6.35988">
        <ele>260.405</ele>
        <time>2019-09-25T12:48:59.001Z</time>
      </trkpt>
      <trkpt lat="47.77469" lon="6.36008">
        <ele>259.867</ele>
        <time>2019-09-25T14:49:02Z</time>
      </trkpt>
      <trkpt lat="47.77461" lon="6.36025">
        <ele>259.688</ele>
        <time>2019-09-25T12:49:05.001Z</time>
      </trkpt>
      <trkpt lat="47.7745" lon="6.36036">
        <ele>260.562</ele>
        <time>2019-09-25T12:49:08.001Z</time>
      </trkpt>
      <trkpt lat="47.77438" lon="6.36045">
        <ele>261.579</ele>
        <time>2019-09-25T12:49:11.001Z</time>
      </trkpt>
      <trkpt lat="47.77427" lon="6.36055">
        <ele>261.851</ele>
        <time>2019-09-25T12:49:14.001Z</time>
      </trkpt>
      <trkpt lat="47.77416" lon="6.36067">
        <ele>262.314</ele>
        <time>2019-09-25T12:49:17.001Z</time>
      </trkpt>
      <trkpt lat="47.77406" lon="6.3608">
        <ele>262.205</ele>
        <time>2019-09-25T12:49:20.001Z</time>
      </trkpt>
      <trkpt lat="47.77397" lon="6.36094">
        <ele>262.052</ele>
        <time>2019-09-25T12:49:23.001Z</time>
      </trkpt>
      <trkpt lat="47.77389" lon="6.36108">
        <ele>261.962</ele>
        <time>2019-09-25T12:49:26.001Z</time>
      </trkpt>
      <trkpt lat="47.77381" lon="6.36124">
        <ele>261.796</ele>
        <time>2019-09-25T12:49:29.001Z</time>
      </trkpt>
      <trkpt lat="47.77373" lon="6.3614">
        <ele>261.179</ele>
        <time>2019-09-25T12:49:32.001Z</time>
      </trkpt>
      <trkpt lat="47.77367" lon="6.36154">
        <ele>260.69</ele>
        <time>2019-09-25T12:49:35.001Z</time>
      </trkpt>
      <trkpt lat="47.77363" lon="6.36168">
        <ele>260.294</ele>
        <time>2019-09-25T12:49:38.001Z</time>
      </trkpt>
      <trkpt lat="47.7736" lon="6.36179">
        <ele>260</ele>
        <time>2019-09-25T12:49:41.001Z</time>
      </trkpt>
      <trkpt lat="47.77357" lon="6.36186">
        <ele>259.746</ele>
        <time>2019-09-25T12:49:44.001Z</time>
      </trkpt>
      <trkpt lat="47.77354" lon="6.36192">
        <ele>259.504</ele>
        <time>2019-09-25T12:49:47.001Z</time>
      </trkpt>
      <trkpt lat="47.77352" lon="6.36198">
        <ele>258.906</ele>
        <time>2019-09-25T12:49:50.001Z</time>
      </trkpt>
      <trkpt lat="47.77352" lon="6.36198">
        <ele>258.906</ele>
        <time>2019-09-25T12:49:56.001Z</time>
      </trkpt>
      <trkpt lat="47.7735" lon="6.36205">
        <ele>259.484</ele>
        <time>2019-09-25T12:49:59.001Z</time>
      </trkpt>
      <trkpt lat="47.77348" lon="6.36212">
        <ele>259.484</ele>
        <time>2019-09-25T14:50:02Z</time>
      </trkpt>
      <trkpt lat="47.77349" lon="6.36227">
        <ele>260.104</ele>
        <time>2019-09-25T12:50:05.001Z</time>
      </trkpt>
      <trkpt lat="47.77353" lon="6.36244">
        <ele>260.963</ele>
        <time>2019-09-25T12:50:08.001Z</time>
      </trkpt>
      <trkpt lat="47.77354" lon="6.36264">
        <ele>260.944</ele>
        <time>2019-09-25T12:50:11.001Z</time>
      </trkpt>
      <trkpt lat="47.77352" lon="6.36285">
        <ele>260.097</ele>
        <time>2019-09-25T12:50:14.001Z</time>
      </trkpt>
      <trkpt lat="47.77348" lon="6.36305">
        <ele>259.808</ele>
        <time>2019-09-25T12:50:17.001Z</time>
      </trkpt>
      <trkpt lat="47.77342" lon="6.36325">
        <ele>259.557</ele>
        <time>2019-09-25T12:50:20.001Z</time>
      </trkpt>
      <trkpt lat="47.77335" lon="6.36343">
        <ele>259.809</ele>
        <time>2019-09-25T12:50:23.001Z</time>
      </trkpt>
      <trkpt lat="47.77327" lon="6.36358">
        <ele>260.441</ele>
        <time>2019-09-25T12:50:26.001Z</time>
      </trkpt>
      <trkpt lat="47.77321" lon="6.36375">
        <ele>260.493</ele>
        <time>2019-09-25T12:50:29.001Z</time>
      </trkpt>
      <trkpt lat="47.77314" lon="6.36391">
        <ele>260.535</ele>
        <time>2019-09-25T12:50:32.001Z</time>
      </trkpt>
      <trkpt lat="47.77307" lon="6.36406">
        <ele>260.052</ele>
        <time>2019-09-25T12:50:35.001Z</time>
      </trkpt>
      <trkpt lat="47.773" lon="6.36421">
        <ele>260.1</ele>
        <time>2019-09-25T12:50:38.001Z</time>
      </trkpt>
      <trkpt lat="47.77292" lon="6.36437">
        <ele>260.481</ele>
        <time>2019-09-25T12:50:41.001Z</time>
      </trkpt>
      <trkpt lat="47.77285" lon="6.36454">
        <ele>260.698</ele>
        <time>2019-09-25T12:50:44.001Z</time>
      </trkpt>
      <trkpt lat="47.77277" lon="6.36471">
        <ele>260.51</ele>
        <time>2019-09-25T12:50:47.001Z</time>
      </trkpt>
      <trkpt lat="47.77268" lon="6.36487">
        <ele>260.57</ele>
        <time>2019-09-25T12:50:50.001Z</time>
      </trkpt>
      <trkpt lat="47.7726" lon="6.36503">
        <ele>260.628</ele>
        <time>2019-09-25T12:50:53.001Z</time>
      </trkpt>
      <trkpt lat="47.7725" lon="6.36522">
        <ele>261.436</ele>
        <time>2019-09-25T12:50:56.001Z</time>
      </trkpt>
      <trkpt lat="47.77242" lon="6.36539">
        <ele>261.779</ele>
        <time>2019-09-25T12:50:59.001Z</time>
      </trkpt>
      <trkpt lat="47.77232" lon="6.36555">
        <ele>262.415</ele>
        <time>2019-09-25T14:51:02Z</time>
      </trkpt>
      <trkpt lat="47.77223" lon="6.3657">
        <ele>262.933</ele>
        <time>2019-09-25T12:51:05.001Z</time>
      </trkpt>
      <trkpt lat="47.77213" lon="6.36584">
        <ele>262.973</ele>
        <time>2019-09-25T12:51:08.001Z</time>
      </trkpt>
      <trkpt lat="47.77204" lon="6.36599">
        <ele>263.308</ele>
        <time>2019-09-25T12:51:11.001Z</time>
      </trkpt>
      <trkpt lat="47.77191" lon="6.3661">
        <ele>263.602</ele>
        <time>2019-09-25T12:51:14.001Z</time>
      </trkpt>
      <trkpt lat="47.77175" lon="6.36616">
        <ele>263.239</ele>
        <time>2019-09-25T12:51:17.001Z</time>
      </trkpt>
      <trkpt lat="47.77159" lon="6.36621">
        <ele>263.521</ele>
        <time>2019-09-25T12:51:20.001Z</time>
      </trkpt>
      <trkpt lat="47.77146" lon="6.36626">
        <ele>264.291</ele>
        <time>2019-09-25T12:51:23.001Z</time>
      </trkpt>
      <trkpt lat="47.77134" lon="6.3663">
        <ele>265.108</ele>
        <time>2019-09-25T12:51:26.001Z</time>
      </trkpt>
      <trkpt lat="47.77123" lon="6.36635">
        <ele>266.27</ele>
        <time>2019-09-25T12:51:29.001Z</time>
      </trkpt>
      <trkpt lat="47.77115" lon="6.36639">
        <ele>268.182</ele>
        <time>2019-09-25T12:51:32.001Z</time>
      </trkpt>
      <trkpt lat="47.77103" lon="6.36633">
        <ele>268.825</ele>
        <time>2019-09-25T12:51:35.001Z</time>
      </trkpt>
      <trkpt lat="47.77092" lon="6.36623">
        <ele>268.532</ele>
        <time>2019-09-25T12:51:38.001Z</time>
      </trkpt>
      <trkpt lat="47.7708" lon="6.36614">
        <ele>267.629</ele>
        <time>2019-09-25T12:51:41.001Z</time>
      </trkpt>
      <trkpt lat="47.77068" lon="6.36604">
        <ele>266.172</ele>
        <time>2019-09-25T12:51:44.001Z</time>
      </trkpt>
      <trkpt lat="47.77055" lon="6.36595">
        <ele>264.815</ele>
        <time>2019-09-25T12:51:47.001Z</time>
      </trkpt>
      <trkpt lat="47.77043" lon="6.36587">
        <ele>263.573</ele>
        <time>2019-09-25T12:51:50.001Z</time>
      </trkpt>
      <trkpt lat="47.77031" lon="6.3658">
        <ele>262.432</ele>
        <time>2019-09-25T12:51:53.001Z</time>
      </trkpt>
      <trkpt lat="47.77019" lon="6.36575">
        <ele>261.319</ele>
        <time>2019-09-25T12:51:56.001Z</time>
      </trkpt>
      <trkpt lat="47.77007" lon="6.36571">
        <ele>260.984</ele>
        <time>2019-09-25T12:51:59.001Z</time>
      </trkpt>
      <trkpt lat="47.76996" lon="6.36567">
        <ele>261.036</ele>
        <time>2019-09-25T14:52:02Z</time>
      </trkpt>
      <trkpt lat="47.76986" lon="6.36565">
        <ele>261.485</ele>
        <time>2019-09-25T12:52:05.001Z</time>
      </trkpt>
      <trkpt lat="47.76978" lon="6.36564">
        <ele>262.042</ele>
        <time>2019-09-25T12:52:08.001Z</time>
      </trkpt>
      <trkpt lat="47.76974" lon="6.36564">
        <ele>261.742</ele>
        <time>2019-09-25T12:52:11.001Z</time>
      </trkpt>
      <trkpt lat="47.76974" lon="6.36564">
        <ele>261.742</ele>
        <time>2019-09-25T12:52:17.001Z</time>
      </trkpt>
      <trkpt lat="47.76973" lon="6.36564">
        <ele>261.961</ele>
        <time>2019-09-25T12:52:20.001Z</time>
      </trkpt>
      <trkpt lat="47.76974" lon="6.36564">
        <ele>261.742</ele>
        <time>2019-09-25T12:52:23.001Z</time>
      </trkpt>
      <trkpt lat="47.76974" lon="6.36564">
        <ele>261.742</ele>
        <time>2019-09-25T12:53:17.001Z</time>
      </trkpt>
      <trkpt lat="47.76973" lon="6.36564">
        <ele>261.619</ele>
        <time>2019-09-25T12:53:20.001Z</time>
      </trkpt>
      <trkpt lat="47.76973" lon="6.36563">
        <ele>261.621</ele>
        <time>2019-09-25T12:53:23.001Z</time>
      </trkpt>
      <trkpt lat="47.76973" lon="6.36563">
        <ele>261.621</ele>
        <time>2019-09-25T12:53:26.001Z</time>
      </trkpt>
      <trkpt lat="47.76972" lon="6.36562">
        <ele>261.611</ele>
        <time>2019-09-25T12:53:29.001Z</time>
      </trkpt>
      <trkpt lat="47.76971" lon="6.36563">
        <ele>261.709</ele>
        <time>2019-09-25T12:53:32.001Z</time>
      </trkpt>
      <trkpt lat="47.76971" lon="6.36563">
        <ele>261.709</ele>
        <time>2019-09-25T13:08:17.001Z</time>
      </trkpt>
      <trkpt lat="47.76971" lon="6.36561">
        <ele>261.988</ele>
        <time>2019-09-25T13:08:20.001Z</time>
      </trkpt>
      <trkpt lat="47.76971" lon="6.36561">
        <ele>261.778</ele>
        <time>2019-09-25T13:08:23.001Z</time>
      </trkpt>
      <trkpt lat="47.76971" lon="6.36561">
        <ele>261.778</ele>
        <time>2019-09-25T13:08:32.001Z</time>
      </trkpt>
      <trkpt lat="47.76971" lon="6.36561">
        <ele>261.94</ele>
        <time>2019-09-25T13:08:35.001Z</time>
      </trkpt>
      <trkpt lat="47.76971" lon="6.36561">
        <ele>262.277</ele>
        <time>2019-09-25T13:08:38.001Z</time>
      </trkpt>
      <trkpt lat="47.76971" lon="6.36561">
        <ele>261.302</ele>
        <time>2019-09-25T13:22:18.001Z</time>
      </trkpt>
      <trkpt lat="47.76963" lon="6.3655">
        <ele>261.394</ele>
        <time>2019-09-25T13:22:21.001Z</time>
      </trkpt>
      <trkpt lat="47.76955" lon="6.36548">
        <ele>261.414</ele>
        <time>2019-09-25T13:22:24.001Z</time>
      </trkpt>
      <trkpt lat="47.76947" lon="6.36544">
        <ele>261.347</ele>
        <time>2019-09-25T13:22:27.001Z</time>
      </trkpt>
      <trkpt lat="47.76937" lon="6.3654">
        <ele>261.467</ele>
        <time>2019-09-25T13:22:30.001Z</time>
      </trkpt>
      <trkpt lat="47.76926" lon="6.36536">
        <ele>262.362</ele>
        <time>2019-09-25T13:22:33.001Z</time>
      </trkpt>
      <trkpt lat="47.76915" lon="6.36533">
        <ele>262.999</ele>
        <time>2019-09-25T13:22:36.001Z</time>
      </trkpt>
      <trkpt lat="47.76905" lon="6.36527">
        <ele>263.514</ele>
        <time>2019-09-25T13:22:39.001Z</time>
      </trkpt>
      <trkpt lat="47.76895" lon="6.36521">
        <ele>263.93</ele>
        <time>2019-09-25T13:22:42.001Z</time>
      </trkpt>
      <trkpt lat="47.76885" lon="6.36516">
        <ele>263.949</ele>
        <time>2019-09-25T13:22:45.001Z</time>
      </trkpt>
      <trkpt lat="47.76876" lon="6.36511">
        <ele>264.154</ele>
        <time>2019-09-25T13:22:48.001Z</time>
      </trkpt>
      <trkpt lat="47.76868" lon="6.36506">
        <ele>263.745</ele>
        <time>2019-09-25T13:22:51.001Z</time>
      </trkpt>
      <trkpt lat="47.76859" lon="6.365">
        <ele>263.326</ele>
        <time>2019-09-25T13:22:54.001Z</time>
      </trkpt>
      <trkpt lat="47.76848" lon="6.36495">
        <ele>263.136</ele>
        <time>2019-09-25T13:22:57.001Z</time>
      </trkpt>
      <trkpt lat="47.76838" lon="6.36489">
        <ele>262.744</ele>
        <time>2019-09-25T15:23:00Z</time>
      </trkpt>
      <trkpt lat="47.76827" lon="6.36483">
        <ele>262.495</ele>
        <time>2019-09-25T13:23:03.001Z</time>
      </trkpt>
      <trkpt lat="47.76816" lon="6.36478">
        <ele>262.086</ele>
        <time>2019-09-25T13:23:06.001Z</time>
      </trkpt>
      <trkpt lat="47.76806" lon="6.36472">
        <ele>261.357</ele>
        <time>2019-09-25T13:23:09.001Z</time>
      </trkpt>
      <trkpt lat="47.76796" lon="6.36466">
        <ele>260.733</ele>
        <time>2019-09-25T13:23:12.001Z</time>
      </trkpt>
      <trkpt lat="47.76786" lon="6.3646">
        <ele>260.465</ele>
        <time>2019-09-25T13:23:15.001Z</time>
      </trkpt>
      <trkpt lat="47.76775" lon="6.36455">
        <ele>260.154</ele>
        <time>2019-09-25T13:23:18.001Z</time>
      </trkpt>
      <trkpt lat="47.76763" lon="6.36449">
        <ele>259.852</ele>
        <time>2019-09-25T13:23:21.001Z</time>
      </trkpt>
      <trkpt lat="47.76751" lon="6.36443">
        <ele>259.51</ele>
        <time>2019-09-25T13:23:24.001Z</time>
      </trkpt>
      <trkpt lat="47.7674" lon="6.36437">
        <ele>259.751</ele>
        <time>2019-09-25T13:23:27.001Z</time>
      </trkpt>
      <trkpt lat="47.76729" lon="6.36431">
        <ele>259.729</ele>
        <time>2019-09-25T13:23:30.001Z</time>
      </trkpt>
      <trkpt lat="47.76719" lon="6.36426">
        <ele>259.669</ele>
        <time>2019-09-25T13:23:33.001Z</time>
      </trkpt>
      <trkpt lat="47.76709" lon="6.3642">
        <ele>259.763</ele>
        <time>2019-09-25T13:23:36.001Z</time>
      </trkpt>
      <trkpt lat="47.76698" lon="6.36414">
        <ele>259.902</ele>
        <time>2019-09-25T13:23:39.001Z</time>
      </trkpt>
      <trkpt lat="47.76687" lon="6.36408">
        <ele>259.861</ele>
        <time>2019-09-25T13:23:42.001Z</time>
      </trkpt>
      <trkpt lat="47.76677" lon="6.36402">
        <ele>259.232</ele>
        <time>2019-09-25T13:23:45.001Z</time>
      </trkpt>
      <trkpt lat="47.76667" lon="6.36396">
        <ele>259.096</ele>
        <time>2019-09-25T13:23:48.001Z</time>
      </trkpt>
      <trkpt lat="47.76656" lon="6.3639">
        <ele>258.805</ele>
        <time>2019-09-25T13:23:51.001Z</time>
      </trkpt>
      <trkpt lat="47.76647" lon="6.36385">
        <ele>258.409</ele>
        <time>2019-09-25T13:23:54.001Z</time>
      </trkpt>
      <trkpt lat="47.76637" lon="6.36381">
        <ele>258.38</ele>
        <time>2019-09-25T13:23:57.001Z</time>
      </trkpt>
      <trkpt lat="47.76626" lon="6.36378">
        <ele>258.684</ele>
        <time>2019-09-25T15:24:00Z</time>
      </trkpt>
      <trkpt lat="47.76616" lon="6.36373">
        <ele>258.369</ele>
        <time>2019-09-25T13:24:03.001Z</time>
      </trkpt>
      <trkpt lat="47.76605" lon="6.3637">
        <ele>258.281</ele>
        <time>2019-09-25T13:24:06.001Z</time>
      </trkpt>
      <trkpt lat="47.76596" lon="6.36367">
        <ele>258.604</ele>
        <time>2019-09-25T13:24:09.001Z</time>
      </trkpt>
      <trkpt lat="47.76585" lon="6.36363">
        <ele>258.647</ele>
        <time>2019-09-25T13:24:12.001Z</time>
      </trkpt>
      <trkpt lat="47.76574" lon="6.36359">
        <ele>258.684</ele>
        <time>2019-09-25T13:24:15.001Z</time>
      </trkpt>
      <trkpt lat="47.76563" lon="6.36355">
        <ele>258.957</ele>
        <time>2019-09-25T13:24:18.001Z</time>
      </trkpt>
      <trkpt lat="47.76553" lon="6.36351">
        <ele>259.462</ele>
        <time>2019-09-25T13:24:21.001Z</time>
      </trkpt>
      <trkpt lat="47.76541" lon="6.36346">
        <ele>259.035</ele>
        <time>2019-09-25T13:24:24.001Z</time>
      </trkpt>
      <trkpt lat="47.76529" lon="6.36342">
        <ele>258.245</ele>
        <time>2019-09-25T13:24:27.001Z</time>
      </trkpt>
      <trkpt lat="47.76516" lon="6.36338">
        <ele>257.644</ele>
        <time>2019-09-25T13:24:30.001Z</time>
      </trkpt>
      <trkpt lat="47.765" lon="6.36333">
        <ele>257.019</ele>
        <time>2019-09-25T13:24:33.001Z</time>
      </trkpt>
      <trkpt lat="47.76484" lon="6.36327">
        <ele>257.664</ele>
        <time>2019-09-25T13:24:36.001Z</time>
      </trkpt>
      <trkpt lat="47.76467" lon="6.3632">
        <ele>261.733</ele>
        <time>2019-09-25T13:24:39.001Z</time>
      </trkpt>
      <trkpt lat="47.76452" lon="6.36314">
        <ele>264.65</ele>
        <time>2019-09-25T13:24:42.001Z</time>
      </trkpt>
      <trkpt lat="47.76438" lon="6.36311">
        <ele>264.483</ele>
        <time>2019-09-25T13:24:45.001Z</time>
      </trkpt>
      <trkpt lat="47.76424" lon="6.36311">
        <ele>264.289</ele>
        <time>2019-09-25T13:24:48.001Z</time>
      </trkpt>
      <trkpt lat="47.76411" lon="6.36314">
        <ele>264.058</ele>
        <time>2019-09-25T13:24:51.001Z</time>
      </trkpt>
      <trkpt lat="47.76398" lon="6.36317">
        <ele>264.173</ele>
        <time>2019-09-25T13:24:54.001Z</time>
      </trkpt>
      <trkpt lat="47.76385" lon="6.36319">
        <ele>264.261</ele>
        <time>2019-09-25T13:24:57.001Z</time>
      </trkpt>
      <trkpt lat="47.76372" lon="6.36322">
        <ele>264.307</ele>
        <time>2019-09-25T15:25:00Z</time>
      </trkpt>
      <trkpt lat="47.76358" lon="6.36324">
        <ele>264.454</ele>
        <time>2019-09-25T13:25:03.001Z</time>
      </trkpt>
      <trkpt lat="47.76344" lon="6.36326">
        <ele>264.582</ele>
        <time>2019-09-25T13:25:06.001Z</time>
      </trkpt>
      <trkpt lat="47.76331" lon="6.36328">
        <ele>265.705</ele>
        <time>2019-09-25T13:25:09.001Z</time>
      </trkpt>
      <trkpt lat="47.76322" lon="6.36329">
        <ele>266.92</ele>
        <time>2019-09-25T13:25:12.001Z</time>
      </trkpt>
      <trkpt lat="47.76313" lon="6.3633">
        <ele>268.002</ele>
        <time>2019-09-25T13:25:15.001Z</time>
      </trkpt>
      <trkpt lat="47.76303" lon="6.36333">
        <ele>268.618</ele>
        <time>2019-09-25T13:25:18.001Z</time>
      </trkpt>
      <trkpt lat="47.76292" lon="6.36334">
        <ele>269.885</ele>
        <time>2019-09-25T13:25:21.001Z</time>
      </trkpt>
      <trkpt lat="47.76281" lon="6.36336">
        <ele>270.178</ele>
        <time>2019-09-25T13:25:24.001Z</time>
      </trkpt>
      <trkpt lat="47.76267" lon="6.3634">
        <ele>271.057</ele>
        <time>2019-09-25T13:25:27.001Z</time>
      </trkpt>
      <trkpt lat="47.76251" lon="6.36343">
        <ele>272.125</ele>
        <time>2019-09-25T13:25:30.001Z</time>
      </trkpt>
      <trkpt lat="47.76238" lon="6.36345">
        <ele>272.967</ele>
        <time>2019-09-25T13:25:33.001Z</time>
      </trkpt>
      <trkpt lat="47.76226" lon="6.36347">
        <ele>274.064</ele>
        <time>2019-09-25T13:25:36.001Z</time>
      </trkpt>
      <trkpt lat="47.76211" lon="6.3635">
        <ele>274.503</ele>
        <time>2019-09-25T13:25:39.001Z</time>
      </trkpt>
      <trkpt lat="47.76197" lon="6.36355">
        <ele>274.919</ele>
        <time>2019-09-25T13:25:42.001Z</time>
      </trkpt>
      <trkpt lat="47.76183" lon="6.36358">
        <ele>275.172</ele>
        <time>2019-09-25T13:25:45.001Z</time>
      </trkpt>
      <trkpt lat="47.76172" lon="6.36358">
        <ele>274.913</ele>
        <time>2019-09-25T13:25:48.001Z</time>
      </trkpt>
      <trkpt lat="47.7616" lon="6.3636">
        <ele>274.347</ele>
        <time>2019-09-25T13:25:51.001Z</time>
      </trkpt>
      <trkpt lat="47.76145" lon="6.36362">
        <ele>273.74</ele>
        <time>2019-09-25T13:25:54.001Z</time>
      </trkpt>
      <trkpt lat="47.76128" lon="6.36366">
        <ele>273.466</ele>
        <time>2019-09-25T13:25:57.001Z</time>
      </trkpt>
      <trkpt lat="47.76111" lon="6.36368">
        <ele>272.061</ele>
        <time>2019-09-25T15:26:00Z</time>
      </trkpt>
      <trkpt lat="47.76095" lon="6.36369">
        <ele>269.368</ele>
        <time>2019-09-25T13:26:03.001Z</time>
      </trkpt>
      <trkpt lat="47.76081" lon="6.36369">
        <ele>267.367</ele>
        <time>2019-09-25T13:26:06.001Z</time>
      </trkpt>
      <trkpt lat="47.76069" lon="6.36369">
        <ele>265.961</ele>
        <time>2019-09-25T13:26:09.001Z</time>
      </trkpt>
      <trkpt lat="47.76059" lon="6.36368">
        <ele>265.116</ele>
        <time>2019-09-25T13:26:12.001Z</time>
      </trkpt>
      <trkpt lat="47.76049" lon="6.36367">
        <ele>264.478</ele>
        <time>2019-09-25T13:26:15.001Z</time>
      </trkpt>
      <trkpt lat="47.7604" lon="6.36367">
        <ele>264.185</ele>
        <time>2019-09-25T13:26:18.001Z</time>
      </trkpt>
      <trkpt lat="47.76031" lon="6.36368">
        <ele>264.21</ele>
        <time>2019-09-25T13:26:21.001Z</time>
      </trkpt>
      <trkpt lat="47.76022" lon="6.36372">
        <ele>264.676</ele>
        <time>2019-09-25T13:26:24.001Z</time>
      </trkpt>
      <trkpt lat="47.76014" lon="6.36376">
        <ele>264.896</ele>
        <time>2019-09-25T13:26:27.001Z</time>
      </trkpt>
      <trkpt lat="47.76006" lon="6.36381">
        <ele>265.104</ele>
        <time>2019-09-25T13:26:30.001Z</time>
      </trkpt>
      <trkpt lat="47.75998" lon="6.36386">
        <ele>265.375</ele>
        <time>2019-09-25T13:26:33.001Z</time>
      </trkpt>
      <trkpt lat="47.7599" lon="6.36391">
        <ele>265.433</ele>
        <time>2019-09-25T13:26:36.001Z</time>
      </trkpt>
      <trkpt lat="47.75982" lon="6.36397">
        <ele>265.671</ele>
        <time>2019-09-25T13:26:39.001Z</time>
      </trkpt>
      <trkpt lat="47.75974" lon="6.36402">
        <ele>265.845</ele>
        <time>2019-09-25T13:26:42.001Z</time>
      </trkpt>
      <trkpt lat="47.75966" lon="6.36406">
        <ele>265.931</ele>
        <time>2019-09-25T13:26:45.001Z</time>
      </trkpt>
      <trkpt lat="47.75958" lon="6.3641">
        <ele>266.536</ele>
        <time>2019-09-25T13:26:48.001Z</time>
      </trkpt>
      <trkpt lat="47.75949" lon="6.36416">
        <ele>267.446</ele>
        <time>2019-09-25T13:26:51.001Z</time>
      </trkpt>
      <trkpt lat="47.75941" lon="6.36423">
        <ele>267.998</ele>
        <time>2019-09-25T13:26:54.001Z</time>
      </trkpt>
      <trkpt lat="47.75935" lon="6.36432">
        <ele>268.663</ele>
        <time>2019-09-25T13:26:57.001Z</time>
      </trkpt>
      <trkpt lat="47.75929" lon="6.36444">
        <ele>269.212</ele>
        <time>2019-09-25T15:27:00Z</time>
      </trkpt>
      <trkpt lat="47.75925" lon="6.36455">
        <ele>269.568</ele>
        <time>2019-09-25T13:27:03.001Z</time>
      </trkpt>
      <trkpt lat="47.75922" lon="6.36468">
        <ele>269.666</ele>
        <time>2019-09-25T13:27:06.001Z</time>
      </trkpt>
      <trkpt lat="47.7592" lon="6.36482">
        <ele>269.768</ele>
        <time>2019-09-25T13:27:09.001Z</time>
      </trkpt>
      <trkpt lat="47.75917" lon="6.36496">
        <ele>270.34</ele>
        <time>2019-09-25T13:27:12.001Z</time>
      </trkpt>
      <trkpt lat="47.75914" lon="6.36509">
        <ele>270.83</ele>
        <time>2019-09-25T13:27:15.001Z</time>
      </trkpt>
      <trkpt lat="47.75911" lon="6.36522">
        <ele>271.559</ele>
        <time>2019-09-25T13:27:18.001Z</time>
      </trkpt>
      <trkpt lat="47.75908" lon="6.36534">
        <ele>272.112</ele>
        <time>2019-09-25T13:27:21.001Z</time>
      </trkpt>
      <trkpt lat="47.75905" lon="6.36545">
        <ele>272.62</ele>
        <time>2019-09-25T13:27:24.001Z</time>
      </trkpt>
      <trkpt lat="47.75902" lon="6.36556">
        <ele>273.515</ele>
        <time>2019-09-25T13:27:27.001Z</time>
      </trkpt>
      <trkpt lat="47.75899" lon="6.36567">
        <ele>274.582</ele>
        <time>2019-09-25T13:27:30.001Z</time>
      </trkpt>
      <trkpt lat="47.75896" lon="6.36576">
        <ele>275.759</ele>
        <time>2019-09-25T13:27:33.001Z</time>
      </trkpt>
      <trkpt lat="47.7589" lon="6.36584">
        <ele>276.58</ele>
        <time>2019-09-25T13:27:36.001Z</time>
      </trkpt>
      <trkpt lat="47.75887" lon="6.36594">
        <ele>278.041</ele>
        <time>2019-09-25T13:27:39.001Z</time>
      </trkpt>
      <trkpt lat="47.75882" lon="6.36603">
        <ele>278.526</ele>
        <time>2019-09-25T13:27:42.001Z</time>
      </trkpt>
      <trkpt lat="47.75877" lon="6.36611">
        <ele>278.672</ele>
        <time>2019-09-25T13:27:45.001Z</time>
      </trkpt>
      <trkpt lat="47.75872" lon="6.36618">
        <ele>279.226</ele>
        <time>2019-09-25T13:27:48.001Z</time>
      </trkpt>
      <trkpt lat="47.75866" lon="6.36624">
        <ele>279.984</ele>
        <time>2019-09-25T13:27:51.001Z</time>
      </trkpt>
      <trkpt lat="47.75859" lon="6.36629">
        <ele>280.18</ele>
        <time>2019-09-25T13:27:54.001Z</time>
      </trkpt>
      <trkpt lat="47.75852" lon="6.36635">
        <ele>278.077</ele>
        <time>2019-09-25T13:27:57.001Z</time>
      </trkpt>
      <trkpt lat="47.75845" lon="6.36639">
        <ele>277.498</ele>
        <time>2019-09-25T15:28:00Z</time>
      </trkpt>
      <trkpt lat="47.75838" lon="6.36642">
        <ele>276.646</ele>
        <time>2019-09-25T13:28:03.001Z</time>
      </trkpt>
      <trkpt lat="47.75831" lon="6.36646">
        <ele>276.979</ele>
        <time>2019-09-25T13:28:06.001Z</time>
      </trkpt>
      <trkpt lat="47.75822" lon="6.3665">
        <ele>277.255</ele>
        <time>2019-09-25T13:28:09.001Z</time>
      </trkpt>
      <trkpt lat="47.75814" lon="6.36654">
        <ele>277.874</ele>
        <time>2019-09-25T13:28:12.001Z</time>
      </trkpt>
      <trkpt lat="47.75807" lon="6.36656">
        <ele>277.807</ele>
        <time>2019-09-25T13:28:15.001Z</time>
      </trkpt>
      <trkpt lat="47.75799" lon="6.36658">
        <ele>277.375</ele>
        <time>2019-09-25T13:28:18.001Z</time>
      </trkpt>
      <trkpt lat="47.75792" lon="6.36659">
        <ele>277.228</ele>
        <time>2019-09-25T13:28:21.001Z</time>
      </trkpt>
      <trkpt lat="47.75784" lon="6.36662">
        <ele>277.512</ele>
        <time>2019-09-25T13:28:24.001Z</time>
      </trkpt>
      <trkpt lat="47.75777" lon="6.36662">
        <ele>277.623</ele>
        <time>2019-09-25T13:28:27.001Z</time>
      </trkpt>
      <trkpt lat="47.75769" lon="6.36662">
        <ele>278.11</ele>
        <time>2019-09-25T13:28:30.001Z</time>
      </trkpt>
      <trkpt lat="47.7576" lon="6.3666">
        <ele>278.35</ele>
        <time>2019-09-25T13:28:33.001Z</time>
      </trkpt>
      <trkpt lat="47.75752" lon="6.3666">
        <ele>278.377</ele>
        <time>2019-09-25T13:28:36.001Z</time>
      </trkpt>
      <trkpt lat="47.75741" lon="6.36659">
        <ele>277.947</ele>
        <time>2019-09-25T13:28:39.001Z</time>
      </trkpt>
      <trkpt lat="47.7573" lon="6.36657">
        <ele>277.67</ele>
        <time>2019-09-25T13:28:42.001Z</time>
      </trkpt>
      <trkpt lat="47.75718" lon="6.36655">
        <ele>277.475</ele>
        <time>2019-09-25T13:28:45.001Z</time>
      </trkpt>
      <trkpt lat="47.75705" lon="6.36652">
        <ele>277.411</ele>
        <time>2019-09-25T13:28:48.001Z</time>
      </trkpt>
      <trkpt lat="47.75691" lon="6.36649">
        <ele>277.679</ele>
        <time>2019-09-25T13:28:51.001Z</time>
      </trkpt>
      <trkpt lat="47.75676" lon="6.36646">
        <ele>277.373</ele>
        <time>2019-09-25T13:28:54.001Z</time>
      </trkpt>
      <trkpt lat="47.75661" lon="6.36643">
        <ele>276.377</ele>
        <time>2019-09-25T13:28:57.001Z</time>
      </trkpt>
      <trkpt lat="47.75646" lon="6.36639">
        <ele>275.729</ele>
        <time>2019-09-25T15:29:00Z</time>
      </trkpt>
      <trkpt lat="47.75633" lon="6.3664">
        <ele>275.726</ele>
        <time>2019-09-25T13:29:03.001Z</time>
      </trkpt>
      <trkpt lat="47.75624" lon="6.36659">
        <ele>275.297</ele>
        <time>2019-09-25T13:29:06.001Z</time>
      </trkpt>
      <trkpt lat="47.75616" lon="6.36688">
        <ele>274.93</ele>
        <time>2019-09-25T13:29:09.001Z</time>
      </trkpt>
      <trkpt lat="47.75608" lon="6.36722">
        <ele>274.049</ele>
        <time>2019-09-25T13:29:12.001Z</time>
      </trkpt>
      <trkpt lat="47.75601" lon="6.3676">
        <ele>273.789</ele>
        <time>2019-09-25T13:29:15.001Z</time>
      </trkpt>
      <trkpt lat="47.75592" lon="6.36798">
        <ele>274.452</ele>
        <time>2019-09-25T13:29:18.001Z</time>
      </trkpt>
      <trkpt lat="47.75582" lon="6.36833">
        <ele>274.513</ele>
        <time>2019-09-25T13:29:21.001Z</time>
      </trkpt>
      <trkpt lat="47.75572" lon="6.36866">
        <ele>274.712</ele>
        <time>2019-09-25T13:29:24.001Z</time>
      </trkpt>
      <trkpt lat="47.75573" lon="6.36898">
        <ele>275.182</ele>
        <time>2019-09-25T13:29:27.001Z</time>
      </trkpt>
      <trkpt lat="47.75583" lon="6.36924">
        <ele>274.663</ele>
        <time>2019-09-25T13:29:30.001Z</time>
      </trkpt>
      <trkpt lat="47.75598" lon="6.36942">
        <ele>273.927</ele>
        <time>2019-09-25T13:29:33.001Z</time>
      </trkpt>
      <trkpt lat="47.75612" lon="6.36961">
        <ele>272.843</ele>
        <time>2019-09-25T13:29:36.001Z</time>
      </trkpt>
      <trkpt lat="47.75622" lon="6.36985">
        <ele>271.559</ele>
        <time>2019-09-25T13:29:39.001Z</time>
      </trkpt>
      <trkpt lat="47.75628" lon="6.37012">
        <ele>270.301</ele>
        <time>2019-09-25T13:29:42.001Z</time>
      </trkpt>
      <trkpt lat="47.75627" lon="6.37039">
        <ele>270.083</ele>
        <time>2019-09-25T13:29:45.001Z</time>
      </trkpt>
      <trkpt lat="47.75623" lon="6.37066">
        <ele>270.445</ele>
        <time>2019-09-25T13:29:48.001Z</time>
      </trkpt>
      <trkpt lat="47.7562" lon="6.37091">
        <ele>270.653</ele>
        <time>2019-09-25T13:29:51.001Z</time>
      </trkpt>
      <trkpt lat="47.75619" lon="6.37114">
        <ele>271.193</ele>
        <time>2019-09-25T13:29:54.001Z</time>
      </trkpt>
      <trkpt lat="47.75622" lon="6.37136">
        <ele>271.077</ele>
        <time>2019-09-25T13:29:57.001Z</time>
      </trkpt>
      <trkpt lat="47.75628" lon="6.3716">
        <ele>270.499</ele>
        <time>2019-09-25T15:30:00Z</time>
      </trkpt>
      <trkpt lat="47.75636" lon="6.37183">
        <ele>269.623</ele>
        <time>2019-09-25T13:30:03.001Z</time>
      </trkpt>
      <trkpt lat="47.75643" lon="6.37207">
        <ele>268.78</ele>
        <time>2019-09-25T13:30:06.001Z</time>
      </trkpt>
      <trkpt lat="47.75649" lon="6.37235">
        <ele>268.262</ele>
        <time>2019-09-25T13:30:09.001Z</time>
      </trkpt>
      <trkpt lat="47.75654" lon="6.37264">
        <ele>268.946</ele>
        <time>2019-09-25T13:30:12.001Z</time>
      </trkpt>
      <trkpt lat="47.75656" lon="6.37294">
        <ele>269.493</ele>
        <time>2019-09-25T13:30:15.001Z</time>
      </trkpt>
      <trkpt lat="47.75658" lon="6.37324">
        <ele>270.322</ele>
        <time>2019-09-25T13:30:18.001Z</time>
      </trkpt>
      <trkpt lat="47.75658" lon="6.37352">
        <ele>270.815</ele>
        <time>2019-09-25T13:30:21.001Z</time>
      </trkpt>
      <trkpt lat="47.75657" lon="6.3738">
        <ele>271.395</ele>
        <time>2019-09-25T13:30:24.001Z</time>
      </trkpt>
      <trkpt lat="47.75658" lon="6.37408">
        <ele>271.754</ele>
        <time>2019-09-25T13:30:27.001Z</time>
      </trkpt>
      <trkpt lat="47.75658" lon="6.37437">
        <ele>272.117</ele>
        <time>2019-09-25T13:30:30.001Z</time>
      </trkpt>
      <trkpt lat="47.75658" lon="6.37464">
        <ele>272.449</ele>
        <time>2019-09-25T13:30:33.001Z</time>
      </trkpt>
      <trkpt lat="47.75659" lon="6.3749">
        <ele>273.192</ele>
        <time>2019-09-25T13:30:36.001Z</time>
      </trkpt>
      <trkpt lat="47.75659" lon="6.37514">
        <ele>273.874</ele>
        <time>2019-09-25T13:30:39.001Z</time>
      </trkpt>
      <trkpt lat="47.75659" lon="6.37536">
        <ele>274.297</ele>
        <time>2019-09-25T13:30:42.001Z</time>
      </trkpt>
      <trkpt lat="47.7566" lon="6.37556">
        <ele>275.153</ele>
        <time>2019-09-25T13:30:45.001Z</time>
      </trkpt>
      <trkpt lat="47.75661" lon="6.37576">
        <ele>275.936</ele>
        <time>2019-09-25T13:30:48.001Z</time>
      </trkpt>
      <trkpt lat="47.75661" lon="6.37596">
        <ele>276.571</ele>
        <time>2019-09-25T13:30:51.001Z</time>
      </trkpt>
      <trkpt lat="47.75662" lon="6.37614">
        <ele>276.886</ele>
        <time>2019-09-25T13:30:54.001Z</time>
      </trkpt>
      <trkpt lat="47.75663" lon="6.37632">
        <ele>276.991</ele>
        <time>2019-09-25T13:30:57.001Z</time>
      </trkpt>
      <trkpt lat="47.75663" lon="6.37648">
        <ele>277.096</ele>
        <time>2019-09-25T15:31:00Z</time>
      </trkpt>
      <trkpt lat="47.75664" lon="6.37665">
        <ele>277.411</ele>
        <time>2019-09-25T13:31:03.001Z</time>
      </trkpt>
      <trkpt lat="47.75665" lon="6.37683">
        <ele>278.065</ele>
        <time>2019-09-25T13:31:06.001Z</time>
      </trkpt>
      <trkpt lat="47.75665" lon="6.377">
        <ele>278.688</ele>
        <time>2019-09-25T13:31:09.001Z</time>
      </trkpt>
      <trkpt lat="47.75665" lon="6.37715">
        <ele>278.674</ele>
        <time>2019-09-25T13:31:12.001Z</time>
      </trkpt>
      <trkpt lat="47.75666" lon="6.3773">
        <ele>279.083</ele>
        <time>2019-09-25T13:31:15.001Z</time>
      </trkpt>
      <trkpt lat="47.75667" lon="6.37746">
        <ele>279.732</ele>
        <time>2019-09-25T13:31:18.001Z</time>
      </trkpt>
      <trkpt lat="47.75667" lon="6.37761">
        <ele>279.709</ele>
        <time>2019-09-25T13:31:21.001Z</time>
      </trkpt>
      <trkpt lat="47.75666" lon="6.37775">
        <ele>279.596</ele>
        <time>2019-09-25T13:31:24.001Z</time>
      </trkpt>
      <trkpt lat="47.75667" lon="6.37792">
        <ele>279.513</ele>
        <time>2019-09-25T13:31:27.001Z</time>
      </trkpt>
      <trkpt lat="47.75667" lon="6.3781">
        <ele>279.191</ele>
        <time>2019-09-25T13:31:30.001Z</time>
      </trkpt>
      <trkpt lat="47.75668" lon="6.3783">
        <ele>278.707</ele>
        <time>2019-09-25T13:31:33.001Z</time>
      </trkpt>
      <trkpt lat="47.75668" lon="6.37854">
        <ele>278.444</ele>
        <time>2019-09-25T13:31:36.001Z</time>
      </trkpt>
      <trkpt lat="47.75668" lon="6.37878">
        <ele>278.408</ele>
        <time>2019-09-25T13:31:39.001Z</time>
      </trkpt>
      <trkpt lat="47.75668" lon="6.37902">
        <ele>278.441</ele>
        <time>2019-09-25T13:31:42.001Z</time>
      </trkpt>
      <trkpt lat="47.75668" lon="6.37924">
        <ele>278.267</ele>
        <time>2019-09-25T13:31:45.001Z</time>
      </trkpt>
      <trkpt lat="47.75667" lon="6.37947">
        <ele>278.636</ele>
        <time>2019-09-25T13:31:48.001Z</time>
      </trkpt>
      <trkpt lat="47.75667" lon="6.37967">
        <ele>279.307</ele>
        <time>2019-09-25T13:31:51.001Z</time>
      </trkpt>
      <trkpt lat="47.75666" lon="6.37988">
        <ele>279.732</ele>
        <time>2019-09-25T13:31:54.001Z</time>
      </trkpt>
      <trkpt lat="47.75666" lon="6.38008">
        <ele>280.252</ele>
        <time>2019-09-25T13:31:57.001Z</time>
      </trkpt>
      <trkpt lat="47.75665" lon="6.38029">
        <ele>280.356</ele>
        <time>2019-09-25T15:32:00Z</time>
      </trkpt>
      <trkpt lat="47.75664" lon="6.3805">
        <ele>280.469</ele>
        <time>2019-09-25T13:32:03.001Z</time>
      </trkpt>
      <trkpt lat="47.75662" lon="6.38071">
        <ele>280.006</ele>
        <time>2019-09-25T13:32:06.001Z</time>
      </trkpt>
      <trkpt lat="47.7566" lon="6.3809">
        <ele>279.643</ele>
        <time>2019-09-25T13:32:09.001Z</time>
      </trkpt>
      <trkpt lat="47.75658" lon="6.3811">
        <ele>279.274</ele>
        <time>2019-09-25T13:32:12.001Z</time>
      </trkpt>
      <trkpt lat="47.75657" lon="6.38129">
        <ele>279.401</ele>
        <time>2019-09-25T13:32:15.001Z</time>
      </trkpt>
      <trkpt lat="47.75655" lon="6.38148">
        <ele>279.363</ele>
        <time>2019-09-25T13:32:18.001Z</time>
      </trkpt>
      <trkpt lat="47.75652" lon="6.38165">
        <ele>279.429</ele>
        <time>2019-09-25T13:32:21.001Z</time>
      </trkpt>
      <trkpt lat="47.75649" lon="6.38182">
        <ele>279.157</ele>
        <time>2019-09-25T13:32:24.001Z</time>
      </trkpt>
      <trkpt lat="47.75646" lon="6.38198">
        <ele>279.1</ele>
        <time>2019-09-25T13:32:27.001Z</time>
      </trkpt>
      <trkpt lat="47.75643" lon="6.38215">
        <ele>279.177</ele>
        <time>2019-09-25T13:32:30.001Z</time>
      </trkpt>
      <trkpt lat="47.7564" lon="6.3823">
        <ele>279.446</ele>
        <time>2019-09-25T13:32:33.001Z</time>
      </trkpt>
      <trkpt lat="47.75638" lon="6.38245">
        <ele>279.626</ele>
        <time>2019-09-25T13:32:36.001Z</time>
      </trkpt>
      <trkpt lat="47.75636" lon="6.38258">
        <ele>279.791</ele>
        <time>2019-09-25T13:32:39.001Z</time>
      </trkpt>
      <trkpt lat="47.75635" lon="6.38271">
        <ele>280.787</ele>
        <time>2019-09-25T13:32:42.001Z</time>
      </trkpt>
      <trkpt lat="47.75635" lon="6.38284">
        <ele>281.401</ele>
        <time>2019-09-25T13:32:45.001Z</time>
      </trkpt>
      <trkpt lat="47.75634" lon="6.38297">
        <ele>281.768</ele>
        <time>2019-09-25T13:32:48.001Z</time>
      </trkpt>
      <trkpt lat="47.75632" lon="6.3831">
        <ele>282.699</ele>
        <time>2019-09-25T13:32:51.001Z</time>
      </trkpt>
      <trkpt lat="47.7563" lon="6.38323">
        <ele>282.672</ele>
        <time>2019-09-25T13:32:54.001Z</time>
      </trkpt>
      <trkpt lat="47.75628" lon="6.38336">
        <ele>283.028</ele>
        <time>2019-09-25T13:32:57.001Z</time>
      </trkpt>
      <trkpt lat="47.75626" lon="6.38348">
        <ele>283.527</ele>
        <time>2019-09-25T15:33:00Z</time>
      </trkpt>
      <trkpt lat="47.75625" lon="6.3836">
        <ele>283.971</ele>
        <time>2019-09-25T13:33:03.001Z</time>
      </trkpt>
      <trkpt lat="47.75623" lon="6.38373">
        <ele>284.859</ele>
        <time>2019-09-25T13:33:06.001Z</time>
      </trkpt>
      <trkpt lat="47.7562" lon="6.38385">
        <ele>286.048</ele>
        <time>2019-09-25T13:33:09.001Z</time>
      </trkpt>
      <trkpt lat="47.75617" lon="6.38398">
        <ele>286.477</ele>
        <time>2019-09-25T13:33:12.001Z</time>
      </trkpt>
      <trkpt lat="47.75614" lon="6.38412">
        <ele>286.273</ele>
        <time>2019-09-25T13:33:15.001Z</time>
      </trkpt>
      <trkpt lat="47.7561" lon="6.38426">
        <ele>285.194</ele>
        <time>2019-09-25T13:33:18.001Z</time>
      </trkpt>
      <trkpt lat="47.75607" lon="6.38438">
        <ele>285.015</ele>
        <time>2019-09-25T13:33:21.001Z</time>
      </trkpt>
      <trkpt lat="47.75605" lon="6.3845">
        <ele>285.225</ele>
        <time>2019-09-25T13:33:24.001Z</time>
      </trkpt>
      <trkpt lat="47.75602" lon="6.38461">
        <ele>285.469</ele>
        <time>2019-09-25T13:33:27.001Z</time>
      </trkpt>
      <trkpt lat="47.75599" lon="6.38473">
        <ele>286.101</ele>
        <time>2019-09-25T13:33:30.001Z</time>
      </trkpt>
      <trkpt lat="47.75595" lon="6.38485">
        <ele>286.661</ele>
        <time>2019-09-25T13:33:33.001Z</time>
      </trkpt>
      <trkpt lat="47.75591" lon="6.38499">
        <ele>286.946</ele>
        <time>2019-09-25T13:33:36.001Z</time>
      </trkpt>
      <trkpt lat="47.75589" lon="6.38518">
        <ele>286.977</ele>
        <time>2019-09-25T13:33:39.001Z</time>
      </trkpt>
      <trkpt lat="47.75592" lon="6.38537">
        <ele>288.189</ele>
        <time>2019-09-25T13:33:42.001Z</time>
      </trkpt>
      <trkpt lat="47.75597" lon="6.38559">
        <ele>288.364</ele>
        <time>2019-09-25T13:33:45.001Z</time>
      </trkpt>
      <trkpt lat="47.75605" lon="6.38582">
        <ele>288.73</ele>
        <time>2019-09-25T13:33:48.001Z</time>
      </trkpt>
      <trkpt lat="47.75616" lon="6.38603">
        <ele>288.788</ele>
        <time>2019-09-25T13:33:51.001Z</time>
      </trkpt>
      <trkpt lat="47.75624" lon="6.38626">
        <ele>287.777</ele>
        <time>2019-09-25T13:33:54.001Z</time>
      </trkpt>
      <trkpt lat="47.75626" lon="6.38645">
        <ele>287.53</ele>
        <time>2019-09-25T13:33:57.001Z</time>
      </trkpt>
      <trkpt lat="47.75624" lon="6.38661">
        <ele>286.585</ele>
        <time>2019-09-25T15:34:00Z</time>
      </trkpt>
      <trkpt lat="47.75622" lon="6.38675">
        <ele>285.177</ele>
        <time>2019-09-25T13:34:03.001Z</time>
      </trkpt>
      <trkpt lat="47.75618" lon="6.38691">
        <ele>282.879</ele>
        <time>2019-09-25T13:34:06.001Z</time>
      </trkpt>
      <trkpt lat="47.75612" lon="6.38704">
        <ele>282.578</ele>
        <time>2019-09-25T13:34:09.001Z</time>
      </trkpt>
      <trkpt lat="47.75605" lon="6.38713">
        <ele>281.69</ele>
        <time>2019-09-25T13:34:12.001Z</time>
      </trkpt>
      <trkpt lat="47.75602" lon="6.38727">
        <ele>281.019</ele>
        <time>2019-09-25T13:34:15.001Z</time>
      </trkpt>
      <trkpt lat="47.75612" lon="6.38737">
        <ele>281.57</ele>
        <time>2019-09-25T13:34:18.001Z</time>
      </trkpt>
      <trkpt lat="47.75619" lon="6.38729">
        <ele>281.78</ele>
        <time>2019-09-25T13:34:21.001Z</time>
      </trkpt>
      <trkpt lat="47.75619" lon="6.38713">
        <ele>280.895</ele>
        <time>2019-09-25T13:34:24.001Z</time>
      </trkpt>
      <trkpt lat="47.75622" lon="6.38698">
        <ele>280.688</ele>
        <time>2019-09-25T13:34:27.001Z</time>
      </trkpt>
      <trkpt lat="47.75629" lon="6.38688">
        <ele>280.833</ele>
        <time>2019-09-25T13:34:30.001Z</time>
      </trkpt>
      <trkpt lat="47.75636" lon="6.3868">
        <ele>280.783</ele>
        <time>2019-09-25T13:34:33.001Z</time>
      </trkpt>
      <trkpt lat="47.75646" lon="6.38674">
        <ele>280.161</ele>
        <time>2019-09-25T13:34:36.001Z</time>
      </trkpt>
      <trkpt lat="47.75662" lon="6.38683">
        <ele>279.183</ele>
        <time>2019-09-25T13:34:39.001Z</time>
      </trkpt>
      <trkpt lat="47.75682" lon="6.38696">
        <ele>277.117</ele>
        <time>2019-09-25T13:34:42.001Z</time>
      </trkpt>
      <trkpt lat="47.75707" lon="6.38706">
        <ele>273.8</ele>
        <time>2019-09-25T13:34:45.001Z</time>
      </trkpt>
      <trkpt lat="47.75735" lon="6.38711">
        <ele>272.644</ele>
        <time>2019-09-25T13:34:48.001Z</time>
      </trkpt>
      <trkpt lat="47.75765" lon="6.38714">
        <ele>272.349</ele>
        <time>2019-09-25T13:34:51.001Z</time>
      </trkpt>
      <trkpt lat="47.75794" lon="6.3872">
        <ele>270.92</ele>
        <time>2019-09-25T13:34:54.001Z</time>
      </trkpt>
      <trkpt lat="47.7582" lon="6.38733">
        <ele>269.761</ele>
        <time>2019-09-25T13:34:57.001Z</time>
      </trkpt>
      <trkpt lat="47.75843" lon="6.38757">
        <ele>268.595</ele>
        <time>2019-09-25T15:35:00Z</time>
      </trkpt>
      <trkpt lat="47.75867" lon="6.38776">
        <ele>266.838</ele>
        <time>2019-09-25T13:35:03.001Z</time>
      </trkpt>
      <trkpt lat="47.7589" lon="6.38793">
        <ele>265.62</ele>
        <time>2019-09-25T13:35:06.001Z</time>
      </trkpt>
      <trkpt lat="47.75902" lon="6.38821">
        <ele>264.835</ele>
        <time>2019-09-25T13:35:09.001Z</time>
      </trkpt>
      <trkpt lat="47.75894" lon="6.38852">
        <ele>264.527</ele>
        <time>2019-09-25T13:35:12.001Z</time>
      </trkpt>
      <trkpt lat="47.75885" lon="6.38882">
        <ele>264.665</ele>
        <time>2019-09-25T13:35:15.001Z</time>
      </trkpt>
      <trkpt lat="47.75878" lon="6.38909">
        <ele>264.985</ele>
        <time>2019-09-25T13:35:18.001Z</time>
      </trkpt>
      <trkpt lat="47.75871" lon="6.38936">
        <ele>265.072</ele>
        <time>2019-09-25T13:35:21.001Z</time>
      </trkpt>
      <trkpt lat="47.75865" lon="6.38962">
        <ele>265.425</ele>
        <time>2019-09-25T13:35:24.001Z</time>
      </trkpt>
      <trkpt lat="47.75858" lon="6.38986">
        <ele>265.708</ele>
        <time>2019-09-25T13:35:27.001Z</time>
      </trkpt>
      <trkpt lat="47.75852" lon="6.39009">
        <ele>265.905</ele>
        <time>2019-09-25T13:35:30.001Z</time>
      </trkpt>
      <trkpt lat="47.75846" lon="6.39031">
        <ele>266.013</ele>
        <time>2019-09-25T13:35:33.001Z</time>
      </trkpt>
      <trkpt lat="47.7584" lon="6.39052">
        <ele>266.342</ele>
        <time>2019-09-25T13:35:36.001Z</time>
      </trkpt>
      <trkpt lat="47.75835" lon="6.39074">
        <ele>266.318</ele>
        <time>2019-09-25T13:35:39.001Z</time>
      </trkpt>
      <trkpt lat="47.75829" lon="6.39094">
        <ele>266.574</ele>
        <time>2019-09-25T13:35:42.001Z</time>
      </trkpt>
      <trkpt lat="47.75824" lon="6.39114">
        <ele>267.578</ele>
        <time>2019-09-25T13:35:45.001Z</time>
      </trkpt>
      <trkpt lat="47.7582" lon="6.39134">
        <ele>268.034</ele>
        <time>2019-09-25T13:35:48.001Z</time>
      </trkpt>
      <trkpt lat="47.75815" lon="6.39153">
        <ele>268.911</ele>
        <time>2019-09-25T13:35:51.001Z</time>
      </trkpt>
      <trkpt lat="47.75809" lon="6.39171">
        <ele>269.378</ele>
        <time>2019-09-25T13:35:54.001Z</time>
      </trkpt>
      <trkpt lat="47.75805" lon="6.3919">
        <ele>270.5</ele>
        <time>2019-09-25T13:35:57.001Z</time>
      </trkpt>
      <trkpt lat="47.75801" lon="6.39209">
        <ele>271.319</ele>
        <time>2019-09-25T15:36:00Z</time>
      </trkpt>
      <trkpt lat="47.75799" lon="6.39228">
        <ele>272.601</ele>
        <time>2019-09-25T13:36:03.001Z</time>
      </trkpt>
      <trkpt lat="47.75794" lon="6.39248">
        <ele>273.649</ele>
        <time>2019-09-25T13:36:06.001Z</time>
      </trkpt>
      <trkpt lat="47.75789" lon="6.39269">
        <ele>274.748</ele>
        <time>2019-09-25T13:36:09.001Z</time>
      </trkpt>
      <trkpt lat="47.75785" lon="6.3929">
        <ele>275.957</ele>
        <time>2019-09-25T13:36:12.001Z</time>
      </trkpt>
      <trkpt lat="47.75781" lon="6.39309">
        <ele>276.735</ele>
        <time>2019-09-25T13:36:15.001Z</time>
      </trkpt>
      <trkpt lat="47.75778" lon="6.39327">
        <ele>277.82</ele>
        <time>2019-09-25T13:36:18.001Z</time>
      </trkpt>
      <trkpt lat="47.75775" lon="6.39347">
        <ele>279.681</ele>
        <time>2019-09-25T13:36:21.001Z</time>
      </trkpt>
      <trkpt lat="47.75769" lon="6.39367">
        <ele>281.155</ele>
        <time>2019-09-25T13:36:24.001Z</time>
      </trkpt>
      <trkpt lat="47.75764" lon="6.39387">
        <ele>283.703</ele>
        <time>2019-09-25T13:36:27.001Z</time>
      </trkpt>
      <trkpt lat="47.7576" lon="6.39408">
        <ele>285.138</ele>
        <time>2019-09-25T13:36:30.001Z</time>
      </trkpt>
      <trkpt lat="47.75756" lon="6.39428">
        <ele>285.738</ele>
        <time>2019-09-25T13:36:33.002Z</time>
      </trkpt>
      <trkpt lat="47.75747" lon="6.39447">
        <ele>285.868</ele>
        <time>2019-09-25T13:36:36.001Z</time>
      </trkpt>
      <trkpt lat="47.75739" lon="6.39471">
        <ele>285.821</ele>
        <time>2019-09-25T13:36:39.001Z</time>
      </trkpt>
      <trkpt lat="47.75728" lon="6.39494">
        <ele>284.321</ele>
        <time>2019-09-25T13:36:42.001Z</time>
      </trkpt>
      <trkpt lat="47.7572" lon="6.39513">
        <ele>284.665</ele>
        <time>2019-09-25T13:36:45.001Z</time>
      </trkpt>
      <trkpt lat="47.75713" lon="6.39532">
        <ele>285.088</ele>
        <time>2019-09-25T13:36:48.001Z</time>
      </trkpt>
      <trkpt lat="47.75706" lon="6.3955">
        <ele>285.003</ele>
        <time>2019-09-25T13:36:51.001Z</time>
      </trkpt>
      <trkpt lat="47.75696" lon="6.3957">
        <ele>283.577</ele>
        <time>2019-09-25T13:36:54.001Z</time>
      </trkpt>
      <trkpt lat="47.75688" lon="6.39589">
        <ele>283.033</ele>
        <time>2019-09-25T13:36:57.001Z</time>
      </trkpt>
      <trkpt lat="47.75681" lon="6.39604">
        <ele>282.15</ele>
        <time>2019-09-25T15:37:00Z</time>
      </trkpt>
      <trkpt lat="47.75674" lon="6.39618">
        <ele>281.17</ele>
        <time>2019-09-25T13:37:03.001Z</time>
      </trkpt>
      <trkpt lat="47.75666" lon="6.39635">
        <ele>280.824</ele>
        <time>2019-09-25T13:37:06.001Z</time>
      </trkpt>
      <trkpt lat="47.75656" lon="6.39655">
        <ele>279.755</ele>
        <time>2019-09-25T13:37:09.001Z</time>
      </trkpt>
      <trkpt lat="47.75647" lon="6.39678">
        <ele>278.664</ele>
        <time>2019-09-25T13:37:12.001Z</time>
      </trkpt>
      <trkpt lat="47.75637" lon="6.39699">
        <ele>277.141</ele>
        <time>2019-09-25T13:37:15.001Z</time>
      </trkpt>
      <trkpt lat="47.75626" lon="6.39719">
        <ele>275.468</ele>
        <time>2019-09-25T13:37:18.001Z</time>
      </trkpt>
      <trkpt lat="47.75618" lon="6.39738">
        <ele>274.857</ele>
        <time>2019-09-25T13:37:21.001Z</time>
      </trkpt>
      <trkpt lat="47.75611" lon="6.39759">
        <ele>274.653</ele>
        <time>2019-09-25T13:37:24.001Z</time>
      </trkpt>
      <trkpt lat="47.75603" lon="6.39779">
        <ele>274.739</ele>
        <time>2019-09-25T13:37:27.001Z</time>
      </trkpt>
      <trkpt lat="47.75595" lon="6.39797">
        <ele>274.941</ele>
        <time>2019-09-25T13:37:30.001Z</time>
      </trkpt>
      <trkpt lat="47.75588" lon="6.39815">
        <ele>275.404</ele>
        <time>2019-09-25T13:37:33.001Z</time>
      </trkpt>
      <trkpt lat="47.75581" lon="6.39834">
        <ele>275.013</ele>
        <time>2019-09-25T13:37:36.001Z</time>
      </trkpt>
      <trkpt lat="47.75572" lon="6.39854">
        <ele>274.384</ele>
        <time>2019-09-25T13:37:39.001Z</time>
      </trkpt>
      <trkpt lat="47.75562" lon="6.39872">
        <ele>273.251</ele>
        <time>2019-09-25T13:37:42.001Z</time>
      </trkpt>
      <trkpt lat="47.75551" lon="6.3989">
        <ele>272.359</ele>
        <time>2019-09-25T13:37:45.001Z</time>
      </trkpt>
      <trkpt lat="47.75543" lon="6.3991">
        <ele>272.097</ele>
        <time>2019-09-25T13:37:48.001Z</time>
      </trkpt>
      <trkpt lat="47.75535" lon="6.39929">
        <ele>271.909</ele>
        <time>2019-09-25T13:37:51.001Z</time>
      </trkpt>
      <trkpt lat="47.75526" lon="6.39947">
        <ele>270.727</ele>
        <time>2019-09-25T13:37:54.001Z</time>
      </trkpt>
      <trkpt lat="47.75516" lon="6.39966">
        <ele>269.813</ele>
        <time>2019-09-25T13:37:57.001Z</time>
      </trkpt>
      <trkpt lat="47.75507" lon="6.39983">
        <ele>269.571</ele>
        <time>2019-09-25T15:38:00Z</time>
      </trkpt>
      <trkpt lat="47.75499" lon="6.40002">
        <ele>269.618</ele>
        <time>2019-09-25T13:38:03.001Z</time>
      </trkpt>
      <trkpt lat="47.75491" lon="6.4002">
        <ele>269.258</ele>
        <time>2019-09-25T13:38:06.001Z</time>
      </trkpt>
      <trkpt lat="47.75483" lon="6.40038">
        <ele>268.865</ele>
        <time>2019-09-25T13:38:09.001Z</time>
      </trkpt>
      <trkpt lat="47.75474" lon="6.40058">
        <ele>268.184</ele>
        <time>2019-09-25T13:38:12.001Z</time>
      </trkpt>
      <trkpt lat="47.75466" lon="6.40077">
        <ele>267.501</ele>
        <time>2019-09-25T13:38:15.001Z</time>
      </trkpt>
      <trkpt lat="47.75457" lon="6.40096">
        <ele>267.201</ele>
        <time>2019-09-25T13:38:18.001Z</time>
      </trkpt>
      <trkpt lat="47.75448" lon="6.40114">
        <ele>267.309</ele>
        <time>2019-09-25T13:38:21.001Z</time>
      </trkpt>
      <trkpt lat="47.7544" lon="6.40133">
        <ele>267.672</ele>
        <time>2019-09-25T13:38:24.001Z</time>
      </trkpt>
      <trkpt lat="47.75432" lon="6.40152">
        <ele>268.848</ele>
        <time>2019-09-25T13:38:27.001Z</time>
      </trkpt>
      <trkpt lat="47.75423" lon="6.4017">
        <ele>269.772</ele>
        <time>2019-09-25T13:38:30.001Z</time>
      </trkpt>
      <trkpt lat="47.75415" lon="6.40188">
        <ele>270.142</ele>
        <time>2019-09-25T13:38:33.001Z</time>
      </trkpt>
      <trkpt lat="47.75407" lon="6.40206">
        <ele>270.239</ele>
        <time>2019-09-25T13:38:36.001Z</time>
      </trkpt>
      <trkpt lat="47.75401" lon="6.40223">
        <ele>270.526</ele>
        <time>2019-09-25T13:38:39.001Z</time>
      </trkpt>
      <trkpt lat="47.75393" lon="6.40239">
        <ele>271.09</ele>
        <time>2019-09-25T13:38:42.001Z</time>
      </trkpt>
      <trkpt lat="47.75385" lon="6.40257">
        <ele>271.179</ele>
        <time>2019-09-25T13:38:45.001Z</time>
      </trkpt>
      <trkpt lat="47.75376" lon="6.40277">
        <ele>271.14</ele>
        <time>2019-09-25T13:38:48.001Z</time>
      </trkpt>
      <trkpt lat="47.75368" lon="6.40295">
        <ele>271.194</ele>
        <time>2019-09-25T13:38:51.001Z</time>
      </trkpt>
      <trkpt lat="47.75359" lon="6.40312">
        <ele>271.354</ele>
        <time>2019-09-25T13:38:54.001Z</time>
      </trkpt>
      <trkpt lat="47.75352" lon="6.40328">
        <ele>271.477</ele>
        <time>2019-09-25T13:38:57.001Z</time>
      </trkpt>
      <trkpt lat="47.75344" lon="6.40345">
        <ele>272.145</ele>
        <time>2019-09-25T15:39:00Z</time>
      </trkpt>
      <trkpt lat="47.75336" lon="6.40363">
        <ele>272.859</ele>
        <time>2019-09-25T13:39:03.001Z</time>
      </trkpt>
      <trkpt lat="47.75327" lon="6.40381">
        <ele>272.688</ele>
        <time>2019-09-25T13:39:06.001Z</time>
      </trkpt>
      <trkpt lat="47.75318" lon="6.40399">
        <ele>272.527</ele>
        <time>2019-09-25T13:39:09.001Z</time>
      </trkpt>
      <trkpt lat="47.7531" lon="6.40417">
        <ele>273.306</ele>
        <time>2019-09-25T13:39:12.001Z</time>
      </trkpt>
      <trkpt lat="47.75301" lon="6.40433">
        <ele>273.915</ele>
        <time>2019-09-25T13:39:15.001Z</time>
      </trkpt>
      <trkpt lat="47.75293" lon="6.40445">
        <ele>273.666</ele>
        <time>2019-09-25T13:39:18.001Z</time>
      </trkpt>
      <trkpt lat="47.75284" lon="6.4046">
        <ele>274.053</ele>
        <time>2019-09-25T13:39:21.001Z</time>
      </trkpt>
      <trkpt lat="47.75275" lon="6.40475">
        <ele>274.009</ele>
        <time>2019-09-25T13:39:24.001Z</time>
      </trkpt>
      <trkpt lat="47.75266" lon="6.40491">
        <ele>273.843</ele>
        <time>2019-09-25T13:39:27.001Z</time>
      </trkpt>
      <trkpt lat="47.75259" lon="6.40508">
        <ele>273.706</ele>
        <time>2019-09-25T13:39:30.001Z</time>
      </trkpt>
      <trkpt lat="47.7525" lon="6.40524">
        <ele>273.625</ele>
        <time>2019-09-25T13:39:33.001Z</time>
      </trkpt>
      <trkpt lat="47.75241" lon="6.4054">
        <ele>274.365</ele>
        <time>2019-09-25T13:39:36.001Z</time>
      </trkpt>
      <trkpt lat="47.75231" lon="6.40556">
        <ele>275.032</ele>
        <time>2019-09-25T13:39:39.001Z</time>
      </trkpt>
      <trkpt lat="47.75222" lon="6.40571">
        <ele>274.755</ele>
        <time>2019-09-25T13:39:42.001Z</time>
      </trkpt>
      <trkpt lat="47.75213" lon="6.40587">
        <ele>275.131</ele>
        <time>2019-09-25T13:39:45.001Z</time>
      </trkpt>
      <trkpt lat="47.75205" lon="6.40602">
        <ele>275.427</ele>
        <time>2019-09-25T13:39:48.001Z</time>
      </trkpt>
      <trkpt lat="47.75196" lon="6.40617">
        <ele>275.094</ele>
        <time>2019-09-25T13:39:51.001Z</time>
      </trkpt>
      <trkpt lat="47.75186" lon="6.40634">
        <ele>274.831</ele>
        <time>2019-09-25T13:39:54.001Z</time>
      </trkpt>
      <trkpt lat="47.75177" lon="6.40653">
        <ele>275.13</ele>
        <time>2019-09-25T13:39:57.001Z</time>
      </trkpt>
      <trkpt lat="47.75169" lon="6.40671">
        <ele>275.497</ele>
        <time>2019-09-25T15:40:00Z</time>
      </trkpt>
      <trkpt lat="47.75162" lon="6.4069">
        <ele>275.433</ele>
        <time>2019-09-25T13:40:03.001Z</time>
      </trkpt>
      <trkpt lat="47.75157" lon="6.4071">
        <ele>275.23</ele>
        <time>2019-09-25T13:40:06.001Z</time>
      </trkpt>
      <trkpt lat="47.75152" lon="6.40731">
        <ele>275.705</ele>
        <time>2019-09-25T13:40:09.001Z</time>
      </trkpt>
      <trkpt lat="47.75148" lon="6.40752">
        <ele>276.771</ele>
        <time>2019-09-25T13:40:12.001Z</time>
      </trkpt>
      <trkpt lat="47.75145" lon="6.40774">
        <ele>276.856</ele>
        <time>2019-09-25T13:40:15.001Z</time>
      </trkpt>
      <trkpt lat="47.75141" lon="6.40795">
        <ele>276.374</ele>
        <time>2019-09-25T13:40:18.001Z</time>
      </trkpt>
      <trkpt lat="47.75135" lon="6.40813">
        <ele>275.699</ele>
        <time>2019-09-25T13:40:21.001Z</time>
      </trkpt>
      <trkpt lat="47.75128" lon="6.40832">
        <ele>275.37</ele>
        <time>2019-09-25T13:40:24.001Z</time>
      </trkpt>
      <trkpt lat="47.75121" lon="6.40851">
        <ele>275.281</ele>
        <time>2019-09-25T13:40:27.001Z</time>
      </trkpt>
      <trkpt lat="47.75115" lon="6.4087">
        <ele>275.1</ele>
        <time>2019-09-25T13:40:30.001Z</time>
      </trkpt>
      <trkpt lat="47.75109" lon="6.40889">
        <ele>274.607</ele>
        <time>2019-09-25T13:40:33.001Z</time>
      </trkpt>
      <trkpt lat="47.75103" lon="6.40906">
        <ele>274.216</ele>
        <time>2019-09-25T13:40:36.001Z</time>
      </trkpt>
      <trkpt lat="47.75097" lon="6.40921">
        <ele>274.904</ele>
        <time>2019-09-25T13:40:39.001Z</time>
      </trkpt>
      <trkpt lat="47.75091" lon="6.4094">
        <ele>274.604</ele>
        <time>2019-09-25T13:40:42.001Z</time>
      </trkpt>
      <trkpt lat="47.75087" lon="6.40959">
        <ele>274.773</ele>
        <time>2019-09-25T13:40:45.001Z</time>
      </trkpt>
      <trkpt lat="47.75083" lon="6.40979">
        <ele>275.096</ele>
        <time>2019-09-25T13:40:48.001Z</time>
      </trkpt>
      <trkpt lat="47.75078" lon="6.40999">
        <ele>275.586</ele>
        <time>2019-09-25T13:40:51.001Z</time>
      </trkpt>
      <trkpt lat="47.75073" lon="6.41019">
        <ele>276.198</ele>
        <time>2019-09-25T13:40:54.001Z</time>
      </trkpt>
      <trkpt lat="47.75068" lon="6.41039">
        <ele>277.564</ele>
        <time>2019-09-25T13:40:57.001Z</time>
      </trkpt>
      <trkpt lat="47.75062" lon="6.41058">
        <ele>277.867</ele>
        <time>2019-09-25T15:41:00Z</time>
      </trkpt>
      <trkpt lat="47.75057" lon="6.41077">
        <ele>278.022</ele>
        <time>2019-09-25T13:41:03.001Z</time>
      </trkpt>
      <trkpt lat="47.75054" lon="6.41097">
        <ele>278.005</ele>
        <time>2019-09-25T13:41:06.001Z</time>
      </trkpt>
      <trkpt lat="47.75049" lon="6.41118">
        <ele>278.504</ele>
        <time>2019-09-25T13:41:09.001Z</time>
      </trkpt>
      <trkpt lat="47.75044" lon="6.41138">
        <ele>278.794</ele>
        <time>2019-09-25T13:41:12.001Z</time>
      </trkpt>
      <trkpt lat="47.75039" lon="6.41159">
        <ele>279.032</ele>
        <time>2019-09-25T13:41:15.001Z</time>
      </trkpt>
      <trkpt lat="47.75035" lon="6.41181">
        <ele>279.481</ele>
        <time>2019-09-25T13:41:18.001Z</time>
      </trkpt>
      <trkpt lat="47.7503" lon="6.41204">
        <ele>279.557</ele>
        <time>2019-09-25T13:41:21.001Z</time>
      </trkpt>
      <trkpt lat="47.75023" lon="6.41225">
        <ele>279.303</ele>
        <time>2019-09-25T13:41:24.001Z</time>
      </trkpt>
      <trkpt lat="47.7502" lon="6.41247">
        <ele>279.844</ele>
        <time>2019-09-25T13:41:27.001Z</time>
      </trkpt>
      <trkpt lat="47.75016" lon="6.41269">
        <ele>280.356</ele>
        <time>2019-09-25T13:41:30.001Z</time>
      </trkpt>
      <trkpt lat="47.75012" lon="6.4129">
        <ele>281.153</ele>
        <time>2019-09-25T13:41:33.001Z</time>
      </trkpt>
      <trkpt lat="47.75007" lon="6.41311">
        <ele>281.3</ele>
        <time>2019-09-25T13:41:36.001Z</time>
      </trkpt>
      <trkpt lat="47.75002" lon="6.41332">
        <ele>281.666</ele>
        <time>2019-09-25T13:41:39.001Z</time>
      </trkpt>
      <trkpt lat="47.74998" lon="6.41352">
        <ele>281.812</ele>
        <time>2019-09-25T13:41:42.001Z</time>
      </trkpt>
      <trkpt lat="47.74994" lon="6.41371">
        <ele>281.299</ele>
        <time>2019-09-25T13:41:45.001Z</time>
      </trkpt>
      <trkpt lat="47.74989" lon="6.41391">
        <ele>281.293</ele>
        <time>2019-09-25T13:41:48.001Z</time>
      </trkpt>
      <trkpt lat="47.74986" lon="6.4141">
        <ele>281.511</ele>
        <time>2019-09-25T13:41:51.001Z</time>
      </trkpt>
      <trkpt lat="47.74981" lon="6.4143">
        <ele>281.545</ele>
        <time>2019-09-25T13:41:54.001Z</time>
      </trkpt>
      <trkpt lat="47.74977" lon="6.4145">
        <ele>281.34</ele>
        <time>2019-09-25T13:41:57.001Z</time>
      </trkpt>
      <trkpt lat="47.74973" lon="6.4147">
        <ele>280.891</ele>
        <time>2019-09-25T15:42:00Z</time>
      </trkpt>
      <trkpt lat="47.7497" lon="6.4149">
        <ele>280.586</ele>
        <time>2019-09-25T13:42:03.001Z</time>
      </trkpt>
      <trkpt lat="47.74966" lon="6.4151">
        <ele>280.605</ele>
        <time>2019-09-25T13:42:06.001Z</time>
      </trkpt>
      <trkpt lat="47.74963" lon="6.41529">
        <ele>280.209</ele>
        <time>2019-09-25T13:42:09.001Z</time>
      </trkpt>
      <trkpt lat="47.74959" lon="6.41548">
        <ele>279.154</ele>
        <time>2019-09-25T13:42:12.001Z</time>
      </trkpt>
      <trkpt lat="47.74955" lon="6.41567">
        <ele>278.587</ele>
        <time>2019-09-25T13:42:15.001Z</time>
      </trkpt>
      <trkpt lat="47.74951" lon="6.41587">
        <ele>278.177</ele>
        <time>2019-09-25T13:42:18.001Z</time>
      </trkpt>
      <trkpt lat="47.74947" lon="6.41607">
        <ele>278.39</ele>
        <time>2019-09-25T13:42:21.001Z</time>
      </trkpt>
      <trkpt lat="47.74942" lon="6.41624">
        <ele>278.724</ele>
        <time>2019-09-25T13:42:24.001Z</time>
      </trkpt>
      <trkpt lat="47.74937" lon="6.41643">
        <ele>279.169</ele>
        <time>2019-09-25T13:42:27.001Z</time>
      </trkpt>
      <trkpt lat="47.74935" lon="6.41665">
        <ele>280.046</ele>
        <time>2019-09-25T13:42:30.001Z</time>
      </trkpt>
      <trkpt lat="47.74933" lon="6.41687">
        <ele>280.595</ele>
        <time>2019-09-25T13:42:33.001Z</time>
      </trkpt>
      <trkpt lat="47.74933" lon="6.41707">
        <ele>281.154</ele>
        <time>2019-09-25T13:42:36.001Z</time>
      </trkpt>
      <trkpt lat="47.74932" lon="6.41725">
        <ele>281.525</ele>
        <time>2019-09-25T13:42:39.001Z</time>
      </trkpt>
      <trkpt lat="47.74934" lon="6.41743">
        <ele>282.879</ele>
        <time>2019-09-25T13:42:42.001Z</time>
      </trkpt>
      <trkpt lat="47.74942" lon="6.41761">
        <ele>282.149</ele>
        <time>2019-09-25T13:42:45.001Z</time>
      </trkpt>
      <trkpt lat="47.7495" lon="6.4178">
        <ele>281.593</ele>
        <time>2019-09-25T13:42:48.001Z</time>
      </trkpt>
      <trkpt lat="47.74957" lon="6.41798">
        <ele>281.269</ele>
        <time>2019-09-25T13:42:51.001Z</time>
      </trkpt>
      <trkpt lat="47.74964" lon="6.41814">
        <ele>280.947</ele>
        <time>2019-09-25T13:42:54.001Z</time>
      </trkpt>
      <trkpt lat="47.74971" lon="6.41829">
        <ele>280.712</ele>
        <time>2019-09-25T13:42:57.001Z</time>
      </trkpt>
      <trkpt lat="47.74976" lon="6.41842">
        <ele>281.09</ele>
        <time>2019-09-25T15:43:00Z</time>
      </trkpt>
      <trkpt lat="47.74981" lon="6.41858">
        <ele>281.034</ele>
        <time>2019-09-25T13:43:03.001Z</time>
      </trkpt>
      <trkpt lat="47.74991" lon="6.41879">
        <ele>280.907</ele>
        <time>2019-09-25T13:43:06.001Z</time>
      </trkpt>
      <trkpt lat="47.75003" lon="6.419">
        <ele>280.08</ele>
        <time>2019-09-25T13:43:09.001Z</time>
      </trkpt>
      <trkpt lat="47.75015" lon="6.41919">
        <ele>279.441</ele>
        <time>2019-09-25T13:43:12.001Z</time>
      </trkpt>
      <trkpt lat="47.75027" lon="6.41937">
        <ele>278.369</ele>
        <time>2019-09-25T13:43:15.001Z</time>
      </trkpt>
      <trkpt lat="47.75038" lon="6.41955">
        <ele>277.167</ele>
        <time>2019-09-25T13:43:18.001Z</time>
      </trkpt>
      <trkpt lat="47.75049" lon="6.41971">
        <ele>276.097</ele>
        <time>2019-09-25T13:43:21.001Z</time>
      </trkpt>
      <trkpt lat="47.75059" lon="6.41987">
        <ele>275.843</ele>
        <time>2019-09-25T13:43:24.001Z</time>
      </trkpt>
      <trkpt lat="47.75068" lon="6.42003">
        <ele>275.895</ele>
        <time>2019-09-25T13:43:27.001Z</time>
      </trkpt>
      <trkpt lat="47.75077" lon="6.42017">
        <ele>277.277</ele>
        <time>2019-09-25T13:43:30.001Z</time>
      </trkpt>
      <trkpt lat="47.75081" lon="6.42032">
        <ele>278.957</ele>
        <time>2019-09-25T13:43:33.001Z</time>
      </trkpt>
      <trkpt lat="47.75084" lon="6.42051">
        <ele>279.24</ele>
        <time>2019-09-25T13:43:36.001Z</time>
      </trkpt>
      <trkpt lat="47.75084" lon="6.42073">
        <ele>280.154</ele>
        <time>2019-09-25T13:43:39.001Z</time>
      </trkpt>
      <trkpt lat="47.75084" lon="6.42095">
        <ele>280.881</ele>
        <time>2019-09-25T13:43:42.001Z</time>
      </trkpt>
      <trkpt lat="47.75085" lon="6.42116">
        <ele>281.779</ele>
        <time>2019-09-25T13:43:45.001Z</time>
      </trkpt>
      <trkpt lat="47.75086" lon="6.42135">
        <ele>281.805</ele>
        <time>2019-09-25T13:43:48.001Z</time>
      </trkpt>
      <trkpt lat="47.75086" lon="6.42151">
        <ele>282.164</ele>
        <time>2019-09-25T13:43:51.001Z</time>
      </trkpt>
      <trkpt lat="47.75086" lon="6.42166">
        <ele>283.621</ele>
        <time>2019-09-25T13:43:54.001Z</time>
      </trkpt>
      <trkpt lat="47.75087" lon="6.42181">
        <ele>284.392</ele>
        <time>2019-09-25T13:43:57.001Z</time>
      </trkpt>
      <trkpt lat="47.75092" lon="6.42195">
        <ele>283.621</ele>
        <time>2019-09-25T15:44:00Z</time>
      </trkpt>
      <trkpt lat="47.75102" lon="6.42204">
        <ele>283.024</ele>
        <time>2019-09-25T13:44:03.001Z</time>
      </trkpt>
      <trkpt lat="47.75114" lon="6.42207">
        <ele>282.234</ele>
        <time>2019-09-25T13:44:06.001Z</time>
      </trkpt>
      <trkpt lat="47.75127" lon="6.42208">
        <ele>282.996</ele>
        <time>2019-09-25T13:44:09.001Z</time>
      </trkpt>
      <trkpt lat="47.75139" lon="6.42213">
        <ele>283.372</ele>
        <time>2019-09-25T13:44:12.001Z</time>
      </trkpt>
      <trkpt lat="47.75146" lon="6.42225">
        <ele>282.394</ele>
        <time>2019-09-25T13:44:15.001Z</time>
      </trkpt>
      <trkpt lat="47.75149" lon="6.42239">
        <ele>282.039</ele>
        <time>2019-09-25T13:44:18.001Z</time>
      </trkpt>
      <trkpt lat="47.75152" lon="6.42258">
        <ele>282.043</ele>
        <time>2019-09-25T13:44:21.001Z</time>
      </trkpt>
      <trkpt lat="47.75148" lon="6.4228">
        <ele>281.405</ele>
        <time>2019-09-25T13:44:24.001Z</time>
      </trkpt>
      <trkpt lat="47.75135" lon="6.42293">
        <ele>280.949</ele>
        <time>2019-09-25T13:44:27.001Z</time>
      </trkpt>
      <trkpt lat="47.75121" lon="6.42301">
        <ele>280.438</ele>
        <time>2019-09-25T13:44:30.001Z</time>
      </trkpt>
      <trkpt lat="47.75109" lon="6.4231">
        <ele>280.329</ele>
        <time>2019-09-25T13:44:33.001Z</time>
      </trkpt>
      <trkpt lat="47.75097" lon="6.42319">
        <ele>279.198</ele>
        <time>2019-09-25T13:44:36.001Z</time>
      </trkpt>
      <trkpt lat="47.75088" lon="6.42332">
        <ele>278.982</ele>
        <time>2019-09-25T13:44:39.001Z</time>
      </trkpt>
      <trkpt lat="47.75083" lon="6.42349">
        <ele>279.273</ele>
        <time>2019-09-25T13:44:42.001Z</time>
      </trkpt>
      <trkpt lat="47.75083" lon="6.42368">
        <ele>279.795</ele>
        <time>2019-09-25T13:44:45.001Z</time>
      </trkpt>
      <trkpt lat="47.75085" lon="6.42387">
        <ele>280.191</ele>
        <time>2019-09-25T13:44:48.001Z</time>
      </trkpt>
      <trkpt lat="47.75087" lon="6.42405">
        <ele>280.553</ele>
        <time>2019-09-25T13:44:51.001Z</time>
      </trkpt>
      <trkpt lat="47.75089" lon="6.42424">
        <ele>280.557</ele>
        <time>2019-09-25T13:44:54.001Z</time>
      </trkpt>
      <trkpt lat="47.75092" lon="6.42444">
        <ele>280.411</ele>
        <time>2019-09-25T13:44:57.001Z</time>
      </trkpt>
      <trkpt lat="47.75094" lon="6.42463">
        <ele>280.537</ele>
        <time>2019-09-25T15:45:00Z</time>
      </trkpt>
      <trkpt lat="47.75097" lon="6.42483">
        <ele>280.981</ele>
        <time>2019-09-25T13:45:03.001Z</time>
      </trkpt>
      <trkpt lat="47.75099" lon="6.42503">
        <ele>281.127</ele>
        <time>2019-09-25T13:45:06.001Z</time>
      </trkpt>
      <trkpt lat="47.75102" lon="6.42524">
        <ele>281.69</ele>
        <time>2019-09-25T13:45:09.001Z</time>
      </trkpt>
      <trkpt lat="47.75104" lon="6.42545">
        <ele>280.966</ele>
        <time>2019-09-25T13:45:12.001Z</time>
      </trkpt>
      <trkpt lat="47.75105" lon="6.42566">
        <ele>279.775</ele>
        <time>2019-09-25T13:45:15.001Z</time>
      </trkpt>
      <trkpt lat="47.75106" lon="6.42586">
        <ele>279.026</ele>
        <time>2019-09-25T13:45:18.001Z</time>
      </trkpt>
      <trkpt lat="47.75109" lon="6.42606">
        <ele>279.618</ele>
        <time>2019-09-25T13:45:21.001Z</time>
      </trkpt>
      <trkpt lat="47.75111" lon="6.42629">
        <ele>278.884</ele>
        <time>2019-09-25T13:45:24.001Z</time>
      </trkpt>
      <trkpt lat="47.75113" lon="6.4265">
        <ele>278.576</ele>
        <time>2019-09-25T13:45:27.001Z</time>
      </trkpt>
      <trkpt lat="47.75114" lon="6.42669">
        <ele>278.193</ele>
        <time>2019-09-25T13:45:30.001Z</time>
      </trkpt>
      <trkpt lat="47.75114" lon="6.42688">
        <ele>277.45</ele>
        <time>2019-09-25T13:45:33.001Z</time>
      </trkpt>
      <trkpt lat="47.75116" lon="6.42708">
        <ele>277.333</ele>
        <time>2019-09-25T13:45:36.001Z</time>
      </trkpt>
      <trkpt lat="47.75116" lon="6.4273">
        <ele>277.785</ele>
        <time>2019-09-25T13:45:39.001Z</time>
      </trkpt>
      <trkpt lat="47.75116" lon="6.42751">
        <ele>278.328</ele>
        <time>2019-09-25T13:45:42.001Z</time>
      </trkpt>
      <trkpt lat="47.75114" lon="6.42772">
        <ele>278.769</ele>
        <time>2019-09-25T13:45:45.001Z</time>
      </trkpt>
      <trkpt lat="47.75111" lon="6.42792">
        <ele>279.714</ele>
        <time>2019-09-25T13:45:48.001Z</time>
      </trkpt>
      <trkpt lat="47.7511" lon="6.42814">
        <ele>280.062</ele>
        <time>2019-09-25T13:45:51.001Z</time>
      </trkpt>
      <trkpt lat="47.75108" lon="6.42837">
        <ele>280.315</ele>
        <time>2019-09-25T13:45:54.001Z</time>
      </trkpt>
      <trkpt lat="47.75107" lon="6.42857">
        <ele>280.358</ele>
        <time>2019-09-25T13:45:57.001Z</time>
      </trkpt>
      <trkpt lat="47.75106" lon="6.42876">
        <ele>281.03</ele>
        <time>2019-09-25T15:46:00Z</time>
      </trkpt>
      <trkpt lat="47.75106" lon="6.42896">
        <ele>281.764</ele>
        <time>2019-09-25T13:46:03.001Z</time>
      </trkpt>
      <trkpt lat="47.75106" lon="6.42916">
        <ele>281.691</ele>
        <time>2019-09-25T13:46:06.001Z</time>
      </trkpt>
      <trkpt lat="47.75106" lon="6.42936">
        <ele>281.877</ele>
        <time>2019-09-25T13:46:09.001Z</time>
      </trkpt>
      <trkpt lat="47.75103" lon="6.42957">
        <ele>282.458</ele>
        <time>2019-09-25T13:46:12.001Z</time>
      </trkpt>
      <trkpt lat="47.75102" lon="6.42977">
        <ele>282.827</ele>
        <time>2019-09-25T13:46:15.001Z</time>
      </trkpt>
      <trkpt lat="47.75099" lon="6.42996">
        <ele>282.447</ele>
        <time>2019-09-25T13:46:18.001Z</time>
      </trkpt>
      <trkpt lat="47.75096" lon="6.43016">
        <ele>281.7</ele>
        <time>2019-09-25T13:46:21.001Z</time>
      </trkpt>
      <trkpt lat="47.75093" lon="6.43036">
        <ele>280.901</ele>
        <time>2019-09-25T13:46:24.001Z</time>
      </trkpt>
      <trkpt lat="47.7509" lon="6.43055">
        <ele>280.523</ele>
        <time>2019-09-25T13:46:27.001Z</time>
      </trkpt>
      <trkpt lat="47.75087" lon="6.43074">
        <ele>280.154</ele>
        <time>2019-09-25T13:46:30.001Z</time>
      </trkpt>
      <trkpt lat="47.75085" lon="6.43093">
        <ele>279.986</ele>
        <time>2019-09-25T13:46:33.001Z</time>
      </trkpt>
      <trkpt lat="47.75083" lon="6.43111">
        <ele>280.198</ele>
        <time>2019-09-25T13:46:36.001Z</time>
      </trkpt>
      <trkpt lat="47.7508" lon="6.43128">
        <ele>280.54</ele>
        <time>2019-09-25T13:46:39.001Z</time>
      </trkpt>
      <trkpt lat="47.75077" lon="6.43145">
        <ele>281.235</ele>
        <time>2019-09-25T13:46:42.001Z</time>
      </trkpt>
      <trkpt lat="47.75074" lon="6.43162">
        <ele>282.032</ele>
        <time>2019-09-25T13:46:45.001Z</time>
      </trkpt>
      <trkpt lat="47.75071" lon="6.4318">
        <ele>282.212</ele>
        <time>2019-09-25T13:46:48.001Z</time>
      </trkpt>
      <trkpt lat="47.75068" lon="6.43198">
        <ele>281.944</ele>
        <time>2019-09-25T13:46:51.001Z</time>
      </trkpt>
      <trkpt lat="47.75065" lon="6.43218">
        <ele>281.889</ele>
        <time>2019-09-25T13:46:54.001Z</time>
      </trkpt>
      <trkpt lat="47.75062" lon="6.43237">
        <ele>281.905</ele>
        <time>2019-09-25T13:46:57.001Z</time>
      </trkpt>
      <trkpt lat="47.7506" lon="6.43256">
        <ele>282</ele>
        <time>2019-09-25T15:47:00Z</time>
      </trkpt>
      <trkpt lat="47.75057" lon="6.43274">
        <ele>282.452</ele>
        <time>2019-09-25T13:47:03.001Z</time>
      </trkpt>
      <trkpt lat="47.75057" lon="6.43293">
        <ele>282.556</ele>
        <time>2019-09-25T13:47:06.001Z</time>
      </trkpt>
      <trkpt lat="47.75057" lon="6.43308">
        <ele>282.819</ele>
        <time>2019-09-25T13:47:09.001Z</time>
      </trkpt>
      <trkpt lat="47.75051" lon="6.43326">
        <ele>283.22</ele>
        <time>2019-09-25T13:47:12.001Z</time>
      </trkpt>
      <trkpt lat="47.75048" lon="6.43345">
        <ele>284.378</ele>
        <time>2019-09-25T13:47:15.001Z</time>
      </trkpt>
      <trkpt lat="47.75045" lon="6.43364">
        <ele>284.647</ele>
        <time>2019-09-25T13:47:18.001Z</time>
      </trkpt>
      <trkpt lat="47.75043" lon="6.43383">
        <ele>284.023</ele>
        <time>2019-09-25T13:47:21.001Z</time>
      </trkpt>
      <trkpt lat="47.7504" lon="6.434">
        <ele>283.184</ele>
        <time>2019-09-25T13:47:24.001Z</time>
      </trkpt>
      <trkpt lat="47.75036" lon="6.43418">
        <ele>282.229</ele>
        <time>2019-09-25T13:47:27.001Z</time>
      </trkpt>
      <trkpt lat="47.75029" lon="6.43434">
        <ele>281.666</ele>
        <time>2019-09-25T13:47:30.001Z</time>
      </trkpt>
      <trkpt lat="47.75022" lon="6.43447">
        <ele>282.001</ele>
        <time>2019-09-25T13:47:33.001Z</time>
      </trkpt>
      <trkpt lat="47.75014" lon="6.43459">
        <ele>281.739</ele>
        <time>2019-09-25T13:47:36.001Z</time>
      </trkpt>
      <trkpt lat="47.75007" lon="6.43474">
        <ele>281.255</ele>
        <time>2019-09-25T13:47:39.001Z</time>
      </trkpt>
      <trkpt lat="47.75001" lon="6.43489">
        <ele>281.202</ele>
        <time>2019-09-25T13:47:42.001Z</time>
      </trkpt>
      <trkpt lat="47.74995" lon="6.43505">
        <ele>281.269</ele>
        <time>2019-09-25T13:47:45.001Z</time>
      </trkpt>
      <trkpt lat="47.7499" lon="6.4352">
        <ele>281.011</ele>
        <time>2019-09-25T13:47:48.001Z</time>
      </trkpt>
      <trkpt lat="47.74986" lon="6.43536">
        <ele>281.016</ele>
        <time>2019-09-25T13:47:51.001Z</time>
      </trkpt>
      <trkpt lat="47.74981" lon="6.43553">
        <ele>281.287</ele>
        <time>2019-09-25T13:47:54.001Z</time>
      </trkpt>
      <trkpt lat="47.74976" lon="6.43569">
        <ele>281.701</ele>
        <time>2019-09-25T13:47:57.001Z</time>
      </trkpt>
      <trkpt lat="47.74972" lon="6.43586">
        <ele>282.202</ele>
        <time>2019-09-25T15:48:00Z</time>
      </trkpt>
      <trkpt lat="47.74968" lon="6.43603">
        <ele>282.244</ele>
        <time>2019-09-25T13:48:03.001Z</time>
      </trkpt>
      <trkpt lat="47.74963" lon="6.43621">
        <ele>281.906</ele>
        <time>2019-09-25T13:48:06.001Z</time>
      </trkpt>
      <trkpt lat="47.74959" lon="6.43641">
        <ele>281.209</ele>
        <time>2019-09-25T13:48:09.001Z</time>
      </trkpt>
      <trkpt lat="47.74956" lon="6.43662">
        <ele>281.306</ele>
        <time>2019-09-25T13:48:12.001Z</time>
      </trkpt>
      <trkpt lat="47.74955" lon="6.43684">
        <ele>281.464</ele>
        <time>2019-09-25T13:48:15.001Z</time>
      </trkpt>
      <trkpt lat="47.74955" lon="6.43706">
        <ele>281.399</ele>
        <time>2019-09-25T13:48:18.001Z</time>
      </trkpt>
      <trkpt lat="47.74955" lon="6.43729">
        <ele>281.186</ele>
        <time>2019-09-25T13:48:21.001Z</time>
      </trkpt>
      <trkpt lat="47.74954" lon="6.4375">
        <ele>281.28</ele>
        <time>2019-09-25T13:48:24.001Z</time>
      </trkpt>
      <trkpt lat="47.74951" lon="6.43771">
        <ele>281.726</ele>
        <time>2019-09-25T13:48:27.001Z</time>
      </trkpt>
      <trkpt lat="47.74947" lon="6.43791">
        <ele>281.667</ele>
        <time>2019-09-25T13:48:30.001Z</time>
      </trkpt>
      <trkpt lat="47.74942" lon="6.43812">
        <ele>282.204</ele>
        <time>2019-09-25T13:48:33.001Z</time>
      </trkpt>
      <trkpt lat="47.74941" lon="6.43837">
        <ele>282.607</ele>
        <time>2019-09-25T13:48:36.001Z</time>
      </trkpt>
      <trkpt lat="47.74944" lon="6.43861">
        <ele>282.633</ele>
        <time>2019-09-25T13:48:39.001Z</time>
      </trkpt>
      <trkpt lat="47.74948" lon="6.43882">
        <ele>282.569</ele>
        <time>2019-09-25T13:48:42.001Z</time>
      </trkpt>
      <trkpt lat="47.74953" lon="6.43902">
        <ele>282.548</ele>
        <time>2019-09-25T13:48:45.001Z</time>
      </trkpt>
      <trkpt lat="47.74958" lon="6.43922">
        <ele>282.612</ele>
        <time>2019-09-25T13:48:48.001Z</time>
      </trkpt>
      <trkpt lat="47.74963" lon="6.43942">
        <ele>281.783</ele>
        <time>2019-09-25T13:48:51.001Z</time>
      </trkpt>
      <trkpt lat="47.74967" lon="6.43962">
        <ele>281.6</ele>
        <time>2019-09-25T13:48:54.001Z</time>
      </trkpt>
      <trkpt lat="47.74971" lon="6.43982">
        <ele>281.451</ele>
        <time>2019-09-25T13:48:57.001Z</time>
      </trkpt>
      <trkpt lat="47.74977" lon="6.44001">
        <ele>280.949</ele>
        <time>2019-09-25T15:49:00Z</time>
      </trkpt>
      <trkpt lat="47.74987" lon="6.4402">
        <ele>280.921</ele>
        <time>2019-09-25T13:49:03.001Z</time>
      </trkpt>
      <trkpt lat="47.74997" lon="6.44034">
        <ele>281.189</ele>
        <time>2019-09-25T13:49:06.001Z</time>
      </trkpt>
      <trkpt lat="47.75005" lon="6.44048">
        <ele>281.752</ele>
        <time>2019-09-25T13:49:09.001Z</time>
      </trkpt>
      <trkpt lat="47.75009" lon="6.44067">
        <ele>282.549</ele>
        <time>2019-09-25T13:49:12.001Z</time>
      </trkpt>
      <trkpt lat="47.75008" lon="6.44091">
        <ele>283.685</ele>
        <time>2019-09-25T13:49:15.001Z</time>
      </trkpt>
      <trkpt lat="47.75003" lon="6.44114">
        <ele>284.338</ele>
        <time>2019-09-25T13:49:18.001Z</time>
      </trkpt>
      <trkpt lat="47.74997" lon="6.44136">
        <ele>284.199</ele>
        <time>2019-09-25T13:49:21.001Z</time>
      </trkpt>
      <trkpt lat="47.74993" lon="6.44156">
        <ele>284.916</ele>
        <time>2019-09-25T13:49:24.001Z</time>
      </trkpt>
      <trkpt lat="47.7499" lon="6.44174">
        <ele>285.082</ele>
        <time>2019-09-25T13:49:27.001Z</time>
      </trkpt>
      <trkpt lat="47.74985" lon="6.44191">
        <ele>285.519</ele>
        <time>2019-09-25T13:49:30.001Z</time>
      </trkpt>
      <trkpt lat="47.74981" lon="6.44208">
        <ele>285.264</ele>
        <time>2019-09-25T13:49:33.001Z</time>
      </trkpt>
      <trkpt lat="47.74977" lon="6.44226">
        <ele>284.86</ele>
        <time>2019-09-25T13:49:36.001Z</time>
      </trkpt>
      <trkpt lat="47.74975" lon="6.44245">
        <ele>284.128</ele>
        <time>2019-09-25T13:49:39.001Z</time>
      </trkpt>
      <trkpt lat="47.74976" lon="6.44264">
        <ele>282.275</ele>
        <time>2019-09-25T13:49:42.001Z</time>
      </trkpt>
      <trkpt lat="47.74979" lon="6.44282">
        <ele>280.973</ele>
        <time>2019-09-25T13:49:45.001Z</time>
      </trkpt>
      <trkpt lat="47.74984" lon="6.44299">
        <ele>279.79</ele>
        <time>2019-09-25T13:49:48.001Z</time>
      </trkpt>
      <trkpt lat="47.74988" lon="6.44316">
        <ele>278.524</ele>
        <time>2019-09-25T13:49:51.001Z</time>
      </trkpt>
      <trkpt lat="47.74992" lon="6.44333">
        <ele>278.021</ele>
        <time>2019-09-25T13:49:54.001Z</time>
      </trkpt>
      <trkpt lat="47.74994" lon="6.44351">
        <ele>277.991</ele>
        <time>2019-09-25T13:49:57.001Z</time>
      </trkpt>
      <trkpt lat="47.74995" lon="6.44367">
        <ele>278.196</ele>
        <time>2019-09-25T15:50:00Z</time>
      </trkpt>
      <trkpt lat="47.74994" lon="6.44383">
        <ele>279.03</ele>
        <time>2019-09-25T13:50:03.001Z</time>
      </trkpt>
      <trkpt lat="47.74991" lon="6.44398">
        <ele>279.597</ele>
        <time>2019-09-25T13:50:06.001Z</time>
      </trkpt>
      <trkpt lat="47.74987" lon="6.44413">
        <ele>280.087</ele>
        <time>2019-09-25T13:50:09.001Z</time>
      </trkpt>
      <trkpt lat="47.74982" lon="6.44429">
        <ele>280.573</ele>
        <time>2019-09-25T13:50:12.001Z</time>
      </trkpt>
      <trkpt lat="47.74976" lon="6.44443">
        <ele>281.161</ele>
        <time>2019-09-25T13:50:15.001Z</time>
      </trkpt>
      <trkpt lat="47.74969" lon="6.44456">
        <ele>281.7</ele>
        <time>2019-09-25T13:50:18.001Z</time>
      </trkpt>
      <trkpt lat="47.74963" lon="6.44467">
        <ele>282.347</ele>
        <time>2019-09-25T13:50:21.001Z</time>
      </trkpt>
      <trkpt lat="47.74956" lon="6.44478">
        <ele>283.062</ele>
        <time>2019-09-25T13:50:24.001Z</time>
      </trkpt>
      <trkpt lat="47.7495" lon="6.44493">
        <ele>284.024</ele>
        <time>2019-09-25T13:50:27.001Z</time>
      </trkpt>
      <trkpt lat="47.74947" lon="6.44511">
        <ele>285.084</ele>
        <time>2019-09-25T13:50:30.001Z</time>
      </trkpt>
      <trkpt lat="47.74949" lon="6.44528">
        <ele>286.094</ele>
        <time>2019-09-25T13:50:33.001Z</time>
      </trkpt>
      <trkpt lat="47.74954" lon="6.44544">
        <ele>286.842</ele>
        <time>2019-09-25T13:50:36.001Z</time>
      </trkpt>
      <trkpt lat="47.74959" lon="6.4456">
        <ele>287.9</ele>
        <time>2019-09-25T13:50:39.001Z</time>
      </trkpt>
      <trkpt lat="47.74965" lon="6.44574">
        <ele>288.785</ele>
        <time>2019-09-25T13:50:42.001Z</time>
      </trkpt>
      <trkpt lat="47.7497" lon="6.44587">
        <ele>289.075</ele>
        <time>2019-09-25T13:50:45.001Z</time>
      </trkpt>
      <trkpt lat="47.74976" lon="6.446">
        <ele>289.134</ele>
        <time>2019-09-25T13:50:48.001Z</time>
      </trkpt>
      <trkpt lat="47.74983" lon="6.44613">
        <ele>289.088</ele>
        <time>2019-09-25T13:50:51.001Z</time>
      </trkpt>
      <trkpt lat="47.74989" lon="6.44626">
        <ele>288.849</ele>
        <time>2019-09-25T13:50:54.001Z</time>
      </trkpt>
      <trkpt lat="47.74994" lon="6.44639">
        <ele>288.763</ele>
        <time>2019-09-25T13:50:57.001Z</time>
      </trkpt>
      <trkpt lat="47.74999" lon="6.44653">
        <ele>289.189</ele>
        <time>2019-09-25T15:51:00Z</time>
      </trkpt>
      <trkpt lat="47.75004" lon="6.44665">
        <ele>289.286</ele>
        <time>2019-09-25T13:51:03.001Z</time>
      </trkpt>
      <trkpt lat="47.7501" lon="6.44678">
        <ele>289.707</ele>
        <time>2019-09-25T13:51:06.001Z</time>
      </trkpt>
      <trkpt lat="47.75015" lon="6.4469">
        <ele>289.527</ele>
        <time>2019-09-25T13:51:09.001Z</time>
      </trkpt>
      <trkpt lat="47.75021" lon="6.44703">
        <ele>289.205</ele>
        <time>2019-09-25T13:51:12.001Z</time>
      </trkpt>
      <trkpt lat="47.75028" lon="6.44715">
        <ele>288.984</ele>
        <time>2019-09-25T13:51:15.001Z</time>
      </trkpt>
      <trkpt lat="47.75034" lon="6.44726">
        <ele>289.076</ele>
        <time>2019-09-25T13:51:18.001Z</time>
      </trkpt>
      <trkpt lat="47.75042" lon="6.44738">
        <ele>289.192</ele>
        <time>2019-09-25T13:51:21.001Z</time>
      </trkpt>
      <trkpt lat="47.75047" lon="6.4475">
        <ele>289.364</ele>
        <time>2019-09-25T13:51:24.001Z</time>
      </trkpt>
      <trkpt lat="47.75047" lon="6.44765">
        <ele>289.959</ele>
        <time>2019-09-25T13:51:27.001Z</time>
      </trkpt>
      <trkpt lat="47.75042" lon="6.44776">
        <ele>289.953</ele>
        <time>2019-09-25T13:51:30.001Z</time>
      </trkpt>
      <trkpt lat="47.75035" lon="6.44785">
        <ele>290.65</ele>
        <time>2019-09-25T13:51:33.001Z</time>
      </trkpt>
      <trkpt lat="47.75027" lon="6.44792">
        <ele>291.241</ele>
        <time>2019-09-25T13:51:36.001Z</time>
      </trkpt>
      <trkpt lat="47.7502" lon="6.44799">
        <ele>291.17</ele>
        <time>2019-09-25T13:51:39.001Z</time>
      </trkpt>
      <trkpt lat="47.75011" lon="6.44806">
        <ele>290.868</ele>
        <time>2019-09-25T13:51:42.001Z</time>
      </trkpt>
      <trkpt lat="47.75004" lon="6.44814">
        <ele>290.779</ele>
        <time>2019-09-25T13:51:45.001Z</time>
      </trkpt>
      <trkpt lat="47.74995" lon="6.44817">
        <ele>289.997</ele>
        <time>2019-09-25T13:51:48.001Z</time>
      </trkpt>
      <trkpt lat="47.74983" lon="6.44811">
        <ele>289.085</ele>
        <time>2019-09-25T13:51:51.001Z</time>
      </trkpt>
      <trkpt lat="47.74973" lon="6.44796">
        <ele>288.645</ele>
        <time>2019-09-25T13:51:54.001Z</time>
      </trkpt>
      <trkpt lat="47.74964" lon="6.44781">
        <ele>287.804</ele>
        <time>2019-09-25T13:51:57.001Z</time>
      </trkpt>
      <trkpt lat="47.74949" lon="6.44775">
        <ele>287.287</ele>
        <time>2019-09-25T15:52:00Z</time>
      </trkpt>
      <trkpt lat="47.74934" lon="6.44781">
        <ele>287.985</ele>
        <time>2019-09-25T13:52:03.001Z</time>
      </trkpt>
      <trkpt lat="47.74922" lon="6.44789">
        <ele>286.973</ele>
        <time>2019-09-25T13:52:06.001Z</time>
      </trkpt>
      <trkpt lat="47.74909" lon="6.44796">
        <ele>287.339</ele>
        <time>2019-09-25T13:52:09.001Z</time>
      </trkpt>
      <trkpt lat="47.74898" lon="6.44805">
        <ele>288.292</ele>
        <time>2019-09-25T13:52:12.001Z</time>
      </trkpt>
      <trkpt lat="47.74886" lon="6.44813">
        <ele>288.713</ele>
        <time>2019-09-25T13:52:15.001Z</time>
      </trkpt>
      <trkpt lat="47.74874" lon="6.44822">
        <ele>288.581</ele>
        <time>2019-09-25T13:52:18.001Z</time>
      </trkpt>
      <trkpt lat="47.74862" lon="6.44832">
        <ele>288.792</ele>
        <time>2019-09-25T13:52:21.001Z</time>
      </trkpt>
      <trkpt lat="47.7485" lon="6.44839">
        <ele>288.839</ele>
        <time>2019-09-25T13:52:24.001Z</time>
      </trkpt>
      <trkpt lat="47.74839" lon="6.44846">
        <ele>288.34</ele>
        <time>2019-09-25T13:52:27.001Z</time>
      </trkpt>
      <trkpt lat="47.74828" lon="6.44854">
        <ele>288.273</ele>
        <time>2019-09-25T13:52:30.001Z</time>
      </trkpt>
      <trkpt lat="47.74818" lon="6.44861">
        <ele>288.057</ele>
        <time>2019-09-25T13:52:33.001Z</time>
      </trkpt>
      <trkpt lat="47.74807" lon="6.44868">
        <ele>288.194</ele>
        <time>2019-09-25T13:52:36.001Z</time>
      </trkpt>
      <trkpt lat="47.74796" lon="6.44874">
        <ele>288.21</ele>
        <time>2019-09-25T13:52:39.001Z</time>
      </trkpt>
      <trkpt lat="47.74785" lon="6.44881">
        <ele>288.804</ele>
        <time>2019-09-25T13:52:42.001Z</time>
      </trkpt>
      <trkpt lat="47.74776" lon="6.44886">
        <ele>288.827</ele>
        <time>2019-09-25T13:52:45.001Z</time>
      </trkpt>
      <trkpt lat="47.74766" lon="6.44893">
        <ele>288.202</ele>
        <time>2019-09-25T13:52:48.001Z</time>
      </trkpt>
      <trkpt lat="47.74756" lon="6.44899">
        <ele>288.232</ele>
        <time>2019-09-25T13:52:51.001Z</time>
      </trkpt>
      <trkpt lat="47.74745" lon="6.44906">
        <ele>288.781</ele>
        <time>2019-09-25T13:52:54.001Z</time>
      </trkpt>
      <trkpt lat="47.74734" lon="6.44912">
        <ele>289.683</ele>
        <time>2019-09-25T13:52:57.001Z</time>
      </trkpt>
      <trkpt lat="47.74723" lon="6.4492">
        <ele>290.703</ele>
        <time>2019-09-25T15:53:00Z</time>
      </trkpt>
      <trkpt lat="47.74712" lon="6.44928">
        <ele>291.318</ele>
        <time>2019-09-25T13:53:03.001Z</time>
      </trkpt>
      <trkpt lat="47.74702" lon="6.44935">
        <ele>291.5</ele>
        <time>2019-09-25T13:53:06.001Z</time>
      </trkpt>
      <trkpt lat="47.74691" lon="6.44943">
        <ele>291.559</ele>
        <time>2019-09-25T13:53:09.001Z</time>
      </trkpt>
      <trkpt lat="47.7468" lon="6.4495">
        <ele>291.735</ele>
        <time>2019-09-25T13:53:12.001Z</time>
      </trkpt>
      <trkpt lat="47.7467" lon="6.44957">
        <ele>291.451</ele>
        <time>2019-09-25T13:53:15.001Z</time>
      </trkpt>
      <trkpt lat="47.7466" lon="6.44966">
        <ele>290.85</ele>
        <time>2019-09-25T13:53:18.001Z</time>
      </trkpt>
      <trkpt lat="47.74651" lon="6.44977">
        <ele>290.478</ele>
        <time>2019-09-25T13:53:21.001Z</time>
      </trkpt>
      <trkpt lat="47.74644" lon="6.44991">
        <ele>290.819</ele>
        <time>2019-09-25T13:53:24.001Z</time>
      </trkpt>
      <trkpt lat="47.74638" lon="6.45006">
        <ele>290.903</ele>
        <time>2019-09-25T13:53:27.001Z</time>
      </trkpt>
      <trkpt lat="47.74633" lon="6.45022">
        <ele>290.871</ele>
        <time>2019-09-25T13:53:30.001Z</time>
      </trkpt>
      <trkpt lat="47.74629" lon="6.45039">
        <ele>290.911</ele>
        <time>2019-09-25T13:53:33.001Z</time>
      </trkpt>
      <trkpt lat="47.74625" lon="6.45056">
        <ele>290.801</ele>
        <time>2019-09-25T13:53:36.001Z</time>
      </trkpt>
      <trkpt lat="47.7462" lon="6.45074">
        <ele>291.269</ele>
        <time>2019-09-25T13:53:39.001Z</time>
      </trkpt>
      <trkpt lat="47.74615" lon="6.45094">
        <ele>291.356</ele>
        <time>2019-09-25T13:53:42.001Z</time>
      </trkpt>
      <trkpt lat="47.74607" lon="6.45113">
        <ele>290.731</ele>
        <time>2019-09-25T13:53:45.001Z</time>
      </trkpt>
      <trkpt lat="47.74595" lon="6.45131">
        <ele>290.202</ele>
        <time>2019-09-25T13:53:48.001Z</time>
      </trkpt>
      <trkpt lat="47.74582" lon="6.45145">
        <ele>290.365</ele>
        <time>2019-09-25T13:53:51.001Z</time>
      </trkpt>
      <trkpt lat="47.7457" lon="6.45156">
        <ele>289.93</ele>
        <time>2019-09-25T13:53:54.001Z</time>
      </trkpt>
      <trkpt lat="47.74557" lon="6.45165">
        <ele>289.407</ele>
        <time>2019-09-25T13:53:57.001Z</time>
      </trkpt>
      <trkpt lat="47.74545" lon="6.45174">
        <ele>289.148</ele>
        <time>2019-09-25T15:54:00Z</time>
      </trkpt>
      <trkpt lat="47.74533" lon="6.45183">
        <ele>289.377</ele>
        <time>2019-09-25T13:54:03.001Z</time>
      </trkpt>
      <trkpt lat="47.74523" lon="6.4519">
        <ele>290.007</ele>
        <time>2019-09-25T13:54:06.001Z</time>
      </trkpt>
      <trkpt lat="47.74511" lon="6.45196">
        <ele>290.456</ele>
        <time>2019-09-25T13:54:09.001Z</time>
      </trkpt>
      <trkpt lat="47.74498" lon="6.45198">
        <ele>290.385</ele>
        <time>2019-09-25T13:54:12.001Z</time>
      </trkpt>
      <trkpt lat="47.74483" lon="6.45198">
        <ele>289.698</ele>
        <time>2019-09-25T13:54:15.001Z</time>
      </trkpt>
      <trkpt lat="47.74469" lon="6.45198">
        <ele>289.028</ele>
        <time>2019-09-25T13:54:18.001Z</time>
      </trkpt>
      <trkpt lat="47.74454" lon="6.45199">
        <ele>288.824</ele>
        <time>2019-09-25T13:54:21.001Z</time>
      </trkpt>
      <trkpt lat="47.74439" lon="6.45199">
        <ele>288.424</ele>
        <time>2019-09-25T13:54:24.001Z</time>
      </trkpt>
      <trkpt lat="47.74423" lon="6.45201">
        <ele>288.437</ele>
        <time>2019-09-25T13:54:27.001Z</time>
      </trkpt>
      <trkpt lat="47.74408" lon="6.45202">
        <ele>288.671</ele>
        <time>2019-09-25T13:54:30.001Z</time>
      </trkpt>
      <trkpt lat="47.74393" lon="6.45202">
        <ele>289.937</ele>
        <time>2019-09-25T13:54:33.001Z</time>
      </trkpt>
      <trkpt lat="47.7438" lon="6.45202">
        <ele>290.663</ele>
        <time>2019-09-25T13:54:36.001Z</time>
      </trkpt>
      <trkpt lat="47.74369" lon="6.45203">
        <ele>291.592</ele>
        <time>2019-09-25T13:54:39.001Z</time>
      </trkpt>
      <trkpt lat="47.74358" lon="6.45205">
        <ele>292.074</ele>
        <time>2019-09-25T13:54:42.001Z</time>
      </trkpt>
      <trkpt lat="47.74346" lon="6.45207">
        <ele>292.217</ele>
        <time>2019-09-25T13:54:45.001Z</time>
      </trkpt>
      <trkpt lat="47.74334" lon="6.4521">
        <ele>293.056</ele>
        <time>2019-09-25T13:54:48.001Z</time>
      </trkpt>
      <trkpt lat="47.7432" lon="6.45213">
        <ele>294.117</ele>
        <time>2019-09-25T13:54:51.001Z</time>
      </trkpt>
      <trkpt lat="47.74305" lon="6.45214">
        <ele>294.75</ele>
        <time>2019-09-25T13:54:54.001Z</time>
      </trkpt>
      <trkpt lat="47.74292" lon="6.45216">
        <ele>295.392</ele>
        <time>2019-09-25T13:54:57.001Z</time>
      </trkpt>
      <trkpt lat="47.74282" lon="6.45218">
        <ele>295.671</ele>
        <time>2019-09-25T15:55:00Z</time>
      </trkpt>
      <trkpt lat="47.74269" lon="6.45219">
        <ele>295.997</ele>
        <time>2019-09-25T13:55:03.001Z</time>
      </trkpt>
      <trkpt lat="47.74254" lon="6.45222">
        <ele>296.493</ele>
        <time>2019-09-25T13:55:06.001Z</time>
      </trkpt>
      <trkpt lat="47.74239" lon="6.45225">
        <ele>296.729</ele>
        <time>2019-09-25T13:55:09.001Z</time>
      </trkpt>
      <trkpt lat="47.74226" lon="6.45228">
        <ele>296.951</ele>
        <time>2019-09-25T13:55:12.001Z</time>
      </trkpt>
      <trkpt lat="47.74213" lon="6.45231">
        <ele>297.102</ele>
        <time>2019-09-25T13:55:15.001Z</time>
      </trkpt>
      <trkpt lat="47.742" lon="6.45234">
        <ele>296.342</ele>
        <time>2019-09-25T13:55:18.001Z</time>
      </trkpt>
      <trkpt lat="47.74188" lon="6.45238">
        <ele>295.296</ele>
        <time>2019-09-25T13:55:21.001Z</time>
      </trkpt>
      <trkpt lat="47.74176" lon="6.45242">
        <ele>294.882</ele>
        <time>2019-09-25T13:55:24.001Z</time>
      </trkpt>
      <trkpt lat="47.74165" lon="6.45245">
        <ele>294.193</ele>
        <time>2019-09-25T13:55:27.001Z</time>
      </trkpt>
      <trkpt lat="47.74154" lon="6.45247">
        <ele>294.846</ele>
        <time>2019-09-25T13:55:30.001Z</time>
      </trkpt>
      <trkpt lat="47.74144" lon="6.4525">
        <ele>293.753</ele>
        <time>2019-09-25T13:55:33.001Z</time>
      </trkpt>
      <trkpt lat="47.74133" lon="6.45254">
        <ele>292.689</ele>
        <time>2019-09-25T13:55:36.001Z</time>
      </trkpt>
      <trkpt lat="47.74122" lon="6.45257">
        <ele>291.667</ele>
        <time>2019-09-25T13:55:39.001Z</time>
      </trkpt>
      <trkpt lat="47.74112" lon="6.4526">
        <ele>291.157</ele>
        <time>2019-09-25T13:55:42.001Z</time>
      </trkpt>
      <trkpt lat="47.74102" lon="6.45263">
        <ele>290.726</ele>
        <time>2019-09-25T13:55:45.001Z</time>
      </trkpt>
      <trkpt lat="47.74092" lon="6.45266">
        <ele>290.619</ele>
        <time>2019-09-25T13:55:48.001Z</time>
      </trkpt>
      <trkpt lat="47.74081" lon="6.45269">
        <ele>290.398</ele>
        <time>2019-09-25T13:55:51.001Z</time>
      </trkpt>
      <trkpt lat="47.7407" lon="6.45272">
        <ele>290.726</ele>
        <time>2019-09-25T13:55:54.001Z</time>
      </trkpt>
      <trkpt lat="47.7406" lon="6.45275">
        <ele>290.515</ele>
        <time>2019-09-25T13:55:57.001Z</time>
      </trkpt>
      <trkpt lat="47.74049" lon="6.45279">
        <ele>290.279</ele>
        <time>2019-09-25T15:56:00Z</time>
      </trkpt>
      <trkpt lat="47.74039" lon="6.45282">
        <ele>290.313</ele>
        <time>2019-09-25T13:56:03.001Z</time>
      </trkpt>
      <trkpt lat="47.74028" lon="6.45286">
        <ele>290.519</ele>
        <time>2019-09-25T13:56:06.001Z</time>
      </trkpt>
      <trkpt lat="47.74016" lon="6.45289">
        <ele>290.296</ele>
        <time>2019-09-25T13:56:09.001Z</time>
      </trkpt>
      <trkpt lat="47.74004" lon="6.45291">
        <ele>289.764</ele>
        <time>2019-09-25T13:56:12.001Z</time>
      </trkpt>
      <trkpt lat="47.73992" lon="6.45295">
        <ele>289.699</ele>
        <time>2019-09-25T13:56:15.001Z</time>
      </trkpt>
      <trkpt lat="47.73981" lon="6.45298">
        <ele>289.191</ele>
        <time>2019-09-25T13:56:18.001Z</time>
      </trkpt>
      <trkpt lat="47.7397" lon="6.453">
        <ele>288.929</ele>
        <time>2019-09-25T13:56:21.001Z</time>
      </trkpt>
      <trkpt lat="47.7396" lon="6.45303">
        <ele>288.498</ele>
        <time>2019-09-25T13:56:24.001Z</time>
      </trkpt>
      <trkpt lat="47.73956" lon="6.45305">
        <ele>288.515</ele>
        <time>2019-09-25T13:56:27.001Z</time>
      </trkpt>
      <trkpt lat="47.73956" lon="6.45305">
        <ele>288.515</ele>
        <time>2019-09-25T13:56:36.001Z</time>
      </trkpt>
      <trkpt lat="47.73955" lon="6.45306">
        <ele>288.972</ele>
        <time>2019-09-25T13:56:39.001Z</time>
      </trkpt>
      <trkpt lat="47.73952" lon="6.45313">
        <ele>288.944</ele>
        <time>2019-09-25T13:56:42.001Z</time>
      </trkpt>
      <trkpt lat="47.7395" lon="6.45322">
        <ele>289.616</ele>
        <time>2019-09-25T13:56:45.001Z</time>
      </trkpt>
      <trkpt lat="47.73951" lon="6.45334">
        <ele>290.43</ele>
        <time>2019-09-25T13:56:48.001Z</time>
      </trkpt>
      <trkpt lat="47.73953" lon="6.45349">
        <ele>290.958</ele>
        <time>2019-09-25T13:56:51.001Z</time>
      </trkpt>
      <trkpt lat="47.73954" lon="6.45366">
        <ele>291.346</ele>
        <time>2019-09-25T13:56:54.001Z</time>
      </trkpt>
      <trkpt lat="47.73954" lon="6.45386">
        <ele>291.399</ele>
        <time>2019-09-25T13:56:57.001Z</time>
      </trkpt>
      <trkpt lat="47.73953" lon="6.45406">
        <ele>291.285</ele>
        <time>2019-09-25T15:57:00Z</time>
      </trkpt>
      <trkpt lat="47.73951" lon="6.45426">
        <ele>291.453</ele>
        <time>2019-09-25T13:57:03.001Z</time>
      </trkpt>
      <trkpt lat="47.73953" lon="6.45447">
        <ele>292.118</ele>
        <time>2019-09-25T13:57:06.001Z</time>
      </trkpt>
      <trkpt lat="47.73954" lon="6.45469">
        <ele>292.399</ele>
        <time>2019-09-25T13:57:09.001Z</time>
      </trkpt>
      <trkpt lat="47.7395" lon="6.4549">
        <ele>292.888</ele>
        <time>2019-09-25T13:57:12.001Z</time>
      </trkpt>
      <trkpt lat="47.73945" lon="6.45509">
        <ele>293.286</ele>
        <time>2019-09-25T13:57:15.001Z</time>
      </trkpt>
      <trkpt lat="47.73941" lon="6.45527">
        <ele>293.524</ele>
        <time>2019-09-25T13:57:18.001Z</time>
      </trkpt>
      <trkpt lat="47.73939" lon="6.45546">
        <ele>293.525</ele>
        <time>2019-09-25T13:57:21.001Z</time>
      </trkpt>
      <trkpt lat="47.73939" lon="6.45565">
        <ele>293.694</ele>
        <time>2019-09-25T13:57:24.001Z</time>
      </trkpt>
      <trkpt lat="47.73941" lon="6.45584">
        <ele>294.206</ele>
        <time>2019-09-25T13:57:27.001Z</time>
      </trkpt>
      <trkpt lat="47.73946" lon="6.45602">
        <ele>294.828</ele>
        <time>2019-09-25T13:57:30.001Z</time>
      </trkpt>
      <trkpt lat="47.73952" lon="6.45622">
        <ele>294.342</ele>
        <time>2019-09-25T13:57:33.001Z</time>
      </trkpt>
      <trkpt lat="47.73959" lon="6.45642">
        <ele>293.66</ele>
        <time>2019-09-25T13:57:36.001Z</time>
      </trkpt>
      <trkpt lat="47.73962" lon="6.45664">
        <ele>292.93</ele>
        <time>2019-09-25T13:57:39.001Z</time>
      </trkpt>
      <trkpt lat="47.73963" lon="6.45686">
        <ele>292.616</ele>
        <time>2019-09-25T13:57:42.001Z</time>
      </trkpt>
      <trkpt lat="47.73963" lon="6.45707">
        <ele>292.595</ele>
        <time>2019-09-25T13:57:45.001Z</time>
      </trkpt>
      <trkpt lat="47.73964" lon="6.45728">
        <ele>292.417</ele>
        <time>2019-09-25T13:57:48.001Z</time>
      </trkpt>
      <trkpt lat="47.73965" lon="6.4575">
        <ele>292.714</ele>
        <time>2019-09-25T13:57:51.001Z</time>
      </trkpt>
      <trkpt lat="47.73968" lon="6.45771">
        <ele>292.856</ele>
        <time>2019-09-25T13:57:54.001Z</time>
      </trkpt>
      <trkpt lat="47.73973" lon="6.45793">
        <ele>293.018</ele>
        <time>2019-09-25T13:57:57.001Z</time>
      </trkpt>
      <trkpt lat="47.73979" lon="6.45813">
        <ele>293.55</ele>
        <time>2019-09-25T15:58:00Z</time>
      </trkpt>
      <trkpt lat="47.73986" lon="6.45832">
        <ele>293.891</ele>
        <time>2019-09-25T13:58:03.001Z</time>
      </trkpt>
      <trkpt lat="47.73993" lon="6.4585">
        <ele>294.558</ele>
        <time>2019-09-25T13:58:06.001Z</time>
      </trkpt>
      <trkpt lat="47.74001" lon="6.45868">
        <ele>295.185</ele>
        <time>2019-09-25T13:58:09.001Z</time>
      </trkpt>
      <trkpt lat="47.74009" lon="6.45885">
        <ele>295.906</ele>
        <time>2019-09-25T13:58:12.001Z</time>
      </trkpt>
      <trkpt lat="47.74017" lon="6.45903">
        <ele>296.177</ele>
        <time>2019-09-25T13:58:15.001Z</time>
      </trkpt>
      <trkpt lat="47.74025" lon="6.45921">
        <ele>295.883</ele>
        <time>2019-09-25T13:58:18.001Z</time>
      </trkpt>
      <trkpt lat="47.74033" lon="6.45938">
        <ele>295.787</ele>
        <time>2019-09-25T13:58:21.001Z</time>
      </trkpt>
      <trkpt lat="47.74043" lon="6.45953">
        <ele>295.472</ele>
        <time>2019-09-25T13:58:24.001Z</time>
      </trkpt>
      <trkpt lat="47.74056" lon="6.45959">
        <ele>294.473</ele>
        <time>2019-09-25T13:58:27.001Z</time>
      </trkpt>
      <trkpt lat="47.74071" lon="6.45956">
        <ele>294.037</ele>
        <time>2019-09-25T13:58:30.001Z</time>
      </trkpt>
      <trkpt lat="47.74085" lon="6.45952">
        <ele>294.334</ele>
        <time>2019-09-25T13:58:33.001Z</time>
      </trkpt>
      <trkpt lat="47.74098" lon="6.45948">
        <ele>293.304</ele>
        <time>2019-09-25T13:58:36.001Z</time>
      </trkpt>
      <trkpt lat="47.74112" lon="6.45944">
        <ele>292.877</ele>
        <time>2019-09-25T13:58:39.001Z</time>
      </trkpt>
      <trkpt lat="47.74126" lon="6.4594">
        <ele>291.852</ele>
        <time>2019-09-25T13:58:42.001Z</time>
      </trkpt>
      <trkpt lat="47.7414" lon="6.45937">
        <ele>291.263</ele>
        <time>2019-09-25T13:58:45.001Z</time>
      </trkpt>
      <trkpt lat="47.74155" lon="6.45934">
        <ele>291.336</ele>
        <time>2019-09-25T13:58:48.001Z</time>
      </trkpt>
      <trkpt lat="47.74169" lon="6.45932">
        <ele>290.838</ele>
        <time>2019-09-25T13:58:51.001Z</time>
      </trkpt>
      <trkpt lat="47.74184" lon="6.45934">
        <ele>289.503</ele>
        <time>2019-09-25T13:58:54.001Z</time>
      </trkpt>
      <trkpt lat="47.74199" lon="6.45938">
        <ele>288.104</ele>
        <time>2019-09-25T13:58:57.001Z</time>
      </trkpt>
      <trkpt lat="47.74214" lon="6.45941">
        <ele>287.736</ele>
        <time>2019-09-25T15:59:00Z</time>
      </trkpt>
      <trkpt lat="47.74229" lon="6.45945">
        <ele>287.254</ele>
        <time>2019-09-25T13:59:03.001Z</time>
      </trkpt>
      <trkpt lat="47.74243" lon="6.45949">
        <ele>286.364</ele>
        <time>2019-09-25T13:59:06.001Z</time>
      </trkpt>
      <trkpt lat="47.74258" lon="6.45953">
        <ele>286.15</ele>
        <time>2019-09-25T13:59:09.001Z</time>
      </trkpt>
      <trkpt lat="47.74271" lon="6.45959">
        <ele>286.614</ele>
        <time>2019-09-25T13:59:12.001Z</time>
      </trkpt>
      <trkpt lat="47.74276" lon="6.45974">
        <ele>286.784</ele>
        <time>2019-09-25T13:59:15.001Z</time>
      </trkpt>
      <trkpt lat="47.74276" lon="6.45995">
        <ele>288.11</ele>
        <time>2019-09-25T13:59:18.001Z</time>
      </trkpt>
      <trkpt lat="47.74278" lon="6.46015">
        <ele>288</ele>
        <time>2019-09-25T13:59:21.001Z</time>
      </trkpt>
      <trkpt lat="47.7428" lon="6.46034">
        <ele>288.745</ele>
        <time>2019-09-25T13:59:24.001Z</time>
      </trkpt>
      <trkpt lat="47.74284" lon="6.46054">
        <ele>289.964</ele>
        <time>2019-09-25T13:59:27.001Z</time>
      </trkpt>
      <trkpt lat="47.74287" lon="6.46074">
        <ele>290.755</ele>
        <time>2019-09-25T13:59:30.001Z</time>
      </trkpt>
      <trkpt lat="47.7429" lon="6.46094">
        <ele>291.738</ele>
        <time>2019-09-25T13:59:33.001Z</time>
      </trkpt>
      <trkpt lat="47.74293" lon="6.46114">
        <ele>292.176</ele>
        <time>2019-09-25T13:59:36.001Z</time>
      </trkpt>
      <trkpt lat="47.74296" lon="6.46134">
        <ele>292.78</ele>
        <time>2019-09-25T13:59:39.001Z</time>
      </trkpt>
      <trkpt lat="47.74298" lon="6.46153">
        <ele>293.565</ele>
        <time>2019-09-25T13:59:42.001Z</time>
      </trkpt>
      <trkpt lat="47.743" lon="6.46172">
        <ele>293.741</ele>
        <time>2019-09-25T13:59:45.001Z</time>
      </trkpt>
      <trkpt lat="47.74301" lon="6.46188">
        <ele>294.929</ele>
        <time>2019-09-25T13:59:48.001Z</time>
      </trkpt>
      <trkpt lat="47.74303" lon="6.46205">
        <ele>296.337</ele>
        <time>2019-09-25T13:59:51.001Z</time>
      </trkpt>
      <trkpt lat="47.74306" lon="6.46223">
        <ele>297.506</ele>
        <time>2019-09-25T13:59:54.001Z</time>
      </trkpt>
      <trkpt lat="47.74309" lon="6.46241">
        <ele>298.869</ele>
        <time>2019-09-25T13:59:57.001Z</time>
      </trkpt>
      <trkpt lat="47.74312" lon="6.46262">
        <ele>299.874</ele>
        <time>2019-09-25T16:00:00Z</time>
      </trkpt>
      <trkpt lat="47.74315" lon="6.46285">
        <ele>299.069</ele>
        <time>2019-09-25T14:00:03.001Z</time>
      </trkpt>
      <trkpt lat="47.74317" lon="6.46306">
        <ele>297.67</ele>
        <time>2019-09-25T14:00:06.001Z</time>
      </trkpt>
      <trkpt lat="47.7432" lon="6.46326">
        <ele>297.54</ele>
        <time>2019-09-25T14:00:09.001Z</time>
      </trkpt>
      <trkpt lat="47.74323" lon="6.46346">
        <ele>297.646</ele>
        <time>2019-09-25T14:00:12.001Z</time>
      </trkpt>
      <trkpt lat="47.74325" lon="6.46365">
        <ele>297.954</ele>
        <time>2019-09-25T14:00:15.001Z</time>
      </trkpt>
      <trkpt lat="47.74327" lon="6.46383">
        <ele>297.905</ele>
        <time>2019-09-25T14:00:18.001Z</time>
      </trkpt>
      <trkpt lat="47.74329" lon="6.46403">
        <ele>298.173</ele>
        <time>2019-09-25T14:00:21.001Z</time>
      </trkpt>
      <trkpt lat="47.74332" lon="6.46422">
        <ele>298.028</ele>
        <time>2019-09-25T14:00:24.001Z</time>
      </trkpt>
      <trkpt lat="47.74334" lon="6.46441">
        <ele>298.171</ele>
        <time>2019-09-25T14:00:27.001Z</time>
      </trkpt>
      <trkpt lat="47.74336" lon="6.4646">
        <ele>297.804</ele>
        <time>2019-09-25T14:00:30.001Z</time>
      </trkpt>
      <trkpt lat="47.74339" lon="6.46479">
        <ele>297.246</ele>
        <time>2019-09-25T14:00:33.001Z</time>
      </trkpt>
      <trkpt lat="47.74342" lon="6.46498">
        <ele>297.203</ele>
        <time>2019-09-25T14:00:36.001Z</time>
      </trkpt>
      <trkpt lat="47.74345" lon="6.46516">
        <ele>297.128</ele>
        <time>2019-09-25T14:00:39.001Z</time>
      </trkpt>
      <trkpt lat="47.74347" lon="6.46533">
        <ele>297.069</ele>
        <time>2019-09-25T14:00:42.001Z</time>
      </trkpt>
      <trkpt lat="47.74349" lon="6.4655">
        <ele>297.471</ele>
        <time>2019-09-25T14:00:45.001Z</time>
      </trkpt>
      <trkpt lat="47.74352" lon="6.46568">
        <ele>297.655</ele>
        <time>2019-09-25T14:00:48.001Z</time>
      </trkpt>
      <trkpt lat="47.74355" lon="6.46585">
        <ele>297.984</ele>
        <time>2019-09-25T14:00:51.001Z</time>
      </trkpt>
      <trkpt lat="47.74358" lon="6.46603">
        <ele>298.63</ele>
        <time>2019-09-25T14:00:54.001Z</time>
      </trkpt>
      <trkpt lat="47.74361" lon="6.4662">
        <ele>298.996</ele>
        <time>2019-09-25T14:00:57.001Z</time>
      </trkpt>
      <trkpt lat="47.74364" lon="6.46637">
        <ele>299.404</ele>
        <time>2019-09-25T16:01:00Z</time>
      </trkpt>
      <trkpt lat="47.74367" lon="6.46654">
        <ele>299.695</ele>
        <time>2019-09-25T14:01:03.001Z</time>
      </trkpt>
      <trkpt lat="47.7437" lon="6.46668">
        <ele>299.68</ele>
        <time>2019-09-25T14:01:06.001Z</time>
      </trkpt>
      <trkpt lat="47.74373" lon="6.46682">
        <ele>299.637</ele>
        <time>2019-09-25T14:01:09.001Z</time>
      </trkpt>
      <trkpt lat="47.74376" lon="6.46696">
        <ele>299.703</ele>
        <time>2019-09-25T14:01:12.001Z</time>
      </trkpt>
      <trkpt lat="47.74378" lon="6.46708">
        <ele>299.724</ele>
        <time>2019-09-25T14:01:15.001Z</time>
      </trkpt>
      <trkpt lat="47.74381" lon="6.46719">
        <ele>300.327</ele>
        <time>2019-09-25T14:01:18.001Z</time>
      </trkpt>
      <trkpt lat="47.74383" lon="6.46729">
        <ele>301.237</ele>
        <time>2019-09-25T14:01:21.001Z</time>
      </trkpt>
      <trkpt lat="47.74384" lon="6.4674">
        <ele>302.534</ele>
        <time>2019-09-25T14:01:24.001Z</time>
      </trkpt>
      <trkpt lat="47.74387" lon="6.4675">
        <ele>303.836</ele>
        <time>2019-09-25T14:01:27.001Z</time>
      </trkpt>
      <trkpt lat="47.74389" lon="6.4676">
        <ele>304.636</ele>
        <time>2019-09-25T14:01:30.001Z</time>
      </trkpt>
      <trkpt lat="47.74391" lon="6.46769">
        <ele>305.455</ele>
        <time>2019-09-25T14:01:33.001Z</time>
      </trkpt>
      <trkpt lat="47.74392" lon="6.46779">
        <ele>306.269</ele>
        <time>2019-09-25T14:01:36.001Z</time>
      </trkpt>
      <trkpt lat="47.74394" lon="6.46789">
        <ele>306.941</ele>
        <time>2019-09-25T14:01:39.001Z</time>
      </trkpt>
      <trkpt lat="47.74396" lon="6.46798">
        <ele>307.738</ele>
        <time>2019-09-25T14:01:42.001Z</time>
      </trkpt>
      <trkpt lat="47.74398" lon="6.46807">
        <ele>308.521</ele>
        <time>2019-09-25T14:01:45.001Z</time>
      </trkpt>
      <trkpt lat="47.744" lon="6.46816">
        <ele>308.872</ele>
        <time>2019-09-25T14:01:48.001Z</time>
      </trkpt>
      <trkpt lat="47.74402" lon="6.46825">
        <ele>309.658</ele>
        <time>2019-09-25T14:01:51.001Z</time>
      </trkpt>
      <trkpt lat="47.74405" lon="6.46835">
        <ele>310.066</ele>
        <time>2019-09-25T14:01:54.001Z</time>
      </trkpt>
      <trkpt lat="47.74408" lon="6.46845">
        <ele>310.376</ele>
        <time>2019-09-25T14:01:57.001Z</time>
      </trkpt>
      <trkpt lat="47.7441" lon="6.46855">
        <ele>310.991</ele>
        <time>2019-09-25T16:02:00Z</time>
      </trkpt>
      <trkpt lat="47.74413" lon="6.46865">
        <ele>311.089</ele>
        <time>2019-09-25T14:02:03.001Z</time>
      </trkpt>
      <trkpt lat="47.74416" lon="6.46874">
        <ele>311.262</ele>
        <time>2019-09-25T14:02:06.001Z</time>
      </trkpt>
      <trkpt lat="47.74419" lon="6.46884">
        <ele>311.544</ele>
        <time>2019-09-25T14:02:09.001Z</time>
      </trkpt>
      <trkpt lat="47.74423" lon="6.46894">
        <ele>311.698</ele>
        <time>2019-09-25T14:02:12.001Z</time>
      </trkpt>
      <trkpt lat="47.74426" lon="6.46904">
        <ele>312.043</ele>
        <time>2019-09-25T14:02:15.001Z</time>
      </trkpt>
      <trkpt lat="47.74429" lon="6.46915">
        <ele>312.59</ele>
        <time>2019-09-25T14:02:18.001Z</time>
      </trkpt>
      <trkpt lat="47.74432" lon="6.46925">
        <ele>313.07</ele>
        <time>2019-09-25T14:02:21.001Z</time>
      </trkpt>
      <trkpt lat="47.74436" lon="6.46935">
        <ele>313.269</ele>
        <time>2019-09-25T14:02:24.001Z</time>
      </trkpt>
      <trkpt lat="47.74438" lon="6.46946">
        <ele>313.594</ele>
        <time>2019-09-25T14:02:27.001Z</time>
      </trkpt>
      <trkpt lat="47.74441" lon="6.46956">
        <ele>313.858</ele>
        <time>2019-09-25T14:02:30.001Z</time>
      </trkpt>
      <trkpt lat="47.74443" lon="6.46966">
        <ele>314.309</ele>
        <time>2019-09-25T14:02:33.001Z</time>
      </trkpt>
      <trkpt lat="47.74446" lon="6.46979">
        <ele>314.646</ele>
        <time>2019-09-25T14:02:36.001Z</time>
      </trkpt>
      <trkpt lat="47.74448" lon="6.46991">
        <ele>314.86</ele>
        <time>2019-09-25T14:02:39.001Z</time>
      </trkpt>
      <trkpt lat="47.7445" lon="6.47005">
        <ele>315.062</ele>
        <time>2019-09-25T14:02:42.001Z</time>
      </trkpt>
      <trkpt lat="47.74452" lon="6.47018">
        <ele>314.783</ele>
        <time>2019-09-25T14:02:45.001Z</time>
      </trkpt>
      <trkpt lat="47.74454" lon="6.47033">
        <ele>315.208</ele>
        <time>2019-09-25T14:02:48.001Z</time>
      </trkpt>
      <trkpt lat="47.74457" lon="6.47049">
        <ele>315.644</ele>
        <time>2019-09-25T14:02:51.001Z</time>
      </trkpt>
      <trkpt lat="47.74461" lon="6.47067">
        <ele>315.597</ele>
        <time>2019-09-25T14:02:54.001Z</time>
      </trkpt>
      <trkpt lat="47.74466" lon="6.47086">
        <ele>315.426</ele>
        <time>2019-09-25T14:02:57.001Z</time>
      </trkpt>
      <trkpt lat="47.7447" lon="6.4711">
        <ele>314.341</ele>
        <time>2019-09-25T16:03:00Z</time>
      </trkpt>
      <trkpt lat="47.74474" lon="6.47138">
        <ele>313.381</ele>
        <time>2019-09-25T14:03:03.001Z</time>
      </trkpt>
      <trkpt lat="47.74477" lon="6.47165">
        <ele>313.665</ele>
        <time>2019-09-25T14:03:06.001Z</time>
      </trkpt>
      <trkpt lat="47.74477" lon="6.47191">
        <ele>313.985</ele>
        <time>2019-09-25T14:03:09.001Z</time>
      </trkpt>
      <trkpt lat="47.74476" lon="6.47217">
        <ele>313.827</ele>
        <time>2019-09-25T14:03:12.001Z</time>
      </trkpt>
      <trkpt lat="47.74475" lon="6.47244">
        <ele>313.024</ele>
        <time>2019-09-25T14:03:15.001Z</time>
      </trkpt>
      <trkpt lat="47.74474" lon="6.47274">
        <ele>311.958</ele>
        <time>2019-09-25T14:03:18.001Z</time>
      </trkpt>
      <trkpt lat="47.74472" lon="6.47304">
        <ele>311.074</ele>
        <time>2019-09-25T14:03:21.001Z</time>
      </trkpt>
      <trkpt lat="47.74469" lon="6.47332">
        <ele>310.286</ele>
        <time>2019-09-25T14:03:24.001Z</time>
      </trkpt>
      <trkpt lat="47.74465" lon="6.47357">
        <ele>309.595</ele>
        <time>2019-09-25T14:03:27.001Z</time>
      </trkpt>
      <trkpt lat="47.74462" lon="6.4738">
        <ele>309.057</ele>
        <time>2019-09-25T14:03:30.001Z</time>
      </trkpt>
      <trkpt lat="47.7446" lon="6.47401">
        <ele>308.8</ele>
        <time>2019-09-25T14:03:33.001Z</time>
      </trkpt>
      <trkpt lat="47.74458" lon="6.47423">
        <ele>307.778</ele>
        <time>2019-09-25T14:03:36.001Z</time>
      </trkpt>
      <trkpt lat="47.74458" lon="6.47449">
        <ele>307.081</ele>
        <time>2019-09-25T14:03:39.001Z</time>
      </trkpt>
      <trkpt lat="47.74458" lon="6.47475">
        <ele>307.052</ele>
        <time>2019-09-25T14:03:42.001Z</time>
      </trkpt>
      <trkpt lat="47.74457" lon="6.47499">
        <ele>306.856</ele>
        <time>2019-09-25T14:03:45.001Z</time>
      </trkpt>
      <trkpt lat="47.74456" lon="6.47522">
        <ele>306.821</ele>
        <time>2019-09-25T14:03:48.001Z</time>
      </trkpt>
      <trkpt lat="47.74456" lon="6.47544">
        <ele>306.328</ele>
        <time>2019-09-25T14:03:51.001Z</time>
      </trkpt>
      <trkpt lat="47.74458" lon="6.47571">
        <ele>305.786</ele>
        <time>2019-09-25T14:03:54.001Z</time>
      </trkpt>
      <trkpt lat="47.74459" lon="6.47601">
        <ele>305.911</ele>
        <time>2019-09-25T14:03:57.001Z</time>
      </trkpt>
      <trkpt lat="47.7446" lon="6.47632">
        <ele>305.887</ele>
        <time>2019-09-25T16:04:00Z</time>
      </trkpt>
      <trkpt lat="47.74461" lon="6.47664">
        <ele>305.934</ele>
        <time>2019-09-25T14:04:03.001Z</time>
      </trkpt>
      <trkpt lat="47.74463" lon="6.47698">
        <ele>305.454</ele>
        <time>2019-09-25T14:04:06.001Z</time>
      </trkpt>
      <trkpt lat="47.74464" lon="6.47729">
        <ele>305.276</ele>
        <time>2019-09-25T14:04:09.001Z</time>
      </trkpt>
      <trkpt lat="47.74465" lon="6.47758">
        <ele>305.836</ele>
        <time>2019-09-25T14:04:12.001Z</time>
      </trkpt>
      <trkpt lat="47.74466" lon="6.47784">
        <ele>306.06</ele>
        <time>2019-09-25T14:04:15.001Z</time>
      </trkpt>
      <trkpt lat="47.74467" lon="6.47806">
        <ele>306.28</ele>
        <time>2019-09-25T14:04:18.001Z</time>
      </trkpt>
      <trkpt lat="47.74467" lon="6.47824">
        <ele>306.34</ele>
        <time>2019-09-25T14:04:21.001Z</time>
      </trkpt>
      <trkpt lat="47.74467" lon="6.47843">
        <ele>306.408</ele>
        <time>2019-09-25T14:04:24.001Z</time>
      </trkpt>
      <trkpt lat="47.74464" lon="6.47864">
        <ele>306.68</ele>
        <time>2019-09-25T14:04:27.001Z</time>
      </trkpt>
      <trkpt lat="47.74462" lon="6.47884">
        <ele>306.87</ele>
        <time>2019-09-25T14:04:30.001Z</time>
      </trkpt>
      <trkpt lat="47.74459" lon="6.47904">
        <ele>306.873</ele>
        <time>2019-09-25T14:04:33.001Z</time>
      </trkpt>
      <trkpt lat="47.74455" lon="6.47924">
        <ele>307.195</ele>
        <time>2019-09-25T14:04:36.001Z</time>
      </trkpt>
      <trkpt lat="47.74451" lon="6.47944">
        <ele>308.349</ele>
        <time>2019-09-25T14:04:39.001Z</time>
      </trkpt>
      <trkpt lat="47.74448" lon="6.47966">
        <ele>308.531</ele>
        <time>2019-09-25T14:04:42.001Z</time>
      </trkpt>
      <trkpt lat="47.74444" lon="6.47986">
        <ele>308.884</ele>
        <time>2019-09-25T14:04:45.001Z</time>
      </trkpt>
      <trkpt lat="47.74441" lon="6.48006">
        <ele>309.173</ele>
        <time>2019-09-25T14:04:48.001Z</time>
      </trkpt>
      <trkpt lat="47.74437" lon="6.48027">
        <ele>309.131</ele>
        <time>2019-09-25T14:04:51.001Z</time>
      </trkpt>
      <trkpt lat="47.74432" lon="6.48046">
        <ele>309.502</ele>
        <time>2019-09-25T14:04:54.001Z</time>
      </trkpt>
      <trkpt lat="47.74431" lon="6.48065">
        <ele>309.949</ele>
        <time>2019-09-25T14:04:57.001Z</time>
      </trkpt>
      <trkpt lat="47.7443" lon="6.48085">
        <ele>309.77</ele>
        <time>2019-09-25T16:05:00Z</time>
      </trkpt>
      <trkpt lat="47.7443" lon="6.48105">
        <ele>309.51</ele>
        <time>2019-09-25T14:05:03.001Z</time>
      </trkpt>
      <trkpt lat="47.7443" lon="6.48125">
        <ele>309.427</ele>
        <time>2019-09-25T14:05:06.001Z</time>
      </trkpt>
      <trkpt lat="47.74427" lon="6.48141">
        <ele>309.698</ele>
        <time>2019-09-25T14:05:09.001Z</time>
      </trkpt>
      <trkpt lat="47.74422" lon="6.48153">
        <ele>309.754</ele>
        <time>2019-09-25T14:05:12.001Z</time>
      </trkpt>
      <trkpt lat="47.74412" lon="6.48167">
        <ele>309.047</ele>
        <time>2019-09-25T14:05:15.001Z</time>
      </trkpt>
      <trkpt lat="47.74399" lon="6.48182">
        <ele>307.26</ele>
        <time>2019-09-25T14:05:18.001Z</time>
      </trkpt>
      <trkpt lat="47.74385" lon="6.48193">
        <ele>306.145</ele>
        <time>2019-09-25T14:05:21.001Z</time>
      </trkpt>
      <trkpt lat="47.74373" lon="6.48202">
        <ele>305.947</ele>
        <time>2019-09-25T14:05:24.001Z</time>
      </trkpt>
      <trkpt lat="47.74364" lon="6.48214">
        <ele>306.588</ele>
        <time>2019-09-25T14:05:27.001Z</time>
      </trkpt>
      <trkpt lat="47.7436" lon="6.48229">
        <ele>307.383</ele>
        <time>2019-09-25T14:05:30.001Z</time>
      </trkpt>
      <trkpt lat="47.74356" lon="6.48248">
        <ele>307.205</ele>
        <time>2019-09-25T14:05:33.001Z</time>
      </trkpt>
      <trkpt lat="47.74352" lon="6.48266">
        <ele>307.409</ele>
        <time>2019-09-25T14:05:36.001Z</time>
      </trkpt>
      <trkpt lat="47.7435" lon="6.48282">
        <ele>307.725</ele>
        <time>2019-09-25T14:05:39.001Z</time>
      </trkpt>
      <trkpt lat="47.74348" lon="6.48297">
        <ele>308.856</ele>
        <time>2019-09-25T14:05:42.001Z</time>
      </trkpt>
      <trkpt lat="47.74348" lon="6.48312">
        <ele>309.763</ele>
        <time>2019-09-25T14:05:45.001Z</time>
      </trkpt>
      <trkpt lat="47.7435" lon="6.48325">
        <ele>309.65</ele>
        <time>2019-09-25T14:05:48.001Z</time>
      </trkpt>
      <trkpt lat="47.74358" lon="6.48333">
        <ele>309.442</ele>
        <time>2019-09-25T14:05:51.001Z</time>
      </trkpt>
      <trkpt lat="47.74365" lon="6.48331">
        <ele>308.419</ele>
        <time>2019-09-25T14:05:54.001Z</time>
      </trkpt>
      <trkpt lat="47.74366" lon="6.4833">
        <ele>307.77</ele>
        <time>2019-09-25T14:05:57.001Z</time>
      </trkpt>
      <trkpt lat="47.74366" lon="6.4833">
        <ele>306.7</ele>
        <time>2019-09-25T14:06:06.001Z</time>
      </trkpt>
      <trkpt lat="47.74367" lon="6.48329">
        <ele>306.535</ele>
        <time>2019-09-25T14:06:09.001Z</time>
      </trkpt>
      <trkpt lat="47.74366" lon="6.4833">
        <ele>306.7</ele>
        <time>2019-09-25T14:06:12.001Z</time>
      </trkpt>
      <trkpt lat="47.74366" lon="6.4833">
        <ele>306.7</ele>
        <time>2019-09-25T14:07:45.001Z</time>
      </trkpt>
      <trkpt lat="47.74367" lon="6.48331">
        <ele>306.699</ele>
        <time>2019-09-25T14:07:48.001Z</time>
      </trkpt>
      <trkpt lat="47.74369" lon="6.48331">
        <ele>306.627</ele>
        <time>2019-09-25T14:07:51.001Z</time>
      </trkpt>
      <trkpt lat="47.74369" lon="6.48331">
        <ele>306.627</ele>
        <time>2019-09-25T14:08:03.001Z</time>
      </trkpt>
      <trkpt lat="47.74368" lon="6.48331">
        <ele>306.227</ele>
        <time>2019-09-25T14:08:06.001Z</time>
      </trkpt>
      <trkpt lat="47.74371" lon="6.48332">
        <ele>307.387</ele>
        <time>2019-09-25T14:08:12.001Z</time>
      </trkpt>
      <trkpt lat="47.74371" lon="6.48332">
        <ele>307.387</ele>
        <time>2019-09-25T14:08:15.001Z</time>
      </trkpt>
      <trkpt lat="47.74371" lon="6.48332">
        <ele>307.387</ele>
        <time>2019-09-25T14:10:06.001Z</time>
      </trkpt>
      <trkpt lat="47.7437" lon="6.48332">
        <ele>307.245</ele>
        <time>2019-09-25T14:10:09.001Z</time>
      </trkpt>
      <trkpt lat="47.74371" lon="6.48333">
        <ele>307.475</ele>
        <time>2019-09-25T14:10:12.001Z</time>
      </trkpt>
      <trkpt lat="47.7437" lon="6.48334">
        <ele>308.124</ele>
        <time>2019-09-25T14:10:48.001Z</time>
      </trkpt>
      <trkpt lat="47.74373" lon="6.48335">
        <ele>309.098</ele>
        <time>2019-09-25T14:10:51.001Z</time>
      </trkpt>
      <trkpt lat="47.74373" lon="6.48335">
        <ele>309.098</ele>
        <time>2019-09-25T14:10:54.001Z</time>
      </trkpt>
      <trkpt lat="47.74373" lon="6.48335">
        <ele>309.098</ele>
        <time>2019-09-25T16:11:00Z</time>
      </trkpt>
      <trkpt lat="47.74373" lon="6.48335">
        <ele>308.945</ele>
        <time>2019-09-25T14:11:03.001Z</time>
      </trkpt>
      <trkpt lat="47.74373" lon="6.48334">
        <ele>309.429</ele>
        <time>2019-09-25T14:11:06.001Z</time>
      </trkpt>
      <trkpt lat="47.74373" lon="6.48334">
        <ele>309.429</ele>
        <time>2019-09-25T14:13:15.001Z</time>
      </trkpt>
      <trkpt lat="47.74375" lon="6.48336">
        <ele>312.287</ele>
        <time>2019-09-25T14:13:18.001Z</time>
      </trkpt>
      <trkpt lat="47.74375" lon="6.48336">
        <ele>314.893</ele>
        <time>2019-09-25T14:13:21.001Z</time>
      </trkpt>
      <trkpt lat="47.74375" lon="6.48336">
        <ele>314.893</ele>
        <time>2019-09-25T14:13:24.001Z</time>
      </trkpt>
      <trkpt lat="47.74376" lon="6.48336">
        <ele>314.947</ele>
        <time>2019-09-25T14:13:57.001Z</time>
      </trkpt>
      <trkpt lat="47.74374" lon="6.48334">
        <ele>315.237</ele>
        <time>2019-09-25T16:14:00Z</time>
      </trkpt>
      <trkpt lat="47.74373" lon="6.48337">
        <ele>315.168</ele>
        <time>2019-09-25T14:14:03.001Z</time>
      </trkpt>
      <trkpt lat="47.74372" lon="6.48336">
        <ele>314.709</ele>
        <time>2019-09-25T14:14:06.001Z</time>
      </trkpt>
      <trkpt lat="47.74372" lon="6.48336">
        <ele>314.934</ele>
        <time>2019-09-25T14:14:39.001Z</time>
      </trkpt>
      <trkpt lat="47.74373" lon="6.48336">
        <ele>315.47</ele>
        <time>2019-09-25T14:14:42.001Z</time>
      </trkpt>
      <trkpt lat="47.74374" lon="6.48332">
        <ele>316.92</ele>
        <time>2019-09-25T14:14:48.001Z</time>
      </trkpt>
      <trkpt lat="47.74375" lon="6.48332">
        <ele>317.014</ele>
        <time>2019-09-25T14:14:51.001Z</time>
      </trkpt>
      <trkpt lat="47.74375" lon="6.48332">
        <ele>317.075</ele>
        <time>2019-09-25T14:15:45.001Z</time>
      </trkpt>
      <trkpt lat="47.7438" lon="6.48333">
        <ele>317.481</ele>
        <time>2019-09-25T14:15:48.001Z</time>
      </trkpt>
      <trkpt lat="47.74386" lon="6.48335">
        <ele>317.291</ele>
        <time>2019-09-25T14:15:51.001Z</time>
      </trkpt>
      <trkpt lat="47.74391" lon="6.48342">
        <ele>317.088</ele>
        <time>2019-09-25T14:15:54.001Z</time>
      </trkpt>
      <trkpt lat="47.74394" lon="6.48352">
        <ele>316.966</ele>
        <time>2019-09-25T14:15:57.001Z</time>
      </trkpt>
      <trkpt lat="47.74398" lon="6.48364">
        <ele>316.657</ele>
        <time>2019-09-25T16:16:00Z</time>
      </trkpt>
      <trkpt lat="47.74402" lon="6.48377">
        <ele>316.709</ele>
        <time>2019-09-25T14:16:03.001Z</time>
      </trkpt>
      <trkpt lat="47.74405" lon="6.48392">
        <ele>316.931</ele>
        <time>2019-09-25T14:16:06.001Z</time>
      </trkpt>
      <trkpt lat="47.74409" lon="6.48406">
        <ele>316.804</ele>
        <time>2019-09-25T14:16:09.001Z</time>
      </trkpt>
      <trkpt lat="47.74414" lon="6.48419">
        <ele>316.022</ele>
        <time>2019-09-25T14:16:12.001Z</time>
      </trkpt>
      <trkpt lat="47.7442" lon="6.48434">
        <ele>315.344</ele>
        <time>2019-09-25T14:16:15.001Z</time>
      </trkpt>
      <trkpt lat="47.74425" lon="6.4845">
        <ele>314.504</ele>
        <time>2019-09-25T14:16:18.001Z</time>
      </trkpt>
      <trkpt lat="47.7443" lon="6.48466">
        <ele>313.336</ele>
        <time>2019-09-25T14:16:21.001Z</time>
      </trkpt>
      <trkpt lat="47.74434" lon="6.48482">
        <ele>311.947</ele>
        <time>2019-09-25T14:16:24.001Z</time>
      </trkpt>
      <trkpt lat="47.74438" lon="6.48495">
        <ele>311.1</ele>
        <time>2019-09-25T14:16:27.001Z</time>
      </trkpt>
      <trkpt lat="47.74441" lon="6.4851">
        <ele>308.821</ele>
        <time>2019-09-25T14:16:30.001Z</time>
      </trkpt>
      <trkpt lat="47.74446" lon="6.48526">
        <ele>308.048</ele>
        <time>2019-09-25T14:16:33.001Z</time>
      </trkpt>
      <trkpt lat="47.74451" lon="6.4854">
        <ele>307.3</ele>
        <time>2019-09-25T14:16:36.001Z</time>
      </trkpt>
      <trkpt lat="47.74455" lon="6.48556">
        <ele>306.668</ele>
        <time>2019-09-25T14:16:39.001Z</time>
      </trkpt>
      <trkpt lat="47.74459" lon="6.48571">
        <ele>306.328</ele>
        <time>2019-09-25T14:16:42.001Z</time>
      </trkpt>
      <trkpt lat="47.74462" lon="6.48587">
        <ele>306.412</ele>
        <time>2019-09-25T14:16:45.001Z</time>
      </trkpt>
      <trkpt lat="47.74465" lon="6.48603">
        <ele>306.463</ele>
        <time>2019-09-25T14:16:48.001Z</time>
      </trkpt>
      <trkpt lat="47.74469" lon="6.4862">
        <ele>307.087</ele>
        <time>2019-09-25T14:16:51.001Z</time>
      </trkpt>
      <trkpt lat="47.74471" lon="6.48637">
        <ele>307.23</ele>
        <time>2019-09-25T14:16:54.001Z</time>
      </trkpt>
      <trkpt lat="47.74474" lon="6.48655">
        <ele>307.346</ele>
        <time>2019-09-25T14:16:57.001Z</time>
      </trkpt>
      <trkpt lat="47.74477" lon="6.48672">
        <ele>307.364</ele>
        <time>2019-09-25T16:17:00Z</time>
      </trkpt>
      <trkpt lat="47.74481" lon="6.4869">
        <ele>307.591</ele>
        <time>2019-09-25T14:17:03.001Z</time>
      </trkpt>
      <trkpt lat="47.74486" lon="6.48708">
        <ele>306.99</ele>
        <time>2019-09-25T14:17:06.001Z</time>
      </trkpt>
      <trkpt lat="47.7449" lon="6.48726">
        <ele>306.469</ele>
        <time>2019-09-25T14:17:09.001Z</time>
      </trkpt>
      <trkpt lat="47.74493" lon="6.48744">
        <ele>305.963</ele>
        <time>2019-09-25T14:17:12.001Z</time>
      </trkpt>
      <trkpt lat="47.74496" lon="6.48764">
        <ele>305.959</ele>
        <time>2019-09-25T14:17:15.001Z</time>
      </trkpt>
      <trkpt lat="47.74497" lon="6.48785">
        <ele>305.958</ele>
        <time>2019-09-25T14:17:18.001Z</time>
      </trkpt>
      <trkpt lat="47.74494" lon="6.48804">
        <ele>306.052</ele>
        <time>2019-09-25T14:17:21.001Z</time>
      </trkpt>
      <trkpt lat="47.74491" lon="6.48821">
        <ele>306.065</ele>
        <time>2019-09-25T14:17:24.001Z</time>
      </trkpt>
      <trkpt lat="47.74489" lon="6.48838">
        <ele>306.202</ele>
        <time>2019-09-25T14:17:27.001Z</time>
      </trkpt>
      <trkpt lat="47.74487" lon="6.48855">
        <ele>307.06</ele>
        <time>2019-09-25T14:17:30.001Z</time>
      </trkpt>
      <trkpt lat="47.74485" lon="6.48871">
        <ele>307.652</ele>
        <time>2019-09-25T14:17:33.001Z</time>
      </trkpt>
      <trkpt lat="47.74483" lon="6.48888">
        <ele>308.374</ele>
        <time>2019-09-25T14:17:36.001Z</time>
      </trkpt>
      <trkpt lat="47.74481" lon="6.48906">
        <ele>308.458</ele>
        <time>2019-09-25T14:17:39.001Z</time>
      </trkpt>
      <trkpt lat="47.74479" lon="6.48925">
        <ele>308.535</ele>
        <time>2019-09-25T14:17:42.001Z</time>
      </trkpt>
      <trkpt lat="47.74478" lon="6.48943">
        <ele>308.663</ele>
        <time>2019-09-25T14:17:45.001Z</time>
      </trkpt>
      <trkpt lat="47.74476" lon="6.48958">
        <ele>308.993</ele>
        <time>2019-09-25T14:17:48.001Z</time>
      </trkpt>
      <trkpt lat="47.74474" lon="6.48973">
        <ele>308.943</ele>
        <time>2019-09-25T14:17:51.001Z</time>
      </trkpt>
      <trkpt lat="47.74473" lon="6.48988">
        <ele>309.565</ele>
        <time>2019-09-25T14:17:54.001Z</time>
      </trkpt>
      <trkpt lat="47.74471" lon="6.49002">
        <ele>310.245</ele>
        <time>2019-09-25T14:17:57.001Z</time>
      </trkpt>
      <trkpt lat="47.74469" lon="6.49016">
        <ele>310.8</ele>
        <time>2019-09-25T16:18:00Z</time>
      </trkpt>
      <trkpt lat="47.74468" lon="6.4903">
        <ele>310.95</ele>
        <time>2019-09-25T14:18:03.001Z</time>
      </trkpt>
      <trkpt lat="47.74466" lon="6.49044">
        <ele>311.058</ele>
        <time>2019-09-25T14:18:06.001Z</time>
      </trkpt>
      <trkpt lat="47.74463" lon="6.49057">
        <ele>311.245</ele>
        <time>2019-09-25T14:18:09.001Z</time>
      </trkpt>
      <trkpt lat="47.74461" lon="6.4907">
        <ele>311.464</ele>
        <time>2019-09-25T14:18:12.001Z</time>
      </trkpt>
      <trkpt lat="47.7446" lon="6.49081">
        <ele>312.002</ele>
        <time>2019-09-25T14:18:15.001Z</time>
      </trkpt>
      <trkpt lat="47.74458" lon="6.49094">
        <ele>312.475</ele>
        <time>2019-09-25T14:18:18.001Z</time>
      </trkpt>
      <trkpt lat="47.74457" lon="6.49105">
        <ele>313.261</ele>
        <time>2019-09-25T14:18:21.001Z</time>
      </trkpt>
      <trkpt lat="47.74456" lon="6.49117">
        <ele>313.886</ele>
        <time>2019-09-25T14:18:24.001Z</time>
      </trkpt>
      <trkpt lat="47.74454" lon="6.49129">
        <ele>314.336</ele>
        <time>2019-09-25T14:18:27.001Z</time>
      </trkpt>
      <trkpt lat="47.74451" lon="6.49141">
        <ele>314.774</ele>
        <time>2019-09-25T14:18:30.001Z</time>
      </trkpt>
      <trkpt lat="47.74449" lon="6.49154">
        <ele>315.212</ele>
        <time>2019-09-25T14:18:33.001Z</time>
      </trkpt>
      <trkpt lat="47.74446" lon="6.49167">
        <ele>315.648</ele>
        <time>2019-09-25T14:18:36.001Z</time>
      </trkpt>
      <trkpt lat="47.74443" lon="6.49178">
        <ele>316.225</ele>
        <time>2019-09-25T14:18:39.001Z</time>
      </trkpt>
      <trkpt lat="47.74441" lon="6.49189">
        <ele>316.673</ele>
        <time>2019-09-25T14:18:42.001Z</time>
      </trkpt>
      <trkpt lat="47.7444" lon="6.49201">
        <ele>317.008</ele>
        <time>2019-09-25T14:18:45.001Z</time>
      </trkpt>
      <trkpt lat="47.74445" lon="6.49211">
        <ele>317.6</ele>
        <time>2019-09-25T14:18:48.001Z</time>
      </trkpt>
      <trkpt lat="47.74452" lon="6.49218">
        <ele>317.306</ele>
        <time>2019-09-25T14:18:51.001Z</time>
      </trkpt>
      <trkpt lat="47.74463" lon="6.49223">
        <ele>316.144</ele>
        <time>2019-09-25T14:18:54.001Z</time>
      </trkpt>
      <trkpt lat="47.74475" lon="6.49228">
        <ele>315.123</ele>
        <time>2019-09-25T14:18:57.001Z</time>
      </trkpt>
      <trkpt lat="47.74488" lon="6.49234">
        <ele>314.506</ele>
        <time>2019-09-25T16:19:00Z</time>
      </trkpt>
      <trkpt lat="47.74501" lon="6.4924">
        <ele>313.705</ele>
        <time>2019-09-25T14:19:03.001Z</time>
      </trkpt>
      <trkpt lat="47.74513" lon="6.49248">
        <ele>313.467</ele>
        <time>2019-09-25T14:19:06.001Z</time>
      </trkpt>
      <trkpt lat="47.74524" lon="6.49258">
        <ele>313.476</ele>
        <time>2019-09-25T14:19:09.001Z</time>
      </trkpt>
      <trkpt lat="47.74534" lon="6.49269">
        <ele>313.285</ele>
        <time>2019-09-25T14:19:12.001Z</time>
      </trkpt>
      <trkpt lat="47.74545" lon="6.49282">
        <ele>312.994</ele>
        <time>2019-09-25T14:19:15.001Z</time>
      </trkpt>
      <trkpt lat="47.74556" lon="6.49295">
        <ele>312.432</ele>
        <time>2019-09-25T14:19:18.001Z</time>
      </trkpt>
      <trkpt lat="47.74569" lon="6.4931">
        <ele>311.948</ele>
        <time>2019-09-25T14:19:21.001Z</time>
      </trkpt>
      <trkpt lat="47.74583" lon="6.49325">
        <ele>312.42</ele>
        <time>2019-09-25T14:19:24.001Z</time>
      </trkpt>
      <trkpt lat="47.74597" lon="6.49334">
        <ele>313.019</ele>
        <time>2019-09-25T14:19:27.001Z</time>
      </trkpt>
      <trkpt lat="47.74613" lon="6.49337">
        <ele>313.276</ele>
        <time>2019-09-25T14:19:30.001Z</time>
      </trkpt>
      <trkpt lat="47.74628" lon="6.49334">
        <ele>313.411</ele>
        <time>2019-09-25T14:19:33.001Z</time>
      </trkpt>
      <trkpt lat="47.74642" lon="6.49328">
        <ele>313.279</ele>
        <time>2019-09-25T14:19:36.001Z</time>
      </trkpt>
      <trkpt lat="47.74657" lon="6.49322">
        <ele>313.744</ele>
        <time>2019-09-25T14:19:39.001Z</time>
      </trkpt>
      <trkpt lat="47.74672" lon="6.49317">
        <ele>314.642</ele>
        <time>2019-09-25T14:19:42.001Z</time>
      </trkpt>
      <trkpt lat="47.74686" lon="6.49316">
        <ele>315.801</ele>
        <time>2019-09-25T14:19:45.001Z</time>
      </trkpt>
      <trkpt lat="47.74702" lon="6.49321">
        <ele>315.221</ele>
        <time>2019-09-25T14:19:48.001Z</time>
      </trkpt>
      <trkpt lat="47.7472" lon="6.49331">
        <ele>313.61</ele>
        <time>2019-09-25T14:19:51.001Z</time>
      </trkpt>
      <trkpt lat="47.74739" lon="6.49339">
        <ele>312.328</ele>
        <time>2019-09-25T14:19:54.001Z</time>
      </trkpt>
      <trkpt lat="47.74759" lon="6.49343">
        <ele>312.008</ele>
        <time>2019-09-25T14:19:57.001Z</time>
      </trkpt>
      <trkpt lat="47.74776" lon="6.49346">
        <ele>312.588</ele>
        <time>2019-09-25T16:20:00Z</time>
      </trkpt>
      <trkpt lat="47.74793" lon="6.49351">
        <ele>311.894</ele>
        <time>2019-09-25T14:20:03.001Z</time>
      </trkpt>
      <trkpt lat="47.74807" lon="6.49363">
        <ele>311.246</ele>
        <time>2019-09-25T14:20:06.001Z</time>
      </trkpt>
      <trkpt lat="47.74818" lon="6.49378">
        <ele>310.425</ele>
        <time>2019-09-25T14:20:09.001Z</time>
      </trkpt>
      <trkpt lat="47.74826" lon="6.49396">
        <ele>310.192</ele>
        <time>2019-09-25T14:20:12.001Z</time>
      </trkpt>
      <trkpt lat="47.74831" lon="6.49417">
        <ele>310.301</ele>
        <time>2019-09-25T14:20:15.001Z</time>
      </trkpt>
      <trkpt lat="47.74837" lon="6.49437">
        <ele>310.499</ele>
        <time>2019-09-25T14:20:18.001Z</time>
      </trkpt>
      <trkpt lat="47.74843" lon="6.49456">
        <ele>310.729</ele>
        <time>2019-09-25T14:20:21.001Z</time>
      </trkpt>
      <trkpt lat="47.74852" lon="6.49474">
        <ele>310.297</ele>
        <time>2019-09-25T14:20:24.001Z</time>
      </trkpt>
      <trkpt lat="47.74861" lon="6.49489">
        <ele>309.614</ele>
        <time>2019-09-25T14:20:27.001Z</time>
      </trkpt>
      <trkpt lat="47.74872" lon="6.49504">
        <ele>309.165</ele>
        <time>2019-09-25T14:20:30.001Z</time>
      </trkpt>
      <trkpt lat="47.74882" lon="6.49519">
        <ele>309.031</ele>
        <time>2019-09-25T14:20:33.001Z</time>
      </trkpt>
      <trkpt lat="47.74891" lon="6.49531">
        <ele>309.224</ele>
        <time>2019-09-25T14:20:36.001Z</time>
      </trkpt>
      <trkpt lat="47.749" lon="6.49546">
        <ele>309.397</ele>
        <time>2019-09-25T14:20:39.001Z</time>
      </trkpt>
      <trkpt lat="47.74908" lon="6.49563">
        <ele>308.983</ele>
        <time>2019-09-25T14:20:42.001Z</time>
      </trkpt>
      <trkpt lat="47.74915" lon="6.49582">
        <ele>308.959</ele>
        <time>2019-09-25T14:20:45.001Z</time>
      </trkpt>
      <trkpt lat="47.7492" lon="6.49601">
        <ele>309.593</ele>
        <time>2019-09-25T14:20:48.001Z</time>
      </trkpt>
      <trkpt lat="47.74919" lon="6.49621">
        <ele>310.609</ele>
        <time>2019-09-25T14:20:51.001Z</time>
      </trkpt>
      <trkpt lat="47.74909" lon="6.49633">
        <ele>311.754</ele>
        <time>2019-09-25T14:20:54.001Z</time>
      </trkpt>
      <trkpt lat="47.74898" lon="6.49645">
        <ele>312.792</ele>
        <time>2019-09-25T14:20:57.001Z</time>
      </trkpt>
      <trkpt lat="47.74887" lon="6.49655">
        <ele>313.918</ele>
        <time>2019-09-25T16:21:00Z</time>
      </trkpt>
      <trkpt lat="47.74877" lon="6.49665">
        <ele>314.259</ele>
        <time>2019-09-25T14:21:03.001Z</time>
      </trkpt>
      <trkpt lat="47.7487" lon="6.49678">
        <ele>314.987</ele>
        <time>2019-09-25T14:21:06.001Z</time>
      </trkpt>
      <trkpt lat="47.74865" lon="6.49693">
        <ele>316.17</ele>
        <time>2019-09-25T14:21:09.001Z</time>
      </trkpt>
      <trkpt lat="47.74863" lon="6.4971">
        <ele>316.874</ele>
        <time>2019-09-25T14:21:12.001Z</time>
      </trkpt>
      <trkpt lat="47.74863" lon="6.49726">
        <ele>317.464</ele>
        <time>2019-09-25T14:21:15.001Z</time>
      </trkpt>
      <trkpt lat="47.74865" lon="6.4974">
        <ele>317.587</ele>
        <time>2019-09-25T14:21:18.001Z</time>
      </trkpt>
      <trkpt lat="47.74868" lon="6.49753">
        <ele>317.642</ele>
        <time>2019-09-25T14:21:21.001Z</time>
      </trkpt>
      <trkpt lat="47.74871" lon="6.49766">
        <ele>316.975</ele>
        <time>2019-09-25T14:21:24.001Z</time>
      </trkpt>
      <trkpt lat="47.74876" lon="6.49779">
        <ele>317.258</ele>
        <time>2019-09-25T14:21:27.001Z</time>
      </trkpt>
      <trkpt lat="47.7488" lon="6.49792">
        <ele>317.767</ele>
        <time>2019-09-25T14:21:30.001Z</time>
      </trkpt>
      <trkpt lat="47.74884" lon="6.49804">
        <ele>318.584</ele>
        <time>2019-09-25T14:21:33.001Z</time>
      </trkpt>
      <trkpt lat="47.74889" lon="6.49815">
        <ele>319.205</ele>
        <time>2019-09-25T14:21:36.001Z</time>
      </trkpt>
      <trkpt lat="47.74892" lon="6.49827">
        <ele>319.526</ele>
        <time>2019-09-25T14:21:39.001Z</time>
      </trkpt>
      <trkpt lat="47.74894" lon="6.49839">
        <ele>319.748</ele>
        <time>2019-09-25T14:21:42.001Z</time>
      </trkpt>
      <trkpt lat="47.74895" lon="6.49852">
        <ele>320.275</ele>
        <time>2019-09-25T14:21:45.001Z</time>
      </trkpt>
      <trkpt lat="47.74897" lon="6.49862">
        <ele>320.586</ele>
        <time>2019-09-25T14:21:48.001Z</time>
      </trkpt>
      <trkpt lat="47.749" lon="6.49869">
        <ele>321.327</ele>
        <time>2019-09-25T14:21:51.001Z</time>
      </trkpt>
      <trkpt lat="47.74901" lon="6.4987">
        <ele>321.826</ele>
        <time>2019-09-25T14:21:54.001Z</time>
      </trkpt>
      <trkpt lat="47.74901" lon="6.4987">
        <ele>321.826</ele>
        <time>2019-09-25T14:22:09.001Z</time>
      </trkpt>
      <trkpt lat="47.74901" lon="6.4987">
        <ele>321.752</ele>
        <time>2019-09-25T14:22:12.001Z</time>
      </trkpt>
      <trkpt lat="47.74901" lon="6.4987">
        <ele>321.826</ele>
        <time>2019-09-25T14:22:15.001Z</time>
      </trkpt>
      <trkpt lat="47.74901" lon="6.4987">
        <ele>321.826</ele>
        <time>2019-09-25T14:24:27.001Z</time>
      </trkpt>
      <trkpt lat="47.749" lon="6.49867">
        <ele>321.541</ele>
        <time>2019-09-25T14:24:30.001Z</time>
      </trkpt>
      <trkpt lat="47.74898" lon="6.49864">
        <ele>321.703</ele>
        <time>2019-09-25T14:24:33.001Z</time>
      </trkpt>
      <trkpt lat="47.74896" lon="6.49863">
        <ele>321.763</ele>
        <time>2019-09-25T14:24:36.001Z</time>
      </trkpt>
      <trkpt lat="47.74896" lon="6.49863">
        <ele>321.763</ele>
        <time>2019-09-25T14:24:45.001Z</time>
      </trkpt>
      <trkpt lat="47.74896" lon="6.49862">
        <ele>322.162</ele>
        <time>2019-09-25T14:24:48.001Z</time>
      </trkpt>
      <trkpt lat="47.74891" lon="6.49856">
        <ele>323.115</ele>
        <time>2019-09-25T14:24:51.001Z</time>
      </trkpt>
      <trkpt lat="47.74892" lon="6.49842">
        <ele>323.786</ele>
        <time>2019-09-25T14:24:54.001Z</time>
      </trkpt>
      <trkpt lat="47.74893" lon="6.49827">
        <ele>323.427</ele>
        <time>2019-09-25T14:24:57.001Z</time>
      </trkpt>
      <trkpt lat="47.7489" lon="6.49813">
        <ele>322.84</ele>
        <time>2019-09-25T16:25:00Z</time>
      </trkpt>
      <trkpt lat="47.74883" lon="6.49795">
        <ele>322.415</ele>
        <time>2019-09-25T14:25:03.001Z</time>
      </trkpt>
      <trkpt lat="47.74877" lon="6.49776">
        <ele>322.095</ele>
        <time>2019-09-25T14:25:06.001Z</time>
      </trkpt>
      <trkpt lat="47.74871" lon="6.49752">
        <ele>322.018</ele>
        <time>2019-09-25T14:25:09.001Z</time>
      </trkpt>
      <trkpt lat="47.74867" lon="6.49727">
        <ele>322.053</ele>
        <time>2019-09-25T14:25:12.001Z</time>
      </trkpt>
      <trkpt lat="47.74864" lon="6.497">
        <ele>322.037</ele>
        <time>2019-09-25T14:25:15.001Z</time>
      </trkpt>
      <trkpt lat="47.74872" lon="6.49674">
        <ele>321.065</ele>
        <time>2019-09-25T14:25:18.001Z</time>
      </trkpt>
      <trkpt lat="47.74888" lon="6.49657">
        <ele>320.357</ele>
        <time>2019-09-25T14:25:21.001Z</time>
      </trkpt>
      <trkpt lat="47.74902" lon="6.49641">
        <ele>319.966</ele>
        <time>2019-09-25T14:25:24.001Z</time>
      </trkpt>
      <trkpt lat="47.74915" lon="6.49626">
        <ele>320.159</ele>
        <time>2019-09-25T14:25:27.001Z</time>
      </trkpt>
      <trkpt lat="47.74923" lon="6.49615">
        <ele>320.365</ele>
        <time>2019-09-25T14:25:30.001Z</time>
      </trkpt>
      <trkpt lat="47.74929" lon="6.49617">
        <ele>319.784</ele>
        <time>2019-09-25T14:25:33.001Z</time>
      </trkpt>
      <trkpt lat="47.74934" lon="6.49626">
        <ele>320.044</ele>
        <time>2019-09-25T14:25:36.001Z</time>
      </trkpt>
      <trkpt lat="47.74938" lon="6.49638">
        <ele>320.919</ele>
        <time>2019-09-25T14:25:39.001Z</time>
      </trkpt>
      <trkpt lat="47.74943" lon="6.49645">
        <ele>321.073</ele>
        <time>2019-09-25T14:25:42.001Z</time>
      </trkpt>
      <trkpt lat="47.74951" lon="6.49641">
        <ele>320.775</ele>
        <time>2019-09-25T14:25:45.001Z</time>
      </trkpt>
      <trkpt lat="47.74956" lon="6.49636">
        <ele>320.811</ele>
        <time>2019-09-25T14:25:48.001Z</time>
      </trkpt>
      <trkpt lat="47.74961" lon="6.4963">
        <ele>320.585</ele>
        <time>2019-09-25T14:25:51.001Z</time>
      </trkpt>
      <trkpt lat="47.74965" lon="6.49625">
        <ele>320.27</ele>
        <time>2019-09-25T14:25:54.001Z</time>
      </trkpt>
      <trkpt lat="47.74968" lon="6.49621">
        <ele>320.262</ele>
        <time>2019-09-25T14:25:57.001Z</time>
      </trkpt>
      <trkpt lat="47.74968" lon="6.49621">
        <ele>320.319</ele>
        <time>2019-09-25T16:26:00Z</time>
      </trkpt>
      <trkpt lat="47.74969" lon="6.49622">
        <ele>320.503</ele>
        <time>2019-09-25T14:26:54.001Z</time>
      </trkpt>
      <trkpt lat="47.74969" lon="6.4962">
        <ele>320.161</ele>
        <time>2019-09-25T14:26:57.001Z</time>
      </trkpt>
      <trkpt lat="47.7497" lon="6.4962">
        <ele>320.14</ele>
        <time>2019-09-25T16:27:00Z</time>
      </trkpt>
      <trkpt lat="47.7497" lon="6.4962">
        <ele>320.14</ele>
        <time>2019-09-25T14:27:12.001Z</time>
      </trkpt>
      <trkpt lat="47.74967" lon="6.49618">
        <ele>320.083</ele>
        <time>2019-09-25T14:27:15.001Z</time>
      </trkpt>
      <trkpt lat="47.74968" lon="6.49608">
        <ele>319.758</ele>
        <time>2019-09-25T14:27:24.001Z</time>
      </trkpt>
    </trkseg>
  </trk>
</gpx>